<?xml version='1.0' encoding='UTF-8'?><gpx version="1.1" creator="JPX - https://github.com/jenetics/jpx" xmlns="http://www.topografix.com/GPX/1/1"><trk><trkseg><trkpt lat="45.48521464301753" lon="10.308870919301668"><ele>134.16666666666666</ele><time>2026-05-01T05:56:35Z</time></trkpt><trkpt lat="45.48518259487288" lon="10.308969546104212"><ele>134.33333333333331</ele><time>2026-05-01T05:56:39Z</time></trkpt><trkpt lat="45.48516334533125" lon="10.30905904019097"><ele>134.5</ele><time>2026-05-01T05:56:42Z</time></trkpt><trkpt lat="45.485137437234386" lon="10.309154081836875"><ele>134.66666666666666</ele><time>2026-05-01T05:56:46Z</time></trkpt><trkpt lat="45.485127423639554" lon="10.309277887782178"><ele>134.83333333333334</ele><time>2026-05-01T05:58:58.999Z</time></trkpt><trkpt lat="45.4850893072082" lon="10.309414921536534"><ele>135.0</ele><time>2026-05-01T05:59:00.999Z</time></trkpt><trkpt lat="45.48504391898893" lon="10.30958003945521"><ele>135.0</ele><time>2026-05-01T05:59:02.999Z</time></trkpt><trkpt lat="45.485029043599944" lon="10.309674310681222"><ele>135.0</ele><time>2026-05-01T05:59:03.999Z</time></trkpt><trkpt lat="45.48500591024673" lon="10.309763267928359"><ele>135.0</ele><time>2026-05-01T05:59:04.999Z</time></trkpt><trkpt lat="45.48499751988391" lon="10.309861759170023"><ele>135.0</ele><time>2026-05-01T05:59:05.999Z</time></trkpt><trkpt lat="45.48500413790248" lon="10.309959021430886"><ele>135.0</ele><time>2026-05-01T05:59:06.999Z</time></trkpt><trkpt lat="45.48500357431861" lon="10.310069887995805"><ele>135.0</ele><time>2026-05-01T05:59:07.999Z</time></trkpt><trkpt lat="45.484997132881986" lon="10.310188412283482"><ele>135.0</ele><time>2026-05-01T05:59:08.999Z</time></trkpt><trkpt lat="45.48497562597775" lon="10.310320028787546"><ele>135.25</ele><time>2026-05-01T05:59:09.999Z</time></trkpt><trkpt lat="45.48494215205613" lon="10.310456995179972"><ele>135.5</ele><time>2026-05-01T05:59:10.999Z</time></trkpt><trkpt lat="45.48490537692431" lon="10.31060777095193"><ele>135.75</ele><time>2026-05-01T05:59:11.999Z</time></trkpt><trkpt lat="45.484865598810195" lon="10.310770898438447"><ele>136.0</ele><time>2026-05-01T05:59:12.999Z</time></trkpt><trkpt lat="45.48481920380627" lon="10.310949953855058"><ele>136.0</ele><time>2026-05-01T05:59:13.999Z</time></trkpt><trkpt lat="45.48476708775201" lon="10.31116089199105"><ele>136.0</ele><time>2026-05-01T05:59:14.999Z</time></trkpt><trkpt lat="45.48471386996225" lon="10.31138956502925"><ele>136.0</ele><time>2026-05-01T05:59:15.999Z</time></trkpt><trkpt lat="45.484659452202116" lon="10.311633485955007"><ele>136.0</ele><time>2026-05-01T05:59:16.999Z</time></trkpt><trkpt lat="45.48459933508845" lon="10.311891760384002"><ele>136.0</ele><time>2026-05-01T05:59:17.999Z</time></trkpt><trkpt lat="45.484537632957505" lon="10.312158538813277"><ele>136.0</ele><time>2026-05-01T05:59:18.999Z</time></trkpt><trkpt lat="45.484471835794956" lon="10.312427561148938"><ele>135.66666666666669</ele><time>2026-05-01T05:59:19.999Z</time></trkpt><trkpt lat="45.48440731031605" lon="10.312705931076575"><ele>135.33333333333334</ele><time>2026-05-01T05:59:20.999Z</time></trkpt><trkpt lat="45.484340905370935" lon="10.312987045249146"><ele>135.0</ele><time>2026-05-01T05:59:21.999Z</time></trkpt><trkpt lat="45.48427276866845" lon="10.313267579218667"><ele>135.0</ele><time>2026-05-01T05:59:22.999Z</time></trkpt><trkpt lat="45.48420333031439" lon="10.313550345936976"><ele>135.0</ele><time>2026-05-01T05:59:23.999Z</time></trkpt><trkpt lat="45.4841334317819" lon="10.313836582288538"><ele>135.0</ele><time>2026-05-01T05:59:24.999Z</time></trkpt><trkpt lat="45.48406163040805" lon="10.31412256800294"><ele>135.33333333333334</ele><time>2026-05-01T05:59:25.999Z</time></trkpt><trkpt lat="45.48399110341865" lon="10.314409958389296"><ele>135.66666666666669</ele><time>2026-05-01T05:59:26.999Z</time></trkpt><trkpt lat="45.483920386957706" lon="10.314697349689757"><ele>136.0</ele><time>2026-05-01T05:59:27.999Z</time></trkpt><trkpt lat="45.48384822005731" lon="10.314986661397326"><ele>136.33333333333334</ele><time>2026-05-01T05:59:28.999Z</time></trkpt><trkpt lat="45.48377846562585" lon="10.315279607675867"><ele>136.66666666666666</ele><time>2026-05-01T05:59:29.999Z</time></trkpt><trkpt lat="45.483706223156716" lon="10.315574280573117"><ele>137.0</ele><time>2026-05-01T05:59:30.999Z</time></trkpt><trkpt lat="45.48363807946789" lon="10.315868705283592"><ele>136.0</ele><time>2026-05-01T05:59:31.999Z</time></trkpt><trkpt lat="45.48356942149885" lon="10.316163239693934"><ele>135.0</ele><time>2026-05-01T05:59:32.999Z</time></trkpt><trkpt lat="45.48350392312857" lon="10.316460210852771"><ele>134.0</ele><time>2026-05-01T05:59:33.999Z</time></trkpt><trkpt lat="45.483442865132055" lon="10.3167606330966"><ele>134.0</ele><time>2026-05-01T05:59:34.999Z</time></trkpt><trkpt lat="45.483377483136344" lon="10.317061832851564"><ele>134.0</ele><time>2026-05-01T05:59:35.999Z</time></trkpt><trkpt lat="45.48330855900094" lon="10.317371271174926"><ele>134.0</ele><time>2026-05-01T05:59:36.999Z</time></trkpt><trkpt lat="45.48323789449576" lon="10.317673570474243"><ele>134.0</ele><time>2026-05-01T05:59:37.999Z</time></trkpt><trkpt lat="45.48316570179398" lon="10.317984429386733"><ele>134.0</ele><time>2026-05-01T05:59:38.999Z</time></trkpt><trkpt lat="45.48309064766231" lon="10.318306341032779"><ele>135.0</ele><time>2026-05-01T05:59:39.999Z</time></trkpt><trkpt lat="45.48301443189935" lon="10.318638648481455"><ele>136.0</ele><time>2026-05-01T05:59:40.999Z</time></trkpt><trkpt lat="45.48294102271812" lon="10.31896770430742"><ele>135.0</ele><time>2026-05-01T05:59:41.999Z</time></trkpt><trkpt lat="45.48286847205599" lon="10.319274083892099"><ele>134.0</ele><time>2026-05-01T05:59:42.999Z</time></trkpt><trkpt lat="45.482800259650126" lon="10.319580885412217"><ele>134.33333333333331</ele><time>2026-05-01T05:59:43.999Z</time></trkpt><trkpt lat="45.4827304458185" lon="10.319873870116048"><ele>134.66666666666666</ele><time>2026-05-01T05:59:44.999Z</time></trkpt><trkpt lat="45.48266876777965" lon="10.320158611956519"><ele>135.0</ele><time>2026-05-01T05:59:45.999Z</time></trkpt><trkpt lat="45.482606029489816" lon="10.320451538280627"><ele>135.0</ele><time>2026-05-01T05:59:46.999Z</time></trkpt><trkpt lat="45.48254421848994" lon="10.3207504034785"><ele>135.0</ele><time>2026-05-01T05:59:47.999Z</time></trkpt><trkpt lat="45.482479157575746" lon="10.321047234827352"><ele>135.0</ele><time>2026-05-01T05:59:48.999Z</time></trkpt><trkpt lat="45.48241066306108" lon="10.32134673557536"><ele>135.0</ele><time>2026-05-01T05:59:49.999Z</time></trkpt><trkpt lat="45.48234223474874" lon="10.321648013213723"><ele>135.0</ele><time>2026-05-01T05:59:50.999Z</time></trkpt><trkpt lat="45.48227251909828" lon="10.321954150156472"><ele>135.0</ele><time>2026-05-01T05:59:51.999Z</time></trkpt><trkpt lat="45.482202624703234" lon="10.322262324400928"><ele>135.0</ele><time>2026-05-01T05:59:52.999Z</time></trkpt><trkpt lat="45.48213168839557" lon="10.322571823636812"><ele>135.0</ele><time>2026-05-01T05:59:53.999Z</time></trkpt><trkpt lat="45.48206023528399" lon="10.322885669386357"><ele>135.0</ele><time>2026-05-01T05:59:54.999Z</time></trkpt><trkpt lat="45.481990975187514" lon="10.323198396155517"><ele>135.0</ele><time>2026-05-01T05:59:55.999Z</time></trkpt><trkpt lat="45.48192013182088" lon="10.32351398683963"><ele>135.0</ele><time>2026-05-01T05:59:56.999Z</time></trkpt><trkpt lat="45.48185030356296" lon="10.323832764705184"><ele>135.0</ele><time>2026-05-01T05:59:57.999Z</time></trkpt><trkpt lat="45.48177878748532" lon="10.324150545814827"><ele>135.0</ele><time>2026-05-01T05:59:58.999Z</time></trkpt><trkpt lat="45.48170565463487" lon="10.32447330720814"><ele>135.0</ele><time>2026-05-01T05:59:59.999Z</time></trkpt><trkpt lat="45.48163137894731" lon="10.32479252996841"><ele>135.5</ele><time>2026-05-01T06:00:00.999Z</time></trkpt><trkpt lat="45.481560522710446" lon="10.32511665901896"><ele>136.0</ele><time>2026-05-01T06:00:01.999Z</time></trkpt><trkpt lat="45.481486169159346" lon="10.325421821274329"><ele>136.33333333333334</ele><time>2026-05-01T06:00:02.999Z</time></trkpt><trkpt lat="45.48142575084837" lon="10.325704032098468"><ele>136.66666666666666</ele><time>2026-05-01T06:00:03.999Z</time></trkpt><trkpt lat="45.48135197242545" lon="10.326011974228164"><ele>137.0</ele><time>2026-05-01T06:00:04.999Z</time></trkpt><trkpt lat="45.481280658250796" lon="10.326307532021163"><ele>136.0</ele><time>2026-05-01T06:00:05.999Z</time></trkpt><trkpt lat="45.48121647345085" lon="10.32661343943585"><ele>135.0</ele><time>2026-05-01T06:00:06.999Z</time></trkpt><trkpt lat="45.48114828697153" lon="10.326925633665216"><ele>135.5</ele><time>2026-05-01T06:00:07.999Z</time></trkpt><trkpt lat="45.48107925316221" lon="10.327239458676454"><ele>136.0</ele><time>2026-05-01T06:00:08.999Z</time></trkpt><trkpt lat="45.48100963416158" lon="10.327557078130582"><ele>136.0</ele><time>2026-05-01T06:00:09.999Z</time></trkpt><trkpt lat="45.4809374876882" lon="10.327879177944238"><ele>136.0</ele><time>2026-05-01T06:00:10.999Z</time></trkpt><trkpt lat="45.48086656729368" lon="10.328203282982445"><ele>136.0</ele><time>2026-05-01T06:00:11.999Z</time></trkpt><trkpt lat="45.48079392087974" lon="10.328524612125184"><ele>136.0</ele><time>2026-05-01T06:00:12.999Z</time></trkpt><trkpt lat="45.48071881165108" lon="10.328851146106313"><ele>136.0</ele><time>2026-05-01T06:00:13.999Z</time></trkpt><trkpt lat="45.480644753937284" lon="10.329176475334409"><ele>136.0</ele><time>2026-05-01T06:00:14.999Z</time></trkpt><trkpt lat="45.480571209593265" lon="10.329505955213527"><ele>136.0</ele><time>2026-05-01T06:00:15.999Z</time></trkpt><trkpt lat="45.48049732560967" lon="10.32983239662473"><ele>136.0</ele><time>2026-05-01T06:00:16.999Z</time></trkpt><trkpt lat="45.48042506335125" lon="10.33015950984301"><ele>136.0</ele><time>2026-05-01T06:00:17.999Z</time></trkpt><trkpt lat="45.480352128297845" lon="10.330486882975757"><ele>136.0</ele><time>2026-05-01T06:00:18.999Z</time></trkpt><trkpt lat="45.480278993584236" lon="10.330810670938893"><ele>136.0</ele><time>2026-05-01T06:00:19.999Z</time></trkpt><trkpt lat="45.48020518414513" lon="10.33113487756467"><ele>136.0</ele><time>2026-05-01T06:00:20.999Z</time></trkpt><trkpt lat="45.480134952117545" lon="10.331452947262191"><ele>136.0</ele><time>2026-05-01T06:00:21.999Z</time></trkpt><trkpt lat="45.48006078053969" lon="10.331779686505309"><ele>136.0</ele><time>2026-05-01T06:00:22.999Z</time></trkpt><trkpt lat="45.47999158188194" lon="10.33210029223471"><ele>135.0</ele><time>2026-05-01T06:00:23.999Z</time></trkpt><trkpt lat="45.47992054480437" lon="10.332417051968024"><ele>134.0</ele><time>2026-05-01T06:00:24.999Z</time></trkpt><trkpt lat="45.47985233944485" lon="10.332733053045544"><ele>134.0</ele><time>2026-05-01T06:00:25.999Z</time></trkpt><trkpt lat="45.47978978455997" lon="10.333040598228765"><ele>134.0</ele><time>2026-05-01T06:00:26.999Z</time></trkpt><trkpt lat="45.47972524266731" lon="10.333355508560384"><ele>135.5</ele><time>2026-05-01T06:00:27.999Z</time></trkpt><trkpt lat="45.47966083743881" lon="10.333676301963434"><ele>137.0</ele><time>2026-05-01T06:00:28.999Z</time></trkpt><trkpt lat="45.47959524678034" lon="10.33399912711353"><ele>137.0</ele><time>2026-05-01T06:00:29.999Z</time></trkpt><trkpt lat="45.479520984128904" lon="10.334326289372909"><ele>137.0</ele><time>2026-05-01T06:00:30.999Z</time></trkpt><trkpt lat="45.47944603665018" lon="10.3346600612898"><ele>137.0</ele><time>2026-05-01T06:00:31.999Z</time></trkpt><trkpt lat="45.479369206964066" lon="10.334987153774987"><ele>137.0</ele><time>2026-05-01T06:00:32.999Z</time></trkpt><trkpt lat="45.4792944109646" lon="10.335316478262207"><ele>136.5</ele><time>2026-05-01T06:00:33.999Z</time></trkpt><trkpt lat="45.47921946370772" lon="10.335650627487254"><ele>136.0</ele><time>2026-05-01T06:00:34.999Z</time></trkpt><trkpt lat="45.47914455398863" lon="10.335983109072775"><ele>136.0</ele><time>2026-05-01T06:00:35.999Z</time></trkpt><trkpt lat="45.47906982676308" lon="10.336315102194929"><ele>136.0</ele><time>2026-05-01T06:00:36.999Z</time></trkpt><trkpt lat="45.47899499345326" lon="10.336645700515843"><ele>136.0</ele><time>2026-05-01T06:00:38Z</time></trkpt><trkpt lat="45.47891877332297" lon="10.336983348683589"><ele>136.0</ele><time>2026-05-01T06:00:39Z</time></trkpt><trkpt lat="45.478848023646805" lon="10.337313755382894"><ele>135.5</ele><time>2026-05-01T06:00:40Z</time></trkpt><trkpt lat="45.47877069365881" lon="10.337650522008518"><ele>135.0</ele><time>2026-05-01T06:00:41Z</time></trkpt><trkpt lat="45.478695553613605" lon="10.337980481616583"><ele>135.5</ele><time>2026-05-01T06:00:42Z</time></trkpt><trkpt lat="45.47861866313664" lon="10.338315930850628"><ele>136.0</ele><time>2026-05-01T06:00:43Z</time></trkpt><trkpt lat="45.47854715411695" lon="10.338645119041809"><ele>137.0</ele><time>2026-05-01T06:00:44Z</time></trkpt><trkpt lat="45.47847017356753" lon="10.338975042816593"><ele>138.0</ele><time>2026-05-01T06:00:45Z</time></trkpt><trkpt lat="45.47840090867321" lon="10.339304467596522"><ele>138.0</ele><time>2026-05-01T06:00:46Z</time></trkpt><trkpt lat="45.47832678198015" lon="10.339631959711335"><ele>138.0</ele><time>2026-05-01T06:00:47Z</time></trkpt><trkpt lat="45.47825343743265" lon="10.339957701360296"><ele>137.0</ele><time>2026-05-01T06:00:48Z</time></trkpt><trkpt lat="45.47818123208299" lon="10.340279761713973"><ele>136.0</ele><time>2026-05-01T06:00:49Z</time></trkpt><trkpt lat="45.478108246681465" lon="10.340593920219515"><ele>136.0</ele><time>2026-05-01T06:00:50Z</time></trkpt><trkpt lat="45.478032758644794" lon="10.34092151147868"><ele>136.0</ele><time>2026-05-01T06:00:51Z</time></trkpt><trkpt lat="45.47795603383982" lon="10.34124139938159"><ele>136.0</ele><time>2026-05-01T06:00:52Z</time></trkpt><trkpt lat="45.47788192747469" lon="10.34156590382367"><ele>136.0</ele><time>2026-05-01T06:00:53Z</time></trkpt><trkpt lat="45.4778076213091" lon="10.341892925068784"><ele>135.5</ele><time>2026-05-01T06:00:54Z</time></trkpt><trkpt lat="45.47773191330107" lon="10.342223207890651"><ele>135.0</ele><time>2026-05-01T06:00:55Z</time></trkpt><trkpt lat="45.47765789493282" lon="10.342551723900442"><ele>135.0</ele><time>2026-05-01T06:00:56Z</time></trkpt><trkpt lat="45.47758382937475" lon="10.34288009320929"><ele>135.0</ele><time>2026-05-01T06:00:57Z</time></trkpt><trkpt lat="45.47751326734032" lon="10.343202248768156"><ele>135.0</ele><time>2026-05-01T06:00:57.999Z</time></trkpt><trkpt lat="45.47743909751905" lon="10.343532049167731"><ele>135.0</ele><time>2026-05-01T06:00:58.999Z</time></trkpt><trkpt lat="45.477364152805876" lon="10.34385930504952"><ele>136.0</ele><time>2026-05-01T06:00:59.999Z</time></trkpt><trkpt lat="45.47728974816419" lon="10.344192694981837"><ele>137.0</ele><time>2026-05-01T06:01:00.999Z</time></trkpt><trkpt lat="45.477210363924016" lon="10.344542885665716"><ele>136.5</ele><time>2026-05-01T06:01:01.999Z</time></trkpt><trkpt lat="45.477123533813625" lon="10.344915712527087"><ele>136.0</ele><time>2026-05-01T06:01:02.999Z</time></trkpt><trkpt lat="45.4770368635933" lon="10.345304731991833"><ele>135.5</ele><time>2026-05-01T06:01:03.999Z</time></trkpt><trkpt lat="45.47694896752137" lon="10.34571064051724"><ele>135.0</ele><time>2026-05-01T06:01:04.999Z</time></trkpt><trkpt lat="45.47685552273676" lon="10.346125363596983"><ele>135.5</ele><time>2026-05-01T06:01:05.999Z</time></trkpt><trkpt lat="45.47676027134593" lon="10.34654684126109"><ele>136.0</ele><time>2026-05-01T06:01:06.999Z</time></trkpt><trkpt lat="45.47666384884791" lon="10.346965623091139"><ele>137.0</ele><time>2026-05-01T06:01:07.999Z</time></trkpt><trkpt lat="45.476569384593724" lon="10.347376940803436"><ele>138.0</ele><time>2026-05-01T06:01:08.999Z</time></trkpt><trkpt lat="45.47647081136082" lon="10.347788053725868"><ele>138.0</ele><time>2026-05-01T06:01:09.999Z</time></trkpt><trkpt lat="45.476369306626054" lon="10.348207661710676"><ele>138.0</ele><time>2026-05-01T06:01:10.999Z</time></trkpt><trkpt lat="45.476264795128046" lon="10.348621618890485"><ele>137.0</ele><time>2026-05-01T06:01:11.999Z</time></trkpt><trkpt lat="45.47616623953927" lon="10.349039873774421"><ele>136.0</ele><time>2026-05-01T06:01:12.999Z</time></trkpt><trkpt lat="45.476070548813375" lon="10.349466233032693"><ele>136.5</ele><time>2026-05-01T06:01:13.999Z</time></trkpt><trkpt lat="45.47597367194492" lon="10.349892782035926"><ele>137.0</ele><time>2026-05-01T06:01:14.999Z</time></trkpt><trkpt lat="45.475875713313165" lon="10.350331353533068"><ele>136.5</ele><time>2026-05-01T06:01:15.999Z</time></trkpt><trkpt lat="45.47577886840423" lon="10.350769540404444"><ele>136.0</ele><time>2026-05-01T06:01:16.999Z</time></trkpt><trkpt lat="45.47567921450075" lon="10.35120880687732"><ele>136.5</ele><time>2026-05-01T06:01:17.999Z</time></trkpt><trkpt lat="45.475582692364945" lon="10.351634423343869"><ele>137.0</ele><time>2026-05-01T06:01:18.999Z</time></trkpt><trkpt lat="45.475485760661854" lon="10.352052933517259"><ele>136.5</ele><time>2026-05-01T06:01:19.999Z</time></trkpt><trkpt lat="45.47539422359919" lon="10.352459381606929"><ele>136.0</ele><time>2026-05-01T06:01:20.999Z</time></trkpt><trkpt lat="45.47530342273328" lon="10.352870915153442"><ele>136.5</ele><time>2026-05-01T06:01:21.999Z</time></trkpt><trkpt lat="45.47521201113253" lon="10.353288422629836"><ele>137.0</ele><time>2026-05-01T06:01:22.999Z</time></trkpt><trkpt lat="45.47511585128919" lon="10.353708617572261"><ele>137.0</ele><time>2026-05-01T06:01:23.999Z</time></trkpt><trkpt lat="45.475021118613306" lon="10.354130202540395"><ele>137.0</ele><time>2026-05-01T06:01:24.999Z</time></trkpt><trkpt lat="45.47492099543334" lon="10.354559401788404"><ele>136.5</ele><time>2026-05-01T06:01:25.999Z</time></trkpt><trkpt lat="45.47482212063901" lon="10.35498904528143"><ele>136.0</ele><time>2026-05-01T06:01:26.999Z</time></trkpt><trkpt lat="45.47472699509959" lon="10.355421822094861"><ele>136.5</ele><time>2026-05-01T06:01:27.999Z</time></trkpt><trkpt lat="45.474633329391935" lon="10.355845996172524"><ele>137.0</ele><time>2026-05-01T06:01:28.999Z</time></trkpt><trkpt lat="45.47454232167098" lon="10.356270232060034"><ele>136.0</ele><time>2026-05-01T06:01:29.999Z</time></trkpt><trkpt lat="45.47445251120314" lon="10.356695840246655"><ele>135.0</ele><time>2026-05-01T06:01:30.999Z</time></trkpt><trkpt lat="45.47435862856734" lon="10.357112000440333"><ele>134.5</ele><time>2026-05-01T06:01:31.999Z</time></trkpt><trkpt lat="45.47426084715728" lon="10.357526211202584"><ele>134.0</ele><time>2026-05-01T06:01:32.999Z</time></trkpt><trkpt lat="45.47417009663879" lon="10.357942403128103"><ele>134.5</ele><time>2026-05-01T06:01:33.999Z</time></trkpt><trkpt lat="45.47407632346445" lon="10.35835511392968"><ele>135.0</ele><time>2026-05-01T06:01:34.999Z</time></trkpt><trkpt lat="45.47398187151334" lon="10.358770789820204"><ele>135.5</ele><time>2026-05-01T06:01:35.999Z</time></trkpt><trkpt lat="45.473886817405656" lon="10.359189904753874"><ele>136.0</ele><time>2026-05-01T06:01:36.999Z</time></trkpt><trkpt lat="45.47379112090991" lon="10.359609213763768"><ele>136.0</ele><time>2026-05-01T06:01:37.999Z</time></trkpt><trkpt lat="45.473697262863695" lon="10.360028008621839"><ele>136.0</ele><time>2026-05-01T06:01:38.999Z</time></trkpt><trkpt lat="45.473603097489416" lon="10.360449907425263"><ele>135.5</ele><time>2026-05-01T06:01:39.999Z</time></trkpt><trkpt lat="45.47350212192718" lon="10.360871306359167"><ele>135.0</ele><time>2026-05-01T06:01:40.999Z</time></trkpt><trkpt lat="45.47340868546541" lon="10.361295459640136"><ele>135.0</ele><time>2026-05-01T06:01:41.999Z</time></trkpt><trkpt lat="45.473314273717556" lon="10.361714769172067"><ele>135.0</ele><time>2026-05-01T06:01:42.999Z</time></trkpt><trkpt lat="45.47322202376845" lon="10.362137244009762"><ele>135.0</ele><time>2026-05-01T06:01:43.999Z</time></trkpt><trkpt lat="45.473125622968084" lon="10.362546531566881"><ele>135.0</ele><time>2026-05-01T06:01:44.999Z</time></trkpt><trkpt lat="45.47303202464479" lon="10.362952390538746"><ele>134.0</ele><time>2026-05-01T06:01:46Z</time></trkpt><trkpt lat="45.47293855148198" lon="10.363356150451034"><ele>133.0</ele><time>2026-05-01T06:01:46.999Z</time></trkpt><trkpt lat="45.47285039035847" lon="10.363764109267741"><ele>134.0</ele><time>2026-05-01T06:01:47.999Z</time></trkpt><trkpt lat="45.47276456568861" lon="10.364164922991943"><ele>135.0</ele><time>2026-05-01T06:01:48.999Z</time></trkpt><trkpt lat="45.472677189281924" lon="10.364569647372559"><ele>135.0</ele><time>2026-05-01T06:01:49.999Z</time></trkpt><trkpt lat="45.47259249539001" lon="10.364971320250806"><ele>135.0</ele><time>2026-05-01T06:01:50.999Z</time></trkpt><trkpt lat="45.472512157520235" lon="10.365379537247131"><ele>135.5</ele><time>2026-05-01T06:01:51.999Z</time></trkpt><trkpt lat="45.47242621366291" lon="10.365783017479934"><ele>136.0</ele><time>2026-05-01T06:01:52.999Z</time></trkpt><trkpt lat="45.47233852202163" lon="10.366189244446419"><ele>136.0</ele><time>2026-05-01T06:01:53.999Z</time></trkpt><trkpt lat="45.47224849493088" lon="10.366586938984021"><ele>136.0</ele><time>2026-05-01T06:01:54.999Z</time></trkpt><trkpt lat="45.47216056438618" lon="10.36698026522367"><ele>135.5</ele><time>2026-05-01T06:01:55.999Z</time></trkpt><trkpt lat="45.47207486082609" lon="10.367362040008208"><ele>135.0</ele><time>2026-05-01T06:01:56.999Z</time></trkpt><trkpt lat="45.47199186318567" lon="10.367739522656773"><ele>135.5</ele><time>2026-05-01T06:01:57.999Z</time></trkpt><trkpt lat="45.471908726277974" lon="10.368099955249159"><ele>136.0</ele><time>2026-05-01T06:01:58.999Z</time></trkpt><trkpt lat="45.471830112037004" lon="10.36845350747989"><ele>136.0</ele><time>2026-05-01T06:01:59.999Z</time></trkpt><trkpt lat="45.47175081931792" lon="10.368800780147494"><ele>136.0</ele><time>2026-05-01T06:02:00.999Z</time></trkpt><trkpt lat="45.47167310497309" lon="10.3691467449271"><ele>136.0</ele><time>2026-05-01T06:02:01.999Z</time></trkpt><trkpt lat="45.47159271383525" lon="10.36950523853044"><ele>136.0</ele><time>2026-05-01T06:02:02.999Z</time></trkpt><trkpt lat="45.47151500637316" lon="10.369880121498307"><ele>136.0</ele><time>2026-05-01T06:02:03.999Z</time></trkpt><trkpt lat="45.47143803531908" lon="10.370260935182532"><ele>136.0</ele><time>2026-05-01T06:02:04.999Z</time></trkpt><trkpt lat="45.471354402985526" lon="10.37064595137366"><ele>135.5</ele><time>2026-05-01T06:02:05.999Z</time></trkpt><trkpt lat="45.47127051432716" lon="10.371028835209124"><ele>135.0</ele><time>2026-05-01T06:02:06.999Z</time></trkpt><trkpt lat="45.47118082610439" lon="10.371397707155435"><ele>135.0</ele><time>2026-05-01T06:02:07.999Z</time></trkpt><trkpt lat="45.471104969331826" lon="10.37175472730148"><ele>135.0</ele><time>2026-05-01T06:02:08.999Z</time></trkpt><trkpt lat="45.47102872345353" lon="10.372093705321861"><ele>134.5</ele><time>2026-05-01T06:02:09.999Z</time></trkpt><trkpt lat="45.47096209222906" lon="10.372438947411018"><ele>134.0</ele><time>2026-05-01T06:02:10.999Z</time></trkpt><trkpt lat="45.47088604160113" lon="10.372773714052029"><ele>134.5</ele><time>2026-05-01T06:02:11.999Z</time></trkpt><trkpt lat="45.47081021598743" lon="10.373088616540874"><ele>135.0</ele><time>2026-05-01T06:02:12.999Z</time></trkpt><trkpt lat="45.47074221397641" lon="10.373386832324751"><ele>135.0</ele><time>2026-05-01T06:02:13.999Z</time></trkpt><trkpt lat="45.47067593721156" lon="10.37368600835719"><ele>135.0</ele><time>2026-05-01T06:02:14.999Z</time></trkpt><trkpt lat="45.47060466001113" lon="10.373983919244584"><ele>135.0</ele><time>2026-05-01T06:02:15.999Z</time></trkpt><trkpt lat="45.47053608819389" lon="10.374285331318756"><ele>135.0</ele><time>2026-05-01T06:02:16.999Z</time></trkpt><trkpt lat="45.47047459160119" lon="10.3745939710844"><ele>135.0</ele><time>2026-05-01T06:02:17.999Z</time></trkpt><trkpt lat="45.47040250206107" lon="10.374900162942502"><ele>135.0</ele><time>2026-05-01T06:02:18.999Z</time></trkpt><trkpt lat="45.47033140786427" lon="10.37520467746183"><ele>135.0</ele><time>2026-05-01T06:02:19.999Z</time></trkpt><trkpt lat="45.47026005913158" lon="10.375511451921911"><ele>135.0</ele><time>2026-05-01T06:02:20.999Z</time></trkpt><trkpt lat="45.4701910363282" lon="10.375804131992268"><ele>135.0</ele><time>2026-05-01T06:02:21.999Z</time></trkpt><trkpt lat="45.470125246259755" lon="10.37608799622852"><ele>135.0</ele><time>2026-05-01T06:02:22.999Z</time></trkpt><trkpt lat="45.470056559330416" lon="10.376377104961998"><ele>135.0</ele><time>2026-05-01T06:02:23.999Z</time></trkpt><trkpt lat="45.46999246178065" lon="10.37666039452202"><ele>135.0</ele><time>2026-05-01T06:02:24.999Z</time></trkpt><trkpt lat="45.46993010780826" lon="10.3769405743846"><ele>135.0</ele><time>2026-05-01T06:02:25.999Z</time></trkpt><trkpt lat="45.4698703191389" lon="10.377208849734808"><ele>135.33333333333334</ele><time>2026-05-01T06:02:26.999Z</time></trkpt><trkpt lat="45.46981531692255" lon="10.377469115452957"><ele>135.66666666666669</ele><time>2026-05-01T06:02:27.999Z</time></trkpt><trkpt lat="45.469752005109726" lon="10.377710194326783"><ele>136.0</ele><time>2026-05-01T06:02:28.999Z</time></trkpt><trkpt lat="45.46969757846256" lon="10.377949306628018"><ele>136.0</ele><time>2026-05-01T06:02:29.999Z</time></trkpt><trkpt lat="45.46964105792875" lon="10.378173126126232"><ele>136.0</ele><time>2026-05-01T06:02:30.999Z</time></trkpt><trkpt lat="45.46958656017615" lon="10.378393693315902"><ele>136.0</ele><time>2026-05-01T06:02:31.999Z</time></trkpt><trkpt lat="45.469536235852" lon="10.378612635956936"><ele>136.0</ele><time>2026-05-01T06:02:33Z</time></trkpt><trkpt lat="45.469490743086276" lon="10.378837043872284"><ele>136.0</ele><time>2026-05-01T06:02:34Z</time></trkpt><trkpt lat="45.469434084192244" lon="10.379057598894947"><ele>136.0</ele><time>2026-05-01T06:02:35Z</time></trkpt><trkpt lat="45.46938550282348" lon="10.379279279422876"><ele>136.0</ele><time>2026-05-01T06:02:36Z</time></trkpt><trkpt lat="45.469335560942355" lon="10.379482164382539"><ele>136.0</ele><time>2026-05-01T06:02:37Z</time></trkpt><trkpt lat="45.469296623642535" lon="10.379684213084296"><ele>136.0</ele><time>2026-05-01T06:02:38Z</time></trkpt><trkpt lat="45.4692569983334" lon="10.37986133112012"><ele>136.0</ele><time>2026-05-01T06:02:39Z</time></trkpt><trkpt lat="45.469225540836334" lon="10.380034307316578"><ele>135.8</ele><time>2026-05-01T06:02:40Z</time></trkpt><trkpt lat="45.46918919230351" lon="10.380188628634555"><ele>135.6</ele><time>2026-05-01T06:02:41Z</time></trkpt><trkpt lat="45.469160087186665" lon="10.380321041988395"><ele>135.4</ele><time>2026-05-01T06:02:42Z</time></trkpt><trkpt lat="45.46912810675781" lon="10.380430118809054"><ele>135.2</ele><time>2026-05-01T06:02:43Z</time></trkpt><trkpt lat="45.46910045069217" lon="10.380538739275828"><ele>135.0</ele><time>2026-05-01T06:02:44Z</time></trkpt><trkpt lat="45.469076534078496" lon="10.380645966522346"><ele>135.0</ele><time>2026-05-01T06:02:45Z</time></trkpt><trkpt lat="45.46905342156106" lon="10.38075076820014"><ele>135.0</ele><time>2026-05-01T06:02:46Z</time></trkpt><trkpt lat="45.46902513272563" lon="10.380864960545317"><ele>135.0</ele><time>2026-05-01T06:02:47Z</time></trkpt><trkpt lat="45.46899081785144" lon="10.380995670736402"><ele>135.0</ele><time>2026-05-01T06:02:48Z</time></trkpt><trkpt lat="45.46896360687728" lon="10.381127580500713"><ele>135.0</ele><time>2026-05-01T06:02:49Z</time></trkpt><trkpt lat="45.468936326428604" lon="10.381251147452756"><ele>135.0</ele><time>2026-05-01T06:02:50Z</time></trkpt><trkpt lat="45.46890783102645" lon="10.38138067145915"><ele>135.0</ele><time>2026-05-01T06:02:51Z</time></trkpt><trkpt lat="45.46887563471137" lon="10.381514407193206"><ele>135.0</ele><time>2026-05-01T06:02:52Z</time></trkpt><trkpt lat="45.46884631658251" lon="10.381654185393804"><ele>135.0</ele><time>2026-05-01T06:02:53Z</time></trkpt><trkpt lat="45.468818066708536" lon="10.381791069283338"><ele>135.0</ele><time>2026-05-01T06:02:54Z</time></trkpt><trkpt lat="45.468785235911554" lon="10.381931442082982"><ele>135.0</ele><time>2026-05-01T06:02:55Z</time></trkpt><trkpt lat="45.46875000537525" lon="10.382073535341206"><ele>135.0</ele><time>2026-05-01T06:02:56Z</time></trkpt><trkpt lat="45.46872209349997" lon="10.382220942197005"><ele>135.0</ele><time>2026-05-01T06:02:57Z</time></trkpt><trkpt lat="45.468691622402" lon="10.382360278481823"><ele>135.0</ele><time>2026-05-01T06:02:58Z</time></trkpt><trkpt lat="45.46866334277295" lon="10.382504059989031"><ele>135.0</ele><time>2026-05-01T06:02:59Z</time></trkpt><trkpt lat="45.468632417979585" lon="10.382657181368165"><ele>135.0</ele><time>2026-05-01T06:03:00Z</time></trkpt><trkpt lat="45.46860078095252" lon="10.382827523008892"><ele>135.0</ele><time>2026-05-01T06:03:01Z</time></trkpt><trkpt lat="45.4685631022572" lon="10.383015352628995"><ele>135.0</ele><time>2026-05-01T06:03:02Z</time></trkpt><trkpt lat="45.46852452035759" lon="10.383239820582277"><ele>135.0</ele><time>2026-05-01T06:03:03Z</time></trkpt><trkpt lat="45.46846358113067" lon="10.383451338715709"><ele>135.0</ele><time>2026-05-01T06:03:04Z</time></trkpt><trkpt lat="45.468417464946434" lon="10.383672060663944"><ele>135.0</ele><time>2026-05-01T06:03:05Z</time></trkpt><trkpt lat="45.46836064325314" lon="10.383890524390655"><ele>135.0</ele><time>2026-05-01T06:03:06Z</time></trkpt><trkpt lat="45.46831164918845" lon="10.384095893641712"><ele>134.66666666666666</ele><time>2026-05-01T06:03:07Z</time></trkpt><trkpt lat="45.46827030069788" lon="10.384309159961646"><ele>134.33333333333331</ele><time>2026-05-01T06:03:08Z</time></trkpt><trkpt lat="45.468226976949154" lon="10.384521702378203"><ele>134.0</ele><time>2026-05-01T06:03:09Z</time></trkpt><trkpt lat="45.468191178869134" lon="10.384725812590846"><ele>133.66666666666666</ele><time>2026-05-01T06:03:10Z</time></trkpt><trkpt lat="45.46814811274823" lon="10.384938145036845"><ele>133.33333333333334</ele><time>2026-05-01T06:03:11Z</time></trkpt><trkpt lat="45.46811229681009" lon="10.385147361061055"><ele>133.0</ele><time>2026-05-01T06:03:12Z</time></trkpt><trkpt lat="45.468074870133805" lon="10.385362647477727"><ele>133.33333333333334</ele><time>2026-05-01T06:03:13Z</time></trkpt><trkpt lat="45.46803449121527" lon="10.385582322062005"><ele>133.66666666666666</ele><time>2026-05-01T06:03:14Z</time></trkpt><trkpt lat="45.467999210607566" lon="10.385804289569737"><ele>134.0</ele><time>2026-05-01T06:03:15Z</time></trkpt><trkpt lat="45.46796338288502" lon="10.38603068110757"><ele>134.33333333333331</ele><time>2026-05-01T06:03:16Z</time></trkpt><trkpt lat="45.467927206676165" lon="10.386239835393024"><ele>134.66666666666666</ele><time>2026-05-01T06:03:17Z</time></trkpt><trkpt lat="45.46788746969661" lon="10.38645743700814"><ele>135.0</ele><time>2026-05-01T06:03:18Z</time></trkpt><trkpt lat="45.467850963551946" lon="10.386668302554195"><ele>134.5</ele><time>2026-05-01T06:03:19Z</time></trkpt><trkpt lat="45.467817913115226" lon="10.38686604996958"><ele>134.0</ele><time>2026-05-01T06:03:20Z</time></trkpt><trkpt lat="45.46778079011484" lon="10.387063586172387"><ele>133.5</ele><time>2026-05-01T06:03:21Z</time></trkpt><trkpt lat="45.467752272615016" lon="10.387257416699775"><ele>133.0</ele><time>2026-05-01T06:03:22Z</time></trkpt><trkpt lat="45.467725509531626" lon="10.387448033259327"><ele>133.0</ele><time>2026-05-01T06:03:23Z</time></trkpt><trkpt lat="45.46769573805526" lon="10.387628102325253"><ele>133.0</ele><time>2026-05-01T06:03:24Z</time></trkpt><trkpt lat="45.46766603645462" lon="10.38781753662889"><ele>133.0</ele><time>2026-05-01T06:03:25Z</time></trkpt><trkpt lat="45.467633877924115" lon="10.3880100999381"><ele>133.0</ele><time>2026-05-01T06:03:26Z</time></trkpt><trkpt lat="45.46760372971531" lon="10.388194483591738"><ele>132.75</ele><time>2026-05-01T06:03:27Z</time></trkpt><trkpt lat="45.46757506112776" lon="10.388376338286134"><ele>132.5</ele><time>2026-05-01T06:03:28Z</time></trkpt><trkpt lat="45.467542868604994" lon="10.388560556266226"><ele>132.25</ele><time>2026-05-01T06:03:29Z</time></trkpt><trkpt lat="45.46751125815424" lon="10.38874203433301"><ele>132.0</ele><time>2026-05-01T06:03:30Z</time></trkpt><trkpt lat="45.467476783459794" lon="10.38893404304844"><ele>132.0</ele><time>2026-05-01T06:03:31Z</time></trkpt><trkpt lat="45.46744361527134" lon="10.38912712014745"><ele>132.0</ele><time>2026-05-01T06:03:32Z</time></trkpt><trkpt lat="45.46740813582711" lon="10.389330956710857"><ele>132.0</ele><time>2026-05-01T06:03:33Z</time></trkpt><trkpt lat="45.467372614807516" lon="10.389537958272792"><ele>132.0</ele><time>2026-05-01T06:03:34Z</time></trkpt><trkpt lat="45.46733640704976" lon="10.389755596601418"><ele>132.0</ele><time>2026-05-01T06:03:35Z</time></trkpt><trkpt lat="45.46729965558076" lon="10.389985035435403"><ele>132.0</ele><time>2026-05-01T06:03:36Z</time></trkpt><trkpt lat="45.4672601929246" lon="10.390222089536156"><ele>132.0</ele><time>2026-05-01T06:03:37Z</time></trkpt><trkpt lat="45.46721782915521" lon="10.390465548139371"><ele>131.33333333333334</ele><time>2026-05-01T06:03:38Z</time></trkpt><trkpt lat="45.46717354171735" lon="10.390719116198431"><ele>130.66666666666669</ele><time>2026-05-01T06:03:39Z</time></trkpt><trkpt lat="45.46712947690968" lon="10.390981467161126"><ele>130.0</ele><time>2026-05-01T06:03:40Z</time></trkpt><trkpt lat="45.46708448399509" lon="10.391244464637017"><ele>130.33333333333334</ele><time>2026-05-01T06:03:41Z</time></trkpt><trkpt lat="45.467040678770246" lon="10.391524366058727"><ele>130.66666666666666</ele><time>2026-05-01T06:03:42Z</time></trkpt><trkpt lat="45.466994860929496" lon="10.391810366168198"><ele>131.0</ele><time>2026-05-01T06:03:43Z</time></trkpt><trkpt lat="45.46694418715238" lon="10.392099917352068"><ele>130.66666666666666</ele><time>2026-05-01T06:03:44Z</time></trkpt><trkpt lat="45.466893093654" lon="10.392397138007567"><ele>130.33333333333334</ele><time>2026-05-01T06:03:45Z</time></trkpt><trkpt lat="45.46684293117024" lon="10.39269948024072"><ele>130.0</ele><time>2026-05-01T06:03:46Z</time></trkpt><trkpt lat="45.46679309263162" lon="10.392995577602338"><ele>130.0</ele><time>2026-05-01T06:03:47Z</time></trkpt><trkpt lat="45.46674316813795" lon="10.393291586050642"><ele>130.0</ele><time>2026-05-01T06:03:48Z</time></trkpt><trkpt lat="45.46669291884605" lon="10.393581199563563"><ele>130.0</ele><time>2026-05-01T06:03:49Z</time></trkpt><trkpt lat="45.46664542999099" lon="10.393885069911796"><ele>130.0</ele><time>2026-05-01T06:03:49.999Z</time></trkpt><trkpt lat="45.46659627257891" lon="10.394186670550843"><ele>130.0</ele><time>2026-05-01T06:03:50.999Z</time></trkpt><trkpt lat="45.46654583603776" lon="10.394493346891105"><ele>130.0</ele><time>2026-05-01T06:03:51.999Z</time></trkpt><trkpt lat="45.46649419181187" lon="10.394801105542964"><ele>129.5</ele><time>2026-05-01T06:03:52.999Z</time></trkpt><trkpt lat="45.466440478421625" lon="10.395115127390705"><ele>129.0</ele><time>2026-05-01T06:03:53.999Z</time></trkpt><trkpt lat="45.46639106712453" lon="10.395429070180247"><ele>128.0</ele><time>2026-05-01T06:03:54.999Z</time></trkpt><trkpt lat="45.46633916561327" lon="10.395749003240839"><ele>127.0</ele><time>2026-05-01T06:03:55.999Z</time></trkpt><trkpt lat="45.46628325620742" lon="10.396070890729682"><ele>128.5</ele><time>2026-05-01T06:03:56.999Z</time></trkpt><trkpt lat="45.46622879441121" lon="10.396402757220816"><ele>130.0</ele><time>2026-05-01T06:03:57.999Z</time></trkpt><trkpt lat="45.46617311730272" lon="10.39674545349435"><ele>130.0</ele><time>2026-05-01T06:03:58.999Z</time></trkpt><trkpt lat="45.466114973507" lon="10.39709425309484"><ele>130.0</ele><time>2026-05-01T06:03:59.999Z</time></trkpt><trkpt lat="45.466054688282355" lon="10.397442509387654"><ele>130.0</ele><time>2026-05-01T06:04:00.999Z</time></trkpt><trkpt lat="45.4659995875367" lon="10.397778850694953"><ele>130.0</ele><time>2026-05-01T06:04:01.999Z</time></trkpt><trkpt lat="45.4659452377566" lon="10.398099071423994"><ele>130.0</ele><time>2026-05-01T06:04:02.999Z</time></trkpt><trkpt lat="45.46589264012496" lon="10.398424621105338"><ele>130.0</ele><time>2026-05-01T06:04:03.999Z</time></trkpt><trkpt lat="45.46584163678136" lon="10.39875775189376"><ele>130.0</ele><time>2026-05-01T06:04:04.999Z</time></trkpt><trkpt lat="45.46579018584158" lon="10.399092738982295"><ele>130.0</ele><time>2026-05-01T06:04:05.999Z</time></trkpt><trkpt lat="45.46573932168797" lon="10.39943190898553"><ele>130.5</ele><time>2026-05-01T06:04:06.999Z</time></trkpt><trkpt lat="45.46569344460472" lon="10.39977610342989"><ele>131.0</ele><time>2026-05-01T06:04:07.999Z</time></trkpt><trkpt lat="45.46565273694466" lon="10.400124563731618"><ele>131.0</ele><time>2026-05-01T06:04:08.999Z</time></trkpt><trkpt lat="45.465612023565406" lon="10.400470065543772"><ele>131.0</ele><time>2026-05-01T06:04:09.999Z</time></trkpt><trkpt lat="45.465576226668404" lon="10.400823658820293"><ele>131.5</ele><time>2026-05-01T06:04:10.999Z</time></trkpt><trkpt lat="45.46554370761572" lon="10.401175195116632"><ele>132.0</ele><time>2026-05-01T06:04:11.999Z</time></trkpt><trkpt lat="45.46551694928836" lon="10.40152926501495"><ele>131.0</ele><time>2026-05-01T06:04:12.999Z</time></trkpt><trkpt lat="45.46549787915849" lon="10.401887177765746"><ele>130.0</ele><time>2026-05-01T06:04:13.999Z</time></trkpt><trkpt lat="45.46547693155155" lon="10.402266001472325"><ele>128.5</ele><time>2026-05-01T06:04:14.999Z</time></trkpt><trkpt lat="45.46544616563975" lon="10.402645583256973"><ele>127.0</ele><time>2026-05-01T06:04:15.999Z</time></trkpt><trkpt lat="45.4654113327726" lon="10.403036723689421"><ele>127.0</ele><time>2026-05-01T06:04:16.999Z</time></trkpt><trkpt lat="45.46537825484565" lon="10.403429122123455"><ele>127.0</ele><time>2026-05-01T06:04:17.999Z</time></trkpt><trkpt lat="45.465353776316576" lon="10.403829505119639"><ele>126.5</ele><time>2026-05-01T06:04:18.999Z</time></trkpt><trkpt lat="45.46531674407056" lon="10.404223017644227"><ele>126.0</ele><time>2026-05-01T06:04:20Z</time></trkpt><trkpt lat="45.46528459143181" lon="10.404621665724633"><ele>125.5</ele><time>2026-05-01T06:04:21Z</time></trkpt><trkpt lat="45.46525182199974" lon="10.405011758781095"><ele>125.0</ele><time>2026-05-01T06:04:22Z</time></trkpt><trkpt lat="45.46521942961814" lon="10.405400962562908"><ele>125.5</ele><time>2026-05-01T06:04:23Z</time></trkpt><trkpt lat="45.46518718228531" lon="10.405785126366574"><ele>126.0</ele><time>2026-05-01T06:04:24Z</time></trkpt><trkpt lat="45.46515637450191" lon="10.40617274313236"><ele>126.5</ele><time>2026-05-01T06:04:25Z</time></trkpt><trkpt lat="45.4651274720555" lon="10.406556335404805"><ele>127.0</ele><time>2026-05-01T06:04:26Z</time></trkpt><trkpt lat="45.46509663258042" lon="10.406933658707896"><ele>128.5</ele><time>2026-05-01T06:04:27Z</time></trkpt><trkpt lat="45.4650653593393" lon="10.407303492189431"><ele>130.0</ele><time>2026-05-01T06:04:28Z</time></trkpt><trkpt lat="45.46503788173423" lon="10.407674449079547"><ele>130.0</ele><time>2026-05-01T06:04:29Z</time></trkpt><trkpt lat="45.46500620069375" lon="10.408045427812922"><ele>130.0</ele><time>2026-05-01T06:04:30Z</time></trkpt><trkpt lat="45.464974921244604" lon="10.408418070743402"><ele>130.0</ele><time>2026-05-01T06:04:31Z</time></trkpt><trkpt lat="45.46494197631339" lon="10.408791781101232"><ele>130.0</ele><time>2026-05-01T06:04:32Z</time></trkpt><trkpt lat="45.46491354413888" lon="10.409169927759654"><ele>130.5</ele><time>2026-05-01T06:04:33Z</time></trkpt><trkpt lat="45.4648837316346" lon="10.409540903215126"><ele>131.0</ele><time>2026-05-01T06:04:34Z</time></trkpt><trkpt lat="45.464854118692834" lon="10.409911835335235"><ele>132.0</ele><time>2026-05-01T06:04:35Z</time></trkpt><trkpt lat="45.4648199054873" lon="10.4102811739974"><ele>133.0</ele><time>2026-05-01T06:04:36Z</time></trkpt><trkpt lat="45.46479405794765" lon="10.410658472149914"><ele>134.5</ele><time>2026-05-01T06:04:37Z</time></trkpt><trkpt lat="45.46476881113503" lon="10.41103591691715"><ele>136.0</ele><time>2026-05-01T06:04:38Z</time></trkpt><trkpt lat="45.46473823209352" lon="10.41142235830581"><ele>137.0</ele><time>2026-05-01T06:04:39Z</time></trkpt><trkpt lat="45.46470467533419" lon="10.411815064776665"><ele>138.0</ele><time>2026-05-01T06:04:40Z</time></trkpt><trkpt lat="45.46466534586636" lon="10.412201662964288"><ele>138.0</ele><time>2026-05-01T06:04:41Z</time></trkpt><trkpt lat="45.464632847730506" lon="10.412604467558904"><ele>138.0</ele><time>2026-05-01T06:04:42Z</time></trkpt><trkpt lat="45.464601448705196" lon="10.41299609632447"><ele>137.0</ele><time>2026-05-01T06:04:43Z</time></trkpt><trkpt lat="45.46456874215266" lon="10.413389143712722"><ele>136.0</ele><time>2026-05-01T06:04:44Z</time></trkpt><trkpt lat="45.464534509917534" lon="10.41378104190153"><ele>137.0</ele><time>2026-05-01T06:04:45Z</time></trkpt><trkpt lat="45.46450129254236" lon="10.414177256524617"><ele>138.0</ele><time>2026-05-01T06:04:46Z</time></trkpt><trkpt lat="45.464467405405564" lon="10.414575431292107"><ele>140.0</ele><time>2026-05-01T06:04:47Z</time></trkpt><trkpt lat="45.46443248417043" lon="10.414974184599943"><ele>142.0</ele><time>2026-05-01T06:04:48Z</time></trkpt><trkpt lat="45.464399057096536" lon="10.415376768817383"><ele>144.5</ele><time>2026-05-01T06:04:49Z</time></trkpt><trkpt lat="45.46436418540451" lon="10.415781822098502"><ele>147.0</ele><time>2026-05-01T06:04:50Z</time></trkpt><trkpt lat="45.464330502877935" lon="10.416193244382288"><ele>148.0</ele><time>2026-05-01T06:04:51Z</time></trkpt><trkpt lat="45.46429719620789" lon="10.416603564809721"><ele>149.0</ele><time>2026-05-01T06:04:52Z</time></trkpt><trkpt lat="45.46425906259302" lon="10.417011539842632"><ele>149.0</ele><time>2026-05-01T06:04:53Z</time></trkpt><trkpt lat="45.464231817066505" lon="10.417427515954202"><ele>149.0</ele><time>2026-05-01T06:04:54Z</time></trkpt><trkpt lat="45.464195307379164" lon="10.417838026024075"><ele>150.0</ele><time>2026-05-01T06:04:55Z</time></trkpt><trkpt lat="45.46416351265736" lon="10.41826275537746"><ele>151.0</ele><time>2026-05-01T06:04:56Z</time></trkpt><trkpt lat="45.46412662853089" lon="10.418681202982318"><ele>153.5</ele><time>2026-05-01T06:04:57Z</time></trkpt><trkpt lat="45.46409156925831" lon="10.419102102825777"><ele>156.0</ele><time>2026-05-01T06:04:58Z</time></trkpt><trkpt lat="45.46405221338657" lon="10.419516787387769"><ele>157.5</ele><time>2026-05-01T06:04:59Z</time></trkpt><trkpt lat="45.464015201929826" lon="10.419939775844215"><ele>159.0</ele><time>2026-05-01T06:05:00Z</time></trkpt><trkpt lat="45.46397445504089" lon="10.420352877355242"><ele>155.5</ele><time>2026-05-01T06:05:01Z</time></trkpt><trkpt lat="45.46393547541953" lon="10.42076960160507"><ele>152.0</ele><time>2026-05-01T06:05:02Z</time></trkpt><trkpt lat="45.46389624806458" lon="10.421184472141517"><ele>148.5</ele><time>2026-05-01T06:05:03Z</time></trkpt><trkpt lat="45.463861106821625" lon="10.421599900093948"><ele>145.0</ele><time>2026-05-01T06:05:04Z</time></trkpt><trkpt lat="45.46382347169868" lon="10.422012672564735"><ele>143.0</ele><time>2026-05-01T06:05:05Z</time></trkpt><trkpt lat="45.463787838760496" lon="10.422427935414735"><ele>141.0</ele><time>2026-05-01T06:05:06Z</time></trkpt><trkpt lat="45.463758588049195" lon="10.422846394814744"><ele>138.5</ele><time>2026-05-01T06:05:07Z</time></trkpt><trkpt lat="45.46372865621747" lon="10.423267615584313"><ele>136.0</ele><time>2026-05-01T06:05:08Z</time></trkpt><trkpt lat="45.46369948111631" lon="10.423684885467505"><ele>135.0</ele><time>2026-05-01T06:05:09Z</time></trkpt><trkpt lat="45.463671000291086" lon="10.42409834226894"><ele>134.0</ele><time>2026-05-01T06:05:10Z</time></trkpt><trkpt lat="45.463639636781615" lon="10.424513603517108"><ele>132.0</ele><time>2026-05-01T06:05:11Z</time></trkpt><trkpt lat="45.46361427112933" lon="10.424931777672004"><ele>130.0</ele><time>2026-05-01T06:05:12Z</time></trkpt><trkpt lat="45.46358186326106" lon="10.425340641544075"><ele>130.0</ele><time>2026-05-01T06:05:13Z</time></trkpt><trkpt lat="45.46355574323003" lon="10.425758194011376"><ele>130.0</ele><time>2026-05-01T06:05:14Z</time></trkpt><trkpt lat="45.46352025491029" lon="10.426172734014099"><ele>130.5</ele><time>2026-05-01T06:05:15Z</time></trkpt><trkpt lat="45.463486219768306" lon="10.426590222392571"><ele>131.0</ele><time>2026-05-01T06:05:16Z</time></trkpt><trkpt lat="45.46345257486979" lon="10.427004019122194"><ele>132.0</ele><time>2026-05-01T06:05:17Z</time></trkpt><trkpt lat="45.46341923318233" lon="10.427416876162624"><ele>133.0</ele><time>2026-05-01T06:05:18Z</time></trkpt><trkpt lat="45.46338203881757" lon="10.427829502114228"><ele>132.5</ele><time>2026-05-01T06:05:19Z</time></trkpt><trkpt lat="45.46334705444826" lon="10.428243769239735"><ele>132.0</ele><time>2026-05-01T06:05:20Z</time></trkpt><trkpt lat="45.46331357786858" lon="10.42865971205046"><ele>131.0</ele><time>2026-05-01T06:05:21Z</time></trkpt><trkpt lat="45.46328049616479" lon="10.42907657847235"><ele>130.0</ele><time>2026-05-01T06:05:22Z</time></trkpt><trkpt lat="45.46324063822194" lon="10.429494868434071"><ele>131.0</ele><time>2026-05-01T06:05:23Z</time></trkpt><trkpt lat="45.46320271139785" lon="10.429916534145951"><ele>132.0</ele><time>2026-05-01T06:05:24Z</time></trkpt><trkpt lat="45.463162466773426" lon="10.43033626681245"><ele>132.0</ele><time>2026-05-01T06:05:25Z</time></trkpt><trkpt lat="45.463112776358805" lon="10.430756635055275"><ele>132.0</ele><time>2026-05-01T06:05:26Z</time></trkpt><trkpt lat="45.46305264177025" lon="10.43117309078585"><ele>132.0</ele><time>2026-05-01T06:05:27Z</time></trkpt><trkpt lat="45.46299166172296" lon="10.43158585400868"><ele>132.0</ele><time>2026-05-01T06:05:28Z</time></trkpt><trkpt lat="45.46292315495463" lon="10.43199832238517"><ele>132.5</ele><time>2026-05-01T06:05:29Z</time></trkpt><trkpt lat="45.462850730520124" lon="10.432411534235188"><ele>133.0</ele><time>2026-05-01T06:05:30Z</time></trkpt><trkpt lat="45.46277225219395" lon="10.43282072386883"><ele>132.0</ele><time>2026-05-01T06:05:31Z</time></trkpt><trkpt lat="45.462688729467416" lon="10.433229114809182"><ele>131.0</ele><time>2026-05-01T06:05:32Z</time></trkpt><trkpt lat="45.462603264908495" lon="10.433634222672978"><ele>131.5</ele><time>2026-05-01T06:05:33Z</time></trkpt><trkpt lat="45.46251365505744" lon="10.434036539538933"><ele>132.0</ele><time>2026-05-01T06:05:34Z</time></trkpt><trkpt lat="45.462429783054134" lon="10.434437100316767"><ele>132.0</ele><time>2026-05-01T06:05:35Z</time></trkpt><trkpt lat="45.462348269412765" lon="10.434836693407643"><ele>132.0</ele><time>2026-05-01T06:05:36Z</time></trkpt><trkpt lat="45.462264874151735" lon="10.435237660580558"><ele>131.5</ele><time>2026-05-01T06:05:37Z</time></trkpt><trkpt lat="45.462180160027955" lon="10.43563394059289"><ele>131.0</ele><time>2026-05-01T06:05:38Z</time></trkpt><trkpt lat="45.462099392459265" lon="10.436033120508416"><ele>131.0</ele><time>2026-05-01T06:05:39Z</time></trkpt><trkpt lat="45.46202031103125" lon="10.436429919159432"><ele>131.0</ele><time>2026-05-01T06:05:40Z</time></trkpt><trkpt lat="45.46193756661322" lon="10.436825006472992"><ele>131.0</ele><time>2026-05-01T06:05:41Z</time></trkpt><trkpt lat="45.461854957870145" lon="10.437215786495734"><ele>131.0</ele><time>2026-05-01T06:05:42Z</time></trkpt><trkpt lat="45.461774547159685" lon="10.437607859917314"><ele>130.5</ele><time>2026-05-01T06:05:43Z</time></trkpt><trkpt lat="45.46169195583139" lon="10.43799886501793"><ele>130.0</ele><time>2026-05-01T06:05:44Z</time></trkpt><trkpt lat="45.46161155125731" lon="10.438387546410862"><ele>130.0</ele><time>2026-05-01T06:05:45Z</time></trkpt><trkpt lat="45.461531161352525" lon="10.43877787382443"><ele>130.0</ele><time>2026-05-01T06:05:46Z</time></trkpt><trkpt lat="45.46145059955202" lon="10.439165534790533"><ele>130.5</ele><time>2026-05-01T06:05:47Z</time></trkpt><trkpt lat="45.46136986659303" lon="10.439552730159187"><ele>131.0</ele><time>2026-05-01T06:05:48Z</time></trkpt><trkpt lat="45.461286857368776" lon="10.439944472636695"><ele>131.0</ele><time>2026-05-01T06:05:49Z</time></trkpt><trkpt lat="45.46120674247339" lon="10.440338272165645"><ele>131.0</ele><time>2026-05-01T06:05:50Z</time></trkpt><trkpt lat="45.46112521853387" lon="10.440729664825833"><ele>132.0</ele><time>2026-05-01T06:05:51Z</time></trkpt><trkpt lat="45.46104419682673" lon="10.441120640825632"><ele>133.0</ele><time>2026-05-01T06:05:52Z</time></trkpt><trkpt lat="45.46096206346664" lon="10.441509758084447"><ele>133.0</ele><time>2026-05-01T06:05:53Z</time></trkpt><trkpt lat="45.460880037894945" lon="10.441897791567543"><ele>133.0</ele><time>2026-05-01T06:05:54Z</time></trkpt><trkpt lat="45.46080066591308" lon="10.442282694096463"><ele>133.5</ele><time>2026-05-01T06:05:55Z</time></trkpt><trkpt lat="45.46071373216921" lon="10.442680072334669"><ele>134.0</ele><time>2026-05-01T06:05:56Z</time></trkpt><trkpt lat="45.46063001779543" lon="10.443068204637342"><ele>134.0</ele><time>2026-05-01T06:05:57Z</time></trkpt><trkpt lat="45.460549843226715" lon="10.443458691448187"><ele>134.0</ele><time>2026-05-01T06:05:58Z</time></trkpt><trkpt lat="45.46047503241634" lon="10.443852929012088"><ele>133.5</ele><time>2026-05-01T06:05:59Z</time></trkpt><trkpt lat="45.46038999503144" lon="10.44424195899393"><ele>133.0</ele><time>2026-05-01T06:06:00Z</time></trkpt><trkpt lat="45.46030886882979" lon="10.444633973939533"><ele>133.0</ele><time>2026-05-01T06:06:01Z</time></trkpt><trkpt lat="45.460227640585614" lon="10.44502544792937"><ele>133.0</ele><time>2026-05-01T06:06:02Z</time></trkpt><trkpt lat="45.46014428865253" lon="10.445417308968464"><ele>132.5</ele><time>2026-05-01T06:06:03Z</time></trkpt><trkpt lat="45.46006025013002" lon="10.445810462556029"><ele>132.0</ele><time>2026-05-01T06:06:04Z</time></trkpt><trkpt lat="45.459979073552184" lon="10.446202810610995"><ele>131.5</ele><time>2026-05-01T06:06:05Z</time></trkpt><trkpt lat="45.45989776131543" lon="10.446596594940571"><ele>131.0</ele><time>2026-05-01T06:06:06Z</time></trkpt><trkpt lat="45.45981209332352" lon="10.446989501814482"><ele>131.5</ele><time>2026-05-01T06:06:07Z</time></trkpt><trkpt lat="45.45972453250565" lon="10.447382254953787"><ele>132.0</ele><time>2026-05-01T06:06:08Z</time></trkpt><trkpt lat="45.45964815949052" lon="10.447779285009803"><ele>132.5</ele><time>2026-05-01T06:06:09Z</time></trkpt><trkpt lat="45.4595677556453" lon="10.44817573080631"><ele>133.0</ele><time>2026-05-01T06:06:10Z</time></trkpt><trkpt lat="45.459485454543874" lon="10.448570174777227"><ele>133.5</ele><time>2026-05-01T06:06:11Z</time></trkpt><trkpt lat="45.459400868231526" lon="10.448963987001123"><ele>134.0</ele><time>2026-05-01T06:06:12Z</time></trkpt><trkpt lat="45.459315650116594" lon="10.449354099223068"><ele>134.5</ele><time>2026-05-01T06:06:13Z</time></trkpt><trkpt lat="45.459227014428" lon="10.44974516092955"><ele>135.0</ele><time>2026-05-01T06:06:14Z</time></trkpt><trkpt lat="45.45913806992659" lon="10.450134466083604"><ele>135.0</ele><time>2026-05-01T06:06:15Z</time></trkpt><trkpt lat="45.45905133448168" lon="10.450521439196887"><ele>135.0</ele><time>2026-05-01T06:06:16Z</time></trkpt><trkpt lat="45.458968633109365" lon="10.450914707342656"><ele>134.5</ele><time>2026-05-01T06:06:17Z</time></trkpt><trkpt lat="45.45888986686502" lon="10.451307571975542"><ele>134.0</ele><time>2026-05-01T06:06:18Z</time></trkpt><trkpt lat="45.45880882779563" lon="10.45169643576371"><ele>134.0</ele><time>2026-05-01T06:06:19Z</time></trkpt><trkpt lat="45.45872615081221" lon="10.45208760766304"><ele>134.0</ele><time>2026-05-01T06:06:20Z</time></trkpt><trkpt lat="45.45864082095878" lon="10.452481569939662"><ele>135.0</ele><time>2026-05-01T06:06:21Z</time></trkpt><trkpt lat="45.4585581542997" lon="10.452881857512859"><ele>136.0</ele><time>2026-05-01T06:06:22Z</time></trkpt><trkpt lat="45.458475303270475" lon="10.453277798035165"><ele>136.5</ele><time>2026-05-01T06:06:23Z</time></trkpt><trkpt lat="45.45838798866528" lon="10.453675277918135"><ele>137.0</ele><time>2026-05-01T06:06:24Z</time></trkpt><trkpt lat="45.45829692610287" lon="10.45406582119393"><ele>137.5</ele><time>2026-05-01T06:06:25Z</time></trkpt><trkpt lat="45.458200714028834" lon="10.45445867245655"><ele>138.0</ele><time>2026-05-01T06:06:26Z</time></trkpt><trkpt lat="45.45809854647431" lon="10.454844509063758"><ele>138.5</ele><time>2026-05-01T06:06:27Z</time></trkpt><trkpt lat="45.45800074605205" lon="10.455233374113599"><ele>139.0</ele><time>2026-05-01T06:06:28Z</time></trkpt><trkpt lat="45.45790147748063" lon="10.4556210959176"><ele>139.0</ele><time>2026-05-01T06:06:29Z</time></trkpt><trkpt lat="45.45780305684005" lon="10.456011589138988"><ele>139.0</ele><time>2026-05-01T06:06:30Z</time></trkpt><trkpt lat="45.45770834943171" lon="10.456398484745357"><ele>139.0</ele><time>2026-05-01T06:06:31Z</time></trkpt><trkpt lat="45.45761436720735" lon="10.45678989291322"><ele>139.0</ele><time>2026-05-01T06:06:32Z</time></trkpt><trkpt lat="45.45751978913387" lon="10.457175317482973"><ele>140.0</ele><time>2026-05-01T06:06:33Z</time></trkpt><trkpt lat="45.45742521815371" lon="10.457564950042585"><ele>141.0</ele><time>2026-05-01T06:06:34Z</time></trkpt><trkpt lat="45.457332246478764" lon="10.457950481518502"><ele>141.5</ele><time>2026-05-01T06:06:35Z</time></trkpt><trkpt lat="45.45723766587273" lon="10.458336421982047"><ele>142.0</ele><time>2026-05-01T06:06:36Z</time></trkpt><trkpt lat="45.45714209311834" lon="10.458717129654008"><ele>142.0</ele><time>2026-05-01T06:06:37Z</time></trkpt><trkpt lat="45.457048797761075" lon="10.459101741315973"><ele>142.0</ele><time>2026-05-01T06:06:38Z</time></trkpt><trkpt lat="45.45695740448567" lon="10.459485948248187"><ele>141.0</ele><time>2026-05-01T06:06:39Z</time></trkpt><trkpt lat="45.456870730493854" lon="10.459864005942766"><ele>140.0</ele><time>2026-05-01T06:06:40Z</time></trkpt><trkpt lat="45.456787630593674" lon="10.460237838395253"><ele>139.5</ele><time>2026-05-01T06:06:41Z</time></trkpt><trkpt lat="45.456696501015166" lon="10.460603385130385"><ele>139.0</ele><time>2026-05-01T06:06:42Z</time></trkpt><trkpt lat="45.45660738477213" lon="10.460969595563869"><ele>140.0</ele><time>2026-05-01T06:06:43Z</time></trkpt><trkpt lat="45.45651316396539" lon="10.461330744907867"><ele>141.0</ele><time>2026-05-01T06:06:44Z</time></trkpt><trkpt lat="45.456421343985845" lon="10.461695283311231"><ele>141.0</ele><time>2026-05-01T06:06:45Z</time></trkpt><trkpt lat="45.456325048545146" lon="10.462057261500288"><ele>141.0</ele><time>2026-05-01T06:06:46Z</time></trkpt><trkpt lat="45.456229746986835" lon="10.462424327142159"><ele>141.0</ele><time>2026-05-01T06:06:47Z</time></trkpt><trkpt lat="45.456138399217515" lon="10.46279699987739"><ele>141.0</ele><time>2026-05-01T06:06:48Z</time></trkpt><trkpt lat="45.45604555267527" lon="10.463173148226455"><ele>141.0</ele><time>2026-05-01T06:06:49Z</time></trkpt><trkpt lat="45.45595267553903" lon="10.46355052613848"><ele>141.0</ele><time>2026-05-01T06:06:50Z</time></trkpt><trkpt lat="45.4558561602318" lon="10.463933536862648"><ele>142.0</ele><time>2026-05-01T06:06:51Z</time></trkpt><trkpt lat="45.45576207800857" lon="10.46431859844506"><ele>143.0</ele><time>2026-05-01T06:06:52Z</time></trkpt><trkpt lat="45.45566612450737" lon="10.464709476555141"><ele>143.0</ele><time>2026-05-01T06:06:53Z</time></trkpt><trkpt lat="45.45557454556692" lon="10.465102651466207"><ele>143.0</ele><time>2026-05-01T06:06:54Z</time></trkpt><trkpt lat="45.455484201122985" lon="10.465483709532748"><ele>143.5</ele><time>2026-05-01T06:06:55Z</time></trkpt><trkpt lat="45.45539249197335" lon="10.465871339728514"><ele>144.0</ele><time>2026-05-01T06:06:56Z</time></trkpt><trkpt lat="45.45530091122431" lon="10.4662595609536"><ele>144.0</ele><time>2026-05-01T06:06:57Z</time></trkpt><trkpt lat="45.45520459982866" lon="10.466645134607145"><ele>144.0</ele><time>2026-05-01T06:06:58Z</time></trkpt><trkpt lat="45.45510874600781" lon="10.467029973208273"><ele>143.0</ele><time>2026-05-01T06:06:59Z</time></trkpt><trkpt lat="45.45501431205038" lon="10.467413923531375"><ele>142.0</ele><time>2026-05-01T06:07:00Z</time></trkpt><trkpt lat="45.454918420754026" lon="10.467796263726065"><ele>142.5</ele><time>2026-05-01T06:07:01Z</time></trkpt><trkpt lat="45.45482385378454" lon="10.468179386219312"><ele>143.0</ele><time>2026-05-01T06:07:02Z</time></trkpt><trkpt lat="45.45473243060254" lon="10.468566146308737"><ele>144.0</ele><time>2026-05-01T06:07:03Z</time></trkpt><trkpt lat="45.454646503215905" lon="10.46895486880437"><ele>145.0</ele><time>2026-05-01T06:07:04Z</time></trkpt><trkpt lat="45.45456845482634" lon="10.469351299709258"><ele>145.0</ele><time>2026-05-01T06:07:05Z</time></trkpt><trkpt lat="45.45448986802338" lon="10.46974662818288"><ele>145.0</ele><time>2026-05-01T06:07:06Z</time></trkpt><trkpt lat="45.45441915955983" lon="10.470144787121136"><ele>145.0</ele><time>2026-05-01T06:07:07Z</time></trkpt><trkpt lat="45.45435094339747" lon="10.470543530141285"><ele>145.0</ele><time>2026-05-01T06:07:08Z</time></trkpt><trkpt lat="45.45428767242002" lon="10.470945854401101"><ele>146.0</ele><time>2026-05-01T06:07:09Z</time></trkpt><trkpt lat="45.45422898388204" lon="10.471351939546851"><ele>147.0</ele><time>2026-05-01T06:07:10Z</time></trkpt><trkpt lat="45.45417506883771" lon="10.47175832708859"><ele>146.0</ele><time>2026-05-01T06:07:11Z</time></trkpt><trkpt lat="45.45412414509316" lon="10.472170027513727"><ele>145.0</ele><time>2026-05-01T06:07:12Z</time></trkpt><trkpt lat="45.454074533243805" lon="10.472583201940232"><ele>146.0</ele><time>2026-05-01T06:07:13Z</time></trkpt><trkpt lat="45.45402820964398" lon="10.472996914265465"><ele>147.0</ele><time>2026-05-01T06:07:14Z</time></trkpt><trkpt lat="45.45399037816932" lon="10.47340816697558"><ele>147.0</ele><time>2026-05-01T06:07:15Z</time></trkpt><trkpt lat="45.4539505183423" lon="10.473820783619086"><ele>147.0</ele><time>2026-05-01T06:07:16Z</time></trkpt><trkpt lat="45.45391262192983" lon="10.47423258848273"><ele>147.5</ele><time>2026-05-01T06:07:17Z</time></trkpt><trkpt lat="45.45387661908838" lon="10.4746426606031"><ele>148.0</ele><time>2026-05-01T06:07:18Z</time></trkpt><trkpt lat="45.45383566411345" lon="10.475054443257386"><ele>148.0</ele><time>2026-05-01T06:07:19Z</time></trkpt><trkpt lat="45.453798127506566" lon="10.475463734191827"><ele>148.0</ele><time>2026-05-01T06:07:20Z</time></trkpt><trkpt lat="45.45376510612659" lon="10.475873409004718"><ele>149.0</ele><time>2026-05-01T06:07:21Z</time></trkpt><trkpt lat="45.45373724698859" lon="10.47628263954703"><ele>150.0</ele><time>2026-05-01T06:07:22Z</time></trkpt><trkpt lat="45.453716733374215" lon="10.476692186262"><ele>150.0</ele><time>2026-05-01T06:07:23Z</time></trkpt><trkpt lat="45.45370064591202" lon="10.477106393700724"><ele>150.0</ele><time>2026-05-01T06:07:24Z</time></trkpt><trkpt lat="45.45369009550621" lon="10.477520803998038"><ele>150.0</ele><time>2026-05-01T06:07:25Z</time></trkpt><trkpt lat="45.453676872175755" lon="10.477926750282581"><ele>150.0</ele><time>2026-05-01T06:07:26Z</time></trkpt><trkpt lat="45.453662332356934" lon="10.47833594927456"><ele>149.5</ele><time>2026-05-01T06:07:27Z</time></trkpt><trkpt lat="45.45364409894747" lon="10.478737881547142"><ele>149.0</ele><time>2026-05-01T06:07:28Z</time></trkpt><trkpt lat="45.45362619149351" lon="10.479142678909298"><ele>148.5</ele><time>2026-05-01T06:07:29Z</time></trkpt><trkpt lat="45.453607756462894" lon="10.47954959077139"><ele>148.0</ele><time>2026-05-01T06:07:30Z</time></trkpt><trkpt lat="45.45359290308153" lon="10.47995367225332"><ele>147.0</ele><time>2026-05-01T06:07:31Z</time></trkpt><trkpt lat="45.4535756904184" lon="10.480357241713543"><ele>146.0</ele><time>2026-05-01T06:07:32Z</time></trkpt><trkpt lat="45.453564328556276" lon="10.480758573804291"><ele>146.0</ele><time>2026-05-01T06:07:33Z</time></trkpt><trkpt lat="45.45355401901887" lon="10.48115781635025"><ele>146.0</ele><time>2026-05-01T06:07:34Z</time></trkpt><trkpt lat="45.45354335391488" lon="10.481556105774168"><ele>146.5</ele><time>2026-05-01T06:07:35Z</time></trkpt><trkpt lat="45.45352408382531" lon="10.48195263351974"><ele>147.0</ele><time>2026-05-01T06:07:36Z</time></trkpt><trkpt lat="45.45349993878706" lon="10.482345996913555"><ele>147.0</ele><time>2026-05-01T06:07:37Z</time></trkpt><trkpt lat="45.45347192970994" lon="10.482736629665105"><ele>147.0</ele><time>2026-05-01T06:07:38Z</time></trkpt><trkpt lat="45.453440658813655" lon="10.483124048049463"><ele>148.0</ele><time>2026-05-01T06:07:39Z</time></trkpt><trkpt lat="45.45340895808054" lon="10.483511891190739"><ele>149.0</ele><time>2026-05-01T06:07:40Z</time></trkpt><trkpt lat="45.45336628566785" lon="10.483898447404739"><ele>150.5</ele><time>2026-05-01T06:07:41Z</time></trkpt><trkpt lat="45.453319026992475" lon="10.484287621233705"><ele>152.0</ele><time>2026-05-01T06:07:42Z</time></trkpt><trkpt lat="45.45327252812043" lon="10.48467454137123"><ele>153.0</ele><time>2026-05-01T06:07:43Z</time></trkpt><trkpt lat="45.45322389381703" lon="10.4850607261812"><ele>154.0</ele><time>2026-05-01T06:07:44Z</time></trkpt><trkpt lat="45.45317878693403" lon="10.485450822502925"><ele>157.0</ele><time>2026-05-01T06:07:45Z</time></trkpt><trkpt lat="45.453131784833126" lon="10.485842583083455"><ele>160.0</ele><time>2026-05-01T06:07:46Z</time></trkpt><trkpt lat="45.453084342865615" lon="10.486231306766541"><ele>162.0</ele><time>2026-05-01T06:07:47Z</time></trkpt><trkpt lat="45.45304240736057" lon="10.486623097484902"><ele>164.0</ele><time>2026-05-01T06:07:48Z</time></trkpt><trkpt lat="45.45299909496518" lon="10.487008525837629"><ele>164.5</ele><time>2026-05-01T06:07:49Z</time></trkpt><trkpt lat="45.4529535818862" lon="10.487390758262007"><ele>165.0</ele><time>2026-05-01T06:07:50Z</time></trkpt><trkpt lat="45.452908476728005" lon="10.487773390543467"><ele>165.0</ele><time>2026-05-01T06:07:51Z</time></trkpt><trkpt lat="45.4528668474581" lon="10.488153065130112"><ele>165.0</ele><time>2026-05-01T06:07:52Z</time></trkpt><trkpt lat="45.452827378331655" lon="10.488538365098364"><ele>165.0</ele><time>2026-05-01T06:07:53Z</time></trkpt><trkpt lat="45.45278029948548" lon="10.488920070959182"><ele>165.0</ele><time>2026-05-01T06:07:54Z</time></trkpt><trkpt lat="45.45273504732047" lon="10.489304316826185"><ele>166.5</ele><time>2026-05-01T06:07:55Z</time></trkpt><trkpt lat="45.452689529847376" lon="10.489686626076981"><ele>168.0</ele><time>2026-05-01T06:07:56Z</time></trkpt><trkpt lat="45.45264156527062" lon="10.490068111558326"><ele>169.0</ele><time>2026-05-01T06:07:57Z</time></trkpt><trkpt lat="45.45259891764426" lon="10.49044223895267"><ele>170.0</ele><time>2026-05-01T06:07:58Z</time></trkpt><trkpt lat="45.452556848639055" lon="10.4908213647141"><ele>170.0</ele><time>2026-05-01T06:07:59Z</time></trkpt><trkpt lat="45.45251046429479" lon="10.4911918538907"><ele>170.0</ele><time>2026-05-01T06:08:00Z</time></trkpt><trkpt lat="45.45246966277568" lon="10.491568119010918"><ele>170.0</ele><time>2026-05-01T06:08:01Z</time></trkpt><trkpt lat="45.452428498762565" lon="10.491939644658771"><ele>170.0</ele><time>2026-05-01T06:08:02Z</time></trkpt><trkpt lat="45.45238580787727" lon="10.49231392320204"><ele>170.5</ele><time>2026-05-01T06:08:03Z</time></trkpt><trkpt lat="45.45234302935351" lon="10.492690046092184"><ele>171.0</ele><time>2026-05-01T06:08:04Z</time></trkpt><trkpt lat="45.452299344475584" lon="10.493071257426088"><ele>173.0</ele><time>2026-05-01T06:08:05Z</time></trkpt><trkpt lat="45.45225202487294" lon="10.493456749250127"><ele>175.0</ele><time>2026-05-01T06:08:06Z</time></trkpt><trkpt lat="45.45220713982989" lon="10.493846163365196"><ele>176.5</ele><time>2026-05-01T06:08:07Z</time></trkpt><trkpt lat="45.45216353849114" lon="10.494238491431444"><ele>178.0</ele><time>2026-05-01T06:08:08Z</time></trkpt><trkpt lat="45.45211783415608" lon="10.494634806330044"><ele>178.0</ele><time>2026-05-01T06:08:09Z</time></trkpt><trkpt lat="45.452072155404906" lon="10.495033950002748"><ele>178.0</ele><time>2026-05-01T06:08:10Z</time></trkpt><trkpt lat="45.45202765415484" lon="10.495438292899918"><ele>180.0</ele><time>2026-05-01T06:08:11Z</time></trkpt><trkpt lat="45.45197962929343" lon="10.495844512128237"><ele>182.0</ele><time>2026-05-01T06:08:12Z</time></trkpt><trkpt lat="45.4519300109405" lon="10.496256519320289"><ele>185.0</ele><time>2026-05-01T06:08:13Z</time></trkpt><trkpt lat="45.45187971522886" lon="10.496671180569729"><ele>188.0</ele><time>2026-05-01T06:08:14Z</time></trkpt><trkpt lat="45.4518286660283" lon="10.497087743198614"><ele>189.0</ele><time>2026-05-01T06:08:15Z</time></trkpt><trkpt lat="45.45178354878541" lon="10.497510514886207"><ele>190.0</ele><time>2026-05-01T06:08:16Z</time></trkpt><trkpt lat="45.45174092484802" lon="10.49793465412357"><ele>190.0</ele><time>2026-05-01T06:08:17Z</time></trkpt><trkpt lat="45.45169764000593" lon="10.49836261547356"><ele>190.0</ele><time>2026-05-01T06:08:18Z</time></trkpt><trkpt lat="45.45166006951472" lon="10.498797235837719"><ele>186.5</ele><time>2026-05-01T06:08:19Z</time></trkpt><trkpt lat="45.45162151635006" lon="10.499227628694552"><ele>183.0</ele><time>2026-05-01T06:08:20Z</time></trkpt><trkpt lat="45.45158184514534" lon="10.499661529757963"><ele>180.5</ele><time>2026-05-01T06:08:21Z</time></trkpt><trkpt lat="45.451541120259215" lon="10.50009329579991"><ele>178.0</ele><time>2026-05-01T06:08:22Z</time></trkpt><trkpt lat="45.45150233904867" lon="10.500526748294915"><ele>177.0</ele><time>2026-05-01T06:08:23Z</time></trkpt><trkpt lat="45.451461313003584" lon="10.500960711841133"><ele>176.0</ele><time>2026-05-01T06:08:24Z</time></trkpt><trkpt lat="45.45142113702459" lon="10.501398214351681"><ele>178.0</ele><time>2026-05-01T06:08:25Z</time></trkpt><trkpt lat="45.45137801672827" lon="10.501836619048017"><ele>180.0</ele><time>2026-05-01T06:08:26Z</time></trkpt><trkpt lat="45.451333042383546" lon="10.502276346641821"><ele>180.0</ele><time>2026-05-01T06:08:27Z</time></trkpt><trkpt lat="45.45129206567304" lon="10.502720893317807"><ele>180.0</ele><time>2026-05-01T06:08:28Z</time></trkpt><trkpt lat="45.451246297476835" lon="10.503168292483332"><ele>176.0</ele><time>2026-05-01T06:08:29Z</time></trkpt><trkpt lat="45.45120609200086" lon="10.503617997070226"><ele>172.0</ele><time>2026-05-01T06:08:30Z</time></trkpt><trkpt lat="45.45116707236535" lon="10.50406582257519"><ele>171.0</ele><time>2026-05-01T06:08:31Z</time></trkpt><trkpt lat="45.45112547436227" lon="10.504519629008486"><ele>170.0</ele><time>2026-05-01T06:08:32Z</time></trkpt><trkpt lat="45.45108098676858" lon="10.50497530633646"><ele>168.0</ele><time>2026-05-01T06:08:33Z</time></trkpt><trkpt lat="45.45103845919206" lon="10.505429325063767"><ele>166.0</ele><time>2026-05-01T06:08:34Z</time></trkpt><trkpt lat="45.45099545157731" lon="10.505887005270091"><ele>165.5</ele><time>2026-05-01T06:08:35Z</time></trkpt><trkpt lat="45.45095449958669" lon="10.506340046616737"><ele>165.0</ele><time>2026-05-01T06:08:36Z</time></trkpt><trkpt lat="45.45091202567423" lon="10.506792643531636"><ele>164.5</ele><time>2026-05-01T06:08:37Z</time></trkpt><trkpt lat="45.45086934554696" lon="10.507240240309633"><ele>164.0</ele><time>2026-05-01T06:08:38Z</time></trkpt><trkpt lat="45.45082140353619" lon="10.507659749093204"><ele>163.5</ele><time>2026-05-01T06:08:39Z</time></trkpt><trkpt lat="45.45078156138555" lon="10.508074647438171"><ele>163.0</ele><time>2026-05-01T06:08:40Z</time></trkpt><trkpt lat="45.45074224779603" lon="10.508492574319119"><ele>162.0</ele><time>2026-05-01T06:08:41Z</time></trkpt><trkpt lat="45.45070146017478" lon="10.508910997613253"><ele>161.0</ele><time>2026-05-01T06:08:42Z</time></trkpt><trkpt lat="45.45066236859953" lon="10.5093362302844"><ele>159.0</ele><time>2026-05-01T06:08:43Z</time></trkpt><trkpt lat="45.45062446354991" lon="10.50976070092239"><ele>157.0</ele><time>2026-05-01T06:08:44Z</time></trkpt><trkpt lat="45.4505839381581" lon="10.510186485618616"><ele>153.5</ele><time>2026-05-01T06:08:45Z</time></trkpt><trkpt lat="45.45054219899286" lon="10.510611389278306"><ele>150.0</ele><time>2026-05-01T06:08:46Z</time></trkpt><trkpt lat="45.45050050105849" lon="10.51103671656257"><ele>147.5</ele><time>2026-05-01T06:08:47Z</time></trkpt><trkpt lat="45.45045970470789" lon="10.511462081173612"><ele>145.0</ele><time>2026-05-01T06:08:48Z</time></trkpt><trkpt lat="45.45042051947066" lon="10.511890007751925"><ele>142.5</ele><time>2026-05-01T06:08:49Z</time></trkpt><trkpt lat="45.45037823512113" lon="10.512312530429213"><ele>140.0</ele><time>2026-05-01T06:08:50Z</time></trkpt><trkpt lat="45.45033831262391" lon="10.512743964533854"><ele>139.5</ele><time>2026-05-01T06:08:51Z</time></trkpt><trkpt lat="45.45029815237625" lon="10.51317378286373"><ele>139.0</ele><time>2026-05-01T06:08:52Z</time></trkpt><trkpt lat="45.45025547356206" lon="10.513603054488339"><ele>137.5</ele><time>2026-05-01T06:08:53Z</time></trkpt><trkpt lat="45.450213193715335" lon="10.514025509118564"><ele>136.0</ele><time>2026-05-01T06:08:54Z</time></trkpt><trkpt lat="45.450172865792545" lon="10.514450568198825"><ele>135.5</ele><time>2026-05-01T06:08:55Z</time></trkpt><trkpt lat="45.45013170962998" lon="10.514866770537589"><ele>135.0</ele><time>2026-05-01T06:08:56Z</time></trkpt><trkpt lat="45.450093160431216" lon="10.515282750652528"><ele>135.0</ele><time>2026-05-01T06:08:57Z</time></trkpt><trkpt lat="45.45005256590936" lon="10.515674126638801"><ele>135.0</ele><time>2026-05-01T06:08:58Z</time></trkpt><trkpt lat="45.450016812884336" lon="10.516060030598148"><ele>134.5</ele><time>2026-05-01T06:08:59Z</time></trkpt><trkpt lat="45.44997997883812" lon="10.5164396574042"><ele>134.0</ele><time>2026-05-01T06:09:00Z</time></trkpt><trkpt lat="45.44994367437942" lon="10.516825054794262"><ele>133.5</ele><time>2026-05-01T06:09:01Z</time></trkpt><trkpt lat="45.44990648448878" lon="10.517216797371683"><ele>133.0</ele><time>2026-05-01T06:09:02Z</time></trkpt><trkpt lat="45.44987026668263" lon="10.51760709450826"><ele>133.0</ele><time>2026-05-01T06:09:03Z</time></trkpt><trkpt lat="45.449835636435225" lon="10.518004804966136"><ele>133.0</ele><time>2026-05-01T06:09:04Z</time></trkpt><trkpt lat="45.449798470119454" lon="10.518401307350766"><ele>134.0</ele><time>2026-05-01T06:09:05Z</time></trkpt><trkpt lat="45.4497605734525" lon="10.518798458185191"><ele>135.0</ele><time>2026-05-01T06:09:06Z</time></trkpt><trkpt lat="45.44972565005201" lon="10.519193817476815"><ele>135.0</ele><time>2026-05-01T06:09:07Z</time></trkpt><trkpt lat="45.44968984260193" lon="10.519593645861935"><ele>135.0</ele><time>2026-05-01T06:09:08Z</time></trkpt><trkpt lat="45.449653542621036" lon="10.519982733131904"><ele>136.0</ele><time>2026-05-01T06:09:09Z</time></trkpt><trkpt lat="45.449613147499484" lon="10.520400219403118"><ele>137.0</ele><time>2026-05-01T06:09:10Z</time></trkpt><trkpt lat="45.44957890699917" lon="10.520808304064685"><ele>137.0</ele><time>2026-05-01T06:09:11Z</time></trkpt><trkpt lat="45.449538377053635" lon="10.521211251702264"><ele>137.0</ele><time>2026-05-01T06:09:12Z</time></trkpt><trkpt lat="45.44949733284107" lon="10.52161734019209"><ele>136.0</ele><time>2026-05-01T06:09:13Z</time></trkpt><trkpt lat="45.4494554859421" lon="10.522029340278795"><ele>135.0</ele><time>2026-05-01T06:09:14Z</time></trkpt><trkpt lat="45.44940934564441" lon="10.52244260304898"><ele>134.5</ele><time>2026-05-01T06:09:15Z</time></trkpt><trkpt lat="45.44936617481766" lon="10.522860046769102"><ele>134.0</ele><time>2026-05-01T06:09:16Z</time></trkpt><trkpt lat="45.44931842125606" lon="10.52327967209337"><ele>134.0</ele><time>2026-05-01T06:09:17Z</time></trkpt><trkpt lat="45.449265445181354" lon="10.52370113861728"><ele>134.0</ele><time>2026-05-01T06:09:18Z</time></trkpt><trkpt lat="45.449210054629894" lon="10.524124108410545"><ele>135.5</ele><time>2026-05-01T06:09:19Z</time></trkpt><trkpt lat="45.44915252435768" lon="10.524544956462213"><ele>137.0</ele><time>2026-05-01T06:09:20Z</time></trkpt><trkpt lat="45.44908998491666" lon="10.524964194262383"><ele>137.0</ele><time>2026-05-01T06:09:21Z</time></trkpt><trkpt lat="45.44902215005939" lon="10.525383094757974"><ele>137.0</ele><time>2026-05-01T06:09:22Z</time></trkpt><trkpt lat="45.44895207316712" lon="10.525805804190425"><ele>132.0</ele><time>2026-05-01T06:09:23Z</time></trkpt><trkpt lat="45.44887911107167" lon="10.526227123659156"><ele>127.0</ele><time>2026-05-01T06:09:24Z</time></trkpt><trkpt lat="45.44880063094488" lon="10.526649650616132"><ele>122.5</ele><time>2026-05-01T06:09:25Z</time></trkpt><trkpt lat="45.448720285297846" lon="10.527070048658533"><ele>118.0</ele><time>2026-05-01T06:09:26Z</time></trkpt><trkpt lat="45.448634095341454" lon="10.527488178740247"><ele>117.5</ele><time>2026-05-01T06:09:27Z</time></trkpt><trkpt lat="45.44854568503219" lon="10.527908251292114"><ele>117.0</ele><time>2026-05-01T06:09:28Z</time></trkpt><trkpt lat="45.44845121204897" lon="10.528329909434252"><ele>116.0</ele><time>2026-05-01T06:09:29Z</time></trkpt><trkpt lat="45.44835732182423" lon="10.528748882058117"><ele>115.0</ele><time>2026-05-01T06:09:30Z</time></trkpt><trkpt lat="45.44825970190824" lon="10.529164926134385"><ele>114.5</ele><time>2026-05-01T06:09:31Z</time></trkpt><trkpt lat="45.44815648782811" lon="10.529575494799898"><ele>114.0</ele><time>2026-05-01T06:09:32Z</time></trkpt><trkpt lat="45.44805086518317" lon="10.529987759596692"><ele>114.5</ele><time>2026-05-01T06:09:33Z</time></trkpt><trkpt lat="45.447946594762996" lon="10.53039458184136"><ele>115.0</ele><time>2026-05-01T06:09:34Z</time></trkpt><trkpt lat="45.4478339198227" lon="10.53079619538021"><ele>115.0</ele><time>2026-05-01T06:09:35Z</time></trkpt><trkpt lat="45.44772352477892" lon="10.53119573420023"><ele>115.0</ele><time>2026-05-01T06:09:36Z</time></trkpt><trkpt lat="45.447608900304814" lon="10.531591658365844"><ele>115.0</ele><time>2026-05-01T06:09:37Z</time></trkpt><trkpt lat="45.44749918294269" lon="10.531983091315901"><ele>115.0</ele><time>2026-05-01T06:09:38Z</time></trkpt><trkpt lat="45.44737178847622" lon="10.532366844893419"><ele>115.5</ele><time>2026-05-01T06:09:39Z</time></trkpt><trkpt lat="45.44724941444866" lon="10.532747482093809"><ele>116.0</ele><time>2026-05-01T06:09:40Z</time></trkpt><trkpt lat="45.447129326395995" lon="10.53313221476265"><ele>114.5</ele><time>2026-05-01T06:09:41Z</time></trkpt><trkpt lat="45.447008755773034" lon="10.533518590139504"><ele>113.0</ele><time>2026-05-01T06:09:42Z</time></trkpt><trkpt lat="45.44689293950293" lon="10.533911642069354"><ele>113.0</ele><time>2026-05-01T06:09:43Z</time></trkpt><trkpt lat="45.44676658624657" lon="10.53430485390787"><ele>113.0</ele><time>2026-05-01T06:09:44Z</time></trkpt><trkpt lat="45.446645873817474" lon="10.534699599311127"><ele>114.0</ele><time>2026-05-01T06:09:45Z</time></trkpt><trkpt lat="45.44652595680669" lon="10.535090234128651"><ele>115.0</ele><time>2026-05-01T06:09:46Z</time></trkpt><trkpt lat="45.44640844289183" lon="10.535488532787847"><ele>115.0</ele><time>2026-05-01T06:09:47Z</time></trkpt><trkpt lat="45.44629514524488" lon="10.535887705432325"><ele>115.0</ele><time>2026-05-01T06:09:48Z</time></trkpt><trkpt lat="45.44619083839588" lon="10.536295147743646"><ele>115.0</ele><time>2026-05-01T06:09:49Z</time></trkpt><trkpt lat="45.446081111369224" lon="10.536705456884667"><ele>115.0</ele><time>2026-05-01T06:09:50Z</time></trkpt><trkpt lat="45.44597684409055" lon="10.537116256096258"><ele>114.0</ele><time>2026-05-01T06:09:51Z</time></trkpt><trkpt lat="45.44588070359919" lon="10.537531575439951"><ele>113.0</ele><time>2026-05-01T06:09:52Z</time></trkpt><trkpt lat="45.44578199489819" lon="10.53794841078736"><ele>111.5</ele><time>2026-05-01T06:09:53Z</time></trkpt><trkpt lat="45.44569333837129" lon="10.538369761561071"><ele>110.0</ele><time>2026-05-01T06:09:54Z</time></trkpt><trkpt lat="45.445604960044896" lon="10.538790211464436"><ele>109.0</ele><time>2026-05-01T06:09:55Z</time></trkpt><trkpt lat="45.44551640008666" lon="10.539204223932767"><ele>108.0</ele><time>2026-05-01T06:09:56Z</time></trkpt><trkpt lat="45.44543318038833" lon="10.53962617024803"><ele>108.0</ele><time>2026-05-01T06:09:57Z</time></trkpt><trkpt lat="45.44535747030458" lon="10.540058228979401"><ele>108.0</ele><time>2026-05-01T06:09:58Z</time></trkpt><trkpt lat="45.44527630340667" lon="10.540483174314632"><ele>106.0</ele><time>2026-05-01T06:09:59Z</time></trkpt><trkpt lat="45.44519806423466" lon="10.540909586053878"><ele>104.0</ele><time>2026-05-01T06:10:00Z</time></trkpt><trkpt lat="45.445120365992274" lon="10.54133364564494"><ele>103.5</ele><time>2026-05-01T06:10:01Z</time></trkpt><trkpt lat="45.44504283269135" lon="10.5417607243277"><ele>103.0</ele><time>2026-05-01T06:10:02Z</time></trkpt><trkpt lat="45.444964986720706" lon="10.542178301385633"><ele>103.0</ele><time>2026-05-01T06:10:03Z</time></trkpt><trkpt lat="45.444886295772136" lon="10.542598480695755"><ele>103.0</ele><time>2026-05-01T06:10:04Z</time></trkpt><trkpt lat="45.44480654293414" lon="10.543017638119373"><ele>102.0</ele><time>2026-05-01T06:10:05Z</time></trkpt><trkpt lat="45.44472474490616" lon="10.543434142710954"><ele>101.0</ele><time>2026-05-01T06:10:06Z</time></trkpt><trkpt lat="45.44464818564281" lon="10.543858897270672"><ele>102.0</ele><time>2026-05-01T06:10:07Z</time></trkpt><trkpt lat="45.44457042551483" lon="10.544279378421885"><ele>103.0</ele><time>2026-05-01T06:10:08Z</time></trkpt><trkpt lat="45.4444925314662" lon="10.544700959960418"><ele>103.0</ele><time>2026-05-01T06:10:09Z</time></trkpt><trkpt lat="45.444413939472504" lon="10.545120017832705"><ele>103.0</ele><time>2026-05-01T06:10:10Z</time></trkpt><trkpt lat="45.44433506903111" lon="10.545537707286172"><ele>103.0</ele><time>2026-05-01T06:10:11Z</time></trkpt><trkpt lat="45.44425813771365" lon="10.545969303198165"><ele>103.0</ele><time>2026-05-01T06:10:12Z</time></trkpt><trkpt lat="45.44417554289218" lon="10.546381432097293"><ele>101.0</ele><time>2026-05-01T06:10:13Z</time></trkpt><trkpt lat="45.444098053684364" lon="10.546804290277063"><ele>99.0</ele><time>2026-05-01T06:10:14Z</time></trkpt><trkpt lat="45.44402005194094" lon="10.54722314730281"><ele>97.0</ele><time>2026-05-01T06:10:15Z</time></trkpt><trkpt lat="45.44394303651111" lon="10.54764369439229"><ele>95.0</ele><time>2026-05-01T06:10:16Z</time></trkpt><trkpt lat="45.44386569072012" lon="10.54806393083001"><ele>93.0</ele><time>2026-05-01T06:10:17Z</time></trkpt><trkpt lat="45.44378964081879" lon="10.548479686416906"><ele>91.0</ele><time>2026-05-01T06:10:18Z</time></trkpt><trkpt lat="45.443713231302205" lon="10.548899210236419"><ele>90.5</ele><time>2026-05-01T06:10:19Z</time></trkpt><trkpt lat="45.44363671814195" lon="10.549312882857683"><ele>90.0</ele><time>2026-05-01T06:10:20Z</time></trkpt><trkpt lat="45.44355763619418" lon="10.549727371656935"><ele>89.5</ele><time>2026-05-01T06:10:21Z</time></trkpt><trkpt lat="45.44347930462328" lon="10.550141610918676"><ele>89.0</ele><time>2026-05-01T06:10:22Z</time></trkpt><trkpt lat="45.44340433998856" lon="10.5505611240441"><ele>89.0</ele><time>2026-05-01T06:10:23Z</time></trkpt><trkpt lat="45.443325819775005" lon="10.5509766928146"><ele>89.0</ele><time>2026-05-01T06:10:24Z</time></trkpt><trkpt lat="45.44324666822756" lon="10.55139253687832"><ele>89.0</ele><time>2026-05-01T06:10:25Z</time></trkpt><trkpt lat="45.44317031782779" lon="10.551806431470572"><ele>89.0</ele><time>2026-05-01T06:10:26Z</time></trkpt><trkpt lat="45.44309117803738" lon="10.55222130663456"><ele>89.0</ele><time>2026-05-01T06:10:27Z</time></trkpt><trkpt lat="45.44301557726884" lon="10.552634165695302"><ele>89.0</ele><time>2026-05-01T06:10:28Z</time></trkpt><trkpt lat="45.44293889397173" lon="10.553047836832882"><ele>88.5</ele><time>2026-05-01T06:10:29Z</time></trkpt><trkpt lat="45.442862534633434" lon="10.553461118656537"><ele>88.0</ele><time>2026-05-01T06:10:30Z</time></trkpt><trkpt lat="45.44278450231466" lon="10.553874770175007"><ele>88.0</ele><time>2026-05-01T06:10:31Z</time></trkpt><trkpt lat="45.44270634730075" lon="10.554288242285002"><ele>88.0</ele><time>2026-05-01T06:10:32Z</time></trkpt><trkpt lat="45.44263070811109" lon="10.554698385180053"><ele>88.0</ele><time>2026-05-01T06:10:33Z</time></trkpt><trkpt lat="45.44255309430126" lon="10.555104592408176"><ele>88.0</ele><time>2026-05-01T06:10:34Z</time></trkpt><trkpt lat="45.442479469350324" lon="10.555513416379835"><ele>88.0</ele><time>2026-05-01T06:10:35Z</time></trkpt><trkpt lat="45.442403583207394" lon="10.55591436402236"><ele>88.0</ele><time>2026-05-01T06:10:36Z</time></trkpt><trkpt lat="45.44233165508831" lon="10.556320284081261"><ele>87.0</ele><time>2026-05-01T06:10:37Z</time></trkpt><trkpt lat="45.44226027250834" lon="10.556722350540513"><ele>86.0</ele><time>2026-05-01T06:10:38Z</time></trkpt><trkpt lat="45.44218347006663" lon="10.557119817050937"><ele>85.5</ele><time>2026-05-01T06:10:39Z</time></trkpt><trkpt lat="45.442107020984594" lon="10.557515422150734"><ele>85.0</ele><time>2026-05-01T06:10:40Z</time></trkpt><trkpt lat="45.44203437806101" lon="10.55790609589445"><ele>85.0</ele><time>2026-05-01T06:10:41Z</time></trkpt><trkpt lat="45.441964461569" lon="10.558269044122907"><ele>85.0</ele><time>2026-05-01T06:10:42Z</time></trkpt><trkpt lat="45.4418990737307" lon="10.55861397700217"><ele>86.0</ele><time>2026-05-01T06:10:43Z</time></trkpt><trkpt lat="45.441836826429835" lon="10.55895400565105"><ele>87.0</ele><time>2026-05-01T06:10:44Z</time></trkpt><trkpt lat="45.441776163507775" lon="10.559284557616158"><ele>87.0</ele><time>2026-05-01T06:10:45Z</time></trkpt><trkpt lat="45.44172024084204" lon="10.559600062855047"><ele>87.0</ele><time>2026-05-01T06:10:46Z</time></trkpt><trkpt lat="45.4416639386367" lon="10.55991261623969"><ele>87.0</ele><time>2026-05-01T06:10:47Z</time></trkpt><trkpt lat="45.44160821107534" lon="10.560218437791105"><ele>87.0</ele><time>2026-05-01T06:10:48Z</time></trkpt><trkpt lat="45.441553804779346" lon="10.560518580062407"><ele>87.0</ele><time>2026-05-01T06:10:49Z</time></trkpt><trkpt lat="45.44149997867893" lon="10.560813835406643"><ele>87.0</ele><time>2026-05-01T06:10:50Z</time></trkpt><trkpt lat="45.44144161405179" lon="10.561106303111647"><ele>87.0</ele><time>2026-05-01T06:10:51Z</time></trkpt><trkpt lat="45.441391381676254" lon="10.56139487349471"><ele>87.0</ele><time>2026-05-01T06:10:52Z</time></trkpt><trkpt lat="45.4413391328898" lon="10.561680615956664"><ele>88.0</ele><time>2026-05-01T06:10:53Z</time></trkpt><trkpt lat="45.441285989564086" lon="10.561963664492836"><ele>89.0</ele><time>2026-05-01T06:10:54Z</time></trkpt><trkpt lat="45.44123450018733" lon="10.562245167663754"><ele>90.0</ele><time>2026-05-01T06:10:55Z</time></trkpt><trkpt lat="45.44118078456631" lon="10.562523824245181"><ele>90.0</ele><time>2026-05-01T06:10:56Z</time></trkpt><trkpt lat="45.44112635227085" lon="10.562797318050638"><ele>90.0</ele><time>2026-05-01T06:10:57Z</time></trkpt><trkpt lat="45.441075662667124" lon="10.563072413801905"><ele>90.0</ele><time>2026-05-01T06:10:58Z</time></trkpt><trkpt lat="45.44102396820389" lon="10.563340457668914"><ele>89.66666666666667</ele><time>2026-05-01T06:10:59Z</time></trkpt><trkpt lat="45.44097066049805" lon="10.563615099786015"><ele>89.33333333333334</ele><time>2026-05-01T06:11:00Z</time></trkpt><trkpt lat="45.44091757852956" lon="10.563894913277158"><ele>89.0</ele><time>2026-05-01T06:11:01Z</time></trkpt><trkpt lat="45.44086398180994" lon="10.564177589638456"><ele>88.66666666666667</ele><time>2026-05-01T06:11:02Z</time></trkpt><trkpt lat="45.440812076540574" lon="10.564456797183862"><ele>88.33333333333333</ele><time>2026-05-01T06:11:03Z</time></trkpt><trkpt lat="45.44075907553026" lon="10.564743339898879"><ele>88.0</ele><time>2026-05-01T06:11:04Z</time></trkpt><trkpt lat="45.440708496351434" lon="10.565023586673489"><ele>88.0</ele><time>2026-05-01T06:11:05Z</time></trkpt><trkpt lat="45.44065754100747" lon="10.565304602100174"><ele>88.0</ele><time>2026-05-01T06:11:06Z</time></trkpt><trkpt lat="45.44060160967146" lon="10.565584591302455"><ele>88.0</ele><time>2026-05-01T06:11:07Z</time></trkpt><trkpt lat="45.44054464135798" lon="10.565861999435253"><ele>88.0</ele><time>2026-05-01T06:11:08Z</time></trkpt><trkpt lat="45.44049098991611" lon="10.566151597796052"><ele>88.0</ele><time>2026-05-01T06:11:09Z</time></trkpt><trkpt lat="45.44043402713076" lon="10.566441877468629"><ele>88.0</ele><time>2026-05-01T06:11:10Z</time></trkpt><trkpt lat="45.44037889010318" lon="10.566731294742642"><ele>87.66666666666666</ele><time>2026-05-01T06:11:11Z</time></trkpt><trkpt lat="45.44032577232779" lon="10.567013276490133"><ele>87.33333333333333</ele><time>2026-05-01T06:11:12Z</time></trkpt><trkpt lat="45.44027037071772" lon="10.56728920691176"><ele>87.0</ele><time>2026-05-01T06:11:13Z</time></trkpt><trkpt lat="45.44022329637332" lon="10.567553132696336"><ele>87.0</ele><time>2026-05-01T06:11:14Z</time></trkpt><trkpt lat="45.440179196273846" lon="10.567804163967274"><ele>87.0</ele><time>2026-05-01T06:11:15Z</time></trkpt><trkpt lat="45.440136681700686" lon="10.568044614558849"><ele>87.0</ele><time>2026-05-01T06:11:16Z</time></trkpt><trkpt lat="45.44009596164634" lon="10.56826641532972"><ele>87.25</ele><time>2026-05-01T06:11:17Z</time></trkpt><trkpt lat="45.44005469843724" lon="10.568476155473807"><ele>87.5</ele><time>2026-05-01T06:11:18Z</time></trkpt><trkpt lat="45.44001717277874" lon="10.568667903574996"><ele>87.75</ele><time>2026-05-01T06:11:19Z</time></trkpt><trkpt lat="45.43997733811484" lon="10.568860944033403"><ele>88.0</ele><time>2026-05-01T06:11:20Z</time></trkpt><trkpt lat="45.4399407566425" lon="10.569050731841978"><ele>88.0</ele><time>2026-05-01T06:11:21Z</time></trkpt><trkpt lat="45.43990477680883" lon="10.569237740200945"><ele>88.0</ele><time>2026-05-01T06:11:22Z</time></trkpt><trkpt lat="45.43987024844379" lon="10.569414985896923"><ele>88.0</ele><time>2026-05-01T06:11:23Z</time></trkpt><trkpt lat="45.439838818883324" lon="10.569588656137153"><ele>88.0</ele><time>2026-05-01T06:11:24Z</time></trkpt><trkpt lat="45.439807161963266" lon="10.569746678644538"><ele>88.0</ele><time>2026-05-01T06:11:25Z</time></trkpt><trkpt lat="45.43977652532466" lon="10.56989732638803"><ele>88.0</ele><time>2026-05-01T06:11:26Z</time></trkpt><trkpt lat="45.439746781401126" lon="10.570052814498382"><ele>88.0</ele><time>2026-05-01T06:11:27Z</time></trkpt><trkpt lat="45.43971123411845" lon="10.57022237025159"><ele>88.0</ele><time>2026-05-01T06:11:28Z</time></trkpt><trkpt lat="45.43967578544582" lon="10.570396393745899"><ele>87.75</ele><time>2026-05-01T06:11:29Z</time></trkpt><trkpt lat="45.439635382726706" lon="10.570574028059372"><ele>87.5</ele><time>2026-05-01T06:11:30Z</time></trkpt><trkpt lat="45.439590663053515" lon="10.570757006335143"><ele>87.25</ele><time>2026-05-01T06:11:31Z</time></trkpt><trkpt lat="45.43954975108925" lon="10.570951320938638"><ele>87.0</ele><time>2026-05-01T06:11:32Z</time></trkpt><trkpt lat="45.43951369919394" lon="10.571161196899489"><ele>86.33333333333333</ele><time>2026-05-01T06:11:33Z</time></trkpt><trkpt lat="45.43947021090051" lon="10.57138762659325"><ele>85.66666666666666</ele><time>2026-05-01T06:11:34Z</time></trkpt><trkpt lat="45.43942279964517" lon="10.571629568505333"><ele>85.0</ele><time>2026-05-01T06:11:35Z</time></trkpt><trkpt lat="45.43937580896296" lon="10.571883500497878"><ele>85.0</ele><time>2026-05-01T06:11:36Z</time></trkpt><trkpt lat="45.43932758954152" lon="10.572144243703256"><ele>85.0</ele><time>2026-05-01T06:11:37Z</time></trkpt><trkpt lat="45.43927767702083" lon="10.572408245023373"><ele>85.0</ele><time>2026-05-01T06:11:38Z</time></trkpt><trkpt lat="45.43922766132403" lon="10.572678348147225"><ele>85.66666666666666</ele><time>2026-05-01T06:11:39Z</time></trkpt><trkpt lat="45.43917654645949" lon="10.572952775252887"><ele>86.33333333333333</ele><time>2026-05-01T06:11:40Z</time></trkpt><trkpt lat="45.43912489405163" lon="10.573231128510914"><ele>87.0</ele><time>2026-05-01T06:11:41Z</time></trkpt><trkpt lat="45.43907235566724" lon="10.573514403289554"><ele>86.66666666666667</ele><time>2026-05-01T06:11:42Z</time></trkpt><trkpt lat="45.43901676282726" lon="10.573799206687038"><ele>86.33333333333334</ele><time>2026-05-01T06:11:43Z</time></trkpt><trkpt lat="45.43896231808206" lon="10.574090969160872"><ele>86.0</ele><time>2026-05-01T06:11:44Z</time></trkpt><trkpt lat="45.43891160595408" lon="10.574385297541506"><ele>86.0</ele><time>2026-05-01T06:11:45Z</time></trkpt><trkpt lat="45.438855548288664" lon="10.574685381185274"><ele>86.0</ele><time>2026-05-01T06:11:46Z</time></trkpt><trkpt lat="45.43879883041009" lon="10.5749890744574"><ele>86.0</ele><time>2026-05-01T06:11:47Z</time></trkpt><trkpt lat="45.43874071795764" lon="10.57529694519201"><ele>86.33333333333334</ele><time>2026-05-01T06:11:48Z</time></trkpt><trkpt lat="45.43868438519198" lon="10.575603604041321"><ele>86.66666666666667</ele><time>2026-05-01T06:11:49Z</time></trkpt><trkpt lat="45.438629473147316" lon="10.57590380927101"><ele>87.0</ele><time>2026-05-01T06:11:50Z</time></trkpt><trkpt lat="45.43857512002248" lon="10.576207686142016"><ele>87.0</ele><time>2026-05-01T06:11:51Z</time></trkpt><trkpt lat="45.43851967234641" lon="10.576508006225584"><ele>87.0</ele><time>2026-05-01T06:11:52Z</time></trkpt><trkpt lat="45.43846549879636" lon="10.57681025497045"><ele>87.0</ele><time>2026-05-01T06:11:53Z</time></trkpt><trkpt lat="45.43840661744678" lon="10.577113235544557"><ele>86.66666666666667</ele><time>2026-05-01T06:11:54Z</time></trkpt><trkpt lat="45.43835169157905" lon="10.577422491119988"><ele>86.33333333333334</ele><time>2026-05-01T06:11:55Z</time></trkpt><trkpt lat="45.4382944106036" lon="10.577733085780133"><ele>86.0</ele><time>2026-05-01T06:11:56Z</time></trkpt><trkpt lat="45.43823267919205" lon="10.578047906256634"><ele>86.0</ele><time>2026-05-01T06:11:57Z</time></trkpt><trkpt lat="45.43817112592364" lon="10.5783681976349"><ele>86.0</ele><time>2026-05-01T06:11:58Z</time></trkpt><trkpt lat="45.43811223197087" lon="10.578688609898848"><ele>86.5</ele><time>2026-05-01T06:11:59Z</time></trkpt><trkpt lat="45.43805699298301" lon="10.579013697679137"><ele>87.0</ele><time>2026-05-01T06:12:00Z</time></trkpt><trkpt lat="45.43799745455417" lon="10.57933695135981"><ele>85.0</ele><time>2026-05-01T06:12:01Z</time></trkpt><trkpt lat="45.43793998559461" lon="10.579665103451994"><ele>83.0</ele><time>2026-05-01T06:12:02Z</time></trkpt><trkpt lat="45.43789159871302" lon="10.58001374122898"><ele>83.0</ele><time>2026-05-01T06:12:03Z</time></trkpt><trkpt lat="45.4378237619358" lon="10.580384898018364"><ele>83.0</ele><time>2026-05-01T06:12:04Z</time></trkpt><trkpt lat="45.437731504585116" lon="10.580761026685925"><ele>83.0</ele><time>2026-05-01T06:12:05Z</time></trkpt><trkpt lat="45.437644496062" lon="10.581156544755824"><ele>83.0</ele><time>2026-05-01T06:12:06Z</time></trkpt><trkpt lat="45.43757294913026" lon="10.581541873584836"><ele>83.0</ele><time>2026-05-01T06:12:07Z</time></trkpt><trkpt lat="45.43751044512662" lon="10.581898267802444"><ele>83.0</ele><time>2026-05-01T06:12:08Z</time></trkpt><trkpt lat="45.4374469130724" lon="10.582242386122713"><ele>83.0</ele><time>2026-05-01T06:12:09Z</time></trkpt><trkpt lat="45.43738639549473" lon="10.582584775584811"><ele>83.0</ele><time>2026-05-01T06:12:10Z</time></trkpt><trkpt lat="45.43732547728231" lon="10.58292927497186"><ele>83.0</ele><time>2026-05-01T06:12:11Z</time></trkpt><trkpt lat="45.437260765740916" lon="10.583269628315602"><ele>83.0</ele><time>2026-05-01T06:12:12Z</time></trkpt><trkpt lat="45.43719729945491" lon="10.5836066988015"><ele>83.0</ele><time>2026-05-01T06:12:13Z</time></trkpt><trkpt lat="45.4371355724377" lon="10.583938898940408"><ele>83.0</ele><time>2026-05-01T06:12:14Z</time></trkpt><trkpt lat="45.437071860982044" lon="10.58426766203872"><ele>83.0</ele><time>2026-05-01T06:12:15Z</time></trkpt><trkpt lat="45.43700922278352" lon="10.58459354795868"><ele>83.0</ele><time>2026-05-01T06:12:16Z</time></trkpt><trkpt lat="45.436948986885916" lon="10.58491951188387"><ele>83.0</ele><time>2026-05-01T06:12:17Z</time></trkpt><trkpt lat="45.436889635669324" lon="10.585245129690028"><ele>83.0</ele><time>2026-05-01T06:12:18Z</time></trkpt><trkpt lat="45.43682918664842" lon="10.585570046351714"><ele>83.0</ele><time>2026-05-01T06:12:19Z</time></trkpt><trkpt lat="45.43676965314584" lon="10.58589659930455"><ele>83.0</ele><time>2026-05-01T06:12:20Z</time></trkpt><trkpt lat="45.43670952046188" lon="10.586221086960311"><ele>83.0</ele><time>2026-05-01T06:12:21Z</time></trkpt><trkpt lat="45.436647251560295" lon="10.586548305077129"><ele>83.0</ele><time>2026-05-01T06:12:22Z</time></trkpt><trkpt lat="45.436588774334936" lon="10.58687773185545"><ele>82.0</ele><time>2026-05-01T06:12:23Z</time></trkpt><trkpt lat="45.43652916512672" lon="10.587208689949064"><ele>81.0</ele><time>2026-05-01T06:12:24Z</time></trkpt><trkpt lat="45.43646721805646" lon="10.587537978819702"><ele>81.0</ele><time>2026-05-01T06:12:25Z</time></trkpt><trkpt lat="45.436406154158675" lon="10.587869799630875"><ele>81.0</ele><time>2026-05-01T06:12:26Z</time></trkpt><trkpt lat="45.43634454254241" lon="10.58820278441835"><ele>81.5</ele><time>2026-05-01T06:12:27Z</time></trkpt><trkpt lat="45.4362826556276" lon="10.58853816289494"><ele>82.0</ele><time>2026-05-01T06:12:28Z</time></trkpt><trkpt lat="45.43622280645726" lon="10.588875373179466"><ele>82.5</ele><time>2026-05-01T06:12:29Z</time></trkpt><trkpt lat="45.436162210644405" lon="10.589211713722088"><ele>83.0</ele><time>2026-05-01T06:12:30Z</time></trkpt><trkpt lat="45.436100232764176" lon="10.589545063422552"><ele>84.0</ele><time>2026-05-01T06:12:31Z</time></trkpt><trkpt lat="45.43603927473236" lon="10.589880985839569"><ele>85.0</ele><time>2026-05-01T06:12:32Z</time></trkpt><trkpt lat="45.43597442136173" lon="10.59021684279075"><ele>85.5</ele><time>2026-05-01T06:12:33Z</time></trkpt><trkpt lat="45.43591090236898" lon="10.590552999052102"><ele>86.0</ele><time>2026-05-01T06:12:34Z</time></trkpt><trkpt lat="45.4358501464845" lon="10.590886745026001"><ele>84.5</ele><time>2026-05-01T06:12:35Z</time></trkpt><trkpt lat="45.43579069723918" lon="10.591225926745777"><ele>83.0</ele><time>2026-05-01T06:12:36Z</time></trkpt><trkpt lat="45.43573081053968" lon="10.591560121276594"><ele>83.0</ele><time>2026-05-01T06:12:37Z</time></trkpt><trkpt lat="45.43566607867485" lon="10.59189003113494"><ele>83.0</ele><time>2026-05-01T06:12:38Z</time></trkpt><trkpt lat="45.43560283206764" lon="10.592216230336177"><ele>83.0</ele><time>2026-05-01T06:12:39Z</time></trkpt><trkpt lat="45.43554174743705" lon="10.592543907861348"><ele>83.0</ele><time>2026-05-01T06:12:40Z</time></trkpt><trkpt lat="45.43547883102141" lon="10.592871678046073"><ele>83.5</ele><time>2026-05-01T06:12:41Z</time></trkpt><trkpt lat="45.43541730346188" lon="10.593206399014493"><ele>84.0</ele><time>2026-05-01T06:12:42Z</time></trkpt><trkpt lat="45.43535420679783" lon="10.593540924553249"><ele>85.0</ele><time>2026-05-01T06:12:43Z</time></trkpt><trkpt lat="45.43529246445199" lon="10.593876496469576"><ele>86.0</ele><time>2026-05-01T06:12:44Z</time></trkpt><trkpt lat="45.43522946756994" lon="10.59421079686413"><ele>85.5</ele><time>2026-05-01T06:12:45Z</time></trkpt><trkpt lat="45.43516715391145" lon="10.594549983770722"><ele>85.0</ele><time>2026-05-01T06:12:46Z</time></trkpt><trkpt lat="45.43510378011142" lon="10.594895381405616"><ele>85.0</ele><time>2026-05-01T06:12:47Z</time></trkpt><trkpt lat="45.43503917648649" lon="10.595243889178976"><ele>85.0</ele><time>2026-05-01T06:12:48Z</time></trkpt><trkpt lat="45.43497385483029" lon="10.595598289394989"><ele>85.0</ele><time>2026-05-01T06:12:49Z</time></trkpt><trkpt lat="45.43491028084044" lon="10.595945918213323"><ele>85.0</ele><time>2026-05-01T06:12:50Z</time></trkpt><trkpt lat="45.43484718047291" lon="10.596296894668745"><ele>84.5</ele><time>2026-05-01T06:12:51Z</time></trkpt><trkpt lat="45.434784669055354" lon="10.596643761573041"><ele>84.0</ele><time>2026-05-01T06:12:52Z</time></trkpt><trkpt lat="45.43472720638657" lon="10.596980660143302"><ele>84.0</ele><time>2026-05-01T06:12:53Z</time></trkpt><trkpt lat="45.434673379741255" lon="10.597317371540601"><ele>84.0</ele><time>2026-05-01T06:12:54Z</time></trkpt><trkpt lat="45.434621492279845" lon="10.597650685881955"><ele>83.5</ele><time>2026-05-01T06:12:55Z</time></trkpt><trkpt lat="45.4345725656516" lon="10.597982110997544"><ele>83.0</ele><time>2026-05-01T06:12:56Z</time></trkpt><trkpt lat="45.43452382520971" lon="10.598311802353882"><ele>83.0</ele><time>2026-05-01T06:12:57Z</time></trkpt><trkpt lat="45.43447961739971" lon="10.598629709052792"><ele>83.0</ele><time>2026-05-01T06:12:58Z</time></trkpt><trkpt lat="45.43443854906051" lon="10.598938493692886"><ele>83.0</ele><time>2026-05-01T06:12:59Z</time></trkpt><trkpt lat="45.43440084605413" lon="10.599252112999345"><ele>82.5</ele><time>2026-05-01T06:13:00Z</time></trkpt><trkpt lat="45.434363441760574" lon="10.599569928353514"><ele>82.0</ele><time>2026-05-01T06:13:01Z</time></trkpt><trkpt lat="45.434329260691825" lon="10.599890615393194"><ele>82.0</ele><time>2026-05-01T06:13:02Z</time></trkpt><trkpt lat="45.434299059095736" lon="10.6002154025967"><ele>82.0</ele><time>2026-05-01T06:13:03Z</time></trkpt><trkpt lat="45.434269380787576" lon="10.600534706662595"><ele>82.66666666666666</ele><time>2026-05-01T06:13:04Z</time></trkpt><trkpt lat="45.434238472754146" lon="10.600856043718613"><ele>83.33333333333333</ele><time>2026-05-01T06:13:05Z</time></trkpt><trkpt lat="45.43421087675236" lon="10.601167903441516"><ele>84.0</ele><time>2026-05-01T06:13:06Z</time></trkpt><trkpt lat="45.434184643024146" lon="10.601468953907887"><ele>84.0</ele><time>2026-05-01T06:13:07Z</time></trkpt><trkpt lat="45.43416176293124" lon="10.601774819597136"><ele>84.0</ele><time>2026-05-01T06:13:08Z</time></trkpt><trkpt lat="45.43413942128528" lon="10.602079554363275"><ele>84.0</ele><time>2026-05-01T06:13:09Z</time></trkpt><trkpt lat="45.43412066214502" lon="10.602389393012995"><ele>84.0</ele><time>2026-05-01T06:13:10Z</time></trkpt><trkpt lat="45.43410502800402" lon="10.602698654443289"><ele>84.0</ele><time>2026-05-01T06:13:11Z</time></trkpt><trkpt lat="45.4340939785285" lon="10.60299761884811"><ele>84.0</ele><time>2026-05-01T06:13:12Z</time></trkpt><trkpt lat="45.43408402382703" lon="10.603293736479639"><ele>84.0</ele><time>2026-05-01T06:13:13Z</time></trkpt><trkpt lat="45.43407264409556" lon="10.603579968424892"><ele>84.0</ele><time>2026-05-01T06:13:14Z</time></trkpt><trkpt lat="45.43405757858855" lon="10.603867540475372"><ele>84.0</ele><time>2026-05-01T06:13:15Z</time></trkpt><trkpt lat="45.434038901495214" lon="10.604158507070656"><ele>84.66666666666667</ele><time>2026-05-01T06:13:16Z</time></trkpt><trkpt lat="45.434023417235906" lon="10.604455966868382"><ele>85.33333333333334</ele><time>2026-05-01T06:13:17Z</time></trkpt><trkpt lat="45.43401036651521" lon="10.604748452793057"><ele>86.0</ele><time>2026-05-01T06:13:18Z</time></trkpt><trkpt lat="45.433997058030684" lon="10.605037721574654"><ele>86.0</ele><time>2026-05-01T06:13:19Z</time></trkpt><trkpt lat="45.433981520927" lon="10.605320833503324"><ele>86.0</ele><time>2026-05-01T06:13:20Z</time></trkpt><trkpt lat="45.43396469061036" lon="10.605593417812365"><ele>86.0</ele><time>2026-05-01T06:13:21Z</time></trkpt><trkpt lat="45.43394704950813" lon="10.6058693090742"><ele>86.33333333333334</ele><time>2026-05-01T06:13:22Z</time></trkpt><trkpt lat="45.43393244338465" lon="10.606150822906509"><ele>86.66666666666667</ele><time>2026-05-01T06:13:23Z</time></trkpt><trkpt lat="45.4339226675283" lon="10.606433971988338"><ele>87.0</ele><time>2026-05-01T06:13:24Z</time></trkpt><trkpt lat="45.43391193282234" lon="10.606730591541243"><ele>86.0</ele><time>2026-05-01T06:13:25Z</time></trkpt><trkpt lat="45.433896407787145" lon="10.607025570778811"><ele>85.0</ele><time>2026-05-01T06:13:26Z</time></trkpt><trkpt lat="45.43388047905776" lon="10.607324922631106"><ele>84.0</ele><time>2026-05-01T06:13:27Z</time></trkpt><trkpt lat="45.433866020115204" lon="10.607634493712906"><ele>83.66666666666667</ele><time>2026-05-01T06:13:28Z</time></trkpt><trkpt lat="45.43385136488259" lon="10.607944587292517"><ele>83.33333333333334</ele><time>2026-05-01T06:13:29Z</time></trkpt><trkpt lat="45.43383888499749" lon="10.608261894778925"><ele>83.0</ele><time>2026-05-01T06:13:30Z</time></trkpt><trkpt lat="45.433823768956245" lon="10.60858115204911"><ele>83.0</ele><time>2026-05-01T06:13:31Z</time></trkpt><trkpt lat="45.433808610780645" lon="10.608897516962513"><ele>83.0</ele><time>2026-05-01T06:13:32Z</time></trkpt><trkpt lat="45.43379301676578" lon="10.60920976109919"><ele>83.0</ele><time>2026-05-01T06:13:33Z</time></trkpt><trkpt lat="45.43377719341475" lon="10.609524452731797"><ele>83.33333333333334</ele><time>2026-05-01T06:13:34Z</time></trkpt><trkpt lat="45.43376129674384" lon="10.609840895678834"><ele>83.66666666666667</ele><time>2026-05-01T06:13:35Z</time></trkpt><trkpt lat="45.43374721673758" lon="10.61016191518402"><ele>84.0</ele><time>2026-05-01T06:13:36Z</time></trkpt><trkpt lat="45.43373348281491" lon="10.610481564080281"><ele>84.0</ele><time>2026-05-01T06:13:37Z</time></trkpt><trkpt lat="45.433709490603164" lon="10.61080533972751"><ele>84.0</ele><time>2026-05-01T06:13:38Z</time></trkpt><trkpt lat="45.433696340397056" lon="10.611126419940705"><ele>84.0</ele><time>2026-05-01T06:13:39Z</time></trkpt><trkpt lat="45.433682618741216" lon="10.611443306052431"><ele>84.0</ele><time>2026-05-01T06:13:40Z</time></trkpt><trkpt lat="45.43366821526596" lon="10.611758939052251"><ele>84.0</ele><time>2026-05-01T06:13:41Z</time></trkpt><trkpt lat="45.433651304463055" lon="10.612076174970532"><ele>83.66666666666667</ele><time>2026-05-01T06:13:42Z</time></trkpt><trkpt lat="45.43363590789966" lon="10.612389912577218"><ele>83.33333333333334</ele><time>2026-05-01T06:13:43Z</time></trkpt><trkpt lat="45.43362280224142" lon="10.612706033421013"><ele>83.0</ele><time>2026-05-01T06:13:44Z</time></trkpt><trkpt lat="45.43360693031052" lon="10.613020841643177"><ele>83.0</ele><time>2026-05-01T06:13:45Z</time></trkpt><trkpt lat="45.433589825392964" lon="10.613340509016673"><ele>83.0</ele><time>2026-05-01T06:13:46Z</time></trkpt><trkpt lat="45.43357535393698" lon="10.613660410096408"><ele>83.0</ele><time>2026-05-01T06:13:47Z</time></trkpt><trkpt lat="45.43355974988631" lon="10.613979984464025"><ele>83.0</ele><time>2026-05-01T06:13:48Z</time></trkpt><trkpt lat="45.433546028062324" lon="10.614300495778819"><ele>83.0</ele><time>2026-05-01T06:13:49Z</time></trkpt><trkpt lat="45.433531324056" lon="10.61462227529167"><ele>83.0</ele><time>2026-05-01T06:13:50Z</time></trkpt><trkpt lat="45.43351718882924" lon="10.614952340667578"><ele>83.0</ele><time>2026-05-01T06:13:51Z</time></trkpt><trkpt lat="45.43350158741028" lon="10.61527994500186"><ele>83.0</ele><time>2026-05-01T06:13:52Z</time></trkpt><trkpt lat="45.43348516066765" lon="10.615613956566008"><ele>83.0</ele><time>2026-05-01T06:13:53Z</time></trkpt><trkpt lat="45.43346872240225" lon="10.615945063814735"><ele>83.0</ele><time>2026-05-01T06:13:54Z</time></trkpt><trkpt lat="45.433453746255545" lon="10.616273785296766"><ele>83.0</ele><time>2026-05-01T06:13:55Z</time></trkpt><trkpt lat="45.43343772231859" lon="10.61660479937104"><ele>83.0</ele><time>2026-05-01T06:13:56Z</time></trkpt><trkpt lat="45.43342225132863" lon="10.61692926316219"><ele>82.33333333333334</ele><time>2026-05-01T06:13:57Z</time></trkpt><trkpt lat="45.433405679927795" lon="10.617244480646699"><ele>81.66666666666667</ele><time>2026-05-01T06:13:58Z</time></trkpt><trkpt lat="45.43338719545064" lon="10.617559861736368"><ele>81.0</ele><time>2026-05-01T06:13:59Z</time></trkpt><trkpt lat="45.433373100572375" lon="10.617872797417176"><ele>80.33333333333333</ele><time>2026-05-01T06:14:00Z</time></trkpt><trkpt lat="45.43335784293744" lon="10.618183690230794"><ele>79.66666666666666</ele><time>2026-05-01T06:14:01Z</time></trkpt><trkpt lat="45.433343086728414" lon="10.618496066572881"><ele>79.0</ele><time>2026-05-01T06:14:02Z</time></trkpt><trkpt lat="45.43332780953926" lon="10.618806549055716"><ele>78.66666666666666</ele><time>2026-05-01T06:14:03Z</time></trkpt><trkpt lat="45.43331356937494" lon="10.619112164692458"><ele>78.33333333333333</ele><time>2026-05-01T06:14:04Z</time></trkpt><trkpt lat="45.43329925570531" lon="10.619402939586355"><ele>78.0</ele><time>2026-05-01T06:14:05Z</time></trkpt><trkpt lat="45.43328262609054" lon="10.619682823141863"><ele>77.66666666666667</ele><time>2026-05-01T06:14:06Z</time></trkpt><trkpt lat="45.433265650706" lon="10.619963236444349"><ele>77.33333333333334</ele><time>2026-05-01T06:14:07Z</time></trkpt><trkpt lat="45.43325053602555" lon="10.620248068582908"><ele>77.0</ele><time>2026-05-01T06:14:08Z</time></trkpt><trkpt lat="45.43323696605028" lon="10.620545034390947"><ele>76.66666666666667</ele><time>2026-05-01T06:14:09Z</time></trkpt><trkpt lat="45.43322395666056" lon="10.620845272721432"><ele>76.33333333333333</ele><time>2026-05-01T06:14:10Z</time></trkpt><trkpt lat="45.43320985950482" lon="10.62114175248479"><ele>76.0</ele><time>2026-05-01T06:14:11Z</time></trkpt><trkpt lat="45.433195601498525" lon="10.621426012236906"><ele>76.66666666666666</ele><time>2026-05-01T06:14:12Z</time></trkpt><trkpt lat="45.43318369621552" lon="10.621703271105574"><ele>77.33333333333333</ele><time>2026-05-01T06:14:13Z</time></trkpt><trkpt lat="45.43317071826845" lon="10.621974637568428"><ele>78.0</ele><time>2026-05-01T06:14:14Z</time></trkpt><trkpt lat="45.43316154711043" lon="10.622241002314123"><ele>78.0</ele><time>2026-05-01T06:14:15Z</time></trkpt><trkpt lat="45.4331463604271" lon="10.622494794211892"><ele>78.0</ele><time>2026-05-01T06:14:16Z</time></trkpt><trkpt lat="45.43313097618951" lon="10.62274377894906"><ele>78.0</ele><time>2026-05-01T06:14:17Z</time></trkpt><trkpt lat="45.43312171303049" lon="10.622984927866487"><ele>78.0</ele><time>2026-05-01T06:14:18Z</time></trkpt><trkpt lat="45.43310931899698" lon="10.623202828471316"><ele>78.0</ele><time>2026-05-01T06:14:19Z</time></trkpt><trkpt lat="45.433097816565414" lon="10.623419923143508"><ele>78.0</ele><time>2026-05-01T06:14:20Z</time></trkpt><trkpt lat="45.43308651480032" lon="10.623625583100603"><ele>78.0</ele><time>2026-05-01T06:14:21Z</time></trkpt><trkpt lat="45.43307517558686" lon="10.623833040328178"><ele>78.0</ele><time>2026-05-01T06:14:22Z</time></trkpt><trkpt lat="45.433067361016164" lon="10.624035226402397"><ele>78.0</ele><time>2026-05-01T06:14:23Z</time></trkpt><trkpt lat="45.43306002800821" lon="10.624210704464508"><ele>78.0</ele><time>2026-05-01T06:14:24Z</time></trkpt><trkpt lat="45.43305395874328" lon="10.624360679244054"><ele>77.6</ele><time>2026-05-01T06:14:25Z</time></trkpt><trkpt lat="45.43304674241706" lon="10.624503824548592"><ele>77.19999999999999</ele><time>2026-05-01T06:14:26Z</time></trkpt><trkpt lat="45.433039938655845" lon="10.624640421629692"><ele>76.8</ele><time>2026-05-01T06:14:27Z</time></trkpt><trkpt lat="45.43303281426939" lon="10.624780455000213"><ele>76.39999999999999</ele><time>2026-05-01T06:14:28Z</time></trkpt><trkpt lat="45.43302458185346" lon="10.62492871626961"><ele>76.0</ele><time>2026-05-01T06:14:29Z</time></trkpt><trkpt lat="45.43301641885264" lon="10.625078843139057"><ele>76.0</ele><time>2026-05-01T06:14:30Z</time></trkpt><trkpt lat="45.43301064219219" lon="10.625228857953141"><ele>76.0</ele><time>2026-05-01T06:14:31Z</time></trkpt><trkpt lat="45.432999710948074" lon="10.625385187090576"><ele>76.0</ele><time>2026-05-01T06:14:32Z</time></trkpt><trkpt lat="45.4329912695404" lon="10.625549117163985"><ele>76.0</ele><time>2026-05-01T06:14:33Z</time></trkpt><trkpt lat="45.432983829310544" lon="10.625707930721639"><ele>76.0</ele><time>2026-05-01T06:14:34Z</time></trkpt><trkpt lat="45.43297654487892" lon="10.62586175783477"><ele>76.6</ele><time>2026-05-01T06:14:35Z</time></trkpt><trkpt lat="45.432971565213066" lon="10.62601018653019"><ele>77.19999999999999</ele><time>2026-05-01T06:14:36Z</time></trkpt><trkpt lat="45.43296493128689" lon="10.626144631866353"><ele>77.80000000000001</ele><time>2026-05-01T06:14:37Z</time></trkpt><trkpt lat="45.43295457727862" lon="10.62627217131413"><ele>78.4</ele><time>2026-05-01T06:14:38Z</time></trkpt><trkpt lat="45.4329464937763" lon="10.626405731034987"><ele>79.0</ele><time>2026-05-01T06:14:39Z</time></trkpt><trkpt lat="45.43293908656813" lon="10.626559185899072"><ele>79.0</ele><time>2026-05-01T06:14:40Z</time></trkpt><trkpt lat="45.43293623221447" lon="10.626708165765956"><ele>79.0</ele><time>2026-05-01T06:14:41Z</time></trkpt><trkpt lat="45.432930536095554" lon="10.62683962839353"><ele>79.0</ele><time>2026-05-01T06:14:42Z</time></trkpt><trkpt lat="45.43292368412217" lon="10.626963132896996"><ele>79.0</ele><time>2026-05-01T06:14:43Z</time></trkpt><trkpt lat="45.43291726296696" lon="10.627095146664143"><ele>79.0</ele><time>2026-05-01T06:14:44Z</time></trkpt><trkpt lat="45.43290982423388" lon="10.62724327196563"><ele>78.60000000000001</ele><time>2026-05-01T06:14:45Z</time></trkpt><trkpt lat="45.43290446497864" lon="10.627394031917884"><ele>78.2</ele><time>2026-05-01T06:14:46Z</time></trkpt><trkpt lat="45.43289519949924" lon="10.627540417266772"><ele>77.80000000000001</ele><time>2026-05-01T06:14:47Z</time></trkpt><trkpt lat="45.43288915139602" lon="10.627688947150801"><ele>77.4</ele><time>2026-05-01T06:14:48Z</time></trkpt><trkpt lat="45.43288078533202" lon="10.627843469835561"><ele>77.0</ele><time>2026-05-01T06:14:49Z</time></trkpt><trkpt lat="45.43287267505929" lon="10.628013807694042"><ele>77.0</ele><time>2026-05-01T06:14:50Z</time></trkpt><trkpt lat="45.43286298629128" lon="10.62818246345129"><ele>77.0</ele><time>2026-05-01T06:14:51Z</time></trkpt><trkpt lat="45.432855132244384" lon="10.628353582592922"><ele>77.0</ele><time>2026-05-01T06:14:52Z</time></trkpt><trkpt lat="45.43284753371229" lon="10.628524508116119"><ele>77.0</ele><time>2026-05-01T06:14:53Z</time></trkpt><trkpt lat="45.432835714250956" lon="10.628700536697556"><ele>77.0</ele><time>2026-05-01T06:14:54Z</time></trkpt><trkpt lat="45.4328250473809" lon="10.628887345989192"><ele>77.0</ele><time>2026-05-01T06:14:55Z</time></trkpt><trkpt lat="45.43281738483588" lon="10.629080800476244"><ele>77.0</ele><time>2026-05-01T06:14:56Z</time></trkpt><trkpt lat="45.43281256068833" lon="10.629282151490774"><ele>77.0</ele><time>2026-05-01T06:14:57Z</time></trkpt><trkpt lat="45.432807293251585" lon="10.629488385611177"><ele>77.0</ele><time>2026-05-01T06:14:58Z</time></trkpt><trkpt lat="45.432798334810414" lon="10.629709099129247"><ele>77.0</ele><time>2026-05-01T06:14:59Z</time></trkpt><trkpt lat="45.43278598797628" lon="10.629949159436022"><ele>77.0</ele><time>2026-05-01T06:15:00Z</time></trkpt><trkpt lat="45.43277336850544" lon="10.630199459118172"><ele>76.66666666666667</ele><time>2026-05-01T06:15:01Z</time></trkpt><trkpt lat="45.43275857110556" lon="10.630454824497756"><ele>76.33333333333333</ele><time>2026-05-01T06:15:02Z</time></trkpt><trkpt lat="45.43274545624793" lon="10.630699595908032"><ele>76.0</ele><time>2026-05-01T06:15:03Z</time></trkpt><trkpt lat="45.43273547645995" lon="10.630932183470321"><ele>75.66666666666666</ele><time>2026-05-01T06:15:04Z</time></trkpt><trkpt lat="45.43273106516699" lon="10.631180317055975"><ele>75.33333333333333</ele><time>2026-05-01T06:15:05Z</time></trkpt><trkpt lat="45.43272741337291" lon="10.631434324608383"><ele>75.0</ele><time>2026-05-01T06:15:06Z</time></trkpt><trkpt lat="45.43271881074093" lon="10.63170213532766"><ele>75.0</ele><time>2026-05-01T06:15:07Z</time></trkpt><trkpt lat="45.43270477547353" lon="10.631981473762181"><ele>75.0</ele><time>2026-05-01T06:15:08Z</time></trkpt><trkpt lat="45.43269196852629" lon="10.63227061022136"><ele>75.0</ele><time>2026-05-01T06:15:09Z</time></trkpt><trkpt lat="45.43268061710982" lon="10.632561644416224"><ele>75.33333333333333</ele><time>2026-05-01T06:15:10Z</time></trkpt><trkpt lat="45.43266764486877" lon="10.632854357947494"><ele>75.66666666666666</ele><time>2026-05-01T06:15:11Z</time></trkpt><trkpt lat="45.43265323551871" lon="10.633156036358926"><ele>76.0</ele><time>2026-05-01T06:15:12Z</time></trkpt><trkpt lat="45.43263909822616" lon="10.633460256024197"><ele>77.0</ele><time>2026-05-01T06:15:13Z</time></trkpt><trkpt lat="45.43262320109075" lon="10.633759818640797"><ele>78.0</ele><time>2026-05-01T06:15:14Z</time></trkpt><trkpt lat="45.43260775132227" lon="10.634055555470947"><ele>79.0</ele><time>2026-05-01T06:15:15Z</time></trkpt><trkpt lat="45.43259124069747" lon="10.634347147261597"><ele>79.0</ele><time>2026-05-01T06:15:16Z</time></trkpt><trkpt lat="45.432576662583436" lon="10.634636696459165"><ele>79.0</ele><time>2026-05-01T06:15:17Z</time></trkpt><trkpt lat="45.432563138519924" lon="10.63493215935075"><ele>79.0</ele><time>2026-05-01T06:15:18Z</time></trkpt><trkpt lat="45.432549453284544" lon="10.635226369414761"><ele>78.66666666666666</ele><time>2026-05-01T06:15:19Z</time></trkpt><trkpt lat="45.43253715672583" lon="10.635520677067126"><ele>78.33333333333333</ele><time>2026-05-01T06:15:20Z</time></trkpt><trkpt lat="45.43252292012778" lon="10.63581666785814"><ele>78.0</ele><time>2026-05-01T06:15:21Z</time></trkpt><trkpt lat="45.432509702192725" lon="10.636102772979743"><ele>79.0</ele><time>2026-05-01T06:15:22Z</time></trkpt><trkpt lat="45.432493626609094" lon="10.636397547673182"><ele>80.0</ele><time>2026-05-01T06:15:23Z</time></trkpt><trkpt lat="45.432477897235415" lon="10.636698898398278"><ele>81.0</ele><time>2026-05-01T06:15:24Z</time></trkpt><trkpt lat="45.43246280325978" lon="10.637010884849735"><ele>81.0</ele><time>2026-05-01T06:15:25Z</time></trkpt><trkpt lat="45.43244456037911" lon="10.63733379591422"><ele>81.0</ele><time>2026-05-01T06:15:26Z</time></trkpt><trkpt lat="45.432429692637754" lon="10.637655969260276"><ele>79.5</ele><time>2026-05-01T06:15:27Z</time></trkpt><trkpt lat="45.43241663682971" lon="10.637973534355933"><ele>78.0</ele><time>2026-05-01T06:15:28Z</time></trkpt><trkpt lat="45.4324006334511" lon="10.638298013627171"><ele>78.0</ele><time>2026-05-01T06:15:29Z</time></trkpt><trkpt lat="45.432381502775996" lon="10.638622820393751"><ele>78.0</ele><time>2026-05-01T06:15:30Z</time></trkpt><trkpt lat="45.432364599637104" lon="10.638953006074644"><ele>77.0</ele><time>2026-05-01T06:15:31Z</time></trkpt><trkpt lat="45.4323439475564" lon="10.639284635997225"><ele>76.0</ele><time>2026-05-01T06:15:32Z</time></trkpt><trkpt lat="45.432323696331444" lon="10.639619747019278"><ele>76.0</ele><time>2026-05-01T06:15:33Z</time></trkpt><trkpt lat="45.43230195831745" lon="10.639958161972183"><ele>76.0</ele><time>2026-05-01T06:15:34Z</time></trkpt><trkpt lat="45.43227933169922" lon="10.640297524868192"><ele>75.5</ele><time>2026-05-01T06:15:35Z</time></trkpt><trkpt lat="45.43225376330992" lon="10.64063664121305"><ele>75.0</ele><time>2026-05-01T06:15:36Z</time></trkpt><trkpt lat="45.432230917274495" lon="10.640979618288366"><ele>75.5</ele><time>2026-05-01T06:15:37Z</time></trkpt><trkpt lat="45.43220821500257" lon="10.64132135563798"><ele>76.0</ele><time>2026-05-01T06:15:38Z</time></trkpt><trkpt lat="45.4321860837296" lon="10.641665172641614"><ele>76.0</ele><time>2026-05-01T06:15:39Z</time></trkpt><trkpt lat="45.4321648114071" lon="10.642011215847889"><ele>76.0</ele><time>2026-05-01T06:15:40Z</time></trkpt><trkpt lat="45.43214298822872" lon="10.642359604269933"><ele>76.5</ele><time>2026-05-01T06:15:41Z</time></trkpt><trkpt lat="45.43212127620846" lon="10.642713220534656"><ele>77.0</ele><time>2026-05-01T06:15:42Z</time></trkpt><trkpt lat="45.43209631701226" lon="10.643069293108843"><ele>77.0</ele><time>2026-05-01T06:15:43Z</time></trkpt><trkpt lat="45.432071462819515" lon="10.643426303941634"><ele>77.0</ele><time>2026-05-01T06:15:44Z</time></trkpt><trkpt lat="45.432051622898236" lon="10.643792966720588"><ele>77.0</ele><time>2026-05-01T06:15:45Z</time></trkpt><trkpt lat="45.43202616677558" lon="10.644161341316629"><ele>77.0</ele><time>2026-05-01T06:15:46Z</time></trkpt><trkpt lat="45.432002454173805" lon="10.644533337525605"><ele>76.0</ele><time>2026-05-01T06:15:47Z</time></trkpt><trkpt lat="45.43198048398108" lon="10.644907755659608"><ele>75.0</ele><time>2026-05-01T06:15:48Z</time></trkpt><trkpt lat="45.43195754288065" lon="10.645290185033753"><ele>74.5</ele><time>2026-05-01T06:15:49Z</time></trkpt><trkpt lat="45.431931210893325" lon="10.645673061395179"><ele>74.0</ele><time>2026-05-01T06:15:50Z</time></trkpt><trkpt lat="45.43190224047602" lon="10.646056743757702"><ele>74.5</ele><time>2026-05-01T06:15:51Z</time></trkpt><trkpt lat="45.43187065365818" lon="10.646440028256453"><ele>75.0</ele><time>2026-05-01T06:15:52Z</time></trkpt><trkpt lat="45.431843166094374" lon="10.646825314874379"><ele>75.0</ele><time>2026-05-01T06:15:53Z</time></trkpt><trkpt lat="45.43181723355795" lon="10.647205693390811"><ele>75.0</ele><time>2026-05-01T06:15:54Z</time></trkpt><trkpt lat="45.43178815413636" lon="10.647588781824851"><ele>75.0</ele><time>2026-05-01T06:15:55Z</time></trkpt><trkpt lat="45.431759876826206" lon="10.64797205145095"><ele>75.0</ele><time>2026-05-01T06:15:56Z</time></trkpt><trkpt lat="45.43173401039739" lon="10.648361112480346"><ele>75.0</ele><time>2026-05-01T06:15:57Z</time></trkpt><trkpt lat="45.431706711099324" lon="10.648751202367619"><ele>75.0</ele><time>2026-05-01T06:15:58Z</time></trkpt><trkpt lat="45.43167947871974" lon="10.64914498624666"><ele>75.5</ele><time>2026-05-01T06:15:59Z</time></trkpt><trkpt lat="45.43165392156409" lon="10.649540719531306"><ele>76.0</ele><time>2026-05-01T06:16:00Z</time></trkpt><trkpt lat="45.43162724519826" lon="10.649935231347092"><ele>76.0</ele><time>2026-05-01T06:16:01Z</time></trkpt><trkpt lat="45.43160050369953" lon="10.650328052890742"><ele>76.0</ele><time>2026-05-01T06:16:02Z</time></trkpt><trkpt lat="45.43157573925957" lon="10.650722572348037"><ele>76.0</ele><time>2026-05-01T06:16:03Z</time></trkpt><trkpt lat="45.43154860023554" lon="10.651114468803971"><ele>76.0</ele><time>2026-05-01T06:16:04Z</time></trkpt><trkpt lat="45.43152295549921" lon="10.651504222406848"><ele>76.0</ele><time>2026-05-01T06:16:05Z</time></trkpt><trkpt lat="45.4314987857442" lon="10.651887508324739"><ele>76.0</ele><time>2026-05-01T06:16:06Z</time></trkpt><trkpt lat="45.43147354764698" lon="10.652258451880767"><ele>76.0</ele><time>2026-05-01T06:16:07Z</time></trkpt><trkpt lat="45.43144554884861" lon="10.652644235734938"><ele>76.0</ele><time>2026-05-01T06:16:08Z</time></trkpt><trkpt lat="45.43142399913801" lon="10.653025801099199"><ele>76.0</ele><time>2026-05-01T06:16:09Z</time></trkpt><trkpt lat="45.43140046410326" lon="10.65340884041804"><ele>76.0</ele><time>2026-05-01T06:16:10Z</time></trkpt><trkpt lat="45.431376595446224" lon="10.653787503262626"><ele>76.0</ele><time>2026-05-01T06:16:11Z</time></trkpt><trkpt lat="45.431352240306325" lon="10.654169690706407"><ele>76.0</ele><time>2026-05-01T06:16:12Z</time></trkpt><trkpt lat="45.43132559463251" lon="10.654553097354842"><ele>77.0</ele><time>2026-05-01T06:16:13Z</time></trkpt><trkpt lat="45.431297764357886" lon="10.654939149415574"><ele>78.0</ele><time>2026-05-01T06:16:14Z</time></trkpt><trkpt lat="45.43127326702528" lon="10.655325640166337"><ele>79.5</ele><time>2026-05-01T06:16:15Z</time></trkpt><trkpt lat="45.431249341421555" lon="10.65571171082047"><ele>81.0</ele><time>2026-05-01T06:16:16Z</time></trkpt><trkpt lat="45.43122865285746" lon="10.656100804768332"><ele>81.0</ele><time>2026-05-01T06:16:17Z</time></trkpt><trkpt lat="45.43120439987476" lon="10.656484129415942"><ele>81.0</ele><time>2026-05-01T06:16:18Z</time></trkpt><trkpt lat="45.43118170650445" lon="10.656869934343367"><ele>82.5</ele><time>2026-05-01T06:16:19Z</time></trkpt><trkpt lat="45.43115859869676" lon="10.657248438824881"><ele>84.0</ele><time>2026-05-01T06:16:20Z</time></trkpt><trkpt lat="45.43113597663252" lon="10.65762531260443"><ele>85.0</ele><time>2026-05-01T06:16:21Z</time></trkpt><trkpt lat="45.431114374369514" lon="10.658004178480265"><ele>86.0</ele><time>2026-05-01T06:16:22Z</time></trkpt><trkpt lat="45.43109843870435" lon="10.658384500179228"><ele>86.0</ele><time>2026-05-01T06:16:23Z</time></trkpt><trkpt lat="45.43107550569396" lon="10.658765138098275"><ele>86.0</ele><time>2026-05-01T06:16:24Z</time></trkpt><trkpt lat="45.4310532384424" lon="10.659150846074002"><ele>84.5</ele><time>2026-05-01T06:16:25Z</time></trkpt><trkpt lat="45.431029570860545" lon="10.65953855556882"><ele>83.0</ele><time>2026-05-01T06:16:26Z</time></trkpt><trkpt lat="45.43100601912175" lon="10.659923517511592"><ele>81.0</ele><time>2026-05-01T06:16:27Z</time></trkpt><trkpt lat="45.43098624786168" lon="10.660315271779792"><ele>79.0</ele><time>2026-05-01T06:16:28Z</time></trkpt><trkpt lat="45.4309617520011" lon="10.660706328229429"><ele>79.0</ele><time>2026-05-01T06:16:29Z</time></trkpt><trkpt lat="45.43093993802775" lon="10.661091932236063"><ele>79.0</ele><time>2026-05-01T06:16:30Z</time></trkpt><trkpt lat="45.43091604636127" lon="10.661484800201414"><ele>77.5</ele><time>2026-05-01T06:16:31Z</time></trkpt><trkpt lat="45.430888635123566" lon="10.661873609855089"><ele>76.0</ele><time>2026-05-01T06:16:32Z</time></trkpt><trkpt lat="45.43086331897167" lon="10.662258886547892"><ele>76.0</ele><time>2026-05-01T06:16:33Z</time></trkpt><trkpt lat="45.430838705604714" lon="10.662656132201294"><ele>76.0</ele><time>2026-05-01T06:16:34Z</time></trkpt><trkpt lat="45.43081182162656" lon="10.663049932554285"><ele>75.5</ele><time>2026-05-01T06:16:35Z</time></trkpt><trkpt lat="45.430785776597666" lon="10.663446235875304"><ele>75.0</ele><time>2026-05-01T06:16:36Z</time></trkpt><trkpt lat="45.430759891674214" lon="10.663845590663264"><ele>75.0</ele><time>2026-05-01T06:16:37Z</time></trkpt><trkpt lat="45.43073478164093" lon="10.664244942083874"><ele>75.0</ele><time>2026-05-01T06:16:38Z</time></trkpt><trkpt lat="45.43070903055106" lon="10.664643759369858"><ele>75.5</ele><time>2026-05-01T06:16:39Z</time></trkpt><trkpt lat="45.430679206208836" lon="10.665041150047896"><ele>76.0</ele><time>2026-05-01T06:16:40Z</time></trkpt><trkpt lat="45.43065381227889" lon="10.665438245447566"><ele>77.0</ele><time>2026-05-01T06:16:41Z</time></trkpt><trkpt lat="45.43062837103913" lon="10.665834968344347"><ele>78.0</ele><time>2026-05-01T06:16:42Z</time></trkpt><trkpt lat="45.43060354225938" lon="10.666230955769757"><ele>80.0</ele><time>2026-05-01T06:16:43Z</time></trkpt><trkpt lat="45.43057907238975" lon="10.666626872516543"><ele>82.0</ele><time>2026-05-01T06:16:44Z</time></trkpt><trkpt lat="45.43055529482337" lon="10.667022918113526"><ele>83.5</ele><time>2026-05-01T06:16:45Z</time></trkpt><trkpt lat="45.430532333766116" lon="10.667416344442728"><ele>85.0</ele><time>2026-05-01T06:16:46Z</time></trkpt><trkpt lat="45.43050774053266" lon="10.667810086708183"><ele>86.0</ele><time>2026-05-01T06:16:47Z</time></trkpt><trkpt lat="45.430479695789295" lon="10.668193606748263"><ele>87.0</ele><time>2026-05-01T06:16:48Z</time></trkpt><trkpt lat="45.43045555729916" lon="10.668581480304484"><ele>88.0</ele><time>2026-05-01T06:16:49Z</time></trkpt><trkpt lat="45.43042977969889" lon="10.668960537482551"><ele>89.0</ele><time>2026-05-01T06:16:50Z</time></trkpt><trkpt lat="45.43040822074017" lon="10.669334241917705"><ele>88.5</ele><time>2026-05-01T06:16:51Z</time></trkpt><trkpt lat="45.430383331950715" lon="10.66970135802134"><ele>88.0</ele><time>2026-05-01T06:16:52Z</time></trkpt><trkpt lat="45.43035894957919" lon="10.670058979620451"><ele>86.0</ele><time>2026-05-01T06:16:53Z</time></trkpt><trkpt lat="45.43033472094373" lon="10.670399295302477"><ele>84.0</ele><time>2026-05-01T06:16:54Z</time></trkpt><trkpt lat="45.43031567849075" lon="10.670708520707876"><ele>84.0</ele><time>2026-05-01T06:16:55Z</time></trkpt><trkpt lat="45.430302410594074" lon="10.671001581279196"><ele>84.0</ele><time>2026-05-01T06:16:56Z</time></trkpt><trkpt lat="45.430284495746804" lon="10.671297281551519"><ele>84.0</ele><time>2026-05-01T06:16:57Z</time></trkpt><trkpt lat="45.43026410454648" lon="10.671624981739198"><ele>83.0</ele><time>2026-05-01T06:16:58Z</time></trkpt><trkpt lat="45.43024025083308" lon="10.671978006848233"><ele>82.0</ele><time>2026-05-01T06:16:59Z</time></trkpt><trkpt lat="45.43021091933066" lon="10.672344779545172"><ele>82.0</ele><time>2026-05-01T06:17:00Z</time></trkpt><trkpt lat="45.43018410211523" lon="10.672724255695444"><ele>82.0</ele><time>2026-05-01T06:17:01Z</time></trkpt><trkpt lat="45.43015736101559" lon="10.673112538663329"><ele>82.5</ele><time>2026-05-01T06:17:02Z</time></trkpt><trkpt lat="45.43013426157138" lon="10.67350519463985"><ele>83.0</ele><time>2026-05-01T06:17:03Z</time></trkpt><trkpt lat="45.430113998221785" lon="10.673892288956296"><ele>84.0</ele><time>2026-05-01T06:17:04Z</time></trkpt><trkpt lat="45.430092817813204" lon="10.674267763706734"><ele>85.0</ele><time>2026-05-01T06:17:05Z</time></trkpt><trkpt lat="45.43007024177212" lon="10.67462284539002"><ele>85.0</ele><time>2026-05-01T06:17:06Z</time></trkpt><trkpt lat="45.43004561129846" lon="10.674970744528332"><ele>85.0</ele><time>2026-05-01T06:17:07Z</time></trkpt><trkpt lat="45.43002335869288" lon="10.675324436766346"><ele>84.5</ele><time>2026-05-01T06:17:08Z</time></trkpt><trkpt lat="45.4300031345508" lon="10.675659507150863"><ele>84.0</ele><time>2026-05-01T06:17:09Z</time></trkpt><trkpt lat="45.42998037383579" lon="10.675998512407313"><ele>83.5</ele><time>2026-05-01T06:17:10Z</time></trkpt><trkpt lat="45.42995884704897" lon="10.67632766963157"><ele>83.0</ele><time>2026-05-01T06:17:11Z</time></trkpt><trkpt lat="45.42993943427463" lon="10.676659100680006"><ele>83.0</ele><time>2026-05-01T06:17:12Z</time></trkpt><trkpt lat="45.42991721815961" lon="10.676997520876963"><ele>83.0</ele><time>2026-05-01T06:17:13Z</time></trkpt><trkpt lat="45.429894413824734" lon="10.677342407966606"><ele>83.0</ele><time>2026-05-01T06:17:14Z</time></trkpt><trkpt lat="45.42987342394371" lon="10.67768751362661"><ele>83.0</ele><time>2026-05-01T06:17:15Z</time></trkpt><trkpt lat="45.42985086169575" lon="10.678026493966833"><ele>84.0</ele><time>2026-05-01T06:17:16Z</time></trkpt><trkpt lat="45.42982637507766" lon="10.678368614895646"><ele>85.0</ele><time>2026-05-01T06:17:17Z</time></trkpt><trkpt lat="45.42980090455402" lon="10.67871916576621"><ele>85.0</ele><time>2026-05-01T06:17:18Z</time></trkpt><trkpt lat="45.42977837189061" lon="10.679075504582714"><ele>85.0</ele><time>2026-05-01T06:17:19Z</time></trkpt><trkpt lat="45.42975426661512" lon="10.679438079813838"><ele>85.5</ele><time>2026-05-01T06:17:20Z</time></trkpt><trkpt lat="45.429731523931075" lon="10.679808219900071"><ele>86.0</ele><time>2026-05-01T06:17:21Z</time></trkpt><trkpt lat="45.42970864526182" lon="10.680183612011705"><ele>86.0</ele><time>2026-05-01T06:17:22Z</time></trkpt><trkpt lat="45.42968323870772" lon="10.680558701030929"><ele>86.0</ele><time>2026-05-01T06:17:23Z</time></trkpt><trkpt lat="45.42965768430095" lon="10.680932628571618"><ele>87.0</ele><time>2026-05-01T06:17:24Z</time></trkpt><trkpt lat="45.42963260449157" lon="10.681307602545548"><ele>88.0</ele><time>2026-05-01T06:17:25Z</time></trkpt><trkpt lat="45.42960538890716" lon="10.681673342151058"><ele>91.0</ele><time>2026-05-01T06:17:26Z</time></trkpt><trkpt lat="45.429582392242416" lon="10.682030809846625"><ele>94.0</ele><time>2026-05-01T06:17:27Z</time></trkpt><trkpt lat="45.42956039558012" lon="10.68238765929048"><ele>94.0</ele><time>2026-05-01T06:17:28Z</time></trkpt><trkpt lat="45.429535234304645" lon="10.68274929976743"><ele>94.0</ele><time>2026-05-01T06:17:29Z</time></trkpt><trkpt lat="45.42951257972102" lon="10.68311411714312"><ele>93.0</ele><time>2026-05-01T06:17:30Z</time></trkpt><trkpt lat="45.429490812485426" lon="10.68348228059385"><ele>92.0</ele><time>2026-05-01T06:17:31Z</time></trkpt><trkpt lat="45.42946678182733" lon="10.683846848542798"><ele>92.0</ele><time>2026-05-01T06:17:32Z</time></trkpt><trkpt lat="45.429442761597755" lon="10.684211679646081"><ele>92.0</ele><time>2026-05-01T06:17:33Z</time></trkpt><trkpt lat="45.429419435496015" lon="10.684576358186678"><ele>90.0</ele><time>2026-05-01T06:17:34Z</time></trkpt><trkpt lat="45.42939865935969" lon="10.68493881913137"><ele>88.0</ele><time>2026-05-01T06:17:35Z</time></trkpt><trkpt lat="45.429375952600466" lon="10.685302159050055"><ele>86.5</ele><time>2026-05-01T06:17:36Z</time></trkpt><trkpt lat="45.429346038154435" lon="10.68566361929634"><ele>85.0</ele><time>2026-05-01T06:17:37Z</time></trkpt><trkpt lat="45.429324088034384" lon="10.686033875631948"><ele>84.5</ele><time>2026-05-01T06:17:38Z</time></trkpt><trkpt lat="45.42930455235809" lon="10.686407371110825"><ele>84.0</ele><time>2026-05-01T06:17:39Z</time></trkpt><trkpt lat="45.42928309769304" lon="10.686783307608268"><ele>84.5</ele><time>2026-05-01T06:17:40Z</time></trkpt><trkpt lat="45.42926078120572" lon="10.68715740748975"><ele>85.0</ele><time>2026-05-01T06:17:41Z</time></trkpt><trkpt lat="45.429243178901075" lon="10.687529679523635"><ele>84.5</ele><time>2026-05-01T06:17:42Z</time></trkpt><trkpt lat="45.42922840200285" lon="10.68790078279199"><ele>84.0</ele><time>2026-05-01T06:17:43Z</time></trkpt><trkpt lat="45.42921698350303" lon="10.688275983336018"><ele>83.0</ele><time>2026-05-01T06:17:44Z</time></trkpt><trkpt lat="45.42920908164731" lon="10.688653589621557"><ele>82.0</ele><time>2026-05-01T06:17:45Z</time></trkpt><trkpt lat="45.429205458501684" lon="10.689035391247055"><ele>82.0</ele><time>2026-05-01T06:17:46Z</time></trkpt><trkpt lat="45.429201898553885" lon="10.689425628959233"><ele>82.0</ele><time>2026-05-01T06:17:47Z</time></trkpt><trkpt lat="45.42919435615162" lon="10.689819409933794"><ele>82.0</ele><time>2026-05-01T06:17:48Z</time></trkpt><trkpt lat="45.42919505038613" lon="10.690213256287556"><ele>82.0</ele><time>2026-05-01T06:17:49Z</time></trkpt><trkpt lat="45.429197835886576" lon="10.690604846036203"><ele>82.5</ele><time>2026-05-01T06:17:50Z</time></trkpt><trkpt lat="45.429204638069805" lon="10.690997996936753"><ele>83.0</ele><time>2026-05-01T06:17:51Z</time></trkpt><trkpt lat="45.42921238955016" lon="10.691394819860864"><ele>82.5</ele><time>2026-05-01T06:17:52Z</time></trkpt><trkpt lat="45.42922045006446" lon="10.691790824212802"><ele>82.0</ele><time>2026-05-01T06:17:53Z</time></trkpt><trkpt lat="45.42922467864254" lon="10.692187890936744"><ele>82.0</ele><time>2026-05-01T06:17:54Z</time></trkpt><trkpt lat="45.42922667900334" lon="10.692584566470805"><ele>82.0</ele><time>2026-05-01T06:17:55Z</time></trkpt><trkpt lat="45.42922705286851" lon="10.692981232779996"><ele>82.0</ele><time>2026-05-01T06:17:56Z</time></trkpt><trkpt lat="45.42922935076862" lon="10.693377075734093"><ele>82.0</ele><time>2026-05-01T06:17:57Z</time></trkpt><trkpt lat="45.4292340525781" lon="10.693777667595949"><ele>82.0</ele><time>2026-05-01T06:17:58Z</time></trkpt><trkpt lat="45.42923546870842" lon="10.694175334209877"><ele>82.0</ele><time>2026-05-01T06:17:59Z</time></trkpt><trkpt lat="45.42923750082293" lon="10.694574805264793"><ele>81.5</ele><time>2026-05-01T06:18:00Z</time></trkpt><trkpt lat="45.429241403429955" lon="10.694971547744794"><ele>81.0</ele><time>2026-05-01T06:18:01Z</time></trkpt><trkpt lat="45.429246207510246" lon="10.695369711973521"><ele>80.5</ele><time>2026-05-01T06:18:02Z</time></trkpt><trkpt lat="45.42925127898553" lon="10.695770990765169"><ele>80.0</ele><time>2026-05-01T06:18:03Z</time></trkpt><trkpt lat="45.42925152968742" lon="10.696166311918295"><ele>78.5</ele><time>2026-05-01T06:18:04Z</time></trkpt><trkpt lat="45.42925370215791" lon="10.696571377648738"><ele>77.0</ele><time>2026-05-01T06:18:05Z</time></trkpt><trkpt lat="45.42925470966011" lon="10.696962972630027"><ele>76.0</ele><time>2026-05-01T06:18:06Z</time></trkpt><trkpt lat="45.42925142949543" lon="10.697353237378161"><ele>75.0</ele><time>2026-05-01T06:18:07Z</time></trkpt><trkpt lat="45.42925341125442" lon="10.69772377332246"><ele>74.0</ele><time>2026-05-01T06:18:08Z</time></trkpt><trkpt lat="45.42925341815661" lon="10.698082810537377"><ele>73.0</ele><time>2026-05-01T06:18:09Z</time></trkpt><trkpt lat="45.4292573756547" lon="10.698437422474044"><ele>72.5</ele><time>2026-05-01T06:18:10Z</time></trkpt><trkpt lat="45.42926005965775" lon="10.698781132426303"><ele>72.0</ele><time>2026-05-01T06:18:11Z</time></trkpt><trkpt lat="45.42926120158141" lon="10.699109104588647"><ele>70.0</ele><time>2026-05-01T06:18:12Z</time></trkpt><trkpt lat="45.429260453447434" lon="10.69943397397066"><ele>68.0</ele><time>2026-05-01T06:18:13Z</time></trkpt><trkpt lat="45.429263759732876" lon="10.699768469378158"><ele>68.0</ele><time>2026-05-01T06:18:14Z</time></trkpt><trkpt lat="45.429268808790056" lon="10.700111511300118"><ele>68.0</ele><time>2026-05-01T06:18:15Z</time></trkpt><trkpt lat="45.429269455716216" lon="10.700451921421898"><ele>67.0</ele><time>2026-05-01T06:18:16Z</time></trkpt><trkpt lat="45.4292704890897" lon="10.70079692503821"><ele>66.0</ele><time>2026-05-01T06:18:17Z</time></trkpt><trkpt lat="45.429274183570385" lon="10.70114743647669"><ele>66.0</ele><time>2026-05-01T06:18:18Z</time></trkpt><trkpt lat="45.4292773047085" lon="10.701496271610617"><ele>66.0</ele><time>2026-05-01T06:18:19Z</time></trkpt><trkpt lat="45.429277443441975" lon="10.70184463343097"><ele>68.0</ele><time>2026-05-01T06:18:20Z</time></trkpt><trkpt lat="45.429279304832534" lon="10.702195536406645"><ele>70.0</ele><time>2026-05-01T06:18:21Z</time></trkpt><trkpt lat="45.42928164807132" lon="10.702551529036446"><ele>72.0</ele><time>2026-05-01T06:18:22Z</time></trkpt><trkpt lat="45.429282476994146" lon="10.7029058102255"><ele>74.0</ele><time>2026-05-01T06:18:23Z</time></trkpt><trkpt lat="45.429284786797616" lon="10.70326589837766"><ele>75.5</ele><time>2026-05-01T06:18:24Z</time></trkpt><trkpt lat="45.42928857640776" lon="10.703631253841262"><ele>77.0</ele><time>2026-05-01T06:18:25Z</time></trkpt><trkpt lat="45.42929398749168" lon="10.703997899918752"><ele>77.0</ele><time>2026-05-01T06:18:26Z</time></trkpt><trkpt lat="45.42929636275574" lon="10.70436890363644"><ele>77.0</ele><time>2026-05-01T06:18:27Z</time></trkpt><trkpt lat="45.42930080764502" lon="10.704744874673786"><ele>78.5</ele><time>2026-05-01T06:18:28Z</time></trkpt><trkpt lat="45.42930435880776" lon="10.705118986580839"><ele>80.0</ele><time>2026-05-01T06:18:29Z</time></trkpt><trkpt lat="45.42930693657769" lon="10.705497178433674"><ele>81.0</ele><time>2026-05-01T06:18:30Z</time></trkpt><trkpt lat="45.429305957132776" lon="10.705871767612578"><ele>82.0</ele><time>2026-05-01T06:18:31Z</time></trkpt><trkpt lat="45.42930686757816" lon="10.706242408581497"><ele>82.0</ele><time>2026-05-01T06:18:32Z</time></trkpt><trkpt lat="45.42930835097626" lon="10.706611253499654"><ele>82.0</ele><time>2026-05-01T06:18:33Z</time></trkpt><trkpt lat="45.429311457044584" lon="10.706983655922325"><ele>83.0</ele><time>2026-05-01T06:18:34Z</time></trkpt><trkpt lat="45.42931374701765" lon="10.707355308915758"><ele>84.0</ele><time>2026-05-01T06:18:35Z</time></trkpt><trkpt lat="45.42931714872892" lon="10.70772870720427"><ele>84.5</ele><time>2026-05-01T06:18:36Z</time></trkpt><trkpt lat="45.42932048967588" lon="10.708104631944012"><ele>85.0</ele><time>2026-05-01T06:18:37Z</time></trkpt><trkpt lat="45.429323290520394" lon="10.708481269087207"><ele>86.0</ele><time>2026-05-01T06:18:38Z</time></trkpt><trkpt lat="45.4293267565891" lon="10.708859718962046"><ele>87.0</ele><time>2026-05-01T06:18:39Z</time></trkpt><trkpt lat="45.429329910600984" lon="10.709238060166694"><ele>88.5</ele><time>2026-05-01T06:18:40Z</time></trkpt><trkpt lat="45.42933065109318" lon="10.709615707683449"><ele>90.0</ele><time>2026-05-01T06:18:41Z</time></trkpt><trkpt lat="45.42933166633674" lon="10.709992734107871"><ele>91.5</ele><time>2026-05-01T06:18:42Z</time></trkpt><trkpt lat="45.42933297974044" lon="10.710369446518566"><ele>93.0</ele><time>2026-05-01T06:18:43Z</time></trkpt><trkpt lat="45.429335490947274" lon="10.710751392745307"><ele>95.0</ele><time>2026-05-01T06:18:44Z</time></trkpt><trkpt lat="45.42934007527532" lon="10.711135324891666"><ele>97.0</ele><time>2026-05-01T06:18:45Z</time></trkpt><trkpt lat="45.42934392683459" lon="10.711517042507309"><ele>97.0</ele><time>2026-05-01T06:18:46Z</time></trkpt><trkpt lat="45.42934731970273" lon="10.711898246318492"><ele>97.0</ele><time>2026-05-01T06:18:47Z</time></trkpt><trkpt lat="45.4293503797669" lon="10.712283843396188"><ele>98.0</ele><time>2026-05-01T06:18:48Z</time></trkpt><trkpt lat="45.429353085393245" lon="10.712667873269814"><ele>99.0</ele><time>2026-05-01T06:18:49Z</time></trkpt><trkpt lat="45.4293553966981" lon="10.713052314313646"><ele>99.5</ele><time>2026-05-01T06:18:50Z</time></trkpt><trkpt lat="45.42935692543006" lon="10.713435871342957"><ele>100.0</ele><time>2026-05-01T06:18:51Z</time></trkpt><trkpt lat="45.42935762578425" lon="10.713826004164005"><ele>100.5</ele><time>2026-05-01T06:18:52Z</time></trkpt><trkpt lat="45.429362599138614" lon="10.714212375656345"><ele>101.0</ele><time>2026-05-01T06:18:53Z</time></trkpt><trkpt lat="45.42936674926171" lon="10.714594104221058"><ele>101.0</ele><time>2026-05-01T06:18:54Z</time></trkpt><trkpt lat="45.42937083109672" lon="10.71497207317785"><ele>101.0</ele><time>2026-05-01T06:18:55Z</time></trkpt><trkpt lat="45.42937174580064" lon="10.715341176404461"><ele>100.0</ele><time>2026-05-01T06:18:56Z</time></trkpt><trkpt lat="45.4293744874777" lon="10.715724091480894"><ele>99.0</ele><time>2026-05-01T06:18:57Z</time></trkpt><trkpt lat="45.4293752005405" lon="10.71611187336744"><ele>99.0</ele><time>2026-05-01T06:18:58Z</time></trkpt><trkpt lat="45.429374821083684" lon="10.716496627188425"><ele>99.0</ele><time>2026-05-01T06:18:59Z</time></trkpt><trkpt lat="45.42937667257041" lon="10.716881439457104"><ele>98.5</ele><time>2026-05-01T06:19:00Z</time></trkpt><trkpt lat="45.429379134603494" lon="10.717261996775544"><ele>98.0</ele><time>2026-05-01T06:19:01Z</time></trkpt><trkpt lat="45.42938080591748" lon="10.717625208237134"><ele>98.0</ele><time>2026-05-01T06:19:02Z</time></trkpt><trkpt lat="45.42938546910824" lon="10.717985194668936"><ele>98.0</ele><time>2026-05-01T06:19:03Z</time></trkpt><trkpt lat="45.4293893431728" lon="10.718345872660262"><ele>98.5</ele><time>2026-05-01T06:19:04Z</time></trkpt><trkpt lat="45.42939227657593" lon="10.718704686113261"><ele>99.0</ele><time>2026-05-01T06:19:05Z</time></trkpt><trkpt lat="45.429391701178055" lon="10.719054970234245"><ele>99.5</ele><time>2026-05-01T06:19:06Z</time></trkpt><trkpt lat="45.42939233451576" lon="10.719404904905447"><ele>100.0</ele><time>2026-05-01T06:19:07Z</time></trkpt><trkpt lat="45.42939616843025" lon="10.719755075584123"><ele>100.0</ele><time>2026-05-01T06:19:08Z</time></trkpt><trkpt lat="45.42940286603722" lon="10.720108832900193"><ele>100.0</ele><time>2026-05-01T06:19:09Z</time></trkpt><trkpt lat="45.4294069921216" lon="10.720464469168983"><ele>100.0</ele><time>2026-05-01T06:19:10Z</time></trkpt><trkpt lat="45.4294108073381" lon="10.72082345903995"><ele>100.0</ele><time>2026-05-01T06:19:11Z</time></trkpt><trkpt lat="45.429410707908225" lon="10.721186448983433"><ele>100.5</ele><time>2026-05-01T06:19:12Z</time></trkpt><trkpt lat="45.42941172672329" lon="10.721545478985835"><ele>101.0</ele><time>2026-05-01T06:19:13Z</time></trkpt><trkpt lat="45.4294140650426" lon="10.72189968279224"><ele>102.0</ele><time>2026-05-01T06:19:14Z</time></trkpt><trkpt lat="45.429417305930386" lon="10.722257778112038"><ele>103.0</ele><time>2026-05-01T06:19:15Z</time></trkpt><trkpt lat="45.429420689741974" lon="10.722615276866563"><ele>104.0</ele><time>2026-05-01T06:19:16Z</time></trkpt><trkpt lat="45.42942631092896" lon="10.72298426058515"><ele>105.0</ele><time>2026-05-01T06:19:17Z</time></trkpt><trkpt lat="45.429428207507" lon="10.723351264710272"><ele>105.5</ele><time>2026-05-01T06:19:18Z</time></trkpt><trkpt lat="45.429428411603844" lon="10.723715997394365"><ele>106.0</ele><time>2026-05-01T06:19:19Z</time></trkpt><trkpt lat="45.42942886847617" lon="10.724077655145907"><ele>107.0</ele><time>2026-05-01T06:19:20Z</time></trkpt><trkpt lat="45.429432367975885" lon="10.724445013711472"><ele>108.0</ele><time>2026-05-01T06:19:21Z</time></trkpt><trkpt lat="45.4294319946896" lon="10.724808124246586"><ele>108.0</ele><time>2026-05-01T06:19:22Z</time></trkpt><trkpt lat="45.42943331966474" lon="10.72518087843118"><ele>108.0</ele><time>2026-05-01T06:19:23Z</time></trkpt><trkpt lat="45.42943092905742" lon="10.725560768962835"><ele>108.5</ele><time>2026-05-01T06:19:24Z</time></trkpt><trkpt lat="45.4294290632823" lon="10.725944119119122"><ele>109.0</ele><time>2026-05-01T06:19:25Z</time></trkpt><trkpt lat="45.4294251507631" lon="10.7263325067315"><ele>109.5</ele><time>2026-05-01T06:19:26Z</time></trkpt><trkpt lat="45.42941954187348" lon="10.72672386825473"><ele>110.0</ele><time>2026-05-01T06:19:27Z</time></trkpt><trkpt lat="45.42941356087508" lon="10.72710133434454"><ele>110.0</ele><time>2026-05-01T06:19:28Z</time></trkpt><trkpt lat="45.429410175285376" lon="10.727499575686123"><ele>110.0</ele><time>2026-05-01T06:19:29Z</time></trkpt><trkpt lat="45.42939419204679" lon="10.727893298212221"><ele>108.0</ele><time>2026-05-01T06:19:30Z</time></trkpt><trkpt lat="45.429373732168074" lon="10.728289330590023"><ele>106.0</ele><time>2026-05-01T06:19:31Z</time></trkpt><trkpt lat="45.42934975955848" lon="10.72869576104826"><ele>104.0</ele><time>2026-05-01T06:19:32Z</time></trkpt><trkpt lat="45.42931989853784" lon="10.729102455679396"><ele>102.0</ele><time>2026-05-01T06:19:33Z</time></trkpt><trkpt lat="45.42929329229956" lon="10.729515078650412"><ele>102.0</ele><time>2026-05-01T06:19:34Z</time></trkpt><trkpt lat="45.4292657982413" lon="10.729926559722461"><ele>102.0</ele><time>2026-05-01T06:19:35Z</time></trkpt><trkpt lat="45.42923894584591" lon="10.73034167796103"><ele>102.0</ele><time>2026-05-01T06:19:36Z</time></trkpt><trkpt lat="45.42921265001327" lon="10.73075636088632"><ele>102.0</ele><time>2026-05-01T06:19:37Z</time></trkpt><trkpt lat="45.42918219697967" lon="10.731169605485439"><ele>102.5</ele><time>2026-05-01T06:19:38Z</time></trkpt><trkpt lat="45.42914680018267" lon="10.731581765857156"><ele>103.0</ele><time>2026-05-01T06:19:39Z</time></trkpt><trkpt lat="45.42910861604592" lon="10.731988841895143"><ele>103.0</ele><time>2026-05-01T06:19:40Z</time></trkpt><trkpt lat="45.429069582885006" lon="10.732396732124153"><ele>103.0</ele><time>2026-05-01T06:19:41Z</time></trkpt><trkpt lat="45.429028385755885" lon="10.732798305558598"><ele>103.5</ele><time>2026-05-01T06:19:42Z</time></trkpt><trkpt lat="45.42898558783065" lon="10.73320046675411"><ele>104.0</ele><time>2026-05-01T06:19:43Z</time></trkpt><trkpt lat="45.42894499160714" lon="10.733599658499939"><ele>102.0</ele><time>2026-05-01T06:19:44Z</time></trkpt><trkpt lat="45.428905281820576" lon="10.733999670961888"><ele>100.0</ele><time>2026-05-01T06:19:45Z</time></trkpt><trkpt lat="45.42886409341926" lon="10.73439614493445"><ele>100.0</ele><time>2026-05-01T06:19:46Z</time></trkpt><trkpt lat="45.42882443152424" lon="10.734790444218538"><ele>100.0</ele><time>2026-05-01T06:19:47Z</time></trkpt><trkpt lat="45.42878627040033" lon="10.735184588440482"><ele>99.5</ele><time>2026-05-01T06:19:48Z</time></trkpt><trkpt lat="45.42874574775978" lon="10.73558103396325"><ele>99.0</ele><time>2026-05-01T06:19:49Z</time></trkpt><trkpt lat="45.428705360725" lon="10.735975882226262"><ele>99.5</ele><time>2026-05-01T06:19:50Z</time></trkpt><trkpt lat="45.42866246692758" lon="10.736369581900153"><ele>100.0</ele><time>2026-05-01T06:19:51Z</time></trkpt><trkpt lat="45.42862121627349" lon="10.7367585105945"><ele>98.5</ele><time>2026-05-01T06:19:52Z</time></trkpt><trkpt lat="45.42858127144219" lon="10.737129723244152"><ele>97.0</ele><time>2026-05-01T06:19:53Z</time></trkpt><trkpt lat="45.428548896029824" lon="10.737494013025014"><ele>97.0</ele><time>2026-05-01T06:19:54Z</time></trkpt><trkpt lat="45.42851695944116" lon="10.737849118339083"><ele>97.0</ele><time>2026-05-01T06:19:55Z</time></trkpt><trkpt lat="45.42848862056212" lon="10.738206184759466"><ele>96.5</ele><time>2026-05-01T06:19:56Z</time></trkpt><trkpt lat="45.42845260701729" lon="10.738559599286702"><ele>96.0</ele><time>2026-05-01T06:19:57Z</time></trkpt><trkpt lat="45.42842027708244" lon="10.738912588856229"><ele>96.0</ele><time>2026-05-01T06:19:58Z</time></trkpt><trkpt lat="45.42838803883397" lon="10.739268866548846"><ele>96.0</ele><time>2026-05-01T06:19:59Z</time></trkpt><trkpt lat="45.428354420224544" lon="10.739630299136733"><ele>96.0</ele><time>2026-05-01T06:20:00Z</time></trkpt><trkpt lat="45.42831967310529" lon="10.739997210020038"><ele>96.0</ele><time>2026-05-01T06:20:01Z</time></trkpt><trkpt lat="45.42828213044653" lon="10.740372210389072"><ele>96.5</ele><time>2026-05-01T06:20:02Z</time></trkpt><trkpt lat="45.428241719435036" lon="10.74074920795429"><ele>97.0</ele><time>2026-05-01T06:20:03Z</time></trkpt><trkpt lat="45.42819956790966" lon="10.741130347399533"><ele>97.0</ele><time>2026-05-01T06:20:04Z</time></trkpt><trkpt lat="45.42816061064092" lon="10.741511988751991"><ele>97.0</ele><time>2026-05-01T06:20:05Z</time></trkpt><trkpt lat="45.42812272413342" lon="10.741891161846151"><ele>97.0</ele><time>2026-05-01T06:20:06Z</time></trkpt><trkpt lat="45.42808288434903" lon="10.742273713418166"><ele>97.0</ele><time>2026-05-01T06:20:07Z</time></trkpt><trkpt lat="45.42804442827817" lon="10.74265575814175"><ele>95.5</ele><time>2026-05-01T06:20:08Z</time></trkpt><trkpt lat="45.42800511581531" lon="10.74303458721487"><ele>94.0</ele><time>2026-05-01T06:20:09Z</time></trkpt><trkpt lat="45.42796721819033" lon="10.743420944369149"><ele>93.0</ele><time>2026-05-01T06:20:10Z</time></trkpt><trkpt lat="45.42793405902548" lon="10.743812708133765"><ele>92.0</ele><time>2026-05-01T06:20:11Z</time></trkpt><trkpt lat="45.42789111811952" lon="10.744202991078696"><ele>93.0</ele><time>2026-05-01T06:20:12Z</time></trkpt><trkpt lat="45.42784908485171" lon="10.744603791057786"><ele>94.0</ele><time>2026-05-01T06:20:13Z</time></trkpt><trkpt lat="45.427806401462576" lon="10.745007175177903"><ele>94.0</ele><time>2026-05-01T06:20:14Z</time></trkpt><trkpt lat="45.427763263837036" lon="10.74540739617909"><ele>94.0</ele><time>2026-05-01T06:20:15Z</time></trkpt><trkpt lat="45.4277268609623" lon="10.74581538861069"><ele>94.5</ele><time>2026-05-01T06:20:16Z</time></trkpt><trkpt lat="45.427689620048554" lon="10.746223286061777"><ele>95.0</ele><time>2026-05-01T06:20:17Z</time></trkpt><trkpt lat="45.42764685350958" lon="10.746631761753523"><ele>96.0</ele><time>2026-05-01T06:20:18Z</time></trkpt><trkpt lat="45.42760423216818" lon="10.747042964573502"><ele>97.0</ele><time>2026-05-01T06:20:19Z</time></trkpt><trkpt lat="45.427563097967266" lon="10.747451655337324"><ele>97.5</ele><time>2026-05-01T06:20:20Z</time></trkpt><trkpt lat="45.427524926741626" lon="10.747859414743159"><ele>98.0</ele><time>2026-05-01T06:20:21Z</time></trkpt><trkpt lat="45.427481781147456" lon="10.748261563700533"><ele>99.5</ele><time>2026-05-01T06:20:22Z</time></trkpt><trkpt lat="45.4274419422749" lon="10.748667559699648"><ele>101.0</ele><time>2026-05-01T06:20:23Z</time></trkpt><trkpt lat="45.427399955869056" lon="10.749065511357834"><ele>102.0</ele><time>2026-05-01T06:20:24Z</time></trkpt><trkpt lat="45.42735868350518" lon="10.749463256309822"><ele>103.0</ele><time>2026-05-01T06:20:25Z</time></trkpt><trkpt lat="45.42731268684945" lon="10.749863003588068"><ele>104.0</ele><time>2026-05-01T06:20:26Z</time></trkpt><trkpt lat="45.42726561443246" lon="10.750264425803216"><ele>105.0</ele><time>2026-05-01T06:20:27Z</time></trkpt><trkpt lat="45.42722314122411" lon="10.750669064362835"><ele>104.5</ele><time>2026-05-01T06:20:28Z</time></trkpt><trkpt lat="45.42718310495844" lon="10.751080972449612"><ele>104.0</ele><time>2026-05-01T06:20:29Z</time></trkpt><trkpt lat="45.427143702525996" lon="10.751498277181142"><ele>103.0</ele><time>2026-05-01T06:20:30Z</time></trkpt><trkpt lat="45.427105882822424" lon="10.751916109205519"><ele>102.0</ele><time>2026-05-01T06:20:31Z</time></trkpt><trkpt lat="45.427063629909284" lon="10.75233290371402"><ele>101.5</ele><time>2026-05-01T06:20:32Z</time></trkpt><trkpt lat="45.427019975863615" lon="10.75275153991597"><ele>101.0</ele><time>2026-05-01T06:20:33Z</time></trkpt><trkpt lat="45.42696555399052" lon="10.753177575028406"><ele>101.0</ele><time>2026-05-01T06:20:34Z</time></trkpt><trkpt lat="45.42692494021353" lon="10.753607053698417"><ele>101.0</ele><time>2026-05-01T06:20:35Z</time></trkpt><trkpt lat="45.42688385019507" lon="10.754039102512413"><ele>100.5</ele><time>2026-05-01T06:20:36Z</time></trkpt><trkpt lat="45.42684007848443" lon="10.754465098935874"><ele>100.0</ele><time>2026-05-01T06:20:37Z</time></trkpt><trkpt lat="45.426795776088376" lon="10.754896497608822"><ele>100.5</ele><time>2026-05-01T06:20:38Z</time></trkpt><trkpt lat="45.42675302543969" lon="10.75532425513693"><ele>101.0</ele><time>2026-05-01T06:20:39Z</time></trkpt><trkpt lat="45.426711537987885" lon="10.7557516041443"><ele>101.0</ele><time>2026-05-01T06:20:40Z</time></trkpt><trkpt lat="45.426667722513805" lon="10.75617540388922"><ele>101.0</ele><time>2026-05-01T06:20:41Z</time></trkpt><trkpt lat="45.426624252476735" lon="10.75659100230688"><ele>100.5</ele><time>2026-05-01T06:20:42Z</time></trkpt><trkpt lat="45.42657638420251" lon="10.75699908377188"><ele>100.0</ele><time>2026-05-01T06:20:43Z</time></trkpt><trkpt lat="45.426537611863345" lon="10.757420468702488"><ele>101.0</ele><time>2026-05-01T06:20:44Z</time></trkpt><trkpt lat="45.42649609435936" lon="10.757838811404673"><ele>102.0</ele><time>2026-05-01T06:20:45Z</time></trkpt><trkpt lat="45.42645331831974" lon="10.758256959021082"><ele>102.0</ele><time>2026-05-01T06:20:46Z</time></trkpt><trkpt lat="45.42641058550697" lon="10.758676984967495"><ele>102.0</ele><time>2026-05-01T06:20:47Z</time></trkpt><trkpt lat="45.4263685472863" lon="10.75909593483825"><ele>102.0</ele><time>2026-05-01T06:20:48Z</time></trkpt><trkpt lat="45.42632590889948" lon="10.759513339156001"><ele>102.0</ele><time>2026-05-01T06:20:49Z</time></trkpt><trkpt lat="45.42628393027677" lon="10.759932825717666"><ele>102.0</ele><time>2026-05-01T06:20:50Z</time></trkpt><trkpt lat="45.42624208485773" lon="10.760350652096509"><ele>102.0</ele><time>2026-05-01T06:20:51Z</time></trkpt><trkpt lat="45.42620167535225" lon="10.760767415266047"><ele>101.5</ele><time>2026-05-01T06:20:52Z</time></trkpt><trkpt lat="45.42615927747382" lon="10.76118386768869"><ele>101.0</ele><time>2026-05-01T06:20:53Z</time></trkpt><trkpt lat="45.42611519091147" lon="10.761603036778313"><ele>102.0</ele><time>2026-05-01T06:20:54Z</time></trkpt><trkpt lat="45.4260722060993" lon="10.76202486123458"><ele>103.0</ele><time>2026-05-01T06:20:55Z</time></trkpt><trkpt lat="45.42602889929682" lon="10.762450887852564"><ele>103.0</ele><time>2026-05-01T06:20:56Z</time></trkpt><trkpt lat="45.425983289118" lon="10.762875289202096"><ele>103.0</ele><time>2026-05-01T06:20:57Z</time></trkpt><trkpt lat="45.4259377412577" lon="10.763298715545991"><ele>102.0</ele><time>2026-05-01T06:20:58Z</time></trkpt><trkpt lat="45.425892117489084" lon="10.763724980584156"><ele>101.0</ele><time>2026-05-01T06:20:59Z</time></trkpt><trkpt lat="45.425849373241206" lon="10.764155652560872"><ele>100.0</ele><time>2026-05-01T06:21:00Z</time></trkpt><trkpt lat="45.42580893397253" lon="10.764586409065268"><ele>99.0</ele><time>2026-05-01T06:21:01Z</time></trkpt><trkpt lat="45.42576529269046" lon="10.765013958579484"><ele>98.5</ele><time>2026-05-01T06:21:02Z</time></trkpt><trkpt lat="45.42572129532837" lon="10.765442163707721"><ele>98.0</ele><time>2026-05-01T06:21:03Z</time></trkpt><trkpt lat="45.425678024965265" lon="10.765868436083993"><ele>99.0</ele><time>2026-05-01T06:21:04Z</time></trkpt><trkpt lat="45.425636013476804" lon="10.76629611253011"><ele>100.0</ele><time>2026-05-01T06:21:05Z</time></trkpt><trkpt lat="45.425591817942625" lon="10.766715694760551"><ele>101.5</ele><time>2026-05-01T06:21:06Z</time></trkpt><trkpt lat="45.425547246816464" lon="10.76714107221205"><ele>103.0</ele><time>2026-05-01T06:21:07Z</time></trkpt><trkpt lat="45.425503473277494" lon="10.767566222702213"><ele>103.5</ele><time>2026-05-01T06:21:08Z</time></trkpt><trkpt lat="45.42545732871888" lon="10.767988091305343"><ele>104.0</ele><time>2026-05-01T06:21:09Z</time></trkpt><trkpt lat="45.425407482176055" lon="10.768412185616155"><ele>104.0</ele><time>2026-05-01T06:21:10Z</time></trkpt><trkpt lat="45.42535529621766" lon="10.768837293434759"><ele>104.0</ele><time>2026-05-01T06:21:11Z</time></trkpt><trkpt lat="45.42529570002458" lon="10.76926435191559"><ele>103.5</ele><time>2026-05-01T06:21:12Z</time></trkpt><trkpt lat="45.425230267577156" lon="10.769690275796052"><ele>103.0</ele><time>2026-05-01T06:21:13Z</time></trkpt><trkpt lat="45.42515845579138" lon="10.770110955300577"><ele>103.0</ele><time>2026-05-01T06:21:14Z</time></trkpt><trkpt lat="45.42508780850337" lon="10.770521277702501"><ele>103.0</ele><time>2026-05-01T06:21:15Z</time></trkpt><trkpt lat="45.425008930627556" lon="10.77093158589763"><ele>104.0</ele><time>2026-05-01T06:21:16Z</time></trkpt><trkpt lat="45.42492815017069" lon="10.771338542708671"><ele>105.0</ele><time>2026-05-01T06:21:17Z</time></trkpt><trkpt lat="45.42484109769919" lon="10.771746471297522"><ele>104.5</ele><time>2026-05-01T06:21:18Z</time></trkpt><trkpt lat="45.424743930593515" lon="10.772155407793402"><ele>104.0</ele><time>2026-05-01T06:21:19Z</time></trkpt><trkpt lat="45.424647594515385" lon="10.772559246344404"><ele>103.0</ele><time>2026-05-01T06:21:20Z</time></trkpt><trkpt lat="45.42454735899386" lon="10.772959585587957"><ele>102.0</ele><time>2026-05-01T06:21:21Z</time></trkpt><trkpt lat="45.42444210901349" lon="10.773357919064162"><ele>104.0</ele><time>2026-05-01T06:21:22Z</time></trkpt><trkpt lat="45.42433095750352" lon="10.773751434151054"><ele>106.0</ele><time>2026-05-01T06:21:23Z</time></trkpt><trkpt lat="45.42421678578721" lon="10.774139690219839"><ele>107.0</ele><time>2026-05-01T06:21:24Z</time></trkpt><trkpt lat="45.4240945094717" lon="10.774520672326725"><ele>108.0</ele><time>2026-05-01T06:21:25Z</time></trkpt><trkpt lat="45.42396980849295" lon="10.774906235213374"><ele>110.0</ele><time>2026-05-01T06:21:26Z</time></trkpt><trkpt lat="45.42384066789774" lon="10.775282720498911"><ele>112.0</ele><time>2026-05-01T06:21:27Z</time></trkpt><trkpt lat="45.423703836163064" lon="10.775660923988365"><ele>115.0</ele><time>2026-05-01T06:21:28Z</time></trkpt><trkpt lat="45.42356654029243" lon="10.776030947913934"><ele>118.0</ele><time>2026-05-01T06:21:29Z</time></trkpt><trkpt lat="45.42342642747975" lon="10.776399296357765"><ele>118.0</ele><time>2026-05-01T06:21:30Z</time></trkpt><trkpt lat="45.423279213223864" lon="10.776773027752215"><ele>118.0</ele><time>2026-05-01T06:21:31Z</time></trkpt><trkpt lat="45.42313367788969" lon="10.777134142639689"><ele>119.5</ele><time>2026-05-01T06:21:32Z</time></trkpt><trkpt lat="45.422988660929136" lon="10.777500502245307"><ele>121.0</ele><time>2026-05-01T06:21:33Z</time></trkpt><trkpt lat="45.4228470964037" lon="10.777866810102493"><ele>123.0</ele><time>2026-05-01T06:21:34Z</time></trkpt><trkpt lat="45.42270244766245" lon="10.778232492771563"><ele>125.0</ele><time>2026-05-01T06:21:35Z</time></trkpt><trkpt lat="45.42255739208388" lon="10.778596368235377"><ele>126.0</ele><time>2026-05-01T06:21:36Z</time></trkpt><trkpt lat="45.422415274743365" lon="10.778958884790807"><ele>127.0</ele><time>2026-05-01T06:21:37Z</time></trkpt><trkpt lat="45.42227034668046" lon="10.779317301036121"><ele>126.0</ele><time>2026-05-01T06:21:38Z</time></trkpt><trkpt lat="45.422130219552876" lon="10.77968130463909"><ele>125.0</ele><time>2026-05-01T06:21:39Z</time></trkpt><trkpt lat="45.42198585201727" lon="10.780044737462996"><ele>125.0</ele><time>2026-05-01T06:21:40Z</time></trkpt><trkpt lat="45.421845992520524" lon="10.780408990454728"><ele>125.0</ele><time>2026-05-01T06:21:41Z</time></trkpt><trkpt lat="45.42170357839265" lon="10.780774351354975"><ele>124.5</ele><time>2026-05-01T06:21:42Z</time></trkpt><trkpt lat="45.42156333271155" lon="10.781139628697469"><ele>124.0</ele><time>2026-05-01T06:21:43Z</time></trkpt><trkpt lat="45.421414634706785" lon="10.781501846031206"><ele>123.0</ele><time>2026-05-01T06:21:44Z</time></trkpt><trkpt lat="45.421278468804104" lon="10.781865782098"><ele>122.0</ele><time>2026-05-01T06:21:45Z</time></trkpt><trkpt lat="45.421143649175605" lon="10.782242706386485"><ele>122.0</ele><time>2026-05-01T06:21:46Z</time></trkpt><trkpt lat="45.421007919435844" lon="10.782616127143072"><ele>122.0</ele><time>2026-05-01T06:21:47Z</time></trkpt><trkpt lat="45.42087638769195" lon="10.782989294172419"><ele>123.0</ele><time>2026-05-01T06:21:48Z</time></trkpt><trkpt lat="45.420744446481386" lon="10.783372008097572"><ele>124.0</ele><time>2026-05-01T06:21:49Z</time></trkpt><trkpt lat="45.42061492423315" lon="10.783755147307424"><ele>124.0</ele><time>2026-05-01T06:21:50Z</time></trkpt><trkpt lat="45.42048693091064" lon="10.784141020097959"><ele>124.0</ele><time>2026-05-01T06:21:51Z</time></trkpt><trkpt lat="45.42035889002733" lon="10.784527522776115"><ele>124.0</ele><time>2026-05-01T06:21:52Z</time></trkpt><trkpt lat="45.420231747000464" lon="10.784916306345991"><ele>124.0</ele><time>2026-05-01T06:21:53Z</time></trkpt><trkpt lat="45.42010720973731" lon="10.785301647872814"><ele>124.5</ele><time>2026-05-01T06:21:54Z</time></trkpt><trkpt lat="45.41998456987047" lon="10.785689686291338"><ele>125.0</ele><time>2026-05-01T06:21:55Z</time></trkpt><trkpt lat="45.41985928458171" lon="10.786080975335185"><ele>126.0</ele><time>2026-05-01T06:21:56Z</time></trkpt><trkpt lat="45.41974654590843" lon="10.786474541630893"><ele>127.0</ele><time>2026-05-01T06:21:57Z</time></trkpt><trkpt lat="45.41963721652902" lon="10.78687147831916"><ele>125.0</ele><time>2026-05-01T06:21:58Z</time></trkpt><trkpt lat="45.419524915507274" lon="10.787270023176601"><ele>123.0</ele><time>2026-05-01T06:21:59Z</time></trkpt><trkpt lat="45.419422128163404" lon="10.787677558706275"><ele>122.0</ele><time>2026-05-01T06:22:00Z</time></trkpt><trkpt lat="45.41931470001469" lon="10.78807381605019"><ele>121.0</ele><time>2026-05-01T06:22:01Z</time></trkpt><trkpt lat="45.419208933777526" lon="10.788470287822454"><ele>122.0</ele><time>2026-05-01T06:22:02Z</time></trkpt><trkpt lat="45.41910816379629" lon="10.788865526012547"><ele>123.0</ele><time>2026-05-01T06:22:03Z</time></trkpt><trkpt lat="45.41900625382418" lon="10.789265758760914"><ele>125.0</ele><time>2026-05-01T06:22:04Z</time></trkpt><trkpt lat="45.41890556593085" lon="10.789665348631528"><ele>127.0</ele><time>2026-05-01T06:22:05Z</time></trkpt><trkpt lat="45.41881128002691" lon="10.790068818885521"><ele>127.0</ele><time>2026-05-01T06:22:06Z</time></trkpt><trkpt lat="45.418723600682" lon="10.790470547634712"><ele>127.0</ele><time>2026-05-01T06:22:07Z</time></trkpt><trkpt lat="45.41863962810296" lon="10.79087759495139"><ele>126.5</ele><time>2026-05-01T06:22:08Z</time></trkpt><trkpt lat="45.418555317839946" lon="10.791285804111684"><ele>126.0</ele><time>2026-05-01T06:22:09Z</time></trkpt><trkpt lat="45.41847374988337" lon="10.79169471802269"><ele>125.5</ele><time>2026-05-01T06:22:10Z</time></trkpt><trkpt lat="45.418392458125425" lon="10.792103595335291"><ele>125.0</ele><time>2026-05-01T06:22:11Z</time></trkpt><trkpt lat="45.41831607382452" lon="10.792509285509555"><ele>125.0</ele><time>2026-05-01T06:22:12Z</time></trkpt><trkpt lat="45.41824422098773" lon="10.79291258670898"><ele>125.0</ele><time>2026-05-01T06:22:12.999Z</time></trkpt><trkpt lat="45.41817610890836" lon="10.793316165368768"><ele>123.0</ele><time>2026-05-01T06:22:13.999Z</time></trkpt><trkpt lat="45.418113837658815" lon="10.793721037668053"><ele>121.0</ele><time>2026-05-01T06:22:14.999Z</time></trkpt><trkpt lat="45.41804724643173" lon="10.794124524622113"><ele>119.5</ele><time>2026-05-01T06:22:15.999Z</time></trkpt><trkpt lat="45.417981055865056" lon="10.79452996086168"><ele>118.0</ele><time>2026-05-01T06:22:16.999Z</time></trkpt><trkpt lat="45.417916815923284" lon="10.794934726481918"><ele>118.0</ele><time>2026-05-01T06:22:17.999Z</time></trkpt><trkpt lat="45.417853865896205" lon="10.795338114293983"><ele>118.0</ele><time>2026-05-01T06:22:18.999Z</time></trkpt><trkpt lat="45.417787944680434" lon="10.795740243165005"><ele>118.0</ele><time>2026-05-01T06:22:19.999Z</time></trkpt><trkpt lat="45.41772324050779" lon="10.796141203942497"><ele>118.0</ele><time>2026-05-01T06:22:20.999Z</time></trkpt><trkpt lat="45.417659069286444" lon="10.796548862351594"><ele>118.0</ele><time>2026-05-01T06:22:21.999Z</time></trkpt><trkpt lat="45.41760279305477" lon="10.796958252922098"><ele>118.0</ele><time>2026-05-01T06:22:22.999Z</time></trkpt><trkpt lat="45.417552277861255" lon="10.797372029560355"><ele>118.5</ele><time>2026-05-01T06:22:23.999Z</time></trkpt><trkpt lat="45.41750789179608" lon="10.797790193760816"><ele>119.0</ele><time>2026-05-01T06:22:24.999Z</time></trkpt><trkpt lat="45.417462050739715" lon="10.798212834732958"><ele>120.0</ele><time>2026-05-01T06:22:25.999Z</time></trkpt><trkpt lat="45.41741071789121" lon="10.798649593074554"><ele>121.0</ele><time>2026-05-01T06:22:26.999Z</time></trkpt><trkpt lat="45.41736691904969" lon="10.79907542744152"><ele>119.5</ele><time>2026-05-01T06:22:27.999Z</time></trkpt><trkpt lat="45.41732220114805" lon="10.799511065818345"><ele>118.0</ele><time>2026-05-01T06:22:28.999Z</time></trkpt><trkpt lat="45.41727424453646" lon="10.799943667866868"><ele>116.5</ele><time>2026-05-01T06:22:29.999Z</time></trkpt><trkpt lat="45.417226825146194" lon="10.800384559400882"><ele>115.0</ele><time>2026-05-01T06:22:30.999Z</time></trkpt><trkpt lat="45.41717499383895" lon="10.800823715494424"><ele>114.5</ele><time>2026-05-01T06:22:31.999Z</time></trkpt><trkpt lat="45.417127334234266" lon="10.801264863795572"><ele>114.0</ele><time>2026-05-01T06:22:32.999Z</time></trkpt><trkpt lat="45.41708107062301" lon="10.8017091515921"><ele>114.5</ele><time>2026-05-01T06:22:33.999Z</time></trkpt><trkpt lat="45.41703666806136" lon="10.802153222489462"><ele>115.0</ele><time>2026-05-01T06:22:34.999Z</time></trkpt><trkpt lat="45.41699090491966" lon="10.80259895808028"><ele>114.5</ele><time>2026-05-01T06:22:35.999Z</time></trkpt><trkpt lat="45.416944644936" lon="10.80304478568848"><ele>114.0</ele><time>2026-05-01T06:22:36.999Z</time></trkpt><trkpt lat="45.41690003893199" lon="10.803486885682755"><ele>113.5</ele><time>2026-05-01T06:22:37.999Z</time></trkpt><trkpt lat="45.41685427735181" lon="10.80393094578536"><ele>113.0</ele><time>2026-05-01T06:22:38.999Z</time></trkpt><trkpt lat="45.416810578907196" lon="10.804371972959249"><ele>113.0</ele><time>2026-05-01T06:22:39.999Z</time></trkpt><trkpt lat="45.416765952446305" lon="10.80480928147405"><ele>113.0</ele><time>2026-05-01T06:22:40.999Z</time></trkpt><trkpt lat="45.41671825012883" lon="10.805247924377111"><ele>114.0</ele><time>2026-05-01T06:22:41.999Z</time></trkpt><trkpt lat="45.41667173351064" lon="10.80569021141567"><ele>115.0</ele><time>2026-05-01T06:22:42.999Z</time></trkpt><trkpt lat="45.41662471881494" lon="10.806135105105355"><ele>115.0</ele><time>2026-05-01T06:22:43.999Z</time></trkpt><trkpt lat="45.41657755277482" lon="10.806582415641127"><ele>115.0</ele><time>2026-05-01T06:22:44.999Z</time></trkpt><trkpt lat="45.41652631673451" lon="10.807028735295269"><ele>115.0</ele><time>2026-05-01T06:22:45.999Z</time></trkpt><trkpt lat="45.41647573799086" lon="10.807469620542838"><ele>115.0</ele><time>2026-05-01T06:22:46.999Z</time></trkpt><trkpt lat="45.4164320432177" lon="10.807921614436474"><ele>115.0</ele><time>2026-05-01T06:22:47.999Z</time></trkpt><trkpt lat="45.4163857761238" lon="10.8083678990674"><ele>115.0</ele><time>2026-05-01T06:22:48.999Z</time></trkpt><trkpt lat="45.416336321817354" lon="10.808813058271914"><ele>120.0</ele><time>2026-05-01T06:22:49.999Z</time></trkpt><trkpt lat="45.41629313502813" lon="10.809257609080733"><ele>125.0</ele><time>2026-05-01T06:22:50.999Z</time></trkpt><trkpt lat="45.416254864140754" lon="10.809705015215377"><ele>125.0</ele><time>2026-05-01T06:22:51.999Z</time></trkpt><trkpt lat="45.41622591179084" lon="10.810155122194242"><ele>125.0</ele><time>2026-05-01T06:22:52.999Z</time></trkpt><trkpt lat="45.41620517034224" lon="10.810604374301299"><ele>123.5</ele><time>2026-05-01T06:22:53.999Z</time></trkpt><trkpt lat="45.41619124897434" lon="10.811054863758748"><ele>122.0</ele><time>2026-05-01T06:22:54.999Z</time></trkpt><trkpt lat="45.41618431628054" lon="10.811508037342042"><ele>121.0</ele><time>2026-05-01T06:22:55.999Z</time></trkpt><trkpt lat="45.41617933912986" lon="10.811959338402042"><ele>120.0</ele><time>2026-05-01T06:22:56.999Z</time></trkpt><trkpt lat="45.41617995397269" lon="10.81241144843098"><ele>120.0</ele><time>2026-05-01T06:22:57.999Z</time></trkpt><trkpt lat="45.41618639144401" lon="10.81286655715161"><ele>120.0</ele><time>2026-05-01T06:22:58.999Z</time></trkpt><trkpt lat="45.41619374684414" lon="10.81332223907797"><ele>119.5</ele><time>2026-05-01T06:22:59.999Z</time></trkpt><trkpt lat="45.41620943520283" lon="10.813779092690698"><ele>119.0</ele><time>2026-05-01T06:23:00.999Z</time></trkpt><trkpt lat="45.41623285075649" lon="10.814233291809035"><ele>119.5</ele><time>2026-05-01T06:23:01.999Z</time></trkpt><trkpt lat="45.41626326823472" lon="10.81469118202402"><ele>120.0</ele><time>2026-05-01T06:23:02.999Z</time></trkpt><trkpt lat="45.41630123789334" lon="10.815151567764564"><ele>119.5</ele><time>2026-05-01T06:23:03.999Z</time></trkpt><trkpt lat="45.416338743865445" lon="10.815610544004198"><ele>119.0</ele><time>2026-05-01T06:23:04.999Z</time></trkpt><trkpt lat="45.416374067558394" lon="10.81606793019646"><ele>120.0</ele><time>2026-05-01T06:23:05.999Z</time></trkpt><trkpt lat="45.41640827683087" lon="10.816523349802207"><ele>121.0</ele><time>2026-05-01T06:23:06.999Z</time></trkpt><trkpt lat="45.41644482417416" lon="10.816979086797977"><ele>119.0</ele><time>2026-05-01T06:23:07.999Z</time></trkpt><trkpt lat="45.41647972363065" lon="10.817430870654439"><ele>117.0</ele><time>2026-05-01T06:23:08.999Z</time></trkpt><trkpt lat="45.41651311987855" lon="10.817882345776406"><ele>115.5</ele><time>2026-05-01T06:23:09.999Z</time></trkpt><trkpt lat="45.416544488890004" lon="10.818329621722643"><ele>114.0</ele><time>2026-05-01T06:23:10.999Z</time></trkpt><trkpt lat="45.41657774851115" lon="10.818774527143677"><ele>113.0</ele><time>2026-05-01T06:23:11.999Z</time></trkpt><trkpt lat="45.4166094976022" lon="10.819216107811336"><ele>112.0</ele><time>2026-05-01T06:23:12.999Z</time></trkpt><trkpt lat="45.41664048720266" lon="10.819657511298457"><ele>111.5</ele><time>2026-05-01T06:23:14Z</time></trkpt><trkpt lat="45.416670609848715" lon="10.820096490606112"><ele>111.0</ele><time>2026-05-01T06:23:15Z</time></trkpt><trkpt lat="45.41670291082499" lon="10.820534450254273"><ele>110.0</ele><time>2026-05-01T06:23:16Z</time></trkpt><trkpt lat="45.41673515344508" lon="10.820970795060342"><ele>109.0</ele><time>2026-05-01T06:23:17Z</time></trkpt><trkpt lat="45.41676871869908" lon="10.821404545635943"><ele>107.5</ele><time>2026-05-01T06:23:18Z</time></trkpt><trkpt lat="45.41680225251119" lon="10.82184082349551"><ele>106.0</ele><time>2026-05-01T06:23:19Z</time></trkpt><trkpt lat="45.41683326145015" lon="10.822276736488263"><ele>106.0</ele><time>2026-05-01T06:23:20Z</time></trkpt><trkpt lat="45.4168638250907" lon="10.822712281190581"><ele>106.0</ele><time>2026-05-01T06:23:21Z</time></trkpt><trkpt lat="45.41689507139421" lon="10.823147558483202"><ele>107.0</ele><time>2026-05-01T06:23:22Z</time></trkpt><trkpt lat="45.416926265515826" lon="10.823581184185791"><ele>108.0</ele><time>2026-05-01T06:23:23Z</time></trkpt><trkpt lat="45.41695929664571" lon="10.824012642136973"><ele>108.5</ele><time>2026-05-01T06:23:24Z</time></trkpt><trkpt lat="45.41699242156412" lon="10.824443250881314"><ele>109.0</ele><time>2026-05-01T06:23:25Z</time></trkpt><trkpt lat="45.41702409045314" lon="10.824873627901534"><ele>107.5</ele><time>2026-05-01T06:23:26Z</time></trkpt><trkpt lat="45.41705345490138" lon="10.8253027307951"><ele>106.0</ele><time>2026-05-01T06:23:27Z</time></trkpt><trkpt lat="45.41708286574368" lon="10.8257357299673"><ele>106.5</ele><time>2026-05-01T06:23:28Z</time></trkpt><trkpt lat="45.41711532813187" lon="10.826165924627752"><ele>107.0</ele><time>2026-05-01T06:23:29Z</time></trkpt><trkpt lat="45.417149937341094" lon="10.826600070598111"><ele>107.0</ele><time>2026-05-01T06:23:30Z</time></trkpt><trkpt lat="45.41718315607242" lon="10.827026866240113"><ele>107.0</ele><time>2026-05-01T06:23:31Z</time></trkpt><trkpt lat="45.41721461935948" lon="10.827458196467674"><ele>106.0</ele><time>2026-05-01T06:23:32Z</time></trkpt><trkpt lat="45.41724346715652" lon="10.827885446484899"><ele>105.0</ele><time>2026-05-01T06:23:33Z</time></trkpt><trkpt lat="45.41727239311103" lon="10.828315481780344"><ele>104.5</ele><time>2026-05-01T06:23:34Z</time></trkpt><trkpt lat="45.41730360095407" lon="10.828744366044031"><ele>104.0</ele><time>2026-05-01T06:23:35Z</time></trkpt><trkpt lat="45.417337134056886" lon="10.829171224203758"><ele>104.0</ele><time>2026-05-01T06:23:36Z</time></trkpt><trkpt lat="45.417372336327006" lon="10.82960281501682"><ele>104.0</ele><time>2026-05-01T06:23:37Z</time></trkpt><trkpt lat="45.417403449351745" lon="10.83003222283443"><ele>104.5</ele><time>2026-05-01T06:23:38Z</time></trkpt><trkpt lat="45.41743494230979" lon="10.830462463938709"><ele>105.0</ele><time>2026-05-01T06:23:39Z</time></trkpt><trkpt lat="45.41746507553736" lon="10.830890584450175"><ele>105.0</ele><time>2026-05-01T06:23:40Z</time></trkpt><trkpt lat="45.417496273026195" lon="10.831316599130785"><ele>105.0</ele><time>2026-05-01T06:23:41Z</time></trkpt><trkpt lat="45.41752685463441" lon="10.831743408588855"><ele>106.5</ele><time>2026-05-01T06:23:42Z</time></trkpt><trkpt lat="45.417557507644986" lon="10.832165944734925"><ele>108.0</ele><time>2026-05-01T06:23:43Z</time></trkpt><trkpt lat="45.417586550073814" lon="10.832589177313636"><ele>109.5</ele><time>2026-05-01T06:23:44Z</time></trkpt><trkpt lat="45.41761354660892" lon="10.833010128207343"><ele>111.0</ele><time>2026-05-01T06:23:45Z</time></trkpt><trkpt lat="45.41764244745775" lon="10.833428878539301"><ele>111.0</ele><time>2026-05-01T06:23:46Z</time></trkpt><trkpt lat="45.41767631266595" lon="10.833845133371472"><ele>111.0</ele><time>2026-05-01T06:23:47Z</time></trkpt><trkpt lat="45.417710595609556" lon="10.834260119913127"><ele>112.0</ele><time>2026-05-01T06:23:48Z</time></trkpt><trkpt lat="45.41774458522572" lon="10.834672813012665"><ele>113.0</ele><time>2026-05-01T06:23:49Z</time></trkpt><trkpt lat="45.417776407197145" lon="10.835091256285377"><ele>113.0</ele><time>2026-05-01T06:23:50Z</time></trkpt><trkpt lat="45.41780220469144" lon="10.835511120812598"><ele>113.0</ele><time>2026-05-01T06:23:51Z</time></trkpt><trkpt lat="45.417824295505596" lon="10.83592549982827"><ele>114.0</ele><time>2026-05-01T06:23:52Z</time></trkpt><trkpt lat="45.417841148923" lon="10.83634205345838"><ele>115.0</ele><time>2026-05-01T06:23:53Z</time></trkpt><trkpt lat="45.41785363792198" lon="10.83676176828249"><ele>115.0</ele><time>2026-05-01T06:23:54Z</time></trkpt><trkpt lat="45.41786284245101" lon="10.837183570780354"><ele>115.0</ele><time>2026-05-01T06:23:55Z</time></trkpt><trkpt lat="45.41786892284817" lon="10.837603370914271"><ele>114.5</ele><time>2026-05-01T06:23:56Z</time></trkpt><trkpt lat="45.41787401939688" lon="10.838027016884473"><ele>114.0</ele><time>2026-05-01T06:23:57Z</time></trkpt><trkpt lat="45.41787510990801" lon="10.83844973989729"><ele>115.0</ele><time>2026-05-01T06:23:58Z</time></trkpt><trkpt lat="45.417872652179" lon="10.838871123856762"><ele>116.0</ele><time>2026-05-01T06:23:59Z</time></trkpt><trkpt lat="45.41786772467069" lon="10.839294025392528"><ele>115.5</ele><time>2026-05-01T06:24:00Z</time></trkpt><trkpt lat="45.41786069522932" lon="10.839715006911389"><ele>115.0</ele><time>2026-05-01T06:24:01Z</time></trkpt><trkpt lat="45.417846598794235" lon="10.840123497268454"><ele>115.5</ele><time>2026-05-01T06:24:02Z</time></trkpt><trkpt lat="45.417833984769736" lon="10.840555831503808"><ele>116.0</ele><time>2026-05-01T06:24:03Z</time></trkpt><trkpt lat="45.41781615415825" lon="10.840979351828434"><ele>116.0</ele><time>2026-05-01T06:24:04Z</time></trkpt><trkpt lat="45.417791869583326" lon="10.841397914230253"><ele>116.0</ele><time>2026-05-01T06:24:05Z</time></trkpt><trkpt lat="45.41776514724042" lon="10.841814925109935"><ele>115.5</ele><time>2026-05-01T06:24:06Z</time></trkpt><trkpt lat="45.41773501863371" lon="10.842229162955304"><ele>115.0</ele><time>2026-05-01T06:24:07Z</time></trkpt><trkpt lat="45.41770571171478" lon="10.842646745111445"><ele>113.0</ele><time>2026-05-01T06:24:08Z</time></trkpt><trkpt lat="45.4176737073211" lon="10.843066375569748"><ele>111.0</ele><time>2026-05-01T06:24:09Z</time></trkpt><trkpt lat="45.41763988491337" lon="10.843492046990518"><ele>109.5</ele><time>2026-05-01T06:24:10Z</time></trkpt><trkpt lat="45.41759992165839" lon="10.84391654217396"><ele>108.0</ele><time>2026-05-01T06:24:11Z</time></trkpt><trkpt lat="45.417554145481866" lon="10.844342921787"><ele>108.0</ele><time>2026-05-01T06:24:12Z</time></trkpt><trkpt lat="45.4175042132748" lon="10.84476680182231"><ele>108.0</ele><time>2026-05-01T06:24:13Z</time></trkpt><trkpt lat="45.4174480248974" lon="10.845187976185743"><ele>106.0</ele><time>2026-05-01T06:24:14Z</time></trkpt><trkpt lat="45.41739437004826" lon="10.845615171473115"><ele>104.0</ele><time>2026-05-01T06:24:15Z</time></trkpt><trkpt lat="45.41733453457122" lon="10.84604124688223"><ele>103.0</ele><time>2026-05-01T06:24:16Z</time></trkpt><trkpt lat="45.41726915977605" lon="10.846466824542253"><ele>102.0</ele><time>2026-05-01T06:24:17Z</time></trkpt><trkpt lat="45.417203013113" lon="10.84688845534627"><ele>100.0</ele><time>2026-05-01T06:24:18Z</time></trkpt><trkpt lat="45.41713510808599" lon="10.847306678981155"><ele>98.0</ele><time>2026-05-01T06:24:19Z</time></trkpt><trkpt lat="45.41706542090412" lon="10.847722723851444"><ele>97.5</ele><time>2026-05-01T06:24:20Z</time></trkpt><trkpt lat="45.416989362921" lon="10.848135912895678"><ele>97.0</ele><time>2026-05-01T06:24:21Z</time></trkpt><trkpt lat="45.41691282525725" lon="10.848549981142613"><ele>96.5</ele><time>2026-05-01T06:24:22Z</time></trkpt><trkpt lat="45.41683954419557" lon="10.848959586437115"><ele>96.0</ele><time>2026-05-01T06:24:23Z</time></trkpt><trkpt lat="45.41676673519075" lon="10.849368487066492"><ele>95.5</ele><time>2026-05-01T06:24:24Z</time></trkpt><trkpt lat="45.41669605543361" lon="10.849776135157736"><ele>95.0</ele><time>2026-05-01T06:24:25Z</time></trkpt><trkpt lat="45.41662263885642" lon="10.850183656449058"><ele>94.5</ele><time>2026-05-01T06:24:26Z</time></trkpt><trkpt lat="45.41655003950527" lon="10.850590929484312"><ele>94.0</ele><time>2026-05-01T06:24:27Z</time></trkpt><trkpt lat="45.416476376077576" lon="10.850997397186642"><ele>93.0</ele><time>2026-05-01T06:24:28Z</time></trkpt><trkpt lat="45.41640370606205" lon="10.851416670397251"><ele>92.0</ele><time>2026-05-01T06:24:29Z</time></trkpt><trkpt lat="45.41633068144546" lon="10.851814820302335"><ele>91.5</ele><time>2026-05-01T06:24:30Z</time></trkpt><trkpt lat="45.41625811857417" lon="10.852228830090539"><ele>91.0</ele><time>2026-05-01T06:24:31Z</time></trkpt><trkpt lat="45.41618691046239" lon="10.852641586340015"><ele>90.5</ele><time>2026-05-01T06:24:32Z</time></trkpt><trkpt lat="45.416117150472296" lon="10.853048286867066"><ele>90.0</ele><time>2026-05-01T06:24:33Z</time></trkpt><trkpt lat="45.41605111366551" lon="10.853450601274393"><ele>89.5</ele><time>2026-05-01T06:24:34Z</time></trkpt><trkpt lat="45.41597862221675" lon="10.85387130706568"><ele>89.0</ele><time>2026-05-01T06:24:35Z</time></trkpt><trkpt lat="45.41590606215184" lon="10.854264546780923"><ele>89.0</ele><time>2026-05-01T06:24:36Z</time></trkpt><trkpt lat="45.415833972638424" lon="10.854671486960692"><ele>89.0</ele><time>2026-05-01T06:24:37Z</time></trkpt><trkpt lat="45.4157622776595" lon="10.855080047354539"><ele>89.5</ele><time>2026-05-01T06:24:38Z</time></trkpt><trkpt lat="45.41569104354638" lon="10.855481796384755"><ele>90.0</ele><time>2026-05-01T06:24:39Z</time></trkpt><trkpt lat="45.41562403230735" lon="10.85588224025353"><ele>89.0</ele><time>2026-05-01T06:24:40Z</time></trkpt><trkpt lat="45.415555462196195" lon="10.856282347335615"><ele>88.0</ele><time>2026-05-01T06:24:41Z</time></trkpt><trkpt lat="45.41548613184361" lon="10.856681441509858"><ele>88.0</ele><time>2026-05-01T06:24:42Z</time></trkpt><trkpt lat="45.41541683633259" lon="10.857081168262214"><ele>88.0</ele><time>2026-05-01T06:24:43Z</time></trkpt><trkpt lat="45.41534986215244" lon="10.857481714215327"><ele>87.5</ele><time>2026-05-01T06:24:44Z</time></trkpt><trkpt lat="45.415290702824194" lon="10.85788531392109"><ele>87.0</ele><time>2026-05-01T06:24:45Z</time></trkpt><trkpt lat="45.41523451634211" lon="10.858298029949275"><ele>86.5</ele><time>2026-05-01T06:24:46Z</time></trkpt><trkpt lat="45.41517897307845" lon="10.858707940141574"><ele>86.0</ele><time>2026-05-01T06:24:47Z</time></trkpt><trkpt lat="45.41512546254566" lon="10.859123653338004"><ele>86.0</ele><time>2026-05-01T06:24:48Z</time></trkpt><trkpt lat="45.41507512936467" lon="10.859542922584165"><ele>86.0</ele><time>2026-05-01T06:24:49Z</time></trkpt><trkpt lat="45.41503079831271" lon="10.859965032782346"><ele>85.0</ele><time>2026-05-01T06:24:50Z</time></trkpt><trkpt lat="45.414990262690495" lon="10.860392578123228"><ele>84.0</ele><time>2026-05-01T06:24:51Z</time></trkpt><trkpt lat="45.41494802498983" lon="10.860823247166554"><ele>83.5</ele><time>2026-05-01T06:24:52Z</time></trkpt><trkpt lat="45.414910557984825" lon="10.861253985910466"><ele>83.0</ele><time>2026-05-01T06:24:53Z</time></trkpt><trkpt lat="45.41488124916198" lon="10.861682087803374"><ele>83.0</ele><time>2026-05-01T06:24:54Z</time></trkpt><trkpt lat="45.41485478199713" lon="10.862107383888395"><ele>83.0</ele><time>2026-05-01T06:24:55Z</time></trkpt><trkpt lat="45.41482879066767" lon="10.862530228720944"><ele>83.0</ele><time>2026-05-01T06:24:56Z</time></trkpt><trkpt lat="45.41480163428952" lon="10.862944770212925"><ele>83.0</ele><time>2026-05-01T06:24:57Z</time></trkpt><trkpt lat="45.41477895401301" lon="10.863353254975971"><ele>82.5</ele><time>2026-05-01T06:24:58Z</time></trkpt><trkpt lat="45.4147551961696" lon="10.863756170014105"><ele>82.0</ele><time>2026-05-01T06:24:59Z</time></trkpt><trkpt lat="45.41473008352962" lon="10.864161301818138"><ele>82.0</ele><time>2026-05-01T06:25:00Z</time></trkpt><trkpt lat="45.41470352280244" lon="10.864562818619778"><ele>82.0</ele><time>2026-05-01T06:25:01Z</time></trkpt><trkpt lat="45.41468099190765" lon="10.864960986388729"><ele>82.5</ele><time>2026-05-01T06:25:02Z</time></trkpt><trkpt lat="45.41465915868499" lon="10.865357767936658"><ele>83.0</ele><time>2026-05-01T06:25:03Z</time></trkpt><trkpt lat="45.414636439200066" lon="10.86575067753228"><ele>82.5</ele><time>2026-05-01T06:25:04Z</time></trkpt><trkpt lat="45.414617402459264" lon="10.866144471267543"><ele>82.0</ele><time>2026-05-01T06:25:05Z</time></trkpt><trkpt lat="45.41459608989186" lon="10.86654066328785"><ele>81.0</ele><time>2026-05-01T06:25:06Z</time></trkpt><trkpt lat="45.41457303406713" lon="10.866935215213035"><ele>80.0</ele><time>2026-05-01T06:25:07Z</time></trkpt><trkpt lat="45.41454913256275" lon="10.867321418594926"><ele>80.5</ele><time>2026-05-01T06:25:08Z</time></trkpt><trkpt lat="45.414523333987354" lon="10.8677003275508"><ele>81.0</ele><time>2026-05-01T06:25:09Z</time></trkpt><trkpt lat="45.41449636150961" lon="10.868071744872923"><ele>81.0</ele><time>2026-05-01T06:25:10Z</time></trkpt><trkpt lat="45.414472508508354" lon="10.868439066424223"><ele>81.0</ele><time>2026-05-01T06:25:11Z</time></trkpt><trkpt lat="45.41445203558697" lon="10.86880852505975"><ele>81.5</ele><time>2026-05-01T06:25:12Z</time></trkpt><trkpt lat="45.41443225264808" lon="10.869178543741578"><ele>82.0</ele><time>2026-05-01T06:25:13Z</time></trkpt><trkpt lat="45.414413692119446" lon="10.86954923475273"><ele>82.5</ele><time>2026-05-01T06:25:14Z</time></trkpt><trkpt lat="45.4143964208391" lon="10.869920837694863"><ele>83.0</ele><time>2026-05-01T06:25:15Z</time></trkpt><trkpt lat="45.414376117975394" lon="10.870277655226863"><ele>83.0</ele><time>2026-05-01T06:25:16Z</time></trkpt><trkpt lat="45.41435523651139" lon="10.870617684639598"><ele>83.0</ele><time>2026-05-01T06:25:17Z</time></trkpt><trkpt lat="45.41433523856708" lon="10.870952698604832"><ele>82.5</ele><time>2026-05-01T06:25:18Z</time></trkpt><trkpt lat="45.41431564278349" lon="10.871304835469234"><ele>82.0</ele><time>2026-05-01T06:25:19Z</time></trkpt><trkpt lat="45.41429882258318" lon="10.871668279881087"><ele>81.0</ele><time>2026-05-01T06:25:20Z</time></trkpt><trkpt lat="45.4142760774613" lon="10.872031925329198"><ele>80.0</ele><time>2026-05-01T06:25:21Z</time></trkpt><trkpt lat="45.414252275344715" lon="10.87239949281582"><ele>80.5</ele><time>2026-05-01T06:25:22Z</time></trkpt><trkpt lat="45.41423004571034" lon="10.87277338513494"><ele>81.0</ele><time>2026-05-01T06:25:23Z</time></trkpt><trkpt lat="45.414211593141665" lon="10.873142541256803"><ele>80.5</ele><time>2026-05-01T06:25:24Z</time></trkpt><trkpt lat="45.4141960710412" lon="10.873512319079213"><ele>80.0</ele><time>2026-05-01T06:25:25Z</time></trkpt><trkpt lat="45.41417706739074" lon="10.873875736950993"><ele>80.0</ele><time>2026-05-01T06:25:26Z</time></trkpt><trkpt lat="45.414157457673596" lon="10.874232894712026"><ele>80.0</ele><time>2026-05-01T06:25:27Z</time></trkpt><trkpt lat="45.414137916857555" lon="10.874588311605647"><ele>81.0</ele><time>2026-05-01T06:25:28Z</time></trkpt><trkpt lat="45.41411642337664" lon="10.874950072594745"><ele>82.0</ele><time>2026-05-01T06:25:29Z</time></trkpt><trkpt lat="45.41409570599555" lon="10.875315168322434"><ele>81.5</ele><time>2026-05-01T06:25:30Z</time></trkpt><trkpt lat="45.414073434387184" lon="10.875684418697674"><ele>81.0</ele><time>2026-05-01T06:25:31Z</time></trkpt><trkpt lat="45.414056353835385" lon="10.87605779170469"><ele>81.0</ele><time>2026-05-01T06:25:32Z</time></trkpt><trkpt lat="45.414024486397665" lon="10.876418221793896"><ele>81.0</ele><time>2026-05-01T06:25:33Z</time></trkpt><trkpt lat="45.41400544173189" lon="10.876797550478848"><ele>81.0</ele><time>2026-05-01T06:25:34Z</time></trkpt><trkpt lat="45.41398054072698" lon="10.877172092799377"><ele>81.0</ele><time>2026-05-01T06:25:35Z</time></trkpt><trkpt lat="45.41395677504" lon="10.877549964634783"><ele>81.0</ele><time>2026-05-01T06:25:36Z</time></trkpt><trkpt lat="45.41393610979034" lon="10.877934543367804"><ele>81.0</ele><time>2026-05-01T06:25:37Z</time></trkpt><trkpt lat="45.41391651796232" lon="10.878321410697254"><ele>81.5</ele><time>2026-05-01T06:25:38Z</time></trkpt><trkpt lat="45.413894995203485" lon="10.878708642415829"><ele>82.0</ele><time>2026-05-01T06:25:39Z</time></trkpt><trkpt lat="45.413874180661516" lon="10.879093302581945"><ele>81.0</ele><time>2026-05-01T06:25:40Z</time></trkpt><trkpt lat="45.41385128591499" lon="10.879478868593106"><ele>80.0</ele><time>2026-05-01T06:25:41Z</time></trkpt><trkpt lat="45.41382608855863" lon="10.879857099172414"><ele>80.0</ele><time>2026-05-01T06:25:42Z</time></trkpt><trkpt lat="45.4138033062687" lon="10.88024093984441"><ele>80.0</ele><time>2026-05-01T06:25:43Z</time></trkpt><trkpt lat="45.41378216195878" lon="10.880628907806932"><ele>80.0</ele><time>2026-05-01T06:25:44Z</time></trkpt><trkpt lat="45.41376114465398" lon="10.88101574993596"><ele>80.0</ele><time>2026-05-01T06:25:45Z</time></trkpt><trkpt lat="45.41373806449877" lon="10.881404637866694"><ele>80.5</ele><time>2026-05-01T06:25:46Z</time></trkpt><trkpt lat="45.41371615443722" lon="10.881802681151965"><ele>81.0</ele><time>2026-05-01T06:25:47Z</time></trkpt><trkpt lat="45.413691240934355" lon="10.882199588887875"><ele>81.0</ele><time>2026-05-01T06:25:48Z</time></trkpt><trkpt lat="45.41366780315635" lon="10.882593540474378"><ele>81.0</ele><time>2026-05-01T06:25:49Z</time></trkpt><trkpt lat="45.41364812859326" lon="10.882984612782554"><ele>81.0</ele><time>2026-05-01T06:25:50Z</time></trkpt><trkpt lat="45.413625420954325" lon="10.883380129796699"><ele>81.0</ele><time>2026-05-01T06:25:51Z</time></trkpt><trkpt lat="45.41360202513119" lon="10.88377410813823"><ele>81.0</ele><time>2026-05-01T06:25:52Z</time></trkpt><trkpt lat="45.41357976582827" lon="10.884170199851447"><ele>81.0</ele><time>2026-05-01T06:25:53Z</time></trkpt><trkpt lat="45.4135618696132" lon="10.884560261296297"><ele>80.5</ele><time>2026-05-01T06:25:54Z</time></trkpt><trkpt lat="45.4135406081444" lon="10.884959219874574"><ele>80.0</ele><time>2026-05-01T06:25:55Z</time></trkpt><trkpt lat="45.41351733185828" lon="10.885333162792016"><ele>80.0</ele><time>2026-05-01T06:25:56Z</time></trkpt><trkpt lat="45.413496478695" lon="10.885693922037953"><ele>80.0</ele><time>2026-05-01T06:25:57Z</time></trkpt><trkpt lat="45.41347630437209" lon="10.886052465477501"><ele>80.0</ele><time>2026-05-01T06:25:58Z</time></trkpt><trkpt lat="45.41345443636246" lon="10.886413822887663"><ele>80.0</ele><time>2026-05-01T06:25:59Z</time></trkpt><trkpt lat="45.413435120573226" lon="10.886776537385769"><ele>80.0</ele><time>2026-05-01T06:26:00Z</time></trkpt><trkpt lat="45.413409721646644" lon="10.887143267192288"><ele>80.0</ele><time>2026-05-01T06:26:01Z</time></trkpt><trkpt lat="45.413386571020936" lon="10.887505976160705"><ele>80.0</ele><time>2026-05-01T06:26:02Z</time></trkpt><trkpt lat="45.41336920404579" lon="10.887858692476259"><ele>80.0</ele><time>2026-05-01T06:26:03Z</time></trkpt><trkpt lat="45.41335409182271" lon="10.888205807225033"><ele>79.5</ele><time>2026-05-01T06:26:04Z</time></trkpt><trkpt lat="45.413335633590805" lon="10.888550132459326"><ele>79.0</ele><time>2026-05-01T06:26:05Z</time></trkpt><trkpt lat="45.413313875830205" lon="10.888898962064728"><ele>79.0</ele><time>2026-05-01T06:26:06Z</time></trkpt><trkpt lat="45.41329532845615" lon="10.889252290656136"><ele>79.0</ele><time>2026-05-01T06:26:07Z</time></trkpt><trkpt lat="45.41327146096288" lon="10.88959425340628"><ele>79.0</ele><time>2026-05-01T06:26:08Z</time></trkpt><trkpt lat="45.41324796139096" lon="10.889936802742263"><ele>79.0</ele><time>2026-05-01T06:26:09Z</time></trkpt><trkpt lat="45.41322889407857" lon="10.890284592049904"><ele>78.5</ele><time>2026-05-01T06:26:10Z</time></trkpt><trkpt lat="45.41320174729557" lon="10.890635805367394"><ele>78.0</ele><time>2026-05-01T06:26:11Z</time></trkpt><trkpt lat="45.4131668962718" lon="10.890991133666402"><ele>78.0</ele><time>2026-05-01T06:26:12Z</time></trkpt><trkpt lat="45.41313373440382" lon="10.891349750925013"><ele>78.0</ele><time>2026-05-01T06:26:13Z</time></trkpt><trkpt lat="45.413101309265215" lon="10.891717456929134"><ele>78.0</ele><time>2026-05-01T06:26:14Z</time></trkpt><trkpt lat="45.413067362303586" lon="10.892102545995126"><ele>78.0</ele><time>2026-05-01T06:26:15Z</time></trkpt><trkpt lat="45.41303156304004" lon="10.892507948063928"><ele>77.5</ele><time>2026-05-01T06:26:16Z</time></trkpt><trkpt lat="45.41297835276526" lon="10.892932492737684"><ele>77.0</ele><time>2026-05-01T06:26:17Z</time></trkpt><trkpt lat="45.41292293165461" lon="10.893368965679372"><ele>77.0</ele><time>2026-05-01T06:26:18Z</time></trkpt><trkpt lat="45.41286047563332" lon="10.893815693673803"><ele>77.0</ele><time>2026-05-01T06:26:19Z</time></trkpt><trkpt lat="45.41278985072674" lon="10.894253783804485"><ele>77.0</ele><time>2026-05-01T06:26:20Z</time></trkpt><trkpt lat="45.41271937445094" lon="10.894692076917504"><ele>77.0</ele><time>2026-05-01T06:26:21Z</time></trkpt><trkpt lat="45.41264797373748" lon="10.895127483400696"><ele>77.0</ele><time>2026-05-01T06:26:22Z</time></trkpt><trkpt lat="45.412574189385495" lon="10.895564607960306"><ele>77.0</ele><time>2026-05-01T06:26:23Z</time></trkpt><trkpt lat="45.412495517915296" lon="10.896005440492425"><ele>77.0</ele><time>2026-05-01T06:26:24Z</time></trkpt><trkpt lat="45.412410636900695" lon="10.896449600566084"><ele>77.0</ele><time>2026-05-01T06:26:25Z</time></trkpt><trkpt lat="45.412325419777524" lon="10.896883695009679"><ele>77.0</ele><time>2026-05-01T06:26:26Z</time></trkpt><trkpt lat="45.412233294693294" lon="10.897316107669326"><ele>77.0</ele><time>2026-05-01T06:26:27Z</time></trkpt><trkpt lat="45.41213915623192" lon="10.897745764731445"><ele>76.5</ele><time>2026-05-01T06:26:28Z</time></trkpt><trkpt lat="45.412042047326274" lon="10.898174049014663"><ele>76.0</ele><time>2026-05-01T06:26:29Z</time></trkpt><trkpt lat="45.411939157626215" lon="10.898601480770603"><ele>76.0</ele><time>2026-05-01T06:26:30Z</time></trkpt><trkpt lat="45.411831802139126" lon="10.899024358885642"><ele>76.0</ele><time>2026-05-01T06:26:31Z</time></trkpt><trkpt lat="45.411725527246084" lon="10.899445957871077"><ele>75.5</ele><time>2026-05-01T06:26:32Z</time></trkpt><trkpt lat="45.41161213246396" lon="10.899859339638237"><ele>75.0</ele><time>2026-05-01T06:26:33Z</time></trkpt><trkpt lat="45.41150049861755" lon="10.900268876844974"><ele>75.0</ele><time>2026-05-01T06:26:34Z</time></trkpt><trkpt lat="45.4113846733157" lon="10.900677183932855"><ele>75.0</ele><time>2026-05-01T06:26:35Z</time></trkpt><trkpt lat="45.41127080206783" lon="10.901080017928436"><ele>75.0</ele><time>2026-05-01T06:26:36Z</time></trkpt><trkpt lat="45.41116009559703" lon="10.901484464109938"><ele>75.0</ele><time>2026-05-01T06:26:37Z</time></trkpt><trkpt lat="45.41104787508954" lon="10.90188745498417"><ele>75.0</ele><time>2026-05-01T06:26:38Z</time></trkpt><trkpt lat="45.41093770784874" lon="10.902294644015027"><ele>75.0</ele><time>2026-05-01T06:26:39Z</time></trkpt><trkpt lat="45.41082721390957" lon="10.902702586987758"><ele>75.0</ele><time>2026-05-01T06:26:40Z</time></trkpt><trkpt lat="45.410714873452065" lon="10.90310835285143"><ele>75.0</ele><time>2026-05-01T06:26:41Z</time></trkpt><trkpt lat="45.410600103796924" lon="10.903511297784805"><ele>74.0</ele><time>2026-05-01T06:26:42Z</time></trkpt><trkpt lat="45.41048385115678" lon="10.903915306293683"><ele>73.0</ele><time>2026-05-01T06:26:43Z</time></trkpt><trkpt lat="45.410371459638384" lon="10.904320093088467"><ele>73.0</ele><time>2026-05-01T06:26:44Z</time></trkpt><trkpt lat="45.41025431529912" lon="10.904716210044986"><ele>73.0</ele><time>2026-05-01T06:26:45Z</time></trkpt><trkpt lat="45.41014329728835" lon="10.905112895388976"><ele>73.5</ele><time>2026-05-01T06:26:46Z</time></trkpt><trkpt lat="45.4100338200321" lon="10.905509059652337"><ele>74.0</ele><time>2026-05-01T06:26:47Z</time></trkpt><trkpt lat="45.40992672096622" lon="10.905904105340632"><ele>73.0</ele><time>2026-05-01T06:26:48Z</time></trkpt><trkpt lat="45.40981990147778" lon="10.906303174119227"><ele>72.0</ele><time>2026-05-01T06:26:49Z</time></trkpt><trkpt lat="45.40971316327769" lon="10.90670086989612"><ele>72.0</ele><time>2026-05-01T06:26:50Z</time></trkpt><trkpt lat="45.40960579291159" lon="10.907093844768534"><ele>72.0</ele><time>2026-05-01T06:26:51Z</time></trkpt><trkpt lat="45.409496501145995" lon="10.907486876774062"><ele>73.0</ele><time>2026-05-01T06:26:52Z</time></trkpt><trkpt lat="45.409386911544466" lon="10.907885430595808"><ele>74.0</ele><time>2026-05-01T06:26:53Z</time></trkpt><trkpt lat="45.409278160910816" lon="10.908284199184871"><ele>73.0</ele><time>2026-05-01T06:26:54Z</time></trkpt><trkpt lat="45.409171200494725" lon="10.908683734900183"><ele>72.0</ele><time>2026-05-01T06:26:55Z</time></trkpt><trkpt lat="45.40906286743229" lon="10.90908535267654"><ele>73.0</ele><time>2026-05-01T06:26:56Z</time></trkpt><trkpt lat="45.408952072752484" lon="10.909487774035671"><ele>74.0</ele><time>2026-05-01T06:26:57Z</time></trkpt><trkpt lat="45.40884164611397" lon="10.909892126407552"><ele>72.5</ele><time>2026-05-01T06:26:58Z</time></trkpt><trkpt lat="45.40872948098812" lon="10.910297200762669"><ele>71.0</ele><time>2026-05-01T06:26:59Z</time></trkpt><trkpt lat="45.4086278383237" lon="10.910709286775742"><ele>70.5</ele><time>2026-05-01T06:27:00Z</time></trkpt><trkpt lat="45.40850331676051" lon="10.911113779711458"><ele>70.0</ele><time>2026-05-01T06:27:01Z</time></trkpt><trkpt lat="45.40839587955229" lon="10.91152489921052"><ele>69.5</ele><time>2026-05-01T06:27:02Z</time></trkpt><trkpt lat="45.40828579920173" lon="10.911933962453991"><ele>69.0</ele><time>2026-05-01T06:27:03Z</time></trkpt><trkpt lat="45.4081726748799" lon="10.912343708414744"><ele>69.5</ele><time>2026-05-01T06:27:04Z</time></trkpt><trkpt lat="45.40806129083802" lon="10.912752576864708"><ele>70.0</ele><time>2026-05-01T06:27:05Z</time></trkpt><trkpt lat="45.407946660316824" lon="10.91315918822063"><ele>71.0</ele><time>2026-05-01T06:27:06Z</time></trkpt><trkpt lat="45.40783400904183" lon="10.913572827539634"><ele>72.0</ele><time>2026-05-01T06:27:07Z</time></trkpt><trkpt lat="45.40772195189353" lon="10.913978900085512"><ele>71.5</ele><time>2026-05-01T06:27:08Z</time></trkpt><trkpt lat="45.40760997903105" lon="10.914391878623467"><ele>71.0</ele><time>2026-05-01T06:27:09Z</time></trkpt><trkpt lat="45.40749762795347" lon="10.914801283082484"><ele>71.0</ele><time>2026-05-01T06:27:10Z</time></trkpt><trkpt lat="45.407387688711815" lon="10.915215418155583"><ele>71.0</ele><time>2026-05-01T06:27:11Z</time></trkpt><trkpt lat="45.40727242653967" lon="10.915621010181122"><ele>70.5</ele><time>2026-05-01T06:27:12Z</time></trkpt><trkpt lat="45.40716137582918" lon="10.916023529111625"><ele>70.0</ele><time>2026-05-01T06:27:13Z</time></trkpt><trkpt lat="45.407053299112775" lon="10.916419209898391"><ele>68.5</ele><time>2026-05-01T06:27:14Z</time></trkpt><trkpt lat="45.40694549545773" lon="10.91682599534244"><ele>67.0</ele><time>2026-05-01T06:27:15Z</time></trkpt><trkpt lat="45.40684182274879" lon="10.917228485547756"><ele>68.0</ele><time>2026-05-01T06:27:16Z</time></trkpt><trkpt lat="45.406737891437864" lon="10.917625065064554"><ele>69.0</ele><time>2026-05-01T06:27:17Z</time></trkpt><trkpt lat="45.4066293305023" lon="10.918016842321066"><ele>69.0</ele><time>2026-05-01T06:27:18Z</time></trkpt><trkpt lat="45.40651878649007" lon="10.9184073346359"><ele>69.0</ele><time>2026-05-01T06:27:19Z</time></trkpt><trkpt lat="45.406405293450554" lon="10.918792612638994"><ele>68.0</ele><time>2026-05-01T06:27:20Z</time></trkpt><trkpt lat="45.40629692705686" lon="10.919176304416224"><ele>67.0</ele><time>2026-05-01T06:27:21Z</time></trkpt><trkpt lat="45.40619183799605" lon="10.919563377798763"><ele>67.0</ele><time>2026-05-01T06:27:22Z</time></trkpt><trkpt lat="45.4060882804637" lon="10.91995444389313"><ele>67.0</ele><time>2026-05-01T06:27:23Z</time></trkpt><trkpt lat="45.405986799723145" lon="10.920346955587997"><ele>66.5</ele><time>2026-05-01T06:27:24Z</time></trkpt><trkpt lat="45.40588259948691" lon="10.920733550437667"><ele>66.0</ele><time>2026-05-01T06:27:25Z</time></trkpt><trkpt lat="45.40577520067306" lon="10.921120699439374"><ele>66.0</ele><time>2026-05-01T06:27:26Z</time></trkpt><trkpt lat="45.4056670847822" lon="10.921507127981785"><ele>66.0</ele><time>2026-05-01T06:27:27Z</time></trkpt><trkpt lat="45.405560346043956" lon="10.921891770025368"><ele>66.5</ele><time>2026-05-01T06:27:28Z</time></trkpt><trkpt lat="45.40545592945247" lon="10.922272831389169"><ele>67.0</ele><time>2026-05-01T06:27:29Z</time></trkpt><trkpt lat="45.40534905044708" lon="10.922652961214167"><ele>66.0</ele><time>2026-05-01T06:27:30Z</time></trkpt><trkpt lat="45.40524289110502" lon="10.923034991789613"><ele>65.0</ele><time>2026-05-01T06:27:31Z</time></trkpt><trkpt lat="45.40513481254077" lon="10.92342419463537"><ele>64.5</ele><time>2026-05-01T06:27:32Z</time></trkpt><trkpt lat="45.405031146390854" lon="10.92381392942133"><ele>64.0</ele><time>2026-05-01T06:27:33Z</time></trkpt><trkpt lat="45.404920349374656" lon="10.924202477609684"><ele>64.0</ele><time>2026-05-01T06:27:34Z</time></trkpt><trkpt lat="45.404801825413905" lon="10.924592603920544"><ele>64.0</ele><time>2026-05-01T06:27:35Z</time></trkpt><trkpt lat="45.404690280232266" lon="10.924986939213415"><ele>65.5</ele><time>2026-05-01T06:27:36Z</time></trkpt><trkpt lat="45.404579157829026" lon="10.925383995219262"><ele>67.0</ele><time>2026-05-01T06:27:37Z</time></trkpt><trkpt lat="45.404468403623106" lon="10.925786268016271"><ele>67.5</ele><time>2026-05-01T06:27:38Z</time></trkpt><trkpt lat="45.404360978311644" lon="10.926188610844683"><ele>68.0</ele><time>2026-05-01T06:27:39Z</time></trkpt><trkpt lat="45.40425655087098" lon="10.926592167800008"><ele>67.0</ele><time>2026-05-01T06:27:40Z</time></trkpt><trkpt lat="45.40415811715313" lon="10.92699775333599"><ele>66.0</ele><time>2026-05-01T06:27:41Z</time></trkpt><trkpt lat="45.40406540328273" lon="10.927397952201387"><ele>66.0</ele><time>2026-05-01T06:27:42Z</time></trkpt><trkpt lat="45.40398416039306" lon="10.927807942259099"><ele>66.0</ele><time>2026-05-01T06:27:43Z</time></trkpt><trkpt lat="45.40391035645556" lon="10.928216135624076"><ele>66.0</ele><time>2026-05-01T06:27:44Z</time></trkpt><trkpt lat="45.403832096236485" lon="10.928622371436926"><ele>66.0</ele><time>2026-05-01T06:27:45Z</time></trkpt><trkpt lat="45.403751137523116" lon="10.929027391077712"><ele>67.5</ele><time>2026-05-01T06:27:46Z</time></trkpt><trkpt lat="45.403670263939865" lon="10.92943264921655"><ele>69.0</ele><time>2026-05-01T06:27:47Z</time></trkpt><trkpt lat="45.40358645108525" lon="10.9298337134529"><ele>69.0</ele><time>2026-05-01T06:27:48Z</time></trkpt><trkpt lat="45.40350417804168" lon="10.930233699973526"><ele>69.0</ele><time>2026-05-01T06:27:49Z</time></trkpt><trkpt lat="45.4034224051025" lon="10.93063166512113"><ele>68.5</ele><time>2026-05-01T06:27:50Z</time></trkpt><trkpt lat="45.40334486542894" lon="10.931035050812872"><ele>68.0</ele><time>2026-05-01T06:27:51Z</time></trkpt><trkpt lat="45.40326838639771" lon="10.931438589687408"><ele>66.5</ele><time>2026-05-01T06:27:52Z</time></trkpt><trkpt lat="45.403190464052415" lon="10.9318431060294"><ele>65.0</ele><time>2026-05-01T06:27:53Z</time></trkpt><trkpt lat="45.40311099552571" lon="10.93224319538047"><ele>64.5</ele><time>2026-05-01T06:27:54Z</time></trkpt><trkpt lat="45.403031578735515" lon="10.932642597783442"><ele>64.0</ele><time>2026-05-01T06:27:55Z</time></trkpt><trkpt lat="45.40295444799348" lon="10.933038526336102"><ele>64.0</ele><time>2026-05-01T06:27:56Z</time></trkpt><trkpt lat="45.402875246209355" lon="10.933432034345534"><ele>64.0</ele><time>2026-05-01T06:27:57Z</time></trkpt><trkpt lat="45.402795147083815" lon="10.933824873795208"><ele>64.0</ele><time>2026-05-01T06:27:58Z</time></trkpt><trkpt lat="45.40271591079867" lon="10.934216826973625"><ele>64.0</ele><time>2026-05-01T06:27:59Z</time></trkpt><trkpt lat="45.40263609575667" lon="10.934608997656738"><ele>64.0</ele><time>2026-05-01T06:28:00Z</time></trkpt><trkpt lat="45.402556745579105" lon="10.935000422858831"><ele>64.0</ele><time>2026-05-01T06:28:01Z</time></trkpt><trkpt lat="45.402476851684156" lon="10.935392276681773"><ele>64.0</ele><time>2026-05-01T06:28:02Z</time></trkpt><trkpt lat="45.402400143306735" lon="10.935767761181822"><ele>64.0</ele><time>2026-05-01T06:28:03Z</time></trkpt><trkpt lat="45.40232630948867" lon="10.936125302443775"><ele>64.0</ele><time>2026-05-01T06:28:04Z</time></trkpt><trkpt lat="45.402255705481366" lon="10.936470456548692"><ele>64.0</ele><time>2026-05-01T06:28:05Z</time></trkpt><trkpt lat="45.40218856686672" lon="10.936808726489756"><ele>62.5</ele><time>2026-05-01T06:28:06Z</time></trkpt><trkpt lat="45.40212029786238" lon="10.937147448177006"><ele>61.0</ele><time>2026-05-01T06:28:07Z</time></trkpt><trkpt lat="45.40205135778041" lon="10.937486879816154"><ele>61.5</ele><time>2026-05-01T06:28:08Z</time></trkpt><trkpt lat="45.40198433198665" lon="10.937827938573834"><ele>62.0</ele><time>2026-05-01T06:28:09Z</time></trkpt><trkpt lat="45.40191611507704" lon="10.938171062045264"><ele>61.5</ele><time>2026-05-01T06:28:10Z</time></trkpt><trkpt lat="45.40184698873124" lon="10.938518567217208"><ele>61.0</ele><time>2026-05-01T06:28:11Z</time></trkpt><trkpt lat="45.40177665458811" lon="10.938866994237651"><ele>61.0</ele><time>2026-05-01T06:28:12Z</time></trkpt><trkpt lat="45.401705107678445" lon="10.939213720506348"><ele>61.0</ele><time>2026-05-01T06:28:13Z</time></trkpt><trkpt lat="45.40163268092216" lon="10.939557646775757"><ele>61.0</ele><time>2026-05-01T06:28:14Z</time></trkpt><trkpt lat="45.40156114778362" lon="10.939902201194371"><ele>61.0</ele><time>2026-05-01T06:28:15Z</time></trkpt><trkpt lat="45.40149300115889" lon="10.940237288226527"><ele>61.0</ele><time>2026-05-01T06:28:16Z</time></trkpt><trkpt lat="45.40143113338863" lon="10.940557264454524"><ele>61.0</ele><time>2026-05-01T06:28:17Z</time></trkpt><trkpt lat="45.40136882986309" lon="10.940863467420964"><ele>61.0</ele><time>2026-05-01T06:28:18Z</time></trkpt><trkpt lat="45.40130561496163" lon="10.941159857084099"><ele>61.0</ele><time>2026-05-01T06:28:19Z</time></trkpt><trkpt lat="45.40124486601757" lon="10.941456307605442"><ele>61.0</ele><time>2026-05-01T06:28:20Z</time></trkpt><trkpt lat="45.40118541927072" lon="10.941762581287792"><ele>61.0</ele><time>2026-05-01T06:28:21Z</time></trkpt><trkpt lat="45.40112322080846" lon="10.942073523525332"><ele>61.0</ele><time>2026-05-01T06:28:22Z</time></trkpt><trkpt lat="45.40105880674346" lon="10.94239139139625"><ele>60.0</ele><time>2026-05-01T06:28:23Z</time></trkpt><trkpt lat="45.400992579597045" lon="10.942704328856948"><ele>59.0</ele><time>2026-05-01T06:28:24Z</time></trkpt><trkpt lat="45.40092840495748" lon="10.943016382749024"><ele>59.0</ele><time>2026-05-01T06:28:25Z</time></trkpt><trkpt lat="45.4008651218273" lon="10.943321561909789"><ele>59.0</ele><time>2026-05-01T06:28:26Z</time></trkpt><trkpt lat="45.40080594460768" lon="10.943618856467618"><ele>59.0</ele><time>2026-05-01T06:28:27Z</time></trkpt><trkpt lat="45.40074855677269" lon="10.94390919594834"><ele>59.0</ele><time>2026-05-01T06:28:28Z</time></trkpt><trkpt lat="45.40069312824809" lon="10.944200263721608"><ele>59.0</ele><time>2026-05-01T06:28:29Z</time></trkpt><trkpt lat="45.40063858473446" lon="10.94448881945214"><ele>59.0</ele><time>2026-05-01T06:28:30Z</time></trkpt><trkpt lat="45.40058229485646" lon="10.944758284953082"><ele>59.0</ele><time>2026-05-01T06:28:31Z</time></trkpt><trkpt lat="45.40052625525637" lon="10.945022611460075"><ele>59.0</ele><time>2026-05-01T06:28:32Z</time></trkpt><trkpt lat="45.400470002850305" lon="10.945294979564244"><ele>59.0</ele><time>2026-05-01T06:28:33Z</time></trkpt><trkpt lat="45.400414031297366" lon="10.945562744509816"><ele>59.333333333333336</ele><time>2026-05-01T06:28:34Z</time></trkpt><trkpt lat="45.40035989387588" lon="10.94582777587254"><ele>59.66666666666667</ele><time>2026-05-01T06:28:35Z</time></trkpt><trkpt lat="45.40030982823436" lon="10.946080441628759"><ele>60.0</ele><time>2026-05-01T06:28:36Z</time></trkpt><trkpt lat="45.4002586757846" lon="10.94632358262735"><ele>60.33333333333333</ele><time>2026-05-01T06:28:37Z</time></trkpt><trkpt lat="45.40020806728488" lon="10.946561113115662"><ele>60.666666666666664</ele><time>2026-05-01T06:28:38Z</time></trkpt><trkpt lat="45.40015714336543" lon="10.946801665015727"><ele>61.0</ele><time>2026-05-01T06:28:39Z</time></trkpt><trkpt lat="45.40010353265345" lon="10.947051454294423"><ele>60.33333333333333</ele><time>2026-05-01T06:28:40Z</time></trkpt><trkpt lat="45.400057280511355" lon="10.947312911897793"><ele>59.66666666666667</ele><time>2026-05-01T06:28:41Z</time></trkpt><trkpt lat="45.40000479061285" lon="10.94757739206767"><ele>59.0</ele><time>2026-05-01T06:28:42Z</time></trkpt><trkpt lat="45.399951030803415" lon="10.947845369648086"><ele>59.0</ele><time>2026-05-01T06:28:43Z</time></trkpt><trkpt lat="45.39989488321021" lon="10.948112701134256"><ele>59.0</ele><time>2026-05-01T06:28:44Z</time></trkpt><trkpt lat="45.39983619362288" lon="10.948387588017814"><ele>59.0</ele><time>2026-05-01T06:28:45Z</time></trkpt><trkpt lat="45.39977751069695" lon="10.948667681260295"><ele>59.0</ele><time>2026-05-01T06:28:46Z</time></trkpt><trkpt lat="45.39971985562447" lon="10.948950905112728"><ele>59.0</ele><time>2026-05-01T06:28:47Z</time></trkpt><trkpt lat="45.39966135367027" lon="10.949238691376697"><ele>59.0</ele><time>2026-05-01T06:28:48Z</time></trkpt><trkpt lat="45.39960304018233" lon="10.949527123255645"><ele>59.333333333333336</ele><time>2026-05-01T06:28:49Z</time></trkpt><trkpt lat="45.399543679227996" lon="10.949817280498861"><ele>59.66666666666667</ele><time>2026-05-01T06:28:50Z</time></trkpt><trkpt lat="45.39948338132231" lon="10.950106777743573"><ele>60.0</ele><time>2026-05-01T06:28:51Z</time></trkpt><trkpt lat="45.399424151587056" lon="10.950402839213792"><ele>60.0</ele><time>2026-05-01T06:28:52Z</time></trkpt><trkpt lat="45.39936503450325" lon="10.950701797642157"><ele>60.0</ele><time>2026-05-01T06:28:53Z</time></trkpt><trkpt lat="45.39930250438674" lon="10.951002200773617"><ele>60.0</ele><time>2026-05-01T06:28:54Z</time></trkpt><trkpt lat="45.39923896142622" lon="10.951301394436939"><ele>60.33333333333333</ele><time>2026-05-01T06:28:55Z</time></trkpt><trkpt lat="45.399172993467545" lon="10.95160319701073"><ele>60.666666666666664</ele><time>2026-05-01T06:28:56Z</time></trkpt><trkpt lat="45.399113590957974" lon="10.95191234534361"><ele>61.0</ele><time>2026-05-01T06:28:57Z</time></trkpt><trkpt lat="45.39905092338463" lon="10.952225076197356"><ele>60.5</ele><time>2026-05-01T06:28:58Z</time></trkpt><trkpt lat="45.398988429350645" lon="10.952540967422795"><ele>60.0</ele><time>2026-05-01T06:28:59Z</time></trkpt><trkpt lat="45.39892353822054" lon="10.952855630271594"><ele>60.0</ele><time>2026-05-01T06:29:00Z</time></trkpt><trkpt lat="45.39886022972534" lon="10.95317306540995"><ele>60.0</ele><time>2026-05-01T06:29:01Z</time></trkpt><trkpt lat="45.39879638523379" lon="10.953489195133995"><ele>59.5</ele><time>2026-05-01T06:29:02Z</time></trkpt><trkpt lat="45.398734457542105" lon="10.953815181119754"><ele>59.0</ele><time>2026-05-01T06:29:03Z</time></trkpt><trkpt lat="45.398671329257304" lon="10.954144264881167"><ele>61.0</ele><time>2026-05-01T06:29:04Z</time></trkpt><trkpt lat="45.39860211708664" lon="10.954474539944306"><ele>63.0</ele><time>2026-05-01T06:29:05Z</time></trkpt><trkpt lat="45.39852969615492" lon="10.954803620149459"><ele>62.5</ele><time>2026-05-01T06:29:06Z</time></trkpt><trkpt lat="45.39846322864133" lon="10.955132034232735"><ele>62.0</ele><time>2026-05-01T06:29:07Z</time></trkpt><trkpt lat="45.398401399718146" lon="10.955458275841554"><ele>62.0</ele><time>2026-05-01T06:29:08Z</time></trkpt><trkpt lat="45.39834290211978" lon="10.955785481043458"><ele>62.0</ele><time>2026-05-01T06:29:09Z</time></trkpt><trkpt lat="45.3982921459363" lon="10.956116336194"><ele>61.0</ele><time>2026-05-01T06:29:10Z</time></trkpt><trkpt lat="45.39824365758607" lon="10.956444035648287"><ele>60.0</ele><time>2026-05-01T06:29:11Z</time></trkpt><trkpt lat="45.398196312017596" lon="10.956774596525346"><ele>60.0</ele><time>2026-05-01T06:29:12Z</time></trkpt><trkpt lat="45.398151793388514" lon="10.957100411408216"><ele>60.0</ele><time>2026-05-01T06:29:13Z</time></trkpt><trkpt lat="45.398115210753026" lon="10.957417167590922"><ele>60.0</ele><time>2026-05-01T06:29:14Z</time></trkpt><trkpt lat="45.39808341484793" lon="10.957717932857546"><ele>60.0</ele><time>2026-05-01T06:29:15Z</time></trkpt><trkpt lat="45.39805270134853" lon="10.95800721096408"><ele>60.0</ele><time>2026-05-01T06:29:16Z</time></trkpt><trkpt lat="45.39802026494997" lon="10.95830438489101"><ele>59.66666666666667</ele><time>2026-05-01T06:29:17Z</time></trkpt><trkpt lat="45.397992168910235" lon="10.958611000971132"><ele>59.333333333333336</ele><time>2026-05-01T06:29:18Z</time></trkpt><trkpt lat="45.39795718712225" lon="10.958913533514227"><ele>59.0</ele><time>2026-05-01T06:29:19Z</time></trkpt><trkpt lat="45.39791923096085" lon="10.959209013391613"><ele>59.0</ele><time>2026-05-01T06:29:20Z</time></trkpt><trkpt lat="45.39788127817848" lon="10.959493369151685"><ele>59.0</ele><time>2026-05-01T06:29:21Z</time></trkpt><trkpt lat="45.397845682830315" lon="10.95976560657277"><ele>59.0</ele><time>2026-05-01T06:29:22Z</time></trkpt><trkpt lat="45.39780921617609" lon="10.960041539074869"><ele>59.333333333333336</ele><time>2026-05-01T06:29:23Z</time></trkpt><trkpt lat="45.397774542510135" lon="10.960327384696335"><ele>59.66666666666667</ele><time>2026-05-01T06:29:24Z</time></trkpt><trkpt lat="45.397741189412294" lon="10.960618093030092"><ele>60.0</ele><time>2026-05-01T06:29:25Z</time></trkpt><trkpt lat="45.397710606983836" lon="10.96091371654066"><ele>60.0</ele><time>2026-05-01T06:29:26Z</time></trkpt><trkpt lat="45.39768126839247" lon="10.961212191882069"><ele>60.0</ele><time>2026-05-01T06:29:27Z</time></trkpt><trkpt lat="45.3976560650084" lon="10.961517663206097"><ele>60.0</ele><time>2026-05-01T06:29:28Z</time></trkpt><trkpt lat="45.39763149575551" lon="10.961824953369062"><ele>59.33333333333333</ele><time>2026-05-01T06:29:29Z</time></trkpt><trkpt lat="45.397608441995885" lon="10.96212064224013"><ele>58.666666666666664</ele><time>2026-05-01T06:29:30Z</time></trkpt><trkpt lat="45.3975898876162" lon="10.962403009028224"><ele>58.0</ele><time>2026-05-01T06:29:31Z</time></trkpt><trkpt lat="45.39757490566346" lon="10.962682037082079"><ele>58.0</ele><time>2026-05-01T06:29:32Z</time></trkpt><trkpt lat="45.397563506133956" lon="10.962964929211562"><ele>58.0</ele><time>2026-05-01T06:29:33Z</time></trkpt><trkpt lat="45.39755001547428" lon="10.963256636366607"><ele>58.0</ele><time>2026-05-01T06:29:34Z</time></trkpt><trkpt lat="45.3975378189163" lon="10.963543524558874"><ele>58.0</ele><time>2026-05-01T06:29:35Z</time></trkpt><trkpt lat="45.397529024225214" lon="10.963826863426737"><ele>58.0</ele><time>2026-05-01T06:29:36Z</time></trkpt><trkpt lat="45.39751723437161" lon="10.964115959634983"><ele>58.0</ele><time>2026-05-01T06:29:37Z</time></trkpt><trkpt lat="45.39750087409038" lon="10.964400777373346"><ele>58.0</ele><time>2026-05-01T06:29:38Z</time></trkpt><trkpt lat="45.39748370310934" lon="10.964698581200945"><ele>58.0</ele><time>2026-05-01T06:29:39Z</time></trkpt><trkpt lat="45.39746428860327" lon="10.965001140571582"><ele>58.0</ele><time>2026-05-01T06:29:40Z</time></trkpt><trkpt lat="45.39744770585725" lon="10.965311657789634"><ele>57.666666666666664</ele><time>2026-05-01T06:29:41Z</time></trkpt><trkpt lat="45.397432293772546" lon="10.965625017955151"><ele>57.33333333333333</ele><time>2026-05-01T06:29:42Z</time></trkpt><trkpt lat="45.39741577795123" lon="10.965945825524901"><ele>57.0</ele><time>2026-05-01T06:29:43Z</time></trkpt><trkpt lat="45.39740181227443" lon="10.966267820171511"><ele>56.66666666666667</ele><time>2026-05-01T06:29:44Z</time></trkpt><trkpt lat="45.39738931325566" lon="10.966580660860215"><ele>56.333333333333336</ele><time>2026-05-01T06:29:45Z</time></trkpt><trkpt lat="45.39737679497396" lon="10.966875251026362"><ele>56.0</ele><time>2026-05-01T06:29:46Z</time></trkpt><trkpt lat="45.39736686187511" lon="10.967159219272087"><ele>56.66666666666667</ele><time>2026-05-01T06:29:47Z</time></trkpt><trkpt lat="45.39735294932814" lon="10.96744662971918"><ele>57.33333333333333</ele><time>2026-05-01T06:29:48Z</time></trkpt><trkpt lat="45.39733739350336" lon="10.9677282072691"><ele>58.0</ele><time>2026-05-01T06:29:49Z</time></trkpt><trkpt lat="45.39730998392723" lon="10.96800743455902"><ele>57.0</ele><time>2026-05-01T06:29:50Z</time></trkpt><trkpt lat="45.3972787153655" lon="10.968271644634614"><ele>56.0</ele><time>2026-05-01T06:29:51Z</time></trkpt><trkpt lat="45.3972203944954" lon="10.968509712598552"><ele>55.0</ele><time>2026-05-01T06:29:52Z</time></trkpt><trkpt lat="45.39713874064469" lon="10.968725156687277"><ele>55.0</ele><time>2026-05-01T06:29:53Z</time></trkpt><trkpt lat="45.397050878372006" lon="10.968917842592504"><ele>55.0</ele><time>2026-05-01T06:29:54Z</time></trkpt><trkpt lat="45.396940431220486" lon="10.969065924324156"><ele>55.0</ele><time>2026-05-01T06:29:55Z</time></trkpt><trkpt lat="45.39681422509019" lon="10.969178823716808"><ele>55.0</ele><time>2026-05-01T06:29:56Z</time></trkpt><trkpt lat="45.39668079349746" lon="10.969244108335067"><ele>55.0</ele><time>2026-05-01T06:29:57Z</time></trkpt><trkpt lat="45.396539925625596" lon="10.969269692072222"><ele>55.0</ele><time>2026-05-01T06:29:58Z</time></trkpt><trkpt lat="45.39639256856118" lon="10.96924877393659"><ele>55.0</ele><time>2026-05-01T06:29:59Z</time></trkpt><trkpt lat="45.396250400610484" lon="10.969177627867571"><ele>55.0</ele><time>2026-05-01T06:30:00Z</time></trkpt><trkpt lat="45.39612727324327" lon="10.96905437097908"><ele>55.0</ele><time>2026-05-01T06:30:01Z</time></trkpt><trkpt lat="45.396029269685926" lon="10.96889332399143"><ele>55.0</ele><time>2026-05-01T06:30:02Z</time></trkpt><trkpt lat="45.39595857411628" lon="10.968700357007"><ele>55.0</ele><time>2026-05-01T06:30:03Z</time></trkpt><trkpt lat="45.395925957027465" lon="10.968495486494994"><ele>55.0</ele><time>2026-05-01T06:30:04Z</time></trkpt><trkpt lat="45.39593555486209" lon="10.968280329591163"><ele>55.0</ele><time>2026-05-01T06:30:05Z</time></trkpt><trkpt lat="45.39598155991898" lon="10.96806674148914"><ele>55.0</ele><time>2026-05-01T06:30:06Z</time></trkpt><trkpt lat="45.39606182423423" lon="10.967876471612898"><ele>55.0</ele><time>2026-05-01T06:30:07Z</time></trkpt><trkpt lat="45.39616667069967" lon="10.967720250682595"><ele>55.0</ele><time>2026-05-01T06:30:08Z</time></trkpt><trkpt lat="45.396297423969266" lon="10.967609385692331"><ele>55.0</ele><time>2026-05-01T06:30:09Z</time></trkpt><trkpt lat="45.39644435736052" lon="10.967550196401806"><ele>55.0</ele><time>2026-05-01T06:30:10Z</time></trkpt><trkpt lat="45.396613420568144" lon="10.96752824471902"><ele>55.0</ele><time>2026-05-01T06:30:11Z</time></trkpt><trkpt lat="45.396775403888526" lon="10.96752527060043"><ele>55.0</ele><time>2026-05-01T06:30:12Z</time></trkpt><trkpt lat="45.39691997284262" lon="10.967529731333263"><ele>55.0</ele><time>2026-05-01T06:30:13Z</time></trkpt><trkpt lat="45.39706316184187" lon="10.967545485535387"><ele>55.0</ele><time>2026-05-01T06:30:14Z</time></trkpt><trkpt lat="45.39720563435111" lon="10.967565377616715"><ele>55.0</ele><time>2026-05-01T06:30:15Z</time></trkpt><trkpt lat="45.39734672274977" lon="10.967578980923406"><ele>54.5</ele><time>2026-05-01T06:30:16Z</time></trkpt><trkpt lat="45.39747307114661" lon="10.967594357936433"><ele>54.0</ele><time>2026-05-01T06:30:17Z</time></trkpt><trkpt lat="45.39759908046737" lon="10.967615725268624"><ele>53.5</ele><time>2026-05-01T06:30:18Z</time></trkpt><trkpt lat="45.3977193337454" lon="10.967652686218154"><ele>53.0</ele><time>2026-05-01T06:30:19Z</time></trkpt><trkpt lat="45.397832828522354" lon="10.967702723765482"><ele>53.0</ele><time>2026-05-01T06:30:20Z</time></trkpt><trkpt lat="45.39793798129772" lon="10.967759915511094"><ele>53.0</ele><time>2026-05-01T06:30:21Z</time></trkpt><trkpt lat="45.39804316266068" lon="10.967821072713626"><ele>53.0</ele><time>2026-05-01T06:30:22Z</time></trkpt><trkpt lat="45.398146356005384" lon="10.967889880869379"><ele>53.0</ele><time>2026-05-01T06:30:23Z</time></trkpt><trkpt lat="45.39824203818821" lon="10.967973386598326"><ele>53.599999999999994</ele><time>2026-05-01T06:30:24Z</time></trkpt><trkpt lat="45.39833506401422" lon="10.968065861114166"><ele>54.199999999999996</ele><time>2026-05-01T06:30:25Z</time></trkpt><trkpt lat="45.39842293011697" lon="10.968168043948994"><ele>54.8</ele><time>2026-05-01T06:30:26Z</time></trkpt><trkpt lat="45.3985039158984" lon="10.968271061476937"><ele>55.4</ele><time>2026-05-01T06:30:27Z</time></trkpt><trkpt lat="45.398586456851085" lon="10.968375165952803"><ele>56.0</ele><time>2026-05-01T06:30:28Z</time></trkpt><trkpt lat="45.39866798995388" lon="10.96847842931189"><ele>56.25</ele><time>2026-05-01T06:30:29Z</time></trkpt><trkpt lat="45.39875085660499" lon="10.968587309437414"><ele>56.5</ele><time>2026-05-01T06:30:30Z</time></trkpt><trkpt lat="45.39884221952668" lon="10.968705827375938"><ele>56.75</ele><time>2026-05-01T06:30:31Z</time></trkpt><trkpt lat="45.398925307861255" lon="10.968827502858852"><ele>57.0</ele><time>2026-05-01T06:30:32Z</time></trkpt><trkpt lat="45.39897002786898" lon="10.969006045443129"><ele>57.0</ele><time>2026-05-01T06:30:33Z</time></trkpt><trkpt lat="45.39905423534064" lon="10.969139517843637"><ele>57.0</ele><time>2026-05-01T06:30:34Z</time></trkpt><trkpt lat="45.39913196141432" lon="10.969273004463055"><ele>57.0</ele><time>2026-05-01T06:30:35Z</time></trkpt><trkpt lat="45.39919906413529" lon="10.969421972195905"><ele>57.0</ele><time>2026-05-01T06:30:36Z</time></trkpt><trkpt lat="45.399256935645745" lon="10.969574881579321"><ele>57.0</ele><time>2026-05-01T06:30:37Z</time></trkpt><trkpt lat="45.399309643243065" lon="10.969730643011772"><ele>57.0</ele><time>2026-05-01T06:30:38Z</time></trkpt><trkpt lat="45.39935931726121" lon="10.969885235365902"><ele>57.0</ele><time>2026-05-01T06:30:39Z</time></trkpt><trkpt lat="45.399405112495636" lon="10.970040389930185"><ele>57.0</ele><time>2026-05-01T06:30:40Z</time></trkpt><trkpt lat="45.3994493076243" lon="10.97019106651457"><ele>57.0</ele><time>2026-05-01T06:30:41Z</time></trkpt><trkpt lat="45.39949181237798" lon="10.970336335523953"><ele>57.0</ele><time>2026-05-01T06:30:42Z</time></trkpt><trkpt lat="45.399533201705985" lon="10.970479135359485"><ele>57.0</ele><time>2026-05-01T06:30:43Z</time></trkpt><trkpt lat="45.399570983773096" lon="10.970615304578619"><ele>57.0</ele><time>2026-05-01T06:30:44Z</time></trkpt><trkpt lat="45.39960680205614" lon="10.970746757082185"><ele>57.0</ele><time>2026-05-01T06:30:45Z</time></trkpt><trkpt lat="45.39963661381677" lon="10.97086615291522"><ele>57.0</ele><time>2026-05-01T06:30:46Z</time></trkpt><trkpt lat="45.39966256030788" lon="10.970975433094495"><ele>57.0</ele><time>2026-05-01T06:30:47Z</time></trkpt><trkpt lat="45.399684330927926" lon="10.971073776238798"><ele>57.0</ele><time>2026-05-01T06:30:48Z</time></trkpt><trkpt lat="45.39971862539666" lon="10.971215772655004"><ele>57.0</ele><time>2026-05-01T06:30:50Z</time></trkpt><trkpt lat="45.399740788818605" lon="10.971305251917872"><ele>57.0</ele><time>2026-05-01T06:30:52Z</time></trkpt><trkpt lat="45.39976243534559" lon="10.971390682175896"><ele>57.0</ele><time>2026-05-01T06:31:27Z</time></trkpt><trkpt lat="45.3998047351979" lon="10.971554241604995"><ele>57.0</ele><time>2026-05-01T06:32:29Z</time></trkpt><trkpt lat="45.39984350703076" lon="10.971689023522513"><ele>57.0</ele><time>2026-05-01T06:32:31Z</time></trkpt><trkpt lat="45.399881714414875" lon="10.971814465479962"><ele>57.0</ele><time>2026-05-01T06:32:33Z</time></trkpt><trkpt lat="45.399931533129454" lon="10.971951132941477"><ele>57.0</ele><time>2026-05-01T06:32:35Z</time></trkpt><trkpt lat="45.39997661301492" lon="10.972051069037887"><ele>57.0</ele><time>2026-05-01T06:32:37Z</time></trkpt><trkpt lat="45.40001926480568" lon="10.972132141509636"><ele>56.857142857142854</ele><time>2026-05-01T06:32:41Z</time></trkpt><trkpt lat="45.40006131279263" lon="10.972212379474762"><ele>56.71428571428571</ele><time>2026-05-01T06:32:44Z</time></trkpt><trkpt lat="45.40009818164077" lon="10.972287741672767"><ele>56.57142857142857</ele><time>2026-05-01T06:32:48Z</time></trkpt><trkpt lat="45.40013418359554" lon="10.972365381414855"><ele>56.42857142857143</ele><time>2026-05-01T06:33:43Z</time></trkpt><trkpt lat="45.40016908919547" lon="10.972447322808678"><ele>56.285714285714285</ele><time>2026-05-01T06:36:41Z</time></trkpt><trkpt lat="45.400200797003365" lon="10.97253856932587"><ele>56.14285714285714</ele><time>2026-05-01T06:36:44Z</time></trkpt><trkpt lat="45.40023399365649" lon="10.972631582093609"><ele>56.0</ele><time>2026-05-01T06:36:47Z</time></trkpt><trkpt lat="45.400368984215504" lon="10.972778280143016"><ele>55.8</ele><time>2026-05-01T06:37:14Z</time></trkpt><trkpt lat="45.40042962340681" lon="10.972711405872593"><ele>55.599999999999994</ele><time>2026-05-01T06:37:15Z</time></trkpt><trkpt lat="45.40056589033497" lon="10.972773122898612"><ele>55.4</ele><time>2026-05-01T06:37:17Z</time></trkpt><trkpt lat="45.40063772242952" lon="10.972813913868741"><ele>55.2</ele><time>2026-05-01T06:37:18Z</time></trkpt><trkpt lat="45.40071052533076" lon="10.97285752616349"><ele>55.0</ele><time>2026-05-01T06:37:19Z</time></trkpt><trkpt lat="45.40078718567969" lon="10.972900383753903"><ele>55.0</ele><time>2026-05-01T06:37:20Z</time></trkpt><trkpt lat="45.400864154005035" lon="10.972942143559191"><ele>55.0</ele><time>2026-05-01T06:37:21Z</time></trkpt><trkpt lat="45.400943456412705" lon="10.97298482000791"><ele>55.0</ele><time>2026-05-01T06:37:22Z</time></trkpt><trkpt lat="45.40102286315325" lon="10.97303469669004"><ele>55.0</ele><time>2026-05-01T06:37:23Z</time></trkpt><trkpt lat="45.40110919505919" lon="10.973084890202346"><ele>55.0</ele><time>2026-05-01T06:37:24Z</time></trkpt><trkpt lat="45.40120742241891" lon="10.973129592934214"><ele>55.0</ele><time>2026-05-01T06:37:25Z</time></trkpt><trkpt lat="45.401307558657024" lon="10.97317557584811"><ele>55.0</ele><time>2026-05-01T06:37:26Z</time></trkpt><trkpt lat="45.40140633536634" lon="10.973224118805328"><ele>55.0</ele><time>2026-05-01T06:37:27Z</time></trkpt><trkpt lat="45.401510887455665" lon="10.973276682917783"><ele>55.0</ele><time>2026-05-01T06:37:28Z</time></trkpt><trkpt lat="45.401621598872154" lon="10.9733238010249"><ele>55.0</ele><time>2026-05-01T06:37:29Z</time></trkpt><trkpt lat="45.401727545581714" lon="10.973391188299995"><ele>55.5</ele><time>2026-05-01T06:37:30Z</time></trkpt><trkpt lat="45.40183553091988" lon="10.973459041838522"><ele>56.0</ele><time>2026-05-01T06:37:31Z</time></trkpt><trkpt lat="45.401958306066135" lon="10.973529502845556"><ele>56.5</ele><time>2026-05-01T06:37:32Z</time></trkpt><trkpt lat="45.40208771934018" lon="10.97359270616431"><ele>57.0</ele><time>2026-05-01T06:37:33Z</time></trkpt><trkpt lat="45.40221589123778" lon="10.973656924511918"><ele>57.0</ele><time>2026-05-01T06:37:34Z</time></trkpt><trkpt lat="45.402347771788335" lon="10.97372921369176"><ele>57.0</ele><time>2026-05-01T06:37:35Z</time></trkpt><trkpt lat="45.402487786528305" lon="10.97379883541361"><ele>57.0</ele><time>2026-05-01T06:37:36Z</time></trkpt><trkpt lat="45.402626398065806" lon="10.973881576901974"><ele>57.0</ele><time>2026-05-01T06:37:37Z</time></trkpt><trkpt lat="45.402770580371666" lon="10.973956252043399"><ele>57.0</ele><time>2026-05-01T06:37:38Z</time></trkpt><trkpt lat="45.40290721490986" lon="10.97403376268957"><ele>57.0</ele><time>2026-05-01T06:37:39Z</time></trkpt><trkpt lat="45.40304047055944" lon="10.974110299158028"><ele>57.0</ele><time>2026-05-01T06:37:40Z</time></trkpt><trkpt lat="45.40317987670037" lon="10.974186049866926"><ele>57.0</ele><time>2026-05-01T06:37:41Z</time></trkpt><trkpt lat="45.403322120932636" lon="10.974261633219355"><ele>57.66666666666667</ele><time>2026-05-01T06:37:42Z</time></trkpt><trkpt lat="45.40346530497187" lon="10.974336429538278"><ele>58.333333333333336</ele><time>2026-05-01T06:37:43Z</time></trkpt><trkpt lat="45.403618706556294" lon="10.974406169522073"><ele>59.0</ele><time>2026-05-01T06:37:44Z</time></trkpt><trkpt lat="45.403763247428124" lon="10.974468934403989"><ele>58.5</ele><time>2026-05-01T06:37:45Z</time></trkpt><trkpt lat="45.403905167541026" lon="10.974531821862044"><ele>58.0</ele><time>2026-05-01T06:37:46Z</time></trkpt><trkpt lat="45.40404126353874" lon="10.974603436167788"><ele>57.5</ele><time>2026-05-01T06:37:47Z</time></trkpt><trkpt lat="45.40417561677343" lon="10.974669353991224"><ele>57.0</ele><time>2026-05-01T06:37:48Z</time></trkpt><trkpt lat="45.40431022506859" lon="10.974737664295736"><ele>57.0</ele><time>2026-05-01T06:37:49Z</time></trkpt><trkpt lat="45.40444226389011" lon="10.974806060542555"><ele>57.0</ele><time>2026-05-01T06:37:50Z</time></trkpt><trkpt lat="45.40457441140215" lon="10.974877586594179"><ele>57.0</ele><time>2026-05-01T06:37:51Z</time></trkpt><trkpt lat="45.40470531689506" lon="10.97494746056901"><ele>57.0</ele><time>2026-05-01T06:37:52Z</time></trkpt><trkpt lat="45.404842385119274" lon="10.975019594829332"><ele>57.0</ele><time>2026-05-01T06:37:53Z</time></trkpt><trkpt lat="45.40497859402184" lon="10.975081598365454"><ele>57.0</ele><time>2026-05-01T06:37:53.999Z</time></trkpt><trkpt lat="45.40511528817587" lon="10.975147503941084"><ele>57.0</ele><time>2026-05-01T06:37:54.999Z</time></trkpt><trkpt lat="45.40525425059993" lon="10.975214999427893"><ele>57.0</ele><time>2026-05-01T06:37:55.999Z</time></trkpt><trkpt lat="45.40539125540914" lon="10.975286524792091"><ele>57.0</ele><time>2026-05-01T06:37:56.999Z</time></trkpt><trkpt lat="45.405534736930115" lon="10.975356999467188"><ele>57.0</ele><time>2026-05-01T06:37:57.999Z</time></trkpt><trkpt lat="45.405675084390154" lon="10.975430470810073"><ele>57.0</ele><time>2026-05-01T06:37:58.999Z</time></trkpt><trkpt lat="45.405819081186124" lon="10.975505773776726"><ele>57.0</ele><time>2026-05-01T06:37:59.999Z</time></trkpt><trkpt lat="45.405966732313104" lon="10.975578051440138"><ele>57.0</ele><time>2026-05-01T06:38:00.999Z</time></trkpt><trkpt lat="45.40611561942172" lon="10.975650981769023"><ele>57.0</ele><time>2026-05-01T06:38:01.999Z</time></trkpt><trkpt lat="45.40625929817418" lon="10.97572474610695"><ele>57.5</ele><time>2026-05-01T06:38:02.999Z</time></trkpt><trkpt lat="45.40639990643906" lon="10.97579800857542"><ele>58.0</ele><time>2026-05-01T06:38:03.999Z</time></trkpt><trkpt lat="45.406539928474885" lon="10.97586893886045"><ele>58.5</ele><time>2026-05-01T06:38:05Z</time></trkpt><trkpt lat="45.40667402273615" lon="10.975935546062976"><ele>59.0</ele><time>2026-05-01T06:38:06Z</time></trkpt><trkpt lat="45.40680845052816" lon="10.975999425059515"><ele>59.0</ele><time>2026-05-01T06:38:07Z</time></trkpt><trkpt lat="45.406936337732155" lon="10.976061579469107"><ele>59.0</ele><time>2026-05-01T06:38:08Z</time></trkpt><trkpt lat="45.40706091554088" lon="10.976124820870076"><ele>59.0</ele><time>2026-05-01T06:38:09Z</time></trkpt><trkpt lat="45.407183982989444" lon="10.976186955809549"><ele>59.0</ele><time>2026-05-01T06:38:10Z</time></trkpt><trkpt lat="45.40729976391139" lon="10.976253819163611"><ele>59.2</ele><time>2026-05-01T06:38:11Z</time></trkpt><trkpt lat="45.40740703818045" lon="10.976312741398011"><ele>59.400000000000006</ele><time>2026-05-01T06:38:12Z</time></trkpt><trkpt lat="45.407501660909745" lon="10.976366333542652"><ele>59.6</ele><time>2026-05-01T06:38:13Z</time></trkpt><trkpt lat="45.4075907521784" lon="10.976409155377937"><ele>59.8</ele><time>2026-05-01T06:38:14Z</time></trkpt><trkpt lat="45.40767070206865" lon="10.976439326076362"><ele>60.0</ele><time>2026-05-01T06:38:15Z</time></trkpt><trkpt lat="45.407755540506415" lon="10.976461520698695"><ele>60.0</ele><time>2026-05-01T06:38:16Z</time></trkpt><trkpt lat="45.40784683517336" lon="10.976499517672638"><ele>60.0</ele><time>2026-05-01T06:38:17Z</time></trkpt><trkpt lat="45.40794633263603" lon="10.976544901375515"><ele>60.0</ele><time>2026-05-01T06:38:18Z</time></trkpt><trkpt lat="45.40805411152578" lon="10.976593638500308"><ele>60.0</ele><time>2026-05-01T06:38:19Z</time></trkpt><trkpt lat="45.40815993411045" lon="10.976647572897123"><ele>60.0</ele><time>2026-05-01T06:38:20Z</time></trkpt><trkpt lat="45.40827200994808" lon="10.976700980582162"><ele>59.5</ele><time>2026-05-01T06:38:21Z</time></trkpt><trkpt lat="45.40838274228044" lon="10.976755498886286"><ele>59.0</ele><time>2026-05-01T06:38:22Z</time></trkpt><trkpt lat="45.40849975744231" lon="10.976810181884273"><ele>58.5</ele><time>2026-05-01T06:38:23Z</time></trkpt><trkpt lat="45.40861174589689" lon="10.976865405612502"><ele>58.0</ele><time>2026-05-01T06:38:24Z</time></trkpt><trkpt lat="45.40872838907721" lon="10.976921488121542"><ele>58.25</ele><time>2026-05-01T06:38:25Z</time></trkpt><trkpt lat="45.40884697075034" lon="10.976975166242944"><ele>58.5</ele><time>2026-05-01T06:38:26Z</time></trkpt><trkpt lat="45.40897009386312" lon="10.977034504946664"><ele>58.75</ele><time>2026-05-01T06:38:27Z</time></trkpt><trkpt lat="45.409093253546516" lon="10.977092347404097"><ele>59.0</ele><time>2026-05-01T06:38:28Z</time></trkpt><trkpt lat="45.40921797446452" lon="10.977160796902625"><ele>59.0</ele><time>2026-05-01T06:38:29Z</time></trkpt><trkpt lat="45.40934218229043" lon="10.977222050799536"><ele>59.0</ele><time>2026-05-01T06:38:30Z</time></trkpt><trkpt lat="45.40947260202309" lon="10.97728185660416"><ele>59.0</ele><time>2026-05-01T06:38:31Z</time></trkpt><trkpt lat="45.40960505616651" lon="10.977344083909218"><ele>59.0</ele><time>2026-05-01T06:38:32Z</time></trkpt><trkpt lat="45.40973069507997" lon="10.977411367446853"><ele>58.5</ele><time>2026-05-01T06:38:33Z</time></trkpt><trkpt lat="45.40986037204587" lon="10.977477941345626"><ele>58.0</ele><time>2026-05-01T06:38:34Z</time></trkpt><trkpt lat="45.40998365072381" lon="10.977542880866114"><ele>57.5</ele><time>2026-05-01T06:38:35Z</time></trkpt><trkpt lat="45.410106595979364" lon="10.977606468243948"><ele>57.0</ele><time>2026-05-01T06:38:36Z</time></trkpt><trkpt lat="45.410228202522894" lon="10.977666575374563"><ele>57.0</ele><time>2026-05-01T06:38:37Z</time></trkpt><trkpt lat="45.41036208168232" lon="10.977726011770192"><ele>57.0</ele><time>2026-05-01T06:38:38Z</time></trkpt><trkpt lat="45.41048802638404" lon="10.977786098584378"><ele>57.0</ele><time>2026-05-01T06:38:39Z</time></trkpt><trkpt lat="45.41062016143254" lon="10.977854950428949"><ele>57.0</ele><time>2026-05-01T06:38:40Z</time></trkpt><trkpt lat="45.41075400915296" lon="10.977921805669627"><ele>57.75</ele><time>2026-05-01T06:38:41Z</time></trkpt><trkpt lat="45.410887154874985" lon="10.977985272582128"><ele>58.5</ele><time>2026-05-01T06:38:42Z</time></trkpt><trkpt lat="45.41102286942983" lon="10.978054712466276"><ele>59.25</ele><time>2026-05-01T06:38:43Z</time></trkpt><trkpt lat="45.41116027291193" lon="10.978125405006137"><ele>60.0</ele><time>2026-05-01T06:38:44Z</time></trkpt><trkpt lat="45.411292044617646" lon="10.97819361916845"><ele>60.0</ele><time>2026-05-01T06:38:45Z</time></trkpt><trkpt lat="45.41142568018663" lon="10.978260649114231"><ele>60.0</ele><time>2026-05-01T06:38:46Z</time></trkpt><trkpt lat="45.41156399919844" lon="10.978327441885035"><ele>60.0</ele><time>2026-05-01T06:38:47Z</time></trkpt><trkpt lat="45.41169890379196" lon="10.978392321873146"><ele>60.0</ele><time>2026-05-01T06:38:48Z</time></trkpt><trkpt lat="45.41183082750204" lon="10.978460511156198"><ele>60.33333333333333</ele><time>2026-05-01T06:38:49Z</time></trkpt><trkpt lat="45.41196246899383" lon="10.978526731363257"><ele>60.666666666666664</ele><time>2026-05-01T06:38:50Z</time></trkpt><trkpt lat="45.412093709187765" lon="10.978591666644858"><ele>61.0</ele><time>2026-05-01T06:38:51Z</time></trkpt><trkpt lat="45.412358806241095" lon="10.978718981724205"><ele>61.0</ele><time>2026-05-01T06:38:53Z</time></trkpt><trkpt lat="45.41249417117689" lon="10.978778572105107"><ele>61.0</ele><time>2026-05-01T06:38:54Z</time></trkpt><trkpt lat="45.412619379046" lon="10.9788471913267"><ele>61.0</ele><time>2026-05-01T06:38:55Z</time></trkpt><trkpt lat="45.4127560942829" lon="10.978914714004649"><ele>61.0</ele><time>2026-05-01T06:38:56Z</time></trkpt><trkpt lat="45.41287948839225" lon="10.9789799147345"><ele>61.0</ele><time>2026-05-01T06:38:57Z</time></trkpt><trkpt lat="45.412995076412585" lon="10.979036377599945"><ele>60.99999999999999</ele><time>2026-05-01T06:38:58Z</time></trkpt><trkpt lat="45.413104806349935" lon="10.979082720989005"><ele>60.99999999999999</ele><time>2026-05-01T06:38:59Z</time></trkpt><trkpt lat="45.41320247528609" lon="10.9791251504177"><ele>61.0</ele><time>2026-05-01T06:39:00Z</time></trkpt><trkpt lat="45.41327469964081" lon="10.979163363257426"><ele>61.0</ele><time>2026-05-01T06:39:01Z</time></trkpt><trkpt lat="45.413332680964025" lon="10.979227815814612"><ele>60.85714285714285</ele><time>2026-05-01T06:39:03Z</time></trkpt><trkpt lat="45.413356404715856" lon="10.979332059405717"><ele>60.71428571428571</ele><time>2026-05-01T06:39:05Z</time></trkpt><trkpt lat="45.41336994986528" lon="10.979433222446195"><ele>60.57142857142857</ele><time>2026-05-01T06:39:06Z</time></trkpt><trkpt lat="45.413394057396005" lon="10.979529009258671"><ele>60.42857142857142</ele><time>2026-05-01T06:39:07Z</time></trkpt><trkpt lat="45.41344352139346" lon="10.979597410872211"><ele>60.28571428571428</ele><time>2026-05-01T06:39:08Z</time></trkpt><trkpt lat="45.4135054355602" lon="10.97962881368332"><ele>60.142857142857146</ele><time>2026-05-01T06:39:09Z</time></trkpt><trkpt lat="45.41357859850326" lon="10.979624743374842"><ele>60.0</ele><time>2026-05-01T06:39:10Z</time></trkpt><trkpt lat="45.413649458485686" lon="10.979586501356904"><ele>60.0</ele><time>2026-05-01T06:39:11Z</time></trkpt><trkpt lat="45.41372175806595" lon="10.979553994199684"><ele>60.0</ele><time>2026-05-01T06:39:12Z</time></trkpt><trkpt lat="45.41380747257392" lon="10.979540085012918"><ele>60.0</ele><time>2026-05-01T06:39:13Z</time></trkpt><trkpt lat="45.41390472096362" lon="10.97954319492547"><ele>60.0</ele><time>2026-05-01T06:39:14Z</time></trkpt><trkpt lat="45.414013354650656" lon="10.979563404647253"><ele>60.0</ele><time>2026-05-01T06:39:15Z</time></trkpt><trkpt lat="45.4141292444638" lon="10.979596443686132"><ele>60.0</ele><time>2026-05-01T06:39:16Z</time></trkpt><trkpt lat="45.41424739168127" lon="10.97964674628269"><ele>60.0</ele><time>2026-05-01T06:39:17Z</time></trkpt><trkpt lat="45.414368566849504" lon="10.979708669663554"><ele>60.0</ele><time>2026-05-01T06:39:18Z</time></trkpt><trkpt lat="45.414497599889245" lon="10.97976975972772"><ele>60.0</ele><time>2026-05-01T06:39:19Z</time></trkpt><trkpt lat="45.414633098392414" lon="10.979835581600337"><ele>59.66666666666667</ele><time>2026-05-01T06:39:20Z</time></trkpt><trkpt lat="45.41477916946131" lon="10.979901063316566"><ele>59.333333333333336</ele><time>2026-05-01T06:39:21Z</time></trkpt><trkpt lat="45.41493302258196" lon="10.979973875491185"><ele>59.0</ele><time>2026-05-01T06:39:22Z</time></trkpt><trkpt lat="45.415100823702446" lon="10.980048414885921"><ele>59.0</ele><time>2026-05-01T06:39:23Z</time></trkpt><trkpt lat="45.41527114364627" lon="10.980128329606964"><ele>59.0</ele><time>2026-05-01T06:39:24Z</time></trkpt><trkpt lat="45.41544299481325" lon="10.980211958007043"><ele>59.0</ele><time>2026-05-01T06:39:25Z</time></trkpt><trkpt lat="45.41560983666771" lon="10.980297518886099"><ele>59.333333333333336</ele><time>2026-05-01T06:39:26Z</time></trkpt><trkpt lat="45.41577552414156" lon="10.980382559795551"><ele>59.66666666666667</ele><time>2026-05-01T06:39:27Z</time></trkpt><trkpt lat="45.415949132213676" lon="10.980465644380686"><ele>60.0</ele><time>2026-05-01T06:39:28Z</time></trkpt><trkpt lat="45.41612018682338" lon="10.980545016667868"><ele>60.0</ele><time>2026-05-01T06:39:29Z</time></trkpt><trkpt lat="45.416286429622374" lon="10.980628917703749"><ele>60.0</ele><time>2026-05-01T06:39:30Z</time></trkpt><trkpt lat="45.416441157162076" lon="10.98071205019305"><ele>60.0</ele><time>2026-05-01T06:39:31Z</time></trkpt><trkpt lat="45.41658725464205" lon="10.980791408043038"><ele>60.25</ele><time>2026-05-01T06:39:32Z</time></trkpt><trkpt lat="45.416729739253924" lon="10.980867751938838"><ele>60.5</ele><time>2026-05-01T06:39:33Z</time></trkpt><trkpt lat="45.41687157276339" lon="10.980937475877331"><ele>60.75</ele><time>2026-05-01T06:39:34Z</time></trkpt><trkpt lat="45.41700170640706" lon="10.98100099780162"><ele>61.0</ele><time>2026-05-01T06:39:35Z</time></trkpt><trkpt lat="45.41712544334774" lon="10.981069926749626"><ele>60.75</ele><time>2026-05-01T06:39:36Z</time></trkpt><trkpt lat="45.417248860323596" lon="10.981133087387233"><ele>60.5</ele><time>2026-05-01T06:39:37Z</time></trkpt><trkpt lat="45.41736431812314" lon="10.981190252167513"><ele>60.25</ele><time>2026-05-01T06:39:38Z</time></trkpt><trkpt lat="45.41747479686242" lon="10.981257417380265"><ele>60.0</ele><time>2026-05-01T06:39:39Z</time></trkpt><trkpt lat="45.41756887358735" lon="10.981304645641554"><ele>60.0</ele><time>2026-05-01T06:39:40Z</time></trkpt><trkpt lat="45.41763871986947" lon="10.981335883372777"><ele>60.0</ele><time>2026-05-01T06:39:41Z</time></trkpt><trkpt lat="45.4177027810773" lon="10.981367640866823"><ele>60.0</ele><time>2026-05-01T06:39:43Z</time></trkpt><trkpt lat="45.417769809041474" lon="10.981390082585381"><ele>60.0</ele><time>2026-05-01T06:39:46Z</time></trkpt><trkpt lat="45.41783080399005" lon="10.981414679077496"><ele>60.0</ele><time>2026-05-01T06:40:16Z</time></trkpt><trkpt lat="45.417933896856646" lon="10.981467853716136"><ele>60.0</ele><time>2026-05-01T06:40:18Z</time></trkpt><trkpt lat="45.418002678667506" lon="10.981509736379845"><ele>60.5</ele><time>2026-05-01T06:40:19Z</time></trkpt><trkpt lat="45.41807359795247" lon="10.981549637746514"><ele>61.0</ele><time>2026-05-01T06:40:20Z</time></trkpt><trkpt lat="45.41814887017255" lon="10.981588710074913"><ele>61.5</ele><time>2026-05-01T06:40:21Z</time></trkpt><trkpt lat="45.418228061539615" lon="10.981623770486229"><ele>62.0</ele><time>2026-05-01T06:40:22Z</time></trkpt><trkpt lat="45.418309795737024" lon="10.981659012625661"><ele>62.5</ele><time>2026-05-01T06:40:23Z</time></trkpt><trkpt lat="45.418396752726174" lon="10.981703421279423"><ele>63.0</ele><time>2026-05-01T06:40:24Z</time></trkpt><trkpt lat="45.41848283210437" lon="10.981748401092075"><ele>63.0</ele><time>2026-05-01T06:40:25Z</time></trkpt><trkpt lat="45.418563580684946" lon="10.981791495021609"><ele>63.0</ele><time>2026-05-01T06:40:26Z</time></trkpt><trkpt lat="45.418654558859224" lon="10.981839718687969"><ele>63.0</ele><time>2026-05-01T06:40:27Z</time></trkpt><trkpt lat="45.41875618206646" lon="10.98189524910605"><ele>63.0</ele><time>2026-05-01T06:40:28Z</time></trkpt><trkpt lat="45.41887224531195" lon="10.981958353315797"><ele>63.0</ele><time>2026-05-01T06:40:29Z</time></trkpt><trkpt lat="45.41899485904679" lon="10.982025941786306"><ele>63.0</ele><time>2026-05-01T06:40:30Z</time></trkpt><trkpt lat="45.419122773477405" lon="10.982090578420484"><ele>63.0</ele><time>2026-05-01T06:40:31Z</time></trkpt><trkpt lat="45.419249946145776" lon="10.982154956230577"><ele>63.0</ele><time>2026-05-01T06:40:32Z</time></trkpt><trkpt lat="45.41937481904719" lon="10.9822178557137"><ele>63.0</ele><time>2026-05-01T06:40:33Z</time></trkpt><trkpt lat="45.419493720223606" lon="10.98228107010787"><ele>63.0</ele><time>2026-05-01T06:40:34Z</time></trkpt><trkpt lat="45.4196139778394" lon="10.982338489817527"><ele>63.0</ele><time>2026-05-01T06:40:35Z</time></trkpt><trkpt lat="45.41973209477081" lon="10.982396018210506"><ele>63.0</ele><time>2026-05-01T06:40:36Z</time></trkpt><trkpt lat="45.419848165775605" lon="10.982451412697548"><ele>63.0</ele><time>2026-05-01T06:40:37Z</time></trkpt><trkpt lat="45.41996977362257" lon="10.982511899889872"><ele>63.25</ele><time>2026-05-01T06:40:38Z</time></trkpt><trkpt lat="45.420090523638905" lon="10.98257127110633"><ele>63.5</ele><time>2026-05-01T06:40:39Z</time></trkpt><trkpt lat="45.42020832645239" lon="10.982630561304106"><ele>63.75</ele><time>2026-05-01T06:40:40Z</time></trkpt><trkpt lat="45.42032536015713" lon="10.982688283340073"><ele>64.0</ele><time>2026-05-01T06:40:41Z</time></trkpt><trkpt lat="45.420438132920516" lon="10.982745429753685"><ele>63.75</ele><time>2026-05-01T06:40:42Z</time></trkpt><trkpt lat="45.42055046695213" lon="10.98280017699531"><ele>63.5</ele><time>2026-05-01T06:40:43Z</time></trkpt><trkpt lat="45.420667829924625" lon="10.982859059634706"><ele>63.25</ele><time>2026-05-01T06:40:44Z</time></trkpt><trkpt lat="45.42078886404755" lon="10.982923675974464"><ele>63.0</ele><time>2026-05-01T06:40:45Z</time></trkpt><trkpt lat="45.42091296789038" lon="10.982986579134955"><ele>63.0</ele><time>2026-05-01T06:40:46Z</time></trkpt><trkpt lat="45.42104571664933" lon="10.983045028911388"><ele>63.0</ele><time>2026-05-01T06:40:47Z</time></trkpt><trkpt lat="45.42117339480758" lon="10.98311094354171"><ele>63.0</ele><time>2026-05-01T06:40:48Z</time></trkpt><trkpt lat="45.42130515682028" lon="10.983177269093629"><ele>63.0</ele><time>2026-05-01T06:40:49Z</time></trkpt><trkpt lat="45.4214438073254" lon="10.983246177349848"><ele>63.0</ele><time>2026-05-01T06:40:50Z</time></trkpt><trkpt lat="45.421582618029326" lon="10.983318835594647"><ele>63.0</ele><time>2026-05-01T06:40:51Z</time></trkpt><trkpt lat="45.421724654280915" lon="10.983391497496148"><ele>63.0</ele><time>2026-05-01T06:40:52Z</time></trkpt><trkpt lat="45.421865140929626" lon="10.98345999766172"><ele>63.0</ele><time>2026-05-01T06:40:53Z</time></trkpt><trkpt lat="45.42200428165451" lon="10.983528767809034"><ele>63.0</ele><time>2026-05-01T06:40:54Z</time></trkpt><trkpt lat="45.42214559444" lon="10.983597476973788"><ele>63.0</ele><time>2026-05-01T06:40:55Z</time></trkpt><trkpt lat="45.42227705588182" lon="10.983666686001186"><ele>63.0</ele><time>2026-05-01T06:40:56Z</time></trkpt><trkpt lat="45.422406596776895" lon="10.983735244586654"><ele>63.0</ele><time>2026-05-01T06:40:57Z</time></trkpt><trkpt lat="45.42253344076192" lon="10.983798131856503"><ele>63.0</ele><time>2026-05-01T06:40:58Z</time></trkpt><trkpt lat="45.42265648015536" lon="10.98386179588249"><ele>63.0</ele><time>2026-05-01T06:40:59Z</time></trkpt><trkpt lat="45.42278137984812" lon="10.983923286788531"><ele>63.0</ele><time>2026-05-01T06:41:00Z</time></trkpt><trkpt lat="45.42290800991178" lon="10.983981585815792"><ele>63.0</ele><time>2026-05-01T06:41:01Z</time></trkpt><trkpt lat="45.423034935518615" lon="10.984041080226822"><ele>63.0</ele><time>2026-05-01T06:41:02Z</time></trkpt><trkpt lat="45.42316178257744" lon="10.984102015584453"><ele>63.0</ele><time>2026-05-01T06:41:03Z</time></trkpt><trkpt lat="45.42328113290081" lon="10.98416430859149"><ele>63.0</ele><time>2026-05-01T06:41:04Z</time></trkpt><trkpt lat="45.4234043705838" lon="10.98422776006255"><ele>63.0</ele><time>2026-05-01T06:41:05Z</time></trkpt><trkpt lat="45.423527270367536" lon="10.984290492038193"><ele>63.25</ele><time>2026-05-01T06:41:06Z</time></trkpt><trkpt lat="45.4236604461788" lon="10.984356280606336"><ele>63.5</ele><time>2026-05-01T06:41:07Z</time></trkpt><trkpt lat="45.42379148952578" lon="10.984423556465993"><ele>63.75</ele><time>2026-05-01T06:41:08Z</time></trkpt><trkpt lat="45.42392952161361" lon="10.984492136967972"><ele>64.0</ele><time>2026-05-01T06:41:09Z</time></trkpt><trkpt lat="45.42406804725428" lon="10.984561224843288"><ele>64.0</ele><time>2026-05-01T06:41:10Z</time></trkpt><trkpt lat="45.42421518950196" lon="10.98463423683908"><ele>64.0</ele><time>2026-05-01T06:41:11Z</time></trkpt><trkpt lat="45.42436489980099" lon="10.98470633382839"><ele>64.0</ele><time>2026-05-01T06:41:12Z</time></trkpt><trkpt lat="45.424513418749804" lon="10.984783035849723"><ele>63.666666666666664</ele><time>2026-05-01T06:41:13Z</time></trkpt><trkpt lat="45.42465983712904" lon="10.984857103108842"><ele>63.33333333333333</ele><time>2026-05-01T06:41:14Z</time></trkpt><trkpt lat="45.42480705054242" lon="10.984931986838987"><ele>63.0</ele><time>2026-05-01T06:41:15Z</time></trkpt><trkpt lat="45.42495264623088" lon="10.985003158741591"><ele>61.33333333333333</ele><time>2026-05-01T06:41:16Z</time></trkpt><trkpt lat="45.42510142706371" lon="10.985074828568527"><ele>59.666666666666664</ele><time>2026-05-01T06:41:17Z</time></trkpt><trkpt lat="45.42525598092979" lon="10.98515189363326"><ele>58.0</ele><time>2026-05-01T06:41:18Z</time></trkpt><trkpt lat="45.42541641892415" lon="10.985230422476953"><ele>58.0</ele><time>2026-05-01T06:41:19Z</time></trkpt><trkpt lat="45.425585659280806" lon="10.985313895994771"><ele>58.0</ele><time>2026-05-01T06:41:20Z</time></trkpt><trkpt lat="45.42575373493935" lon="10.985397431883968"><ele>58.0</ele><time>2026-05-01T06:41:21Z</time></trkpt><trkpt lat="45.425921003294" lon="10.985491196231818"><ele>58.0</ele><time>2026-05-01T06:41:22Z</time></trkpt><trkpt lat="45.42609156854702" lon="10.985582394807613"><ele>58.0</ele><time>2026-05-01T06:41:23Z</time></trkpt><trkpt lat="45.42625120957346" lon="10.985672107057665"><ele>58.0</ele><time>2026-05-01T06:41:24Z</time></trkpt><trkpt lat="45.42642170830588" lon="10.98576488287041"><ele>58.0</ele><time>2026-05-01T06:41:25Z</time></trkpt><trkpt lat="45.426590828958425" lon="10.985858509166967"><ele>58.0</ele><time>2026-05-01T06:41:26Z</time></trkpt><trkpt lat="45.4267558964043" lon="10.98595119823562"><ele>58.0</ele><time>2026-05-01T06:41:27Z</time></trkpt><trkpt lat="45.42693049161203" lon="10.986042033524694"><ele>58.0</ele><time>2026-05-01T06:41:28Z</time></trkpt><trkpt lat="45.42710084095728" lon="10.986134915392185"><ele>58.0</ele><time>2026-05-01T06:41:29Z</time></trkpt><trkpt lat="45.427271384484875" lon="10.986226217879203"><ele>58.0</ele><time>2026-05-01T06:41:30Z</time></trkpt><trkpt lat="45.427444703639466" lon="10.986315276583404"><ele>59.0</ele><time>2026-05-01T06:41:31Z</time></trkpt><trkpt lat="45.42761593518393" lon="10.986402219348063"><ele>60.0</ele><time>2026-05-01T06:41:32Z</time></trkpt><trkpt lat="45.4277872243099" lon="10.986488275601067"><ele>61.0</ele><time>2026-05-01T06:41:33Z</time></trkpt><trkpt lat="45.427956061933294" lon="10.986575882067894"><ele>61.33333333333333</ele><time>2026-05-01T06:41:34Z</time></trkpt><trkpt lat="45.428121717809226" lon="10.986657570816291"><ele>61.66666666666667</ele><time>2026-05-01T06:41:35Z</time></trkpt><trkpt lat="45.428276255057646" lon="10.98673597671745"><ele>62.0</ele><time>2026-05-01T06:41:36Z</time></trkpt><trkpt lat="45.428426632859434" lon="10.98681082707329"><ele>62.0</ele><time>2026-05-01T06:41:37Z</time></trkpt><trkpt lat="45.42857093976166" lon="10.986889518853133"><ele>62.0</ele><time>2026-05-01T06:41:38Z</time></trkpt><trkpt lat="45.42871994487974" lon="10.986962305124806"><ele>62.0</ele><time>2026-05-01T06:41:39Z</time></trkpt><trkpt lat="45.42887228405092" lon="10.987046757851271"><ele>62.333333333333336</ele><time>2026-05-01T06:41:40Z</time></trkpt><trkpt lat="45.42902520140995" lon="10.987138335151528"><ele>62.66666666666667</ele><time>2026-05-01T06:41:41Z</time></trkpt><trkpt lat="45.42917804547599" lon="10.987222599663099"><ele>63.0</ele><time>2026-05-01T06:41:42Z</time></trkpt><trkpt lat="45.42933418573219" lon="10.987302801592131"><ele>63.0</ele><time>2026-05-01T06:41:43Z</time></trkpt><trkpt lat="45.429481106475784" lon="10.9873817166787"><ele>63.0</ele><time>2026-05-01T06:41:44Z</time></trkpt><trkpt lat="45.42963574608901" lon="10.987437583276558"><ele>63.0</ele><time>2026-05-01T06:41:45Z</time></trkpt><trkpt lat="45.4297539406487" lon="10.987491708223523"><ele>63.0</ele><time>2026-05-01T06:41:46Z</time></trkpt><trkpt lat="45.42984204909843" lon="10.987550947528176"><ele>62.8</ele><time>2026-05-01T06:41:47Z</time></trkpt><trkpt lat="45.42992303726889" lon="10.9875892927709"><ele>62.599999999999994</ele><time>2026-05-01T06:41:48Z</time></trkpt><trkpt lat="45.430010517872496" lon="10.987632801562242"><ele>62.400000000000006</ele><time>2026-05-01T06:41:50Z</time></trkpt><trkpt lat="45.43008696929717" lon="10.98767106764433"><ele>62.2</ele><time>2026-05-01T06:42:14Z</time></trkpt><trkpt lat="45.43020147883344" lon="10.987719960789992"><ele>62.0</ele><time>2026-05-01T06:42:16Z</time></trkpt><trkpt lat="45.43027037348499" lon="10.987759005743222"><ele>62.0</ele><time>2026-05-01T06:42:17Z</time></trkpt><trkpt lat="45.43034154747147" lon="10.987804954626634"><ele>62.0</ele><time>2026-05-01T06:42:18Z</time></trkpt><trkpt lat="45.43039658254565" lon="10.987850106320275"><ele>62.0</ele><time>2026-05-01T06:42:19Z</time></trkpt><trkpt lat="45.43036275979297" lon="10.988077326271167"><ele>62.0</ele><time>2026-05-01T06:42:20Z</time></trkpt><trkpt lat="45.430369702708916" lon="10.988184001621132"><ele>62.0</ele><time>2026-05-01T06:42:21Z</time></trkpt><trkpt lat="45.430361702420576" lon="10.988293812090339"><ele>62.0</ele><time>2026-05-01T06:42:22Z</time></trkpt><trkpt lat="45.430339791553585" lon="10.98840908366647"><ele>62.0</ele><time>2026-05-01T06:42:23Z</time></trkpt><trkpt lat="45.43030863294994" lon="10.988527443873009"><ele>62.0</ele><time>2026-05-01T06:42:24Z</time></trkpt><trkpt lat="45.43028162970952" lon="10.988656630142252"><ele>62.0</ele><time>2026-05-01T06:42:25Z</time></trkpt><trkpt lat="45.43024893778764" lon="10.98879260047831"><ele>62.0</ele><time>2026-05-01T06:42:26Z</time></trkpt><trkpt lat="45.43021953086757" lon="10.988941315650788"><ele>62.0</ele><time>2026-05-01T06:42:27Z</time></trkpt><trkpt lat="45.43019045261" lon="10.989101013047852"><ele>62.0</ele><time>2026-05-01T06:42:28Z</time></trkpt><trkpt lat="45.430158852473134" lon="10.989256854403012"><ele>62.0</ele><time>2026-05-01T06:42:29Z</time></trkpt><trkpt lat="45.43012245456063" lon="10.989432730776011"><ele>62.0</ele><time>2026-05-01T06:42:30Z</time></trkpt><trkpt lat="45.43008879388833" lon="10.989602072636382"><ele>62.0</ele><time>2026-05-01T06:42:31Z</time></trkpt><trkpt lat="45.43005074647012" lon="10.989785661587781"><ele>62.0</ele><time>2026-05-01T06:42:32Z</time></trkpt><trkpt lat="45.430013511403466" lon="10.98996750587053"><ele>62.0</ele><time>2026-05-01T06:42:33Z</time></trkpt><trkpt lat="45.42997729110236" lon="10.99015799804447"><ele>62.0</ele><time>2026-05-01T06:42:34Z</time></trkpt><trkpt lat="45.429943547265765" lon="10.990359434173774"><ele>61.0</ele><time>2026-05-01T06:42:35Z</time></trkpt><trkpt lat="45.429911327438155" lon="10.990563065448347"><ele>60.0</ele><time>2026-05-01T06:42:36Z</time></trkpt><trkpt lat="45.42988103101479" lon="10.990770581503439"><ele>59.0</ele><time>2026-05-01T06:42:37Z</time></trkpt><trkpt lat="45.42985582458011" lon="10.99098747914548"><ele>59.0</ele><time>2026-05-01T06:42:38Z</time></trkpt><trkpt lat="45.42983708764155" lon="10.991210251758217"><ele>59.0</ele><time>2026-05-01T06:42:39Z</time></trkpt><trkpt lat="45.42982108378862" lon="10.991434552967535"><ele>59.0</ele><time>2026-05-01T06:42:40Z</time></trkpt><trkpt lat="45.42980766662772" lon="10.991654613244735"><ele>58.66666666666667</ele><time>2026-05-01T06:42:41Z</time></trkpt><trkpt lat="45.42979387083619" lon="10.991879932284455"><ele>58.33333333333333</ele><time>2026-05-01T06:42:42Z</time></trkpt><trkpt lat="45.42976815392785" lon="10.992101352992728"><ele>58.0</ele><time>2026-05-01T06:42:43Z</time></trkpt><trkpt lat="45.4297553843103" lon="10.99232194339376"><ele>58.5</ele><time>2026-05-01T06:42:44Z</time></trkpt><trkpt lat="45.42973813884227" lon="10.99252917169501"><ele>59.0</ele><time>2026-05-01T06:42:45Z</time></trkpt><trkpt lat="45.42971893242578" lon="10.992744975077297"><ele>59.5</ele><time>2026-05-01T06:42:46Z</time></trkpt><trkpt lat="45.42970326922273" lon="10.992956654141052"><ele>60.0</ele><time>2026-05-01T06:42:47Z</time></trkpt><trkpt lat="45.42969152620878" lon="10.99315141662753"><ele>60.0</ele><time>2026-05-01T06:42:48Z</time></trkpt><trkpt lat="45.429680657929325" lon="10.993334107259399"><ele>60.0</ele><time>2026-05-01T06:42:49Z</time></trkpt><trkpt lat="45.42967630706807" lon="10.993496240839367"><ele>60.0</ele><time>2026-05-01T06:42:50Z</time></trkpt><trkpt lat="45.42969360384673" lon="10.993651428931225"><ele>60.0</ele><time>2026-05-01T06:42:51Z</time></trkpt><trkpt lat="45.4297313580286" lon="10.993796134047724"><ele>60.0</ele><time>2026-05-01T06:42:52Z</time></trkpt><trkpt lat="45.42978468004074" lon="10.993927517284432"><ele>60.0</ele><time>2026-05-01T06:42:53Z</time></trkpt><trkpt lat="45.42985272998026" lon="10.994066471837911"><ele>60.0</ele><time>2026-05-01T06:42:54Z</time></trkpt><trkpt lat="45.42992495686683" lon="10.994200785885594"><ele>60.0</ele><time>2026-05-01T06:42:55Z</time></trkpt><trkpt lat="45.42999722216285" lon="10.994314873456785"><ele>60.0</ele><time>2026-05-01T06:42:56Z</time></trkpt><trkpt lat="45.430066582430044" lon="10.994411933855593"><ele>60.0</ele><time>2026-05-01T06:42:57Z</time></trkpt><trkpt lat="45.4301298427412" lon="10.994499350082936"><ele>60.0</ele><time>2026-05-01T06:42:58Z</time></trkpt><trkpt lat="45.43018229531993" lon="10.994574038111512"><ele>60.0</ele><time>2026-05-01T06:42:59Z</time></trkpt><trkpt lat="45.43025422026495" lon="10.99470458024472"><ele>60.0</ele><time>2026-05-01T06:43:01Z</time></trkpt><trkpt lat="45.430288623257375" lon="10.994813795484893"><ele>60.0</ele><time>2026-05-01T06:43:03Z</time></trkpt><trkpt lat="45.43030355453966" lon="10.994903625893276"><ele>60.0</ele><time>2026-05-01T06:43:05Z</time></trkpt><trkpt lat="45.430317297584644" lon="10.99500922103888"><ele>60.0</ele><time>2026-05-01T06:43:08Z</time></trkpt><trkpt lat="45.430323563100885" lon="10.995121426546419"><ele>60.0</ele><time>2026-05-01T06:43:11Z</time></trkpt><trkpt lat="45.430321324697275" lon="10.995215222959732"><ele>60.0</ele><time>2026-05-01T06:43:13Z</time></trkpt><trkpt lat="45.43030402397627" lon="10.995305239322976"><ele>60.0</ele><time>2026-05-01T06:43:15Z</time></trkpt><trkpt lat="45.43027918639353" lon="10.995389208181498"><ele>60.0</ele><time>2026-05-01T06:43:17Z</time></trkpt><trkpt lat="45.4302560730505" lon="10.995472674950951"><ele>59.5</ele><time>2026-05-01T06:43:19Z</time></trkpt><trkpt lat="45.43022548567408" lon="10.995592066251573"><ele>59.0</ele><time>2026-05-01T06:43:22Z</time></trkpt><trkpt lat="45.43019668067594" lon="10.995696958199789"><ele>58.5</ele><time>2026-05-01T06:43:25Z</time></trkpt><trkpt lat="45.43016572021412" lon="10.995782081423034"><ele>58.0</ele><time>2026-05-01T06:43:29Z</time></trkpt><trkpt lat="45.43012427071027" lon="10.99590622853673"><ele>57.5</ele><time>2026-05-01T06:44:29Z</time></trkpt><trkpt lat="45.43009602966953" lon="10.996037897339301"><ele>57.0</ele><time>2026-05-01T06:44:31Z</time></trkpt><trkpt lat="45.4300708229453" lon="10.996133471931506"><ele>56.0</ele><time>2026-05-01T06:44:32Z</time></trkpt><trkpt lat="45.43004026461175" lon="10.99624826861223"><ele>55.0</ele><time>2026-05-01T06:44:33Z</time></trkpt><trkpt lat="45.43001149019871" lon="10.996360616436501"><ele>54.0</ele><time>2026-05-01T06:44:34Z</time></trkpt><trkpt lat="45.42997987250178" lon="10.996489110497812"><ele>53.0</ele><time>2026-05-01T06:44:35Z</time></trkpt><trkpt lat="45.42994568636376" lon="10.996623658436658"><ele>52.0</ele><time>2026-05-01T06:44:36Z</time></trkpt><trkpt lat="45.4299096344519" lon="10.996758001473024"><ele>51.8</ele><time>2026-05-01T06:44:37Z</time></trkpt><trkpt lat="45.42987334729661" lon="10.996898857636339"><ele>51.6</ele><time>2026-05-01T06:44:38Z</time></trkpt><trkpt lat="45.42983694021767" lon="10.997041795619841"><ele>51.4</ele><time>2026-05-01T06:44:39Z</time></trkpt><trkpt lat="45.42979840836402" lon="10.997187415059617"><ele>51.199999999999996</ele><time>2026-05-01T06:44:40Z</time></trkpt><trkpt lat="45.429757615513665" lon="10.9973388230656"><ele>51.0</ele><time>2026-05-01T06:44:41Z</time></trkpt><trkpt lat="45.42971753955742" lon="10.997489041009185"><ele>51.4</ele><time>2026-05-01T06:44:42Z</time></trkpt><trkpt lat="45.42968037479132" lon="10.997628210534184"><ele>51.8</ele><time>2026-05-01T06:44:43Z</time></trkpt><trkpt lat="45.4296526796143" lon="10.997753161456483"><ele>52.199999999999996</ele><time>2026-05-01T06:44:44Z</time></trkpt><trkpt lat="45.42962948913486" lon="10.997862084019577"><ele>52.599999999999994</ele><time>2026-05-01T06:44:45Z</time></trkpt><trkpt lat="45.42962676748665" lon="10.997961310312341"><ele>53.0</ele><time>2026-05-01T06:44:46Z</time></trkpt><trkpt lat="45.429700086701814" lon="10.99811547057055"><ele>53.0</ele><time>2026-05-01T06:44:48Z</time></trkpt><trkpt lat="45.429785430589824" lon="10.998151203469485"><ele>53.0</ele><time>2026-05-01T06:44:49Z</time></trkpt><trkpt lat="45.4298852908765" lon="10.998192613757034"><ele>53.0</ele><time>2026-05-01T06:44:50Z</time></trkpt><trkpt lat="45.430002346074396" lon="10.998260223481285"><ele>53.0</ele><time>2026-05-01T06:44:51Z</time></trkpt><trkpt lat="45.43012034389566" lon="10.99834672952387"><ele>53.25</ele><time>2026-05-01T06:44:52Z</time></trkpt><trkpt lat="45.430255144504905" lon="10.998432542969104"><ele>53.5</ele><time>2026-05-01T06:44:53Z</time></trkpt><trkpt lat="45.43039022774467" lon="10.998515028097858"><ele>53.75</ele><time>2026-05-01T06:44:54Z</time></trkpt><trkpt lat="45.43052418562984" lon="10.998597704610168"><ele>54.0</ele><time>2026-05-01T06:44:55Z</time></trkpt><trkpt lat="45.43065527564458" lon="10.998678480591783"><ele>54.25</ele><time>2026-05-01T06:44:56Z</time></trkpt><trkpt lat="45.43079024326881" lon="10.998758765504517"><ele>54.5</ele><time>2026-05-01T06:44:57Z</time></trkpt><trkpt lat="45.43092781098908" lon="10.998836483476413"><ele>54.75</ele><time>2026-05-01T06:44:58Z</time></trkpt><trkpt lat="45.43107079259933" lon="10.99890922495874"><ele>55.0</ele><time>2026-05-01T06:44:59Z</time></trkpt><trkpt lat="45.43121478355499" lon="10.998980955972863"><ele>54.33333333333333</ele><time>2026-05-01T06:45:00Z</time></trkpt><trkpt lat="45.43136206019812" lon="10.999057727479931"><ele>53.66666666666667</ele><time>2026-05-01T06:45:01Z</time></trkpt><trkpt lat="45.43151400926435" lon="10.99913668079124"><ele>53.0</ele><time>2026-05-01T06:45:02Z</time></trkpt><trkpt lat="45.43166417094246" lon="10.999214266696178"><ele>54.66666666666667</ele><time>2026-05-01T06:45:03Z</time></trkpt><trkpt lat="45.43181401623413" lon="10.999290617616147"><ele>56.33333333333333</ele><time>2026-05-01T06:45:04Z</time></trkpt><trkpt lat="45.43196387882014" lon="10.999368923229035"><ele>58.0</ele><time>2026-05-01T06:45:05Z</time></trkpt><trkpt lat="45.43211281201405" lon="10.999451700067645"><ele>56.666666666666664</ele><time>2026-05-01T06:45:06Z</time></trkpt><trkpt lat="45.43226385924384" lon="10.999536806070171"><ele>55.33333333333333</ele><time>2026-05-01T06:45:07Z</time></trkpt><trkpt lat="45.43240881543637" lon="10.999627605901706"><ele>54.0</ele><time>2026-05-01T06:45:08Z</time></trkpt><trkpt lat="45.4325575928579" lon="10.999724623407412"><ele>54.0</ele><time>2026-05-01T06:45:09Z</time></trkpt><trkpt lat="45.43270299255096" lon="10.999812880759452"><ele>54.0</ele><time>2026-05-01T06:45:10Z</time></trkpt><trkpt lat="45.43285884491757" lon="10.999898257036026"><ele>54.0</ele><time>2026-05-01T06:45:11Z</time></trkpt><trkpt lat="45.433005582748926" lon="10.999984867433653"><ele>54.75</ele><time>2026-05-01T06:45:12Z</time></trkpt><trkpt lat="45.43314509038081" lon="11.000076840751472"><ele>55.5</ele><time>2026-05-01T06:45:13Z</time></trkpt><trkpt lat="45.433283057419885" lon="11.000159325836167"><ele>56.25</ele><time>2026-05-01T06:45:14Z</time></trkpt><trkpt lat="45.433412856912476" lon="11.000235702445897"><ele>57.0</ele><time>2026-05-01T06:45:15Z</time></trkpt><trkpt lat="45.43353552984997" lon="11.000310130071057"><ele>57.0</ele><time>2026-05-01T06:45:16Z</time></trkpt><trkpt lat="45.43365090956689" lon="11.000387246245634"><ele>57.0</ele><time>2026-05-01T06:45:17Z</time></trkpt><trkpt lat="45.43376668994713" lon="11.0004552541807"><ele>57.0</ele><time>2026-05-01T06:45:18Z</time></trkpt><trkpt lat="45.43388091125742" lon="11.000519293037106"><ele>57.0</ele><time>2026-05-01T06:45:19Z</time></trkpt><trkpt lat="45.433995055893334" lon="11.000587637351279"><ele>56.8</ele><time>2026-05-01T06:45:20Z</time></trkpt><trkpt lat="45.43410398037046" lon="11.000658197360572"><ele>56.6</ele><time>2026-05-01T06:45:21Z</time></trkpt><trkpt lat="45.43420251068615" lon="11.000723431506854"><ele>56.39999999999999</ele><time>2026-05-01T06:45:22Z</time></trkpt><trkpt lat="45.43428300882009" lon="11.00078570422594"><ele>56.199999999999996</ele><time>2026-05-01T06:45:23Z</time></trkpt><trkpt lat="45.43435808310316" lon="11.000854352179442"><ele>56.0</ele><time>2026-05-01T06:45:24Z</time></trkpt><trkpt lat="45.43442074677131" lon="11.000919386361021"><ele>55.8</ele><time>2026-05-01T06:45:25Z</time></trkpt><trkpt lat="45.43449198203904" lon="11.000988881965444"><ele>55.599999999999994</ele><time>2026-05-01T06:45:27Z</time></trkpt><trkpt lat="45.43455909686836" lon="11.001044607936361"><ele>55.4</ele><time>2026-05-01T06:45:56Z</time></trkpt><trkpt lat="45.43465404848301" lon="11.001125544848215"><ele>55.2</ele><time>2026-05-01T06:45:58Z</time></trkpt><trkpt lat="45.4347460562259" lon="11.001227054278283"><ele>55.0</ele><time>2026-05-01T06:46:00Z</time></trkpt><trkpt lat="45.43480365662333" lon="11.001295264258669"><ele>55.4</ele><time>2026-05-01T06:46:01Z</time></trkpt><trkpt lat="45.43487237365954" lon="11.001309040733197"><ele>55.8</ele><time>2026-05-01T06:46:02Z</time></trkpt><trkpt lat="45.43489279052042" lon="11.00148988978961"><ele>56.2</ele><time>2026-05-01T06:46:03Z</time></trkpt><trkpt lat="45.434915994151424" lon="11.001621987777163"><ele>56.6</ele><time>2026-05-01T06:46:04Z</time></trkpt><trkpt lat="45.43492892800589" lon="11.00176458480289"><ele>57.0</ele><time>2026-05-01T06:46:05Z</time></trkpt><trkpt lat="45.43494338177164" lon="11.001905925915889"><ele>57.0</ele><time>2026-05-01T06:46:06Z</time></trkpt><trkpt lat="45.43495641889651" lon="11.00203045874932"><ele>57.0</ele><time>2026-05-01T06:46:07Z</time></trkpt><trkpt lat="45.43497208738446" lon="11.00214579159653"><ele>57.0</ele><time>2026-05-01T06:46:08Z</time></trkpt><trkpt lat="45.43499013019545" lon="11.002269307906525"><ele>57.0</ele><time>2026-05-01T06:46:09Z</time></trkpt><trkpt lat="45.435002105092266" lon="11.002402361701803"><ele>57.0</ele><time>2026-05-01T06:46:10Z</time></trkpt><trkpt lat="45.435021961478654" lon="11.002551614417062"><ele>57.2</ele><time>2026-05-01T06:46:11Z</time></trkpt><trkpt lat="45.435041114773284" lon="11.002702422679533"><ele>57.400000000000006</ele><time>2026-05-01T06:46:12Z</time></trkpt><trkpt lat="45.43505162315344" lon="11.002854927022211"><ele>57.599999999999994</ele><time>2026-05-01T06:46:13Z</time></trkpt><trkpt lat="45.435074618932546" lon="11.003016392971519"><ele>57.8</ele><time>2026-05-01T06:46:14Z</time></trkpt><trkpt lat="45.43509885680511" lon="11.00316885628966"><ele>58.0</ele><time>2026-05-01T06:46:15Z</time></trkpt><trkpt lat="45.43512506855191" lon="11.003326760967663"><ele>58.25</ele><time>2026-05-01T06:46:16Z</time></trkpt><trkpt lat="45.43514613339161" lon="11.003491182760108"><ele>58.5</ele><time>2026-05-01T06:46:17Z</time></trkpt><trkpt lat="45.43516892942414" lon="11.003651610494282"><ele>58.75</ele><time>2026-05-01T06:46:18Z</time></trkpt><trkpt lat="45.435190625956146" lon="11.003806509381713"><ele>59.0</ele><time>2026-05-01T06:46:19Z</time></trkpt><trkpt lat="45.43521655195486" lon="11.00397018184812"><ele>59.0</ele><time>2026-05-01T06:46:20Z</time></trkpt><trkpt lat="45.435236963227766" lon="11.004144905861706"><ele>59.0</ele><time>2026-05-01T06:46:21Z</time></trkpt><trkpt lat="45.43526741301256" lon="11.00433014007509"><ele>59.0</ele><time>2026-05-01T06:46:22Z</time></trkpt><trkpt lat="45.43529548400988" lon="11.004528874186459"><ele>59.0</ele><time>2026-05-01T06:46:23Z</time></trkpt><trkpt lat="45.43531237157754" lon="11.004729675733644"><ele>59.0</ele><time>2026-05-01T06:46:24Z</time></trkpt><trkpt lat="45.43533532363761" lon="11.004928577829553"><ele>59.0</ele><time>2026-05-01T06:46:25Z</time></trkpt><trkpt lat="45.43535252891676" lon="11.00514699998793"><ele>59.0</ele><time>2026-05-01T06:46:26Z</time></trkpt><trkpt lat="45.435360492006495" lon="11.005366348918685"><ele>59.0</ele><time>2026-05-01T06:46:27Z</time></trkpt><trkpt lat="45.4353435022824" lon="11.005592279891236"><ele>59.0</ele><time>2026-05-01T06:46:28Z</time></trkpt><trkpt lat="45.43529536656484" lon="11.005810276259014"><ele>59.0</ele><time>2026-05-01T06:46:29Z</time></trkpt><trkpt lat="45.43522083444368" lon="11.006012980718845"><ele>59.333333333333336</ele><time>2026-05-01T06:46:30Z</time></trkpt><trkpt lat="45.43512419557057" lon="11.00620197962296"><ele>59.66666666666667</ele><time>2026-05-01T06:46:31Z</time></trkpt><trkpt lat="45.43502181500425" lon="11.00637701026955"><ele>60.0</ele><time>2026-05-01T06:46:32Z</time></trkpt><trkpt lat="45.43491883177036" lon="11.006552738088484"><ele>60.0</ele><time>2026-05-01T06:46:33Z</time></trkpt><trkpt lat="45.43481837731836" lon="11.006725880890247"><ele>60.0</ele><time>2026-05-01T06:46:34Z</time></trkpt><trkpt lat="45.43472051557014" lon="11.006904360102196"><ele>60.0</ele><time>2026-05-01T06:46:35Z</time></trkpt><trkpt lat="45.43462117562404" lon="11.007084067302612"><ele>58.66666666666667</ele><time>2026-05-01T06:46:36Z</time></trkpt><trkpt lat="45.434525027791004" lon="11.007261484027921"><ele>57.333333333333336</ele><time>2026-05-01T06:46:37Z</time></trkpt><trkpt lat="45.43442711140491" lon="11.007440095277229"><ele>56.0</ele><time>2026-05-01T06:46:38Z</time></trkpt><trkpt lat="45.43432986716729" lon="11.007616514302917"><ele>55.333333333333336</ele><time>2026-05-01T06:46:39Z</time></trkpt><trkpt lat="45.43423304941828" lon="11.007792928136187"><ele>54.66666666666667</ele><time>2026-05-01T06:46:40Z</time></trkpt><trkpt lat="45.434135179469436" lon="11.00797161010489"><ele>54.0</ele><time>2026-05-01T06:46:41Z</time></trkpt><trkpt lat="45.43403771754817" lon="11.008143218517123"><ele>54.0</ele><time>2026-05-01T06:46:42Z</time></trkpt><trkpt lat="45.433937054950434" lon="11.00832003528657"><ele>54.0</ele><time>2026-05-01T06:46:43Z</time></trkpt><trkpt lat="45.433843166673775" lon="11.008490979330453"><ele>54.0</ele><time>2026-05-01T06:46:44Z</time></trkpt><trkpt lat="45.433753895490334" lon="11.008660468181695"><ele>54.0</ele><time>2026-05-01T06:46:45Z</time></trkpt><trkpt lat="45.433675571959675" lon="11.00883716360038"><ele>54.0</ele><time>2026-05-01T06:46:46Z</time></trkpt><trkpt lat="45.433636636430556" lon="11.009043055513285"><ele>54.0</ele><time>2026-05-01T06:46:47Z</time></trkpt><trkpt lat="45.43362911064763" lon="11.009259429679915"><ele>54.0</ele><time>2026-05-01T06:46:48Z</time></trkpt><trkpt lat="45.43366492743838" lon="11.009476000611835"><ele>54.0</ele><time>2026-05-01T06:46:49Z</time></trkpt><trkpt lat="45.43373684664014" lon="11.009676363844314"><ele>54.0</ele><time>2026-05-01T06:46:50Z</time></trkpt><trkpt lat="45.43383297475991" lon="11.00985012628516"><ele>54.0</ele><time>2026-05-01T06:46:51Z</time></trkpt><trkpt lat="45.433935505285795" lon="11.009972002379051"><ele>54.0</ele><time>2026-05-01T06:46:52Z</time></trkpt><trkpt lat="45.434028266351525" lon="11.01006612357111"><ele>54.0</ele><time>2026-05-01T06:46:53Z</time></trkpt><trkpt lat="45.43410009896766" lon="11.010152113038462"><ele>54.0</ele><time>2026-05-01T06:46:54Z</time></trkpt><trkpt lat="45.43415126962926" lon="11.010216694033968"><ele>54.0</ele><time>2026-05-01T06:46:55Z</time></trkpt><trkpt lat="45.43420763043159" lon="11.010294071355649"><ele>54.0</ele><time>2026-05-01T06:46:57Z</time></trkpt><trkpt lat="45.43428612191828" lon="11.010396424588627"><ele>54.0</ele><time>2026-05-01T06:47:12Z</time></trkpt><trkpt lat="45.43434121364298" lon="11.010466892771815"><ele>54.0</ele><time>2026-05-01T06:47:13Z</time></trkpt><trkpt lat="45.434411248259565" lon="11.01055732659575"><ele>54.0</ele><time>2026-05-01T06:47:14Z</time></trkpt><trkpt lat="45.434484022084476" lon="11.01065397930112"><ele>54.0</ele><time>2026-05-01T06:47:15Z</time></trkpt><trkpt lat="45.4345722106072" lon="11.01076881353507"><ele>54.0</ele><time>2026-05-01T06:47:16Z</time></trkpt><trkpt lat="45.434669958127216" lon="11.010897662952427"><ele>54.0</ele><time>2026-05-01T06:47:17Z</time></trkpt><trkpt lat="45.434767497871356" lon="11.011023737371936"><ele>54.0</ele><time>2026-05-01T06:47:18Z</time></trkpt><trkpt lat="45.43486795183135" lon="11.011155125467047"><ele>54.0</ele><time>2026-05-01T06:47:19Z</time></trkpt><trkpt lat="45.43497358833933" lon="11.011293751060153"><ele>54.0</ele><time>2026-05-01T06:47:20Z</time></trkpt><trkpt lat="45.43508381454428" lon="11.01143674203507"><ele>54.0</ele><time>2026-05-01T06:47:21Z</time></trkpt><trkpt lat="45.43519633655768" lon="11.011585560395195"><ele>54.0</ele><time>2026-05-01T06:47:22Z</time></trkpt><trkpt lat="45.4353040634723" lon="11.011730603128044"><ele>54.0</ele><time>2026-05-01T06:47:23Z</time></trkpt><trkpt lat="45.435405288922745" lon="11.011884230517044"><ele>54.0</ele><time>2026-05-01T06:47:24Z</time></trkpt><trkpt lat="45.43549907347329" lon="11.012056382820312"><ele>54.0</ele><time>2026-05-01T06:47:25Z</time></trkpt><trkpt lat="45.43558066341701" lon="11.012235000829477"><ele>54.0</ele><time>2026-05-01T06:47:26Z</time></trkpt><trkpt lat="45.43565796685869" lon="11.012423489698017"><ele>54.0</ele><time>2026-05-01T06:47:27Z</time></trkpt><trkpt lat="45.4357360305311" lon="11.012616898430124"><ele>54.0</ele><time>2026-05-01T06:47:28Z</time></trkpt><trkpt lat="45.43581826245382" lon="11.012809555988593"><ele>54.0</ele><time>2026-05-01T06:47:29Z</time></trkpt><trkpt lat="45.43589865036306" lon="11.013004051403538"><ele>54.0</ele><time>2026-05-01T06:47:30Z</time></trkpt><trkpt lat="45.43598268709624" lon="11.013200580309542"><ele>54.0</ele><time>2026-05-01T06:47:31Z</time></trkpt><trkpt lat="45.43606476965086" lon="11.013391457115514"><ele>53.66666666666667</ele><time>2026-05-01T06:47:32Z</time></trkpt><trkpt lat="45.43614542828582" lon="11.01357835735748"><ele>53.333333333333336</ele><time>2026-05-01T06:47:33Z</time></trkpt><trkpt lat="45.4362263985053" lon="11.013755104806334"><ele>53.0</ele><time>2026-05-01T06:47:34Z</time></trkpt><trkpt lat="45.43630926665304" lon="11.013931561346098"><ele>53.0</ele><time>2026-05-01T06:47:35Z</time></trkpt><trkpt lat="45.43639850496509" lon="11.01410768334831"><ele>53.0</ele><time>2026-05-01T06:47:36Z</time></trkpt><trkpt lat="45.4364935727147" lon="11.014273228700388"><ele>53.0</ele><time>2026-05-01T06:47:37Z</time></trkpt><trkpt lat="45.43659559805933" lon="11.014420049163254"><ele>53.0</ele><time>2026-05-01T06:47:38Z</time></trkpt><trkpt lat="45.436704494558825" lon="11.014555872980942"><ele>53.0</ele><time>2026-05-01T06:47:39Z</time></trkpt><trkpt lat="45.43681614627891" lon="11.014680782376857"><ele>53.0</ele><time>2026-05-01T06:47:40Z</time></trkpt><trkpt lat="45.43693417660463" lon="11.014801883025378"><ele>53.0</ele><time>2026-05-01T06:47:41Z</time></trkpt><trkpt lat="45.43705066528665" lon="11.014916450955802"><ele>53.0</ele><time>2026-05-01T06:47:42Z</time></trkpt><trkpt lat="45.437168902764945" lon="11.015015471727377"><ele>53.0</ele><time>2026-05-01T06:47:43Z</time></trkpt><trkpt lat="45.437290951490475" lon="11.015089142432556"><ele>53.0</ele><time>2026-05-01T06:47:44Z</time></trkpt><trkpt lat="45.437399185380535" lon="11.015189417550973"><ele>53.0</ele><time>2026-05-01T06:47:45Z</time></trkpt><trkpt lat="45.437540481799125" lon="11.01515002355632"><ele>53.0</ele><time>2026-05-01T06:47:46Z</time></trkpt><trkpt lat="45.437668417828576" lon="11.015140181972615"><ele>53.0</ele><time>2026-05-01T06:47:47Z</time></trkpt><trkpt lat="45.43779361270986" lon="11.01512408850956"><ele>53.0</ele><time>2026-05-01T06:47:48Z</time></trkpt><trkpt lat="45.437918878291796" lon="11.015107640207724"><ele>53.0</ele><time>2026-05-01T06:47:49Z</time></trkpt><trkpt lat="45.438044043843796" lon="11.015091091987056"><ele>53.0</ele><time>2026-05-01T06:47:50Z</time></trkpt><trkpt lat="45.438166837273585" lon="11.01507861811593"><ele>53.75</ele><time>2026-05-01T06:47:51Z</time></trkpt><trkpt lat="45.43828808756386" lon="11.015065945841231"><ele>54.5</ele><time>2026-05-01T06:47:52Z</time></trkpt><trkpt lat="45.438404959944535" lon="11.015053711375122"><ele>55.25</ele><time>2026-05-01T06:47:53Z</time></trkpt><trkpt lat="45.43851614561486" lon="11.01504385619017"><ele>56.0</ele><time>2026-05-01T06:47:54Z</time></trkpt><trkpt lat="45.43862775477109" lon="11.015040306855942"><ele>56.0</ele><time>2026-05-01T06:47:55Z</time></trkpt><trkpt lat="45.43873352564238" lon="11.015028152950658"><ele>55.99999999999999</ele><time>2026-05-01T06:47:56Z</time></trkpt><trkpt lat="45.438826234193314" lon="11.015025604006427"><ele>55.99999999999999</ele><time>2026-05-01T06:47:57Z</time></trkpt><trkpt lat="45.43889543699805" lon="11.015030399162873"><ele>56.0</ele><time>2026-05-01T06:47:58Z</time></trkpt><trkpt lat="45.438990056578405" lon="11.015067322381656"><ele>56.0</ele><time>2026-05-01T06:48:00Z</time></trkpt><trkpt lat="45.439095537157364" lon="11.015116596698673"><ele>56.66666666666667</ele><time>2026-05-01T06:48:02Z</time></trkpt><trkpt lat="45.439170089903875" lon="11.015145834065574"><ele>57.333333333333336</ele><time>2026-05-01T06:48:03Z</time></trkpt><trkpt lat="45.43925318967166" lon="11.015181869816214"><ele>58.0</ele><time>2026-05-01T06:48:04Z</time></trkpt><trkpt lat="45.43933793334296" lon="11.015222029300405"><ele>58.66666666666667</ele><time>2026-05-01T06:48:05Z</time></trkpt><trkpt lat="45.439425725370484" lon="11.015272482487118"><ele>59.333333333333336</ele><time>2026-05-01T06:48:06Z</time></trkpt><trkpt lat="45.439517803239305" lon="11.015318402351744"><ele>60.0</ele><time>2026-05-01T06:48:07Z</time></trkpt><trkpt lat="45.43961487198934" lon="11.01536580586241"><ele>60.333333333333336</ele><time>2026-05-01T06:48:08Z</time></trkpt><trkpt lat="45.439715904869175" lon="11.015406039372026"><ele>60.66666666666667</ele><time>2026-05-01T06:48:09Z</time></trkpt><trkpt lat="45.439812024215065" lon="11.015444094969235"><ele>61.0</ele><time>2026-05-01T06:48:10Z</time></trkpt><trkpt lat="45.439905171483254" lon="11.015478551034775"><ele>61.333333333333336</ele><time>2026-05-01T06:48:11Z</time></trkpt><trkpt lat="45.4399794917514" lon="11.015507267910948"><ele>61.66666666666667</ele><time>2026-05-01T06:48:12Z</time></trkpt><trkpt lat="45.44004844969489" lon="11.015533975457279"><ele>62.0</ele><time>2026-05-01T06:48:13Z</time></trkpt><trkpt lat="45.440112856328" lon="11.01555491071092"><ele>62.0</ele><time>2026-05-01T06:48:14Z</time></trkpt><trkpt lat="45.440175638618314" lon="11.015579451240407"><ele>62.00000000000001</ele><time>2026-05-01T06:48:15Z</time></trkpt><trkpt lat="45.44024131459262" lon="11.015607442687369"><ele>62.0</ele><time>2026-05-01T06:48:16Z</time></trkpt><trkpt lat="45.44031074492979" lon="11.015638238524152"><ele>62.0</ele><time>2026-05-01T06:48:17Z</time></trkpt><trkpt lat="45.4403785301721" lon="11.015669071240731"><ele>62.00000000000001</ele><time>2026-05-01T06:48:18Z</time></trkpt><trkpt lat="45.44045807202562" lon="11.015693816710922"><ele>62.0</ele><time>2026-05-01T06:48:19Z</time></trkpt><trkpt lat="45.44053924980564" lon="11.01572805158701"><ele>62.0</ele><time>2026-05-01T06:48:20Z</time></trkpt><trkpt lat="45.44062737890988" lon="11.015763019230935"><ele>63.0</ele><time>2026-05-01T06:48:21Z</time></trkpt><trkpt lat="45.44072035045098" lon="11.015804155374397"><ele>64.0</ele><time>2026-05-01T06:48:22Z</time></trkpt><trkpt lat="45.440814739285116" lon="11.015853510974615"><ele>65.0</ele><time>2026-05-01T06:48:23Z</time></trkpt><trkpt lat="45.44090696440069" lon="11.015916696823203"><ele>66.0</ele><time>2026-05-01T06:48:24Z</time></trkpt><trkpt lat="45.440989146899746" lon="11.015976946817258"><ele>67.0</ele><time>2026-05-01T06:48:25Z</time></trkpt><trkpt lat="45.441064115717296" lon="11.016026949725843"><ele>67.0</ele><time>2026-05-01T06:48:26Z</time></trkpt><trkpt lat="45.441130796879676" lon="11.016080526627404"><ele>67.0</ele><time>2026-05-01T06:48:27Z</time></trkpt><trkpt lat="45.441189643573054" lon="11.016114874473779"><ele>67.0</ele><time>2026-05-01T06:48:28Z</time></trkpt><trkpt lat="45.44129096991089" lon="11.016176954696991"><ele>67.0</ele><time>2026-05-01T06:48:30Z</time></trkpt><trkpt lat="45.441376272700246" lon="11.016241185428473"><ele>67.0</ele><time>2026-05-01T06:48:32Z</time></trkpt><trkpt lat="45.44143914201276" lon="11.016279006796017"><ele>67.0</ele><time>2026-05-01T06:48:33Z</time></trkpt><trkpt lat="45.44150579006054" lon="11.016323101533658"><ele>67.2</ele><time>2026-05-01T06:48:34Z</time></trkpt><trkpt lat="45.441579719779426" lon="11.0163727385689"><ele>67.4</ele><time>2026-05-01T06:48:35Z</time></trkpt><trkpt lat="45.441658481431624" lon="11.016422444089658"><ele>67.6</ele><time>2026-05-01T06:48:36Z</time></trkpt><trkpt lat="45.44174567178392" lon="11.016480465061639"><ele>67.8</ele><time>2026-05-01T06:48:37Z</time></trkpt><trkpt lat="45.44183558730917" lon="11.016548077366963"><ele>68.0</ele><time>2026-05-01T06:48:38Z</time></trkpt><trkpt lat="45.44193331349883" lon="11.016619253077833"><ele>68.5</ele><time>2026-05-01T06:48:39Z</time></trkpt><trkpt lat="45.442033843289074" lon="11.016695589312885"><ele>69.0</ele><time>2026-05-01T06:48:40Z</time></trkpt><trkpt lat="45.44212608089404" lon="11.016778619129822"><ele>69.5</ele><time>2026-05-01T06:48:41Z</time></trkpt><trkpt lat="45.44222426127733" lon="11.016873355051965"><ele>70.0</ele><time>2026-05-01T06:48:42Z</time></trkpt><trkpt lat="45.4423278086213" lon="11.016971569259328"><ele>70.4</ele><time>2026-05-01T06:48:43Z</time></trkpt><trkpt lat="45.44242540754953" lon="11.01706606238678"><ele>70.8</ele><time>2026-05-01T06:48:44Z</time></trkpt><trkpt lat="45.4425108427281" lon="11.017150620840402"><ele>71.2</ele><time>2026-05-01T06:48:45Z</time></trkpt><trkpt lat="45.442597231273645" lon="11.017226134509063"><ele>71.6</ele><time>2026-05-01T06:48:46Z</time></trkpt><trkpt lat="45.442693927745076" lon="11.017300275011403"><ele>72.0</ele><time>2026-05-01T06:48:47Z</time></trkpt><trkpt lat="45.44278239646418" lon="11.017390954702169"><ele>72.0</ele><time>2026-05-01T06:48:48Z</time></trkpt><trkpt lat="45.4428824704169" lon="11.017482005949653"><ele>72.0</ele><time>2026-05-01T06:48:49Z</time></trkpt><trkpt lat="45.44297961568253" lon="11.01758015586345"><ele>72.0</ele><time>2026-05-01T06:48:50Z</time></trkpt><trkpt lat="45.443080624610836" lon="11.017676845143335"><ele>72.0</ele><time>2026-05-01T06:48:51Z</time></trkpt><trkpt lat="45.443183826738036" lon="11.017769374422512"><ele>71.75</ele><time>2026-05-01T06:48:52Z</time></trkpt><trkpt lat="45.44328240687619" lon="11.017863754574305"><ele>71.5</ele><time>2026-05-01T06:48:53Z</time></trkpt><trkpt lat="45.44338119260844" lon="11.017951927786765"><ele>71.25</ele><time>2026-05-01T06:48:54Z</time></trkpt><trkpt lat="45.44347263345514" lon="11.018041160310888"><ele>71.0</ele><time>2026-05-01T06:48:55Z</time></trkpt><trkpt lat="45.44357041794458" lon="11.018131437148693"><ele>71.0</ele><time>2026-05-01T06:48:56Z</time></trkpt><trkpt lat="45.44367371650091" lon="11.018230114055386"><ele>71.0</ele><time>2026-05-01T06:48:57Z</time></trkpt><trkpt lat="45.44378357574911" lon="11.018333201219871"><ele>71.0</ele><time>2026-05-01T06:48:58Z</time></trkpt><trkpt lat="45.4438961674933" lon="11.018442858066617"><ele>71.0</ele><time>2026-05-01T06:48:59Z</time></trkpt><trkpt lat="45.44400981212908" lon="11.018548524055852"><ele>71.25</ele><time>2026-05-01T06:49:00Z</time></trkpt><trkpt lat="45.44411966323527" lon="11.018659494034717"><ele>71.5</ele><time>2026-05-01T06:49:01Z</time></trkpt><trkpt lat="45.444237559069066" lon="11.018765756300985"><ele>71.75</ele><time>2026-05-01T06:49:02Z</time></trkpt><trkpt lat="45.4443497499417" lon="11.018881470784404"><ele>72.0</ele><time>2026-05-01T06:49:03Z</time></trkpt><trkpt lat="45.444456562768885" lon="11.01898852316898"><ele>72.0</ele><time>2026-05-01T06:49:04Z</time></trkpt><trkpt lat="45.44456333787214" lon="11.019095581363791"><ele>72.0</ele><time>2026-05-01T06:49:05Z</time></trkpt><trkpt lat="45.444661677248966" lon="11.019216026580374"><ele>72.0</ele><time>2026-05-01T06:49:06Z</time></trkpt><trkpt lat="45.444763562121494" lon="11.019339150025734"><ele>72.0</ele><time>2026-05-01T06:49:07Z</time></trkpt><trkpt lat="45.44484619675039" lon="11.019476322018527"><ele>71.8</ele><time>2026-05-01T06:49:08Z</time></trkpt><trkpt lat="45.44492914549568" lon="11.0195814782724"><ele>71.6</ele><time>2026-05-01T06:49:09Z</time></trkpt><trkpt lat="45.44500873829188" lon="11.019674198523916"><ele>71.39999999999999</ele><time>2026-05-01T06:49:10Z</time></trkpt><trkpt lat="45.44509052125857" lon="11.019730118134571"><ele>71.2</ele><time>2026-05-01T06:49:11Z</time></trkpt><trkpt lat="45.44514743799724" lon="11.019799753391085"><ele>71.0</ele><time>2026-05-01T06:49:12Z</time></trkpt><trkpt lat="45.445227995490455" lon="11.019878088191197"><ele>71.0</ele><time>2026-05-01T06:49:14Z</time></trkpt><trkpt lat="45.445279632160656" lon="11.019931686546952"><ele>71.0</ele><time>2026-05-01T06:49:18Z</time></trkpt><trkpt lat="45.44538721669988" lon="11.020013445198742"><ele>71.0</ele><time>2026-05-01T06:49:29Z</time></trkpt><trkpt lat="45.445478196215966" lon="11.020057505578833"><ele>71.0</ele><time>2026-05-01T06:49:30Z</time></trkpt><trkpt lat="45.445594387746475" lon="11.020080244071863"><ele>71.0</ele><time>2026-05-01T06:49:31Z</time></trkpt><trkpt lat="45.44573166574627" lon="11.020089471934362"><ele>70.0</ele><time>2026-05-01T06:49:32Z</time></trkpt><trkpt lat="45.445885894662574" lon="11.020076101861285"><ele>69.0</ele><time>2026-05-01T06:49:33Z</time></trkpt><trkpt lat="45.44606163908394" lon="11.020093911695975"><ele>68.0</ele><time>2026-05-01T06:49:34Z</time></trkpt><trkpt lat="45.446224927337596" lon="11.020085810916768"><ele>68.33333333333334</ele><time>2026-05-01T06:49:35Z</time></trkpt><trkpt lat="45.44640770331567" lon="11.020055395998357"><ele>68.66666666666667</ele><time>2026-05-01T06:49:36Z</time></trkpt><trkpt lat="45.44659165498905" lon="11.020050303215363"><ele>69.0</ele><time>2026-05-01T06:49:37Z</time></trkpt><trkpt lat="45.44676312196836" lon="11.02004783090412"><ele>69.0</ele><time>2026-05-01T06:49:38Z</time></trkpt><trkpt lat="45.44692882620057" lon="11.02004235477939"><ele>69.0</ele><time>2026-05-01T06:49:39Z</time></trkpt><trkpt lat="45.4470821422624" lon="11.020041071691299"><ele>69.0</ele><time>2026-05-01T06:49:40Z</time></trkpt><trkpt lat="45.44722336638124" lon="11.020033239489697"><ele>69.0</ele><time>2026-05-01T06:49:41Z</time></trkpt><trkpt lat="45.44735371633141" lon="11.020028666739853"><ele>69.0</ele><time>2026-05-01T06:49:42Z</time></trkpt><trkpt lat="45.44748360994595" lon="11.020016662263906"><ele>69.0</ele><time>2026-05-01T06:49:43Z</time></trkpt><trkpt lat="45.44763101402487" lon="11.02003096687355"><ele>69.0</ele><time>2026-05-01T06:49:44Z</time></trkpt><trkpt lat="45.44778441797023" lon="11.020029485213284"><ele>69.0</ele><time>2026-05-01T06:49:45Z</time></trkpt><trkpt lat="45.447947963643344" lon="11.020010837989426"><ele>69.0</ele><time>2026-05-01T06:49:46Z</time></trkpt><trkpt lat="45.44811655708485" lon="11.020000042137891"><ele>69.0</ele><time>2026-05-01T06:49:47Z</time></trkpt><trkpt lat="45.44829384181466" lon="11.019994001919052"><ele>69.0</ele><time>2026-05-01T06:49:48Z</time></trkpt><trkpt lat="45.4484661108041" lon="11.01999094573444"><ele>69.0</ele><time>2026-05-01T06:49:49Z</time></trkpt><trkpt lat="45.448646768024076" lon="11.019975361186635"><ele>69.0</ele><time>2026-05-01T06:49:50Z</time></trkpt><trkpt lat="45.44881187133166" lon="11.0199689238095"><ele>69.0</ele><time>2026-05-01T06:49:51Z</time></trkpt><trkpt lat="45.44896631409413" lon="11.019965673818017"><ele>69.0</ele><time>2026-05-01T06:49:52Z</time></trkpt><trkpt lat="45.4491114474311" lon="11.019971081928812"><ele>69.0</ele><time>2026-05-01T06:49:53Z</time></trkpt><trkpt lat="45.449249146827356" lon="11.019970234719375"><ele>69.0</ele><time>2026-05-01T06:49:54Z</time></trkpt><trkpt lat="45.449369186130305" lon="11.01996555273571"><ele>69.0</ele><time>2026-05-01T06:49:55Z</time></trkpt><trkpt lat="45.44945919186723" lon="11.019957473030669"><ele>69.0</ele><time>2026-05-01T06:49:56Z</time></trkpt><trkpt lat="45.44954961033546" lon="11.019961148990205"><ele>69.0</ele><time>2026-05-01T06:49:58Z</time></trkpt><trkpt lat="45.449619222107295" lon="11.019970290357007"><ele>69.0</ele><time>2026-05-01T06:50:18Z</time></trkpt><trkpt lat="45.4496891512683" lon="11.019968839140358"><ele>69.0</ele><time>2026-05-01T06:50:19Z</time></trkpt><trkpt lat="45.44977635286889" lon="11.019966656354418"><ele>69.0</ele><time>2026-05-01T06:50:20Z</time></trkpt><trkpt lat="45.449881663666446" lon="11.019964118748133"><ele>69.4</ele><time>2026-05-01T06:50:21Z</time></trkpt><trkpt lat="45.44998399672454" lon="11.019961652891203"><ele>69.80000000000001</ele><time>2026-05-01T06:50:22Z</time></trkpt><trkpt lat="45.45009641620602" lon="11.019958943987895"><ele>70.19999999999999</ele><time>2026-05-01T06:50:23Z</time></trkpt><trkpt lat="45.450201491941826" lon="11.019956412040726"><ele>70.6</ele><time>2026-05-01T06:50:24Z</time></trkpt><trkpt lat="45.45032378928624" lon="11.019902831941998"><ele>71.0</ele><time>2026-05-01T06:50:25Z</time></trkpt><trkpt lat="45.450441246634476" lon="11.01990300861267"><ele>70.25</ele><time>2026-05-01T06:50:26Z</time></trkpt><trkpt lat="45.450561623703116" lon="11.019909712092035"><ele>69.5</ele><time>2026-05-01T06:50:27Z</time></trkpt><trkpt lat="45.450686616677984" lon="11.01991180261266"><ele>68.75</ele><time>2026-05-01T06:50:28Z</time></trkpt><trkpt lat="45.45081020532495" lon="11.01991442628126"><ele>68.0</ele><time>2026-05-01T06:50:29Z</time></trkpt><trkpt lat="45.45093773274093" lon="11.019952398280044"><ele>68.0</ele><time>2026-05-01T06:50:30Z</time></trkpt><trkpt lat="45.451063925006814" lon="11.019950294090409"><ele>68.0</ele><time>2026-05-01T06:50:31Z</time></trkpt><trkpt lat="45.45119874184641" lon="11.019948046094964"><ele>68.0</ele><time>2026-05-01T06:50:32Z</time></trkpt><trkpt lat="45.45132798047286" lon="11.019945891110808"><ele>68.0</ele><time>2026-05-01T06:50:33Z</time></trkpt><trkpt lat="45.45146103135209" lon="11.019943672550303"><ele>68.75</ele><time>2026-05-01T06:50:34Z</time></trkpt><trkpt lat="45.451587020333236" lon="11.019940199439219"><ele>69.5</ele><time>2026-05-01T06:50:35Z</time></trkpt><trkpt lat="45.451714986784935" lon="11.019933672304282"><ele>70.25</ele><time>2026-05-01T06:50:36Z</time></trkpt><trkpt lat="45.451848602137005" lon="11.019926476135396"><ele>71.0</ele><time>2026-05-01T06:50:37Z</time></trkpt><trkpt lat="45.45197634851019" lon="11.019915926558898"><ele>71.0</ele><time>2026-05-01T06:50:38Z</time></trkpt><trkpt lat="45.452115054698716" lon="11.01989139297868"><ele>71.0</ele><time>2026-05-01T06:50:39Z</time></trkpt><trkpt lat="45.45224678522924" lon="11.019864168712546"><ele>71.0</ele><time>2026-05-01T06:50:40Z</time></trkpt><trkpt lat="45.4523822615785" lon="11.019836090485198"><ele>71.0</ele><time>2026-05-01T06:50:41Z</time></trkpt><trkpt lat="45.452518298033404" lon="11.019805686308596"><ele>70.5</ele><time>2026-05-01T06:50:42Z</time></trkpt><trkpt lat="45.452661332329214" lon="11.01977193136633"><ele>70.0</ele><time>2026-05-01T06:50:43Z</time></trkpt><trkpt lat="45.452811505807375" lon="11.019735164966624"><ele>69.5</ele><time>2026-05-01T06:50:44Z</time></trkpt><trkpt lat="45.45295992477604" lon="11.019697868344625"><ele>69.0</ele><time>2026-05-01T06:50:45Z</time></trkpt><trkpt lat="45.45311985080052" lon="11.019656251241145"><ele>68.33333333333333</ele><time>2026-05-01T06:50:46Z</time></trkpt><trkpt lat="45.453279884712295" lon="11.019598408918226"><ele>67.66666666666666</ele><time>2026-05-01T06:50:47Z</time></trkpt><trkpt lat="45.45344208540147" lon="11.019560356912736"><ele>67.0</ele><time>2026-05-01T06:50:48Z</time></trkpt><trkpt lat="45.45359877976762" lon="11.019530895600907"><ele>67.0</ele><time>2026-05-01T06:50:49Z</time></trkpt><trkpt lat="45.45372109314561" lon="11.019475951225212"><ele>67.0</ele><time>2026-05-01T06:50:50Z</time></trkpt><trkpt lat="45.45379959267856" lon="11.019429522326218"><ele>67.0</ele><time>2026-05-01T06:50:51Z</time></trkpt><trkpt lat="45.45386851393964" lon="11.019395385228995"><ele>67.0</ele><time>2026-05-01T06:50:52Z</time></trkpt><trkpt lat="45.45398957414647" lon="11.019378106462595"><ele>67.0</ele><time>2026-05-01T06:50:54Z</time></trkpt><trkpt lat="45.4541114367319" lon="11.01934726253993"><ele>67.0</ele><time>2026-05-01T06:50:56Z</time></trkpt><trkpt lat="45.45423500241633" lon="11.019314070863594"><ele>67.0</ele><time>2026-05-01T06:50:58Z</time></trkpt><trkpt lat="45.4543177672499" lon="11.0193086532329"><ele>67.0</ele><time>2026-05-01T06:50:59Z</time></trkpt><trkpt lat="45.454411915503144" lon="11.019306385450896"><ele>67.0</ele><time>2026-05-01T06:51:00Z</time></trkpt><trkpt lat="45.45452053141996" lon="11.0192906456053"><ele>67.0</ele><time>2026-05-01T06:51:01Z</time></trkpt><trkpt lat="45.4546242307622" lon="11.019270518374997"><ele>67.0</ele><time>2026-05-01T06:51:02Z</time></trkpt><trkpt lat="45.45472237662332" lon="11.019248862687753"><ele>67.0</ele><time>2026-05-01T06:51:03Z</time></trkpt><trkpt lat="45.454818589267454" lon="11.019227246421021"><ele>67.0</ele><time>2026-05-01T06:51:04Z</time></trkpt><trkpt lat="45.45492646417927" lon="11.019203463402699"><ele>67.0</ele><time>2026-05-01T06:51:05Z</time></trkpt><trkpt lat="45.45503765287035" lon="11.019186672173442"><ele>67.0</ele><time>2026-05-01T06:51:06Z</time></trkpt><trkpt lat="45.45514043043601" lon="11.019167815732668"><ele>67.0</ele><time>2026-05-01T06:51:07Z</time></trkpt><trkpt lat="45.455244337230454" lon="11.019151916412264"><ele>67.0</ele><time>2026-05-01T06:51:08Z</time></trkpt><trkpt lat="45.45535463570278" lon="11.019133361467421"><ele>67.0</ele><time>2026-05-01T06:51:09Z</time></trkpt><trkpt lat="45.45546992566536" lon="11.019120007829317"><ele>67.0</ele><time>2026-05-01T06:51:10Z</time></trkpt><trkpt lat="45.455579323900814" lon="11.019105291150618"><ele>67.0</ele><time>2026-05-01T06:51:11Z</time></trkpt><trkpt lat="45.45568174462555" lon="11.019088618415685"><ele>66.75</ele><time>2026-05-01T06:51:12Z</time></trkpt><trkpt lat="45.455790732395286" lon="11.019076390954197"><ele>66.5</ele><time>2026-05-01T06:51:13Z</time></trkpt><trkpt lat="45.455907884510054" lon="11.019053277214073"><ele>66.25</ele><time>2026-05-01T06:51:14Z</time></trkpt><trkpt lat="45.45602349876001" lon="11.019031771587418"><ele>66.0</ele><time>2026-05-01T06:51:15Z</time></trkpt><trkpt lat="45.4561364355986" lon="11.019008959852984"><ele>66.0</ele><time>2026-05-01T06:51:16Z</time></trkpt><trkpt lat="45.45624968499737" lon="11.01899150985969"><ele>66.0</ele><time>2026-05-01T06:51:17Z</time></trkpt><trkpt lat="45.45635933709042" lon="11.018965879649631"><ele>66.0</ele><time>2026-05-01T06:51:18Z</time></trkpt><trkpt lat="45.45647367562904" lon="11.018941146134093"><ele>66.0</ele><time>2026-05-01T06:51:19Z</time></trkpt><trkpt lat="45.456589548780855" lon="11.018923359586314"><ele>66.8</ele><time>2026-05-01T06:51:20Z</time></trkpt><trkpt lat="45.45669816420699" lon="11.018895026332695"><ele>67.6</ele><time>2026-05-01T06:51:21Z</time></trkpt><trkpt lat="45.45680208135312" lon="11.018874970315185"><ele>68.4</ele><time>2026-05-01T06:51:22Z</time></trkpt><trkpt lat="45.45690348851998" lon="11.018854134016404"><ele>69.2</ele><time>2026-05-01T06:51:23Z</time></trkpt><trkpt lat="45.45700184817226" lon="11.01883501901744"><ele>70.0</ele><time>2026-05-01T06:51:24Z</time></trkpt><trkpt lat="45.457100939677375" lon="11.018817357239193"><ele>69.8</ele><time>2026-05-01T06:51:25Z</time></trkpt><trkpt lat="45.45720254426931" lon="11.018800397782401"><ele>69.6</ele><time>2026-05-01T06:51:26Z</time></trkpt><trkpt lat="45.457309918525986" lon="11.018786660972989"><ele>69.4</ele><time>2026-05-01T06:51:27Z</time></trkpt><trkpt lat="45.45741818061987" lon="11.0187630050596"><ele>69.2</ele><time>2026-05-01T06:51:28Z</time></trkpt><trkpt lat="45.45752755876272" lon="11.018736054548233"><ele>69.0</ele><time>2026-05-01T06:51:29Z</time></trkpt><trkpt lat="45.45762854580513" lon="11.018718436598721"><ele>69.0</ele><time>2026-05-01T06:51:30Z</time></trkpt><trkpt lat="45.4577305153583" lon="11.018700523781565"><ele>69.0</ele><time>2026-05-01T06:51:31Z</time></trkpt><trkpt lat="45.45783426753257" lon="11.018683566591417"><ele>69.0</ele><time>2026-05-01T06:51:32Z</time></trkpt><trkpt lat="45.45793722945704" lon="11.01866387338593"><ele>69.0</ele><time>2026-05-01T06:51:33Z</time></trkpt><trkpt lat="45.458040578541" lon="11.018639342996645"><ele>69.0</ele><time>2026-05-01T06:51:34Z</time></trkpt><trkpt lat="45.45815241954017" lon="11.01861438854843"><ele>69.5</ele><time>2026-05-01T06:51:35Z</time></trkpt><trkpt lat="45.45827360473705" lon="11.018593510326442"><ele>70.0</ele><time>2026-05-01T06:51:36Z</time></trkpt><trkpt lat="45.45840202680065" lon="11.018576463911852"><ele>70.5</ele><time>2026-05-01T06:51:37Z</time></trkpt><trkpt lat="45.45853555433158" lon="11.0185735563978"><ele>71.0</ele><time>2026-05-01T06:51:38Z</time></trkpt><trkpt lat="45.45866888103755" lon="11.018592736169532"><ele>71.0</ele><time>2026-05-01T06:51:39Z</time></trkpt><trkpt lat="45.458781695654196" lon="11.018628039603412"><ele>71.0</ele><time>2026-05-01T06:51:40Z</time></trkpt><trkpt lat="45.4588781283881" lon="11.0186708920042"><ele>71.0</ele><time>2026-05-01T06:51:41Z</time></trkpt><trkpt lat="45.45895603737575" lon="11.018742823745495"><ele>71.0</ele><time>2026-05-01T06:51:42Z</time></trkpt><trkpt lat="45.459018340062016" lon="11.018857446209845"><ele>71.0</ele><time>2026-05-01T06:51:43Z</time></trkpt><trkpt lat="45.459058321881926" lon="11.018929709053937"><ele>70.66666666666667</ele><time>2026-05-01T06:51:44Z</time></trkpt><trkpt lat="45.45912348009029" lon="11.018942103149541"><ele>70.33333333333334</ele><time>2026-05-01T06:51:45Z</time></trkpt><trkpt lat="45.45918237652385" lon="11.018892093588004"><ele>70.0</ele><time>2026-05-01T06:51:46Z</time></trkpt><trkpt lat="45.45922877928839" lon="11.01882811999169"><ele>69.66666666666667</ele><time>2026-05-01T06:51:47Z</time></trkpt><trkpt lat="45.45928451031081" lon="11.018746312588126"><ele>69.33333333333333</ele><time>2026-05-01T06:51:48Z</time></trkpt><trkpt lat="45.459372690322176" lon="11.018664238149142"><ele>69.0</ele><time>2026-05-01T06:51:49Z</time></trkpt><trkpt lat="45.45950202782884" lon="11.018620428776831"><ele>68.66666666666667</ele><time>2026-05-01T06:51:50Z</time></trkpt><trkpt lat="45.45966510460792" lon="11.018602825375707"><ele>68.33333333333334</ele><time>2026-05-01T06:51:51Z</time></trkpt><trkpt lat="45.459841855876434" lon="11.018609840811994"><ele>68.0</ele><time>2026-05-01T06:51:52Z</time></trkpt><trkpt lat="45.460014668411766" lon="11.01863828449693"><ele>68.0</ele><time>2026-05-01T06:51:53Z</time></trkpt><trkpt lat="45.460177498272195" lon="11.01866246557096"><ele>68.0</ele><time>2026-05-01T06:51:54Z</time></trkpt><trkpt lat="45.46034090252808" lon="11.01868645837518"><ele>68.0</ele><time>2026-05-01T06:51:55Z</time></trkpt><trkpt lat="45.46049811978954" lon="11.018707359631055"><ele>67.33333333333334</ele><time>2026-05-01T06:51:56Z</time></trkpt><trkpt lat="45.46064607641154" lon="11.018723764470494"><ele>66.66666666666667</ele><time>2026-05-01T06:51:57Z</time></trkpt><trkpt lat="45.460803805908945" lon="11.018741650041518"><ele>66.0</ele><time>2026-05-01T06:51:58Z</time></trkpt><trkpt lat="45.46097045752688" lon="11.01875942636597"><ele>66.0</ele><time>2026-05-01T06:51:59Z</time></trkpt><trkpt lat="45.461139372163515" lon="11.018772977200994"><ele>66.0</ele><time>2026-05-01T06:52:00Z</time></trkpt><trkpt lat="45.46130808097838" lon="11.01878855963038"><ele>66.0</ele><time>2026-05-01T06:52:01Z</time></trkpt><trkpt lat="45.46147395588674" lon="11.018800822325323"><ele>65.66666666666667</ele><time>2026-05-01T06:52:02Z</time></trkpt><trkpt lat="45.46163413195349" lon="11.018801238965425"><ele>65.33333333333334</ele><time>2026-05-01T06:52:03Z</time></trkpt><trkpt lat="45.46179445468166" lon="11.018800904150709"><ele>65.0</ele><time>2026-05-01T06:52:04Z</time></trkpt><trkpt lat="45.46194658135223" lon="11.018796951572224"><ele>65.0</ele><time>2026-05-01T06:52:05Z</time></trkpt><trkpt lat="45.46209855091082" lon="11.018791470383562"><ele>65.0</ele><time>2026-05-01T06:52:06Z</time></trkpt><trkpt lat="45.462241853066736" lon="11.01878375892899"><ele>65.0</ele><time>2026-05-01T06:52:07Z</time></trkpt><trkpt lat="45.46238590632382" lon="11.01878049004046"><ele>65.0</ele><time>2026-05-01T06:52:08Z</time></trkpt><trkpt lat="45.46253074769574" lon="11.018773571453849"><ele>66.0</ele><time>2026-05-01T06:52:09Z</time></trkpt><trkpt lat="45.46267811362623" lon="11.018755173780455"><ele>67.0</ele><time>2026-05-01T06:52:10Z</time></trkpt><trkpt lat="45.46282425746087" lon="11.018728830900807"><ele>68.0</ele><time>2026-05-01T06:52:11Z</time></trkpt><trkpt lat="45.46297301638663" lon="11.018700107442774"><ele>69.0</ele><time>2026-05-01T06:52:12Z</time></trkpt><trkpt lat="45.46311891603595" lon="11.018673352644543"><ele>69.5</ele><time>2026-05-01T06:52:13Z</time></trkpt><trkpt lat="45.463267370213366" lon="11.018648254559407"><ele>70.0</ele><time>2026-05-01T06:52:14Z</time></trkpt><trkpt lat="45.463412797046544" lon="11.01862378547962"><ele>70.5</ele><time>2026-05-01T06:52:15Z</time></trkpt><trkpt lat="45.463553267883874" lon="11.018601630128106"><ele>71.0</ele><time>2026-05-01T06:52:16Z</time></trkpt><trkpt lat="45.46369436353726" lon="11.018578790545478"><ele>70.75</ele><time>2026-05-01T06:52:17Z</time></trkpt><trkpt lat="45.463837544221576" lon="11.018555207867113"><ele>70.5</ele><time>2026-05-01T06:52:18Z</time></trkpt><trkpt lat="45.46397911383192" lon="11.018537769649916"><ele>70.25</ele><time>2026-05-01T06:52:19Z</time></trkpt><trkpt lat="45.46411295321456" lon="11.018527194261807"><ele>70.0</ele><time>2026-05-01T06:52:20Z</time></trkpt><trkpt lat="45.46423530548098" lon="11.018526623468029"><ele>70.0</ele><time>2026-05-01T06:52:21Z</time></trkpt><trkpt lat="45.464354657615395" lon="11.018539112057423"><ele>70.0</ele><time>2026-05-01T06:52:22Z</time></trkpt><trkpt lat="45.4644688752014" lon="11.018572391894004"><ele>70.0</ele><time>2026-05-01T06:52:23Z</time></trkpt><trkpt lat="45.46458531408247" lon="11.018624232512161"><ele>70.0</ele><time>2026-05-01T06:52:24Z</time></trkpt><trkpt lat="45.464704778568574" lon="11.018668291113094"><ele>70.5</ele><time>2026-05-01T06:52:25Z</time></trkpt><trkpt lat="45.46482359393407" lon="11.018664761604269"><ele>71.0</ele><time>2026-05-01T06:52:26Z</time></trkpt><trkpt lat="45.46493797701499" lon="11.018635070424267"><ele>71.5</ele><time>2026-05-01T06:52:27Z</time></trkpt><trkpt lat="45.465051023780106" lon="11.018578533895788"><ele>72.0</ele><time>2026-05-01T06:52:28Z</time></trkpt><trkpt lat="45.4651693018399" lon="11.018528215508292"><ele>72.0</ele><time>2026-05-01T06:52:29Z</time></trkpt><trkpt lat="45.46529489284629" lon="11.018508877374526"><ele>72.0</ele><time>2026-05-01T06:52:30Z</time></trkpt><trkpt lat="45.46542282550448" lon="11.018504639986908"><ele>72.0</ele><time>2026-05-01T06:52:31Z</time></trkpt><trkpt lat="45.465550523159145" lon="11.018514157276432"><ele>72.0</ele><time>2026-05-01T06:52:32Z</time></trkpt><trkpt lat="45.46568259512545" lon="11.018514478861281"><ele>72.0</ele><time>2026-05-01T06:52:33Z</time></trkpt><trkpt lat="45.46580884725523" lon="11.018518323906516"><ele>72.0</ele><time>2026-05-01T06:52:34Z</time></trkpt><trkpt lat="45.46592709000799" lon="11.018523548615441"><ele>72.0</ele><time>2026-05-01T06:52:35Z</time></trkpt><trkpt lat="45.46604908249492" lon="11.018530999315653"><ele>72.0</ele><time>2026-05-01T06:52:36Z</time></trkpt><trkpt lat="45.4661703638684" lon="11.018545043138612"><ele>72.75</ele><time>2026-05-01T06:52:37Z</time></trkpt><trkpt lat="45.46628821205394" lon="11.018561530142746"><ele>73.5</ele><time>2026-05-01T06:52:38Z</time></trkpt><trkpt lat="45.46640952227158" lon="11.01857653391707"><ele>74.25</ele><time>2026-05-01T06:52:39Z</time></trkpt><trkpt lat="45.46653178213316" lon="11.018586992000571"><ele>75.0</ele><time>2026-05-01T06:52:40Z</time></trkpt><trkpt lat="45.4666523603871" lon="11.018596535935922"><ele>75.0</ele><time>2026-05-01T06:52:41Z</time></trkpt><trkpt lat="45.46677309440878" lon="11.01860353135669"><ele>75.0</ele><time>2026-05-01T06:52:42Z</time></trkpt><trkpt lat="45.46689061719076" lon="11.018612402138118"><ele>75.0</ele><time>2026-05-01T06:52:43Z</time></trkpt><trkpt lat="45.4670068180992" lon="11.018619428226847"><ele>75.0</ele><time>2026-05-01T06:52:44Z</time></trkpt><trkpt lat="45.46712653148776" lon="11.018628018947437"><ele>75.25</ele><time>2026-05-01T06:52:45Z</time></trkpt><trkpt lat="45.46724733355726" lon="11.018657575712695"><ele>75.5</ele><time>2026-05-01T06:52:46Z</time></trkpt><trkpt lat="45.46736380029033" lon="11.018717908350716"><ele>75.75</ele><time>2026-05-01T06:52:47Z</time></trkpt><trkpt lat="45.46747142513174" lon="11.018799005004768"><ele>76.0</ele><time>2026-05-01T06:52:48Z</time></trkpt><trkpt lat="45.46757389071856" lon="11.01886284499406"><ele>76.0</ele><time>2026-05-01T06:52:49Z</time></trkpt><trkpt lat="45.46767888805432" lon="11.018890675283673"><ele>76.0</ele><time>2026-05-01T06:52:50Z</time></trkpt><trkpt lat="45.4677844749049" lon="11.018878157181158"><ele>76.0</ele><time>2026-05-01T06:52:51Z</time></trkpt><trkpt lat="45.46788340430445" lon="11.018830818429702"><ele>76.0</ele><time>2026-05-01T06:52:52Z</time></trkpt><trkpt lat="45.46798103576193" lon="11.018786146172692"><ele>76.0</ele><time>2026-05-01T06:52:53Z</time></trkpt><trkpt lat="45.46807035917823" lon="11.018726071846922"><ele>75.75</ele><time>2026-05-01T06:52:54Z</time></trkpt><trkpt lat="45.46815341745918" lon="11.018668358303785"><ele>75.5</ele><time>2026-05-01T06:52:55Z</time></trkpt><trkpt lat="45.46826169169663" lon="11.018576714722306"><ele>75.25</ele><time>2026-05-01T06:52:56Z</time></trkpt><trkpt lat="45.46837929319374" lon="11.018491704352076"><ele>75.0</ele><time>2026-05-01T06:52:57Z</time></trkpt><trkpt lat="45.468476419541304" lon="11.018405126672077"><ele>75.0</ele><time>2026-05-01T06:52:58Z</time></trkpt><trkpt lat="45.468555274702986" lon="11.018298259222549"><ele>75.0</ele><time>2026-05-01T06:52:59Z</time></trkpt><trkpt lat="45.46862787028218" lon="11.018231899231184"><ele>75.0</ele><time>2026-05-01T06:53:00Z</time></trkpt><trkpt lat="45.468692981259814" lon="11.018155436870169"><ele>75.0</ele><time>2026-05-01T06:53:01Z</time></trkpt><trkpt lat="45.46874560999944" lon="11.01806098020244"><ele>75.0</ele><time>2026-05-01T06:53:02Z</time></trkpt><trkpt lat="45.468787414547" lon="11.017934212595982"><ele>75.0</ele><time>2026-05-01T06:53:03Z</time></trkpt><trkpt lat="45.46881508820549" lon="11.017779393868315"><ele>75.0</ele><time>2026-05-01T06:53:04Z</time></trkpt><trkpt lat="45.46881941705749" lon="11.017582495290347"><ele>75.0</ele><time>2026-05-01T06:53:05Z</time></trkpt><trkpt lat="45.46881104753661" lon="11.01736679109966"><ele>75.0</ele><time>2026-05-01T06:53:06Z</time></trkpt><trkpt lat="45.468809890882184" lon="11.017143469200068"><ele>75.5</ele><time>2026-05-01T06:53:07Z</time></trkpt><trkpt lat="45.468807011076066" lon="11.016952328771174"><ele>76.0</ele><time>2026-05-01T06:53:08Z</time></trkpt><trkpt lat="45.46883244753055" lon="11.01677918935662"><ele>76.5</ele><time>2026-05-01T06:53:09Z</time></trkpt><trkpt lat="45.468834999273724" lon="11.016614096576205"><ele>77.0</ele><time>2026-05-01T06:53:10Z</time></trkpt><trkpt lat="45.468909911176425" lon="11.016467239722838"><ele>78.0</ele><time>2026-05-01T06:53:11Z</time></trkpt><trkpt lat="45.46896542588988" lon="11.01629848513564"><ele>79.0</ele><time>2026-05-01T06:53:12Z</time></trkpt><trkpt lat="45.46905234999754" lon="11.016157954453336"><ele>80.0</ele><time>2026-05-01T06:53:13Z</time></trkpt><trkpt lat="45.469148865906895" lon="11.016037620885747"><ele>81.0</ele><time>2026-05-01T06:53:14Z</time></trkpt><trkpt lat="45.469265404175495" lon="11.015954623217612"><ele>81.0</ele><time>2026-05-01T06:53:15Z</time></trkpt><trkpt lat="45.46939198531999" lon="11.015893653459766"><ele>81.0</ele><time>2026-05-01T06:53:16Z</time></trkpt><trkpt lat="45.46952314376992" lon="11.015859750422393"><ele>81.0</ele><time>2026-05-01T06:53:17Z</time></trkpt><trkpt lat="45.469659773806704" lon="11.015812050152196"><ele>81.0</ele><time>2026-05-01T06:53:18Z</time></trkpt><trkpt lat="45.46980191481538" lon="11.015789762033934"><ele>83.5</ele><time>2026-05-01T06:53:19Z</time></trkpt><trkpt lat="45.4699431296421" lon="11.01576360750502"><ele>86.0</ele><time>2026-05-01T06:53:20Z</time></trkpt><trkpt lat="45.47008529836547" lon="11.015726887355628"><ele>88.5</ele><time>2026-05-01T06:53:21Z</time></trkpt><trkpt lat="45.47023406389845" lon="11.01567737731365"><ele>91.0</ele><time>2026-05-01T06:53:22Z</time></trkpt><trkpt lat="45.470387664536666" lon="11.015639670514403"><ele>89.66666666666666</ele><time>2026-05-01T06:53:23Z</time></trkpt><trkpt lat="45.47054090651606" lon="11.015593967121653"><ele>88.33333333333333</ele><time>2026-05-01T06:53:24Z</time></trkpt><trkpt lat="45.47069847383021" lon="11.015548954142048"><ele>87.0</ele><time>2026-05-01T06:53:25Z</time></trkpt><trkpt lat="45.47083920335335" lon="11.015506434677146"><ele>87.0</ele><time>2026-05-01T06:53:26Z</time></trkpt><trkpt lat="45.470961559426804" lon="11.015475429617581"><ele>87.0</ele><time>2026-05-01T06:53:27Z</time></trkpt><trkpt lat="45.47106276480919" lon="11.015445067339238"><ele>87.0</ele><time>2026-05-01T06:53:28Z</time></trkpt><trkpt lat="45.47115003747079" lon="11.015424029531754"><ele>87.0</ele><time>2026-05-01T06:53:29Z</time></trkpt><trkpt lat="45.471221146104305" lon="11.0154343343117"><ele>87.0</ele><time>2026-05-01T06:53:30Z</time></trkpt><trkpt lat="45.47134514404054" lon="11.015427138109134"><ele>87.14285714285714</ele><time>2026-05-01T06:53:32Z</time></trkpt><trkpt lat="45.47141107241485" lon="11.015434122220848"><ele>87.28571428571429</ele><time>2026-05-01T06:53:33Z</time></trkpt><trkpt lat="45.47148452035641" lon="11.015441389677761"><ele>87.42857142857143</ele><time>2026-05-01T06:53:34Z</time></trkpt><trkpt lat="45.471557383373025" lon="11.015451219598749"><ele>87.57142857142857</ele><time>2026-05-01T06:53:35Z</time></trkpt><trkpt lat="45.47162536039224" lon="11.01545994452715"><ele>87.71428571428571</ele><time>2026-05-01T06:53:36Z</time></trkpt><trkpt lat="45.4717014840662" lon="11.015466737855604"><ele>87.85714285714286</ele><time>2026-05-01T06:53:37Z</time></trkpt><trkpt lat="45.47176652650899" lon="11.015473583205875"><ele>88.0</ele><time>2026-05-01T06:53:38Z</time></trkpt><trkpt lat="45.47187904490885" lon="11.015464606903874"><ele>88.0</ele><time>2026-05-01T06:53:40Z</time></trkpt><trkpt lat="45.47195312755704" lon="11.015476630449365"><ele>88.0</ele><time>2026-05-01T06:53:42Z</time></trkpt><trkpt lat="45.47202102628132" lon="11.015548375082458"><ele>88.0</ele><time>2026-05-01T06:53:45Z</time></trkpt><trkpt lat="45.47208823023966" lon="11.015543127827424"><ele>88.0</ele><time>2026-05-01T06:53:50Z</time></trkpt><trkpt lat="45.4720118878209" lon="11.015532277264844"><ele>88.0</ele><time>2026-05-01T06:56:12Z</time></trkpt><trkpt lat="45.47194916357197" lon="11.015564599560717"><ele>88.0</ele><time>2026-05-01T06:56:18Z</time></trkpt><trkpt lat="45.471885597004885" lon="11.01556211816817"><ele>88.0</ele><time>2026-05-01T06:56:24Z</time></trkpt><trkpt lat="45.47182085233744" lon="11.01553475269717"><ele>88.0</ele><time>2026-05-01T06:56:30Z</time></trkpt><trkpt lat="45.471752098549246" lon="11.015493802339092"><ele>88.0</ele><time>2026-05-01T06:56:44Z</time></trkpt><trkpt lat="45.47175176433137" lon="11.015379784045638"><ele>88.0</ele><time>2026-05-01T06:57:02Z</time></trkpt><trkpt lat="45.47178131216424" lon="11.015462841105457"><ele>88.0</ele><time>2026-05-01T07:21:27Z</time></trkpt><trkpt lat="45.471796963227234" lon="11.015563805513674"><ele>88.0</ele><time>2026-05-01T07:21:52.999Z</time></trkpt><trkpt lat="45.47194279618783" lon="11.015567806259199"><ele>88.0</ele><time>2026-05-01T07:23:03Z</time></trkpt><trkpt lat="45.47201466076008" lon="11.015596188042293"><ele>88.0</ele><time>2026-05-01T07:23:08Z</time></trkpt><trkpt lat="45.47208687132434" lon="11.015607718201801"><ele>88.0</ele><time>2026-05-01T07:23:21Z</time></trkpt><trkpt lat="45.47223350637199" lon="11.015612656011129"><ele>88.0</ele><time>2026-05-01T07:29:54Z</time></trkpt><trkpt lat="45.4722649596384" lon="11.015505632269033"><ele>88.0</ele><time>2026-05-01T07:30:32.999Z</time></trkpt><trkpt lat="45.472339541008864" lon="11.015501708692534"><ele>88.0</ele><time>2026-05-01T07:30:35.999Z</time></trkpt><trkpt lat="45.47240520974593" lon="11.015523869193814"><ele>88.0</ele><time>2026-05-01T07:30:37.999Z</time></trkpt><trkpt lat="45.472479396721575" lon="11.015550133896244"><ele>87.4</ele><time>2026-05-01T07:30:39.999Z</time></trkpt><trkpt lat="45.47257022128712" lon="11.015581166346209"><ele>86.80000000000001</ele><time>2026-05-01T07:30:41.999Z</time></trkpt><trkpt lat="45.472662302700954" lon="11.01564443591081"><ele>86.2</ele><time>2026-05-01T07:30:43.999Z</time></trkpt><trkpt lat="45.47274984417649" lon="11.015710350057892"><ele>85.6</ele><time>2026-05-01T07:30:45.999Z</time></trkpt><trkpt lat="45.47284101471598" lon="11.015774223436697"><ele>85.0</ele><time>2026-05-01T07:30:47.999Z</time></trkpt><trkpt lat="45.47292841884379" lon="11.015845717946453"><ele>85.8</ele><time>2026-05-01T07:30:49.999Z</time></trkpt><trkpt lat="45.4729986817175" lon="11.015901318561252"><ele>86.6</ele><time>2026-05-01T07:30:51.999Z</time></trkpt><trkpt lat="45.47307295962711" lon="11.015962091925717"><ele>87.4</ele><time>2026-05-01T07:30:53.999Z</time></trkpt><trkpt lat="45.47314762971652" lon="11.016040914219575"><ele>88.2</ele><time>2026-05-01T07:30:55.999Z</time></trkpt><trkpt lat="45.47323048484234" lon="11.016123527556159"><ele>89.0</ele><time>2026-05-01T07:30:57.999Z</time></trkpt><trkpt lat="45.47330844169047" lon="11.016245026242377"><ele>89.0</ele><time>2026-05-01T07:31:00Z</time></trkpt><trkpt lat="45.473319084699554" lon="11.016347634544431"><ele>89.0</ele><time>2026-05-01T07:31:01Z</time></trkpt><trkpt lat="45.47336479810553" lon="11.016427390705047"><ele>89.0</ele><time>2026-05-01T07:31:02Z</time></trkpt><trkpt lat="45.47344027403285" lon="11.01655641065737"><ele>89.0</ele><time>2026-05-01T07:31:04Z</time></trkpt><trkpt lat="45.473522065378184" lon="11.016693239604546"><ele>89.0</ele><time>2026-05-01T07:31:06Z</time></trkpt><trkpt lat="45.47357105337831" lon="11.016766084632673"><ele>88.28571428571428</ele><time>2026-05-01T07:31:07Z</time></trkpt><trkpt lat="45.473629303661866" lon="11.016838220399595"><ele>87.57142857142857</ele><time>2026-05-01T07:31:08Z</time></trkpt><trkpt lat="45.473689883915874" lon="11.01690371248407"><ele>86.85714285714286</ele><time>2026-05-01T07:31:09Z</time></trkpt><trkpt lat="45.47375918555812" lon="11.0169381051137"><ele>86.14285714285714</ele><time>2026-05-01T07:31:10Z</time></trkpt><trkpt lat="45.473824369303735" lon="11.016985352344054"><ele>85.42857142857143</ele><time>2026-05-01T07:31:11Z</time></trkpt><trkpt lat="45.47388590833796" lon="11.017021407241712"><ele>84.71428571428571</ele><time>2026-05-01T07:31:12Z</time></trkpt><trkpt lat="45.47395462567683" lon="11.017053362854517"><ele>84.0</ele><time>2026-05-01T07:31:13Z</time></trkpt><trkpt lat="45.47402502526065" lon="11.017074579450064"><ele>84.0</ele><time>2026-05-01T07:31:14Z</time></trkpt><trkpt lat="45.47410256413245" lon="11.017113313000888"><ele>84.0</ele><time>2026-05-01T07:31:15Z</time></trkpt><trkpt lat="45.47418168931716" lon="11.017100266432521"><ele>84.0</ele><time>2026-05-01T07:31:16Z</time></trkpt><trkpt lat="45.474262371724436" lon="11.017108351021042"><ele>84.0</ele><time>2026-05-01T07:31:17Z</time></trkpt><trkpt lat="45.474337457030884" lon="11.017140963544964"><ele>84.0</ele><time>2026-05-01T07:31:18Z</time></trkpt><trkpt lat="45.474417059893554" lon="11.017135315744044"><ele>84.0</ele><time>2026-05-01T07:31:19Z</time></trkpt><trkpt lat="45.47449117050229" lon="11.017156744243986"><ele>84.0</ele><time>2026-05-01T07:31:20Z</time></trkpt><trkpt lat="45.47456459589432" lon="11.017177190312603"><ele>84.0</ele><time>2026-05-01T07:31:21Z</time></trkpt><trkpt lat="45.47463441970885" lon="11.017211862196127"><ele>84.0</ele><time>2026-05-01T07:31:22Z</time></trkpt><trkpt lat="45.47471296113685" lon="11.017236765526286"><ele>84.0</ele><time>2026-05-01T07:31:23Z</time></trkpt><trkpt lat="45.47478820989254" lon="11.017265940936683"><ele>84.0</ele><time>2026-05-01T07:31:24Z</time></trkpt><trkpt lat="45.47486632259344" lon="11.01729773374415"><ele>84.0</ele><time>2026-05-01T07:31:25Z</time></trkpt><trkpt lat="45.474946296525566" lon="11.01732693291629"><ele>84.0</ele><time>2026-05-01T07:31:26Z</time></trkpt><trkpt lat="45.47502913479947" lon="11.017356620462753"><ele>84.0</ele><time>2026-05-01T07:31:27Z</time></trkpt><trkpt lat="45.47510992199371" lon="11.017387321211247"><ele>84.0</ele><time>2026-05-01T07:31:28Z</time></trkpt><trkpt lat="45.47519039944997" lon="11.017416586716106"><ele>84.0</ele><time>2026-05-01T07:31:29Z</time></trkpt><trkpt lat="45.47527483769859" lon="11.017432703231151"><ele>84.0</ele><time>2026-05-01T07:31:30Z</time></trkpt><trkpt lat="45.47535350868727" lon="11.017483322964715"><ele>84.0</ele><time>2026-05-01T07:31:31Z</time></trkpt><trkpt lat="45.47543447546041" lon="11.017509737158681"><ele>83.5</ele><time>2026-05-01T07:31:32Z</time></trkpt><trkpt lat="45.47552029139313" lon="11.017514001647028"><ele>83.0</ele><time>2026-05-01T07:31:33Z</time></trkpt><trkpt lat="45.475601033672405" lon="11.017569828710814"><ele>82.5</ele><time>2026-05-01T07:31:34Z</time></trkpt><trkpt lat="45.47568891147594" lon="11.017587653291102"><ele>82.0</ele><time>2026-05-01T07:31:35Z</time></trkpt><trkpt lat="45.475772011508454" lon="11.017639552678668"><ele>81.5</ele><time>2026-05-01T07:31:36Z</time></trkpt><trkpt lat="45.47584450405478" lon="11.017705096756663"><ele>81.0</ele><time>2026-05-01T07:31:37Z</time></trkpt><trkpt lat="45.47589260863749" lon="11.017815560586643"><ele>81.0</ele><time>2026-05-01T07:31:38Z</time></trkpt><trkpt lat="45.475931861076674" lon="11.01791469002843"><ele>81.0</ele><time>2026-05-01T07:31:39Z</time></trkpt><trkpt lat="45.47595134558055" lon="11.018021163074165"><ele>81.0</ele><time>2026-05-01T07:31:40Z</time></trkpt><trkpt lat="45.47597703539595" lon="11.018126735137738"><ele>81.0</ele><time>2026-05-01T07:31:41Z</time></trkpt><trkpt lat="45.47600884513399" lon="11.018236873252489"><ele>81.0</ele><time>2026-05-01T07:31:42Z</time></trkpt><trkpt lat="45.47603081901899" lon="11.01834961258783"><ele>81.0</ele><time>2026-05-01T07:31:43Z</time></trkpt><trkpt lat="45.47605549291141" lon="11.018451860316354"><ele>80.66666666666667</ele><time>2026-05-01T07:31:44Z</time></trkpt><trkpt lat="45.47609451901468" lon="11.018542945055286"><ele>80.33333333333333</ele><time>2026-05-01T07:31:45Z</time></trkpt><trkpt lat="45.47612636859" lon="11.018645592691916"><ele>80.0</ele><time>2026-05-01T07:31:46Z</time></trkpt><trkpt lat="45.47616012119091" lon="11.018739542158709"><ele>79.66666666666666</ele><time>2026-05-01T07:31:47Z</time></trkpt><trkpt lat="45.47619573438982" lon="11.018833086408474"><ele>79.33333333333333</ele><time>2026-05-01T07:31:48Z</time></trkpt><trkpt lat="45.47623598568149" lon="11.018916712859257"><ele>79.0</ele><time>2026-05-01T07:31:49Z</time></trkpt><trkpt lat="45.47628673954873" lon="11.019039234752237"><ele>79.0</ele><time>2026-05-01T07:31:51Z</time></trkpt><trkpt lat="45.47629002965202" lon="11.01914041401464"><ele>79.0</ele><time>2026-05-01T07:31:55Z</time></trkpt><trkpt lat="45.47626411720837" lon="11.019288381512895"><ele>79.0</ele><time>2026-05-01T07:31:58Z</time></trkpt><trkpt lat="45.476221965130314" lon="11.019455658985654"><ele>79.0</ele><time>2026-05-01T07:32:00Z</time></trkpt><trkpt lat="45.47621823542198" lon="11.019550987893721"><ele>79.0</ele><time>2026-05-01T07:32:01Z</time></trkpt><trkpt lat="45.47623036113269" lon="11.019647365641593"><ele>79.0</ele><time>2026-05-01T07:32:02Z</time></trkpt><trkpt lat="45.47625935445205" lon="11.019745491600828"><ele>79.33333333333333</ele><time>2026-05-01T07:32:03Z</time></trkpt><trkpt lat="45.476306928310976" lon="11.019828915383405"><ele>79.66666666666666</ele><time>2026-05-01T07:32:04Z</time></trkpt><trkpt lat="45.476367237799685" lon="11.019894263194782"><ele>80.0</ele><time>2026-05-01T07:32:05Z</time></trkpt><trkpt lat="45.476443520654165" lon="11.019930485435864"><ele>80.33333333333333</ele><time>2026-05-01T07:32:06Z</time></trkpt><trkpt lat="45.476524115568836" lon="11.019936365679426"><ele>80.66666666666667</ele><time>2026-05-01T07:32:07Z</time></trkpt><trkpt lat="45.476599668019524" lon="11.019916078446187"><ele>81.0</ele><time>2026-05-01T07:32:08Z</time></trkpt><trkpt lat="45.476670096124614" lon="11.01986760010077"><ele>81.0</ele><time>2026-05-01T07:32:09Z</time></trkpt><trkpt lat="45.4767251879695" lon="11.019789314390138"><ele>81.0</ele><time>2026-05-01T07:32:10Z</time></trkpt><trkpt lat="45.47676237602732" lon="11.019694891084189"><ele>81.0</ele><time>2026-05-01T07:32:11Z</time></trkpt><trkpt lat="45.47678072471202" lon="11.019582137353224"><ele>81.0</ele><time>2026-05-01T07:32:12Z</time></trkpt><trkpt lat="45.47678472283311" lon="11.019460817449007"><ele>81.0</ele><time>2026-05-01T07:32:13Z</time></trkpt><trkpt lat="45.476780552797536" lon="11.019334918919702"><ele>81.0</ele><time>2026-05-01T07:32:14Z</time></trkpt><trkpt lat="45.47677612175101" lon="11.019220640848992"><ele>80.6</ele><time>2026-05-01T07:32:15Z</time></trkpt><trkpt lat="45.47678571501036" lon="11.019101240924119"><ele>80.19999999999999</ele><time>2026-05-01T07:32:16Z</time></trkpt><trkpt lat="45.476817568650645" lon="11.018988163424883"><ele>79.80000000000001</ele><time>2026-05-01T07:32:17Z</time></trkpt><trkpt lat="45.47683317682183" lon="11.01887307195472"><ele>79.4</ele><time>2026-05-01T07:32:18Z</time></trkpt><trkpt lat="45.476941280458156" lon="11.01879184889274"><ele>79.0</ele><time>2026-05-01T07:32:19Z</time></trkpt><trkpt lat="45.47703377112774" lon="11.018732001890491"><ele>79.4</ele><time>2026-05-01T07:32:20Z</time></trkpt><trkpt lat="45.477133778592645" lon="11.018703567974535"><ele>79.80000000000001</ele><time>2026-05-01T07:32:21Z</time></trkpt><trkpt lat="45.477236599316505" lon="11.018735866291763"><ele>80.19999999999999</ele><time>2026-05-01T07:32:22Z</time></trkpt><trkpt lat="45.4773331931005" lon="11.01878496378377"><ele>80.6</ele><time>2026-05-01T07:32:23Z</time></trkpt><trkpt lat="45.47742714547626" lon="11.018862537967582"><ele>81.0</ele><time>2026-05-01T07:32:24Z</time></trkpt><trkpt lat="45.477483435729724" lon="11.019009053429834"><ele>80.75</ele><time>2026-05-01T07:32:25Z</time></trkpt><trkpt lat="45.47752454542352" lon="11.019160484884015"><ele>80.5</ele><time>2026-05-01T07:32:26Z</time></trkpt><trkpt lat="45.47756011216676" lon="11.019334041291023"><ele>80.25</ele><time>2026-05-01T07:32:27Z</time></trkpt><trkpt lat="45.47761957091755" lon="11.019520572544483"><ele>80.0</ele><time>2026-05-01T07:32:28Z</time></trkpt><trkpt lat="45.47771082781355" lon="11.01971253417297"><ele>80.0</ele><time>2026-05-01T07:32:29Z</time></trkpt><trkpt lat="45.477836635456924" lon="11.019884340654155"><ele>80.0</ele><time>2026-05-01T07:32:30Z</time></trkpt><trkpt lat="45.47798342651028" lon="11.020010960514181"><ele>80.0</ele><time>2026-05-01T07:32:30.999Z</time></trkpt><trkpt lat="45.47814783595036" lon="11.02007768582472"><ele>81.33333333333334</ele><time>2026-05-01T07:32:31.999Z</time></trkpt><trkpt lat="45.47831705986664" lon="11.02010917109692"><ele>82.66666666666667</ele><time>2026-05-01T07:32:32.999Z</time></trkpt><trkpt lat="45.47848641650455" lon="11.02013245485787"><ele>84.0</ele><time>2026-05-01T07:32:33.999Z</time></trkpt><trkpt lat="45.478656157257724" lon="11.020135891095578"><ele>85.0</ele><time>2026-05-01T07:32:34.999Z</time></trkpt><trkpt lat="45.478827422197014" lon="11.020116891018677"><ele>86.0</ele><time>2026-05-01T07:32:35.999Z</time></trkpt><trkpt lat="45.47900159677714" lon="11.020073400958706"><ele>87.0</ele><time>2026-05-01T07:32:36.999Z</time></trkpt><trkpt lat="45.47916981330975" lon="11.02001046190739"><ele>87.0</ele><time>2026-05-01T07:32:37.999Z</time></trkpt><trkpt lat="45.479335214419336" lon="11.019936504144809"><ele>87.0</ele><time>2026-05-01T07:32:38.999Z</time></trkpt><trkpt lat="45.47950040580233" lon="11.019850509267496"><ele>87.0</ele><time>2026-05-01T07:32:39.999Z</time></trkpt><trkpt lat="45.4796668138597" lon="11.019752033607064"><ele>87.66666666666667</ele><time>2026-05-01T07:32:40.999Z</time></trkpt><trkpt lat="45.47983127406228" lon="11.01965254503102"><ele>88.33333333333334</ele><time>2026-05-01T07:32:41.999Z</time></trkpt><trkpt lat="45.479996498588896" lon="11.019553134257762"><ele>89.0</ele><time>2026-05-01T07:32:42.999Z</time></trkpt><trkpt lat="45.48016589895503" lon="11.01945666155592"><ele>89.0</ele><time>2026-05-01T07:32:43.999Z</time></trkpt><trkpt lat="45.48033325116443" lon="11.01937527054265"><ele>89.0</ele><time>2026-05-01T07:32:44.999Z</time></trkpt><trkpt lat="45.48050076398222" lon="11.019281941681966"><ele>89.0</ele><time>2026-05-01T07:32:45.999Z</time></trkpt><trkpt lat="45.480668113443244" lon="11.01919395408262"><ele>88.33333333333334</ele><time>2026-05-01T07:32:46.999Z</time></trkpt><trkpt lat="45.48083550343232" lon="11.019098754417564"><ele>87.66666666666667</ele><time>2026-05-01T07:32:47.999Z</time></trkpt><trkpt lat="45.48099831164713" lon="11.019008852413092"><ele>87.0</ele><time>2026-05-01T07:32:48.999Z</time></trkpt><trkpt lat="45.481158676023966" lon="11.018917311689203"><ele>88.0</ele><time>2026-05-01T07:32:49.999Z</time></trkpt><trkpt lat="45.48131755051177" lon="11.018835250374789"><ele>89.0</ele><time>2026-05-01T07:32:50.999Z</time></trkpt><trkpt lat="45.48147897918289" lon="11.018762816843642"><ele>90.0</ele><time>2026-05-01T07:32:51.999Z</time></trkpt><trkpt lat="45.48163869638208" lon="11.018708729150923"><ele>90.0</ele><time>2026-05-01T07:32:52.999Z</time></trkpt><trkpt lat="45.48179844125857" lon="11.018668500294396"><ele>90.0</ele><time>2026-05-01T07:32:53.999Z</time></trkpt><trkpt lat="45.48196267261119" lon="11.018640388816982"><ele>90.0</ele><time>2026-05-01T07:32:54.999Z</time></trkpt><trkpt lat="45.48212115983959" lon="11.018641063138633"><ele>90.33333333333333</ele><time>2026-05-01T07:32:55.999Z</time></trkpt><trkpt lat="45.48228523149944" lon="11.018651104672694"><ele>90.66666666666666</ele><time>2026-05-01T07:32:56.999Z</time></trkpt><trkpt lat="45.48244636685857" lon="11.018678939958154"><ele>91.0</ele><time>2026-05-01T07:32:57.999Z</time></trkpt><trkpt lat="45.482605589212476" lon="11.018724215963434"><ele>91.0</ele><time>2026-05-01T07:32:58.999Z</time></trkpt><trkpt lat="45.48276290095556" lon="11.018783336892506"><ele>91.0</ele><time>2026-05-01T07:33:00Z</time></trkpt><trkpt lat="45.48291003495962" lon="11.018854170612732"><ele>91.0</ele><time>2026-05-01T07:33:01Z</time></trkpt><trkpt lat="45.483057542132585" lon="11.01892960466194"><ele>91.66666666666666</ele><time>2026-05-01T07:33:02Z</time></trkpt><trkpt lat="45.483206956681684" lon="11.019002050022388"><ele>92.33333333333333</ele><time>2026-05-01T07:33:03Z</time></trkpt><trkpt lat="45.48335216619852" lon="11.019076148295806"><ele>93.0</ele><time>2026-05-01T07:33:04Z</time></trkpt><trkpt lat="45.483496801942074" lon="11.019152681438973"><ele>93.33333333333333</ele><time>2026-05-01T07:33:05Z</time></trkpt><trkpt lat="45.48364547616302" lon="11.019222919498361"><ele>93.66666666666666</ele><time>2026-05-01T07:33:06Z</time></trkpt><trkpt lat="45.483796337946245" lon="11.019280803808103"><ele>94.0</ele><time>2026-05-01T07:33:07Z</time></trkpt><trkpt lat="45.48394924348319" lon="11.01932784449667"><ele>94.66666666666666</ele><time>2026-05-01T07:33:08Z</time></trkpt><trkpt lat="45.48409959096285" lon="11.019364478666919"><ele>95.33333333333333</ele><time>2026-05-01T07:33:09Z</time></trkpt><trkpt lat="45.4842571322665" lon="11.01938509825729"><ele>96.0</ele><time>2026-05-01T07:33:10Z</time></trkpt><trkpt lat="45.48441568001365" lon="11.019385635053139"><ele>96.0</ele><time>2026-05-01T07:33:11Z</time></trkpt><trkpt lat="45.484571708252" lon="11.019365583862534"><ele>96.0</ele><time>2026-05-01T07:33:12Z</time></trkpt><trkpt lat="45.48472350307714" lon="11.019335668654751"><ele>96.0</ele><time>2026-05-01T07:33:13Z</time></trkpt><trkpt lat="45.48487941331294" lon="11.019295834197901"><ele>96.0</ele><time>2026-05-01T07:33:14Z</time></trkpt><trkpt lat="45.48502484290471" lon="11.019251326587852"><ele>96.0</ele><time>2026-05-01T07:33:15Z</time></trkpt><trkpt lat="45.48517161576754" lon="11.019199701513397"><ele>96.0</ele><time>2026-05-01T07:33:16Z</time></trkpt><trkpt lat="45.485315996684356" lon="11.019145284642661"><ele>96.0</ele><time>2026-05-01T07:33:17Z</time></trkpt><trkpt lat="45.48546535396461" lon="11.019092160760163"><ele>96.0</ele><time>2026-05-01T07:33:18Z</time></trkpt><trkpt lat="45.485611954140495" lon="11.019034918821102"><ele>96.0</ele><time>2026-05-01T07:33:19Z</time></trkpt><trkpt lat="45.4857588303876" lon="11.018978633186332"><ele>96.0</ele><time>2026-05-01T07:33:20Z</time></trkpt><trkpt lat="45.48590406076044" lon="11.018927162164173"><ele>96.0</ele><time>2026-05-01T07:33:21Z</time></trkpt><trkpt lat="45.4860526035495" lon="11.018869822653272"><ele>96.0</ele><time>2026-05-01T07:33:22Z</time></trkpt><trkpt lat="45.486197360647054" lon="11.018838944870764"><ele>96.0</ele><time>2026-05-01T07:33:23Z</time></trkpt><trkpt lat="45.486348003122224" lon="11.018819971091698"><ele>96.75</ele><time>2026-05-01T07:33:24Z</time></trkpt><trkpt lat="45.48649612615388" lon="11.018802593127889"><ele>97.5</ele><time>2026-05-01T07:33:25Z</time></trkpt><trkpt lat="45.486641124358755" lon="11.018795777300717"><ele>98.25</ele><time>2026-05-01T07:33:26Z</time></trkpt><trkpt lat="45.486790586966116" lon="11.018786434679452"><ele>99.0</ele><time>2026-05-01T07:33:27Z</time></trkpt><trkpt lat="45.4869371597176" lon="11.018784830071683"><ele>99.0</ele><time>2026-05-01T07:33:28Z</time></trkpt><trkpt lat="45.48708690527031" lon="11.01879331622773"><ele>99.0</ele><time>2026-05-01T07:33:29Z</time></trkpt><trkpt lat="45.487236994461064" lon="11.018824853877067"><ele>99.0</ele><time>2026-05-01T07:33:30Z</time></trkpt><trkpt lat="45.48738627680798" lon="11.018840147488532"><ele>99.25</ele><time>2026-05-01T07:33:31Z</time></trkpt><trkpt lat="45.487530257143185" lon="11.018857648410693"><ele>99.5</ele><time>2026-05-01T07:33:32Z</time></trkpt><trkpt lat="45.487671342091815" lon="11.018876175024593"><ele>99.75</ele><time>2026-05-01T07:33:33Z</time></trkpt><trkpt lat="45.48780662738837" lon="11.018895481500984"><ele>100.0</ele><time>2026-05-01T07:33:34Z</time></trkpt><trkpt lat="45.48793532350426" lon="11.018915726398122"><ele>100.75</ele><time>2026-05-01T07:33:35Z</time></trkpt><trkpt lat="45.488060215316985" lon="11.018954210142878"><ele>101.5</ele><time>2026-05-01T07:33:36Z</time></trkpt><trkpt lat="45.48817446496113" lon="11.01899561970771"><ele>102.25</ele><time>2026-05-01T07:33:37Z</time></trkpt><trkpt lat="45.48828046063726" lon="11.019041244206845"><ele>103.0</ele><time>2026-05-01T07:33:38Z</time></trkpt><trkpt lat="45.4883772169663" lon="11.019086970899522"><ele>103.00000000000001</ele><time>2026-05-01T07:33:39Z</time></trkpt><trkpt lat="45.488472913455446" lon="11.019119486819122"><ele>103.0</ele><time>2026-05-01T07:33:40Z</time></trkpt><trkpt lat="45.48856222283388" lon="11.019166502877018"><ele>103.0</ele><time>2026-05-01T07:33:41Z</time></trkpt><trkpt lat="45.48863256172671" lon="11.019233982815214"><ele>103.0</ele><time>2026-05-01T07:33:42Z</time></trkpt><trkpt lat="45.4886880202155" lon="11.019308442298431"><ele>103.00000000000001</ele><time>2026-05-01T07:33:43Z</time></trkpt><trkpt lat="45.48873437002619" lon="11.019390139225056"><ele>103.0</ele><time>2026-05-01T07:33:44Z</time></trkpt><trkpt lat="45.48877431419654" lon="11.019479670247804"><ele>103.16666666666667</ele><time>2026-05-01T07:33:45Z</time></trkpt><trkpt lat="45.48881958792509" lon="11.019560314920733"><ele>103.33333333333334</ele><time>2026-05-01T07:33:46Z</time></trkpt><trkpt lat="45.48888054160739" lon="11.0196145371854"><ele>103.5</ele><time>2026-05-01T07:33:47Z</time></trkpt><trkpt lat="45.488954624714964" lon="11.019633838145923"><ele>103.66666666666666</ele><time>2026-05-01T07:33:48Z</time></trkpt><trkpt lat="45.48903448652573" lon="11.019615513708153"><ele>103.83333333333333</ele><time>2026-05-01T07:33:49Z</time></trkpt><trkpt lat="45.48910388407783" lon="11.019544758559915"><ele>104.0</ele><time>2026-05-01T07:33:50Z</time></trkpt><trkpt lat="45.48914803284551" lon="11.019435922759545"><ele>103.99999999999999</ele><time>2026-05-01T07:33:51Z</time></trkpt><trkpt lat="45.4891650490998" lon="11.019309858775731"><ele>104.0</ele><time>2026-05-01T07:33:52Z</time></trkpt><trkpt lat="45.48918610785176" lon="11.019204300325313"><ele>104.0</ele><time>2026-05-01T07:33:53Z</time></trkpt><trkpt lat="45.489231276992655" lon="11.01913398193105"><ele>104.0</ele><time>2026-05-01T07:33:54Z</time></trkpt><trkpt lat="45.48932653569502" lon="11.01908335845198"><ele>103.99999999999999</ele><time>2026-05-01T07:33:56Z</time></trkpt><trkpt lat="45.4894124272874" lon="11.019072748029112"><ele>104.0</ele><time>2026-05-01T07:33:58Z</time></trkpt><trkpt lat="45.489488015893684" lon="11.019082189130735"><ele>104.0</ele><time>2026-05-01T07:33:59Z</time></trkpt><trkpt lat="45.48959100714281" lon="11.019107479474084"><ele>104.0</ele><time>2026-05-01T07:34:00Z</time></trkpt><trkpt lat="45.489726263644094" lon="11.019161009262811"><ele>104.0</ele><time>2026-05-01T07:34:01Z</time></trkpt><trkpt lat="45.48987407684284" lon="11.019226032750757"><ele>104.0</ele><time>2026-05-01T07:34:02Z</time></trkpt><trkpt lat="45.49003039024907" lon="11.019313482905714"><ele>104.66666666666666</ele><time>2026-05-01T07:34:03Z</time></trkpt><trkpt lat="45.49019446246467" lon="11.019421827151904"><ele>105.33333333333334</ele><time>2026-05-01T07:34:04Z</time></trkpt><trkpt lat="45.49035955011486" lon="11.019520395544268"><ele>106.0</ele><time>2026-05-01T07:34:05Z</time></trkpt><trkpt lat="45.49050460662382" lon="11.019596365461767"><ele>106.8</ele><time>2026-05-01T07:34:06Z</time></trkpt><trkpt lat="45.49063818996111" lon="11.019660152566566"><ele>107.6</ele><time>2026-05-01T07:34:07Z</time></trkpt><trkpt lat="45.49074587719285" lon="11.019707493329944"><ele>108.4</ele><time>2026-05-01T07:34:08Z</time></trkpt><trkpt lat="45.490845974915" lon="11.01971693283362"><ele>109.2</ele><time>2026-05-01T07:34:09Z</time></trkpt><trkpt lat="45.49092225193253" lon="11.019746775212257"><ele>110.0</ele><time>2026-05-01T07:34:10Z</time></trkpt><trkpt lat="45.49097492390703" lon="11.019814903280162"><ele>110.0</ele><time>2026-05-01T07:34:11Z</time></trkpt><trkpt lat="45.49101215524096" lon="11.01991307416189"><ele>110.0</ele><time>2026-05-01T07:34:12Z</time></trkpt><trkpt lat="45.49114062533951" lon="11.019927484048498"><ele>110.0</ele><time>2026-05-01T07:34:14Z</time></trkpt><trkpt lat="45.4912211855236" lon="11.019687105094691"><ele>110.0</ele><time>2026-05-01T07:34:16Z</time></trkpt><trkpt lat="45.49129485966953" lon="11.019625349491026"><ele>110.5</ele><time>2026-05-01T07:34:17Z</time></trkpt><trkpt lat="45.491395945265296" lon="11.01959300104689"><ele>111.0</ele><time>2026-05-01T07:34:18Z</time></trkpt><trkpt lat="45.491509298727244" lon="11.019567775577372"><ele>111.5</ele><time>2026-05-01T07:34:19Z</time></trkpt><trkpt lat="45.491626039739096" lon="11.01954237978219"><ele>112.0</ele><time>2026-05-01T07:34:20Z</time></trkpt><trkpt lat="45.49175494991862" lon="11.01950479653586"><ele>112.00000000000001</ele><time>2026-05-01T07:34:21Z</time></trkpt><trkpt lat="45.491870172988136" lon="11.019473916520342"><ele>112.0</ele><time>2026-05-01T07:34:22Z</time></trkpt><trkpt lat="45.49195997447565" lon="11.01944103604751"><ele>112.0</ele><time>2026-05-01T07:34:23Z</time></trkpt><trkpt lat="45.49203243683955" lon="11.019416897884076"><ele>112.0</ele><time>2026-05-01T07:34:24Z</time></trkpt><trkpt lat="45.49209810970632" lon="11.019390699006454"><ele>112.00000000000001</ele><time>2026-05-01T07:34:25Z</time></trkpt><trkpt lat="45.492160467879664" lon="11.019366948989608"><ele>112.0</ele><time>2026-05-01T07:34:26Z</time></trkpt><trkpt lat="45.492294358958965" lon="11.019304665821378"><ele>112.19999999999999</ele><time>2026-05-01T07:34:28Z</time></trkpt><trkpt lat="45.49237224003694" lon="11.01926560466323"><ele>112.39999999999999</ele><time>2026-05-01T07:34:29Z</time></trkpt><trkpt lat="45.492451098822215" lon="11.019233210684343"><ele>112.60000000000001</ele><time>2026-05-01T07:34:30Z</time></trkpt><trkpt lat="45.49252143019877" lon="11.019207151330177"><ele>112.80000000000001</ele><time>2026-05-01T07:34:31Z</time></trkpt><trkpt lat="45.492635568448215" lon="11.019171887133577"><ele>113.0</ele><time>2026-05-01T07:34:33Z</time></trkpt><trkpt lat="45.492752998115044" lon="11.019122266554033"><ele>113.0</ele><time>2026-05-01T07:34:35Z</time></trkpt><trkpt lat="45.49282943044041" lon="11.019092438771539"><ele>113.00000000000001</ele><time>2026-05-01T07:34:36Z</time></trkpt><trkpt lat="45.49292390773082" lon="11.019062799020913"><ele>113.00000000000001</ele><time>2026-05-01T07:34:36.999Z</time></trkpt><trkpt lat="45.493037321998194" lon="11.01903310755616"><ele>113.0</ele><time>2026-05-01T07:34:37.999Z</time></trkpt><trkpt lat="45.4931615771956" lon="11.019000250208778"><ele>113.0</ele><time>2026-05-01T07:34:38.999Z</time></trkpt><trkpt lat="45.49329601370931" lon="11.018972281604405"><ele>113.5</ele><time>2026-05-01T07:34:39.999Z</time></trkpt><trkpt lat="45.493438360255325" lon="11.018945961862768"><ele>114.0</ele><time>2026-05-01T07:34:40.999Z</time></trkpt><trkpt lat="45.49358228740856" lon="11.018915314057418"><ele>114.5</ele><time>2026-05-01T07:34:41.999Z</time></trkpt><trkpt lat="45.49371269026826" lon="11.018880473600326"><ele>115.0</ele><time>2026-05-01T07:34:42.999Z</time></trkpt><trkpt lat="45.49383752076649" lon="11.018865419864833"><ele>115.25</ele><time>2026-05-01T07:34:43.999Z</time></trkpt><trkpt lat="45.49396370442816" lon="11.018859318726987"><ele>115.5</ele><time>2026-05-01T07:34:45Z</time></trkpt><trkpt lat="45.49409232151788" lon="11.018861428742218"><ele>115.75</ele><time>2026-05-01T07:34:46Z</time></trkpt><trkpt lat="45.494229476889984" lon="11.018872783484548"><ele>116.0</ele><time>2026-05-01T07:34:47Z</time></trkpt><trkpt lat="45.494364645627364" lon="11.018904653409987"><ele>116.0</ele><time>2026-05-01T07:34:48Z</time></trkpt><trkpt lat="45.494500434588545" lon="11.018921600606205"><ele>116.0</ele><time>2026-05-01T07:34:49Z</time></trkpt><trkpt lat="45.494637558800086" lon="11.018944218770036"><ele>116.0</ele><time>2026-05-01T07:34:50Z</time></trkpt><trkpt lat="45.494775595466486" lon="11.018982775975388"><ele>116.0</ele><time>2026-05-01T07:34:51Z</time></trkpt><trkpt lat="45.49490695939688" lon="11.019002356190462"><ele>116.0</ele><time>2026-05-01T07:34:52Z</time></trkpt><trkpt lat="45.49504185617042" lon="11.019015464469767"><ele>116.0</ele><time>2026-05-01T07:34:53Z</time></trkpt><trkpt lat="45.49518088759373" lon="11.019040107693355"><ele>116.0</ele><time>2026-05-01T07:34:54Z</time></trkpt><trkpt lat="45.495325537565414" lon="11.019051489773492"><ele>116.0</ele><time>2026-05-01T07:34:55Z</time></trkpt><trkpt lat="45.49546799935375" lon="11.019070878967327"><ele>116.75</ele><time>2026-05-01T07:34:56Z</time></trkpt><trkpt lat="45.4956097188861" lon="11.01908103072056"><ele>117.5</ele><time>2026-05-01T07:34:57Z</time></trkpt><trkpt lat="45.49575210783627" lon="11.019081532918031"><ele>118.25</ele><time>2026-05-01T07:34:58Z</time></trkpt><trkpt lat="45.49589360843596" lon="11.019069161863577"><ele>119.0</ele><time>2026-05-01T07:34:59Z</time></trkpt><trkpt lat="45.49603834665877" lon="11.019053616123152"><ele>119.0</ele><time>2026-05-01T07:35:00Z</time></trkpt><trkpt lat="45.496189015896455" lon="11.01903654239669"><ele>119.0</ele><time>2026-05-01T07:35:01Z</time></trkpt><trkpt lat="45.49634093329686" lon="11.019042887864893"><ele>119.0</ele><time>2026-05-01T07:35:02Z</time></trkpt><trkpt lat="45.49648998736449" lon="11.019028700011834"><ele>119.0</ele><time>2026-05-01T07:35:03Z</time></trkpt><trkpt lat="45.496640724076315" lon="11.018989732223956"><ele>119.0</ele><time>2026-05-01T07:35:04Z</time></trkpt><trkpt lat="45.49679006790691" lon="11.01896210477797"><ele>119.0</ele><time>2026-05-01T07:35:05Z</time></trkpt><trkpt lat="45.49693206632378" lon="11.018895796824937"><ele>119.0</ele><time>2026-05-01T07:35:06Z</time></trkpt><trkpt lat="45.49707663491469" lon="11.018820333215572"><ele>119.0</ele><time>2026-05-01T07:35:07Z</time></trkpt><trkpt lat="45.497215132069336" lon="11.018726615947495"><ele>119.0</ele><time>2026-05-01T07:35:08Z</time></trkpt><trkpt lat="45.4973566297215" lon="11.018631489920638"><ele>119.66666666666666</ele><time>2026-05-01T07:35:09Z</time></trkpt><trkpt lat="45.497496265292106" lon="11.018521648484073"><ele>120.33333333333334</ele><time>2026-05-01T07:35:10Z</time></trkpt><trkpt lat="45.49763545219024" lon="11.01842502434473"><ele>121.0</ele><time>2026-05-01T07:35:11Z</time></trkpt><trkpt lat="45.49778355437082" lon="11.018328143520378"><ele>122.0</ele><time>2026-05-01T07:35:12Z</time></trkpt><trkpt lat="45.497935851534706" lon="11.01824665697425"><ele>123.0</ele><time>2026-05-01T07:35:13Z</time></trkpt><trkpt lat="45.49808131010057" lon="11.018141135608476"><ele>124.0</ele><time>2026-05-01T07:35:14Z</time></trkpt><trkpt lat="45.49822899253009" lon="11.018035994787791"><ele>124.0</ele><time>2026-05-01T07:35:15Z</time></trkpt><trkpt lat="45.498379977976256" lon="11.01794112303879"><ele>124.0</ele><time>2026-05-01T07:35:16Z</time></trkpt><trkpt lat="45.49853227117498" lon="11.017843323353496"><ele>124.0</ele><time>2026-05-01T07:35:17Z</time></trkpt><trkpt lat="45.49869305426248" lon="11.01777709160812"><ele>124.33333333333334</ele><time>2026-05-01T07:35:18Z</time></trkpt><trkpt lat="45.498853936393175" lon="11.017687796887868"><ele>124.66666666666666</ele><time>2026-05-01T07:35:19Z</time></trkpt><trkpt lat="45.499023445939784" lon="11.017630902836821"><ele>125.0</ele><time>2026-05-01T07:35:20Z</time></trkpt><trkpt lat="45.49919808613041" lon="11.017573622742368"><ele>125.0</ele><time>2026-05-01T07:35:21Z</time></trkpt><trkpt lat="45.49936596544621" lon="11.017524739134844"><ele>125.0</ele><time>2026-05-01T07:35:22Z</time></trkpt><trkpt lat="45.49953363610631" lon="11.017479622573221"><ele>125.0</ele><time>2026-05-01T07:35:23Z</time></trkpt><trkpt lat="45.499700403235195" lon="11.01743006747054"><ele>126.0</ele><time>2026-05-01T07:35:24Z</time></trkpt><trkpt lat="45.49986598281201" lon="11.017378556078508"><ele>127.0</ele><time>2026-05-01T07:35:25Z</time></trkpt><trkpt lat="45.50002289523715" lon="11.01733079983385"><ele>128.0</ele><time>2026-05-01T07:35:26Z</time></trkpt><trkpt lat="45.50017900927676" lon="11.017280972533097"><ele>128.0</ele><time>2026-05-01T07:35:27Z</time></trkpt><trkpt lat="45.50032752921372" lon="11.017236871136946"><ele>128.0</ele><time>2026-05-01T07:35:28Z</time></trkpt><trkpt lat="45.50047561393193" lon="11.017202619303509"><ele>128.0</ele><time>2026-05-01T07:35:29Z</time></trkpt><trkpt lat="45.50062190762439" lon="11.01716747897852"><ele>128.5</ele><time>2026-05-01T07:35:30Z</time></trkpt><trkpt lat="45.5007730083399" lon="11.017158756357423"><ele>129.0</ele><time>2026-05-01T07:35:31Z</time></trkpt><trkpt lat="45.50091931292698" lon="11.017157888572706"><ele>129.5</ele><time>2026-05-01T07:35:32Z</time></trkpt><trkpt lat="45.50106950807269" lon="11.017175571269286"><ele>130.0</ele><time>2026-05-01T07:35:33Z</time></trkpt><trkpt lat="45.50121487242324" lon="11.017196355989132"><ele>130.66666666666669</ele><time>2026-05-01T07:35:34Z</time></trkpt><trkpt lat="45.50136292510658" lon="11.017217060230069"><ele>131.33333333333334</ele><time>2026-05-01T07:35:35Z</time></trkpt><trkpt lat="45.50151337934935" lon="11.01723432259374"><ele>132.0</ele><time>2026-05-01T07:35:36Z</time></trkpt><trkpt lat="45.501669649898105" lon="11.01723528882363"><ele>132.0</ele><time>2026-05-01T07:35:37Z</time></trkpt><trkpt lat="45.50180906490316" lon="11.017226916502592"><ele>132.0</ele><time>2026-05-01T07:35:38Z</time></trkpt><trkpt lat="45.50195578598767" lon="11.017219655741258"><ele>132.0</ele><time>2026-05-01T07:35:39Z</time></trkpt><trkpt lat="45.502099095748825" lon="11.017207753084344"><ele>132.0</ele><time>2026-05-01T07:35:40Z</time></trkpt><trkpt lat="45.5022408535149" lon="11.017196600788187"><ele>132.25</ele><time>2026-05-01T07:35:41Z</time></trkpt><trkpt lat="45.50237535728416" lon="11.017196576765947"><ele>132.5</ele><time>2026-05-01T07:35:42Z</time></trkpt><trkpt lat="45.50251101281365" lon="11.017198323185552"><ele>132.75</ele><time>2026-05-01T07:35:43Z</time></trkpt><trkpt lat="45.50264605563635" lon="11.01718844757782"><ele>133.0</ele><time>2026-05-01T07:35:44Z</time></trkpt><trkpt lat="45.50277888004661" lon="11.017180404033201"><ele>133.25</ele><time>2026-05-01T07:35:45Z</time></trkpt><trkpt lat="45.50291983243109" lon="11.017171117204706"><ele>133.5</ele><time>2026-05-01T07:35:46Z</time></trkpt><trkpt lat="45.50306110188886" lon="11.017161422626062"><ele>133.75</ele><time>2026-05-01T07:35:47Z</time></trkpt><trkpt lat="45.503203362603585" lon="11.017160876030145"><ele>134.0</ele><time>2026-05-01T07:35:48Z</time></trkpt><trkpt lat="45.50334633307051" lon="11.017160235469774"><ele>134.0</ele><time>2026-05-01T07:35:49Z</time></trkpt><trkpt lat="45.50348628155749" lon="11.017154925174681"><ele>134.0</ele><time>2026-05-01T07:35:50Z</time></trkpt><trkpt lat="45.50363189472993" lon="11.017146774660805"><ele>134.0</ele><time>2026-05-01T07:35:51Z</time></trkpt><trkpt lat="45.50377325202094" lon="11.017151775020935"><ele>134.0</ele><time>2026-05-01T07:35:52Z</time></trkpt><trkpt lat="45.503925183737955" lon="11.017140089152116"><ele>134.5</ele><time>2026-05-01T07:35:53Z</time></trkpt><trkpt lat="45.50407650341216" lon="11.017143222256584"><ele>135.0</ele><time>2026-05-01T07:35:54Z</time></trkpt><trkpt lat="45.504219428714755" lon="11.017135506513009"><ele>135.5</ele><time>2026-05-01T07:35:55Z</time></trkpt><trkpt lat="45.504366011225024" lon="11.017121825572088"><ele>136.0</ele><time>2026-05-01T07:35:56Z</time></trkpt><trkpt lat="45.50450727148853" lon="11.01710362652977"><ele>136.0</ele><time>2026-05-01T07:35:57Z</time></trkpt><trkpt lat="45.50464635939405" lon="11.017074163998744"><ele>136.0</ele><time>2026-05-01T07:35:58Z</time></trkpt><trkpt lat="45.504791416795605" lon="11.017041867375518"><ele>136.0</ele><time>2026-05-01T07:35:59Z</time></trkpt><trkpt lat="45.50493202311273" lon="11.017019953041196"><ele>136.0</ele><time>2026-05-01T07:36:00Z</time></trkpt><trkpt lat="45.505078392215964" lon="11.016992207072182"><ele>136.0</ele><time>2026-05-01T07:36:01Z</time></trkpt><trkpt lat="45.50523030681172" lon="11.01695267161509"><ele>136.0</ele><time>2026-05-01T07:36:02Z</time></trkpt><trkpt lat="45.50537878013161" lon="11.01691602350956"><ele>136.0</ele><time>2026-05-01T07:36:03Z</time></trkpt><trkpt lat="45.50553195215169" lon="11.01687932086252"><ele>136.5</ele><time>2026-05-01T07:36:04Z</time></trkpt><trkpt lat="45.505678864273825" lon="11.016835753387989"><ele>137.0</ele><time>2026-05-01T07:36:05Z</time></trkpt><trkpt lat="45.505830081135876" lon="11.01682320700655"><ele>137.5</ele><time>2026-05-01T07:36:06Z</time></trkpt><trkpt lat="45.505969370599416" lon="11.016811785240296"><ele>138.0</ele><time>2026-05-01T07:36:07Z</time></trkpt><trkpt lat="45.50609613141528" lon="11.016809773870875"><ele>138.0</ele><time>2026-05-01T07:36:08Z</time></trkpt><trkpt lat="45.506229091352765" lon="11.016820496739241"><ele>138.0</ele><time>2026-05-01T07:36:09Z</time></trkpt><trkpt lat="45.50636896628186" lon="11.016834330957344"><ele>138.0</ele><time>2026-05-01T07:36:10Z</time></trkpt><trkpt lat="45.506520207159696" lon="11.016854571713008"><ele>138.0</ele><time>2026-05-01T07:36:11Z</time></trkpt><trkpt lat="45.506676591591194" lon="11.016885579298798"><ele>138.66666666666666</ele><time>2026-05-01T07:36:12Z</time></trkpt><trkpt lat="45.506836865535206" lon="11.016907433540496"><ele>139.33333333333331</ele><time>2026-05-01T07:36:13Z</time></trkpt><trkpt lat="45.506996720710326" lon="11.016930474441196"><ele>140.0</ele><time>2026-05-01T07:36:14Z</time></trkpt><trkpt lat="45.50715345416435" lon="11.016952802035794"><ele>140.66666666666666</ele><time>2026-05-01T07:36:15Z</time></trkpt><trkpt lat="45.507312996301735" lon="11.016970211760551"><ele>141.33333333333334</ele><time>2026-05-01T07:36:16Z</time></trkpt><trkpt lat="45.507466486175915" lon="11.016978492432184"><ele>142.0</ele><time>2026-05-01T07:36:17Z</time></trkpt><trkpt lat="45.5076201090053" lon="11.016990700815999"><ele>142.0</ele><time>2026-05-01T07:36:18Z</time></trkpt><trkpt lat="45.507771524028435" lon="11.016994558388879"><ele>142.0</ele><time>2026-05-01T07:36:19Z</time></trkpt><trkpt lat="45.507925156623614" lon="11.017003667822452"><ele>142.0</ele><time>2026-05-01T07:36:20Z</time></trkpt><trkpt lat="45.50807888159873" lon="11.017013110943614"><ele>142.33333333333334</ele><time>2026-05-01T07:36:21Z</time></trkpt><trkpt lat="45.5082349033516" lon="11.016988411525238"><ele>142.66666666666666</ele><time>2026-05-01T07:36:22Z</time></trkpt><trkpt lat="45.50838975705271" lon="11.01697643361321"><ele>143.0</ele><time>2026-05-01T07:36:23Z</time></trkpt><trkpt lat="45.50854804840796" lon="11.016966737683886"><ele>143.0</ele><time>2026-05-01T07:36:24Z</time></trkpt><trkpt lat="45.50870822694966" lon="11.016951553977735"><ele>143.0</ele><time>2026-05-01T07:36:25Z</time></trkpt><trkpt lat="45.50886282644652" lon="11.016934441344784"><ele>143.0</ele><time>2026-05-01T07:36:26Z</time></trkpt><trkpt lat="45.50901765882878" lon="11.016913775325987"><ele>143.33333333333331</ele><time>2026-05-01T07:36:27Z</time></trkpt><trkpt lat="45.50916793799755" lon="11.01690034216713"><ele>143.66666666666666</ele><time>2026-05-01T07:36:28Z</time></trkpt><trkpt lat="45.50931722858291" lon="11.016892697628409"><ele>144.0</ele><time>2026-05-01T07:36:29Z</time></trkpt><trkpt lat="45.50946993155246" lon="11.01688345243129"><ele>145.0</ele><time>2026-05-01T07:36:30Z</time></trkpt><trkpt lat="45.509627395580715" lon="11.016864754070447"><ele>146.0</ele><time>2026-05-01T07:36:31Z</time></trkpt><trkpt lat="45.50978688893166" lon="11.016846026183194"><ele>147.0</ele><time>2026-05-01T07:36:32Z</time></trkpt><trkpt lat="45.50994229479568" lon="11.016832044767959"><ele>147.0</ele><time>2026-05-01T07:36:33Z</time></trkpt><trkpt lat="45.51010223499284" lon="11.016817220607681"><ele>147.0</ele><time>2026-05-01T07:36:34Z</time></trkpt><trkpt lat="45.510261392815366" lon="11.016803207039631"><ele>147.0</ele><time>2026-05-01T07:36:35Z</time></trkpt><trkpt lat="45.510412911193995" lon="11.01678954421318"><ele>147.5</ele><time>2026-05-01T07:36:36Z</time></trkpt><trkpt lat="45.510562244382434" lon="11.01677849498194"><ele>148.0</ele><time>2026-05-01T07:36:37Z</time></trkpt><trkpt lat="45.51071019637882" lon="11.01676265968031"><ele>148.5</ele><time>2026-05-01T07:36:38Z</time></trkpt><trkpt lat="45.510856220639575" lon="11.01674062264798"><ele>149.0</ele><time>2026-05-01T07:36:39Z</time></trkpt><trkpt lat="45.51100528836784" lon="11.016718603232926"><ele>149.0</ele><time>2026-05-01T07:36:40Z</time></trkpt><trkpt lat="45.51115139400594" lon="11.016700061619584"><ele>149.0</ele><time>2026-05-01T07:36:41Z</time></trkpt><trkpt lat="45.51129980356671" lon="11.016678972396251"><ele>149.0</ele><time>2026-05-01T07:36:42Z</time></trkpt><trkpt lat="45.511440227807" lon="11.016646315007801"><ele>149.0</ele><time>2026-05-01T07:36:43Z</time></trkpt><trkpt lat="45.511590006284585" lon="11.016617038983838"><ele>150.0</ele><time>2026-05-01T07:36:44Z</time></trkpt><trkpt lat="45.511738148865355" lon="11.01659088013349"><ele>151.0</ele><time>2026-05-01T07:36:45Z</time></trkpt><trkpt lat="45.511889232457" lon="11.016560593474212"><ele>152.0</ele><time>2026-05-01T07:36:46Z</time></trkpt><trkpt lat="45.512027700985506" lon="11.016519462461279"><ele>153.0</ele><time>2026-05-01T07:36:47Z</time></trkpt><trkpt lat="45.51217644113173" lon="11.01648323546327"><ele>153.75</ele><time>2026-05-01T07:36:48Z</time></trkpt><trkpt lat="45.51232232941736" lon="11.016450006505522"><ele>154.5</ele><time>2026-05-01T07:36:49Z</time></trkpt><trkpt lat="45.51246993624538" lon="11.016412201741932"><ele>155.25</ele><time>2026-05-01T07:36:50Z</time></trkpt><trkpt lat="45.51261768468125" lon="11.016374780081373"><ele>156.0</ele><time>2026-05-01T07:36:51Z</time></trkpt><trkpt lat="45.51276310765087" lon="11.016340537225226"><ele>156.5</ele><time>2026-05-01T07:36:52Z</time></trkpt><trkpt lat="45.51291089770176" lon="11.016310314855597"><ele>157.0</ele><time>2026-05-01T07:36:53Z</time></trkpt><trkpt lat="45.513052003366006" lon="11.01628158080793"><ele>157.5</ele><time>2026-05-01T07:36:54Z</time></trkpt><trkpt lat="45.51319023835649" lon="11.016254724803458"><ele>158.0</ele><time>2026-05-01T07:36:55Z</time></trkpt><trkpt lat="45.51332740247032" lon="11.016228448565256"><ele>158.0</ele><time>2026-05-01T07:36:56Z</time></trkpt><trkpt lat="45.51346454038359" lon="11.016208649865213"><ele>158.0</ele><time>2026-05-01T07:36:57Z</time></trkpt><trkpt lat="45.51359949221541" lon="11.016194401276172"><ele>158.0</ele><time>2026-05-01T07:36:58Z</time></trkpt><trkpt lat="45.5137340527707" lon="11.016179805697176"><ele>158.0</ele><time>2026-05-01T07:36:59Z</time></trkpt><trkpt lat="45.51386828742021" lon="11.016168969119272"><ele>158.75</ele><time>2026-05-01T07:37:00Z</time></trkpt><trkpt lat="45.51401065930397" lon="11.016158273477089"><ele>159.5</ele><time>2026-05-01T07:37:01Z</time></trkpt><trkpt lat="45.514149856511565" lon="11.01615793521733"><ele>160.25</ele><time>2026-05-01T07:37:02Z</time></trkpt><trkpt lat="45.51428516118193" lon="11.016153683127014"><ele>161.0</ele><time>2026-05-01T07:37:03Z</time></trkpt><trkpt lat="45.514411146776375" lon="11.016149207768331"><ele>161.0</ele><time>2026-05-01T07:37:04Z</time></trkpt><trkpt lat="45.51453402298784" lon="11.016144891137898"><ele>161.0</ele><time>2026-05-01T07:37:05Z</time></trkpt><trkpt lat="45.5146573512535" lon="11.016148596742692"><ele>161.0</ele><time>2026-05-01T07:37:06Z</time></trkpt><trkpt lat="45.51478068677102" lon="11.0161500091042"><ele>161.0</ele><time>2026-05-01T07:37:07Z</time></trkpt><trkpt lat="45.514901772259776" lon="11.01615391211041"><ele>162.25</ele><time>2026-05-01T07:37:08Z</time></trkpt><trkpt lat="45.5150255933509" lon="11.016159032512757"><ele>163.5</ele><time>2026-05-01T07:37:09Z</time></trkpt><trkpt lat="45.515145171689966" lon="11.016161587582815"><ele>164.75</ele><time>2026-05-01T07:37:10Z</time></trkpt><trkpt lat="45.51526483282663" lon="11.016169363307482"><ele>166.0</ele><time>2026-05-01T07:37:11Z</time></trkpt><trkpt lat="45.515386464657894" lon="11.0161837402051"><ele>166.4</ele><time>2026-05-01T07:37:12Z</time></trkpt><trkpt lat="45.51549979032342" lon="11.016190902293078"><ele>166.8</ele><time>2026-05-01T07:37:13Z</time></trkpt><trkpt lat="45.51559662984763" lon="11.016214684052121"><ele>167.20000000000002</ele><time>2026-05-01T07:37:14Z</time></trkpt><trkpt lat="45.51568397995084" lon="11.016231123256233"><ele>167.60000000000002</ele><time>2026-05-01T07:37:15Z</time></trkpt><trkpt lat="45.51575982304904" lon="11.016252739629179"><ele>168.0</ele><time>2026-05-01T07:37:17Z</time></trkpt><trkpt lat="45.51587061370719" lon="11.01624422950037"><ele>168.0</ele><time>2026-05-01T07:38:02Z</time></trkpt><trkpt lat="45.51593338072047" lon="11.016257917839823"><ele>168.0</ele><time>2026-05-01T07:38:03Z</time></trkpt><trkpt lat="45.51600842692" lon="11.016262606364524"><ele>168.0</ele><time>2026-05-01T07:38:04Z</time></trkpt><trkpt lat="45.516084359995126" lon="11.016274295444616"><ele>168.0</ele><time>2026-05-01T07:38:05Z</time></trkpt><trkpt lat="45.516156961182524" lon="11.016277800892755"><ele>168.0</ele><time>2026-05-01T07:38:06Z</time></trkpt><trkpt lat="45.51623154602015" lon="11.016283505853679"><ele>168.0</ele><time>2026-05-01T07:38:07Z</time></trkpt><trkpt lat="45.51630647884781" lon="11.016285420389929"><ele>168.0</ele><time>2026-05-01T07:38:08Z</time></trkpt><trkpt lat="45.51638035985076" lon="11.016290675162796"><ele>168.8</ele><time>2026-05-01T07:38:09Z</time></trkpt><trkpt lat="45.51645365461777" lon="11.016293727272089"><ele>169.60000000000002</ele><time>2026-05-01T07:38:10Z</time></trkpt><trkpt lat="45.51657075003075" lon="11.016297142691746"><ele>170.39999999999998</ele><time>2026-05-01T07:38:12Z</time></trkpt><trkpt lat="45.51664708737484" lon="11.016323487261198"><ele>171.2</ele><time>2026-05-01T07:38:14Z</time></trkpt><trkpt lat="45.51654456254852" lon="11.016301175883994"><ele>172.0</ele><time>2026-05-01T07:38:18Z</time></trkpt><trkpt lat="45.51651171481685" lon="11.016178474232392"><ele>172.00000000000003</ele><time>2026-05-01T07:38:19Z</time></trkpt><trkpt lat="45.51645795092326" lon="11.016118972151848"><ele>172.0</ele><time>2026-05-01T07:38:21Z</time></trkpt><trkpt lat="45.516410943145864" lon="11.016212852541171"><ele>172.0</ele><time>2026-05-01T07:38:23Z</time></trkpt><trkpt lat="45.516352701359956" lon="11.016164224184267"><ele>172.0</ele><time>2026-05-01T07:42:09Z</time></trkpt><trkpt lat="45.5162887748448" lon="11.016161313486846"><ele>172.0</ele><time>2026-05-01T07:42:12Z</time></trkpt><trkpt lat="45.51621882778686" lon="11.01615812861438"><ele>172.00000000000003</ele><time>2026-05-01T07:42:16Z</time></trkpt><trkpt lat="45.51614592104932" lon="11.016248101101167"><ele>172.0</ele><time>2026-05-01T07:42:18Z</time></trkpt><trkpt lat="45.51603670957026" lon="11.016240892273647"><ele>171.2</ele><time>2026-05-01T07:42:20Z</time></trkpt><trkpt lat="45.51598780695902" lon="11.016423906671935"><ele>170.39999999999998</ele><time>2026-05-01T07:42:22Z</time></trkpt><trkpt lat="45.51596328387356" lon="11.016590881679456"><ele>169.60000000000002</ele><time>2026-05-01T07:42:24Z</time></trkpt><trkpt lat="45.515953573156686" lon="11.016720392519105"><ele>168.8</ele><time>2026-05-01T07:42:26Z</time></trkpt><trkpt lat="45.51594636813488" lon="11.016814074816452"><ele>168.0</ele><time>2026-05-01T07:42:28Z</time></trkpt><trkpt lat="45.51593789017967" lon="11.016924308326113"><ele>167.28571428571428</ele><time>2026-05-01T07:42:31Z</time></trkpt><trkpt lat="45.51593041226825" lon="11.017021538762279"><ele>166.57142857142856</ele><time>2026-05-01T07:42:34Z</time></trkpt><trkpt lat="45.51592346990546" lon="11.017111805998908"><ele>165.85714285714286</ele><time>2026-05-01T07:42:40Z</time></trkpt><trkpt lat="45.515915776659135" lon="11.017236970003664"><ele>165.14285714285714</ele><time>2026-05-01T07:43:08Z</time></trkpt><trkpt lat="45.51591064472973" lon="11.017335862843042"><ele>164.42857142857142</ele><time>2026-05-01T07:43:09Z</time></trkpt><trkpt lat="45.51590488624928" lon="11.017446829409025"><ele>163.71428571428572</ele><time>2026-05-01T07:43:10Z</time></trkpt><trkpt lat="45.515899155207805" lon="11.017557267187792"><ele>163.0</ele><time>2026-05-01T07:43:11Z</time></trkpt><trkpt lat="45.51589280056062" lon="11.017679721947161"><ele>163.0</ele><time>2026-05-01T07:43:12Z</time></trkpt><trkpt lat="45.515886376918324" lon="11.01780350621155"><ele>163.0</ele><time>2026-05-01T07:43:13Z</time></trkpt><trkpt lat="45.5158794032252" lon="11.01793789148532"><ele>163.0</ele><time>2026-05-01T07:43:14Z</time></trkpt><trkpt lat="45.5158718798909" lon="11.018073002813116"><ele>163.0</ele><time>2026-05-01T07:43:15Z</time></trkpt><trkpt lat="45.51586430047058" lon="11.018212152031186"><ele>163.0</ele><time>2026-05-01T07:43:16Z</time></trkpt><trkpt lat="45.51585656960329" lon="11.018354081533312"><ele>162.4</ele><time>2026-05-01T07:43:17Z</time></trkpt><trkpt lat="45.51584947572707" lon="11.018494321295272"><ele>161.8</ele><time>2026-05-01T07:43:18Z</time></trkpt><trkpt lat="45.515841132601864" lon="11.018638320517596"><ele>161.2</ele><time>2026-05-01T07:43:19Z</time></trkpt><trkpt lat="45.515832359603394" lon="11.01878640194473"><ele>160.6</ele><time>2026-05-01T07:43:20Z</time></trkpt><trkpt lat="45.51582342247993" lon="11.018937253651215"><ele>160.0</ele><time>2026-05-01T07:43:21Z</time></trkpt><trkpt lat="45.515814388709124" lon="11.019089736684503"><ele>159.83333333333334</ele><time>2026-05-01T07:43:22Z</time></trkpt><trkpt lat="45.51580544748898" lon="11.01924065759534"><ele>159.66666666666669</ele><time>2026-05-01T07:43:23Z</time></trkpt><trkpt lat="45.515797068286886" lon="11.019379300634242"><ele>159.5</ele><time>2026-05-01T07:43:24Z</time></trkpt><trkpt lat="45.51578949553966" lon="11.019503444440316"><ele>159.33333333333334</ele><time>2026-05-01T07:43:25Z</time></trkpt><trkpt lat="45.51578331499624" lon="11.01960476539608"><ele>159.16666666666666</ele><time>2026-05-01T07:43:26Z</time></trkpt><trkpt lat="45.51579057234721" lon="11.019726195917054"><ele>159.0</ele><time>2026-05-01T07:43:28Z</time></trkpt><trkpt lat="45.51602480636666" lon="11.019712997806154"><ele>159.0</ele><time>2026-05-01T07:43:29Z</time></trkpt><trkpt lat="45.516128305235185" lon="11.019734115434174"><ele>159.0</ele><time>2026-05-01T07:43:30Z</time></trkpt><trkpt lat="45.5162420060468" lon="11.0197203675246"><ele>159.0</ele><time>2026-05-01T07:43:31Z</time></trkpt><trkpt lat="45.51636067824177" lon="11.01972096076879"><ele>159.0</ele><time>2026-05-01T07:43:32Z</time></trkpt><trkpt lat="45.51648371286124" lon="11.019731985825079"><ele>159.75</ele><time>2026-05-01T07:43:33Z</time></trkpt><trkpt lat="45.516611709509924" lon="11.019744095646361"><ele>160.5</ele><time>2026-05-01T07:43:34Z</time></trkpt><trkpt lat="45.51674522304576" lon="11.01974805886392"><ele>161.25</ele><time>2026-05-01T07:43:35Z</time></trkpt><trkpt lat="45.516880750017044" lon="11.01975559571402"><ele>162.0</ele><time>2026-05-01T07:43:36Z</time></trkpt><trkpt lat="45.51701714777539" lon="11.019765685586968"><ele>162.5</ele><time>2026-05-01T07:43:37Z</time></trkpt><trkpt lat="45.51715323975035" lon="11.01977664901965"><ele>163.0</ele><time>2026-05-01T07:43:38Z</time></trkpt><trkpt lat="45.51728873403525" lon="11.019784688177744"><ele>163.5</ele><time>2026-05-01T07:43:39Z</time></trkpt><trkpt lat="45.51742090680166" lon="11.019793710280242"><ele>164.0</ele><time>2026-05-01T07:43:40Z</time></trkpt><trkpt lat="45.51754779784261" lon="11.01980122179761"><ele>164.0</ele><time>2026-05-01T07:43:41Z</time></trkpt><trkpt lat="45.51767101668572" lon="11.01980350960673"><ele>164.0</ele><time>2026-05-01T07:43:42Z</time></trkpt><trkpt lat="45.51778754252087" lon="11.019810711780861"><ele>164.0</ele><time>2026-05-01T07:43:43Z</time></trkpt><trkpt lat="45.517907713639346" lon="11.01982427394319"><ele>164.0</ele><time>2026-05-01T07:43:44Z</time></trkpt><trkpt lat="45.51802972776043" lon="11.01983069479056"><ele>164.6</ele><time>2026-05-01T07:43:45Z</time></trkpt><trkpt lat="45.51814410855484" lon="11.019843056669718"><ele>165.2</ele><time>2026-05-01T07:43:46Z</time></trkpt><trkpt lat="45.51825553259242" lon="11.019850291524294"><ele>165.79999999999998</ele><time>2026-05-01T07:43:47Z</time></trkpt><trkpt lat="45.518363048730315" lon="11.019855315061788"><ele>166.39999999999998</ele><time>2026-05-01T07:43:48Z</time></trkpt><trkpt lat="45.51845787913027" lon="11.019847235974062"><ele>167.0</ele><time>2026-05-01T07:43:49Z</time></trkpt><trkpt lat="45.51853092817725" lon="11.019848303206158"><ele>167.0</ele><time>2026-05-01T07:43:50Z</time></trkpt><trkpt lat="45.51860762901" lon="11.019887507894076"><ele>167.0</ele><time>2026-05-01T07:43:52Z</time></trkpt><trkpt lat="45.51861480949699" lon="11.020112226047377"><ele>167.0</ele><time>2026-05-01T07:43:55Z</time></trkpt><trkpt lat="45.518617349410974" lon="11.02022928326825"><ele>167.0</ele><time>2026-05-01T07:43:56Z</time></trkpt><trkpt lat="45.518619592635844" lon="11.020360432097359"><ele>167.0</ele><time>2026-05-01T07:43:57Z</time></trkpt><trkpt lat="45.51861851069067" lon="11.020504697426075"><ele>167.0</ele><time>2026-05-01T07:43:58Z</time></trkpt><trkpt lat="45.518615245935756" lon="11.020661181000673"><ele>167.0</ele><time>2026-05-01T07:43:59Z</time></trkpt><trkpt lat="45.5186097582019" lon="11.020821566564969"><ele>167.0</ele><time>2026-05-01T07:44:00Z</time></trkpt><trkpt lat="45.51860249688518" lon="11.020981397356666"><ele>167.0</ele><time>2026-05-01T07:44:01Z</time></trkpt><trkpt lat="45.51859029939502" lon="11.021143331082742"><ele>167.0</ele><time>2026-05-01T07:44:02Z</time></trkpt><trkpt lat="45.51857492156427" lon="11.021308244876435"><ele>167.0</ele><time>2026-05-01T07:44:03Z</time></trkpt><trkpt lat="45.518558469339766" lon="11.021476159973806"><ele>167.0</ele><time>2026-05-01T07:44:04Z</time></trkpt><trkpt lat="45.518540630431815" lon="11.021645111272305"><ele>167.0</ele><time>2026-05-01T07:44:05Z</time></trkpt><trkpt lat="45.51852170710288" lon="11.021817034956214"><ele>167.0</ele><time>2026-05-01T07:44:06Z</time></trkpt><trkpt lat="45.518504918685416" lon="11.021981296924736"><ele>167.0</ele><time>2026-05-01T07:44:07Z</time></trkpt><trkpt lat="45.51848716246841" lon="11.022129458418222"><ele>167.0</ele><time>2026-05-01T07:44:08Z</time></trkpt><trkpt lat="45.51846167043221" lon="11.02227842152904"><ele>167.0</ele><time>2026-05-01T07:44:09Z</time></trkpt><trkpt lat="45.51843522668849" lon="11.022392603468926"><ele>167.0</ele><time>2026-05-01T07:44:10Z</time></trkpt><trkpt lat="45.5183860725591" lon="11.02249541941342"><ele>167.0</ele><time>2026-05-01T07:44:11Z</time></trkpt><trkpt lat="45.518302083557224" lon="11.022571674350942"><ele>167.25</ele><time>2026-05-01T07:44:12Z</time></trkpt><trkpt lat="45.51818674042642" lon="11.022586219169785"><ele>167.5</ele><time>2026-05-01T07:44:13Z</time></trkpt><trkpt lat="45.51805591436937" lon="11.022594799020261"><ele>167.75</ele><time>2026-05-01T07:44:14Z</time></trkpt><trkpt lat="45.51794276979517" lon="11.022594832100218"><ele>168.0</ele><time>2026-05-01T07:44:15Z</time></trkpt><trkpt lat="45.51785220973912" lon="11.022607781700573"><ele>168.0</ele><time>2026-05-01T07:44:16Z</time></trkpt><trkpt lat="45.517777397408835" lon="11.022540127034564"><ele>168.0</ele><time>2026-05-01T07:44:17Z</time></trkpt><trkpt lat="45.51773710882844" lon="11.022424040506507"><ele>168.0</ele><time>2026-05-01T07:44:18Z</time></trkpt><trkpt lat="45.51768035642803" lon="11.022374364872718"><ele>168.0</ele><time>2026-05-01T07:44:19Z</time></trkpt><trkpt lat="45.51761282071592" lon="11.022364197827898"><ele>168.0</ele><time>2026-05-01T07:44:20Z</time></trkpt><trkpt lat="45.517549117957316" lon="11.022432307365468"><ele>168.0</ele><time>2026-05-01T07:44:21Z</time></trkpt><trkpt lat="45.51751353101819" lon="11.022543331167135"><ele>168.0</ele><time>2026-05-01T07:44:22Z</time></trkpt><trkpt lat="45.517495834298856" lon="11.02268228942519"><ele>168.0</ele><time>2026-05-01T07:44:23Z</time></trkpt><trkpt lat="45.51745642089617" lon="11.022826790142682"><ele>168.0</ele><time>2026-05-01T07:44:24Z</time></trkpt><trkpt lat="45.51735574616325" lon="11.022931674621304"><ele>168.0</ele><time>2026-05-01T07:44:25Z</time></trkpt><trkpt lat="45.51727041733284" lon="11.023076324892575"><ele>168.0</ele><time>2026-05-01T07:44:26Z</time></trkpt><trkpt lat="45.51721281931518" lon="11.023233077934531"><ele>168.0</ele><time>2026-05-01T07:44:27Z</time></trkpt><trkpt lat="45.51716772965204" lon="11.023411272805847"><ele>168.0</ele><time>2026-05-01T07:44:28Z</time></trkpt><trkpt lat="45.51714467521719" lon="11.023608574705202"><ele>168.0</ele><time>2026-05-01T07:44:29Z</time></trkpt><trkpt lat="45.51713835342279" lon="11.023809307355661"><ele>170.25</ele><time>2026-05-01T07:44:30Z</time></trkpt><trkpt lat="45.51714008548813" lon="11.024011359248805"><ele>172.5</ele><time>2026-05-01T07:44:31Z</time></trkpt><trkpt lat="45.51712458775928" lon="11.024211490581004"><ele>174.75</ele><time>2026-05-01T07:44:32Z</time></trkpt><trkpt lat="45.51713129006714" lon="11.024408505572458"><ele>177.0</ele><time>2026-05-01T07:44:33Z</time></trkpt><trkpt lat="45.51712880235505" lon="11.02460695893752"><ele>178.25</ele><time>2026-05-01T07:44:34Z</time></trkpt><trkpt lat="45.51712741697068" lon="11.024807592217828"><ele>179.5</ele><time>2026-05-01T07:44:35Z</time></trkpt><trkpt lat="45.517125592366774" lon="11.025015100929805"><ele>180.75</ele><time>2026-05-01T07:44:36Z</time></trkpt><trkpt lat="45.517122809575305" lon="11.025216956031223"><ele>182.0</ele><time>2026-05-01T07:44:37Z</time></trkpt><trkpt lat="45.51712450642946" lon="11.025429827334472"><ele>182.0</ele><time>2026-05-01T07:44:38Z</time></trkpt><trkpt lat="45.51712882596624" lon="11.025640345322017"><ele>182.0</ele><time>2026-05-01T07:44:39Z</time></trkpt><trkpt lat="45.517136304226725" lon="11.025855057782898"><ele>182.0</ele><time>2026-05-01T07:44:40Z</time></trkpt><trkpt lat="45.51715389277056" lon="11.026068025770165"><ele>182.0</ele><time>2026-05-01T07:44:41Z</time></trkpt><trkpt lat="45.517175287400256" lon="11.026282874040122"><ele>183.33333333333331</ele><time>2026-05-01T07:44:42Z</time></trkpt><trkpt lat="45.51720793422831" lon="11.026496385719275"><ele>184.66666666666666</ele><time>2026-05-01T07:44:43Z</time></trkpt><trkpt lat="45.517242790121735" lon="11.026709717203063"><ele>186.0</ele><time>2026-05-01T07:44:44Z</time></trkpt><trkpt lat="45.51727121362754" lon="11.026919376804653"><ele>187.0</ele><time>2026-05-01T07:44:45Z</time></trkpt><trkpt lat="45.5172890197763" lon="11.027136608556043"><ele>188.0</ele><time>2026-05-01T07:44:46Z</time></trkpt><trkpt lat="45.517336523279354" lon="11.027327479106091"><ele>189.0</ele><time>2026-05-01T07:44:47Z</time></trkpt><trkpt lat="45.517371651830075" lon="11.02749720193434"><ele>190.0</ele><time>2026-05-01T07:44:48Z</time></trkpt><trkpt lat="45.51744546172362" lon="11.027641215324474"><ele>191.0</ele><time>2026-05-01T07:44:49Z</time></trkpt><trkpt lat="45.51756755681139" lon="11.027771222629772"><ele>192.0</ele><time>2026-05-01T07:44:50Z</time></trkpt><trkpt lat="45.51772137385922" lon="11.027896276619172"><ele>193.0</ele><time>2026-05-01T07:44:51Z</time></trkpt><trkpt lat="45.517877693063454" lon="11.028036922508688"><ele>196.33333333333331</ele><time>2026-05-01T07:44:52Z</time></trkpt><trkpt lat="45.518033260691986" lon="11.028193463826636"><ele>199.66666666666669</ele><time>2026-05-01T07:44:53Z</time></trkpt><trkpt lat="45.51819318458538" lon="11.028356888124453"><ele>203.0</ele><time>2026-05-01T07:44:54Z</time></trkpt><trkpt lat="45.51835195849903" lon="11.028520908320708"><ele>203.0</ele><time>2026-05-01T07:44:55Z</time></trkpt><trkpt lat="45.518513645570515" lon="11.028686080000188"><ele>203.0</ele><time>2026-05-01T07:44:56Z</time></trkpt><trkpt lat="45.518665787001936" lon="11.028844559323009"><ele>203.0</ele><time>2026-05-01T07:44:57Z</time></trkpt><trkpt lat="45.518825063651875" lon="11.029003082094281"><ele>204.33333333333334</ele><time>2026-05-01T07:44:58Z</time></trkpt><trkpt lat="45.518980644147774" lon="11.029163575979274"><ele>205.66666666666669</ele><time>2026-05-01T07:44:59Z</time></trkpt><trkpt lat="45.51913016311173" lon="11.029317120793037"><ele>207.0</ele><time>2026-05-01T07:45:00Z</time></trkpt><trkpt lat="45.51927617424838" lon="11.02946498711434"><ele>207.0</ele><time>2026-05-01T07:45:01Z</time></trkpt><trkpt lat="45.519402769142374" lon="11.029659474147756"><ele>207.0</ele><time>2026-05-01T07:45:02Z</time></trkpt><trkpt lat="45.519539822858995" lon="11.029863847892589"><ele>207.0</ele><time>2026-05-01T07:45:03Z</time></trkpt><trkpt lat="45.51968099655967" lon="11.030080528289648"><ele>210.66666666666669</ele><time>2026-05-01T07:45:04Z</time></trkpt><trkpt lat="45.519821416077875" lon="11.0303001377162"><ele>214.33333333333334</ele><time>2026-05-01T07:45:05Z</time></trkpt><trkpt lat="45.51996015090338" lon="11.030516509363665"><ele>218.0</ele><time>2026-05-01T07:45:06Z</time></trkpt><trkpt lat="45.520097229843195" lon="11.030728835941886"><ele>216.66666666666669</ele><time>2026-05-01T07:45:06.999Z</time></trkpt><trkpt lat="45.52023247938831" lon="11.030937290228781"><ele>215.33333333333331</ele><time>2026-05-01T07:45:07.999Z</time></trkpt><trkpt lat="45.52037661273612" lon="11.031130684864221"><ele>214.0</ele><time>2026-05-01T07:45:08.999Z</time></trkpt><trkpt lat="45.52049487493101" lon="11.031354166528322"><ele>218.33333333333331</ele><time>2026-05-01T07:45:09.999Z</time></trkpt><trkpt lat="45.52061496526284" lon="11.031575954947018"><ele>222.66666666666669</ele><time>2026-05-01T07:45:10.999Z</time></trkpt><trkpt lat="45.520729787128374" lon="11.031794648849116"><ele>227.0</ele><time>2026-05-01T07:45:11.999Z</time></trkpt><trkpt lat="45.520850195643625" lon="11.031990507561662"><ele>227.0</ele><time>2026-05-01T07:45:12.999Z</time></trkpt><trkpt lat="45.52094766426306" lon="11.03218899764166"><ele>227.0</ele><time>2026-05-01T07:45:13.999Z</time></trkpt><trkpt lat="45.521023125641754" lon="11.032379812399187"><ele>227.0</ele><time>2026-05-01T07:45:14.999Z</time></trkpt><trkpt lat="45.52109661221305" lon="11.032549060752286"><ele>228.0</ele><time>2026-05-01T07:45:15.999Z</time></trkpt><trkpt lat="45.521172232636985" lon="11.032740895155907"><ele>229.0</ele><time>2026-05-01T07:45:16.999Z</time></trkpt><trkpt lat="45.5211736146542" lon="11.032988708048238"><ele>230.0</ele><time>2026-05-01T07:45:17.999Z</time></trkpt><trkpt lat="45.52118876386169" lon="11.033242092709244"><ele>235.0</ele><time>2026-05-01T07:45:18.999Z</time></trkpt><trkpt lat="45.521197092121035" lon="11.033513685212949"><ele>240.0</ele><time>2026-05-01T07:45:19.999Z</time></trkpt><trkpt lat="45.52120005523503" lon="11.033784439829018"><ele>245.0</ele><time>2026-05-01T07:45:20.999Z</time></trkpt><trkpt lat="45.52119416211792" lon="11.034044024947164"><ele>246.66666666666669</ele><time>2026-05-01T07:45:21.999Z</time></trkpt><trkpt lat="45.52117696412029" lon="11.034302012671372"><ele>248.33333333333331</ele><time>2026-05-01T07:45:22.999Z</time></trkpt><trkpt lat="45.521144141853675" lon="11.034545453556065"><ele>250.0</ele><time>2026-05-01T07:45:23.999Z</time></trkpt><trkpt lat="45.52108827765198" lon="11.034779795158327"><ele>248.33333333333331</ele><time>2026-05-01T07:45:25Z</time></trkpt><trkpt lat="45.52099810103817" lon="11.034986023462483"><ele>246.66666666666669</ele><time>2026-05-01T07:45:26Z</time></trkpt><trkpt lat="45.52086933215488" lon="11.03517394384898"><ele>245.0</ele><time>2026-05-01T07:45:27Z</time></trkpt><trkpt lat="45.5207264760167" lon="11.035381919221152"><ele>245.0</ele><time>2026-05-01T07:45:28Z</time></trkpt><trkpt lat="45.52057819276801" lon="11.035594785673062"><ele>245.0</ele><time>2026-05-01T07:45:29Z</time></trkpt><trkpt lat="45.520437659554545" lon="11.035828665506324"><ele>245.0</ele><time>2026-05-01T07:45:30Z</time></trkpt><trkpt lat="45.52029218505227" lon="11.036036656017693"><ele>249.0</ele><time>2026-05-01T07:45:31Z</time></trkpt><trkpt lat="45.52015341783609" lon="11.03623793206176"><ele>253.0</ele><time>2026-05-01T07:45:32Z</time></trkpt><trkpt lat="45.520031139282914" lon="11.036436218826596"><ele>257.0</ele><time>2026-05-01T07:45:33Z</time></trkpt><trkpt lat="45.519938331166465" lon="11.036656068572967"><ele>257.6666666666667</ele><time>2026-05-01T07:45:34Z</time></trkpt><trkpt lat="45.51986585304651" lon="11.036905402603331"><ele>258.3333333333333</ele><time>2026-05-01T07:45:35Z</time></trkpt><trkpt lat="45.51981378022729" lon="11.037181839411735"><ele>259.0</ele><time>2026-05-01T07:45:36Z</time></trkpt><trkpt lat="45.519764991364575" lon="11.037463197015363"><ele>262.66666666666663</ele><time>2026-05-01T07:45:37Z</time></trkpt><trkpt lat="45.51970531387506" lon="11.037730150550559"><ele>266.3333333333333</ele><time>2026-05-01T07:45:38Z</time></trkpt><trkpt lat="45.51963738452989" lon="11.037977164706707"><ele>270.0</ele><time>2026-05-01T07:45:39Z</time></trkpt><trkpt lat="45.51960023965296" lon="11.03822804169031"><ele>273.0</ele><time>2026-05-01T07:45:40Z</time></trkpt><trkpt lat="45.51960831430771" lon="11.03849631604327"><ele>276.0</ele><time>2026-05-01T07:45:41Z</time></trkpt><trkpt lat="45.51963217291366" lon="11.038770422097247"><ele>279.0</ele><time>2026-05-01T07:45:42Z</time></trkpt><trkpt lat="45.519655876683274" lon="11.039046935292276"><ele>280.3333333333333</ele><time>2026-05-01T07:45:43Z</time></trkpt><trkpt lat="45.51970690089013" lon="11.039312050174697"><ele>281.66666666666663</ele><time>2026-05-01T07:45:44Z</time></trkpt><trkpt lat="45.51978451269429" lon="11.039568352345235"><ele>283.0</ele><time>2026-05-01T07:45:45Z</time></trkpt><trkpt lat="45.519873493737144" lon="11.039808663394492"><ele>284.3333333333333</ele><time>2026-05-01T07:45:46Z</time></trkpt><trkpt lat="45.51996745145781" lon="11.040054508889785"><ele>285.6666666666667</ele><time>2026-05-01T07:45:47Z</time></trkpt><trkpt lat="45.52005625992146" lon="11.040310603336279"><ele>287.0</ele><time>2026-05-01T07:45:48Z</time></trkpt><trkpt lat="45.52014437525323" lon="11.040567501343883"><ele>289.33333333333337</ele><time>2026-05-01T07:45:49Z</time></trkpt><trkpt lat="45.52023888267859" lon="11.040816228526616"><ele>291.6666666666667</ele><time>2026-05-01T07:45:50Z</time></trkpt><trkpt lat="45.520337422765444" lon="11.041071951961602"><ele>294.0</ele><time>2026-05-01T07:45:51Z</time></trkpt><trkpt lat="45.52043646392481" lon="11.041328821769353"><ele>297.6666666666667</ele><time>2026-05-01T07:45:52Z</time></trkpt><trkpt lat="45.52053060023362" lon="11.041582086454708"><ele>301.33333333333337</ele><time>2026-05-01T07:45:53Z</time></trkpt><trkpt lat="45.52063377713758" lon="11.041828293600947"><ele>305.0</ele><time>2026-05-01T07:45:54Z</time></trkpt><trkpt lat="45.520714103300264" lon="11.042071303040219"><ele>305.0</ele><time>2026-05-01T07:45:55Z</time></trkpt><trkpt lat="45.520814315262534" lon="11.042301845310107"><ele>305.0</ele><time>2026-05-01T07:45:56Z</time></trkpt><trkpt lat="45.520861684513015" lon="11.042564587598706"><ele>305.0</ele><time>2026-05-01T07:45:57Z</time></trkpt><trkpt lat="45.520890398355235" lon="11.042822609972786"><ele>305.25</ele><time>2026-05-01T07:45:58Z</time></trkpt><trkpt lat="45.520920484138315" lon="11.043045219934942"><ele>305.5</ele><time>2026-05-01T07:45:59Z</time></trkpt><trkpt lat="45.5209553082843" lon="11.043225760635142"><ele>305.75</ele><time>2026-05-01T07:46:00Z</time></trkpt><trkpt lat="45.52101503330632" lon="11.043366156412066"><ele>306.0</ele><time>2026-05-01T07:46:01Z</time></trkpt><trkpt lat="45.521116317422894" lon="11.043460668745421"><ele>308.25</ele><time>2026-05-01T07:46:02Z</time></trkpt><trkpt lat="45.52124716112583" lon="11.043493425379332"><ele>310.5</ele><time>2026-05-01T07:46:03Z</time></trkpt><trkpt lat="45.521371874273555" lon="11.043455342220197"><ele>312.75</ele><time>2026-05-01T07:46:04Z</time></trkpt><trkpt lat="45.521470227084606" lon="11.043339795463735"><ele>315.0</ele><time>2026-05-01T07:46:05Z</time></trkpt><trkpt lat="45.521540818628715" lon="11.043155220434578"><ele>315.0</ele><time>2026-05-01T07:46:06Z</time></trkpt><trkpt lat="45.52160879105113" lon="11.042923338156493"><ele>315.0</ele><time>2026-05-01T07:46:07Z</time></trkpt><trkpt lat="45.521701943368726" lon="11.042695277538995"><ele>315.0</ele><time>2026-05-01T07:46:08Z</time></trkpt><trkpt lat="45.521819481722865" lon="11.042481737341697"><ele>316.0</ele><time>2026-05-01T07:46:09Z</time></trkpt><trkpt lat="45.52192794635852" lon="11.042306129121513"><ele>317.0</ele><time>2026-05-01T07:46:10Z</time></trkpt><trkpt lat="45.52202211595505" lon="11.042175089322445"><ele>318.0</ele><time>2026-05-01T07:46:11Z</time></trkpt><trkpt lat="45.522087909736214" lon="11.042060475332653"><ele>319.0</ele><time>2026-05-01T07:46:12Z</time></trkpt><trkpt lat="45.52216847231125" lon="11.042010504718945"><ele>319.0</ele><time>2026-05-01T07:46:14Z</time></trkpt><trkpt lat="45.52219401127878" lon="11.042092661934397"><ele>319.0</ele><time>2026-05-01T07:46:15Z</time></trkpt><trkpt lat="45.5221772324174" lon="11.042197367028196"><ele>319.0</ele><time>2026-05-01T07:46:16Z</time></trkpt><trkpt lat="45.52211311436672" lon="11.042310305937187"><ele>319.0</ele><time>2026-05-01T07:46:17Z</time></trkpt><trkpt lat="45.52201558675566" lon="11.042445791753126"><ele>319.0</ele><time>2026-05-01T07:46:18Z</time></trkpt><trkpt lat="45.521925766782424" lon="11.042615643508706"><ele>317.66666666666663</ele><time>2026-05-01T07:46:19Z</time></trkpt><trkpt lat="45.52185814179822" lon="11.04282635973332"><ele>316.3333333333333</ele><time>2026-05-01T07:46:20Z</time></trkpt><trkpt lat="45.52181601864267" lon="11.04304388551555"><ele>315.0</ele><time>2026-05-01T07:46:21Z</time></trkpt><trkpt lat="45.52181316179279" lon="11.04325446653108"><ele>316.2</ele><time>2026-05-01T07:46:22Z</time></trkpt><trkpt lat="45.52183605711699" lon="11.043436937276415"><ele>317.4</ele><time>2026-05-01T07:46:23Z</time></trkpt><trkpt lat="45.52188407152212" lon="11.04356812705998"><ele>318.6</ele><time>2026-05-01T07:46:24Z</time></trkpt><trkpt lat="45.521955313867565" lon="11.043629085122399"><ele>319.8</ele><time>2026-05-01T07:46:25Z</time></trkpt><trkpt lat="45.522032473332786" lon="11.043603902369687"><ele>321.0</ele><time>2026-05-01T07:46:26Z</time></trkpt><trkpt lat="45.52209315987184" lon="11.043490721598177"><ele>324.75</ele><time>2026-05-01T07:46:27Z</time></trkpt><trkpt lat="45.522129491219424" lon="11.04333953821835"><ele>328.5</ele><time>2026-05-01T07:46:28Z</time></trkpt><trkpt lat="45.52218235371818" lon="11.043155250835055"><ele>332.25</ele><time>2026-05-01T07:46:29Z</time></trkpt><trkpt lat="45.52229398372174" lon="11.042973917707885"><ele>336.0</ele><time>2026-05-01T07:46:30Z</time></trkpt><trkpt lat="45.522441640407195" lon="11.042773859763985"><ele>336.0</ele><time>2026-05-01T07:46:31Z</time></trkpt><trkpt lat="45.52260450318275" lon="11.042554820288448"><ele>336.0</ele><time>2026-05-01T07:46:32Z</time></trkpt><trkpt lat="45.52275953278055" lon="11.042340080143314"><ele>336.0</ele><time>2026-05-01T07:46:33Z</time></trkpt><trkpt lat="45.5228936143046" lon="11.042154792996577"><ele>339.75</ele><time>2026-05-01T07:46:34Z</time></trkpt><trkpt lat="45.52300955266951" lon="11.04199666839188"><ele>343.5</ele><time>2026-05-01T07:46:35Z</time></trkpt><trkpt lat="45.52310772614943" lon="11.041863372176389"><ele>347.25</ele><time>2026-05-01T07:46:36Z</time></trkpt><trkpt lat="45.523186817566405" lon="11.041755526015017"><ele>351.0</ele><time>2026-05-01T07:46:37Z</time></trkpt><trkpt lat="45.52324300118712" lon="11.041647141537405"><ele>351.20000000000005</ele><time>2026-05-01T07:46:38Z</time></trkpt><trkpt lat="45.52324537918427" lon="11.04152717740345"><ele>351.40000000000003</ele><time>2026-05-01T07:46:39Z</time></trkpt><trkpt lat="45.52319180537315" lon="11.041426743020935"><ele>351.6</ele><time>2026-05-01T07:46:40Z</time></trkpt><trkpt lat="45.52309314951335" lon="11.04133532794567"><ele>351.8</ele><time>2026-05-01T07:46:41Z</time></trkpt><trkpt lat="45.52297465182989" lon="11.041270151017454"><ele>352.0</ele><time>2026-05-01T07:46:42Z</time></trkpt><trkpt lat="45.52288984927531" lon="11.04121194451833"><ele>352.0</ele><time>2026-05-01T07:46:43Z</time></trkpt><trkpt lat="45.522846477312335" lon="11.041138052334755"><ele>352.0</ele><time>2026-05-01T07:46:44Z</time></trkpt><trkpt lat="45.52282970675342" lon="11.041050596835834"><ele>352.0</ele><time>2026-05-01T07:46:45Z</time></trkpt><trkpt lat="45.52285912354992" lon="11.04096124729686"><ele>352.0</ele><time>2026-05-01T07:46:46Z</time></trkpt><trkpt lat="45.52292488104082" lon="11.040886675952553"><ele>352.0</ele><time>2026-05-01T07:46:47Z</time></trkpt><trkpt lat="45.52301896847271" lon="11.040822157117457"><ele>352.0</ele><time>2026-05-01T07:46:48Z</time></trkpt><trkpt lat="45.52314110108169" lon="11.040755431329075"><ele>351.40000000000003</ele><time>2026-05-01T07:46:49Z</time></trkpt><trkpt lat="45.52323360518814" lon="11.04068327101978"><ele>350.8</ele><time>2026-05-01T07:46:50Z</time></trkpt><trkpt lat="45.52329293102057" lon="11.040606837590891"><ele>350.2</ele><time>2026-05-01T07:46:51Z</time></trkpt><trkpt lat="45.52335966231298" lon="11.040492233212259"><ele>349.6</ele><time>2026-05-01T07:46:53Z</time></trkpt><trkpt lat="45.52347178910402" lon="11.040482009341378"><ele>349.0</ele><time>2026-05-01T07:46:55Z</time></trkpt><trkpt lat="45.52356546558848" lon="11.040525259899388"><ele>349.0</ele><time>2026-05-01T07:46:56Z</time></trkpt><trkpt lat="45.52367900170277" lon="11.040589046448648"><ele>349.0</ele><time>2026-05-01T07:46:57Z</time></trkpt><trkpt lat="45.52378625953278" lon="11.040646820873224"><ele>349.0</ele><time>2026-05-01T07:46:58Z</time></trkpt><trkpt lat="45.523894868457134" lon="11.04069406418306"><ele>349.0</ele><time>2026-05-01T07:46:59Z</time></trkpt><trkpt lat="45.523991815474524" lon="11.040759383251537"><ele>351.4</ele><time>2026-05-01T07:47:00Z</time></trkpt><trkpt lat="45.52407204285831" lon="11.040826364279079"><ele>353.79999999999995</ele><time>2026-05-01T07:47:01Z</time></trkpt><trkpt lat="45.52416875537969" lon="11.040900417761662"><ele>356.20000000000005</ele><time>2026-05-01T07:47:02Z</time></trkpt><trkpt lat="45.52425951721139" lon="11.040966187662814"><ele>358.6</ele><time>2026-05-01T07:47:03Z</time></trkpt><trkpt lat="45.52436017995883" lon="11.04104283533783"><ele>361.0</ele><time>2026-05-01T07:47:04Z</time></trkpt><trkpt lat="45.52444984224629" lon="11.041177861310954"><ele>361.0</ele><time>2026-05-01T07:47:05Z</time></trkpt><trkpt lat="45.52452245425919" lon="11.04131621417463"><ele>361.0</ele><time>2026-05-01T07:47:06Z</time></trkpt><trkpt lat="45.52457617510817" lon="11.041407099282347"><ele>361.0</ele><time>2026-05-01T07:47:07Z</time></trkpt><trkpt lat="45.5246796876581" lon="11.041424446865982"><ele>361.0</ele><time>2026-05-01T07:47:09Z</time></trkpt><trkpt lat="45.524722156427714" lon="11.041339489908525"><ele>361.0</ele><time>2026-05-01T07:47:10Z</time></trkpt><trkpt lat="45.524735672034986" lon="11.041230938403336"><ele>363.20000000000005</ele><time>2026-05-01T07:47:11Z</time></trkpt><trkpt lat="45.52474552793695" lon="11.04111334598367"><ele>365.40000000000003</ele><time>2026-05-01T07:47:12Z</time></trkpt><trkpt lat="45.524763040341256" lon="11.040982444133492"><ele>367.6</ele><time>2026-05-01T07:47:13Z</time></trkpt><trkpt lat="45.52478900130671" lon="11.040826529830342"><ele>369.8</ele><time>2026-05-01T07:47:14Z</time></trkpt><trkpt lat="45.524818533949635" lon="11.040667556147845"><ele>372.0</ele><time>2026-05-01T07:47:15Z</time></trkpt><trkpt lat="45.524870128544066" lon="11.040507199124963"><ele>372.5</ele><time>2026-05-01T07:47:16Z</time></trkpt><trkpt lat="45.52494102021843" lon="11.040358574669591"><ele>373.0</ele><time>2026-05-01T07:47:17Z</time></trkpt><trkpt lat="45.52502861182584" lon="11.040220852575098"><ele>373.5</ele><time>2026-05-01T07:47:18Z</time></trkpt><trkpt lat="45.52513524068892" lon="11.040086066349124"><ele>374.0</ele><time>2026-05-01T07:47:19Z</time></trkpt><trkpt lat="45.52524388972696" lon="11.039959953703105"><ele>372.6</ele><time>2026-05-01T07:47:20Z</time></trkpt><trkpt lat="45.525331952583315" lon="11.039825052665021"><ele>371.2</ele><time>2026-05-01T07:47:21Z</time></trkpt><trkpt lat="45.525398094233516" lon="11.039698140560667"><ele>369.8</ele><time>2026-05-01T07:47:22Z</time></trkpt><trkpt lat="45.52545878737781" lon="11.03959645050983"><ele>368.40000000000003</ele><time>2026-05-01T07:47:23Z</time></trkpt><trkpt lat="45.52552481010532" lon="11.03951163628326"><ele>367.0</ele><time>2026-05-01T07:47:24Z</time></trkpt><trkpt lat="45.525589886243374" lon="11.039430532629662"><ele>370.0</ele><time>2026-05-01T07:47:25Z</time></trkpt><trkpt lat="45.52567112614716" lon="11.039379904850895"><ele>373.0</ele><time>2026-05-01T07:47:26Z</time></trkpt><trkpt lat="45.52576202395808" lon="11.039370293676134"><ele>376.0</ele><time>2026-05-01T07:47:27Z</time></trkpt><trkpt lat="45.52585149556645" lon="11.03937206881533"><ele>379.0</ele><time>2026-05-01T07:47:28Z</time></trkpt><trkpt lat="45.52594919603689" lon="11.039354124774688"><ele>382.0</ele><time>2026-05-01T07:47:29Z</time></trkpt><trkpt lat="45.52604711449008" lon="11.039308467306299"><ele>382.0</ele><time>2026-05-01T07:47:30Z</time></trkpt><trkpt lat="45.52614368213938" lon="11.039266035680381"><ele>382.0</ele><time>2026-05-01T07:47:31Z</time></trkpt><trkpt lat="45.526225943140304" lon="11.03916592992144"><ele>382.0</ele><time>2026-05-01T07:47:32Z</time></trkpt><trkpt lat="45.52628931092463" lon="11.03902746095145"><ele>382.0</ele><time>2026-05-01T07:47:33Z</time></trkpt><trkpt lat="45.52634084315182" lon="11.038906880172705"><ele>382.0</ele><time>2026-05-01T07:47:34Z</time></trkpt><trkpt lat="45.526405333010985" lon="11.038804416046434"><ele>382.6</ele><time>2026-05-01T07:47:35Z</time></trkpt><trkpt lat="45.5264933503981" lon="11.038755309154492"><ele>383.20000000000005</ele><time>2026-05-01T07:47:36Z</time></trkpt><trkpt lat="45.526596738442926" lon="11.038740795168714"><ele>383.8</ele><time>2026-05-01T07:47:37Z</time></trkpt><trkpt lat="45.52670263673675" lon="11.038775926601591"><ele>384.4</ele><time>2026-05-01T07:47:38Z</time></trkpt><trkpt lat="45.52681380474712" lon="11.03885518578381"><ele>385.0</ele><time>2026-05-01T07:47:39Z</time></trkpt><trkpt lat="45.526929675090145" lon="11.038981046368702"><ele>385.0</ele><time>2026-05-01T07:47:40Z</time></trkpt><trkpt lat="45.52705240721057" lon="11.039121055381273"><ele>385.0</ele><time>2026-05-01T07:47:41Z</time></trkpt><trkpt lat="45.527178880276" lon="11.039245789312153"><ele>385.0</ele><time>2026-05-01T07:47:42Z</time></trkpt><trkpt lat="45.52729797147745" lon="11.03936794078501"><ele>388.0</ele><time>2026-05-01T07:47:43Z</time></trkpt><trkpt lat="45.52741879855324" lon="11.039512401553655"><ele>391.0</ele><time>2026-05-01T07:47:44Z</time></trkpt><trkpt lat="45.5275379344045" lon="11.039674973158135"><ele>394.0</ele><time>2026-05-01T07:47:45Z</time></trkpt><trkpt lat="45.527665786655554" lon="11.039839452264577"><ele>395.33333333333337</ele><time>2026-05-01T07:47:46Z</time></trkpt><trkpt lat="45.52779751375597" lon="11.040023922173402"><ele>396.66666666666663</ele><time>2026-05-01T07:47:47Z</time></trkpt><trkpt lat="45.527928439468695" lon="11.04021121480358"><ele>398.0</ele><time>2026-05-01T07:47:48Z</time></trkpt><trkpt lat="45.52806418313889" lon="11.04039611197788"><ele>398.0</ele><time>2026-05-01T07:47:49Z</time></trkpt><trkpt lat="45.52820009003589" lon="11.04057684416555"><ele>398.0</ele><time>2026-05-01T07:47:50Z</time></trkpt><trkpt lat="45.52833376350802" lon="11.040746999274644"><ele>398.0</ele><time>2026-05-01T07:47:51Z</time></trkpt><trkpt lat="45.52845696198516" lon="11.040896151816577"><ele>397.75</ele><time>2026-05-01T07:47:52Z</time></trkpt><trkpt lat="45.52856314864134" lon="11.041048284638364"><ele>397.5</ele><time>2026-05-01T07:47:53Z</time></trkpt><trkpt lat="45.52866221778511" lon="11.041187056006292"><ele>397.25</ele><time>2026-05-01T07:47:54Z</time></trkpt><trkpt lat="45.52876921531069" lon="11.041335293085229"><ele>397.0</ele><time>2026-05-01T07:47:55Z</time></trkpt><trkpt lat="45.52887408306114" lon="11.04149927380918"><ele>401.33333333333337</ele><time>2026-05-01T07:47:56Z</time></trkpt><trkpt lat="45.528956213800434" lon="11.041684286539622"><ele>405.66666666666663</ele><time>2026-05-01T07:47:57Z</time></trkpt><trkpt lat="45.52902743836057" lon="11.041887561662724"><ele>410.0</ele><time>2026-05-01T07:47:58Z</time></trkpt><trkpt lat="45.52907313099952" lon="11.042115483112056"><ele>410.0</ele><time>2026-05-01T07:47:59Z</time></trkpt><trkpt lat="45.529098870116734" lon="11.042351377386119"><ele>410.0</ele><time>2026-05-01T07:48:00Z</time></trkpt><trkpt lat="45.52912133289484" lon="11.042590667066078"><ele>410.0</ele><time>2026-05-01T07:48:01Z</time></trkpt><trkpt lat="45.52915795673352" lon="11.042820626518983"><ele>412.5</ele><time>2026-05-01T07:48:02Z</time></trkpt><trkpt lat="45.52918059164015" lon="11.04300970388521"><ele>415.0</ele><time>2026-05-01T07:48:03Z</time></trkpt><trkpt lat="45.529228562011376" lon="11.04315294674489"><ele>417.5</ele><time>2026-05-01T07:48:04Z</time></trkpt><trkpt lat="45.52932289001827" lon="11.04325944104814"><ele>420.0</ele><time>2026-05-01T07:48:05Z</time></trkpt><trkpt lat="45.52944209544848" lon="11.04334385653851"><ele>417.66666666666663</ele><time>2026-05-01T07:48:06Z</time></trkpt><trkpt lat="45.52958486434843" lon="11.043439681178041"><ele>415.3333333333333</ele><time>2026-05-01T07:48:07Z</time></trkpt><trkpt lat="45.52971532909947" lon="11.043562508350195"><ele>413.0</ele><time>2026-05-01T07:48:08Z</time></trkpt><trkpt lat="45.52980545185693" lon="11.043735355158123"><ele>413.0</ele><time>2026-05-01T07:48:09Z</time></trkpt><trkpt lat="45.52989586208019" lon="11.043870075258985"><ele>413.0</ele><time>2026-05-01T07:48:10Z</time></trkpt><trkpt lat="45.52998488433224" lon="11.043964352584608"><ele>413.0</ele><time>2026-05-01T07:48:11Z</time></trkpt><trkpt lat="45.53010373507193" lon="11.044001200666372"><ele>413.0</ele><time>2026-05-01T07:48:12Z</time></trkpt><trkpt lat="45.53026218846546" lon="11.043978239403756"><ele>412.66666666666663</ele><time>2026-05-01T07:48:13Z</time></trkpt><trkpt lat="45.530439931490896" lon="11.043923749310913"><ele>412.33333333333337</ele><time>2026-05-01T07:48:14Z</time></trkpt><trkpt lat="45.530635036059444" lon="11.043868507331867"><ele>412.0</ele><time>2026-05-01T07:48:15Z</time></trkpt><trkpt lat="45.53082181757009" lon="11.043824451408572"><ele>412.0</ele><time>2026-05-01T07:48:16Z</time></trkpt><trkpt lat="45.530987455648166" lon="11.043785323752918"><ele>412.0</ele><time>2026-05-01T07:48:17Z</time></trkpt><trkpt lat="45.531138470212" lon="11.043752621673253"><ele>412.0</ele><time>2026-05-01T07:48:18Z</time></trkpt><trkpt lat="45.531267005150795" lon="11.043715583258201"><ele>410.5</ele><time>2026-05-01T07:48:19Z</time></trkpt><trkpt lat="45.5313857407207" lon="11.043714005607306"><ele>409.0</ele><time>2026-05-01T07:48:20Z</time></trkpt><trkpt lat="45.53149668432765" lon="11.043763731843335"><ele>407.5</ele><time>2026-05-01T07:48:21Z</time></trkpt><trkpt lat="45.53160070478745" lon="11.043881929460865"><ele>406.0</ele><time>2026-05-01T07:48:22Z</time></trkpt><trkpt lat="45.53171917020347" lon="11.043984912722456"><ele>406.0</ele><time>2026-05-01T07:48:23Z</time></trkpt><trkpt lat="45.531844053205376" lon="11.044101526040219"><ele>406.0</ele><time>2026-05-01T07:48:24Z</time></trkpt><trkpt lat="45.531985798074345" lon="11.044198874858232"><ele>406.0</ele><time>2026-05-01T07:48:25Z</time></trkpt><trkpt lat="45.53213506373161" lon="11.044294118296248"><ele>410.33333333333337</ele><time>2026-05-01T07:48:26Z</time></trkpt><trkpt lat="45.53228597587436" lon="11.04439098521321"><ele>414.66666666666663</ele><time>2026-05-01T07:48:27Z</time></trkpt><trkpt lat="45.53243691247678" lon="11.044495152045837"><ele>419.0</ele><time>2026-05-01T07:48:28Z</time></trkpt><trkpt lat="45.532588850754784" lon="11.044601764352741"><ele>419.0</ele><time>2026-05-01T07:48:29Z</time></trkpt><trkpt lat="45.532732409165355" lon="11.04468430342278"><ele>419.0</ele><time>2026-05-01T07:48:30Z</time></trkpt><trkpt lat="45.53286085443911" lon="11.044788712363944"><ele>419.0</ele><time>2026-05-01T07:48:31Z</time></trkpt><trkpt lat="45.532947250345075" lon="11.044919806022522"><ele>419.0</ele><time>2026-05-01T07:48:32Z</time></trkpt><trkpt lat="45.53302527421783" lon="11.044982366750117"><ele>421.4</ele><time>2026-05-01T07:48:33Z</time></trkpt><trkpt lat="45.533091059373916" lon="11.045038142098573"><ele>423.79999999999995</ele><time>2026-05-01T07:48:34Z</time></trkpt><trkpt lat="45.53317024426666" lon="11.045023836448761"><ele>426.20000000000005</ele><time>2026-05-01T07:48:35Z</time></trkpt><trkpt lat="45.53323391967544" lon="11.044945444636317"><ele>428.6</ele><time>2026-05-01T07:48:36Z</time></trkpt><trkpt lat="45.53327330037854" lon="11.044812097135848"><ele>431.0</ele><time>2026-05-01T07:48:37Z</time></trkpt><trkpt lat="45.53328501807348" lon="11.044648556532378"><ele>431.0</ele><time>2026-05-01T07:48:38Z</time></trkpt><trkpt lat="45.5332761652178" lon="11.044474073289857"><ele>431.0</ele><time>2026-05-01T07:48:39Z</time></trkpt><trkpt lat="45.5332594996421" lon="11.044300000351658"><ele>431.0</ele><time>2026-05-01T07:48:40Z</time></trkpt><trkpt lat="45.533248051066394" lon="11.044117708527253"><ele>431.0</ele><time>2026-05-01T07:48:41Z</time></trkpt><trkpt lat="45.53323575117602" lon="11.043942126588812"><ele>430.0</ele><time>2026-05-01T07:48:42Z</time></trkpt><trkpt lat="45.53322426827738" lon="11.043761115455984"><ele>429.0</ele><time>2026-05-01T07:48:43Z</time></trkpt><trkpt lat="45.533215074758196" lon="11.043583027915304"><ele>428.0</ele><time>2026-05-01T07:48:44Z</time></trkpt><trkpt lat="45.533208749034976" lon="11.04341859894337"><ele>427.0</ele><time>2026-05-01T07:48:45Z</time></trkpt><trkpt lat="45.53322183334471" lon="11.043261711283467"><ele>425.75</ele><time>2026-05-01T07:48:46Z</time></trkpt><trkpt lat="45.53326150822492" lon="11.04310211214418"><ele>424.5</ele><time>2026-05-01T07:48:47Z</time></trkpt><trkpt lat="45.533326809643114" lon="11.042952242989152"><ele>423.25</ele><time>2026-05-01T07:48:48Z</time></trkpt><trkpt lat="45.53341369268933" lon="11.042822992702096"><ele>422.0</ele><time>2026-05-01T07:48:49Z</time></trkpt><trkpt lat="45.5335387001457" lon="11.042707534968802"><ele>422.0</ele><time>2026-05-01T07:48:50Z</time></trkpt><trkpt lat="45.53366671484624" lon="11.042604548646906"><ele>422.0</ele><time>2026-05-01T07:48:51Z</time></trkpt><trkpt lat="45.5337503038373" lon="11.04247630338126"><ele>422.0</ele><time>2026-05-01T07:48:52Z</time></trkpt><trkpt lat="45.533807067687505" lon="11.04229837318951"><ele>422.0</ele><time>2026-05-01T07:48:53Z</time></trkpt><trkpt lat="45.53384906546338" lon="11.04210042761491"><ele>423.5</ele><time>2026-05-01T07:48:54Z</time></trkpt><trkpt lat="45.53389458303824" lon="11.041916944666728"><ele>425.0</ele><time>2026-05-01T07:48:55Z</time></trkpt><trkpt lat="45.5339562631604" lon="11.041783254228735"><ele>426.5</ele><time>2026-05-01T07:48:56Z</time></trkpt><trkpt lat="45.534042196424586" lon="11.04169517262824"><ele>428.0</ele><time>2026-05-01T07:48:57Z</time></trkpt><trkpt lat="45.53415081472125" lon="11.041629781079799"><ele>428.0</ele><time>2026-05-01T07:48:58Z</time></trkpt><trkpt lat="45.534279240429576" lon="11.041595945358985"><ele>428.0</ele><time>2026-05-01T07:48:59Z</time></trkpt><trkpt lat="45.534414679796505" lon="11.04162261310612"><ele>428.0</ele><time>2026-05-01T07:49:00Z</time></trkpt><trkpt lat="45.53455622121742" lon="11.041733314977991"><ele>428.0</ele><time>2026-05-01T07:49:01Z</time></trkpt><trkpt lat="45.53471729081679" lon="11.041827539443924"><ele>432.3333333333333</ele><time>2026-05-01T07:49:02Z</time></trkpt><trkpt lat="45.534892580668505" lon="11.041943374093176"><ele>436.66666666666663</ele><time>2026-05-01T07:49:03Z</time></trkpt><trkpt lat="45.53508169619618" lon="11.04202055200262"><ele>441.0</ele><time>2026-05-01T07:49:04Z</time></trkpt><trkpt lat="45.535250573508286" lon="11.042049197101402"><ele>438.75</ele><time>2026-05-01T07:49:05Z</time></trkpt><trkpt lat="45.535389496690335" lon="11.042064008914519"><ele>436.5</ele><time>2026-05-01T07:49:06Z</time></trkpt><trkpt lat="45.535507844456895" lon="11.042087539856709"><ele>434.25</ele><time>2026-05-01T07:49:07Z</time></trkpt><trkpt lat="45.53560941044687" lon="11.042189803785934"><ele>432.0</ele><time>2026-05-01T07:49:08Z</time></trkpt><trkpt lat="45.53572302164257" lon="11.042315898602546"><ele>432.0</ele><time>2026-05-01T07:49:09Z</time></trkpt><trkpt lat="45.535850176005155" lon="11.04245491613421"><ele>432.0</ele><time>2026-05-01T07:49:10Z</time></trkpt><trkpt lat="45.53594715999104" lon="11.042678649920937"><ele>432.0</ele><time>2026-05-01T07:49:11Z</time></trkpt><trkpt lat="45.5360391730629" lon="11.042890401792544"><ele>433.33333333333337</ele><time>2026-05-01T07:49:12Z</time></trkpt><trkpt lat="45.536126832202605" lon="11.043078054831863"><ele>434.6666666666667</ele><time>2026-05-01T07:49:13Z</time></trkpt><trkpt lat="45.53623054594391" lon="11.043255077475491"><ele>436.0</ele><time>2026-05-01T07:49:14Z</time></trkpt><trkpt lat="45.53636632951754" lon="11.043404091130308"><ele>440.6666666666667</ele><time>2026-05-01T07:49:15Z</time></trkpt><trkpt lat="45.53649930935667" lon="11.043546472627831"><ele>445.33333333333337</ele><time>2026-05-01T07:49:16Z</time></trkpt><trkpt lat="45.53662973417491" lon="11.043684470603255"><ele>450.0</ele><time>2026-05-01T07:49:17Z</time></trkpt><trkpt lat="45.53677120112294" lon="11.04377520118787"><ele>450.0</ele><time>2026-05-01T07:49:18Z</time></trkpt><trkpt lat="45.53690793132468" lon="11.043806129972822"><ele>450.0</ele><time>2026-05-01T07:49:19Z</time></trkpt><trkpt lat="45.537020347784605" lon="11.04384093592804"><ele>450.0</ele><time>2026-05-01T07:49:20Z</time></trkpt><trkpt lat="45.53709078041868" lon="11.043949472318578"><ele>450.0</ele><time>2026-05-01T07:49:21Z</time></trkpt><trkpt lat="45.537191226897036" lon="11.044074507225028"><ele>450.66666666666663</ele><time>2026-05-01T07:49:22Z</time></trkpt><trkpt lat="45.53728715148386" lon="11.044241468471974"><ele>451.3333333333333</ele><time>2026-05-01T07:49:23Z</time></trkpt><trkpt lat="45.53740093723273" lon="11.04442304399471"><ele>452.0</ele><time>2026-05-01T07:49:24Z</time></trkpt><trkpt lat="45.53753704151248" lon="11.044605466085471"><ele>452.0</ele><time>2026-05-01T07:49:25Z</time></trkpt><trkpt lat="45.53767223541039" lon="11.04477923419354"><ele>452.0</ele><time>2026-05-01T07:49:26Z</time></trkpt><trkpt lat="45.53782140042585" lon="11.044942999515701"><ele>452.0</ele><time>2026-05-01T07:49:27Z</time></trkpt><trkpt lat="45.53797383498384" lon="11.045083065950099"><ele>454.75</ele><time>2026-05-01T07:49:28Z</time></trkpt><trkpt lat="45.5381045163476" lon="11.045208337079531"><ele>457.5</ele><time>2026-05-01T07:49:29Z</time></trkpt><trkpt lat="45.53821051624442" lon="11.045326593780619"><ele>460.25</ele><time>2026-05-01T07:49:30Z</time></trkpt><trkpt lat="45.53829354550513" lon="11.04540955526421"><ele>463.0</ele><time>2026-05-01T07:49:31Z</time></trkpt><trkpt lat="45.538361269244646" lon="11.04546240314501"><ele>463.0</ele><time>2026-05-01T07:49:32Z</time></trkpt><trkpt lat="45.53842805404146" lon="11.045441417145097"><ele>462.99999999999994</ele><time>2026-05-01T07:49:33Z</time></trkpt><trkpt lat="45.53849282442643" lon="11.045365858508422"><ele>462.99999999999994</ele><time>2026-05-01T07:49:34Z</time></trkpt><trkpt lat="45.53855092673538" lon="11.045239796925"><ele>463.0</ele><time>2026-05-01T07:49:35Z</time></trkpt><trkpt lat="45.53860071028619" lon="11.045079403815526"><ele>463.0</ele><time>2026-05-01T07:49:36Z</time></trkpt><trkpt lat="45.53865765495843" lon="11.044908445073414"><ele>462.0</ele><time>2026-05-01T07:49:37Z</time></trkpt><trkpt lat="45.53871096719394" lon="11.044739638214326"><ele>461.0</ele><time>2026-05-01T07:49:38Z</time></trkpt><trkpt lat="45.53873607631611" lon="11.04455914073388"><ele>460.0</ele><time>2026-05-01T07:49:39Z</time></trkpt><trkpt lat="45.53873450051121" lon="11.044358128487312"><ele>459.0</ele><time>2026-05-01T07:49:40Z</time></trkpt><trkpt lat="45.53873642521781" lon="11.044147276369053"><ele>463.25</ele><time>2026-05-01T07:49:41Z</time></trkpt><trkpt lat="45.53876327077873" lon="11.043932011809966"><ele>467.5</ele><time>2026-05-01T07:49:42Z</time></trkpt><trkpt lat="45.53880984825532" lon="11.043730009816828"><ele>471.75</ele><time>2026-05-01T07:49:43Z</time></trkpt><trkpt lat="45.538870928732706" lon="11.043561057366649"><ele>476.0</ele><time>2026-05-01T07:49:44Z</time></trkpt><trkpt lat="45.53894902500739" lon="11.043425274327014"><ele>476.0</ele><time>2026-05-01T07:49:45Z</time></trkpt><trkpt lat="45.53904112241244" lon="11.043310254189253"><ele>476.0</ele><time>2026-05-01T07:49:46Z</time></trkpt><trkpt lat="45.53914299107337" lon="11.043238302667444"><ele>476.0</ele><time>2026-05-01T07:49:47Z</time></trkpt><trkpt lat="45.53926971502437" lon="11.04319136107476"><ele>476.0</ele><time>2026-05-01T07:49:48Z</time></trkpt><trkpt lat="45.53941076575596" lon="11.043131736007645"><ele>471.0</ele><time>2026-05-01T07:49:49Z</time></trkpt><trkpt lat="45.53956838910346" lon="11.04304137302098"><ele>466.0</ele><time>2026-05-01T07:49:50Z</time></trkpt><trkpt lat="45.53971556842599" lon="11.042965518327042"><ele>461.0</ele><time>2026-05-01T07:49:51Z</time></trkpt><trkpt lat="45.539840009009644" lon="11.042907220241224"><ele>461.0</ele><time>2026-05-01T07:49:52Z</time></trkpt><trkpt lat="45.53995034743738" lon="11.042928081961866"><ele>461.0</ele><time>2026-05-01T07:49:53Z</time></trkpt><trkpt lat="45.54005505605269" lon="11.042978869838333"><ele>461.0</ele><time>2026-05-01T07:49:54Z</time></trkpt><trkpt lat="45.540155676903225" lon="11.043081664568525"><ele>461.0</ele><time>2026-05-01T07:49:55Z</time></trkpt><trkpt lat="45.54025315283696" lon="11.043207850555975"><ele>463.0</ele><time>2026-05-01T07:49:56Z</time></trkpt><trkpt lat="45.540361610087864" lon="11.04333240695033"><ele>465.0</ele><time>2026-05-01T07:49:57Z</time></trkpt><trkpt lat="45.54045930655506" lon="11.043473326876967"><ele>467.0</ele><time>2026-05-01T07:49:58Z</time></trkpt><trkpt lat="45.540571008663456" lon="11.043596557102404"><ele>469.0</ele><time>2026-05-01T07:49:59Z</time></trkpt><trkpt lat="45.54068871818373" lon="11.0437165227916"><ele>469.0</ele><time>2026-05-01T07:50:00Z</time></trkpt><trkpt lat="45.540806024860046" lon="11.04384052335653"><ele>469.0</ele><time>2026-05-01T07:50:01Z</time></trkpt><trkpt lat="45.54092201715866" lon="11.043957388592952"><ele>469.0</ele><time>2026-05-01T07:50:02Z</time></trkpt><trkpt lat="45.54104864779183" lon="11.044061014156886"><ele>469.0</ele><time>2026-05-01T07:50:03Z</time></trkpt><trkpt lat="45.5411800228251" lon="11.044128193341828"><ele>471.0</ele><time>2026-05-01T07:50:04Z</time></trkpt><trkpt lat="45.541311823032196" lon="11.04417619775872"><ele>473.0</ele><time>2026-05-01T07:50:05Z</time></trkpt><trkpt lat="45.54144894497192" lon="11.04424452479975"><ele>475.0</ele><time>2026-05-01T07:50:06Z</time></trkpt><trkpt lat="45.54156599315952" lon="11.044350757478062"><ele>477.0</ele><time>2026-05-01T07:50:07Z</time></trkpt><trkpt lat="45.54169163638478" lon="11.044437721162659"><ele>477.0</ele><time>2026-05-01T07:50:08Z</time></trkpt><trkpt lat="45.541789463417274" lon="11.044570170703675"><ele>477.0</ele><time>2026-05-01T07:50:09Z</time></trkpt><trkpt lat="45.54189412224047" lon="11.0446972356053"><ele>477.0</ele><time>2026-05-01T07:50:10Z</time></trkpt><trkpt lat="45.541998482990074" lon="11.044830658842518"><ele>477.0</ele><time>2026-05-01T07:50:11Z</time></trkpt><trkpt lat="45.54209543129117" lon="11.044963567311118"><ele>479.20000000000005</ele><time>2026-05-01T07:50:12Z</time></trkpt><trkpt lat="45.54217773704929" lon="11.045089019601157"><ele>481.40000000000003</ele><time>2026-05-01T07:50:13Z</time></trkpt><trkpt lat="45.542242006383205" lon="11.045203746851625"><ele>483.59999999999997</ele><time>2026-05-01T07:50:14Z</time></trkpt><trkpt lat="45.542316513060904" lon="11.045312839508357"><ele>485.79999999999995</ele><time>2026-05-01T07:50:15Z</time></trkpt><trkpt lat="45.54236407262261" lon="11.045457084057192"><ele>488.0</ele><time>2026-05-01T07:50:16Z</time></trkpt><trkpt lat="45.54241329811292" lon="11.045613788691929"><ele>488.0</ele><time>2026-05-01T07:50:17Z</time></trkpt><trkpt lat="45.54245977920326" lon="11.045782901791066"><ele>487.99999999999994</ele><time>2026-05-01T07:50:18Z</time></trkpt><trkpt lat="45.542518752955516" lon="11.045938281838028"><ele>487.99999999999994</ele><time>2026-05-01T07:50:19Z</time></trkpt><trkpt lat="45.54255516977509" lon="11.046071938381376"><ele>488.0</ele><time>2026-05-01T07:50:20Z</time></trkpt><trkpt lat="45.54258061459394" lon="11.046187355128776"><ele>488.0</ele><time>2026-05-01T07:50:21Z</time></trkpt><trkpt lat="45.542614454833036" lon="11.046291162451537"><ele>489.99999999999994</ele><time>2026-05-01T07:50:22Z</time></trkpt><trkpt lat="45.54266964705282" lon="11.04637670036476"><ele>492.0</ele><time>2026-05-01T07:50:23Z</time></trkpt><trkpt lat="45.54274604409096" lon="11.046415513621685"><ele>494.0</ele><time>2026-05-01T07:50:24Z</time></trkpt><trkpt lat="45.54283323775547" lon="11.046404080464482"><ele>496.0</ele><time>2026-05-01T07:50:25Z</time></trkpt><trkpt lat="45.5429025639954" lon="11.046345004927668"><ele>497.99999999999994</ele><time>2026-05-01T07:50:26Z</time></trkpt><trkpt lat="45.5429574822903" lon="11.04625688426969"><ele>500.0</ele><time>2026-05-01T07:50:27Z</time></trkpt><trkpt lat="45.54299694821384" lon="11.04615265711125"><ele>500.2</ele><time>2026-05-01T07:50:28Z</time></trkpt><trkpt lat="45.54302569184638" lon="11.046029941144177"><ele>500.4</ele><time>2026-05-01T07:50:29Z</time></trkpt><trkpt lat="45.54304777952462" lon="11.0459012277563"><ele>500.6</ele><time>2026-05-01T07:50:30Z</time></trkpt><trkpt lat="45.54306516848839" lon="11.045773446870955"><ele>500.8</ele><time>2026-05-01T07:50:31Z</time></trkpt><trkpt lat="45.543070388089276" lon="11.04564163198993"><ele>501.0</ele><time>2026-05-01T07:50:32Z</time></trkpt><trkpt lat="45.54307995348323" lon="11.045516457082897"><ele>501.0</ele><time>2026-05-01T07:50:33Z</time></trkpt><trkpt lat="45.54310105612019" lon="11.045404444461992"><ele>501.0</ele><time>2026-05-01T07:50:34Z</time></trkpt><trkpt lat="45.54313445115003" lon="11.045294195042846"><ele>501.0</ele><time>2026-05-01T07:50:35Z</time></trkpt><trkpt lat="45.54319766244356" lon="11.045193921321701"><ele>501.0</ele><time>2026-05-01T07:50:36Z</time></trkpt><trkpt lat="45.543290410772" lon="11.045120001347549"><ele>501.0</ele><time>2026-05-01T07:50:37Z</time></trkpt><trkpt lat="45.54343260846619" lon="11.045083168388812"><ele>501.0</ele><time>2026-05-01T07:50:38Z</time></trkpt><trkpt lat="45.54360391010879" lon="11.044993187293445"><ele>501.0</ele><time>2026-05-01T07:50:39Z</time></trkpt><trkpt lat="45.54378751136116" lon="11.044943444410979"><ele>501.0</ele><time>2026-05-01T07:50:40Z</time></trkpt><trkpt lat="45.54393686690783" lon="11.044877297116068"><ele>505.75</ele><time>2026-05-01T07:50:41Z</time></trkpt><trkpt lat="45.54404373173034" lon="11.044801517882844"><ele>510.5</ele><time>2026-05-01T07:50:42Z</time></trkpt><trkpt lat="45.5441066438815" lon="11.044675373944596"><ele>515.25</ele><time>2026-05-01T07:50:43Z</time></trkpt><trkpt lat="45.544126502923284" lon="11.044533584405862"><ele>520.0</ele><time>2026-05-01T07:50:44Z</time></trkpt><trkpt lat="45.54408812825921" lon="11.044350446357509"><ele>520.0</ele><time>2026-05-01T07:50:45Z</time></trkpt><trkpt lat="45.54401777532395" lon="11.044132783019002"><ele>520.0</ele><time>2026-05-01T07:50:46Z</time></trkpt><trkpt lat="45.54393194969611" lon="11.043935432967276"><ele>520.0</ele><time>2026-05-01T07:50:47Z</time></trkpt><trkpt lat="45.543849765218575" lon="11.043797306307736"><ele>520.3333333333334</ele><time>2026-05-01T07:50:48Z</time></trkpt><trkpt lat="45.543781980197174" lon="11.043702009016112"><ele>520.6666666666667</ele><time>2026-05-01T07:50:49Z</time></trkpt><trkpt lat="45.54373668770361" lon="11.043608511580171"><ele>521.0</ele><time>2026-05-01T07:50:50Z</time></trkpt><trkpt lat="45.543733752301016" lon="11.043496879097098"><ele>521.3333333333334</ele><time>2026-05-01T07:50:51Z</time></trkpt><trkpt lat="45.54377563754912" lon="11.043390961678789"><ele>521.6666666666666</ele><time>2026-05-01T07:50:52Z</time></trkpt><trkpt lat="45.543858089636984" lon="11.043345386364814"><ele>522.0</ele><time>2026-05-01T07:50:53Z</time></trkpt><trkpt lat="45.54397053087849" lon="11.04336233662127"><ele>522.0</ele><time>2026-05-01T07:50:54Z</time></trkpt><trkpt lat="45.544104865164435" lon="11.043431216611214"><ele>522.0</ele><time>2026-05-01T07:50:55Z</time></trkpt><trkpt lat="45.544262034991405" lon="11.043545329350147"><ele>522.0</ele><time>2026-05-01T07:50:56Z</time></trkpt><trkpt lat="45.54441569038044" lon="11.043659494770209"><ele>522.0</ele><time>2026-05-01T07:50:57Z</time></trkpt><trkpt lat="45.544531030657765" lon="11.043858666798602"><ele>522.0</ele><time>2026-05-01T07:50:58Z</time></trkpt><trkpt lat="45.54463417064508" lon="11.04408906007922"><ele>522.0</ele><time>2026-05-01T07:50:59.001Z</time></trkpt><trkpt lat="45.54475687607933" lon="11.044308034559396"><ele>527.0</ele><time>2026-05-01T07:51:00.001Z</time></trkpt><trkpt lat="45.544843254295984" lon="11.044516717258864"><ele>532.0</ele><time>2026-05-01T07:51:01.001Z</time></trkpt><trkpt lat="45.544916822329085" lon="11.044681991647211"><ele>537.0</ele><time>2026-05-01T07:51:02.001Z</time></trkpt><trkpt lat="45.5449401848544" lon="11.044852356418"><ele>542.0</ele><time>2026-05-01T07:51:03.001Z</time></trkpt><trkpt lat="45.54490803776464" lon="11.045005622624597"><ele>542.75</ele><time>2026-05-01T07:51:04.001Z</time></trkpt><trkpt lat="45.54482706801799" lon="11.04515526248514"><ele>543.5</ele><time>2026-05-01T07:51:05.001Z</time></trkpt><trkpt lat="45.54473340912935" lon="11.045335730089462"><ele>544.25</ele><time>2026-05-01T07:51:06.001Z</time></trkpt><trkpt lat="45.54464198938093" lon="11.045514724636154"><ele>545.0</ele><time>2026-05-01T07:51:07.001Z</time></trkpt><trkpt lat="45.54456421290967" lon="11.04570491304485"><ele>542.75</ele><time>2026-05-01T07:51:08.001Z</time></trkpt><trkpt lat="45.544500600125644" lon="11.04589165073961"><ele>540.5</ele><time>2026-05-01T07:51:09.001Z</time></trkpt><trkpt lat="45.54444218045802" lon="11.04608895626208"><ele>538.25</ele><time>2026-05-01T07:51:10.001Z</time></trkpt><trkpt lat="45.54440308435224" lon="11.046285542769244"><ele>536.0</ele><time>2026-05-01T07:51:11.001Z</time></trkpt><trkpt lat="45.544350759698936" lon="11.04647524484629"><ele>539.3333333333333</ele><time>2026-05-01T07:51:12.001Z</time></trkpt><trkpt lat="45.544284731754225" lon="11.046674267193765"><ele>542.6666666666666</ele><time>2026-05-01T07:51:13.001Z</time></trkpt><trkpt lat="45.5442526134954" lon="11.04689992307466"><ele>546.0</ele><time>2026-05-01T07:51:14.001Z</time></trkpt><trkpt lat="45.54420096626282" lon="11.047124029411606"><ele>546.0</ele><time>2026-05-01T07:51:15.001Z</time></trkpt><trkpt lat="45.54414742301031" lon="11.047355790200495"><ele>546.0</ele><time>2026-05-01T07:51:16.001Z</time></trkpt><trkpt lat="45.54409926350497" lon="11.047581836993508"><ele>546.0</ele><time>2026-05-01T07:51:17.001Z</time></trkpt><trkpt lat="45.54406615343831" lon="11.047785554821658"><ele>548.0</ele><time>2026-05-01T07:51:18.001Z</time></trkpt><trkpt lat="45.544049978315385" lon="11.047963166610977"><ele>550.0</ele><time>2026-05-01T07:51:19.001Z</time></trkpt><trkpt lat="45.54406320843468" lon="11.048143674974984"><ele>552.0</ele><time>2026-05-01T07:51:20.001Z</time></trkpt><trkpt lat="45.544121300005465" lon="11.04832879460993"><ele>554.0</ele><time>2026-05-01T07:51:21.001Z</time></trkpt><trkpt lat="45.54420274415287" lon="11.048527796099062"><ele>554.25</ele><time>2026-05-01T07:51:22.001Z</time></trkpt><trkpt lat="45.54425966581256" lon="11.048736249038393"><ele>554.5</ele><time>2026-05-01T07:51:23.001Z</time></trkpt><trkpt lat="45.54430022301045" lon="11.04891912693739"><ele>554.75</ele><time>2026-05-01T07:51:24.001Z</time></trkpt><trkpt lat="45.544339961869696" lon="11.049065769603661"><ele>555.0</ele><time>2026-05-01T07:51:25.001Z</time></trkpt><trkpt lat="45.54439028970949" lon="11.049187547201033"><ele>555.0</ele><time>2026-05-01T07:51:26.001Z</time></trkpt><trkpt lat="45.54445006448401" lon="11.049271246114033"><ele>555.0</ele><time>2026-05-01T07:51:27.001Z</time></trkpt><trkpt lat="45.54454272541208" lon="11.04933270630145"><ele>555.0</ele><time>2026-05-01T07:51:28.001Z</time></trkpt><trkpt lat="45.54465901464279" lon="11.049357280522155"><ele>555.0</ele><time>2026-05-01T07:51:29.001Z</time></trkpt><trkpt lat="45.54477296052607" lon="11.049387064699237"><ele>555.0</ele><time>2026-05-01T07:51:30.001Z</time></trkpt><trkpt lat="45.544864582619134" lon="11.049431526677742"><ele>558.8</ele><time>2026-05-01T07:51:31.001Z</time></trkpt><trkpt lat="45.5449378492414" lon="11.049486758696808"><ele>562.6</ele><time>2026-05-01T07:51:32.001Z</time></trkpt><trkpt lat="45.54501872752134" lon="11.04949573938937"><ele>566.4</ele><time>2026-05-01T07:51:33.001Z</time></trkpt><trkpt lat="45.54509999020274" lon="11.049456832550401"><ele>570.2</ele><time>2026-05-01T07:51:34.001Z</time></trkpt><trkpt lat="45.54516948793286" lon="11.049355955443621"><ele>574.0</ele><time>2026-05-01T07:51:35.001Z</time></trkpt><trkpt lat="45.545226227608325" lon="11.049226880954324"><ele>573.8</ele><time>2026-05-01T07:51:36.001Z</time></trkpt><trkpt lat="45.54527913099006" lon="11.049088466990193"><ele>573.5999999999999</ele><time>2026-05-01T07:51:37.001Z</time></trkpt><trkpt lat="45.54532952517588" lon="11.048956786986219"><ele>573.4</ele><time>2026-05-01T07:51:38.001Z</time></trkpt><trkpt lat="45.545370165765846" lon="11.048837633647725"><ele>573.1999999999999</ele><time>2026-05-01T07:51:39.001Z</time></trkpt><trkpt lat="45.54538995716465" lon="11.04871326735997"><ele>573.0</ele><time>2026-05-01T07:51:40.001Z</time></trkpt><trkpt lat="45.54542449923947" lon="11.048554505877032"><ele>578.25</ele><time>2026-05-01T07:51:41.001Z</time></trkpt><trkpt lat="45.545494363714035" lon="11.048390185974785"><ele>583.5</ele><time>2026-05-01T07:51:42.001Z</time></trkpt><trkpt lat="45.54554539926788" lon="11.048197309496448"><ele>588.75</ele><time>2026-05-01T07:51:43.001Z</time></trkpt><trkpt lat="45.545591936218386" lon="11.048012352784875"><ele>594.0</ele><time>2026-05-01T07:51:44.001Z</time></trkpt><trkpt lat="45.54563078380477" lon="11.047833288803606"><ele>594.0</ele><time>2026-05-01T07:51:45.001Z</time></trkpt><trkpt lat="45.54564778358638" lon="11.047642201004503"><ele>594.0</ele><time>2026-05-01T07:51:46.001Z</time></trkpt><trkpt lat="45.54564538528852" lon="11.047450776834037"><ele>594.0</ele><time>2026-05-01T07:51:47.001Z</time></trkpt><trkpt lat="45.54564174453804" lon="11.047263384051824"><ele>594.0</ele><time>2026-05-01T07:51:48.001Z</time></trkpt><trkpt lat="45.545654244994054" lon="11.0470766573084"><ele>593.2</ele><time>2026-05-01T07:51:49.001Z</time></trkpt><trkpt lat="45.545670745599395" lon="11.046918234508967"><ele>592.4</ele><time>2026-05-01T07:51:50Z</time></trkpt><trkpt lat="45.545676713567374" lon="11.04677195594122"><ele>591.6</ele><time>2026-05-01T07:51:51Z</time></trkpt><trkpt lat="45.545707754805875" lon="11.046665926586313"><ele>590.8</ele><time>2026-05-01T07:51:52Z</time></trkpt><trkpt lat="45.54577178523452" lon="11.046565428393228"><ele>590.0</ele><time>2026-05-01T07:51:53Z</time></trkpt><trkpt lat="45.545841549395405" lon="11.046446111764155"><ele>588.25</ele><time>2026-05-01T07:51:54Z</time></trkpt><trkpt lat="45.54592400653734" lon="11.04631960663447"><ele>586.5</ele><time>2026-05-01T07:51:55Z</time></trkpt><trkpt lat="45.54600338934811" lon="11.046180272478956"><ele>584.75</ele><time>2026-05-01T07:51:56Z</time></trkpt><trkpt lat="45.54608249906789" lon="11.046022903606389"><ele>583.0</ele><time>2026-05-01T07:51:57Z</time></trkpt><trkpt lat="45.54615815526734" lon="11.045865540912935"><ele>585.5</ele><time>2026-05-01T07:51:58Z</time></trkpt><trkpt lat="45.546234240843695" lon="11.04572451700411"><ele>588.0</ele><time>2026-05-01T07:51:59Z</time></trkpt><trkpt lat="45.54630801716088" lon="11.045609057277103"><ele>590.5</ele><time>2026-05-01T07:52:00Z</time></trkpt><trkpt lat="45.54638845794141" lon="11.045500559046667"><ele>593.0</ele><time>2026-05-01T07:52:01Z</time></trkpt><trkpt lat="45.54647239509993" lon="11.045389981208553"><ele>593.0</ele><time>2026-05-01T07:52:02Z</time></trkpt><trkpt lat="45.54655152309139" lon="11.04528974733925"><ele>593.0</ele><time>2026-05-01T07:52:03Z</time></trkpt><trkpt lat="45.54662639496787" lon="11.045213586614889"><ele>593.0</ele><time>2026-05-01T07:52:04Z</time></trkpt><trkpt lat="45.546709734110095" lon="11.045145453333172"><ele>593.0</ele><time>2026-05-01T07:52:05Z</time></trkpt><trkpt lat="45.54681826978583" lon="11.045098098998414"><ele>593.0</ele><time>2026-05-01T07:52:06Z</time></trkpt><trkpt lat="45.546939387740736" lon="11.045072828407129"><ele>592.75</ele><time>2026-05-01T07:52:07Z</time></trkpt><trkpt lat="45.54707268996274" lon="11.045064803953048"><ele>592.5</ele><time>2026-05-01T07:52:08Z</time></trkpt><trkpt lat="45.5472073266547" lon="11.045073056697497"><ele>592.25</ele><time>2026-05-01T07:52:09Z</time></trkpt><trkpt lat="45.547328799047115" lon="11.045055686583115"><ele>592.0</ele><time>2026-05-01T07:52:10Z</time></trkpt><trkpt lat="45.5474344483796" lon="11.045104322589822"><ele>592.0</ele><time>2026-05-01T07:52:11Z</time></trkpt><trkpt lat="45.54752608071216" lon="11.04518998333927"><ele>592.0</ele><time>2026-05-01T07:52:12Z</time></trkpt><trkpt lat="45.547554253968265" lon="11.045388106630721"><ele>592.0</ele><time>2026-05-01T07:52:13Z</time></trkpt><trkpt lat="45.54760547624541" lon="11.045547227944057"><ele>592.0</ele><time>2026-05-01T07:52:14Z</time></trkpt><trkpt lat="45.547654427977555" lon="11.045710348538467"><ele>590.5</ele><time>2026-05-01T07:52:15Z</time></trkpt><trkpt lat="45.54769836798026" lon="11.045861664471204"><ele>589.0</ele><time>2026-05-01T07:52:16Z</time></trkpt><trkpt lat="45.54776104423459" lon="11.046034841813057"><ele>587.5</ele><time>2026-05-01T07:52:17Z</time></trkpt><trkpt lat="45.54782112881345" lon="11.046253566356617"><ele>586.0</ele><time>2026-05-01T07:52:18Z</time></trkpt><trkpt lat="45.547916172055416" lon="11.046461556342566"><ele>590.0</ele><time>2026-05-01T07:52:19Z</time></trkpt><trkpt lat="45.547998842126894" lon="11.046695328377286"><ele>594.0</ele><time>2026-05-01T07:52:20Z</time></trkpt><trkpt lat="45.54808165464292" lon="11.046903557459403"><ele>598.0</ele><time>2026-05-01T07:52:21Z</time></trkpt><trkpt lat="45.548161019175275" lon="11.047072478455435"><ele>598.0</ele><time>2026-05-01T07:52:22Z</time></trkpt><trkpt lat="45.54822767741366" lon="11.047197524338344"><ele>598.0</ele><time>2026-05-01T07:52:23Z</time></trkpt><trkpt lat="45.54830480344924" lon="11.047284363419948"><ele>598.0</ele><time>2026-05-01T07:52:24Z</time></trkpt><trkpt lat="45.54840343446408" lon="11.047310037539056"><ele>598.0</ele><time>2026-05-01T07:52:25Z</time></trkpt><trkpt lat="45.548511902580856" lon="11.047266804062518"><ele>598.0</ele><time>2026-05-01T07:52:26Z</time></trkpt><trkpt lat="45.54859593418748" lon="11.04712461644187"><ele>598.0</ele><time>2026-05-01T07:52:27Z</time></trkpt><trkpt lat="45.548660052668154" lon="11.046933068219904"><ele>598.0</ele><time>2026-05-01T07:52:28Z</time></trkpt><trkpt lat="45.54873017409135" lon="11.046716474529845"><ele>598.0</ele><time>2026-05-01T07:52:29Z</time></trkpt><trkpt lat="45.548800332425294" lon="11.046513768467042"><ele>597.6666666666667</ele><time>2026-05-01T07:52:30Z</time></trkpt><trkpt lat="45.54887763054958" lon="11.046316628243265"><ele>597.3333333333334</ele><time>2026-05-01T07:52:31Z</time></trkpt><trkpt lat="45.548963280511714" lon="11.046118480437631"><ele>597.0</ele><time>2026-05-01T07:52:32Z</time></trkpt><trkpt lat="45.54905072605112" lon="11.045914973634686"><ele>594.0</ele><time>2026-05-01T07:52:33Z</time></trkpt><trkpt lat="45.54912858375622" lon="11.045705658726783"><ele>591.0</ele><time>2026-05-01T07:52:34Z</time></trkpt><trkpt lat="45.549190086027195" lon="11.045492483376737"><ele>588.0</ele><time>2026-05-01T07:52:35Z</time></trkpt><trkpt lat="45.5492361031808" lon="11.045289256922706"><ele>588.0</ele><time>2026-05-01T07:52:36Z</time></trkpt><trkpt lat="45.549283443782905" lon="11.045118469668779"><ele>588.0</ele><time>2026-05-01T07:52:37Z</time></trkpt><trkpt lat="45.549345500982504" lon="11.044969911913203"><ele>588.0</ele><time>2026-05-01T07:52:38Z</time></trkpt><trkpt lat="45.54943203680867" lon="11.044863099077721"><ele>588.0</ele><time>2026-05-01T07:52:39Z</time></trkpt><trkpt lat="45.54953937540568" lon="11.044779773054197"><ele>588.0</ele><time>2026-05-01T07:52:40Z</time></trkpt><trkpt lat="45.54966179664869" lon="11.044723364820035"><ele>588.0</ele><time>2026-05-01T07:52:41Z</time></trkpt><trkpt lat="45.5497946146559" lon="11.044685324392944"><ele>588.0</ele><time>2026-05-01T07:52:42Z</time></trkpt><trkpt lat="45.54993373569963" lon="11.044656284563212"><ele>588.0</ele><time>2026-05-01T07:52:43Z</time></trkpt><trkpt lat="45.55008929221153" lon="11.044645740686917"><ele>588.0</ele><time>2026-05-01T07:52:44Z</time></trkpt><trkpt lat="45.55025622687279" lon="11.044659935364317"><ele>588.0</ele><time>2026-05-01T07:52:45Z</time></trkpt><trkpt lat="45.55043166072917" lon="11.044708785996416"><ele>588.0</ele><time>2026-05-01T07:52:46Z</time></trkpt><trkpt lat="45.55061163047094" lon="11.044799282318094"><ele>592.6666666666666</ele><time>2026-05-01T07:52:47Z</time></trkpt><trkpt lat="45.55076974201625" lon="11.044885890873402"><ele>597.3333333333333</ele><time>2026-05-01T07:52:48Z</time></trkpt><trkpt lat="45.55090578767483" lon="11.044992794603209"><ele>602.0</ele><time>2026-05-01T07:52:49Z</time></trkpt><trkpt lat="45.55102735297598" lon="11.045073043330397"><ele>602.5</ele><time>2026-05-01T07:52:50Z</time></trkpt><trkpt lat="45.551151731781886" lon="11.045091257592881"><ele>603.0</ele><time>2026-05-01T07:52:51Z</time></trkpt><trkpt lat="45.55126746146566" lon="11.04503898941138"><ele>603.5</ele><time>2026-05-01T07:52:52Z</time></trkpt><trkpt lat="45.55135258583963" lon="11.044905324991191"><ele>604.0</ele><time>2026-05-01T07:52:53Z</time></trkpt><trkpt lat="45.55142240976684" lon="11.044778887507325"><ele>603.5</ele><time>2026-05-01T07:52:54Z</time></trkpt><trkpt lat="45.55143687268466" lon="11.04461489628314"><ele>603.0</ele><time>2026-05-01T07:52:55Z</time></trkpt><trkpt lat="45.55138619090041" lon="11.044460770902074"><ele>602.5</ele><time>2026-05-01T07:52:56Z</time></trkpt><trkpt lat="45.55128788332164" lon="11.044341762776892"><ele>602.0</ele><time>2026-05-01T07:52:57Z</time></trkpt><trkpt lat="45.55113303989912" lon="11.044238612601728"><ele>606.0</ele><time>2026-05-01T07:52:58Z</time></trkpt><trkpt lat="45.55095779509763" lon="11.044119347175473"><ele>610.0</ele><time>2026-05-01T07:52:59Z</time></trkpt><trkpt lat="45.55081656867789" lon="11.043990550161213"><ele>614.0</ele><time>2026-05-01T07:53:00Z</time></trkpt><trkpt lat="45.55069208632291" lon="11.043878329769438"><ele>614.0</ele><time>2026-05-01T07:53:01Z</time></trkpt><trkpt lat="45.550581569005416" lon="11.04375889951044"><ele>614.0</ele><time>2026-05-01T07:53:02Z</time></trkpt><trkpt lat="45.55048692331055" lon="11.04362223198551"><ele>614.0</ele><time>2026-05-01T07:53:03Z</time></trkpt><trkpt lat="45.55040785826044" lon="11.043467739431676"><ele>614.0</ele><time>2026-05-01T07:53:04Z</time></trkpt><trkpt lat="45.550360451609706" lon="11.043294307266548"><ele>612.75</ele><time>2026-05-01T07:53:05Z</time></trkpt><trkpt lat="45.5503225267403" lon="11.04310356666367"><ele>611.5</ele><time>2026-05-01T07:53:06Z</time></trkpt><trkpt lat="45.5503278535042" lon="11.042907291290524"><ele>610.25</ele><time>2026-05-01T07:53:07Z</time></trkpt><trkpt lat="45.550376603649106" lon="11.042721480705692"><ele>609.0</ele><time>2026-05-01T07:53:08Z</time></trkpt><trkpt lat="45.550464240864535" lon="11.042520277913953"><ele>605.75</ele><time>2026-05-01T07:53:09Z</time></trkpt><trkpt lat="45.55055036615009" lon="11.042335187569241"><ele>602.5</ele><time>2026-05-01T07:53:10Z</time></trkpt><trkpt lat="45.55062164542479" lon="11.042193868813083"><ele>599.25</ele><time>2026-05-01T07:53:11Z</time></trkpt><trkpt lat="45.55071060898928" lon="11.042093660391464"><ele>596.0</ele><time>2026-05-01T07:53:12Z</time></trkpt><trkpt lat="45.55082738979923" lon="11.042073665891278"><ele>596.0</ele><time>2026-05-01T07:53:13Z</time></trkpt><trkpt lat="45.55096158841662" lon="11.042110523308578"><ele>596.0</ele><time>2026-05-01T07:53:14Z</time></trkpt><trkpt lat="45.55111188190538" lon="11.042244822110431"><ele>596.0</ele><time>2026-05-01T07:53:15Z</time></trkpt><trkpt lat="45.5512889806889" lon="11.042362674744485"><ele>600.6666666666666</ele><time>2026-05-01T07:53:16Z</time></trkpt><trkpt lat="45.55147239108272" lon="11.042505297313355"><ele>605.3333333333334</ele><time>2026-05-01T07:53:17Z</time></trkpt><trkpt lat="45.55167362273534" lon="11.042642318493431"><ele>610.0</ele><time>2026-05-01T07:53:18Z</time></trkpt><trkpt lat="45.5518931040323" lon="11.042756957627292"><ele>607.5</ele><time>2026-05-01T07:53:19Z</time></trkpt><trkpt lat="45.55212089043473" lon="11.04284819996611"><ele>605.0</ele><time>2026-05-01T07:53:20Z</time></trkpt><trkpt lat="45.552346156805676" lon="11.042920183028338"><ele>605.0</ele><time>2026-05-01T07:53:21Z</time></trkpt><trkpt lat="45.55256807624151" lon="11.04298747616961"><ele>605.0</ele><time>2026-05-01T07:53:22Z</time></trkpt><trkpt lat="45.55279713082513" lon="11.043036751984644"><ele>605.3333333333333</ele><time>2026-05-01T07:53:23Z</time></trkpt><trkpt lat="45.553022796272515" lon="11.043068243367008"><ele>605.6666666666666</ele><time>2026-05-01T07:53:24Z</time></trkpt><trkpt lat="45.55324124442506" lon="11.043089335421898"><ele>606.0</ele><time>2026-05-01T07:53:25Z</time></trkpt><trkpt lat="45.553449586440436" lon="11.04311992745603"><ele>606.0</ele><time>2026-05-01T07:53:26Z</time></trkpt><trkpt lat="45.55364401560227" lon="11.043153099841167"><ele>606.0</ele><time>2026-05-01T07:53:27Z</time></trkpt><trkpt lat="45.55383880457918" lon="11.043174978646201"><ele>606.0</ele><time>2026-05-01T07:53:28Z</time></trkpt><trkpt lat="45.55404076704027" lon="11.043193353216735"><ele>609.0</ele><time>2026-05-01T07:53:29Z</time></trkpt><trkpt lat="45.55422931379471" lon="11.043207550504373"><ele>612.0</ele><time>2026-05-01T07:53:30Z</time></trkpt><trkpt lat="45.55440549035777" lon="11.043211507520082"><ele>615.0</ele><time>2026-05-01T07:53:31.001Z</time></trkpt><trkpt lat="45.55457323495559" lon="11.043199669740387"><ele>621.6666666666666</ele><time>2026-05-01T07:53:32.001Z</time></trkpt><trkpt lat="45.554755231521064" lon="11.043150523850619"><ele>628.3333333333333</ele><time>2026-05-01T07:53:33.001Z</time></trkpt><trkpt lat="45.55491482371818" lon="11.043074136464778"><ele>635.0</ele><time>2026-05-01T07:53:34.001Z</time></trkpt><trkpt lat="45.55504591385328" lon="11.04302064595587"><ele>635.0</ele><time>2026-05-01T07:53:35.001Z</time></trkpt><trkpt lat="45.55515312101519" lon="11.042978779384335"><ele>635.0</ele><time>2026-05-01T07:53:36.001Z</time></trkpt><trkpt lat="45.55523991519289" lon="11.0428778877213"><ele>635.0</ele><time>2026-05-01T07:53:37.001Z</time></trkpt><trkpt lat="45.55528568929994" lon="11.042725531127317"><ele>635.0</ele><time>2026-05-01T07:53:38.001Z</time></trkpt><trkpt lat="45.55528296481955" lon="11.042532854929428"><ele>638.0</ele><time>2026-05-01T07:53:39.001Z</time></trkpt><trkpt lat="45.55523601363676" lon="11.042325300758582"><ele>641.0</ele><time>2026-05-01T07:53:40.001Z</time></trkpt><trkpt lat="45.55514424800122" lon="11.042108283825337"><ele>644.0</ele><time>2026-05-01T07:53:41.001Z</time></trkpt><trkpt lat="45.55505001140256" lon="11.041883991081336"><ele>644.0</ele><time>2026-05-01T07:53:42.001Z</time></trkpt><trkpt lat="45.554970932898456" lon="11.041651074123791"><ele>644.0</ele><time>2026-05-01T07:53:43.001Z</time></trkpt><trkpt lat="45.55490261211946" lon="11.041453419492587"><ele>644.0</ele><time>2026-05-01T07:53:44.001Z</time></trkpt><trkpt lat="45.554848703264646" lon="11.041297220955503"><ele>643.8000000000001</ele><time>2026-05-01T07:53:45.001Z</time></trkpt><trkpt lat="45.55480719248059" lon="11.041154575127228"><ele>643.6</ele><time>2026-05-01T07:53:46.001Z</time></trkpt><trkpt lat="45.55482317313444" lon="11.04101281597021"><ele>643.4</ele><time>2026-05-01T07:53:47.001Z</time></trkpt><trkpt lat="45.55489935289449" lon="11.040898074955942"><ele>643.2</ele><time>2026-05-01T07:53:48.001Z</time></trkpt><trkpt lat="45.55499630258364" lon="11.040818184741267"><ele>643.0</ele><time>2026-05-01T07:53:49Z</time></trkpt><trkpt lat="45.5551616635889" lon="11.040863332333632"><ele>643.0</ele><time>2026-05-01T07:53:50Z</time></trkpt><trkpt lat="45.55534414402643" lon="11.040856408197989"><ele>643.0</ele><time>2026-05-01T07:53:51Z</time></trkpt><trkpt lat="45.555535615244246" lon="11.040881165119963"><ele>643.0</ele><time>2026-05-01T07:53:52Z</time></trkpt><trkpt lat="45.55574902847702" lon="11.040899943569455"><ele>647.3333333333334</ele><time>2026-05-01T07:53:53Z</time></trkpt><trkpt lat="45.55595888185306" lon="11.040908951317677"><ele>651.6666666666666</ele><time>2026-05-01T07:53:54Z</time></trkpt><trkpt lat="45.55615350261821" lon="11.040919510809905"><ele>656.0</ele><time>2026-05-01T07:53:55Z</time></trkpt><trkpt lat="45.55631751453263" lon="11.040937406437738"><ele>659.0</ele><time>2026-05-01T07:53:56Z</time></trkpt><trkpt lat="45.55645035605304" lon="11.040953458139606"><ele>662.0</ele><time>2026-05-01T07:53:57Z</time></trkpt><trkpt lat="45.55656307185773" lon="11.040963388087839"><ele>665.0</ele><time>2026-05-01T07:53:58Z</time></trkpt><trkpt lat="45.556667441191706" lon="11.040929451706399"><ele>668.0</ele><time>2026-05-01T07:53:59Z</time></trkpt><trkpt lat="45.55676149299413" lon="11.040809875194146"><ele>670.0</ele><time>2026-05-01T07:54:00Z</time></trkpt><trkpt lat="45.55686292492797" lon="11.040661075666694"><ele>672.0</ele><time>2026-05-01T07:54:01Z</time></trkpt><trkpt lat="45.55697115776438" lon="11.0404988805358"><ele>674.0</ele><time>2026-05-01T07:54:02Z</time></trkpt><trkpt lat="45.557077408812056" lon="11.040339569182414"><ele>674.0</ele><time>2026-05-01T07:54:03Z</time></trkpt><trkpt lat="45.5571706513824" lon="11.040201157130436"><ele>674.0</ele><time>2026-05-01T07:54:04Z</time></trkpt><trkpt lat="45.55723106954998" lon="11.040069336888404"><ele>674.0</ele><time>2026-05-01T07:54:05Z</time></trkpt><trkpt lat="45.55729443459238" lon="11.039971653545674"><ele>674.0</ele><time>2026-05-01T07:54:06Z</time></trkpt><trkpt lat="45.55733486695554" lon="11.03987417892884"><ele>674.0</ele><time>2026-05-01T07:54:07Z</time></trkpt><trkpt lat="45.55737821628717" lon="11.039791687793585"><ele>672.4000000000001</ele><time>2026-05-01T07:54:08Z</time></trkpt><trkpt lat="45.55742795271989" lon="11.039732688348863"><ele>670.8</ele><time>2026-05-01T07:54:09Z</time></trkpt><trkpt lat="45.557460179780435" lon="11.039643018218225"><ele>669.2</ele><time>2026-05-01T07:54:11Z</time></trkpt><trkpt lat="45.55758578196911" lon="11.03970131046458"><ele>667.5999999999999</ele><time>2026-05-01T07:54:12Z</time></trkpt><trkpt lat="45.55768481813656" lon="11.039741232988543"><ele>666.0</ele><time>2026-05-01T07:54:13Z</time></trkpt><trkpt lat="45.557795454566296" lon="11.039793359569448"><ele>662.75</ele><time>2026-05-01T07:54:14Z</time></trkpt><trkpt lat="45.55791633415098" lon="11.039844154516786"><ele>659.5</ele><time>2026-05-01T07:54:15Z</time></trkpt><trkpt lat="45.55804588832203" lon="11.0398786840362"><ele>656.25</ele><time>2026-05-01T07:54:16Z</time></trkpt><trkpt lat="45.558184351378706" lon="11.03991158121532"><ele>653.0</ele><time>2026-05-01T07:54:17Z</time></trkpt><trkpt lat="45.5583218848866" lon="11.039956622986635"><ele>655.5</ele><time>2026-05-01T07:54:18Z</time></trkpt><trkpt lat="45.55843480975769" lon="11.040037135102258"><ele>658.0</ele><time>2026-05-01T07:54:19Z</time></trkpt><trkpt lat="45.55855242068095" lon="11.04012395100477"><ele>660.5</ele><time>2026-05-01T07:54:20Z</time></trkpt><trkpt lat="45.55865535657534" lon="11.040235139414477"><ele>663.0</ele><time>2026-05-01T07:54:21Z</time></trkpt><trkpt lat="45.55874554384236" lon="11.040392884880053"><ele>663.0</ele><time>2026-05-01T07:54:22Z</time></trkpt><trkpt lat="45.55882421335674" lon="11.04058902664768"><ele>663.0</ele><time>2026-05-01T07:54:23Z</time></trkpt><trkpt lat="45.55893185743102" lon="11.040840865384695"><ele>663.0</ele><time>2026-05-01T07:54:24Z</time></trkpt><trkpt lat="45.55903865752207" lon="11.041055818626578"><ele>660.6666666666666</ele><time>2026-05-01T07:54:25Z</time></trkpt><trkpt lat="45.55917370885314" lon="11.041248519761218"><ele>658.3333333333333</ele><time>2026-05-01T07:54:26Z</time></trkpt><trkpt lat="45.559359204742194" lon="11.041433888589516"><ele>656.0</ele><time>2026-05-01T07:54:27Z</time></trkpt><trkpt lat="45.55954509880853" lon="11.041581380958482"><ele>665.6666666666666</ele><time>2026-05-01T07:54:28Z</time></trkpt><trkpt lat="45.55971357679747" lon="11.04169984797726"><ele>675.3333333333334</ele><time>2026-05-01T07:54:29Z</time></trkpt><trkpt lat="45.55987852478423" lon="11.041815260455104"><ele>685.0</ele><time>2026-05-01T07:54:30Z</time></trkpt><trkpt lat="45.560046280477856" lon="11.041916850165947"><ele>685.0</ele><time>2026-05-01T07:54:31Z</time></trkpt><trkpt lat="45.560239306180875" lon="11.041978252814626"><ele>685.0</ele><time>2026-05-01T07:54:32Z</time></trkpt><trkpt lat="45.560450993115644" lon="11.042040467580648"><ele>685.0</ele><time>2026-05-01T07:54:33Z</time></trkpt><trkpt lat="45.56066258890195" lon="11.042104941669537"><ele>682.6666666666667</ele><time>2026-05-01T07:54:34Z</time></trkpt><trkpt lat="45.56087041265646" lon="11.042180150384562"><ele>680.3333333333334</ele><time>2026-05-01T07:54:35Z</time></trkpt><trkpt lat="45.56106535145435" lon="11.042280549896267"><ele>678.0</ele><time>2026-05-01T07:54:36Z</time></trkpt><trkpt lat="45.56124911314616" lon="11.042372557567031"><ele>678.0</ele><time>2026-05-01T07:54:37Z</time></trkpt><trkpt lat="45.56141757415432" lon="11.042477447982115"><ele>678.0</ele><time>2026-05-01T07:54:38Z</time></trkpt><trkpt lat="45.56158534747663" lon="11.042514807953843"><ele>678.0</ele><time>2026-05-01T07:54:39Z</time></trkpt><trkpt lat="45.561753824398224" lon="11.04246397173551"><ele>678.0</ele><time>2026-05-01T07:54:40Z</time></trkpt><trkpt lat="45.56192683999637" lon="11.04238445226779"><ele>678.0</ele><time>2026-05-01T07:54:41Z</time></trkpt><trkpt lat="45.56208414516584" lon="11.04228673209579"><ele>678.0</ele><time>2026-05-01T07:54:42Z</time></trkpt><trkpt lat="45.562238666944666" lon="11.04224128910556"><ele>682.6666666666666</ele><time>2026-05-01T07:54:43Z</time></trkpt><trkpt lat="45.56239861382695" lon="11.042222223082094"><ele>687.3333333333333</ele><time>2026-05-01T07:54:44Z</time></trkpt><trkpt lat="45.56255530620644" lon="11.042235297585147"><ele>692.0</ele><time>2026-05-01T07:54:45Z</time></trkpt><trkpt lat="45.562710535169586" lon="11.042236646779676"><ele>691.5</ele><time>2026-05-01T07:54:46Z</time></trkpt><trkpt lat="45.56286440173745" lon="11.042253277612126"><ele>691.0</ele><time>2026-05-01T07:54:47Z</time></trkpt><trkpt lat="45.56301540553246" lon="11.042279013908864"><ele>690.5</ele><time>2026-05-01T07:54:48Z</time></trkpt><trkpt lat="45.56315598376435" lon="11.042289119354486"><ele>690.0</ele><time>2026-05-01T07:54:49Z</time></trkpt><trkpt lat="45.56328769314462" lon="11.042287937050178"><ele>690.0</ele><time>2026-05-01T07:54:50Z</time></trkpt><trkpt lat="45.563421175791625" lon="11.042264163384615"><ele>690.0</ele><time>2026-05-01T07:54:51Z</time></trkpt><trkpt lat="45.56356287589783" lon="11.042215466143308"><ele>690.0</ele><time>2026-05-01T07:54:52Z</time></trkpt><trkpt lat="45.56369990547611" lon="11.042095488240346"><ele>690.0</ele><time>2026-05-01T07:54:53Z</time></trkpt><trkpt lat="45.563826390893375" lon="11.041952534854488"><ele>686.0</ele><time>2026-05-01T07:54:54Z</time></trkpt><trkpt lat="45.56394313723329" lon="11.041791743931524"><ele>682.0</ele><time>2026-05-01T07:54:55Z</time></trkpt><trkpt lat="45.564061124088376" lon="11.041674818747351"><ele>678.0</ele><time>2026-05-01T07:54:56Z</time></trkpt><trkpt lat="45.56421215534565" lon="11.041584118256585"><ele>678.0</ele><time>2026-05-01T07:54:57Z</time></trkpt><trkpt lat="45.56439680236955" lon="11.041526019074135"><ele>678.0</ele><time>2026-05-01T07:54:58Z</time></trkpt><trkpt lat="45.56459221476389" lon="11.041484889916203"><ele>678.0</ele><time>2026-05-01T07:54:59Z</time></trkpt><trkpt lat="45.564784229377146" lon="11.041432124863238"><ele>682.3333333333334</ele><time>2026-05-01T07:55:00Z</time></trkpt><trkpt lat="45.564968199347625" lon="11.041382773737604"><ele>686.6666666666667</ele><time>2026-05-01T07:55:01Z</time></trkpt><trkpt lat="45.5651408174653" lon="11.041334003875466"><ele>691.0</ele><time>2026-05-01T07:55:02Z</time></trkpt><trkpt lat="45.56531483116114" lon="11.041291828162255"><ele>693.6666666666667</ele><time>2026-05-01T07:55:03Z</time></trkpt><trkpt lat="45.56548543408609" lon="11.041259399601202"><ele>696.3333333333334</ele><time>2026-05-01T07:55:04Z</time></trkpt><trkpt lat="45.565661292943915" lon="11.041244876686106"><ele>699.0</ele><time>2026-05-01T07:55:05Z</time></trkpt><trkpt lat="45.565838184179626" lon="11.04124132655503"><ele>699.0</ele><time>2026-05-01T07:55:06Z</time></trkpt><trkpt lat="45.56601443226205" lon="11.041249776819955"><ele>699.0</ele><time>2026-05-01T07:55:07Z</time></trkpt><trkpt lat="45.566196027460805" lon="11.041260415088058"><ele>699.0</ele><time>2026-05-01T07:55:08Z</time></trkpt><trkpt lat="45.56636778904392" lon="11.04127046577804"><ele>703.0</ele><time>2026-05-01T07:55:09Z</time></trkpt><trkpt lat="45.56653678230373" lon="11.041285578353092"><ele>707.0</ele><time>2026-05-01T07:55:10Z</time></trkpt><trkpt lat="45.56670084596361" lon="11.041303086270426"><ele>711.0</ele><time>2026-05-01T07:55:11Z</time></trkpt><trkpt lat="45.56686357132346" lon="11.04134864497608"><ele>711.0</ele><time>2026-05-01T07:55:12Z</time></trkpt><trkpt lat="45.567012831093955" lon="11.041460216781655"><ele>711.0</ele><time>2026-05-01T07:55:13Z</time></trkpt><trkpt lat="45.56715748651669" lon="11.041596474403736"><ele>711.0</ele><time>2026-05-01T07:55:14Z</time></trkpt><trkpt lat="45.56729354941921" lon="11.04174867753346"><ele>711.6666666666666</ele><time>2026-05-01T07:55:15Z</time></trkpt><trkpt lat="45.567435999450666" lon="11.04189810206785"><ele>712.3333333333333</ele><time>2026-05-01T07:55:16Z</time></trkpt><trkpt lat="45.56757817527919" lon="11.04207042311794"><ele>713.0</ele><time>2026-05-01T07:55:17Z</time></trkpt><trkpt lat="45.56771438452497" lon="11.042226453748098"><ele>713.0</ele><time>2026-05-01T07:55:18Z</time></trkpt><trkpt lat="45.567852861016604" lon="11.042384268705792"><ele>713.0</ele><time>2026-05-01T07:55:19Z</time></trkpt><trkpt lat="45.567994701951896" lon="11.042539424953407"><ele>713.0</ele><time>2026-05-01T07:55:20Z</time></trkpt><trkpt lat="45.5681368079789" lon="11.042700259658051"><ele>713.6666666666666</ele><time>2026-05-01T07:55:21Z</time></trkpt><trkpt lat="45.56826256130462" lon="11.042874777376767"><ele>714.3333333333334</ele><time>2026-05-01T07:55:22Z</time></trkpt><trkpt lat="45.56840227024417" lon="11.04303736922689"><ele>715.0</ele><time>2026-05-01T07:55:23Z</time></trkpt><trkpt lat="45.56853994709018" lon="11.043197596131597"><ele>715.3333333333334</ele><time>2026-05-01T07:55:24Z</time></trkpt><trkpt lat="45.568685897133406" lon="11.043338360007812"><ele>715.6666666666666</ele><time>2026-05-01T07:55:25Z</time></trkpt><trkpt lat="45.5688211909468" lon="11.043495116246605"><ele>716.0</ele><time>2026-05-01T07:55:26Z</time></trkpt><trkpt lat="45.56895866251978" lon="11.043651753519462"><ele>716.0</ele><time>2026-05-01T07:55:27Z</time></trkpt><trkpt lat="45.569097915959325" lon="11.043811246884031"><ele>716.0</ele><time>2026-05-01T07:55:28Z</time></trkpt><trkpt lat="45.56923877634426" lon="11.043962727070639"><ele>716.0</ele><time>2026-05-01T07:55:29Z</time></trkpt><trkpt lat="45.56938265801595" lon="11.044112584163813"><ele>714.0</ele><time>2026-05-01T07:55:30Z</time></trkpt><trkpt lat="45.569543646620566" lon="11.044243620303915"><ele>712.0</ele><time>2026-05-01T07:55:31Z</time></trkpt><trkpt lat="45.569706848963456" lon="11.044352761916548"><ele>710.0</ele><time>2026-05-01T07:55:32Z</time></trkpt><trkpt lat="45.569883408442834" lon="11.044443234767778"><ele>710.0</ele><time>2026-05-01T07:55:33Z</time></trkpt><trkpt lat="45.57004974376355" lon="11.044513247899125"><ele>710.0</ele><time>2026-05-01T07:55:34Z</time></trkpt><trkpt lat="45.57021048439632" lon="11.04456926740983"><ele>710.0</ele><time>2026-05-01T07:55:35Z</time></trkpt><trkpt lat="45.570367974211145" lon="11.04461091095338"><ele>710.0</ele><time>2026-05-01T07:55:36Z</time></trkpt><trkpt lat="45.57051896143011" lon="11.0446503500076"><ele>710.0</ele><time>2026-05-01T07:55:37.001Z</time></trkpt><trkpt lat="45.57066895079985" lon="11.044672029685643"><ele>710.0</ele><time>2026-05-01T07:55:38.001Z</time></trkpt><trkpt lat="45.57082384660714" lon="11.04465814042323"><ele>710.0</ele><time>2026-05-01T07:55:39.001Z</time></trkpt><trkpt lat="45.57097998874529" lon="11.044594695809518"><ele>710.0</ele><time>2026-05-01T07:55:40.001Z</time></trkpt><trkpt lat="45.57112934405794" lon="11.044495635812929"><ele>710.0</ele><time>2026-05-01T07:55:41.001Z</time></trkpt><trkpt lat="45.5712534669226" lon="11.04434717780146"><ele>708.0</ele><time>2026-05-01T07:55:42.001Z</time></trkpt><trkpt lat="45.57136094389349" lon="11.04415107764825"><ele>706.0</ele><time>2026-05-01T07:55:43.001Z</time></trkpt><trkpt lat="45.57145593679353" lon="11.04392664837077"><ele>704.0</ele><time>2026-05-01T07:55:44.001Z</time></trkpt><trkpt lat="45.57153997278516" lon="11.043692619365746"><ele>704.0</ele><time>2026-05-01T07:55:45.001Z</time></trkpt><trkpt lat="45.571626685399444" lon="11.043471029499388"><ele>704.0</ele><time>2026-05-01T07:55:46.001Z</time></trkpt><trkpt lat="45.57170666353167" lon="11.04326532960663"><ele>704.0</ele><time>2026-05-01T07:55:47.001Z</time></trkpt><trkpt lat="45.571782738370764" lon="11.043065124818817"><ele>703.75</ele><time>2026-05-01T07:55:48.001Z</time></trkpt><trkpt lat="45.57184911208097" lon="11.042872217880442"><ele>703.5</ele><time>2026-05-01T07:55:49.001Z</time></trkpt><trkpt lat="45.57189883270274" lon="11.042677634148358"><ele>703.25</ele><time>2026-05-01T07:55:50.001Z</time></trkpt><trkpt lat="45.57192684694576" lon="11.042464353604085"><ele>703.0</ele><time>2026-05-01T07:55:51.001Z</time></trkpt><trkpt lat="45.571931097687404" lon="11.042255561494992"><ele>703.0</ele><time>2026-05-01T07:55:52.001Z</time></trkpt><trkpt lat="45.57193757988619" lon="11.042049629100912"><ele>703.0</ele><time>2026-05-01T07:55:53Z</time></trkpt><trkpt lat="45.57193637559474" lon="11.041842255401413"><ele>703.0</ele><time>2026-05-01T07:55:54Z</time></trkpt><trkpt lat="45.57194612237316" lon="11.041640527730523"><ele>703.0</ele><time>2026-05-01T07:55:55Z</time></trkpt><trkpt lat="45.57197101900121" lon="11.041440184860287"><ele>702.5</ele><time>2026-05-01T07:55:56Z</time></trkpt><trkpt lat="45.572024134708386" lon="11.041240983013228"><ele>702.0</ele><time>2026-05-01T07:55:57Z</time></trkpt><trkpt lat="45.572108674595" lon="11.04106450842268"><ele>701.5</ele><time>2026-05-01T07:55:58Z</time></trkpt><trkpt lat="45.57221236447568" lon="11.040911343679193"><ele>701.0</ele><time>2026-05-01T07:55:59Z</time></trkpt><trkpt lat="45.57231764984038" lon="11.040761570538287"><ele>700.3333333333333</ele><time>2026-05-01T07:56:00Z</time></trkpt><trkpt lat="45.572437184570795" lon="11.040625897791644"><ele>699.6666666666666</ele><time>2026-05-01T07:56:01Z</time></trkpt><trkpt lat="45.572558347815374" lon="11.040505506098839"><ele>699.0</ele><time>2026-05-01T07:56:02Z</time></trkpt><trkpt lat="45.57268073820903" lon="11.040378638357716"><ele>699.0</ele><time>2026-05-01T07:56:03Z</time></trkpt><trkpt lat="45.57278584575619" lon="11.04024889349652"><ele>699.0</ele><time>2026-05-01T07:56:04Z</time></trkpt><trkpt lat="45.57288408970597" lon="11.040109825003043"><ele>699.0</ele><time>2026-05-01T07:56:05Z</time></trkpt><trkpt lat="45.57297173102468" lon="11.039961269690046"><ele>699.0</ele><time>2026-05-01T07:56:06Z</time></trkpt><trkpt lat="45.57304839703127" lon="11.03978931282695"><ele>700.0</ele><time>2026-05-01T07:56:07Z</time></trkpt><trkpt lat="45.57310560707169" lon="11.039610283874904"><ele>701.0</ele><time>2026-05-01T07:56:08Z</time></trkpt><trkpt lat="45.57316583286924" lon="11.039432172732514"><ele>702.0</ele><time>2026-05-01T07:56:09Z</time></trkpt><trkpt lat="45.573223794952355" lon="11.039260316838341"><ele>703.0</ele><time>2026-05-01T07:56:10Z</time></trkpt><trkpt lat="45.573288487634926" lon="11.039094266780355"><ele>703.0</ele><time>2026-05-01T07:56:11Z</time></trkpt><trkpt lat="45.57337818361929" lon="11.038943619914878"><ele>703.0</ele><time>2026-05-01T07:56:12Z</time></trkpt><trkpt lat="45.57348444905867" lon="11.038810705023481"><ele>703.0</ele><time>2026-05-01T07:56:13Z</time></trkpt><trkpt lat="45.57360641108521" lon="11.0387302898907"><ele>703.0</ele><time>2026-05-01T07:56:14Z</time></trkpt><trkpt lat="45.57372979255649" lon="11.038659319354807"><ele>705.25</ele><time>2026-05-01T07:56:15Z</time></trkpt><trkpt lat="45.57385138189065" lon="11.038614792970948"><ele>707.5</ele><time>2026-05-01T07:56:16Z</time></trkpt><trkpt lat="45.573983549338735" lon="11.038606079571931"><ele>709.75</ele><time>2026-05-01T07:56:17Z</time></trkpt><trkpt lat="45.57411454748966" lon="11.03864437292896"><ele>712.0</ele><time>2026-05-01T07:56:18Z</time></trkpt><trkpt lat="45.574247071133435" lon="11.038713612706454"><ele>712.0</ele><time>2026-05-01T07:56:19Z</time></trkpt><trkpt lat="45.574363964559076" lon="11.038810397015975"><ele>712.0</ele><time>2026-05-01T07:56:20Z</time></trkpt><trkpt lat="45.57447295468015" lon="11.038926305211799"><ele>712.0</ele><time>2026-05-01T07:56:21Z</time></trkpt><trkpt lat="45.574558205678656" lon="11.039071104617056"><ele>712.0</ele><time>2026-05-01T07:56:22Z</time></trkpt><trkpt lat="45.574630199112185" lon="11.039241163491761"><ele>711.25</ele><time>2026-05-01T07:56:23Z</time></trkpt><trkpt lat="45.57469035631893" lon="11.0394114202944"><ele>710.5</ele><time>2026-05-01T07:56:24Z</time></trkpt><trkpt lat="45.57474373440527" lon="11.03957975331378"><ele>709.75</ele><time>2026-05-01T07:56:25Z</time></trkpt><trkpt lat="45.57479749800674" lon="11.039736029747479"><ele>709.0</ele><time>2026-05-01T07:56:26Z</time></trkpt><trkpt lat="45.57484425065585" lon="11.039875859643987"><ele>709.6666666666667</ele><time>2026-05-01T07:56:27Z</time></trkpt><trkpt lat="45.574887228913795" lon="11.039996338684857"><ele>710.3333333333334</ele><time>2026-05-01T07:56:28Z</time></trkpt><trkpt lat="45.57492363644614" lon="11.040109850019125"><ele>711.0</ele><time>2026-05-01T07:56:29Z</time></trkpt><trkpt lat="45.57495827751544" lon="11.040215725680444"><ele>711.6666666666666</ele><time>2026-05-01T07:56:30Z</time></trkpt><trkpt lat="45.5749978878523" lon="11.040324886649147"><ele>712.3333333333333</ele><time>2026-05-01T07:56:31Z</time></trkpt><trkpt lat="45.575043191837125" lon="11.040441883276651"><ele>713.0</ele><time>2026-05-01T07:56:32Z</time></trkpt><trkpt lat="45.57508207801939" lon="11.040558032759439"><ele>713.0</ele><time>2026-05-01T07:56:33Z</time></trkpt><trkpt lat="45.57511571566815" lon="11.040676797758353"><ele>713.0</ele><time>2026-05-01T07:56:34Z</time></trkpt><trkpt lat="45.57515503286787" lon="11.040794479633552"><ele>713.0</ele><time>2026-05-01T07:56:35Z</time></trkpt><trkpt lat="45.57518887039909" lon="11.040921827174843"><ele>713.0</ele><time>2026-05-01T07:56:36Z</time></trkpt><trkpt lat="45.57523866175971" lon="11.041053803998214"><ele>713.0</ele><time>2026-05-01T07:56:37Z</time></trkpt><trkpt lat="45.57528099625761" lon="11.041172255653429"><ele>713.5999999999999</ele><time>2026-05-01T07:56:38Z</time></trkpt><trkpt lat="45.57533534751184" lon="11.041278716227355"><ele>714.1999999999999</ele><time>2026-05-01T07:56:39Z</time></trkpt><trkpt lat="45.57540068735966" lon="11.04135783190538"><ele>714.8</ele><time>2026-05-01T07:56:40Z</time></trkpt><trkpt lat="45.57548315393" lon="11.041411927578293"><ele>715.4</ele><time>2026-05-01T07:56:41Z</time></trkpt><trkpt lat="45.57557631399526" lon="11.041441843849045"><ele>716.0</ele><time>2026-05-01T07:56:42Z</time></trkpt><trkpt lat="45.57567997144747" lon="11.041445179019355"><ele>716.0</ele><time>2026-05-01T07:56:43Z</time></trkpt><trkpt lat="45.57578694848394" lon="11.041427732817994"><ele>716.0</ele><time>2026-05-01T07:56:44Z</time></trkpt><trkpt lat="45.57589326538743" lon="11.041410577263143"><ele>716.0</ele><time>2026-05-01T07:56:45Z</time></trkpt><trkpt lat="45.57598007231915" lon="11.041396415802037"><ele>716.0</ele><time>2026-05-01T07:56:46Z</time></trkpt><trkpt lat="45.57605111144534" lon="11.04138751635649"><ele>716.0</ele><time>2026-05-01T07:56:47Z</time></trkpt><trkpt lat="45.57612609859665" lon="11.04137363985806"><ele>716.0</ele><time>2026-05-01T07:56:48Z</time></trkpt><trkpt lat="45.57622845716952" lon="11.041349565480466"><ele>716.5999999999999</ele><time>2026-05-01T07:56:50Z</time></trkpt><trkpt lat="45.57635356957608" lon="11.041328311649783"><ele>717.2</ele><time>2026-05-01T07:56:52Z</time></trkpt><trkpt lat="45.57643154084785" lon="11.041320240376232"><ele>717.8</ele><time>2026-05-01T07:56:53Z</time></trkpt><trkpt lat="45.576514080113036" lon="11.041308264879369"><ele>718.4000000000001</ele><time>2026-05-01T07:56:54Z</time></trkpt><trkpt lat="45.576604180108305" lon="11.041295486021"><ele>719.0</ele><time>2026-05-01T07:56:55Z</time></trkpt><trkpt lat="45.576699570791035" lon="11.04128832809065"><ele>719.0</ele><time>2026-05-01T07:56:56Z</time></trkpt><trkpt lat="45.57680240947532" lon="11.041278194468525"><ele>719.0</ele><time>2026-05-01T07:56:57Z</time></trkpt><trkpt lat="45.57690597056786" lon="11.041266189975827"><ele>719.0</ele><time>2026-05-01T07:56:58Z</time></trkpt><trkpt lat="45.577009053924584" lon="11.041287418689745"><ele>719.0</ele><time>2026-05-01T07:56:59Z</time></trkpt><trkpt lat="45.57712101998308" lon="11.04132532514066"><ele>719.0</ele><time>2026-05-01T07:57:00Z</time></trkpt><trkpt lat="45.577222909649315" lon="11.04139590394212"><ele>717.75</ele><time>2026-05-01T07:57:01Z</time></trkpt><trkpt lat="45.57731989076386" lon="11.041499659357708"><ele>716.5</ele><time>2026-05-01T07:57:02Z</time></trkpt><trkpt lat="45.577402601949316" lon="11.041620967951614"><ele>715.25</ele><time>2026-05-01T07:57:03Z</time></trkpt><trkpt lat="45.57746331879521" lon="11.041768241744526"><ele>714.0</ele><time>2026-05-01T07:57:04Z</time></trkpt><trkpt lat="45.57750372014857" lon="11.04194330144689"><ele>716.75</ele><time>2026-05-01T07:57:05Z</time></trkpt><trkpt lat="45.57754455026747" lon="11.042099448314001"><ele>719.5</ele><time>2026-05-01T07:57:06Z</time></trkpt><trkpt lat="45.577588819949625" lon="11.042264707728906"><ele>722.25</ele><time>2026-05-01T07:57:07Z</time></trkpt><trkpt lat="45.57763371331457" lon="11.042427395396958"><ele>725.0</ele><time>2026-05-01T07:57:08Z</time></trkpt><trkpt lat="45.57767350135534" lon="11.042592573096181"><ele>725.25</ele><time>2026-05-01T07:57:09Z</time></trkpt><trkpt lat="45.57771422284909" lon="11.04275467400022"><ele>725.5</ele><time>2026-05-01T07:57:10Z</time></trkpt><trkpt lat="45.57777792549119" lon="11.042900402351052"><ele>725.75</ele><time>2026-05-01T07:57:11Z</time></trkpt><trkpt lat="45.577858066936074" lon="11.043034860607806"><ele>726.0</ele><time>2026-05-01T07:57:12Z</time></trkpt><trkpt lat="45.57795429478328" lon="11.043157860031037"><ele>726.0</ele><time>2026-05-01T07:57:13Z</time></trkpt><trkpt lat="45.57806312738018" lon="11.043262587990926"><ele>726.0</ele><time>2026-05-01T07:57:14Z</time></trkpt><trkpt lat="45.57818412986026" lon="11.04334517666431"><ele>726.0</ele><time>2026-05-01T07:57:15Z</time></trkpt><trkpt lat="45.57831188039649" lon="11.043393163153763"><ele>726.0</ele><time>2026-05-01T07:57:16Z</time></trkpt><trkpt lat="45.57843663278772" lon="11.04340071519545"><ele>728.0</ele><time>2026-05-01T07:57:17Z</time></trkpt><trkpt lat="45.578564529974926" lon="11.043388172166361"><ele>730.0</ele><time>2026-05-01T07:57:18Z</time></trkpt><trkpt lat="45.578687320132" lon="11.043349031079446"><ele>732.0</ele><time>2026-05-01T07:57:19Z</time></trkpt><trkpt lat="45.57880531649723" lon="11.043285880152006"><ele>734.0</ele><time>2026-05-01T07:57:20Z</time></trkpt><trkpt lat="45.57891422291941" lon="11.043196201725507"><ele>734.25</ele><time>2026-05-01T07:57:21Z</time></trkpt><trkpt lat="45.57902279783212" lon="11.043102205313723"><ele>734.5</ele><time>2026-05-01T07:57:22Z</time></trkpt><trkpt lat="45.579133267708414" lon="11.04300054963974"><ele>734.75</ele><time>2026-05-01T07:57:23Z</time></trkpt><trkpt lat="45.579243501549975" lon="11.042890125654258"><ele>735.0</ele><time>2026-05-01T07:57:24Z</time></trkpt><trkpt lat="45.57936058733944" lon="11.042781747007217"><ele>735.0</ele><time>2026-05-01T07:57:25Z</time></trkpt><trkpt lat="45.57948179975263" lon="11.042670373109633"><ele>735.0</ele><time>2026-05-01T07:57:26Z</time></trkpt><trkpt lat="45.57960291569504" lon="11.042554113587366"><ele>735.0</ele><time>2026-05-01T07:57:27Z</time></trkpt><trkpt lat="45.57972553725147" lon="11.042444342321787"><ele>735.0</ele><time>2026-05-01T07:57:28Z</time></trkpt><trkpt lat="45.57984877500086" lon="11.042333149930457"><ele>736.5</ele><time>2026-05-01T07:57:29Z</time></trkpt><trkpt lat="45.57997285479964" lon="11.042217877473888"><ele>738.0</ele><time>2026-05-01T07:57:30Z</time></trkpt><trkpt lat="45.580098841795795" lon="11.042107825970987"><ele>739.5</ele><time>2026-05-01T07:57:31Z</time></trkpt><trkpt lat="45.58022319788713" lon="11.041995728459135"><ele>741.0</ele><time>2026-05-01T07:57:32Z</time></trkpt><trkpt lat="45.58034903557991" lon="11.041871674552397"><ele>741.3333333333334</ele><time>2026-05-01T07:57:33Z</time></trkpt><trkpt lat="45.58047179775094" lon="11.041748576861744"><ele>741.6666666666667</ele><time>2026-05-01T07:57:34Z</time></trkpt><trkpt lat="45.580608053935364" lon="11.04163184671811"><ele>742.0</ele><time>2026-05-01T07:57:35Z</time></trkpt><trkpt lat="45.580724720359605" lon="11.041517209523372"><ele>742.0</ele><time>2026-05-01T07:57:36Z</time></trkpt><trkpt lat="45.580838214504595" lon="11.04140909083771"><ele>742.0</ele><time>2026-05-01T07:57:37Z</time></trkpt><trkpt lat="45.58095046067965" lon="11.041310571289587"><ele>742.0</ele><time>2026-05-01T07:57:38Z</time></trkpt><trkpt lat="45.58106849172748" lon="11.04120454370201"><ele>742.0</ele><time>2026-05-01T07:57:39Z</time></trkpt><trkpt lat="45.581186657412104" lon="11.041093847133135"><ele>743.25</ele><time>2026-05-01T07:57:40Z</time></trkpt><trkpt lat="45.581302461194284" lon="11.040984368369536"><ele>744.5</ele><time>2026-05-01T07:57:41Z</time></trkpt><trkpt lat="45.581419342481254" lon="11.040874999136188"><ele>745.75</ele><time>2026-05-01T07:57:42Z</time></trkpt><trkpt lat="45.581534928481815" lon="11.04077166219984"><ele>747.0</ele><time>2026-05-01T07:57:43Z</time></trkpt><trkpt lat="45.5816501084736" lon="11.040668454390323"><ele>747.25</ele><time>2026-05-01T07:57:44Z</time></trkpt><trkpt lat="45.58175757807129" lon="11.040568067268747"><ele>747.5</ele><time>2026-05-01T07:57:45Z</time></trkpt><trkpt lat="45.58185607340201" lon="11.040478861298737"><ele>747.75</ele><time>2026-05-01T07:57:46Z</time></trkpt><trkpt lat="45.58195654673543" lon="11.040384120298983"><ele>748.0</ele><time>2026-05-01T07:57:47Z</time></trkpt><trkpt lat="45.5820669725547" lon="11.040284615529323"><ele>749.0</ele><time>2026-05-01T07:57:48Z</time></trkpt><trkpt lat="45.582185885932525" lon="11.040182396064752"><ele>750.0</ele><time>2026-05-01T07:57:49Z</time></trkpt><trkpt lat="45.582305646199806" lon="11.04006343479797"><ele>751.0</ele><time>2026-05-01T07:57:50Z</time></trkpt><trkpt lat="45.582446279335464" lon="11.039921493464437"><ele>752.0</ele><time>2026-05-01T07:57:51Z</time></trkpt><trkpt lat="45.58260996347752" lon="11.039762403105895"><ele>753.0</ele><time>2026-05-01T07:57:52Z</time></trkpt><trkpt lat="45.58277069534381" lon="11.039618198270809"><ele>754.0</ele><time>2026-05-01T07:57:53Z</time></trkpt><trkpt lat="45.582911814998205" lon="11.039478746769491"><ele>754.0</ele><time>2026-05-01T07:57:54Z</time></trkpt><trkpt lat="45.58306242892568" lon="11.03936634699923"><ele>754.0</ele><time>2026-05-01T07:57:55Z</time></trkpt><trkpt lat="45.5832294331437" lon="11.039240132961917"><ele>754.0</ele><time>2026-05-01T07:57:56Z</time></trkpt><trkpt lat="45.58340835887091" lon="11.039127772763532"><ele>753.6666666666667</ele><time>2026-05-01T07:57:57Z</time></trkpt><trkpt lat="45.58358627831178" lon="11.039036838195674"><ele>753.3333333333334</ele><time>2026-05-01T07:57:58Z</time></trkpt><trkpt lat="45.58375004908294" lon="11.038959605277363"><ele>753.0</ele><time>2026-05-01T07:57:59Z</time></trkpt><trkpt lat="45.5839027734054" lon="11.038908627730441"><ele>752.5</ele><time>2026-05-01T07:58:00Z</time></trkpt><trkpt lat="45.584051054264734" lon="11.038864539728149"><ele>752.0</ele><time>2026-05-01T07:58:01Z</time></trkpt><trkpt lat="45.58419960446527" lon="11.038828043818526"><ele>751.5</ele><time>2026-05-01T07:58:02Z</time></trkpt><trkpt lat="45.58434445133311" lon="11.038797046377839"><ele>751.0</ele><time>2026-05-01T07:58:03Z</time></trkpt><trkpt lat="45.5844919908487" lon="11.038761723426667"><ele>753.0</ele><time>2026-05-01T07:58:04Z</time></trkpt><trkpt lat="45.58464004097938" lon="11.03872236658034"><ele>755.0</ele><time>2026-05-01T07:58:05Z</time></trkpt><trkpt lat="45.58478172426661" lon="11.03868683343352"><ele>757.0</ele><time>2026-05-01T07:58:06Z</time></trkpt><trkpt lat="45.58492045227029" lon="11.038644694706132"><ele>759.0</ele><time>2026-05-01T07:58:07Z</time></trkpt><trkpt lat="45.58506548696992" lon="11.038594658910844"><ele>759.0</ele><time>2026-05-01T07:58:08Z</time></trkpt><trkpt lat="45.58520711985607" lon="11.038528801983174"><ele>759.0</ele><time>2026-05-01T07:58:09Z</time></trkpt><trkpt lat="45.585333924721006" lon="11.038439944733307"><ele>759.0</ele><time>2026-05-01T07:58:10Z</time></trkpt><trkpt lat="45.585446541480465" lon="11.038308892921266"><ele>759.0</ele><time>2026-05-01T07:58:11Z</time></trkpt><trkpt lat="45.58554606764981" lon="11.038151200550793"><ele>762.25</ele><time>2026-05-01T07:58:12Z</time></trkpt><trkpt lat="45.585623097921136" lon="11.037970914628907"><ele>765.5</ele><time>2026-05-01T07:58:13Z</time></trkpt><trkpt lat="45.58568701863183" lon="11.037773296371535"><ele>768.75</ele><time>2026-05-01T07:58:14Z</time></trkpt><trkpt lat="45.58572262467851" lon="11.037567563780492"><ele>772.0</ele><time>2026-05-01T07:58:15Z</time></trkpt><trkpt lat="45.58573169406868" lon="11.037352835136494"><ele>773.0</ele><time>2026-05-01T07:58:16Z</time></trkpt><trkpt lat="45.58571571275175" lon="11.03714008953714"><ele>774.0</ele><time>2026-05-01T07:58:17Z</time></trkpt><trkpt lat="45.58567915672264" lon="11.036930496348797"><ele>775.0</ele><time>2026-05-01T07:58:18Z</time></trkpt><trkpt lat="45.585638119517036" lon="11.036745986485792"><ele>776.0</ele><time>2026-05-01T07:58:19Z</time></trkpt><trkpt lat="45.58558352284961" lon="11.036572177852538"><ele>776.5</ele><time>2026-05-01T07:58:20Z</time></trkpt><trkpt lat="45.58552458446769" lon="11.036392000886572"><ele>777.0</ele><time>2026-05-01T07:58:21Z</time></trkpt><trkpt lat="45.585490197803836" lon="11.036190930845303"><ele>777.5</ele><time>2026-05-01T07:58:22Z</time></trkpt><trkpt lat="45.58544386973271" lon="11.035998962903218"><ele>778.0</ele><time>2026-05-01T07:58:23Z</time></trkpt><trkpt lat="45.585437478003925" lon="11.035782079237725"><ele>776.75</ele><time>2026-05-01T07:58:24Z</time></trkpt><trkpt lat="45.58545372956823" lon="11.035568342320378"><ele>775.5</ele><time>2026-05-01T07:58:25Z</time></trkpt><trkpt lat="45.58549189197721" lon="11.035367474113976"><ele>774.25</ele><time>2026-05-01T07:58:26Z</time></trkpt><trkpt lat="45.58554924978107" lon="11.035178526254642"><ele>773.0</ele><time>2026-05-01T07:58:27Z</time></trkpt><trkpt lat="45.58561328170691" lon="11.034994711247705"><ele>768.75</ele><time>2026-05-01T07:58:28Z</time></trkpt><trkpt lat="45.585704887386" lon="11.034844654370502"><ele>764.5</ele><time>2026-05-01T07:58:29Z</time></trkpt><trkpt lat="45.5858054643849" lon="11.034709790194873"><ele>760.25</ele><time>2026-05-01T07:58:30Z</time></trkpt><trkpt lat="45.5859192956704" lon="11.034599964393799"><ele>756.0</ele><time>2026-05-01T07:58:31Z</time></trkpt><trkpt lat="45.58604594239531" lon="11.034490520224434"><ele>756.0</ele><time>2026-05-01T07:58:32Z</time></trkpt><trkpt lat="45.586175640034604" lon="11.034414242415503"><ele>756.0</ele><time>2026-05-01T07:58:33Z</time></trkpt><trkpt lat="45.586298368169366" lon="11.03436425547106"><ele>756.0</ele><time>2026-05-01T07:58:34Z</time></trkpt><trkpt lat="45.586424403364745" lon="11.034342810961045"><ele>756.0</ele><time>2026-05-01T07:58:35Z</time></trkpt><trkpt lat="45.586551725274774" lon="11.034345669788413"><ele>758.25</ele><time>2026-05-01T07:58:36Z</time></trkpt><trkpt lat="45.58668162962884" lon="11.034368563261964"><ele>760.5</ele><time>2026-05-01T07:58:37Z</time></trkpt><trkpt lat="45.58681467200226" lon="11.03441426522938"><ele>762.75</ele><time>2026-05-01T07:58:38Z</time></trkpt><trkpt lat="45.58693727419171" lon="11.034482713026055"><ele>765.0</ele><time>2026-05-01T07:58:39Z</time></trkpt><trkpt lat="45.587052664612564" lon="11.034570511015938"><ele>765.0</ele><time>2026-05-01T07:58:40Z</time></trkpt><trkpt lat="45.587159024572756" lon="11.034666435960876"><ele>765.0</ele><time>2026-05-01T07:58:41Z</time></trkpt><trkpt lat="45.58726806326351" lon="11.034750018861674"><ele>765.0</ele><time>2026-05-01T07:58:42Z</time></trkpt><trkpt lat="45.58738881474507" lon="11.0348200097122"><ele>765.0</ele><time>2026-05-01T07:58:43Z</time></trkpt><trkpt lat="45.58751482762887" lon="11.034852000215134"><ele>765.0</ele><time>2026-05-01T07:58:44Z</time></trkpt><trkpt lat="45.587647360352236" lon="11.034843838389028"><ele>765.0</ele><time>2026-05-01T07:58:45Z</time></trkpt><trkpt lat="45.58777494988022" lon="11.034805339596916"><ele>765.0</ele><time>2026-05-01T07:58:46Z</time></trkpt><trkpt lat="45.58789514119877" lon="11.034745705175744"><ele>765.0</ele><time>2026-05-01T07:58:47Z</time></trkpt><trkpt lat="45.58800094602095" lon="11.03466368416109"><ele>768.0</ele><time>2026-05-01T07:58:48Z</time></trkpt><trkpt lat="45.58810282883177" lon="11.034565475889835"><ele>771.0</ele><time>2026-05-01T07:58:49Z</time></trkpt><trkpt lat="45.58820248248006" lon="11.034468348883042"><ele>774.0</ele><time>2026-05-01T07:58:50Z</time></trkpt><trkpt lat="45.58830714416303" lon="11.034381316306176"><ele>777.0</ele><time>2026-05-01T07:58:51Z</time></trkpt><trkpt lat="45.58841872524467" lon="11.034318591431424"><ele>777.0</ele><time>2026-05-01T07:58:52Z</time></trkpt><trkpt lat="45.58853687634376" lon="11.034274157409108"><ele>777.0</ele><time>2026-05-01T07:58:53Z</time></trkpt><trkpt lat="45.58866224525063" lon="11.034280744909696"><ele>777.0</ele><time>2026-05-01T07:58:54Z</time></trkpt><trkpt lat="45.58878670603134" lon="11.034308291698753"><ele>777.0</ele><time>2026-05-01T07:58:55Z</time></trkpt><trkpt lat="45.588905449502185" lon="11.034374717391652"><ele>776.5</ele><time>2026-05-01T07:58:56Z</time></trkpt><trkpt lat="45.58901384035875" lon="11.034452393364553"><ele>776.0</ele><time>2026-05-01T07:58:57Z</time></trkpt><trkpt lat="45.58911790862415" lon="11.03455759439874"><ele>775.5</ele><time>2026-05-01T07:58:58Z</time></trkpt><trkpt lat="45.58922059094292" lon="11.034679954518976"><ele>775.0</ele><time>2026-05-01T07:58:59Z</time></trkpt><trkpt lat="45.58932337379362" lon="11.034799244258732"><ele>775.0</ele><time>2026-05-01T07:59:00Z</time></trkpt><trkpt lat="45.589427428816876" lon="11.034917374663864"><ele>775.0</ele><time>2026-05-01T07:59:01Z</time></trkpt><trkpt lat="45.589529299465994" lon="11.035033618086604"><ele>775.0</ele><time>2026-05-01T07:59:02Z</time></trkpt><trkpt lat="45.58963410255523" lon="11.035142257696215"><ele>775.0</ele><time>2026-05-01T07:59:03Z</time></trkpt><trkpt lat="45.5897489502898" lon="11.035222865685034"><ele>775.8</ele><time>2026-05-01T07:59:04Z</time></trkpt><trkpt lat="45.58986167365846" lon="11.035255017729005"><ele>776.6</ele><time>2026-05-01T07:59:05Z</time></trkpt><trkpt lat="45.589965614545406" lon="11.035254482078361"><ele>777.4000000000001</ele><time>2026-05-01T07:59:06Z</time></trkpt><trkpt lat="45.5900655900712" lon="11.035205647246297"><ele>778.2</ele><time>2026-05-01T07:59:07Z</time></trkpt><trkpt lat="45.59016427456514" lon="11.035136591255728"><ele>779.0</ele><time>2026-05-01T07:59:08Z</time></trkpt><trkpt lat="45.590253102901414" lon="11.03504768003519"><ele>779.2</ele><time>2026-05-01T07:59:09Z</time></trkpt><trkpt lat="45.59032979440743" lon="11.034941604867264"><ele>779.4000000000001</ele><time>2026-05-01T07:59:10Z</time></trkpt><trkpt lat="45.5904022025028" lon="11.034826384550326"><ele>779.6</ele><time>2026-05-01T07:59:11Z</time></trkpt><trkpt lat="45.590462972236935" lon="11.034703726424592"><ele>779.8</ele><time>2026-05-01T07:59:12Z</time></trkpt><trkpt lat="45.59052771258799" lon="11.034587984183329"><ele>780.0</ele><time>2026-05-01T07:59:13Z</time></trkpt><trkpt lat="45.59061483273034" lon="11.0344826359077"><ele>780.0</ele><time>2026-05-01T07:59:14Z</time></trkpt><trkpt lat="45.590723980596096" lon="11.034395525654881"><ele>780.0</ele><time>2026-05-01T07:59:15Z</time></trkpt><trkpt lat="45.5908426684008" lon="11.034336884436831"><ele>780.0</ele><time>2026-05-01T07:59:16Z</time></trkpt><trkpt lat="45.59096727916363" lon="11.03430470811696"><ele>780.0</ele><time>2026-05-01T07:59:17Z</time></trkpt><trkpt lat="45.591087283860055" lon="11.034303563833214"><ele>781.0</ele><time>2026-05-01T07:59:18Z</time></trkpt><trkpt lat="45.59121041010791" lon="11.034306144656"><ele>782.0</ele><time>2026-05-01T07:59:19Z</time></trkpt><trkpt lat="45.59133256792367" lon="11.034298886782032"><ele>783.0</ele><time>2026-05-01T07:59:20Z</time></trkpt><trkpt lat="45.59146574279663" lon="11.034289066801325"><ele>784.0</ele><time>2026-05-01T07:59:21Z</time></trkpt><trkpt lat="45.59161768711047" lon="11.034279281548605"><ele>784.0</ele><time>2026-05-01T07:59:22Z</time></trkpt><trkpt lat="45.591789992727" lon="11.034263757947462"><ele>784.0</ele><time>2026-05-01T07:59:23Z</time></trkpt><trkpt lat="45.591980960414816" lon="11.034250424029285"><ele>784.0</ele><time>2026-05-01T07:59:24Z</time></trkpt><trkpt lat="45.592184463268566" lon="11.034241379322884"><ele>783.3333333333333</ele><time>2026-05-01T07:59:25Z</time></trkpt><trkpt lat="45.5923992113997" lon="11.034239921933263"><ele>782.6666666666667</ele><time>2026-05-01T07:59:26Z</time></trkpt><trkpt lat="45.592611801436796" lon="11.034240008313601"><ele>782.0</ele><time>2026-05-01T07:59:27Z</time></trkpt><trkpt lat="45.59281271506235" lon="11.034227279141927"><ele>782.0</ele><time>2026-05-01T07:59:28Z</time></trkpt><trkpt lat="45.592998436893176" lon="11.034222746550588"><ele>782.0</ele><time>2026-05-01T07:59:29Z</time></trkpt><trkpt lat="45.59317820787532" lon="11.03423564559647"><ele>782.0</ele><time>2026-05-01T07:59:30Z</time></trkpt><trkpt lat="45.593354146131695" lon="11.034274808004456"><ele>782.0</ele><time>2026-05-01T07:59:31Z</time></trkpt><trkpt lat="45.593530463754114" lon="11.034338657290895"><ele>782.0</ele><time>2026-05-01T07:59:32Z</time></trkpt><trkpt lat="45.59370964356096" lon="11.03441222079992"><ele>782.0</ele><time>2026-05-01T07:59:33Z</time></trkpt><trkpt lat="45.59387838819756" lon="11.03448655046912"><ele>780.3333333333334</ele><time>2026-05-01T07:59:34Z</time></trkpt><trkpt lat="45.594043867056264" lon="11.034565542401335"><ele>778.6666666666667</ele><time>2026-05-01T07:59:35Z</time></trkpt><trkpt lat="45.59420795763746" lon="11.034648603618274"><ele>777.0</ele><time>2026-05-01T07:59:36Z</time></trkpt><trkpt lat="45.594374625128005" lon="11.03474356775162"><ele>777.0</ele><time>2026-05-01T07:59:37Z</time></trkpt><trkpt lat="45.594531700491935" lon="11.034847505821988"><ele>777.0</ele><time>2026-05-01T07:59:38Z</time></trkpt><trkpt lat="45.59468445846382" lon="11.034965718490087"><ele>777.0</ele><time>2026-05-01T07:59:39Z</time></trkpt><trkpt lat="45.5948309873006" lon="11.035093825078924"><ele>781.0</ele><time>2026-05-01T07:59:40Z</time></trkpt><trkpt lat="45.59497611709293" lon="11.035222818046757"><ele>785.0</ele><time>2026-05-01T07:59:41Z</time></trkpt><trkpt lat="45.59512014463479" lon="11.03535354221503"><ele>789.0</ele><time>2026-05-01T07:59:42Z</time></trkpt><trkpt lat="45.595268512858965" lon="11.035484165019563"><ele>791.6666666666667</ele><time>2026-05-01T07:59:43Z</time></trkpt><trkpt lat="45.59541759630195" lon="11.035613646362947"><ele>794.3333333333334</ele><time>2026-05-01T07:59:44Z</time></trkpt><trkpt lat="45.595567960887706" lon="11.035740125456991"><ele>797.0</ele><time>2026-05-01T07:59:45Z</time></trkpt><trkpt lat="45.595722305846536" lon="11.035886076296062"><ele>798.3333333333334</ele><time>2026-05-01T07:59:46Z</time></trkpt><trkpt lat="45.595873246515175" lon="11.036005304877493"><ele>799.6666666666667</ele><time>2026-05-01T07:59:47Z</time></trkpt><trkpt lat="45.596040233092225" lon="11.036139868253505"><ele>801.0</ele><time>2026-05-01T07:59:48Z</time></trkpt><trkpt lat="45.59621159232996" lon="11.03626530408513"><ele>805.6666666666667</ele><time>2026-05-01T07:59:49Z</time></trkpt><trkpt lat="45.5963930328632" lon="11.036365398252356"><ele>810.3333333333334</ele><time>2026-05-01T07:59:50Z</time></trkpt><trkpt lat="45.59657746198051" lon="11.036450022588955"><ele>815.0</ele><time>2026-05-01T07:59:51Z</time></trkpt><trkpt lat="45.596755522500644" lon="11.03652532167135"><ele>815.0</ele><time>2026-05-01T07:59:52Z</time></trkpt><trkpt lat="45.59692926360111" lon="11.03657523188357"><ele>815.0</ele><time>2026-05-01T07:59:53Z</time></trkpt><trkpt lat="45.59709390147353" lon="11.036616782706943"><ele>815.0</ele><time>2026-05-01T07:59:54Z</time></trkpt><trkpt lat="45.5972570872349" lon="11.03663825441447"><ele>815.0</ele><time>2026-05-01T07:59:55Z</time></trkpt><trkpt lat="45.59742135398566" lon="11.03665545380455"><ele>815.0</ele><time>2026-05-01T07:59:56Z</time></trkpt><trkpt lat="45.597579889305436" lon="11.036666217558741"><ele>815.0</ele><time>2026-05-01T07:59:57Z</time></trkpt><trkpt lat="45.5977447818614" lon="11.036657531048846"><ele>816.0</ele><time>2026-05-01T07:59:58Z</time></trkpt><trkpt lat="45.597904190892336" lon="11.036654707476714"><ele>817.0</ele><time>2026-05-01T07:59:59Z</time></trkpt><trkpt lat="45.5980691953305" lon="11.036636464456766"><ele>818.0</ele><time>2026-05-01T08:00:00Z</time></trkpt><trkpt lat="45.5982399353265" lon="11.036609447698396"><ele>822.3333333333334</ele><time>2026-05-01T08:00:01Z</time></trkpt><trkpt lat="45.59843657759935" lon="11.036565633759261"><ele>826.6666666666667</ele><time>2026-05-01T08:00:02Z</time></trkpt><trkpt lat="45.598654399077624" lon="11.036539622580012"><ele>831.0</ele><time>2026-05-01T08:00:03Z</time></trkpt><trkpt lat="45.59887231036591" lon="11.036511844714777"><ele>834.0</ele><time>2026-05-01T08:00:04Z</time></trkpt><trkpt lat="45.59909935465124" lon="11.036487080527767"><ele>837.0</ele><time>2026-05-01T08:00:05Z</time></trkpt><trkpt lat="45.599298714128935" lon="11.036471810719219"><ele>840.0</ele><time>2026-05-01T08:00:06Z</time></trkpt><trkpt lat="45.599477884515665" lon="11.036434929362352"><ele>839.3333333333333</ele><time>2026-05-01T08:00:07Z</time></trkpt><trkpt lat="45.599650383291866" lon="11.036406588484205"><ele>838.6666666666666</ele><time>2026-05-01T08:00:08Z</time></trkpt><trkpt lat="45.599819157435284" lon="11.036383198530546"><ele>838.0</ele><time>2026-05-01T08:00:09Z</time></trkpt><trkpt lat="45.59998346240324" lon="11.036335297854043"><ele>838.0</ele><time>2026-05-01T08:00:10Z</time></trkpt><trkpt lat="45.60013865990355" lon="11.036248416391093"><ele>838.0</ele><time>2026-05-01T08:00:11Z</time></trkpt><trkpt lat="45.60027357567503" lon="11.036146558995478"><ele>838.0</ele><time>2026-05-01T08:00:12Z</time></trkpt><trkpt lat="45.600390803865885" lon="11.036039664903273"><ele>837.0</ele><time>2026-05-01T08:00:13Z</time></trkpt><trkpt lat="45.600506286057666" lon="11.035911065847927"><ele>836.0</ele><time>2026-05-01T08:00:14Z</time></trkpt><trkpt lat="45.60060382177621" lon="11.03575669377406"><ele>835.0</ele><time>2026-05-01T08:00:15Z</time></trkpt><trkpt lat="45.60069413930525" lon="11.035596275036758"><ele>834.0</ele><time>2026-05-01T08:00:16Z</time></trkpt><trkpt lat="45.600770677967006" lon="11.03544259524071"><ele>834.0</ele><time>2026-05-01T08:00:17Z</time></trkpt><trkpt lat="45.600835140689526" lon="11.035282265855203"><ele>834.0</ele><time>2026-05-01T08:00:18Z</time></trkpt><trkpt lat="45.600888746551014" lon="11.035116605840027"><ele>834.0</ele><time>2026-05-01T08:00:19Z</time></trkpt><trkpt lat="45.60093068272606" lon="11.034937816047734"><ele>834.0</ele><time>2026-05-01T08:00:20Z</time></trkpt><trkpt lat="45.60097169740845" lon="11.03474338402861"><ele>836.6666666666667</ele><time>2026-05-01T08:00:21Z</time></trkpt><trkpt lat="45.60099707040849" lon="11.034536186784386"><ele>839.3333333333334</ele><time>2026-05-01T08:00:22Z</time></trkpt><trkpt lat="45.601005588481094" lon="11.034318870975692"><ele>842.0</ele><time>2026-05-01T08:00:23Z</time></trkpt><trkpt lat="45.60098280305179" lon="11.034062710143134"><ele>842.3333333333334</ele><time>2026-05-01T08:00:24Z</time></trkpt><trkpt lat="45.600952665818326" lon="11.033759956238834"><ele>842.6666666666667</ele><time>2026-05-01T08:00:25Z</time></trkpt><trkpt lat="45.60091509828176" lon="11.03343601451014"><ele>843.0</ele><time>2026-05-01T08:00:26Z</time></trkpt><trkpt lat="45.6008860584013" lon="11.033092978577438"><ele>843.0</ele><time>2026-05-01T08:00:27Z</time></trkpt><trkpt lat="45.60083471979858" lon="11.032741377080702"><ele>843.0</ele><time>2026-05-01T08:00:28Z</time></trkpt><trkpt lat="45.60079706862004" lon="11.032385471850818"><ele>843.3333333333333</ele><time>2026-05-01T08:00:29Z</time></trkpt><trkpt lat="45.600753153890814" lon="11.032076277710376"><ele>843.6666666666666</ele><time>2026-05-01T08:00:30Z</time></trkpt><trkpt lat="45.60070744176544" lon="11.031790400314978"><ele>844.0</ele><time>2026-05-01T08:00:31Z</time></trkpt><trkpt lat="45.600676235489956" lon="11.03153629130241"><ele>845.6666666666666</ele><time>2026-05-01T08:00:32Z</time></trkpt><trkpt lat="45.600690994724204" lon="11.031300736501665"><ele>847.3333333333333</ele><time>2026-05-01T08:00:33Z</time></trkpt><trkpt lat="45.600700786791705" lon="11.031066138134094"><ele>849.0</ele><time>2026-05-01T08:00:34Z</time></trkpt><trkpt lat="45.600752139987776" lon="11.030836862651267"><ele>849.25</ele><time>2026-05-01T08:00:35Z</time></trkpt><trkpt lat="45.60081618210732" lon="11.030638608909834"><ele>849.5</ele><time>2026-05-01T08:00:36Z</time></trkpt><trkpt lat="45.60089246368246" lon="11.030467017026623"><ele>849.75</ele><time>2026-05-01T08:00:37Z</time></trkpt><trkpt lat="45.60097949393673" lon="11.030298467668853"><ele>850.0</ele><time>2026-05-01T08:00:38Z</time></trkpt><trkpt lat="45.601075759378816" lon="11.030149026171665"><ele>850.3333333333333</ele><time>2026-05-01T08:00:39Z</time></trkpt><trkpt lat="45.60118543888916" lon="11.03001099030723"><ele>850.6666666666667</ele><time>2026-05-01T08:00:40Z</time></trkpt><trkpt lat="45.60130654717495" lon="11.029884682795736"><ele>851.0</ele><time>2026-05-01T08:00:41Z</time></trkpt><trkpt lat="45.60144124432688" lon="11.02977216388153"><ele>851.0</ele><time>2026-05-01T08:00:42Z</time></trkpt><trkpt lat="45.601587592165906" lon="11.02967713115787"><ele>851.0</ele><time>2026-05-01T08:00:43Z</time></trkpt><trkpt lat="45.60173998220616" lon="11.029584803550913"><ele>851.0</ele><time>2026-05-01T08:00:44Z</time></trkpt><trkpt lat="45.60189524430203" lon="11.029488303313672"><ele>854.3333333333334</ele><time>2026-05-01T08:00:45Z</time></trkpt><trkpt lat="45.6020438128353" lon="11.029383444546456"><ele>857.6666666666667</ele><time>2026-05-01T08:00:46Z</time></trkpt><trkpt lat="45.60220193022631" lon="11.029267263185526"><ele>861.0</ele><time>2026-05-01T08:00:47Z</time></trkpt><trkpt lat="45.60237571871476" lon="11.029127186751642"><ele>862.6666666666667</ele><time>2026-05-01T08:00:48Z</time></trkpt><trkpt lat="45.60257246950153" lon="11.029001903601284"><ele>864.3333333333334</ele><time>2026-05-01T08:00:49Z</time></trkpt><trkpt lat="45.60277974981113" lon="11.028875690988233"><ele>866.0</ele><time>2026-05-01T08:00:50Z</time></trkpt><trkpt lat="45.60299219076615" lon="11.028744043060664"><ele>868.0</ele><time>2026-05-01T08:00:51Z</time></trkpt><trkpt lat="45.60319381681856" lon="11.028608247848979"><ele>870.0</ele><time>2026-05-01T08:00:52Z</time></trkpt><trkpt lat="45.60339316830423" lon="11.028485449889171"><ele>872.0</ele><time>2026-05-01T08:00:53Z</time></trkpt><trkpt lat="45.60359532810407" lon="11.028373294322042"><ele>883.5</ele><time>2026-05-01T08:00:54Z</time></trkpt><trkpt lat="45.60381423238793" lon="11.028289048588782"><ele>895.0</ele><time>2026-05-01T08:00:55Z</time></trkpt><trkpt lat="45.60403861699782" lon="11.028214603815604"><ele>895.0</ele><time>2026-05-01T08:00:56Z</time></trkpt><trkpt lat="45.60426421171255" lon="11.028150080928807"><ele>895.0</ele><time>2026-05-01T08:00:57Z</time></trkpt><trkpt lat="45.60448853524831" lon="11.028093436169327"><ele>897.6666666666666</ele><time>2026-05-01T08:00:58Z</time></trkpt><trkpt lat="45.604697407825746" lon="11.028045978030182"><ele>900.3333333333333</ele><time>2026-05-01T08:00:59Z</time></trkpt><trkpt lat="45.604892381978566" lon="11.02801551058041"><ele>903.0</ele><time>2026-05-01T08:01:00Z</time></trkpt><trkpt lat="45.60509990227906" lon="11.02802347021085"><ele>903.0</ele><time>2026-05-01T08:01:01Z</time></trkpt><trkpt lat="45.605319548998345" lon="11.028094066736967"><ele>903.0</ele><time>2026-05-01T08:01:02Z</time></trkpt><trkpt lat="45.6055429533371" lon="11.028191886659263"><ele>899.0</ele><time>2026-05-01T08:01:03Z</time></trkpt><trkpt lat="45.605774080155996" lon="11.028290225119044"><ele>895.0</ele><time>2026-05-01T08:01:04Z</time></trkpt><trkpt lat="45.60600680043722" lon="11.028386334353849"><ele>905.5</ele><time>2026-05-01T08:01:05Z</time></trkpt><trkpt lat="45.606243440784624" lon="11.02847654631327"><ele>916.0</ele><time>2026-05-01T08:01:06Z</time></trkpt><trkpt lat="45.60649123970519" lon="11.028560293007079"><ele>916.0</ele><time>2026-05-01T08:01:07Z</time></trkpt><trkpt lat="45.60672808861928" lon="11.028650436734846"><ele>916.0</ele><time>2026-05-01T08:01:08Z</time></trkpt><trkpt lat="45.60696588351911" lon="11.028742782029765"><ele>924.5</ele><time>2026-05-01T08:01:09Z</time></trkpt><trkpt lat="45.60720059746968" lon="11.028834961139314"><ele>933.0</ele><time>2026-05-01T08:01:10Z</time></trkpt><trkpt lat="45.60742858328934" lon="11.02894645507613"><ele>933.0</ele><time>2026-05-01T08:01:11Z</time></trkpt><trkpt lat="45.60765105744356" lon="11.029091773048442"><ele>933.0</ele><time>2026-05-01T08:01:12Z</time></trkpt><trkpt lat="45.60786934502744" lon="11.029263329821676"><ele>933.5</ele><time>2026-05-01T08:01:13Z</time></trkpt><trkpt lat="45.608077544705566" lon="11.029444805323232"><ele>934.0</ele><time>2026-05-01T08:01:14Z</time></trkpt><trkpt lat="45.608279455068036" lon="11.029629286177197"><ele>934.0</ele><time>2026-05-01T08:01:15Z</time></trkpt><trkpt lat="45.60847171471608" lon="11.029835150873929"><ele>934.0</ele><time>2026-05-01T08:01:16Z</time></trkpt><trkpt lat="45.60865227067253" lon="11.030048617593383"><ele>934.0</ele><time>2026-05-01T08:01:17Z</time></trkpt><trkpt lat="45.6088390777399" lon="11.030245461196934"><ele>934.0</ele><time>2026-05-01T08:01:18Z</time></trkpt><trkpt lat="45.609032787732474" lon="11.030415961039914"><ele>934.0</ele><time>2026-05-01T08:01:19Z</time></trkpt><trkpt lat="45.60922192820421" lon="11.030575280665376"><ele>934.0</ele><time>2026-05-01T08:01:20Z</time></trkpt><trkpt lat="45.60941196866973" lon="11.03072712207669"><ele>934.0</ele><time>2026-05-01T08:01:21Z</time></trkpt><trkpt lat="45.609601882057085" lon="11.03088034322194"><ele>934.0</ele><time>2026-05-01T08:01:22Z</time></trkpt><trkpt lat="45.609780976115744" lon="11.031014247696781"><ele>934.0</ele><time>2026-05-01T08:01:23Z</time></trkpt><trkpt lat="45.60994266904314" lon="11.031124616774385"><ele>934.0</ele><time>2026-05-01T08:01:24Z</time></trkpt><trkpt lat="45.61007407234953" lon="11.031223992051627"><ele>934.0</ele><time>2026-05-01T08:01:25Z</time></trkpt><trkpt lat="45.6101799823744" lon="11.031319668284429"><ele>934.0000000000001</ele><time>2026-05-01T08:01:26Z</time></trkpt><trkpt lat="45.61026377464906" lon="11.03139564628949"><ele>934.0000000000001</ele><time>2026-05-01T08:01:27Z</time></trkpt><trkpt lat="45.610339515754404" lon="11.031439206544901"><ele>934.0</ele><time>2026-05-01T08:01:28Z</time></trkpt><trkpt lat="45.610404213080514" lon="11.031389030475456"><ele>934.0</ele><time>2026-05-01T08:01:29Z</time></trkpt><trkpt lat="45.61043837558642" lon="11.031288755741786"><ele>934.0</ele><time>2026-05-01T08:01:30Z</time></trkpt><trkpt lat="45.61040340618721" lon="11.031153921274509"><ele>934.0</ele><time>2026-05-01T08:01:31Z</time></trkpt><trkpt lat="45.610321900856434" lon="11.031056134791653"><ele>934.0</ele><time>2026-05-01T08:01:32Z</time></trkpt><trkpt lat="45.61021035642678" lon="11.030968450743694"><ele>934.0</ele><time>2026-05-01T08:01:33Z</time></trkpt><trkpt lat="45.610083838194285" lon="11.03084948726669"><ele>942.6666666666666</ele><time>2026-05-01T08:01:34Z</time></trkpt><trkpt lat="45.609949096077436" lon="11.030685532578984"><ele>951.3333333333333</ele><time>2026-05-01T08:01:35Z</time></trkpt><trkpt lat="45.6097857141201" lon="11.030519811100723"><ele>960.0</ele><time>2026-05-01T08:01:36Z</time></trkpt><trkpt lat="45.60962359420578" lon="11.030290362036403"><ele>959.3333333333333</ele><time>2026-05-01T08:01:37Z</time></trkpt><trkpt lat="45.60944920580777" lon="11.030094463234006"><ele>958.6666666666666</ele><time>2026-05-01T08:01:38Z</time></trkpt><trkpt lat="45.60929961981232" lon="11.029887754535892"><ele>958.0</ele><time>2026-05-01T08:01:39Z</time></trkpt><trkpt lat="45.609160860609116" lon="11.029703606905189"><ele>958.0</ele><time>2026-05-01T08:01:40Z</time></trkpt><trkpt lat="45.60903539534832" lon="11.029531486716431"><ele>958.0</ele><time>2026-05-01T08:01:41Z</time></trkpt><trkpt lat="45.60890871505064" lon="11.029360502285263"><ele>958.0</ele><time>2026-05-01T08:01:42Z</time></trkpt><trkpt lat="45.60877710428091" lon="11.02918860557563"><ele>957.0</ele><time>2026-05-01T08:01:43Z</time></trkpt><trkpt lat="45.608657291970516" lon="11.029027398758137"><ele>956.0</ele><time>2026-05-01T08:01:44Z</time></trkpt><trkpt lat="45.60853479444133" lon="11.028863912629216"><ele>955.0</ele><time>2026-05-01T08:01:45Z</time></trkpt><trkpt lat="45.60841336286401" lon="11.028700644697187"><ele>955.0</ele><time>2026-05-01T08:01:46Z</time></trkpt><trkpt lat="45.608291807673616" lon="11.028537282673316"><ele>955.0</ele><time>2026-05-01T08:01:47Z</time></trkpt><trkpt lat="45.60816987740301" lon="11.028371606023116"><ele>955.0</ele><time>2026-05-01T08:01:48Z</time></trkpt><trkpt lat="45.60805040845789" lon="11.028210214964645"><ele>955.3333333333333</ele><time>2026-05-01T08:01:49Z</time></trkpt><trkpt lat="45.607927898696666" lon="11.028040988697438"><ele>955.6666666666667</ele><time>2026-05-01T08:01:50Z</time></trkpt><trkpt lat="45.60780172987073" lon="11.027883308864132"><ele>956.0</ele><time>2026-05-01T08:01:51Z</time></trkpt><trkpt lat="45.60768685333096" lon="11.027700270399235"><ele>956.0</ele><time>2026-05-01T08:01:52Z</time></trkpt><trkpt lat="45.60756533945131" lon="11.027535638781877"><ele>956.0</ele><time>2026-05-01T08:01:53Z</time></trkpt><trkpt lat="45.60744119002527" lon="11.027366839807177"><ele>956.0</ele><time>2026-05-01T08:01:54Z</time></trkpt><trkpt lat="45.607315501200254" lon="11.027195947824469"><ele>955.0</ele><time>2026-05-01T08:01:55Z</time></trkpt><trkpt lat="45.60718834800141" lon="11.027025490146944"><ele>954.0</ele><time>2026-05-01T08:01:56Z</time></trkpt><trkpt lat="45.60706217802432" lon="11.026856415802214"><ele>953.0</ele><time>2026-05-01T08:01:57Z</time></trkpt><trkpt lat="45.60694246232065" lon="11.026695990203915"><ele>954.25</ele><time>2026-05-01T08:01:58Z</time></trkpt><trkpt lat="45.606829624167844" lon="11.026544781269095"><ele>955.5</ele><time>2026-05-01T08:01:59Z</time></trkpt><trkpt lat="45.60672230584234" lon="11.026400331855914"><ele>956.75</ele><time>2026-05-01T08:02:00Z</time></trkpt><trkpt lat="45.606637170969435" lon="11.026272302394478"><ele>958.0</ele><time>2026-05-01T08:02:01Z</time></trkpt><trkpt lat="45.60657083406496" lon="11.026146833532051"><ele>958.0</ele><time>2026-05-01T08:02:02Z</time></trkpt><trkpt lat="45.60654929107994" lon="11.026013580544669"><ele>958.0</ele><time>2026-05-01T08:02:03Z</time></trkpt><trkpt lat="45.60654738534008" lon="11.025871125490143"><ele>958.0</ele><time>2026-05-01T08:02:04Z</time></trkpt><trkpt lat="45.606601362474336" lon="11.025744174995364"><ele>958.0</ele><time>2026-05-01T08:02:05Z</time></trkpt><trkpt lat="45.60667225572825" lon="11.02565266778673"><ele>958.0</ele><time>2026-05-01T08:02:06Z</time></trkpt><trkpt lat="45.60676217131917" lon="11.025596958966348"><ele>959.25</ele><time>2026-05-01T08:02:07Z</time></trkpt><trkpt lat="45.606863327938434" lon="11.025577867290112"><ele>960.5</ele><time>2026-05-01T08:02:08Z</time></trkpt><trkpt lat="45.60697153279564" lon="11.025617426065407"><ele>961.75</ele><time>2026-05-01T08:02:09Z</time></trkpt><trkpt lat="45.607063080612136" lon="11.025726149521281"><ele>963.0</ele><time>2026-05-01T08:02:10Z</time></trkpt><trkpt lat="45.607155857280496" lon="11.02588923286139"><ele>963.0</ele><time>2026-05-01T08:02:11Z</time></trkpt><trkpt lat="45.60727499082515" lon="11.026102687715092"><ele>963.0</ele><time>2026-05-01T08:02:12Z</time></trkpt><trkpt lat="45.60741919079273" lon="11.026338769927088"><ele>963.0</ele><time>2026-05-01T08:02:13Z</time></trkpt><trkpt lat="45.60756768921684" lon="11.026612291815361"><ele>963.5</ele><time>2026-05-01T08:02:14Z</time></trkpt><trkpt lat="45.607733030948516" lon="11.026884671953885"><ele>964.0</ele><time>2026-05-01T08:02:15Z</time></trkpt><trkpt lat="45.60790953088516" lon="11.02712130944414"><ele>967.0</ele><time>2026-05-01T08:02:16Z</time></trkpt><trkpt lat="45.60809211795812" lon="11.027310906959846"><ele>970.0</ele><time>2026-05-01T08:02:17Z</time></trkpt><trkpt lat="45.60827656393014" lon="11.027471302372215"><ele>973.0</ele><time>2026-05-01T08:02:18Z</time></trkpt><trkpt lat="45.60845436676594" lon="11.027609962620884"><ele>973.0</ele><time>2026-05-01T08:02:19Z</time></trkpt><trkpt lat="45.6086137090217" lon="11.027749004687221"><ele>973.0</ele><time>2026-05-01T08:02:20Z</time></trkpt><trkpt lat="45.60876167884477" lon="11.027882336293704"><ele>973.0</ele><time>2026-05-01T08:02:21Z</time></trkpt><trkpt lat="45.60890989785188" lon="11.028017231765102"><ele>977.3333333333333</ele><time>2026-05-01T08:02:22Z</time></trkpt><trkpt lat="45.60906226899086" lon="11.028156899386596"><ele>981.6666666666667</ele><time>2026-05-01T08:02:23Z</time></trkpt><trkpt lat="45.609196865593226" lon="11.028297704620659"><ele>986.0</ele><time>2026-05-01T08:02:24Z</time></trkpt><trkpt lat="45.609337594548" lon="11.028446878068943"><ele>986.0</ele><time>2026-05-01T08:02:25Z</time></trkpt><trkpt lat="45.60947845871185" lon="11.028595472777784"><ele>986.0</ele><time>2026-05-01T08:02:26Z</time></trkpt><trkpt lat="45.609632059352435" lon="11.02872690542905"><ele>986.0</ele><time>2026-05-01T08:02:27Z</time></trkpt><trkpt lat="45.609791722665626" lon="11.028845944662718"><ele>985.6666666666667</ele><time>2026-05-01T08:02:28Z</time></trkpt><trkpt lat="45.60994442386907" lon="11.02895851348184"><ele>985.3333333333333</ele><time>2026-05-01T08:02:29Z</time></trkpt><trkpt lat="45.61009116423559" lon="11.02907298730017"><ele>985.0</ele><time>2026-05-01T08:02:30Z</time></trkpt><trkpt lat="45.610244809237464" lon="11.029184244253129"><ele>994.0</ele><time>2026-05-01T08:02:31Z</time></trkpt><trkpt lat="45.61039872829067" lon="11.029289701297216"><ele>1003.0</ele><time>2026-05-01T08:02:32Z</time></trkpt><trkpt lat="45.610547702726365" lon="11.029390134954266"><ele>1012.0</ele><time>2026-05-01T08:02:33Z</time></trkpt><trkpt lat="45.61069129583583" lon="11.029484349396114"><ele>1012.0</ele><time>2026-05-01T08:02:34Z</time></trkpt><trkpt lat="45.61083294294061" lon="11.029580287865066"><ele>1012.0</ele><time>2026-05-01T08:02:35Z</time></trkpt><trkpt lat="45.6109729329667" lon="11.029663116819389"><ele>1012.0</ele><time>2026-05-01T08:02:36Z</time></trkpt><trkpt lat="45.611113906135586" lon="11.029743574326927"><ele>1011.5</ele><time>2026-05-01T08:02:37Z</time></trkpt><trkpt lat="45.61124993911184" lon="11.029813460476658"><ele>1011.0</ele><time>2026-05-01T08:02:38Z</time></trkpt><trkpt lat="45.6113904180986" lon="11.029897446759845"><ele>1010.5</ele><time>2026-05-01T08:02:39Z</time></trkpt><trkpt lat="45.611528773904055" lon="11.029964250808057"><ele>1010.0</ele><time>2026-05-01T08:02:40Z</time></trkpt><trkpt lat="45.61166796855766" lon="11.030036649953614"><ele>1010.0</ele><time>2026-05-01T08:02:41Z</time></trkpt><trkpt lat="45.61181469560088" lon="11.030100832348687"><ele>1010.0</ele><time>2026-05-01T08:02:42Z</time></trkpt><trkpt lat="45.61197227506275" lon="11.03015749958768"><ele>1010.0</ele><time>2026-05-01T08:02:43Z</time></trkpt><trkpt lat="45.612131919304815" lon="11.030212369180793"><ele>1015.0</ele><time>2026-05-01T08:02:44Z</time></trkpt><trkpt lat="45.61229153240413" lon="11.030272164476782"><ele>1020.0</ele><time>2026-05-01T08:02:45Z</time></trkpt><trkpt lat="45.612451280289314" lon="11.03031580879485"><ele>1025.0</ele><time>2026-05-01T08:02:46Z</time></trkpt><trkpt lat="45.61261501908603" lon="11.03035978231608"><ele>1025.0</ele><time>2026-05-01T08:02:47Z</time></trkpt><trkpt lat="45.61277946750282" lon="11.03039863027018"><ele>1025.0</ele><time>2026-05-01T08:02:48Z</time></trkpt><trkpt lat="45.61294404687677" lon="11.03042880431346"><ele>1025.0</ele><time>2026-05-01T08:02:49Z</time></trkpt><trkpt lat="45.61310426067861" lon="11.030444513780168"><ele>1029.6666666666667</ele><time>2026-05-01T08:02:50Z</time></trkpt><trkpt lat="45.61326088757536" lon="11.030467290148"><ele>1034.3333333333333</ele><time>2026-05-01T08:02:51Z</time></trkpt><trkpt lat="45.613419229767416" lon="11.030498160499288"><ele>1039.0</ele><time>2026-05-01T08:02:52Z</time></trkpt><trkpt lat="45.613580982361825" lon="11.030514525050053"><ele>1040.6666666666665</ele><time>2026-05-01T08:02:53Z</time></trkpt><trkpt lat="45.61373516285227" lon="11.03053307437742"><ele>1042.3333333333333</ele><time>2026-05-01T08:02:54Z</time></trkpt><trkpt lat="45.613893116746965" lon="11.03054220128318"><ele>1044.0</ele><time>2026-05-01T08:02:55Z</time></trkpt><trkpt lat="45.61404742679757" lon="11.030545567175249"><ele>1044.0</ele><time>2026-05-01T08:02:56Z</time></trkpt><trkpt lat="45.61420494000916" lon="11.030545281478092"><ele>1044.0</ele><time>2026-05-01T08:02:57Z</time></trkpt><trkpt lat="45.61436543598976" lon="11.030551619277649"><ele>1044.0</ele><time>2026-05-01T08:02:58Z</time></trkpt><trkpt lat="45.61452483579557" lon="11.0305623928186"><ele>1047.6666666666667</ele><time>2026-05-01T08:02:59Z</time></trkpt><trkpt lat="45.61468497980661" lon="11.03057566266885"><ele>1051.3333333333335</ele><time>2026-05-01T08:03:00Z</time></trkpt><trkpt lat="45.61484752423348" lon="11.030615718312427"><ele>1055.0</ele><time>2026-05-01T08:03:01Z</time></trkpt><trkpt lat="45.61501158255308" lon="11.030624548237657"><ele>1055.0</ele><time>2026-05-01T08:03:02Z</time></trkpt><trkpt lat="45.61518535289478" lon="11.030657627898472"><ele>1055.0</ele><time>2026-05-01T08:03:03Z</time></trkpt><trkpt lat="45.615359620961065" lon="11.030701031470995"><ele>1055.0</ele><time>2026-05-01T08:03:04Z</time></trkpt><trkpt lat="45.61552836955491" lon="11.030733098462358"><ele>1057.3333333333335</ele><time>2026-05-01T08:03:05Z</time></trkpt><trkpt lat="45.615701541078934" lon="11.030762394502629"><ele>1059.6666666666667</ele><time>2026-05-01T08:03:06Z</time></trkpt><trkpt lat="45.615874213325824" lon="11.030791914789024"><ele>1062.0</ele><time>2026-05-01T08:03:07Z</time></trkpt><trkpt lat="45.616041139301345" lon="11.030826621255702"><ele>1056.3333333333333</ele><time>2026-05-01T08:03:08Z</time></trkpt><trkpt lat="45.61621093358945" lon="11.030860231649525"><ele>1050.6666666666665</ele><time>2026-05-01T08:03:09Z</time></trkpt><trkpt lat="45.61637319250951" lon="11.030893959063151"><ele>1045.0</ele><time>2026-05-01T08:03:10Z</time></trkpt><trkpt lat="45.61654161183131" lon="11.030930828000603"><ele>1045.0</ele><time>2026-05-01T08:03:11Z</time></trkpt><trkpt lat="45.61670337752466" lon="11.030966487732492"><ele>1045.0</ele><time>2026-05-01T08:03:12Z</time></trkpt><trkpt lat="45.61686980244532" lon="11.0310154805284"><ele>1045.0</ele><time>2026-05-01T08:03:13Z</time></trkpt><trkpt lat="45.6170213080853" lon="11.031122106385395"><ele>1051.0</ele><time>2026-05-01T08:03:14Z</time></trkpt><trkpt lat="45.617165825720086" lon="11.031220283332571"><ele>1057.0</ele><time>2026-05-01T08:03:15Z</time></trkpt><trkpt lat="45.617330383268886" lon="11.031311472040192"><ele>1063.0</ele><time>2026-05-01T08:03:16Z</time></trkpt><trkpt lat="45.61748333370307" lon="11.031416102515195"><ele>1063.0</ele><time>2026-05-01T08:03:17Z</time></trkpt><trkpt lat="45.61764139403162" lon="11.031501481650258"><ele>1063.0</ele><time>2026-05-01T08:03:18Z</time></trkpt><trkpt lat="45.61780463013108" lon="11.031576386874407"><ele>1063.0</ele><time>2026-05-01T08:03:19Z</time></trkpt><trkpt lat="45.61795628073239" lon="11.03164224638721"><ele>1061.3333333333333</ele><time>2026-05-01T08:03:20Z</time></trkpt><trkpt lat="45.618098404096735" lon="11.031718391176923"><ele>1059.6666666666667</ele><time>2026-05-01T08:03:21Z</time></trkpt><trkpt lat="45.61824034108803" lon="11.031814242540019"><ele>1058.0</ele><time>2026-05-01T08:03:22Z</time></trkpt><trkpt lat="45.618371786507524" lon="11.031957026134394"><ele>1058.0</ele><time>2026-05-01T08:03:23Z</time></trkpt><trkpt lat="45.61850655510016" lon="11.032083237244581"><ele>1058.0</ele><time>2026-05-01T08:03:24Z</time></trkpt><trkpt lat="45.61865327060458" lon="11.032199121244235"><ele>1058.0</ele><time>2026-05-01T08:03:25Z</time></trkpt><trkpt lat="45.61878798597853" lon="11.032332350764147"><ele>1059.0</ele><time>2026-05-01T08:03:26Z</time></trkpt><trkpt lat="45.61891161778458" lon="11.032465280007598"><ele>1060.0</ele><time>2026-05-01T08:03:27Z</time></trkpt><trkpt lat="45.618993936584864" lon="11.032621567379893"><ele>1061.0</ele><time>2026-05-01T08:03:28Z</time></trkpt><trkpt lat="45.61906185032592" lon="11.032781792073113"><ele>1062.0</ele><time>2026-05-01T08:03:29Z</time></trkpt><trkpt lat="45.61911339418902" lon="11.032961849095104"><ele>1062.0</ele><time>2026-05-01T08:03:30Z</time></trkpt><trkpt lat="45.61916089893265" lon="11.033160552881895"><ele>1062.0</ele><time>2026-05-01T08:03:31Z</time></trkpt><trkpt lat="45.61920271154729" lon="11.033353534471306"><ele>1062.0</ele><time>2026-05-01T08:03:32Z</time></trkpt><trkpt lat="45.619243604827" lon="11.033539508924116"><ele>1062.0</ele><time>2026-05-01T08:03:33Z</time></trkpt><trkpt lat="45.61928265661391" lon="11.0337152108533"><ele>1060.0</ele><time>2026-05-01T08:03:34Z</time></trkpt><trkpt lat="45.61931724584611" lon="11.033891172886324"><ele>1058.0</ele><time>2026-05-01T08:03:35Z</time></trkpt><trkpt lat="45.61934784073794" lon="11.034066220674543"><ele>1056.0</ele><time>2026-05-01T08:03:36Z</time></trkpt><trkpt lat="45.61939201428349" lon="11.034237104477272"><ele>1054.0</ele><time>2026-05-01T08:03:37Z</time></trkpt><trkpt lat="45.61940235027554" lon="11.034427117011669"><ele>1054.25</ele><time>2026-05-01T08:03:38Z</time></trkpt><trkpt lat="45.619401653559876" lon="11.034613027496754"><ele>1054.5</ele><time>2026-05-01T08:03:39Z</time></trkpt><trkpt lat="45.61939488925188" lon="11.034788729417667"><ele>1054.75</ele><time>2026-05-01T08:03:40Z</time></trkpt><trkpt lat="45.61936178536617" lon="11.034944139932858"><ele>1055.0</ele><time>2026-05-01T08:03:41Z</time></trkpt><trkpt lat="45.61935602201539" lon="11.03508142633232"><ele>1055.0</ele><time>2026-05-01T08:03:42Z</time></trkpt><trkpt lat="45.61935766751964" lon="11.035202027824752"><ele>1055.0</ele><time>2026-05-01T08:03:43Z</time></trkpt><trkpt lat="45.6193830507782" lon="11.03531471784325"><ele>1055.0</ele><time>2026-05-01T08:03:44Z</time></trkpt><trkpt lat="45.61939424137724" lon="11.035415635899957"><ele>1055.0</ele><time>2026-05-01T08:03:45Z</time></trkpt><trkpt lat="45.61947143016012" lon="11.035479061864935"><ele>1055.0</ele><time>2026-05-01T08:03:46Z</time></trkpt><trkpt lat="45.61954542183721" lon="11.03551842377483"><ele>1055.0</ele><time>2026-05-01T08:03:47Z</time></trkpt><trkpt lat="45.61961952907292" lon="11.035520022969456"><ele>1057.0</ele><time>2026-05-01T08:03:48Z</time></trkpt><trkpt lat="45.61970348750842" lon="11.03549654999505"><ele>1059.0</ele><time>2026-05-01T08:03:49Z</time></trkpt><trkpt lat="45.61978170364058" lon="11.035464422260214"><ele>1061.0</ele><time>2026-05-01T08:03:50Z</time></trkpt><trkpt lat="45.619861719811794" lon="11.035427083526953"><ele>1063.0</ele><time>2026-05-01T08:03:51Z</time></trkpt><trkpt lat="45.61993509482612" lon="11.035396977904218"><ele>1065.0</ele><time>2026-05-01T08:03:52Z</time></trkpt><trkpt lat="45.620002509997185" lon="11.035388920762475"><ele>1067.0</ele><time>2026-05-01T08:03:53Z</time></trkpt><trkpt lat="45.62008287369318" lon="11.03539157737353"><ele>1067.0</ele><time>2026-05-01T08:03:54Z</time></trkpt><trkpt lat="45.62017045491498" lon="11.035412399899844"><ele>1067.0</ele><time>2026-05-01T08:03:55Z</time></trkpt><trkpt lat="45.62026054892911" lon="11.035472525776353"><ele>1067.0</ele><time>2026-05-01T08:03:56Z</time></trkpt><trkpt lat="45.62034300810158" lon="11.035547470466238"><ele>1067.0</ele><time>2026-05-01T08:03:57Z</time></trkpt><trkpt lat="45.62041938876861" lon="11.035647710315573"><ele>1067.0</ele><time>2026-05-01T08:03:58Z</time></trkpt><trkpt lat="45.620525011380714" lon="11.035707287288517"><ele>1066.25</ele><time>2026-05-01T08:03:59Z</time></trkpt><trkpt lat="45.62062351285284" lon="11.035821778270037"><ele>1065.5</ele><time>2026-05-01T08:04:00Z</time></trkpt><trkpt lat="45.62073269779794" lon="11.035927298588426"><ele>1064.75</ele><time>2026-05-01T08:04:01Z</time></trkpt><trkpt lat="45.62082393536013" lon="11.036036392717607"><ele>1064.0</ele><time>2026-05-01T08:04:02Z</time></trkpt><trkpt lat="45.62091931117273" lon="11.03611184701521"><ele>1064.0</ele><time>2026-05-01T08:04:03Z</time></trkpt><trkpt lat="45.621002460918575" lon="11.036186523881716"><ele>1064.0</ele><time>2026-05-01T08:04:04Z</time></trkpt><trkpt lat="45.62109065374781" lon="11.036224166118085"><ele>1064.0</ele><time>2026-05-01T08:04:05Z</time></trkpt><trkpt lat="45.6211842816908" lon="11.036216529761212"><ele>1064.0</ele><time>2026-05-01T08:04:06Z</time></trkpt><trkpt lat="45.62127343563834" lon="11.036187360277546"><ele>1064.0</ele><time>2026-05-01T08:04:07Z</time></trkpt><trkpt lat="45.62136005943612" lon="11.03610905918082"><ele>1063.75</ele><time>2026-05-01T08:04:08Z</time></trkpt><trkpt lat="45.62145616605015" lon="11.035973301839073"><ele>1063.5</ele><time>2026-05-01T08:04:09Z</time></trkpt><trkpt lat="45.62153859628312" lon="11.03581304575668"><ele>1063.25</ele><time>2026-05-01T08:04:10Z</time></trkpt><trkpt lat="45.621621452604614" lon="11.035675397103233"><ele>1063.0</ele><time>2026-05-01T08:04:11Z</time></trkpt><trkpt lat="45.62171515829707" lon="11.035589508782774"><ele>1067.5</ele><time>2026-05-01T08:04:12Z</time></trkpt><trkpt lat="45.62181937728649" lon="11.035558145600016"><ele>1072.0</ele><time>2026-05-01T08:04:13Z</time></trkpt><trkpt lat="45.62192145464819" lon="11.035634509394086"><ele>1076.5</ele><time>2026-05-01T08:04:14Z</time></trkpt><trkpt lat="45.6220619653115" lon="11.035707684078853"><ele>1081.0</ele><time>2026-05-01T08:04:15Z</time></trkpt><trkpt lat="45.62221327343778" lon="11.035765796795411"><ele>1075.0</ele><time>2026-05-01T08:04:16Z</time></trkpt><trkpt lat="45.62236437664429" lon="11.035844551869985"><ele>1069.0</ele><time>2026-05-01T08:04:17Z</time></trkpt><trkpt lat="45.62250848029911" lon="11.035914948075073"><ele>1063.0</ele><time>2026-05-01T08:04:18Z</time></trkpt><trkpt lat="45.62264432396625" lon="11.03597455819634"><ele>1063.0</ele><time>2026-05-01T08:04:19Z</time></trkpt><trkpt lat="45.622782358196794" lon="11.036018282795466"><ele>1063.0</ele><time>2026-05-01T08:04:20Z</time></trkpt><trkpt lat="45.622922139098726" lon="11.03605132600363"><ele>1063.0</ele><time>2026-05-01T08:04:21Z</time></trkpt><trkpt lat="45.62306802890564" lon="11.0360809420955"><ele>1063.0</ele><time>2026-05-01T08:04:22Z</time></trkpt><trkpt lat="45.62321245048125" lon="11.036098740959952"><ele>1065.75</ele><time>2026-05-01T08:04:23Z</time></trkpt><trkpt lat="45.62335878993583" lon="11.03609326587664"><ele>1068.5</ele><time>2026-05-01T08:04:24Z</time></trkpt><trkpt lat="45.62349625279198" lon="11.03609361061795"><ele>1071.25</ele><time>2026-05-01T08:04:25Z</time></trkpt><trkpt lat="45.623625608647" lon="11.036094904161134"><ele>1074.0</ele><time>2026-05-01T08:04:26Z</time></trkpt><trkpt lat="45.62377214979778" lon="11.036102439700173"><ele>1077.75</ele><time>2026-05-01T08:04:27Z</time></trkpt><trkpt lat="45.623905196554624" lon="11.036118562314517"><ele>1081.5</ele><time>2026-05-01T08:04:28Z</time></trkpt><trkpt lat="45.624018489277226" lon="11.036147507911673"><ele>1085.25</ele><time>2026-05-01T08:04:29Z</time></trkpt><trkpt lat="45.62412376475206" lon="11.03619125103575"><ele>1089.0</ele><time>2026-05-01T08:04:30Z</time></trkpt><trkpt lat="45.624237342577196" lon="11.036233242241032"><ele>1089.0</ele><time>2026-05-01T08:04:31Z</time></trkpt><trkpt lat="45.62435226201321" lon="11.036272462413628"><ele>1089.0</ele><time>2026-05-01T08:04:32Z</time></trkpt><trkpt lat="45.6244817533418" lon="11.036312732556596"><ele>1089.0</ele><time>2026-05-01T08:04:33Z</time></trkpt><trkpt lat="45.624622851241966" lon="11.036318527700816"><ele>1089.0</ele><time>2026-05-01T08:04:34Z</time></trkpt><trkpt lat="45.624759229948225" lon="11.036311382584504"><ele>1090.5</ele><time>2026-05-01T08:04:35Z</time></trkpt><trkpt lat="45.624897229784196" lon="11.036302485198423"><ele>1092.0</ele><time>2026-05-01T08:04:36Z</time></trkpt><trkpt lat="45.62502372239322" lon="11.036291299650964"><ele>1093.5</ele><time>2026-05-01T08:04:37Z</time></trkpt><trkpt lat="45.62514627448235" lon="11.036274133840374"><ele>1095.0</ele><time>2026-05-01T08:04:38Z</time></trkpt><trkpt lat="45.62526183189864" lon="11.036245418030608"><ele>1095.0</ele><time>2026-05-01T08:04:39Z</time></trkpt><trkpt lat="45.625370379394674" lon="11.036221858690826"><ele>1095.0</ele><time>2026-05-01T08:04:40Z</time></trkpt><trkpt lat="45.62547813962619" lon="11.036179210241636"><ele>1095.0</ele><time>2026-05-01T08:04:41Z</time></trkpt><trkpt lat="45.625592407382534" lon="11.036130310642484"><ele>1095.0</ele><time>2026-05-01T08:04:42Z</time></trkpt><trkpt lat="45.62571655681001" lon="11.036097781643647"><ele>1095.0</ele><time>2026-05-01T08:04:43Z</time></trkpt><trkpt lat="45.62581369536546" lon="11.036066514740272"><ele>1095.0</ele><time>2026-05-01T08:04:44Z</time></trkpt><trkpt lat="45.62592032008387" lon="11.036054972103432"><ele>1095.0</ele><time>2026-05-01T08:04:45Z</time></trkpt><trkpt lat="45.626000305374895" lon="11.036022206519998"><ele>1095.0</ele><time>2026-05-01T08:04:46Z</time></trkpt><trkpt lat="45.626065443070246" lon="11.035961734993464"><ele>1095.0</ele><time>2026-05-01T08:04:47Z</time></trkpt><trkpt lat="45.62610376960225" lon="11.035862040426286"><ele>1095.0</ele><time>2026-05-01T08:04:48Z</time></trkpt><trkpt lat="45.626116607874906" lon="11.035758489032473"><ele>1098.4</ele><time>2026-05-01T08:04:49Z</time></trkpt><trkpt lat="45.62610195479862" lon="11.035660215840098"><ele>1101.8</ele><time>2026-05-01T08:04:50Z</time></trkpt><trkpt lat="45.626050938238706" lon="11.035572405638293"><ele>1105.2</ele><time>2026-05-01T08:04:51Z</time></trkpt><trkpt lat="45.62597318494491" lon="11.035520382319072"><ele>1108.6</ele><time>2026-05-01T08:04:52Z</time></trkpt><trkpt lat="45.62586325740534" lon="11.035529683883206"><ele>1112.0</ele><time>2026-05-01T08:04:53Z</time></trkpt><trkpt lat="45.62575760339279" lon="11.035571414400822"><ele>1112.0</ele><time>2026-05-01T08:04:54Z</time></trkpt><trkpt lat="45.62567249935363" lon="11.03562154035413"><ele>1112.0</ele><time>2026-05-01T08:04:55Z</time></trkpt><trkpt lat="45.625585391876726" lon="11.035701464647605"><ele>1112.0</ele><time>2026-05-01T08:04:56Z</time></trkpt><trkpt lat="45.625484881937254" lon="11.035759669746756"><ele>1112.0</ele><time>2026-05-01T08:04:57Z</time></trkpt><trkpt lat="45.62537030947463" lon="11.035815776467894"><ele>1112.0</ele><time>2026-05-01T08:04:58Z</time></trkpt><trkpt lat="45.625248068371" lon="11.035847292353298"><ele>1114.0</ele><time>2026-05-01T08:04:59Z</time></trkpt><trkpt lat="45.62512563808569" lon="11.035822068199273"><ele>1116.0</ele><time>2026-05-01T08:05:00Z</time></trkpt><trkpt lat="45.62498621742587" lon="11.035762987493127"><ele>1118.0</ele><time>2026-05-01T08:05:01Z</time></trkpt><trkpt lat="45.62481715548127" lon="11.035685016869277"><ele>1120.0</ele><time>2026-05-01T08:05:02Z</time></trkpt><trkpt lat="45.62462475381909" lon="11.035587587622674"><ele>1118.6666666666665</ele><time>2026-05-01T08:05:03Z</time></trkpt><trkpt lat="45.624449006464324" lon="11.035492176716973"><ele>1117.3333333333333</ele><time>2026-05-01T08:05:04Z</time></trkpt><trkpt lat="45.62430579128708" lon="11.035420618712767"><ele>1116.0</ele><time>2026-05-01T08:05:05Z</time></trkpt><trkpt lat="45.62418249216033" lon="11.035361238469546"><ele>1116.0</ele><time>2026-05-01T08:05:06Z</time></trkpt><trkpt lat="45.624081780221104" lon="11.0353002398665"><ele>1116.0</ele><time>2026-05-01T08:05:07Z</time></trkpt><trkpt lat="45.624018641086906" lon="11.035228936405534"><ele>1116.0</ele><time>2026-05-01T08:05:08Z</time></trkpt><trkpt lat="45.62399940903276" lon="11.035128112900198"><ele>1116.0</ele><time>2026-05-01T08:05:09Z</time></trkpt><trkpt lat="45.62401508211011" lon="11.035001953653742"><ele>1116.0</ele><time>2026-05-01T08:05:10Z</time></trkpt><trkpt lat="45.62407330642805" lon="11.03489785906581"><ele>1116.0</ele><time>2026-05-01T08:05:11Z</time></trkpt><trkpt lat="45.62416905448674" lon="11.034845568452404"><ele>1117.0</ele><time>2026-05-01T08:05:12Z</time></trkpt><trkpt lat="45.62429102512579" lon="11.034873054844885"><ele>1118.0</ele><time>2026-05-01T08:05:13Z</time></trkpt><trkpt lat="45.624415692198006" lon="11.034969523810021"><ele>1119.0</ele><time>2026-05-01T08:05:14Z</time></trkpt><trkpt lat="45.624530330318926" lon="11.03499456122529"><ele>1120.0</ele><time>2026-05-01T08:05:15Z</time></trkpt><trkpt lat="45.62462634632517" lon="11.035056388105252"><ele>1120.0</ele><time>2026-05-01T08:05:16Z</time></trkpt><trkpt lat="45.62473540580193" lon="11.035097689301857"><ele>1120.0</ele><time>2026-05-01T08:05:17Z</time></trkpt><trkpt lat="45.62485384478231" lon="11.035116344615291"><ele>1120.0</ele><time>2026-05-01T08:05:18Z</time></trkpt><trkpt lat="45.624974672723404" lon="11.035130203853154"><ele>1120.0</ele><time>2026-05-01T08:05:19Z</time></trkpt><trkpt lat="45.625105264825166" lon="11.035121429269212"><ele>1120.0</ele><time>2026-05-01T08:05:20Z</time></trkpt><trkpt lat="45.6252289454835" lon="11.035088228082184"><ele>1120.0</ele><time>2026-05-01T08:05:21Z</time></trkpt><trkpt lat="45.625349709147294" lon="11.035013361605689"><ele>1120.0</ele><time>2026-05-01T08:05:22Z</time></trkpt><trkpt lat="45.62546872015678" lon="11.034920635464019"><ele>1120.0</ele><time>2026-05-01T08:05:23Z</time></trkpt><trkpt lat="45.62557799940466" lon="11.034813101542872"><ele>1122.5</ele><time>2026-05-01T08:05:24Z</time></trkpt><trkpt lat="45.62566570461529" lon="11.034685791564305"><ele>1125.0</ele><time>2026-05-01T08:05:25Z</time></trkpt><trkpt lat="45.625743938502055" lon="11.034559899558406"><ele>1127.5</ele><time>2026-05-01T08:05:26Z</time></trkpt><trkpt lat="45.625811901732604" lon="11.034436688374614"><ele>1130.0</ele><time>2026-05-01T08:05:27Z</time></trkpt><trkpt lat="45.62590687582966" lon="11.03434904162153"><ele>1130.0</ele><time>2026-05-01T08:05:28Z</time></trkpt><trkpt lat="45.626018054664755" lon="11.034299953558572"><ele>1130.0</ele><time>2026-05-01T08:05:29Z</time></trkpt><trkpt lat="45.62612705981313" lon="11.034289440037293"><ele>1130.0</ele><time>2026-05-01T08:05:30Z</time></trkpt><trkpt lat="45.6262336554874" lon="11.034294771513688"><ele>1130.0</ele><time>2026-05-01T08:05:31Z</time></trkpt><trkpt lat="45.62633691930228" lon="11.03429476287939"><ele>1130.0</ele><time>2026-05-01T08:05:32Z</time></trkpt><trkpt lat="45.62643065241881" lon="11.034299076266207"><ele>1133.25</ele><time>2026-05-01T08:05:33Z</time></trkpt><trkpt lat="45.62652829141764" lon="11.034338929016283"><ele>1136.5</ele><time>2026-05-01T08:05:34Z</time></trkpt><trkpt lat="45.62660747017244" lon="11.034459033544284"><ele>1139.75</ele><time>2026-05-01T08:05:35Z</time></trkpt><trkpt lat="45.626682839567394" lon="11.03459247400617"><ele>1143.0</ele><time>2026-05-01T08:05:36Z</time></trkpt><trkpt lat="45.6267613268088" lon="11.034736257371721"><ele>1143.0</ele><time>2026-05-01T08:05:37Z</time></trkpt><trkpt lat="45.62684932527294" lon="11.034858291686987"><ele>1143.0</ele><time>2026-05-01T08:05:38Z</time></trkpt><trkpt lat="45.62692810298034" lon="11.034987315549236"><ele>1143.0</ele><time>2026-05-01T08:05:39Z</time></trkpt><trkpt lat="45.62703156444845" lon="11.035089705641008"><ele>1143.0</ele><time>2026-05-01T08:05:40Z</time></trkpt><trkpt lat="45.62715953495646" lon="11.035147964121503"><ele>1144.25</ele><time>2026-05-01T08:05:41Z</time></trkpt><trkpt lat="45.62728678816786" lon="11.035194702175763"><ele>1145.5</ele><time>2026-05-01T08:05:42Z</time></trkpt><trkpt lat="45.62742565564644" lon="11.035231109025041"><ele>1146.75</ele><time>2026-05-01T08:05:43Z</time></trkpt><trkpt lat="45.62756641765524" lon="11.035253818372382"><ele>1148.0</ele><time>2026-05-01T08:05:44Z</time></trkpt><trkpt lat="45.62770868573688" lon="11.035243679494826"><ele>1150.5</ele><time>2026-05-01T08:05:45Z</time></trkpt><trkpt lat="45.6278555569674" lon="11.035184544820094"><ele>1153.0</ele><time>2026-05-01T08:05:46Z</time></trkpt><trkpt lat="45.627989304156166" lon="11.035136178201558"><ele>1155.5</ele><time>2026-05-01T08:05:47Z</time></trkpt><trkpt lat="45.62810060687652" lon="11.035098196812402"><ele>1158.0</ele><time>2026-05-01T08:05:48Z</time></trkpt><trkpt lat="45.62820230667229" lon="11.0350672719013"><ele>1158.0</ele><time>2026-05-01T08:05:49Z</time></trkpt><trkpt lat="45.62828678308775" lon="11.035031846476427"><ele>1158.0</ele><time>2026-05-01T08:05:50Z</time></trkpt><trkpt lat="45.62835980347266" lon="11.035021664732175"><ele>1158.0</ele><time>2026-05-01T08:05:51Z</time></trkpt><trkpt lat="45.628423981796736" lon="11.035060330481551"><ele>1158.0</ele><time>2026-05-01T08:05:52Z</time></trkpt><trkpt lat="45.6284480731722" lon="11.03515327443991"><ele>1158.0</ele><time>2026-05-01T08:05:53Z</time></trkpt><trkpt lat="45.62833691198446" lon="11.035336981288925"><ele>1158.0</ele><time>2026-05-01T08:05:55Z</time></trkpt><trkpt lat="45.62825963312925" lon="11.035433388196626"><ele>1158.0</ele><time>2026-05-01T08:05:56Z</time></trkpt><trkpt lat="45.62818927381753" lon="11.03553792282466"><ele>1158.0</ele><time>2026-05-01T08:05:57Z</time></trkpt><trkpt lat="45.62812570724746" lon="11.035672304926761"><ele>1158.0</ele><time>2026-05-01T08:05:58Z</time></trkpt><trkpt lat="45.6280762270239" lon="11.035818107168462"><ele>1158.0</ele><time>2026-05-01T08:05:59Z</time></trkpt><trkpt lat="45.62802949109759" lon="11.035969850061996"><ele>1159.0</ele><time>2026-05-01T08:06:00Z</time></trkpt><trkpt lat="45.62797513230992" lon="11.036106118932928"><ele>1160.0</ele><time>2026-05-01T08:06:01Z</time></trkpt><trkpt lat="45.627935220370254" lon="11.03623854026051"><ele>1161.0</ele><time>2026-05-01T08:06:02Z</time></trkpt><trkpt lat="45.62790352131697" lon="11.036362266369153"><ele>1162.0</ele><time>2026-05-01T08:06:03Z</time></trkpt><trkpt lat="45.62788136366594" lon="11.0364790279767"><ele>1163.0</ele><time>2026-05-01T08:06:04Z</time></trkpt><trkpt lat="45.62788375794393" lon="11.036615601374733"><ele>1163.0</ele><time>2026-05-01T08:06:05Z</time></trkpt><trkpt lat="45.627922301714804" lon="11.036733080464069"><ele>1163.0</ele><time>2026-05-01T08:06:06Z</time></trkpt><trkpt lat="45.62803462766654" lon="11.03678721700508"><ele>1163.0</ele><time>2026-05-01T08:06:07Z</time></trkpt><trkpt lat="45.62815205413434" lon="11.036793498003243"><ele>1163.0</ele><time>2026-05-01T08:06:08Z</time></trkpt><trkpt lat="45.6282828009173" lon="11.036771914255601"><ele>1163.0</ele><time>2026-05-01T08:06:09Z</time></trkpt><trkpt lat="45.62841383410806" lon="11.036783382676376"><ele>1163.0</ele><time>2026-05-01T08:06:10Z</time></trkpt><trkpt lat="45.62853306164433" lon="11.036843493106916"><ele>1163.0</ele><time>2026-05-01T08:06:11Z</time></trkpt><trkpt lat="45.62863736811501" lon="11.036885285824315"><ele>1163.0</ele><time>2026-05-01T08:06:12Z</time></trkpt><trkpt lat="45.62872449678907" lon="11.036933531353236"><ele>1166.6</ele><time>2026-05-01T08:06:13Z</time></trkpt><trkpt lat="45.62879278071795" lon="11.0370266667973"><ele>1170.1999999999998</ele><time>2026-05-01T08:06:14Z</time></trkpt><trkpt lat="45.62879911638689" lon="11.037177290637164"><ele>1173.8</ele><time>2026-05-01T08:06:15Z</time></trkpt><trkpt lat="45.62878062599095" lon="11.037315785529131"><ele>1177.3999999999999</ele><time>2026-05-01T08:06:16Z</time></trkpt><trkpt lat="45.628765744965655" lon="11.037465303502984"><ele>1181.0</ele><time>2026-05-01T08:06:17Z</time></trkpt><trkpt lat="45.62874458872742" lon="11.037630384886864"><ele>1181.0</ele><time>2026-05-01T08:06:18Z</time></trkpt><trkpt lat="45.62872023912058" lon="11.037797618144632"><ele>1181.0</ele><time>2026-05-01T08:06:19Z</time></trkpt><trkpt lat="45.628690297743766" lon="11.037957747575756"><ele>1181.0</ele><time>2026-05-01T08:06:20Z</time></trkpt><trkpt lat="45.6286805626476" lon="11.03810360712513"><ele>1181.0</ele><time>2026-05-01T08:06:21Z</time></trkpt><trkpt lat="45.62865869405946" lon="11.038234872293875"><ele>1181.0</ele><time>2026-05-01T08:06:22Z</time></trkpt><trkpt lat="45.62870466345757" lon="11.038362456117756"><ele>1180.0</ele><time>2026-05-01T08:06:23Z</time></trkpt><trkpt lat="45.62879970049219" lon="11.038432034495091"><ele>1179.0</ele><time>2026-05-01T08:06:24Z</time></trkpt><trkpt lat="45.62891233616167" lon="11.03846058280793"><ele>1178.0</ele><time>2026-05-01T08:06:25Z</time></trkpt><trkpt lat="45.62906452253383" lon="11.038489902701201"><ele>1177.0</ele><time>2026-05-01T08:06:26Z</time></trkpt><trkpt lat="45.62924480680123" lon="11.038509572235077"><ele>1177.0</ele><time>2026-05-01T08:06:27Z</time></trkpt><trkpt lat="45.62945726168946" lon="11.038529310525444"><ele>1177.0</ele><time>2026-05-01T08:06:28Z</time></trkpt><trkpt lat="45.62969000688589" lon="11.038528596643554"><ele>1177.0</ele><time>2026-05-01T08:06:29Z</time></trkpt><trkpt lat="45.629937620063224" lon="11.038546525592945"><ele>1184.5</ele><time>2026-05-01T08:06:30Z</time></trkpt><trkpt lat="45.63020508953492" lon="11.038552065912722"><ele>1192.0</ele><time>2026-05-01T08:06:31Z</time></trkpt><trkpt lat="45.63047912037736" lon="11.03856479785493"><ele>1196.0</ele><time>2026-05-01T08:06:32Z</time></trkpt><trkpt lat="45.63074098524961" lon="11.038570455076721"><ele>1200.0</ele><time>2026-05-01T08:06:33Z</time></trkpt><trkpt lat="45.6309766235691" lon="11.038577490929967"><ele>1203.0</ele><time>2026-05-01T08:06:34Z</time></trkpt><trkpt lat="45.631190163304026" lon="11.03863641311216"><ele>1206.0</ele><time>2026-05-01T08:06:35Z</time></trkpt><trkpt lat="45.63139285369299" lon="11.038717801922552"><ele>1209.0</ele><time>2026-05-01T08:06:36Z</time></trkpt><trkpt lat="45.631618604216555" lon="11.038831182607977"><ele>1209.0</ele><time>2026-05-01T08:06:37Z</time></trkpt><trkpt lat="45.631850810092274" lon="11.038927250263361"><ele>1209.0</ele><time>2026-05-01T08:06:38Z</time></trkpt><trkpt lat="45.632079421544354" lon="11.039025555117396"><ele>1212.5</ele><time>2026-05-01T08:06:39Z</time></trkpt><trkpt lat="45.6323099434368" lon="11.039093707481555"><ele>1216.0</ele><time>2026-05-01T08:06:40Z</time></trkpt><trkpt lat="45.63252657587845" lon="11.039200108848204"><ele>1215.0</ele><time>2026-05-01T08:06:41Z</time></trkpt><trkpt lat="45.63272851885586" lon="11.039276597582319"><ele>1214.0</ele><time>2026-05-01T08:06:42Z</time></trkpt><trkpt lat="45.63291274882289" lon="11.039373834822449"><ele>1213.0</ele><time>2026-05-01T08:06:43Z</time></trkpt><trkpt lat="45.63308821177529" lon="11.03953897804019"><ele>1213.0</ele><time>2026-05-01T08:06:44Z</time></trkpt><trkpt lat="45.633259840128105" lon="11.039738244161772"><ele>1213.0</ele><time>2026-05-01T08:06:45Z</time></trkpt><trkpt lat="45.63343597557256" lon="11.039925241797068"><ele>1213.0</ele><time>2026-05-01T08:06:46Z</time></trkpt><trkpt lat="45.63360794309592" lon="11.040129111066202"><ele>1217.0</ele><time>2026-05-01T08:06:47Z</time></trkpt><trkpt lat="45.63376382770959" lon="11.040315234569533"><ele>1221.0</ele><time>2026-05-01T08:06:48Z</time></trkpt><trkpt lat="45.63390246819552" lon="11.040489897002779"><ele>1225.0</ele><time>2026-05-01T08:06:49Z</time></trkpt><trkpt lat="45.63403390565209" lon="11.040648865376777"><ele>1225.0</ele><time>2026-05-01T08:06:50Z</time></trkpt><trkpt lat="45.63418105465539" lon="11.040761354026774"><ele>1225.0</ele><time>2026-05-01T08:06:51Z</time></trkpt><trkpt lat="45.63435083234395" lon="11.04081625193834"><ele>1225.0</ele><time>2026-05-01T08:06:52Z</time></trkpt><trkpt lat="45.63454002010203" lon="11.040803728795252"><ele>1225.0</ele><time>2026-05-01T08:06:53Z</time></trkpt><trkpt lat="45.634737948082545" lon="11.040793350438449"><ele>1225.0</ele><time>2026-05-01T08:06:54Z</time></trkpt><trkpt lat="45.63491509359426" lon="11.040885325256268"><ele>1225.0</ele><time>2026-05-01T08:06:55Z</time></trkpt><trkpt lat="45.635074722630854" lon="11.041011247987772"><ele>1225.0</ele><time>2026-05-01T08:06:56Z</time></trkpt><trkpt lat="45.635187963477726" lon="11.041194463483416"><ele>1225.0</ele><time>2026-05-01T08:06:57Z</time></trkpt><trkpt lat="45.63529497621255" lon="11.04139357279634"><ele>1225.0</ele><time>2026-05-01T08:06:58Z</time></trkpt><trkpt lat="45.63542908019482" lon="11.041575535298723"><ele>1231.3333333333333</ele><time>2026-05-01T08:06:59Z</time></trkpt><trkpt lat="45.635573790004635" lon="11.041786215186361"><ele>1237.6666666666667</ele><time>2026-05-01T08:07:00Z</time></trkpt><trkpt lat="45.63574707452487" lon="11.041963614516497"><ele>1244.0</ele><time>2026-05-01T08:07:01Z</time></trkpt><trkpt lat="45.635940558024636" lon="11.042114337963046"><ele>1244.0</ele><time>2026-05-01T08:07:02Z</time></trkpt><trkpt lat="45.636136167373664" lon="11.0422423146037"><ele>1244.0</ele><time>2026-05-01T08:07:03Z</time></trkpt><trkpt lat="45.6363401668202" lon="11.042386231071527"><ele>1244.0</ele><time>2026-05-01T08:07:04Z</time></trkpt><trkpt lat="45.63654776523225" lon="11.042514032899245"><ele>1269.0</ele><time>2026-05-01T08:07:05Z</time></trkpt><trkpt lat="45.637179035224364" lon="11.042870361708088"><ele>1269.0</ele><time>2026-05-01T08:07:08Z</time></trkpt><trkpt lat="45.63737635378089" lon="11.043009496841098"><ele>1269.0</ele><time>2026-05-01T08:07:09Z</time></trkpt><trkpt lat="45.63756918546322" lon="11.043170942271423"><ele>1269.0</ele><time>2026-05-01T08:07:10Z</time></trkpt><trkpt lat="45.63777301200099" lon="11.043307664815211"><ele>1265.3333333333333</ele><time>2026-05-01T08:07:11Z</time></trkpt><trkpt lat="45.637971705046624" lon="11.04343863707489"><ele>1261.6666666666665</ele><time>2026-05-01T08:07:12Z</time></trkpt><trkpt lat="45.63817769565065" lon="11.043573780742241"><ele>1258.0</ele><time>2026-05-01T08:07:13Z</time></trkpt><trkpt lat="45.638378726659575" lon="11.043708509286219"><ele>1258.0</ele><time>2026-05-01T08:07:14Z</time></trkpt><trkpt lat="45.63858125312765" lon="11.043844300976112"><ele>1258.0</ele><time>2026-05-01T08:07:15Z</time></trkpt><trkpt lat="45.6387874800994" lon="11.043982928109044"><ele>1255.6666666666665</ele><time>2026-05-01T08:07:16Z</time></trkpt><trkpt lat="45.63898667880609" lon="11.044117780239185"><ele>1253.3333333333333</ele><time>2026-05-01T08:07:17Z</time></trkpt><trkpt lat="45.63919271422911" lon="11.044260515947174"><ele>1251.0</ele><time>2026-05-01T08:07:18Z</time></trkpt><trkpt lat="45.639388924480265" lon="11.044396436782389"><ele>1261.5</ele><time>2026-05-01T08:07:19Z</time></trkpt><trkpt lat="45.63959061018331" lon="11.044536139355584"><ele>1272.0</ele><time>2026-05-01T08:07:20Z</time></trkpt><trkpt lat="45.63979678857716" lon="11.044673892193495"><ele>1272.0</ele><time>2026-05-01T08:07:21Z</time></trkpt><trkpt lat="45.64001122187153" lon="11.044767695166211"><ele>1272.0</ele><time>2026-05-01T08:07:22Z</time></trkpt><trkpt lat="45.640227719725665" lon="11.04487793781285"><ele>1268.0</ele><time>2026-05-01T08:07:23Z</time></trkpt><trkpt lat="45.640437196039024" lon="11.044978469373444"><ele>1264.0</ele><time>2026-05-01T08:07:24Z</time></trkpt><trkpt lat="45.64064119379671" lon="11.04508045510652"><ele>1260.0</ele><time>2026-05-01T08:07:25Z</time></trkpt><trkpt lat="45.64083180646478" lon="11.045224382647099"><ele>1260.0</ele><time>2026-05-01T08:07:26Z</time></trkpt><trkpt lat="45.64101860560835" lon="11.045366028815964"><ele>1260.0</ele><time>2026-05-01T08:07:27Z</time></trkpt><trkpt lat="45.64120334248064" lon="11.045514009510393"><ele>1260.0</ele><time>2026-05-01T08:07:28Z</time></trkpt><trkpt lat="45.64139474658168" lon="11.04564622254259"><ele>1257.0</ele><time>2026-05-01T08:07:29Z</time></trkpt><trkpt lat="45.64158043117754" lon="11.045775666262921"><ele>1254.0</ele><time>2026-05-01T08:07:30Z</time></trkpt><trkpt lat="45.64178209404205" lon="11.045859013460614"><ele>1251.0</ele><time>2026-05-01T08:07:31Z</time></trkpt><trkpt lat="45.64198317118714" lon="11.045916806763776"><ele>1257.6666666666667</ele><time>2026-05-01T08:07:32Z</time></trkpt><trkpt lat="45.642161102787846" lon="11.045960256959454"><ele>1264.3333333333335</ele><time>2026-05-01T08:07:33Z</time></trkpt><trkpt lat="45.64230071829797" lon="11.046041439404869"><ele>1271.0</ele><time>2026-05-01T08:07:34Z</time></trkpt><trkpt lat="45.64240017686468" lon="11.046145396268429"><ele>1271.0</ele><time>2026-05-01T08:07:35Z</time></trkpt><trkpt lat="45.6424651677326" lon="11.046320035460589"><ele>1271.0</ele><time>2026-05-01T08:07:36Z</time></trkpt><trkpt lat="45.642536983234855" lon="11.04655540757281"><ele>1271.0</ele><time>2026-05-01T08:07:37Z</time></trkpt><trkpt lat="45.64257412965155" lon="11.046828526831563"><ele>1265.3333333333335</ele><time>2026-05-01T08:07:38Z</time></trkpt><trkpt lat="45.64257975165712" lon="11.047122367170271"><ele>1259.6666666666667</ele><time>2026-05-01T08:07:39Z</time></trkpt><trkpt lat="45.64257897613514" lon="11.04738587219103"><ele>1254.0</ele><time>2026-05-01T08:07:40Z</time></trkpt><trkpt lat="45.64257133364419" lon="11.047619126553647"><ele>1252.75</ele><time>2026-05-01T08:07:41Z</time></trkpt><trkpt lat="45.64258268570518" lon="11.047827486600207"><ele>1251.5</ele><time>2026-05-01T08:07:42Z</time></trkpt><trkpt lat="45.642543568912274" lon="11.048006092964"><ele>1250.25</ele><time>2026-05-01T08:07:43Z</time></trkpt><trkpt lat="45.64251860650797" lon="11.04815498804283"><ele>1249.0</ele><time>2026-05-01T08:07:44Z</time></trkpt><trkpt lat="45.64253876326876" lon="11.048300260161637"><ele>1249.0</ele><time>2026-05-01T08:07:45Z</time></trkpt><trkpt lat="45.64258080695661" lon="11.04841940147622"><ele>1249.0</ele><time>2026-05-01T08:07:46Z</time></trkpt><trkpt lat="45.642694306244515" lon="11.048454727175978"><ele>1249.0</ele><time>2026-05-01T08:07:47Z</time></trkpt><trkpt lat="45.64282151252966" lon="11.048443492382313"><ele>1249.0</ele><time>2026-05-01T08:07:48Z</time></trkpt><trkpt lat="45.642982005578766" lon="11.048410206128638"><ele>1251.6666666666665</ele><time>2026-05-01T08:07:49Z</time></trkpt><trkpt lat="45.64316359254441" lon="11.048372860210863"><ele>1254.3333333333333</ele><time>2026-05-01T08:07:50Z</time></trkpt><trkpt lat="45.64337217989883" lon="11.048341053107425"><ele>1257.0</ele><time>2026-05-01T08:07:51Z</time></trkpt><trkpt lat="45.64359488940283" lon="11.048320117033894"><ele>1262.0</ele><time>2026-05-01T08:07:52Z</time></trkpt><trkpt lat="45.64383065853371" lon="11.048327088995178"><ele>1267.0</ele><time>2026-05-01T08:07:53Z</time></trkpt><trkpt lat="45.64406928981211" lon="11.048332803725346"><ele>1267.0</ele><time>2026-05-01T08:07:54Z</time></trkpt><trkpt lat="45.644291986820704" lon="11.048348562583616"><ele>1267.0</ele><time>2026-05-01T08:07:55Z</time></trkpt><trkpt lat="45.64449815301664" lon="11.048361202230357"><ele>1267.0</ele><time>2026-05-01T08:07:56Z</time></trkpt><trkpt lat="45.64470153084749" lon="11.048370939309116"><ele>1268.0</ele><time>2026-05-01T08:07:57Z</time></trkpt><trkpt lat="45.644892188379096" lon="11.048380352578901"><ele>1269.0</ele><time>2026-05-01T08:07:58Z</time></trkpt><trkpt lat="45.64508323947602" lon="11.048390147297201"><ele>1270.0</ele><time>2026-05-01T08:07:59Z</time></trkpt><trkpt lat="45.64528034106536" lon="11.048403573640782"><ele>1272.0</ele><time>2026-05-01T08:08:00Z</time></trkpt><trkpt lat="45.6454735788467" lon="11.04842002958521"><ele>1274.0</ele><time>2026-05-01T08:08:01Z</time></trkpt><trkpt lat="45.645661001056496" lon="11.048427947109058"><ele>1276.0</ele><time>2026-05-01T08:08:02Z</time></trkpt><trkpt lat="45.645846404229545" lon="11.04840815184402"><ele>1276.0</ele><time>2026-05-01T08:08:03Z</time></trkpt><trkpt lat="45.6460392302557" lon="11.048359571915837"><ele>1276.0</ele><time>2026-05-01T08:08:04Z</time></trkpt><trkpt lat="45.6462257075687" lon="11.048300648988695"><ele>1276.0</ele><time>2026-05-01T08:08:05Z</time></trkpt><trkpt lat="45.64639904872807" lon="11.048229994783567"><ele>1283.0</ele><time>2026-05-01T08:08:06Z</time></trkpt><trkpt lat="45.64657025548433" lon="11.048174518821666"><ele>1290.0</ele><time>2026-05-01T08:08:07Z</time></trkpt><trkpt lat="45.64673948485088" lon="11.048147228811409"><ele>1297.0</ele><time>2026-05-01T08:08:08Z</time></trkpt><trkpt lat="45.64691130135296" lon="11.048194930650508"><ele>1299.3333333333333</ele><time>2026-05-01T08:08:09Z</time></trkpt><trkpt lat="45.6470945002265" lon="11.048248917401056"><ele>1301.6666666666667</ele><time>2026-05-01T08:08:10Z</time></trkpt><trkpt lat="45.647280944264814" lon="11.048311790917413"><ele>1304.0</ele><time>2026-05-01T08:08:11Z</time></trkpt><trkpt lat="45.64745773875071" lon="11.048376718050154"><ele>1293.6666666666667</ele><time>2026-05-01T08:08:12Z</time></trkpt><trkpt lat="45.64763350447407" lon="11.04843911481389"><ele>1283.3333333333333</ele><time>2026-05-01T08:08:13Z</time></trkpt><trkpt lat="45.64779546933691" lon="11.048510415617129"><ele>1273.0</ele><time>2026-05-01T08:08:14Z</time></trkpt><trkpt lat="45.64795238556234" lon="11.048596450594523"><ele>1273.0</ele><time>2026-05-01T08:08:15Z</time></trkpt><trkpt lat="45.64811099522487" lon="11.048689484270803"><ele>1273.0</ele><time>2026-05-01T08:08:16Z</time></trkpt><trkpt lat="45.64828804895979" lon="11.048725810601546"><ele>1273.0</ele><time>2026-05-01T08:08:17Z</time></trkpt><trkpt lat="45.648488791891126" lon="11.04873463814927"><ele>1272.0</ele><time>2026-05-01T08:08:18Z</time></trkpt><trkpt lat="45.64868741444105" lon="11.048701855665328"><ele>1271.0</ele><time>2026-05-01T08:08:19Z</time></trkpt><trkpt lat="45.64886914619046" lon="11.048692346549707"><ele>1270.0</ele><time>2026-05-01T08:08:20Z</time></trkpt><trkpt lat="45.64902528539059" lon="11.048718582808155"><ele>1270.0</ele><time>2026-05-01T08:08:21Z</time></trkpt><trkpt lat="45.64915273261302" lon="11.048771383321595"><ele>1270.0</ele><time>2026-05-01T08:08:22Z</time></trkpt><trkpt lat="45.64926451099083" lon="11.048817677510304"><ele>1270.0</ele><time>2026-05-01T08:08:23Z</time></trkpt><trkpt lat="45.64931588715831" lon="11.049008968116622"><ele>1270.0</ele><time>2026-05-01T08:08:24Z</time></trkpt><trkpt lat="45.64936086629932" lon="11.049205020272323"><ele>1261.0</ele><time>2026-05-01T08:08:25Z</time></trkpt><trkpt lat="45.64935669427091" lon="11.049446954346564"><ele>1252.0</ele><time>2026-05-01T08:08:26Z</time></trkpt><trkpt lat="45.64937661146486" lon="11.0497028635458"><ele>1243.0</ele><time>2026-05-01T08:08:27Z</time></trkpt><trkpt lat="45.649446487019" lon="11.04991403623868"><ele>1248.0</ele><time>2026-05-01T08:08:28Z</time></trkpt><trkpt lat="45.6495439291149" lon="11.050081453900228"><ele>1253.0</ele><time>2026-05-01T08:08:29Z</time></trkpt><trkpt lat="45.649668738009794" lon="11.050207588642467"><ele>1258.0</ele><time>2026-05-01T08:08:30Z</time></trkpt><trkpt lat="45.6498073268726" lon="11.050308903865353"><ele>1258.0</ele><time>2026-05-01T08:08:31Z</time></trkpt><trkpt lat="45.64998381765626" lon="11.050376642882291"><ele>1258.0</ele><time>2026-05-01T08:08:32Z</time></trkpt><trkpt lat="45.65017362455692" lon="11.050425458504654"><ele>1258.0</ele><time>2026-05-01T08:08:33Z</time></trkpt><trkpt lat="45.650382430536624" lon="11.050477026704252"><ele>1262.3333333333333</ele><time>2026-05-01T08:08:34Z</time></trkpt><trkpt lat="45.65059768824134" lon="11.050531548200176"><ele>1266.6666666666667</ele><time>2026-05-01T08:08:35Z</time></trkpt><trkpt lat="45.6508155949891" lon="11.050591720419648"><ele>1271.0</ele><time>2026-05-01T08:08:36Z</time></trkpt><trkpt lat="45.6510304510003" lon="11.050644548362861"><ele>1271.3333333333335</ele><time>2026-05-01T08:08:37Z</time></trkpt><trkpt lat="45.65124459573649" lon="11.050655015997362"><ele>1271.6666666666667</ele><time>2026-05-01T08:08:38Z</time></trkpt><trkpt lat="45.65144324638976" lon="11.050631439137717"><ele>1272.0</ele><time>2026-05-01T08:08:39Z</time></trkpt><trkpt lat="45.65162793414216" lon="11.050615885589227"><ele>1272.0</ele><time>2026-05-01T08:08:40Z</time></trkpt><trkpt lat="45.651796790220104" lon="11.050656128970983"><ele>1272.0</ele><time>2026-05-01T08:08:41Z</time></trkpt><trkpt lat="45.651939156995695" lon="11.0507562092283"><ele>1272.0</ele><time>2026-05-01T08:08:42Z</time></trkpt><trkpt lat="45.65201683051816" lon="11.050985047712134"><ele>1275.6666666666667</ele><time>2026-05-01T08:08:43Z</time></trkpt><trkpt lat="45.652069863297804" lon="11.051203592986983"><ele>1279.3333333333335</ele><time>2026-05-01T08:08:44Z</time></trkpt><trkpt lat="45.65213289107387" lon="11.051434914145743"><ele>1283.0</ele><time>2026-05-01T08:08:45Z</time></trkpt><trkpt lat="45.65220697117581" lon="11.051610146362282"><ele>1277.6666666666667</ele><time>2026-05-01T08:08:46Z</time></trkpt><trkpt lat="45.65228416866878" lon="11.051749265237879"><ele>1272.3333333333333</ele><time>2026-05-01T08:08:47Z</time></trkpt><trkpt lat="45.652412344092134" lon="11.051844950190212"><ele>1267.0</ele><time>2026-05-01T08:08:48Z</time></trkpt><trkpt lat="45.65258931972357" lon="11.051923615351217"><ele>1267.0</ele><time>2026-05-01T08:08:49Z</time></trkpt><trkpt lat="45.652771430902135" lon="11.052064708866764"><ele>1267.0</ele><time>2026-05-01T08:08:50Z</time></trkpt><trkpt lat="45.652965373514306" lon="11.052193285116733"><ele>1267.0</ele><time>2026-05-01T08:08:51Z</time></trkpt><trkpt lat="45.65314782806" lon="11.052332282511506"><ele>1264.6666666666665</ele><time>2026-05-01T08:08:52Z</time></trkpt><trkpt lat="45.65331401870929" lon="11.052482074987914"><ele>1262.3333333333333</ele><time>2026-05-01T08:08:53Z</time></trkpt><trkpt lat="45.653465403550015" lon="11.052625947869412"><ele>1260.0</ele><time>2026-05-01T08:08:54Z</time></trkpt><trkpt lat="45.65359624062887" lon="11.052758022978812"><ele>1262.0</ele><time>2026-05-01T08:08:55Z</time></trkpt><trkpt lat="45.65371123234015" lon="11.052850853726873"><ele>1264.0</ele><time>2026-05-01T08:08:56Z</time></trkpt><trkpt lat="45.6538187813489" lon="11.052925658368872"><ele>1266.0</ele><time>2026-05-01T08:08:57Z</time></trkpt><trkpt lat="45.65393972635719" lon="11.052943215981946"><ele>1268.0</ele><time>2026-05-01T08:08:58Z</time></trkpt><trkpt lat="45.6540699101745" lon="11.052882487427533"><ele>1268.0</ele><time>2026-05-01T08:08:59Z</time></trkpt><trkpt lat="45.654215814241674" lon="11.052738163124081"><ele>1268.0</ele><time>2026-05-01T08:09:00Z</time></trkpt><trkpt lat="45.654377737512625" lon="11.052556284347734"><ele>1268.0</ele><time>2026-05-01T08:09:01Z</time></trkpt><trkpt lat="45.65455260149715" lon="11.052367873130352"><ele>1270.5</ele><time>2026-05-01T08:09:02Z</time></trkpt><trkpt lat="45.6547371132423" lon="11.05217825915342"><ele>1273.0</ele><time>2026-05-01T08:09:03Z</time></trkpt><trkpt lat="45.654919359222006" lon="11.05195236854932"><ele>1273.0</ele><time>2026-05-01T08:09:04Z</time></trkpt><trkpt lat="45.65507156904565" lon="11.051704371682758"><ele>1273.0</ele><time>2026-05-01T08:09:05Z</time></trkpt><trkpt lat="45.655198525260005" lon="11.051465107206786"><ele>1273.0</ele><time>2026-05-01T08:09:06Z</time></trkpt><trkpt lat="45.655310409291914" lon="11.051254804312803"><ele>1277.6666666666665</ele><time>2026-05-01T08:09:07Z</time></trkpt><trkpt lat="45.655445912916235" lon="11.051086420624367"><ele>1282.3333333333333</ele><time>2026-05-01T08:09:08Z</time></trkpt><trkpt lat="45.6556375708629" lon="11.050961513888335"><ele>1287.0</ele><time>2026-05-01T08:09:09Z</time></trkpt><trkpt lat="45.65584536174481" lon="11.05084583350916"><ele>1294.3333333333333</ele><time>2026-05-01T08:09:10Z</time></trkpt><trkpt lat="45.656049720269564" lon="11.050730203630412"><ele>1301.6666666666665</ele><time>2026-05-01T08:09:11Z</time></trkpt><trkpt lat="45.65622092351893" lon="11.05063591785053"><ele>1309.0</ele><time>2026-05-01T08:09:12Z</time></trkpt><trkpt lat="45.65635597086886" lon="11.050542295950558"><ele>1309.0</ele><time>2026-05-01T08:09:13Z</time></trkpt><trkpt lat="45.656492784257445" lon="11.050486021015358"><ele>1309.0</ele><time>2026-05-01T08:09:14Z</time></trkpt><trkpt lat="45.65666010073456" lon="11.050524611434795"><ele>1309.0</ele><time>2026-05-01T08:09:15Z</time></trkpt><trkpt lat="45.656832914315586" lon="11.050616548220718"><ele>1305.3333333333333</ele><time>2026-05-01T08:09:16Z</time></trkpt><trkpt lat="45.65702729737399" lon="11.050726359070302"><ele>1301.6666666666667</ele><time>2026-05-01T08:09:17Z</time></trkpt><trkpt lat="45.65722826918208" lon="11.050799605616461"><ele>1298.0</ele><time>2026-05-01T08:09:18Z</time></trkpt><trkpt lat="45.657445357404356" lon="11.050857692379113"><ele>1298.0</ele><time>2026-05-01T08:09:19Z</time></trkpt><trkpt lat="45.65767435306471" lon="11.050883824686466"><ele>1298.0</ele><time>2026-05-01T08:09:20Z</time></trkpt><trkpt lat="45.65790464673947" lon="11.050943637371104"><ele>1304.5</ele><time>2026-05-01T08:09:21Z</time></trkpt><trkpt lat="45.65812724127" lon="11.051027950786356"><ele>1311.0</ele><time>2026-05-01T08:09:22Z</time></trkpt><trkpt lat="45.658345679999655" lon="11.05111781567034"><ele>1311.0</ele><time>2026-05-01T08:09:23Z</time></trkpt><trkpt lat="45.65855651051963" lon="11.05119042573725"><ele>1311.0</ele><time>2026-05-01T08:09:24Z</time></trkpt><trkpt lat="45.658746905860745" lon="11.051275746975266"><ele>1311.0</ele><time>2026-05-01T08:09:25Z</time></trkpt><trkpt lat="45.658916831803865" lon="11.051384187707153"><ele>1316.3333333333333</ele><time>2026-05-01T08:09:26Z</time></trkpt><trkpt lat="45.659091133661576" lon="11.051452203704441"><ele>1321.6666666666665</ele><time>2026-05-01T08:09:27Z</time></trkpt><trkpt lat="45.65924910149051" lon="11.051526894862654"><ele>1327.0</ele><time>2026-05-01T08:09:28Z</time></trkpt><trkpt lat="45.65940818903546" lon="11.051588169299302"><ele>1322.3333333333333</ele><time>2026-05-01T08:09:29Z</time></trkpt><trkpt lat="45.659563906297414" lon="11.051644923295195"><ele>1317.6666666666667</ele><time>2026-05-01T08:09:30Z</time></trkpt><trkpt lat="45.6597171499856" lon="11.051692908276742"><ele>1313.0</ele><time>2026-05-01T08:09:31Z</time></trkpt><trkpt lat="45.659864183203105" lon="11.051740975900014"><ele>1313.0</ele><time>2026-05-01T08:09:32Z</time></trkpt><trkpt lat="45.66000336658355" lon="11.051834819028823"><ele>1313.0</ele><time>2026-05-01T08:09:33Z</time></trkpt><trkpt lat="45.660131695235044" lon="11.051936390072019"><ele>1313.0</ele><time>2026-05-01T08:09:34Z</time></trkpt><trkpt lat="45.660250673487894" lon="11.052045675346498"><ele>1313.0</ele><time>2026-05-01T08:09:35Z</time></trkpt><trkpt lat="45.660370662851605" lon="11.05215768155818"><ele>1313.5</ele><time>2026-05-01T08:09:36Z</time></trkpt><trkpt lat="45.66049421729619" lon="11.052249345032786"><ele>1314.0</ele><time>2026-05-01T08:09:37Z</time></trkpt><trkpt lat="45.66060620730779" lon="11.052378801877783"><ele>1314.5</ele><time>2026-05-01T08:09:38Z</time></trkpt><trkpt lat="45.6607331718728" lon="11.052497714920388"><ele>1315.0</ele><time>2026-05-01T08:09:39Z</time></trkpt><trkpt lat="45.66085897510658" lon="11.05264061332616"><ele>1315.0</ele><time>2026-05-01T08:09:40Z</time></trkpt><trkpt lat="45.66097922915129" lon="11.052782950096924"><ele>1315.0</ele><time>2026-05-01T08:09:41Z</time></trkpt><trkpt lat="45.6611122967459" lon="11.05291100808136"><ele>1315.0</ele><time>2026-05-01T08:09:42Z</time></trkpt><trkpt lat="45.66125472335361" lon="11.052999921033319"><ele>1314.6666666666665</ele><time>2026-05-01T08:09:43Z</time></trkpt><trkpt lat="45.661389495149464" lon="11.053102497203126"><ele>1314.3333333333333</ele><time>2026-05-01T08:09:44Z</time></trkpt><trkpt lat="45.661524637841985" lon="11.053219974266879"><ele>1314.0</ele><time>2026-05-01T08:09:45Z</time></trkpt><trkpt lat="45.661663432917194" lon="11.053320124539797"><ele>1314.0</ele><time>2026-05-01T08:09:46Z</time></trkpt><trkpt lat="45.661810125828" lon="11.05340283203457"><ele>1314.0</ele><time>2026-05-01T08:09:47Z</time></trkpt><trkpt lat="45.66194743325672" lon="11.053492446467391"><ele>1314.0</ele><time>2026-05-01T08:09:48Z</time></trkpt><trkpt lat="45.662092139491385" lon="11.053560681608843"><ele>1317.0</ele><time>2026-05-01T08:09:49Z</time></trkpt><trkpt lat="45.6622391372244" lon="11.053599630060742"><ele>1320.0</ele><time>2026-05-01T08:09:50Z</time></trkpt><trkpt lat="45.662392871329054" lon="11.053609593121665"><ele>1323.0</ele><time>2026-05-01T08:09:51Z</time></trkpt><trkpt lat="45.662542420342994" lon="11.05358452142385"><ele>1323.0</ele><time>2026-05-01T08:09:52Z</time></trkpt><trkpt lat="45.66270361625839" lon="11.053552418243692"><ele>1323.0</ele><time>2026-05-01T08:09:53Z</time></trkpt><trkpt lat="45.66285760604002" lon="11.05354077590732"><ele>1323.0</ele><time>2026-05-01T08:09:54Z</time></trkpt><trkpt lat="45.663013585508864" lon="11.053523778371545"><ele>1327.3333333333333</ele><time>2026-05-01T08:09:55Z</time></trkpt><trkpt lat="45.66317080440905" lon="11.053538696321242"><ele>1331.6666666666665</ele><time>2026-05-01T08:09:56Z</time></trkpt><trkpt lat="45.66333774727401" lon="11.053607835949393"><ele>1336.0</ele><time>2026-05-01T08:09:57Z</time></trkpt><trkpt lat="45.6635031068222" lon="11.053654445890672"><ele>1341.3333333333333</ele><time>2026-05-01T08:09:58Z</time></trkpt><trkpt lat="45.66367150451825" lon="11.0536855719186"><ele>1346.6666666666667</ele><time>2026-05-01T08:09:59Z</time></trkpt><trkpt lat="45.663839899432745" lon="11.053727302501441"><ele>1352.0</ele><time>2026-05-01T08:10:00Z</time></trkpt><trkpt lat="45.66401512926379" lon="11.053797926211042"><ele>1352.0</ele><time>2026-05-01T08:10:01Z</time></trkpt><trkpt lat="45.664189638927716" lon="11.05384437642693"><ele>1352.0</ele><time>2026-05-01T08:10:02Z</time></trkpt><trkpt lat="45.664367437666144" lon="11.053885405977534"><ele>1352.0</ele><time>2026-05-01T08:10:03Z</time></trkpt><trkpt lat="45.66454256094184" lon="11.05389362244534"><ele>1353.0</ele><time>2026-05-01T08:10:04Z</time></trkpt><trkpt lat="45.664718776704376" lon="11.053905414250668"><ele>1354.0</ele><time>2026-05-01T08:10:05Z</time></trkpt><trkpt lat="45.664898064141916" lon="11.053884758418544"><ele>1355.0</ele><time>2026-05-01T08:10:06Z</time></trkpt><trkpt lat="45.66508324500752" lon="11.05384398603068"><ele>1355.0</ele><time>2026-05-01T08:10:07Z</time></trkpt><trkpt lat="45.66527314665872" lon="11.053811165073553"><ele>1355.0</ele><time>2026-05-01T08:10:08Z</time></trkpt><trkpt lat="45.66545620342245" lon="11.053783372402638"><ele>1355.0</ele><time>2026-05-01T08:10:09Z</time></trkpt><trkpt lat="45.665632880438096" lon="11.053758676756441"><ele>1354.6666666666667</ele><time>2026-05-01T08:10:10Z</time></trkpt><trkpt lat="45.66581506590698" lon="11.053726314158903"><ele>1354.3333333333333</ele><time>2026-05-01T08:10:11Z</time></trkpt><trkpt lat="45.665984346692845" lon="11.053700459630551"><ele>1354.0</ele><time>2026-05-01T08:10:12Z</time></trkpt><trkpt lat="45.66614761635672" lon="11.05367613510347"><ele>1354.0</ele><time>2026-05-01T08:10:13Z</time></trkpt><trkpt lat="45.66631687791469" lon="11.053639840495514"><ele>1354.0</ele><time>2026-05-01T08:10:14Z</time></trkpt><trkpt lat="45.666480260195605" lon="11.053577521166611"><ele>1354.0</ele><time>2026-05-01T08:10:15Z</time></trkpt><trkpt lat="45.66664583008606" lon="11.05348040132807"><ele>1354.0</ele><time>2026-05-01T08:10:16Z</time></trkpt><trkpt lat="45.66680413137563" lon="11.05336072661467"><ele>1354.0</ele><time>2026-05-01T08:10:17Z</time></trkpt><trkpt lat="45.66695821904513" lon="11.053237279160024"><ele>1354.0</ele><time>2026-05-01T08:10:18Z</time></trkpt><trkpt lat="45.66711746051322" lon="11.053129219807781"><ele>1363.0</ele><time>2026-05-01T08:10:19Z</time></trkpt><trkpt lat="45.66728353902039" lon="11.053023776406352"><ele>1372.0</ele><time>2026-05-01T08:10:20Z</time></trkpt><trkpt lat="45.66744371836477" lon="11.05292658396305"><ele>1381.0</ele><time>2026-05-01T08:10:21Z</time></trkpt><trkpt lat="45.66760637831626" lon="11.052856098131619"><ele>1381.0</ele><time>2026-05-01T08:10:22Z</time></trkpt><trkpt lat="45.66777661519584" lon="11.052828356985467"><ele>1381.0</ele><time>2026-05-01T08:10:23Z</time></trkpt><trkpt lat="45.66795445811554" lon="11.052883681309929"><ele>1381.0</ele><time>2026-05-01T08:10:24Z</time></trkpt><trkpt lat="45.668149287563466" lon="11.052943494200145"><ele>1381.0</ele><time>2026-05-01T08:10:25Z</time></trkpt><trkpt lat="45.66836004650641" lon="11.052985787116327"><ele>1381.0</ele><time>2026-05-01T08:10:26Z</time></trkpt><trkpt lat="45.6685693881628" lon="11.053053295343002"><ele>1381.0</ele><time>2026-05-01T08:10:27Z</time></trkpt><trkpt lat="45.66874727407765" lon="11.053104205342226"><ele>1383.6666666666665</ele><time>2026-05-01T08:10:28Z</time></trkpt><trkpt lat="45.66891078380902" lon="11.053157137324725"><ele>1386.3333333333333</ele><time>2026-05-01T08:10:29Z</time></trkpt><trkpt lat="45.669059708842056" lon="11.053194009209212"><ele>1389.0</ele><time>2026-05-01T08:10:30Z</time></trkpt><trkpt lat="45.669184975294776" lon="11.053252856771584"><ele>1386.25</ele><time>2026-05-01T08:10:31Z</time></trkpt><trkpt lat="45.669272140449834" lon="11.053334742502685"><ele>1383.5</ele><time>2026-05-01T08:10:32Z</time></trkpt><trkpt lat="45.66933328354022" lon="11.053451189421688"><ele>1380.75</ele><time>2026-05-01T08:10:33Z</time></trkpt><trkpt lat="45.66934957264718" lon="11.053618017600607"><ele>1378.0</ele><time>2026-05-01T08:10:34Z</time></trkpt><trkpt lat="45.66932541385899" lon="11.053800903396032"><ele>1378.0</ele><time>2026-05-01T08:10:35Z</time></trkpt><trkpt lat="45.66924919353053" lon="11.053992457985245"><ele>1378.0</ele><time>2026-05-01T08:10:36Z</time></trkpt><trkpt lat="45.66916313957421" lon="11.054237419033006"><ele>1378.0</ele><time>2026-05-01T08:10:37Z</time></trkpt><trkpt lat="45.66906722846854" lon="11.054511750146233"><ele>1379.3333333333333</ele><time>2026-05-01T08:10:38Z</time></trkpt><trkpt lat="45.66896886379488" lon="11.054795372787474"><ele>1380.6666666666667</ele><time>2026-05-01T08:10:39Z</time></trkpt><trkpt lat="45.66887113883614" lon="11.055075677702444"><ele>1382.0</ele><time>2026-05-01T08:10:40Z</time></trkpt><trkpt lat="45.668781000776455" lon="11.05533363806921"><ele>1382.0</ele><time>2026-05-01T08:10:41Z</time></trkpt><trkpt lat="45.668701265645794" lon="11.055561289509743"><ele>1382.0</ele><time>2026-05-01T08:10:42Z</time></trkpt><trkpt lat="45.66862999890266" lon="11.055764970428411"><ele>1382.0</ele><time>2026-05-01T08:10:43Z</time></trkpt><trkpt lat="45.66857175304112" lon="11.055934929438207"><ele>1382.0</ele><time>2026-05-01T08:10:44Z</time></trkpt><trkpt lat="45.668539857166564" lon="11.05609201159583"><ele>1382.0</ele><time>2026-05-01T08:10:45Z</time></trkpt><trkpt lat="45.66851453943032" lon="11.056228537978473"><ele>1382.0</ele><time>2026-05-01T08:10:46Z</time></trkpt><trkpt lat="45.668497670714856" lon="11.056352079328132"><ele>1382.0</ele><time>2026-05-01T08:10:47Z</time></trkpt><trkpt lat="45.66856868734229" lon="11.05647237834151"><ele>1382.0</ele><time>2026-05-01T08:10:48Z</time></trkpt><trkpt lat="45.668693090231926" lon="11.05652644236292"><ele>1388.0</ele><time>2026-05-01T08:10:49Z</time></trkpt><trkpt lat="45.66882590154566" lon="11.056580806081719"><ele>1394.0</ele><time>2026-05-01T08:10:50Z</time></trkpt><trkpt lat="45.66897718115452" lon="11.056636053412847"><ele>1400.0</ele><time>2026-05-01T08:10:51Z</time></trkpt><trkpt lat="45.669134097951186" lon="11.056680743596033"><ele>1400.0</ele><time>2026-05-01T08:10:52Z</time></trkpt><trkpt lat="45.66930607425425" lon="11.056712323881891"><ele>1400.0</ele><time>2026-05-01T08:10:53Z</time></trkpt><trkpt lat="45.66948722704995" lon="11.056747817956843"><ele>1400.0</ele><time>2026-05-01T08:10:54Z</time></trkpt><trkpt lat="45.66967849831466" lon="11.05680892036733"><ele>1406.0</ele><time>2026-05-01T08:10:55Z</time></trkpt><trkpt lat="45.66987950889247" lon="11.056875758579547"><ele>1412.0</ele><time>2026-05-01T08:10:56Z</time></trkpt><trkpt lat="45.6700730085439" lon="11.056919692659253"><ele>1418.0</ele><time>2026-05-01T08:10:57Z</time></trkpt><trkpt lat="45.67022907529825" lon="11.057009058424429"><ele>1420.0</ele><time>2026-05-01T08:10:58Z</time></trkpt><trkpt lat="45.67035744901595" lon="11.057131006825061"><ele>1422.0</ele><time>2026-05-01T08:10:59Z</time></trkpt><trkpt lat="45.670467477616995" lon="11.057309605003113"><ele>1424.0</ele><time>2026-05-01T08:11:00Z</time></trkpt><trkpt lat="45.670592794230764" lon="11.057505089052478"><ele>1424.0</ele><time>2026-05-01T08:11:01Z</time></trkpt><trkpt lat="45.67074106277166" lon="11.057671855068731"><ele>1424.0</ele><time>2026-05-01T08:11:02Z</time></trkpt><trkpt lat="45.67089669015178" lon="11.057817894991981"><ele>1424.0</ele><time>2026-05-01T08:11:03Z</time></trkpt><trkpt lat="45.67103302961756" lon="11.057954257194082"><ele>1425.75</ele><time>2026-05-01T08:11:04Z</time></trkpt><trkpt lat="45.67114068937763" lon="11.058076401189222"><ele>1427.5</ele><time>2026-05-01T08:11:05Z</time></trkpt><trkpt lat="45.67122249715396" lon="11.058213373449377"><ele>1429.25</ele><time>2026-05-01T08:11:06Z</time></trkpt><trkpt lat="45.67128572316222" lon="11.058369714827178"><ele>1431.0</ele><time>2026-05-01T08:11:07Z</time></trkpt><trkpt lat="45.67131916425702" lon="11.0585480821237"><ele>1433.0</ele><time>2026-05-01T08:11:08Z</time></trkpt><trkpt lat="45.6713039059968" lon="11.058748367521993"><ele>1435.0</ele><time>2026-05-01T08:11:09Z</time></trkpt><trkpt lat="45.67125329260474" lon="11.058987777795714"><ele>1437.0</ele><time>2026-05-01T08:11:10Z</time></trkpt><trkpt lat="45.67116679801134" lon="11.059252466644248"><ele>1438.0</ele><time>2026-05-01T08:11:11Z</time></trkpt><trkpt lat="45.671073682551174" lon="11.059531399246552"><ele>1439.0</ele><time>2026-05-01T08:11:12Z</time></trkpt><trkpt lat="45.670986993711345" lon="11.059790003266587"><ele>1440.0</ele><time>2026-05-01T08:11:13Z</time></trkpt><trkpt lat="45.67091487899392" lon="11.060003333483014"><ele>1440.0</ele><time>2026-05-01T08:11:14Z</time></trkpt><trkpt lat="45.6708654971553" lon="11.060178452934577"><ele>1440.0</ele><time>2026-05-01T08:11:15Z</time></trkpt><trkpt lat="45.6708459280502" lon="11.060349901912996"><ele>1440.0</ele><time>2026-05-01T08:11:16Z</time></trkpt><trkpt lat="45.670905796814765" lon="11.06056111849766"><ele>1440.0</ele><time>2026-05-01T08:11:17Z</time></trkpt><trkpt lat="45.67097484673415" lon="11.060810706436179"><ele>1442.3333333333333</ele><time>2026-05-01T08:11:18Z</time></trkpt><trkpt lat="45.67104942721815" lon="11.061085719717232"><ele>1444.6666666666665</ele><time>2026-05-01T08:11:19Z</time></trkpt><trkpt lat="45.67113794396294" lon="11.061364026185817"><ele>1447.0</ele><time>2026-05-01T08:11:20Z</time></trkpt><trkpt lat="45.671234822366955" lon="11.061625887718245"><ele>1453.6666666666665</ele><time>2026-05-01T08:11:21Z</time></trkpt><trkpt lat="45.671343792443416" lon="11.061852545949597"><ele>1460.3333333333333</ele><time>2026-05-01T08:11:22Z</time></trkpt><trkpt lat="45.67148276794633" lon="11.062051951346339"><ele>1467.0</ele><time>2026-05-01T08:11:23Z</time></trkpt><trkpt lat="45.67165316584948" lon="11.062216311170758"><ele>1467.0</ele><time>2026-05-01T08:11:24Z</time></trkpt><trkpt lat="45.671844704973175" lon="11.062341205235157"><ele>1467.0</ele><time>2026-05-01T08:11:25Z</time></trkpt><trkpt lat="45.67206611916649" lon="11.062427651604379"><ele>1467.0</ele><time>2026-05-01T08:11:26Z</time></trkpt><trkpt lat="45.67229354274078" lon="11.06249096216078"><ele>1468.6666666666667</ele><time>2026-05-01T08:11:27Z</time></trkpt><trkpt lat="45.67249625492413" lon="11.062598779836884"><ele>1470.3333333333335</ele><time>2026-05-01T08:11:28Z</time></trkpt><trkpt lat="45.672688442541094" lon="11.062760998701846"><ele>1472.0</ele><time>2026-05-01T08:11:29Z</time></trkpt><trkpt lat="45.67288709295142" lon="11.062959155710503"><ele>1475.0</ele><time>2026-05-01T08:11:30Z</time></trkpt><trkpt lat="45.67308135646961" lon="11.063155303523613"><ele>1478.0</ele><time>2026-05-01T08:11:31Z</time></trkpt><trkpt lat="45.67325532875349" lon="11.063330966196661"><ele>1478.0</ele><time>2026-05-01T08:11:32Z</time></trkpt><trkpt lat="45.67340770192628" lon="11.063484820125158"><ele>1478.0</ele><time>2026-05-01T08:11:33Z</time></trkpt><trkpt lat="45.67355942145792" lon="11.063603622706895"><ele>1478.0</ele><time>2026-05-01T08:11:34Z</time></trkpt><trkpt lat="45.67368903414601" lon="11.063738482695076"><ele>1481.0</ele><time>2026-05-01T08:11:35Z</time></trkpt><trkpt lat="45.67382148526941" lon="11.06384545474331"><ele>1484.0</ele><time>2026-05-01T08:11:36Z</time></trkpt><trkpt lat="45.67396511200272" lon="11.06392113351062"><ele>1487.0</ele><time>2026-05-01T08:11:37Z</time></trkpt><trkpt lat="45.67411710409911" lon="11.06396647915131"><ele>1487.0</ele><time>2026-05-01T08:11:38Z</time></trkpt><trkpt lat="45.67428490372838" lon="11.063950972926063"><ele>1487.0</ele><time>2026-05-01T08:11:39Z</time></trkpt><trkpt lat="45.67445285666049" lon="11.063899137071443"><ele>1487.0</ele><time>2026-05-01T08:11:40Z</time></trkpt><trkpt lat="45.67462717691251" lon="11.063803700417214"><ele>1488.3333333333335</ele><time>2026-05-01T08:11:41Z</time></trkpt><trkpt lat="45.674808699497184" lon="11.063672913438955"><ele>1489.6666666666667</ele><time>2026-05-01T08:11:42Z</time></trkpt><trkpt lat="45.674993947081475" lon="11.063533165108804"><ele>1491.0</ele><time>2026-05-01T08:11:43Z</time></trkpt><trkpt lat="45.675191035244545" lon="11.063399636102403"><ele>1499.0</ele><time>2026-05-01T08:11:44Z</time></trkpt><trkpt lat="45.67539888733413" lon="11.063260750141785"><ele>1507.0</ele><time>2026-05-01T08:11:45Z</time></trkpt><trkpt lat="45.67560104136626" lon="11.063129971545823"><ele>1507.0</ele><time>2026-05-01T08:11:46Z</time></trkpt><trkpt lat="45.67579704944237" lon="11.063017135256406"><ele>1507.0</ele><time>2026-05-01T08:11:47Z</time></trkpt><trkpt lat="45.67598578959164" lon="11.062942023226121"><ele>1507.0</ele><time>2026-05-01T08:11:48Z</time></trkpt><trkpt lat="45.67615941047176" lon="11.062889409741603"><ele>1507.6</ele><time>2026-05-01T08:11:49Z</time></trkpt><trkpt lat="45.6763028878891" lon="11.062855535732469"><ele>1508.1999999999998</ele><time>2026-05-01T08:11:50Z</time></trkpt><trkpt lat="45.67640454190014" lon="11.0628610124722"><ele>1508.8</ele><time>2026-05-01T08:11:51Z</time></trkpt><trkpt lat="45.67647927379722" lon="11.062930326125656"><ele>1509.4</ele><time>2026-05-01T08:11:52Z</time></trkpt><trkpt lat="45.676520186825705" lon="11.063059570761567"><ele>1510.0</ele><time>2026-05-01T08:11:53Z</time></trkpt><trkpt lat="45.67650587918269" lon="11.063216281865369"><ele>1508.0</ele><time>2026-05-01T08:11:54Z</time></trkpt><trkpt lat="45.67642100765683" lon="11.063350219548454"><ele>1506.0</ele><time>2026-05-01T08:11:55Z</time></trkpt><trkpt lat="45.67629567776394" lon="11.063441120614527"><ele>1504.0</ele><time>2026-05-01T08:11:56Z</time></trkpt><trkpt lat="45.67614408314579" lon="11.063506937043991"><ele>1502.0</ele><time>2026-05-01T08:11:57Z</time></trkpt><trkpt lat="45.67600913107426" lon="11.063604911341"><ele>1502.6666666666667</ele><time>2026-05-01T08:11:58Z</time></trkpt><trkpt lat="45.67590968330314" lon="11.063766913695389"><ele>1503.3333333333333</ele><time>2026-05-01T08:11:59Z</time></trkpt><trkpt lat="45.675828664056645" lon="11.063986572871228"><ele>1504.0</ele><time>2026-05-01T08:12:00Z</time></trkpt><trkpt lat="45.67577696497186" lon="11.064251087114123"><ele>1504.0</ele><time>2026-05-01T08:12:01Z</time></trkpt><trkpt lat="45.675742294699404" lon="11.064553956938276"><ele>1504.0</ele><time>2026-05-01T08:12:02Z</time></trkpt><trkpt lat="45.67571895716363" lon="11.064847699289514"><ele>1504.0</ele><time>2026-05-01T08:12:03Z</time></trkpt><trkpt lat="45.675665406554444" lon="11.065091998088034"><ele>1503.0</ele><time>2026-05-01T08:12:04Z</time></trkpt><trkpt lat="45.67556887702428" lon="11.065318058123058"><ele>1502.0</ele><time>2026-05-01T08:12:05Z</time></trkpt><trkpt lat="45.67542724192497" lon="11.06553591747591"><ele>1501.0</ele><time>2026-05-01T08:12:06Z</time></trkpt><trkpt lat="45.675252395514356" lon="11.065705472533661"><ele>1506.0</ele><time>2026-05-01T08:12:07Z</time></trkpt><trkpt lat="45.675086809273985" lon="11.06582803141827"><ele>1511.0</ele><time>2026-05-01T08:12:08Z</time></trkpt><trkpt lat="45.67495499713496" lon="11.06593836424066"><ele>1516.0</ele><time>2026-05-01T08:12:09Z</time></trkpt><trkpt lat="45.674852152252726" lon="11.066038574366106"><ele>1516.0</ele><time>2026-05-01T08:12:10Z</time></trkpt><trkpt lat="45.674782441609295" lon="11.0661602116417"><ele>1516.0</ele><time>2026-05-01T08:12:11Z</time></trkpt><trkpt lat="45.67476715264245" lon="11.066335076502831"><ele>1516.0</ele><time>2026-05-01T08:12:12Z</time></trkpt><trkpt lat="45.674792823168566" lon="11.066519678609748"><ele>1516.0</ele><time>2026-05-01T08:12:13Z</time></trkpt><trkpt lat="45.67486434784374" lon="11.066673655111543"><ele>1517.5</ele><time>2026-05-01T08:12:14Z</time></trkpt><trkpt lat="45.67497144835593" lon="11.066762395868432"><ele>1519.0</ele><time>2026-05-01T08:12:15Z</time></trkpt><trkpt lat="45.67510231680644" lon="11.066765356969436"><ele>1520.5</ele><time>2026-05-01T08:12:16Z</time></trkpt><trkpt lat="45.675229613660775" lon="11.066688728008437"><ele>1522.0</ele><time>2026-05-01T08:12:17Z</time></trkpt><trkpt lat="45.6753630705602" lon="11.066547503292732"><ele>1524.3333333333333</ele><time>2026-05-01T08:12:18Z</time></trkpt><trkpt lat="45.67551583239478" lon="11.066383633266565"><ele>1526.6666666666667</ele><time>2026-05-01T08:12:19Z</time></trkpt><trkpt lat="45.675693105833126" lon="11.066225336932265"><ele>1529.0</ele><time>2026-05-01T08:12:20Z</time></trkpt><trkpt lat="45.67590071784484" lon="11.06609103798921"><ele>1536.0</ele><time>2026-05-01T08:12:21Z</time></trkpt><trkpt lat="45.67612791918415" lon="11.065971116428342"><ele>1543.0</ele><time>2026-05-01T08:12:22Z</time></trkpt><trkpt lat="45.67636627218573" lon="11.06584379927303"><ele>1536.0</ele><time>2026-05-01T08:12:23Z</time></trkpt><trkpt lat="45.676614072942044" lon="11.065701925978296"><ele>1529.0</ele><time>2026-05-01T08:12:23.999Z</time></trkpt><trkpt lat="45.676863575420484" lon="11.065558104421212"><ele>1533.0</ele><time>2026-05-01T08:12:25Z</time></trkpt><trkpt lat="45.67708547309249" lon="11.065436003502736"><ele>1537.0</ele><time>2026-05-01T08:12:26Z</time></trkpt><trkpt lat="45.6772655977261" lon="11.06533623725243"><ele>1541.0</ele><time>2026-05-01T08:12:27Z</time></trkpt><trkpt lat="45.67741621957577" lon="11.065244577571034"><ele>1541.0</ele><time>2026-05-01T08:12:28Z</time></trkpt><trkpt lat="45.677544646692624" lon="11.065172561718938"><ele>1541.0</ele><time>2026-05-01T08:12:29Z</time></trkpt><trkpt lat="45.67765077824153" lon="11.06512397014724"><ele>1541.0</ele><time>2026-05-01T08:12:30Z</time></trkpt><trkpt lat="45.67775149768532" lon="11.06512512575153"><ele>1541.0</ele><time>2026-05-01T08:12:31Z</time></trkpt><trkpt lat="45.677841395872946" lon="11.065212003896903"><ele>1544.0</ele><time>2026-05-01T08:12:32Z</time></trkpt><trkpt lat="45.67789503397112" lon="11.06537150628382"><ele>1547.0</ele><time>2026-05-01T08:12:33Z</time></trkpt><trkpt lat="45.67788559851764" lon="11.065554906578868"><ele>1550.0</ele><time>2026-05-01T08:12:34Z</time></trkpt><trkpt lat="45.677803221047576" lon="11.065720389027904"><ele>1553.0</ele><time>2026-05-01T08:12:35Z</time></trkpt><trkpt lat="45.67766170075333" lon="11.065827033794166"><ele>1553.0</ele><time>2026-05-01T08:12:36Z</time></trkpt><trkpt lat="45.67747984352819" lon="11.065905225673598"><ele>1553.0</ele><time>2026-05-01T08:12:37Z</time></trkpt><trkpt lat="45.677285512923426" lon="11.065995753921474"><ele>1553.0</ele><time>2026-05-01T08:12:38Z</time></trkpt><trkpt lat="45.67710048910812" lon="11.066123382295839"><ele>1553.0</ele><time>2026-05-01T08:12:39Z</time></trkpt><trkpt lat="45.67695343374301" lon="11.066261759770043"><ele>1553.0</ele><time>2026-05-01T08:12:40Z</time></trkpt><trkpt lat="45.676841402155276" lon="11.06640943650123"><ele>1553.0</ele><time>2026-05-01T08:12:41Z</time></trkpt><trkpt lat="45.67676267663974" lon="11.066578619267235"><ele>1553.0</ele><time>2026-05-01T08:12:42Z</time></trkpt><trkpt lat="45.67672531800407" lon="11.066785561458918"><ele>1553.0</ele><time>2026-05-01T08:12:43Z</time></trkpt><trkpt lat="45.67672889393692" lon="11.067034719384656"><ele>1553.0</ele><time>2026-05-01T08:12:44Z</time></trkpt><trkpt lat="45.67675500115745" lon="11.067302095564676"><ele>1554.3333333333333</ele><time>2026-05-01T08:12:45Z</time></trkpt><trkpt lat="45.676793266806484" lon="11.067550763275786"><ele>1555.6666666666665</ele><time>2026-05-01T08:12:46Z</time></trkpt><trkpt lat="45.67684285144574" lon="11.067766181163385"><ele>1557.0</ele><time>2026-05-01T08:12:47Z</time></trkpt><trkpt lat="45.676922851480576" lon="11.067959154399821"><ele>1561.6666666666665</ele><time>2026-05-01T08:12:48Z</time></trkpt><trkpt lat="45.6770436284208" lon="11.068124214039472"><ele>1566.3333333333333</ele><time>2026-05-01T08:12:49Z</time></trkpt><trkpt lat="45.677209634644726" lon="11.068276743509529"><ele>1571.0</ele><time>2026-05-01T08:12:50Z</time></trkpt><trkpt lat="45.67740211414329" lon="11.068397179847393"><ele>1571.0</ele><time>2026-05-01T08:12:51Z</time></trkpt><trkpt lat="45.67762038729828" lon="11.068499178039344"><ele>1571.0</ele><time>2026-05-01T08:12:52Z</time></trkpt><trkpt lat="45.67784920982964" lon="11.068608431168629"><ele>1576.6666666666665</ele><time>2026-05-01T08:12:53Z</time></trkpt><trkpt lat="45.67804921217372" lon="11.06871586126514"><ele>1582.3333333333335</ele><time>2026-05-01T08:12:54Z</time></trkpt><trkpt lat="45.678225586863064" lon="11.068823703455603"><ele>1588.0</ele><time>2026-05-01T08:12:55Z</time></trkpt><trkpt lat="45.67838207727886" lon="11.068965125348234"><ele>1589.6666666666667</ele><time>2026-05-01T08:12:56Z</time></trkpt><trkpt lat="45.678520899803644" lon="11.069175693713797"><ele>1591.3333333333335</ele><time>2026-05-01T08:12:57Z</time></trkpt><trkpt lat="45.67863022728444" lon="11.0694490085718"><ele>1593.0</ele><time>2026-05-01T08:12:58Z</time></trkpt><trkpt lat="45.67872582185799" lon="11.069730696877023"><ele>1590.0</ele><time>2026-05-01T08:12:59Z</time></trkpt><trkpt lat="45.67881979119239" lon="11.069955882634666"><ele>1587.0</ele><time>2026-05-01T08:13:00Z</time></trkpt><trkpt lat="45.6789197279365" lon="11.070138335701584"><ele>1584.0</ele><time>2026-05-01T08:13:01Z</time></trkpt><trkpt lat="45.67903431148198" lon="11.070256056138788"><ele>1584.0</ele><time>2026-05-01T08:13:02Z</time></trkpt><trkpt lat="45.67916525910685" lon="11.070306936837314"><ele>1584.0</ele><time>2026-05-01T08:13:03Z</time></trkpt><trkpt lat="45.679316172885684" lon="11.07028477591855"><ele>1584.0</ele><time>2026-05-01T08:13:04Z</time></trkpt><trkpt lat="45.67948531516148" lon="11.070205502732428"><ele>1583.6666666666665</ele><time>2026-05-01T08:13:05Z</time></trkpt><trkpt lat="45.67966225051866" lon="11.070085274673366"><ele>1583.3333333333333</ele><time>2026-05-01T08:13:06Z</time></trkpt><trkpt lat="45.67982120064162" lon="11.069977315491967"><ele>1583.0</ele><time>2026-05-01T08:13:07Z</time></trkpt><trkpt lat="45.67996107375186" lon="11.069899072920073"><ele>1582.4</ele><time>2026-05-01T08:13:08Z</time></trkpt><trkpt lat="45.680080830050485" lon="11.069834775678814"><ele>1581.8000000000002</ele><time>2026-05-01T08:13:09Z</time></trkpt><trkpt lat="45.68018236880184" lon="11.069777755506578"><ele>1581.2</ele><time>2026-05-01T08:13:10Z</time></trkpt><trkpt lat="45.68027150367112" lon="11.069731399961093"><ele>1580.6</ele><time>2026-05-01T08:13:11Z</time></trkpt><trkpt lat="45.68034627829633" lon="11.069691770867296"><ele>1580.0</ele><time>2026-05-01T08:13:12Z</time></trkpt><trkpt lat="45.68044066638892" lon="11.069631972391846"><ele>1579.9999999999998</ele><time>2026-05-01T08:13:14Z</time></trkpt><trkpt lat="45.680496270094565" lon="11.069585993100631"><ele>1580.0</ele><time>2026-05-01T08:13:16Z</time></trkpt><trkpt lat="45.6805654854959" lon="11.069519785814746"><ele>1580.0</ele><time>2026-05-01T08:13:18Z</time></trkpt><trkpt lat="45.68064293539554" lon="11.069441370146684"><ele>1580.0</ele><time>2026-05-01T08:13:20Z</time></trkpt><trkpt lat="45.68072258071818" lon="11.069362687880592"><ele>1579.9999999999998</ele><time>2026-05-01T08:13:22Z</time></trkpt><trkpt lat="45.68078585184251" lon="11.069326834916689"><ele>1580.0</ele><time>2026-05-01T08:13:24Z</time></trkpt><trkpt lat="45.68083995593931" lon="11.069272753835103"><ele>1579.9999999999998</ele><time>2026-05-01T08:13:44Z</time></trkpt><trkpt lat="45.68078309189992" lon="11.069230521045926"><ele>1580.0</ele><time>2026-05-01T08:13:49Z</time></trkpt><trkpt lat="45.68070429799453" lon="11.069310893905497"><ele>1580.0</ele><time>2026-05-01T08:13:52Z</time></trkpt><trkpt lat="45.68063915186314" lon="11.069376239559682"><ele>1580.0</ele><time>2026-05-01T08:13:54Z</time></trkpt><trkpt lat="45.68056344057869" lon="11.069446325814992"><ele>1579.9999999999998</ele><time>2026-05-01T08:13:56Z</time></trkpt><trkpt lat="45.68047399341763" lon="11.069534855667298"><ele>1580.0</ele><time>2026-05-01T08:13:58Z</time></trkpt><trkpt lat="45.680376334211786" lon="11.069608149177197"><ele>1580.0</ele><time>2026-05-01T08:14:00Z</time></trkpt><trkpt lat="45.68027714311925" lon="11.069664376889813"><ele>1580.0</ele><time>2026-05-01T08:14:02Z</time></trkpt><trkpt lat="45.680182508031564" lon="11.06972075401471"><ele>1580.0</ele><time>2026-05-01T08:14:04Z</time></trkpt><trkpt lat="45.68009358184753" lon="11.069776447391774"><ele>1580.0</ele><time>2026-05-01T08:14:06Z</time></trkpt><trkpt lat="45.680007772952514" lon="11.069830621942122"><ele>1580.0</ele><time>2026-05-01T08:14:08Z</time></trkpt><trkpt lat="45.67991517470345" lon="11.069875705513168"><ele>1580.4999999999998</ele><time>2026-05-01T08:14:10Z</time></trkpt><trkpt lat="45.679839013117494" lon="11.069929802516745"><ele>1581.0</ele><time>2026-05-01T08:14:12Z</time></trkpt><trkpt lat="45.67987729850635" lon="11.070016793341793"><ele>1581.5</ele><time>2026-05-01T08:14:15Z</time></trkpt><trkpt lat="45.679934249622924" lon="11.069970484848977"><ele>1582.0</ele><time>2026-05-01T08:14:19Z</time></trkpt><trkpt lat="45.679994689880566" lon="11.069896484961802"><ele>1582.4999999999998</ele><time>2026-05-01T08:14:22.999Z</time></trkpt><trkpt lat="45.68006065541965" lon="11.06987643018927"><ele>1583.0</ele><time>2026-05-01T08:14:26.999Z</time></trkpt><trkpt lat="45.68013798508796" lon="11.069822093396951"><ele>1582.4999999999998</ele><time>2026-05-01T08:14:52Z</time></trkpt><trkpt lat="45.68022743971537" lon="11.069762560803396"><ele>1582.0</ele><time>2026-05-01T08:14:55Z</time></trkpt><trkpt lat="45.680296741229334" lon="11.069719155018188"><ele>1581.5</ele><time>2026-05-01T08:14:57Z</time></trkpt><trkpt lat="45.68037125730081" lon="11.069668034018832"><ele>1581.0</ele><time>2026-05-01T08:14:59Z</time></trkpt><trkpt lat="45.68045037707095" lon="11.069610424476908"><ele>1580.4999999999998</ele><time>2026-05-01T08:15:01Z</time></trkpt><trkpt lat="45.68053511972084" lon="11.069529373460833"><ele>1580.0</ele><time>2026-05-01T08:15:03Z</time></trkpt><trkpt lat="45.68062558732574" lon="11.069450291675116"><ele>1579.9999999999998</ele><time>2026-05-01T08:15:05Z</time></trkpt><trkpt lat="45.680709571802396" lon="11.069373636525244"><ele>1580.0</ele><time>2026-05-01T08:15:07Z</time></trkpt><trkpt lat="45.68077934297416" lon="11.06932175339532"><ele>1580.0</ele><time>2026-05-01T08:15:09Z</time></trkpt><trkpt lat="45.68085044099438" lon="11.06930194376919"><ele>1580.0</ele><time>2026-05-01T08:15:13Z</time></trkpt><trkpt lat="45.68090946563569" lon="11.069259598707719"><ele>1579.9999999999998</ele><time>2026-05-01T08:28:57Z</time></trkpt><trkpt lat="45.680941673954166" lon="11.06918050498722"><ele>1580.0</ele><time>2026-05-01T08:32:32Z</time></trkpt><trkpt lat="45.68098776301819" lon="11.069098109289701"><ele>1580.2</ele><time>2026-05-01T08:32:49Z</time></trkpt><trkpt lat="45.68108224911844" lon="11.06903260139682"><ele>1580.4</ele><time>2026-05-01T08:32:51Z</time></trkpt><trkpt lat="45.68117113881982" lon="11.069029004426278"><ele>1580.6</ele><time>2026-05-01T08:32:52Z</time></trkpt><trkpt lat="45.681265675657805" lon="11.069059071730411"><ele>1580.8</ele><time>2026-05-01T08:32:53Z</time></trkpt><trkpt lat="45.68136203750031" lon="11.069126228556481"><ele>1581.0</ele><time>2026-05-01T08:32:54Z</time></trkpt><trkpt lat="45.68144204417626" lon="11.069253289820502"><ele>1581.0</ele><time>2026-05-01T08:32:55Z</time></trkpt><trkpt lat="45.68145108675364" lon="11.069444614009688"><ele>1581.0</ele><time>2026-05-01T08:32:56Z</time></trkpt><trkpt lat="45.68145688562994" lon="11.069648980950069"><ele>1581.0</ele><time>2026-05-01T08:32:57Z</time></trkpt><trkpt lat="45.68145575401841" lon="11.069903477398965"><ele>1580.0</ele><time>2026-05-01T08:32:58Z</time></trkpt><trkpt lat="45.681451208650024" lon="11.07019780841332"><ele>1579.0</ele><time>2026-05-01T08:32:59Z</time></trkpt><trkpt lat="45.681446414392866" lon="11.070508256025068"><ele>1578.0</ele><time>2026-05-01T08:33:00Z</time></trkpt><trkpt lat="45.68145817992088" lon="11.070814165841393"><ele>1577.0</ele><time>2026-05-01T08:33:01Z</time></trkpt><trkpt lat="45.68143738152155" lon="11.07110219573803"><ele>1576.0</ele><time>2026-05-01T08:33:02Z</time></trkpt><trkpt lat="45.68143515041899" lon="11.071387248066143"><ele>1575.0</ele><time>2026-05-01T08:33:03Z</time></trkpt><trkpt lat="45.681433193353406" lon="11.071664745346146"><ele>1574.0</ele><time>2026-05-01T08:33:04Z</time></trkpt><trkpt lat="45.68143780822977" lon="11.071931549746372"><ele>1573.0</ele><time>2026-05-01T08:33:05Z</time></trkpt><trkpt lat="45.68147012288839" lon="11.072189237084453"><ele>1572.0</ele><time>2026-05-01T08:33:06Z</time></trkpt><trkpt lat="45.681511996914004" lon="11.072436674922134"><ele>1568.3333333333335</ele><time>2026-05-01T08:33:07Z</time></trkpt><trkpt lat="45.68157303575857" lon="11.072655120235494"><ele>1564.6666666666667</ele><time>2026-05-01T08:33:08Z</time></trkpt><trkpt lat="45.68166715646392" lon="11.07284780467277"><ele>1561.0</ele><time>2026-05-01T08:33:09Z</time></trkpt><trkpt lat="45.68180752497559" lon="11.073008594338384"><ele>1563.3333333333335</ele><time>2026-05-01T08:33:10Z</time></trkpt><trkpt lat="45.68198808472352" lon="11.073151827506466"><ele>1565.6666666666665</ele><time>2026-05-01T08:33:11Z</time></trkpt><trkpt lat="45.68219916986241" lon="11.073286007825645"><ele>1568.0</ele><time>2026-05-01T08:33:12Z</time></trkpt><trkpt lat="45.68241829701192" lon="11.073424260798694"><ele>1559.5</ele><time>2026-05-01T08:33:13Z</time></trkpt><trkpt lat="45.68264052168137" lon="11.073587973906065"><ele>1551.0</ele><time>2026-05-01T08:33:14Z</time></trkpt><trkpt lat="45.68285847090004" lon="11.073759329156731"><ele>1551.0</ele><time>2026-05-01T08:33:15Z</time></trkpt><trkpt lat="45.68308294420735" lon="11.073927526452527"><ele>1551.0</ele><time>2026-05-01T08:33:16Z</time></trkpt><trkpt lat="45.68330395450711" lon="11.074087545337976"><ele>1551.0</ele><time>2026-05-01T08:33:17Z</time></trkpt><trkpt lat="45.683525742651206" lon="11.074249782177832"><ele>1551.0</ele><time>2026-05-01T08:33:18Z</time></trkpt><trkpt lat="45.68374462455199" lon="11.07441642705021"><ele>1558.5</ele><time>2026-05-01T08:33:19Z</time></trkpt><trkpt lat="45.68396710134143" lon="11.074579471446862"><ele>1566.0</ele><time>2026-05-01T08:33:20Z</time></trkpt><trkpt lat="45.68418924239707" lon="11.074736418287399"><ele>1566.0</ele><time>2026-05-01T08:33:21Z</time></trkpt><trkpt lat="45.68440768434412" lon="11.074897686572037"><ele>1566.0</ele><time>2026-05-01T08:33:22Z</time></trkpt><trkpt lat="45.68462771667354" lon="11.07505040456961"><ele>1563.0</ele><time>2026-05-01T08:33:23Z</time></trkpt><trkpt lat="45.68483827826948" lon="11.07521219433643"><ele>1560.0</ele><time>2026-05-01T08:33:24Z</time></trkpt><trkpt lat="45.68504861670699" lon="11.07537519372932"><ele>1560.0</ele><time>2026-05-01T08:33:24.999Z</time></trkpt><trkpt lat="45.68525933610436" lon="11.075528486306283"><ele>1560.0</ele><time>2026-05-01T08:33:25.999Z</time></trkpt><trkpt lat="45.68547033566486" lon="11.07568003905854"><ele>1555.5</ele><time>2026-05-01T08:33:26.999Z</time></trkpt><trkpt lat="45.68568014171661" lon="11.075834908661005"><ele>1551.0</ele><time>2026-05-01T08:33:27.999Z</time></trkpt><trkpt lat="45.68588608073173" lon="11.075992982717043"><ele>1552.0</ele><time>2026-05-01T08:33:28.999Z</time></trkpt><trkpt lat="45.68609528425209" lon="11.076148378871254"><ele>1553.0</ele><time>2026-05-01T08:33:29.999Z</time></trkpt><trkpt lat="45.68630345470019" lon="11.076303626601772"><ele>1553.0</ele><time>2026-05-01T08:33:30.999Z</time></trkpt><trkpt lat="45.68650432420934" lon="11.076450031093247"><ele>1553.0</ele><time>2026-05-01T08:33:31.999Z</time></trkpt><trkpt lat="45.686696409706165" lon="11.07659340965052"><ele>1553.0</ele><time>2026-05-01T08:33:32.999Z</time></trkpt><trkpt lat="45.686877365893125" lon="11.076723298505966"><ele>1550.0</ele><time>2026-05-01T08:33:33.999Z</time></trkpt><trkpt lat="45.68705281786654" lon="11.076852984272389"><ele>1547.0</ele><time>2026-05-01T08:33:34.999Z</time></trkpt><trkpt lat="45.687215204715706" lon="11.076982509912565"><ele>1544.0</ele><time>2026-05-01T08:33:35.999Z</time></trkpt><trkpt lat="45.6873571934896" lon="11.07711954455417"><ele>1544.0</ele><time>2026-05-01T08:33:36.999Z</time></trkpt><trkpt lat="45.68747845178078" lon="11.077272973081126"><ele>1544.0</ele><time>2026-05-01T08:33:37.999Z</time></trkpt><trkpt lat="45.687544389866815" lon="11.077473043522573"><ele>1544.0</ele><time>2026-05-01T08:33:38.999Z</time></trkpt><trkpt lat="45.687593237059424" lon="11.07769540794093"><ele>1543.0</ele><time>2026-05-01T08:33:39.999Z</time></trkpt><trkpt lat="45.68761602045363" lon="11.077943265476282"><ele>1542.0</ele><time>2026-05-01T08:33:40.999Z</time></trkpt><trkpt lat="45.68760154823778" lon="11.07819671348629"><ele>1541.0</ele><time>2026-05-01T08:33:41.999Z</time></trkpt><trkpt lat="45.68754976047375" lon="11.07844561917616"><ele>1540.6666666666665</ele><time>2026-05-01T08:33:42.999Z</time></trkpt><trkpt lat="45.68748699065579" lon="11.078707100053352"><ele>1540.3333333333335</ele><time>2026-05-01T08:33:43.999Z</time></trkpt><trkpt lat="45.68731183535637" lon="11.078869202781808"><ele>1540.0</ele><time>2026-05-01T08:33:44.999Z</time></trkpt><trkpt lat="45.6871271591131" lon="11.079044118123814"><ele>1536.0</ele><time>2026-05-01T08:33:45.999Z</time></trkpt><trkpt lat="45.68691564579795" lon="11.079216317272335"><ele>1532.0</ele><time>2026-05-01T08:33:46.999Z</time></trkpt><trkpt lat="45.68669940548476" lon="11.079400505030856"><ele>1532.0</ele><time>2026-05-01T08:33:47.999Z</time></trkpt><trkpt lat="45.68649203795046" lon="11.07957878543295"><ele>1532.0</ele><time>2026-05-01T08:33:48.999Z</time></trkpt><trkpt lat="45.686307588228225" lon="11.07973736267777"><ele>1532.0</ele><time>2026-05-01T08:33:49.999Z</time></trkpt><trkpt lat="45.68613431705645" lon="11.079886329356565"><ele>1532.0</ele><time>2026-05-01T08:33:50.999Z</time></trkpt><trkpt lat="45.68600034272234" lon="11.080049713229101"><ele>1532.0</ele><time>2026-05-01T08:33:51.999Z</time></trkpt><trkpt lat="45.685874311248284" lon="11.08020028419686"><ele>1530.6666666666667</ele><time>2026-05-01T08:33:52.999Z</time></trkpt><trkpt lat="45.68577803988873" lon="11.080404130953715"><ele>1529.3333333333333</ele><time>2026-05-01T08:33:53.999Z</time></trkpt><trkpt lat="45.685732527094466" lon="11.080638411024681"><ele>1528.0</ele><time>2026-05-01T08:33:54.999Z</time></trkpt><trkpt lat="45.68573359486541" lon="11.080901574350786"><ele>1524.6666666666665</ele><time>2026-05-01T08:33:55.999Z</time></trkpt><trkpt lat="45.68577119624199" lon="11.081188900057363"><ele>1521.3333333333333</ele><time>2026-05-01T08:33:56.999Z</time></trkpt><trkpt lat="45.68583463601315" lon="11.081484199288024"><ele>1518.0</ele><time>2026-05-01T08:33:57.999Z</time></trkpt><trkpt lat="45.68587849887823" lon="11.081751395307384"><ele>1516.3333333333333</ele><time>2026-05-01T08:33:59Z</time></trkpt><trkpt lat="45.68590549889111" lon="11.081999144419212"><ele>1514.6666666666665</ele><time>2026-05-01T08:34:00Z</time></trkpt><trkpt lat="45.68590655905787" lon="11.082218036154117"><ele>1513.0</ele><time>2026-05-01T08:34:01Z</time></trkpt><trkpt lat="45.68586333589431" lon="11.082405895097114"><ele>1511.75</ele><time>2026-05-01T08:34:02Z</time></trkpt><trkpt lat="45.6858074338606" lon="11.082591591623274"><ele>1510.5</ele><time>2026-05-01T08:34:03Z</time></trkpt><trkpt lat="45.68574262533278" lon="11.082782793862878"><ele>1509.25</ele><time>2026-05-01T08:34:04Z</time></trkpt><trkpt lat="45.68566586725914" lon="11.082959144162361"><ele>1508.0</ele><time>2026-05-01T08:34:05Z</time></trkpt><trkpt lat="45.68558521605931" lon="11.083126495297218"><ele>1509.25</ele><time>2026-05-01T08:34:06Z</time></trkpt><trkpt lat="45.68550180487166" lon="11.083280811214685"><ele>1510.5</ele><time>2026-05-01T08:34:07Z</time></trkpt><trkpt lat="45.68542566752182" lon="11.083437178275586"><ele>1511.75</ele><time>2026-05-01T08:34:08Z</time></trkpt><trkpt lat="45.685332643331854" lon="11.083574800656663"><ele>1513.0</ele><time>2026-05-01T08:34:09Z</time></trkpt><trkpt lat="45.68524579250566" lon="11.08369484165548"><ele>1513.0</ele><time>2026-05-01T08:34:10Z</time></trkpt><trkpt lat="45.685161804482995" lon="11.08379700897978"><ele>1513.0</ele><time>2026-05-01T08:34:11Z</time></trkpt><trkpt lat="45.68508326984517" lon="11.083886629721732"><ele>1513.0</ele><time>2026-05-01T08:34:12Z</time></trkpt><trkpt lat="45.68500675080472" lon="11.083961203128627"><ele>1513.0</ele><time>2026-05-01T08:34:13Z</time></trkpt><trkpt lat="45.68492345811086" lon="11.084022718483169"><ele>1513.0</ele><time>2026-05-01T08:34:14Z</time></trkpt><trkpt lat="45.68483535605983" lon="11.084070102061453"><ele>1511.0</ele><time>2026-05-01T08:34:15Z</time></trkpt><trkpt lat="45.68475206596098" lon="11.084111337991066"><ele>1509.0</ele><time>2026-05-01T08:34:16Z</time></trkpt><trkpt lat="45.68466884655734" lon="11.084161291246192"><ele>1507.0</ele><time>2026-05-01T08:34:17Z</time></trkpt><trkpt lat="45.68458892440941" lon="11.084213313672336"><ele>1505.0</ele><time>2026-05-01T08:34:18Z</time></trkpt><trkpt lat="45.68451153674994" lon="11.08427238298882"><ele>1503.0</ele><time>2026-05-01T08:34:19Z</time></trkpt><trkpt lat="45.68443848927521" lon="11.084325322829622"><ele>1501.0</ele><time>2026-05-01T08:34:20Z</time></trkpt><trkpt lat="45.68436912431459" lon="11.084366078177625"><ele>1501.0</ele><time>2026-05-01T08:34:21Z</time></trkpt><trkpt lat="45.684305841737384" lon="11.084411967416322"><ele>1501.0</ele><time>2026-05-01T08:34:22Z</time></trkpt><trkpt lat="45.68419111746172" lon="11.084484807114805"><ele>1501.0</ele><time>2026-05-01T08:34:24Z</time></trkpt><trkpt lat="45.68413339005966" lon="11.084521931117939"><ele>1501.0</ele><time>2026-05-01T08:34:25Z</time></trkpt><trkpt lat="45.6840283332828" lon="11.084591873653427"><ele>1501.0</ele><time>2026-05-01T08:34:27Z</time></trkpt><trkpt lat="45.6839244918598" lon="11.084667006055176"><ele>1501.0</ele><time>2026-05-01T08:34:29Z</time></trkpt><trkpt lat="45.68382303577388" lon="11.084755484848873"><ele>1501.0</ele><time>2026-05-01T08:34:31Z</time></trkpt><trkpt lat="45.683769635553084" lon="11.084812213719292"><ele>1501.0</ele><time>2026-05-01T08:34:32Z</time></trkpt><trkpt lat="45.683715490921806" lon="11.08487629012349"><ele>1501.0</ele><time>2026-05-01T08:34:33Z</time></trkpt><trkpt lat="45.68365589112079" lon="11.084955479369812"><ele>1501.0</ele><time>2026-05-01T08:34:34Z</time></trkpt><trkpt lat="45.68359580338626" lon="11.08506234756688"><ele>1501.0</ele><time>2026-05-01T08:34:35Z</time></trkpt><trkpt lat="45.68352956472442" lon="11.085202608147785"><ele>1494.6666666666665</ele><time>2026-05-01T08:34:36Z</time></trkpt><trkpt lat="45.68345514033033" lon="11.085376010278317"><ele>1488.3333333333333</ele><time>2026-05-01T08:34:37Z</time></trkpt><trkpt lat="45.68336867792049" lon="11.085567821585062"><ele>1482.0</ele><time>2026-05-01T08:34:38Z</time></trkpt><trkpt lat="45.68327657876435" lon="11.085775238062528"><ele>1478.6666666666667</ele><time>2026-05-01T08:34:39Z</time></trkpt><trkpt lat="45.68317401765124" lon="11.08599620644995"><ele>1475.3333333333335</ele><time>2026-05-01T08:34:40Z</time></trkpt><trkpt lat="45.68305900868333" lon="11.086240217110092"><ele>1472.0</ele><time>2026-05-01T08:34:41Z</time></trkpt><trkpt lat="45.68293500181775" lon="11.086497401611503"><ele>1470.5</ele><time>2026-05-01T08:34:42Z</time></trkpt><trkpt lat="45.682779498050174" lon="11.086734619509244"><ele>1469.0</ele><time>2026-05-01T08:34:43Z</time></trkpt><trkpt lat="45.682598480093624" lon="11.086940674591343"><ele>1468.0</ele><time>2026-05-01T08:34:44Z</time></trkpt><trkpt lat="45.682416448688514" lon="11.087148426533219"><ele>1467.0</ele><time>2026-05-01T08:34:45Z</time></trkpt><trkpt lat="45.68224390557828" lon="11.087353531330495"><ele>1467.6666666666667</ele><time>2026-05-01T08:34:46Z</time></trkpt><trkpt lat="45.68208352658915" lon="11.087543133893687"><ele>1468.3333333333335</ele><time>2026-05-01T08:34:47Z</time></trkpt><trkpt lat="45.68192105222277" lon="11.087723067739363"><ele>1469.0</ele><time>2026-05-01T08:34:48Z</time></trkpt><trkpt lat="45.68173799614486" lon="11.087861326281534"><ele>1467.3333333333335</ele><time>2026-05-01T08:34:49Z</time></trkpt><trkpt lat="45.68153113521765" lon="11.08795168896755"><ele>1465.6666666666667</ele><time>2026-05-01T08:34:50Z</time></trkpt><trkpt lat="45.68132040373307" lon="11.088038512622823"><ele>1464.0</ele><time>2026-05-01T08:34:51Z</time></trkpt><trkpt lat="45.681105344043516" lon="11.088140267406601"><ele>1461.0</ele><time>2026-05-01T08:34:52Z</time></trkpt><trkpt lat="45.68089372209171" lon="11.088249498362826"><ele>1458.0</ele><time>2026-05-01T08:34:53Z</time></trkpt><trkpt lat="45.68067528210688" lon="11.088363504731158"><ele>1458.0</ele><time>2026-05-01T08:34:54Z</time></trkpt><trkpt lat="45.68044951678321" lon="11.088475743731573"><ele>1458.0</ele><time>2026-05-01T08:34:55Z</time></trkpt><trkpt lat="45.68021393336462" lon="11.088593927369832"><ele>1454.0</ele><time>2026-05-01T08:34:56Z</time></trkpt><trkpt lat="45.67998407421042" lon="11.08871506498238"><ele>1450.0</ele><time>2026-05-01T08:34:57Z</time></trkpt><trkpt lat="45.6797560793753" lon="11.08885323132079"><ele>1450.0</ele><time>2026-05-01T08:34:58Z</time></trkpt><trkpt lat="45.67953118507087" lon="11.089010203610199"><ele>1450.0</ele><time>2026-05-01T08:34:59Z</time></trkpt><trkpt lat="45.679309687218705" lon="11.089180701211523"><ele>1448.5</ele><time>2026-05-01T08:35:00Z</time></trkpt><trkpt lat="45.67909181921327" lon="11.089310089031004"><ele>1447.0</ele><time>2026-05-01T08:35:01Z</time></trkpt><trkpt lat="45.6788863649432" lon="11.08943681278"><ele>1447.0</ele><time>2026-05-01T08:35:02Z</time></trkpt><trkpt lat="45.67868344508475" lon="11.089541237167897"><ele>1447.0</ele><time>2026-05-01T08:35:03Z</time></trkpt><trkpt lat="45.67848279068202" lon="11.089610352407801"><ele>1447.0</ele><time>2026-05-01T08:35:04Z</time></trkpt><trkpt lat="45.67826742966978" lon="11.08962765980654"><ele>1443.0</ele><time>2026-05-01T08:35:05Z</time></trkpt><trkpt lat="45.678046641936895" lon="11.089563505887117"><ele>1439.0</ele><time>2026-05-01T08:35:06Z</time></trkpt><trkpt lat="45.67781069397799" lon="11.089501656529313"><ele>1437.0</ele><time>2026-05-01T08:35:07Z</time></trkpt><trkpt lat="45.677577652691944" lon="11.089402919189562"><ele>1435.0</ele><time>2026-05-01T08:35:08Z</time></trkpt><trkpt lat="45.67734768211209" lon="11.08932322532581"><ele>1435.0</ele><time>2026-05-01T08:35:09Z</time></trkpt><trkpt lat="45.67712956122076" lon="11.089248978694913"><ele>1435.0</ele><time>2026-05-01T08:35:10Z</time></trkpt><trkpt lat="45.67691918028004" lon="11.08918315573919"><ele>1435.0</ele><time>2026-05-01T08:35:11Z</time></trkpt><trkpt lat="45.67669932642774" lon="11.089151067412356"><ele>1434.0</ele><time>2026-05-01T08:35:12Z</time></trkpt><trkpt lat="45.67647816583293" lon="11.089157764545929"><ele>1433.0</ele><time>2026-05-01T08:35:13Z</time></trkpt><trkpt lat="45.676249935946" lon="11.089202817952222"><ele>1431.3333333333335</ele><time>2026-05-01T08:35:14Z</time></trkpt><trkpt lat="45.67603287179012" lon="11.089266041700451"><ele>1429.6666666666667</ele><time>2026-05-01T08:35:15Z</time></trkpt><trkpt lat="45.67582491264756" lon="11.089298852694666"><ele>1428.0</ele><time>2026-05-01T08:35:16Z</time></trkpt><trkpt lat="45.675607795578664" lon="11.08924930846318"><ele>1428.0</ele><time>2026-05-01T08:35:17Z</time></trkpt><trkpt lat="45.67540337722188" lon="11.089115206469572"><ele>1428.0</ele><time>2026-05-01T08:35:18Z</time></trkpt><trkpt lat="45.675202928676235" lon="11.088952331341446"><ele>1422.0</ele><time>2026-05-01T08:35:19Z</time></trkpt><trkpt lat="45.67499236539307" lon="11.088808041379265"><ele>1416.0</ele><time>2026-05-01T08:35:20Z</time></trkpt><trkpt lat="45.67477465309593" lon="11.088674848927202"><ele>1416.0</ele><time>2026-05-01T08:35:21Z</time></trkpt><trkpt lat="45.67455339927955" lon="11.088540331910112"><ele>1416.0</ele><time>2026-05-01T08:35:22Z</time></trkpt><trkpt lat="45.67434529090543" lon="11.088407951086088"><ele>1415.6666666666667</ele><time>2026-05-01T08:35:23Z</time></trkpt><trkpt lat="45.674145769717825" lon="11.088283472348873"><ele>1415.3333333333335</ele><time>2026-05-01T08:35:24Z</time></trkpt><trkpt lat="45.67395297374417" lon="11.088185077452072"><ele>1415.0</ele><time>2026-05-01T08:35:25Z</time></trkpt><trkpt lat="45.67374866972057" lon="11.088139454355389"><ele>1408.6666666666667</ele><time>2026-05-01T08:35:26Z</time></trkpt><trkpt lat="45.673544981421905" lon="11.088159768050915"><ele>1402.3333333333333</ele><time>2026-05-01T08:35:27Z</time></trkpt><trkpt lat="45.673356888479006" lon="11.088168436178643"><ele>1396.0</ele><time>2026-05-01T08:35:28Z</time></trkpt><trkpt lat="45.673195307225676" lon="11.088163632245827"><ele>1396.0</ele><time>2026-05-01T08:35:29Z</time></trkpt><trkpt lat="45.673049445230724" lon="11.088097353973128"><ele>1396.0</ele><time>2026-05-01T08:35:30Z</time></trkpt><trkpt lat="45.672912744004826" lon="11.087962968270299"><ele>1396.0</ele><time>2026-05-01T08:35:31Z</time></trkpt><trkpt lat="45.67281111832104" lon="11.087740052075075"><ele>1396.0</ele><time>2026-05-01T08:35:32Z</time></trkpt><trkpt lat="45.67271142511029" lon="11.087507110699983"><ele>1396.0</ele><time>2026-05-01T08:35:33Z</time></trkpt><trkpt lat="45.67261284350593" lon="11.087316427451354"><ele>1396.0</ele><time>2026-05-01T08:35:34Z</time></trkpt><trkpt lat="45.67250020356667" lon="11.087156037019936"><ele>1391.0</ele><time>2026-05-01T08:35:35Z</time></trkpt><trkpt lat="45.67234888862326" lon="11.087070581998184"><ele>1386.0</ele><time>2026-05-01T08:35:36Z</time></trkpt><trkpt lat="45.672181853466775" lon="11.087045031239548"><ele>1381.0</ele><time>2026-05-01T08:35:37Z</time></trkpt><trkpt lat="45.67202015279362" lon="11.086961524508707"><ele>1381.3333333333333</ele><time>2026-05-01T08:35:38Z</time></trkpt><trkpt lat="45.671851935853574" lon="11.086900205929794"><ele>1381.6666666666667</ele><time>2026-05-01T08:35:39Z</time></trkpt><trkpt lat="45.67168093285192" lon="11.086836863070735"><ele>1382.0</ele><time>2026-05-01T08:35:40Z</time></trkpt><trkpt lat="45.6715028568266" lon="11.086787160696682"><ele>1382.0</ele><time>2026-05-01T08:35:41Z</time></trkpt><trkpt lat="45.67132629626416" lon="11.086705759294267"><ele>1382.0</ele><time>2026-05-01T08:35:42Z</time></trkpt><trkpt lat="45.67115457886524" lon="11.08661734822847"><ele>1382.0</ele><time>2026-05-01T08:35:43Z</time></trkpt><trkpt lat="45.67098565805071" lon="11.08652463142241"><ele>1379.6666666666667</ele><time>2026-05-01T08:35:44Z</time></trkpt><trkpt lat="45.67081737603497" lon="11.08642309107835"><ele>1377.3333333333333</ele><time>2026-05-01T08:35:45Z</time></trkpt><trkpt lat="45.670647270434" lon="11.086327683626047"><ele>1375.0</ele><time>2026-05-01T08:35:46Z</time></trkpt><trkpt lat="45.6704709227303" lon="11.086235320148889"><ele>1375.0</ele><time>2026-05-01T08:35:47Z</time></trkpt><trkpt lat="45.670289353024366" lon="11.08613446672246"><ele>1375.0</ele><time>2026-05-01T08:35:48Z</time></trkpt><trkpt lat="45.67010208246822" lon="11.086029557056602"><ele>1375.0</ele><time>2026-05-01T08:35:49Z</time></trkpt><trkpt lat="45.6699086608637" lon="11.085920795778906"><ele>1373.6666666666665</ele><time>2026-05-01T08:35:50Z</time></trkpt><trkpt lat="45.66971644566338" lon="11.085816344020772"><ele>1372.3333333333333</ele><time>2026-05-01T08:35:51Z</time></trkpt><trkpt lat="45.66952667584772" lon="11.085731841693912"><ele>1371.0</ele><time>2026-05-01T08:35:52Z</time></trkpt><trkpt lat="45.669333153804445" lon="11.085685740252362"><ele>1363.3333333333333</ele><time>2026-05-01T08:35:53Z</time></trkpt><trkpt lat="45.669129812488585" lon="11.085697432026025"><ele>1355.6666666666665</ele><time>2026-05-01T08:35:54Z</time></trkpt><trkpt lat="45.668923676559814" lon="11.085740867863175"><ele>1348.0</ele><time>2026-05-01T08:35:55Z</time></trkpt><trkpt lat="45.668719028039206" lon="11.08575933273886"><ele>1354.3333333333333</ele><time>2026-05-01T08:35:56Z</time></trkpt><trkpt lat="45.66853261511154" lon="11.085782868815585"><ele>1360.6666666666667</ele><time>2026-05-01T08:35:57Z</time></trkpt><trkpt lat="45.6683526064701" lon="11.085807559298168"><ele>1367.0</ele><time>2026-05-01T08:35:58Z</time></trkpt><trkpt lat="45.66818539828929" lon="11.085831361673522"><ele>1367.0</ele><time>2026-05-01T08:35:59Z</time></trkpt><trkpt lat="45.66801109440435" lon="11.085853830087334"><ele>1367.0</ele><time>2026-05-01T08:36:00Z</time></trkpt><trkpt lat="45.667832040517055" lon="11.085868358767412"><ele>1367.0</ele><time>2026-05-01T08:36:01Z</time></trkpt><trkpt lat="45.66763521674023" lon="11.085854597836915"><ele>1367.5</ele><time>2026-05-01T08:36:02Z</time></trkpt><trkpt lat="45.667417202522024" lon="11.08582314696153"><ele>1368.0</ele><time>2026-05-01T08:36:03Z</time></trkpt><trkpt lat="45.6671758094269" lon="11.085789324171417"><ele>1360.5</ele><time>2026-05-01T08:36:04Z</time></trkpt><trkpt lat="45.66692843427094" lon="11.085754663235614"><ele>1353.0</ele><time>2026-05-01T08:36:05Z</time></trkpt><trkpt lat="45.66665462003896" lon="11.085715968373812"><ele>1353.0</ele><time>2026-05-01T08:36:06Z</time></trkpt><trkpt lat="45.66637688889716" lon="11.085692149679412"><ele>1353.0</ele><time>2026-05-01T08:36:07Z</time></trkpt><trkpt lat="45.66609856874596" lon="11.085649849221724"><ele>1355.5</ele><time>2026-05-01T08:36:08Z</time></trkpt><trkpt lat="45.66581648190811" lon="11.085607621558955"><ele>1358.0</ele><time>2026-05-01T08:36:09Z</time></trkpt><trkpt lat="45.66552884538041" lon="11.085563092795319"><ele>1362.5</ele><time>2026-05-01T08:36:10Z</time></trkpt><trkpt lat="45.665242333448205" lon="11.085515739354602"><ele>1367.0</ele><time>2026-05-01T08:36:11Z</time></trkpt><trkpt lat="45.66495617058234" lon="11.085473065110861"><ele>1367.0</ele><time>2026-05-01T08:36:12Z</time></trkpt><trkpt lat="45.66467596930316" lon="11.08543454161699"><ele>1367.0</ele><time>2026-05-01T08:36:13Z</time></trkpt><trkpt lat="45.66439700538939" lon="11.085392551362144"><ele>1369.0</ele><time>2026-05-01T08:36:14.001Z</time></trkpt><trkpt lat="45.66412289838045" lon="11.085352628055078"><ele>1371.0</ele><time>2026-05-01T08:36:15.001Z</time></trkpt><trkpt lat="45.66384796281685" lon="11.085314749693133"><ele>1373.5</ele><time>2026-05-01T08:36:16.001Z</time></trkpt><trkpt lat="45.66357265040471" lon="11.085271733690973"><ele>1376.0</ele><time>2026-05-01T08:36:17.001Z</time></trkpt><trkpt lat="45.663296967058706" lon="11.085227858771937"><ele>1376.0</ele><time>2026-05-01T08:36:18.001Z</time></trkpt><trkpt lat="45.6630207332074" lon="11.085182906742464"><ele>1376.0</ele><time>2026-05-01T08:36:19.001Z</time></trkpt><trkpt lat="45.662750664368914" lon="11.085141913878985"><ele>1378.0</ele><time>2026-05-01T08:36:20.001Z</time></trkpt><trkpt lat="45.66248203438067" lon="11.085103916912415"><ele>1380.0</ele><time>2026-05-01T08:36:21.001Z</time></trkpt><trkpt lat="45.66221949012831" lon="11.085071760039714"><ele>1380.0</ele><time>2026-05-01T08:36:22.001Z</time></trkpt><trkpt lat="45.66196791852291" lon="11.085045774711919"><ele>1380.0</ele><time>2026-05-01T08:36:23.001Z</time></trkpt><trkpt lat="45.661726622903124" lon="11.085023991431807"><ele>1382.6666666666667</ele><time>2026-05-01T08:36:24.001Z</time></trkpt><trkpt lat="45.66150963228986" lon="11.085006683739472"><ele>1385.3333333333335</ele><time>2026-05-01T08:36:25.001Z</time></trkpt><trkpt lat="45.66130395964714" lon="11.085007588976524"><ele>1388.0</ele><time>2026-05-01T08:36:26.001Z</time></trkpt><trkpt lat="45.66111247896237" lon="11.08506308559128"><ele>1388.3333333333335</ele><time>2026-05-01T08:36:27.001Z</time></trkpt><trkpt lat="45.66090951727381" lon="11.08508525462537"><ele>1388.6666666666667</ele><time>2026-05-01T08:36:28.001Z</time></trkpt><trkpt lat="45.660696281192955" lon="11.085139187571391"><ele>1389.0</ele><time>2026-05-01T08:36:29.001Z</time></trkpt><trkpt lat="45.66050606700024" lon="11.085508191267376"><ele>1389.0</ele><time>2026-05-01T08:36:30.001Z</time></trkpt><trkpt lat="45.66028450243921" lon="11.085669323886538"><ele>1389.0</ele><time>2026-05-01T08:36:31.001Z</time></trkpt><trkpt lat="45.66006057901314" lon="11.085860158691935"><ele>1389.0</ele><time>2026-05-01T08:36:32.001Z</time></trkpt><trkpt lat="45.65983472640875" lon="11.08606265062281"><ele>1389.0</ele><time>2026-05-01T08:36:33.001Z</time></trkpt><trkpt lat="45.65960406403006" lon="11.086273153070998"><ele>1386.5</ele><time>2026-05-01T08:36:34.001Z</time></trkpt><trkpt lat="45.6593674950146" lon="11.086483315832197"><ele>1384.0</ele><time>2026-05-01T08:36:35.001Z</time></trkpt><trkpt lat="45.659131880238526" lon="11.086705447122569"><ele>1384.0</ele><time>2026-05-01T08:36:36.001Z</time></trkpt><trkpt lat="45.65889956562677" lon="11.086894944031043"><ele>1384.0</ele><time>2026-05-01T08:36:37.001Z</time></trkpt><trkpt lat="45.65869409546318" lon="11.087080168185404"><ele>1384.6666666666665</ele><time>2026-05-01T08:36:38.001Z</time></trkpt><trkpt lat="45.65850924216069" lon="11.08722915455391"><ele>1385.3333333333333</ele><time>2026-05-01T08:36:39.001Z</time></trkpt><trkpt lat="45.65833216741169" lon="11.087394073278329"><ele>1386.0</ele><time>2026-05-01T08:36:40.001Z</time></trkpt><trkpt lat="45.658173191336566" lon="11.087588257956813"><ele>1386.0</ele><time>2026-05-01T08:36:41.001Z</time></trkpt><trkpt lat="45.65802186639705" lon="11.087795866878583"><ele>1386.0</ele><time>2026-05-01T08:36:42.001Z</time></trkpt><trkpt lat="45.65788460840804" lon="11.087993341303068"><ele>1386.0</ele><time>2026-05-01T08:36:43.001Z</time></trkpt><trkpt lat="45.657767658544756" lon="11.088173589948259"><ele>1386.6666666666667</ele><time>2026-05-01T08:36:44.001Z</time></trkpt><trkpt lat="45.65768938571277" lon="11.08836867193736"><ele>1387.3333333333335</ele><time>2026-05-01T08:36:45.001Z</time></trkpt><trkpt lat="45.657656208247936" lon="11.088599543485936"><ele>1388.0</ele><time>2026-05-01T08:36:46.001Z</time></trkpt><trkpt lat="45.65766435927362" lon="11.088848985203887"><ele>1385.0</ele><time>2026-05-01T08:36:47.001Z</time></trkpt><trkpt lat="45.65771159690511" lon="11.089126440409759"><ele>1382.0</ele><time>2026-05-01T08:36:48.001Z</time></trkpt><trkpt lat="45.65779652713095" lon="11.089416755840473"><ele>1379.0</ele><time>2026-05-01T08:36:49.001Z</time></trkpt><trkpt lat="45.65789618408275" lon="11.089741895086746"><ele>1387.0</ele><time>2026-05-01T08:36:50.001Z</time></trkpt><trkpt lat="45.65798470951543" lon="11.090091269490237"><ele>1395.0</ele><time>2026-05-01T08:36:51.001Z</time></trkpt><trkpt lat="45.65806101553007" lon="11.090463815407714"><ele>1390.5</ele><time>2026-05-01T08:36:52.001Z</time></trkpt><trkpt lat="45.658119208253886" lon="11.090845445174034"><ele>1386.0</ele><time>2026-05-01T08:36:53.001Z</time></trkpt><trkpt lat="45.65816606805028" lon="11.091230136413714"><ele>1386.0</ele><time>2026-05-01T08:36:54.001Z</time></trkpt><trkpt lat="45.6581996052916" lon="11.091575768938476"><ele>1386.0</ele><time>2026-05-01T08:36:55.001Z</time></trkpt><trkpt lat="45.658228869323764" lon="11.091868209517466"><ele>1386.0</ele><time>2026-05-01T08:36:56.001Z</time></trkpt><trkpt lat="45.6582550052675" lon="11.092105872106739"><ele>1386.0</ele><time>2026-05-01T08:36:57.001Z</time></trkpt><trkpt lat="45.658260335205284" lon="11.092313376405244"><ele>1386.0</ele><time>2026-05-01T08:36:58.001Z</time></trkpt><trkpt lat="45.6582119024092" lon="11.09250923552709"><ele>1385.3333333333333</ele><time>2026-05-01T08:36:59.001Z</time></trkpt><trkpt lat="45.65809695217565" lon="11.09265645798034"><ele>1384.6666666666665</ele><time>2026-05-01T08:37:00.001Z</time></trkpt><trkpt lat="45.65794969600262" lon="11.092717567883211"><ele>1384.0</ele><time>2026-05-01T08:37:01.001Z</time></trkpt><trkpt lat="45.65779085383438" lon="11.092688244822453"><ele>1384.0</ele><time>2026-05-01T08:37:02.001Z</time></trkpt><trkpt lat="45.65762920492827" lon="11.092568064798797"><ele>1384.0</ele><time>2026-05-01T08:37:03.001Z</time></trkpt><trkpt lat="45.65747155011765" lon="11.092405643374482"><ele>1384.0</ele><time>2026-05-01T08:37:04.001Z</time></trkpt><trkpt lat="45.65730528345597" lon="11.09227608929467"><ele>1384.6666666666665</ele><time>2026-05-01T08:37:05.001Z</time></trkpt><trkpt lat="45.65711736960489" lon="11.092185596688607"><ele>1385.3333333333333</ele><time>2026-05-01T08:37:06.001Z</time></trkpt><trkpt lat="45.65691283135435" lon="11.092117542841127"><ele>1386.0</ele><time>2026-05-01T08:37:07.001Z</time></trkpt><trkpt lat="45.65671792816007" lon="11.092086108384846"><ele>1386.0</ele><time>2026-05-01T08:37:08.001Z</time></trkpt><trkpt lat="45.65654217223236" lon="11.09207048504649"><ele>1386.0</ele><time>2026-05-01T08:37:09.001Z</time></trkpt><trkpt lat="45.65637233482138" lon="11.092047709980713"><ele>1386.0</ele><time>2026-05-01T08:37:10.001Z</time></trkpt><trkpt lat="45.65620313807429" lon="11.091994602327514"><ele>1387.75</ele><time>2026-05-01T08:37:11.001Z</time></trkpt><trkpt lat="45.656057389145204" lon="11.091921726007316"><ele>1389.5</ele><time>2026-05-01T08:37:12.001Z</time></trkpt><trkpt lat="45.65592384314769" lon="11.091872667558496"><ele>1391.25</ele><time>2026-05-01T08:37:13.001Z</time></trkpt><trkpt lat="45.65577782990785" lon="11.091892372017348"><ele>1393.0</ele><time>2026-05-01T08:37:14.001Z</time></trkpt><trkpt lat="45.65563235702044" lon="11.091986685314973"><ele>1393.0</ele><time>2026-05-01T08:37:15.001Z</time></trkpt><trkpt lat="45.65550147380542" lon="11.09214829506219"><ele>1393.0</ele><time>2026-05-01T08:37:16.001Z</time></trkpt><trkpt lat="45.655386902898" lon="11.092350020424988"><ele>1393.0</ele><time>2026-05-01T08:37:17.001Z</time></trkpt><trkpt lat="45.65530692855096" lon="11.09257769085161"><ele>1392.6666666666665</ele><time>2026-05-01T08:37:18.001Z</time></trkpt><trkpt lat="45.65527016037089" lon="11.09284945153815"><ele>1392.3333333333333</ele><time>2026-05-01T08:37:19.001Z</time></trkpt><trkpt lat="45.655272874618746" lon="11.093131200227058"><ele>1392.0</ele><time>2026-05-01T08:37:20.001Z</time></trkpt><trkpt lat="45.655247002749505" lon="11.09338097870983"><ele>1395.6666666666667</ele><time>2026-05-01T08:37:21.001Z</time></trkpt><trkpt lat="45.65514962891692" lon="11.093580035261272"><ele>1399.3333333333335</ele><time>2026-05-01T08:37:22.001Z</time></trkpt><trkpt lat="45.65499540876618" lon="11.093699365166222"><ele>1403.0</ele><time>2026-05-01T08:37:23.001Z</time></trkpt><trkpt lat="45.654801166946726" lon="11.093772834018731"><ele>1403.0</ele><time>2026-05-01T08:37:24.001Z</time></trkpt><trkpt lat="45.65459111485174" lon="11.093845919937099"><ele>1403.0</ele><time>2026-05-01T08:37:25.001Z</time></trkpt><trkpt lat="45.65438668790803" lon="11.093954442736704"><ele>1403.0</ele><time>2026-05-01T08:37:26.001Z</time></trkpt><trkpt lat="45.65418348643733" lon="11.094067078564496"><ele>1403.0</ele><time>2026-05-01T08:37:27.001Z</time></trkpt><trkpt lat="45.653977960530085" lon="11.094175798453623"><ele>1403.0</ele><time>2026-05-01T08:37:28.001Z</time></trkpt><trkpt lat="45.6537677204785" lon="11.09426887580455"><ele>1403.0</ele><time>2026-05-01T08:37:29.001Z</time></trkpt><trkpt lat="45.65355238460621" lon="11.09432782333272"><ele>1403.0</ele><time>2026-05-01T08:37:30.001Z</time></trkpt><trkpt lat="45.65333969368566" lon="11.094358189356548"><ele>1403.0</ele><time>2026-05-01T08:37:31.001Z</time></trkpt><trkpt lat="45.65312452601303" lon="11.09437052100547"><ele>1403.0</ele><time>2026-05-01T08:37:32.001Z</time></trkpt><trkpt lat="45.65291154528236" lon="11.094376212024653"><ele>1403.6666666666667</ele><time>2026-05-01T08:37:33.001Z</time></trkpt><trkpt lat="45.652695941506586" lon="11.09438981720959"><ele>1404.3333333333333</ele><time>2026-05-01T08:37:34.001Z</time></trkpt><trkpt lat="45.65248084197217" lon="11.094414138781632"><ele>1405.0</ele><time>2026-05-01T08:37:35.001Z</time></trkpt><trkpt lat="45.652267761813555" lon="11.094434794506459"><ele>1405.0</ele><time>2026-05-01T08:37:36.001Z</time></trkpt><trkpt lat="45.65205645300935" lon="11.094438123883794"><ele>1405.0</ele><time>2026-05-01T08:37:37.002Z</time></trkpt><trkpt lat="45.65185334901434" lon="11.094416507836995"><ele>1405.0</ele><time>2026-05-01T08:37:38.002Z</time></trkpt><trkpt lat="45.65166549435719" lon="11.094373801207398"><ele>1405.0</ele><time>2026-05-01T08:37:39.002Z</time></trkpt><trkpt lat="45.651495605092926" lon="11.094327734243862"><ele>1405.0</ele><time>2026-05-01T08:37:40.002Z</time></trkpt><trkpt lat="45.651336989783374" lon="11.094321417997488"><ele>1405.0</ele><time>2026-05-01T08:37:41.002Z</time></trkpt><trkpt lat="45.65117153334835" lon="11.094382570383468"><ele>1403.6666666666665</ele><time>2026-05-01T08:37:42.002Z</time></trkpt><trkpt lat="45.65101571253792" lon="11.09450097550035"><ele>1402.3333333333333</ele><time>2026-05-01T08:37:43.002Z</time></trkpt><trkpt lat="45.650880090260216" lon="11.094662943909585"><ele>1401.0</ele><time>2026-05-01T08:37:44.002Z</time></trkpt><trkpt lat="45.65075915171556" lon="11.09480592136856"><ele>1401.0</ele><time>2026-05-01T08:37:45.002Z</time></trkpt><trkpt lat="45.65063054940152" lon="11.094911974940969"><ele>1401.0</ele><time>2026-05-01T08:37:46.002Z</time></trkpt><trkpt lat="45.65048831644389" lon="11.094963740774563"><ele>1401.0</ele><time>2026-05-01T08:37:47.002Z</time></trkpt><trkpt lat="45.65032819990545" lon="11.094938954890441"><ele>1398.6666666666667</ele><time>2026-05-01T08:37:48.001Z</time></trkpt><trkpt lat="45.650157949967245" lon="11.094851718897791"><ele>1396.3333333333335</ele><time>2026-05-01T08:37:49.001Z</time></trkpt><trkpt lat="45.649970150218955" lon="11.094747479008447"><ele>1394.0</ele><time>2026-05-01T08:37:50.001Z</time></trkpt><trkpt lat="45.64977607946348" lon="11.094678513109454"><ele>1394.0</ele><time>2026-05-01T08:37:51.001Z</time></trkpt><trkpt lat="45.6495763490168" lon="11.094660606759303"><ele>1394.0</ele><time>2026-05-01T08:37:52.001Z</time></trkpt><trkpt lat="45.64937456462657" lon="11.094698296867186"><ele>1394.0</ele><time>2026-05-01T08:37:53.001Z</time></trkpt><trkpt lat="45.64916918046992" lon="11.094784552000414"><ele>1392.0</ele><time>2026-05-01T08:37:54.001Z</time></trkpt><trkpt lat="45.64896067969926" lon="11.094879509595033"><ele>1390.0</ele><time>2026-05-01T08:37:55.001Z</time></trkpt><trkpt lat="45.64875029877429" lon="11.094947965728107"><ele>1388.0</ele><time>2026-05-01T08:37:56.001Z</time></trkpt><trkpt lat="45.648553455243004" lon="11.094992643692052"><ele>1388.0</ele><time>2026-05-01T08:37:57.001Z</time></trkpt><trkpt lat="45.64836261079189" lon="11.094993907960601"><ele>1388.0</ele><time>2026-05-01T08:37:58.001Z</time></trkpt><trkpt lat="45.64818360365015" lon="11.09494993988085"><ele>1388.0</ele><time>2026-05-01T08:37:59.001Z</time></trkpt><trkpt lat="45.648018766144666" lon="11.094886168966074"><ele>1386.6666666666667</ele><time>2026-05-01T08:38:00.001Z</time></trkpt><trkpt lat="45.64786221380955" lon="11.094835283147363"><ele>1385.3333333333333</ele><time>2026-05-01T08:38:01.001Z</time></trkpt><trkpt lat="45.647710166082184" lon="11.094810050157628"><ele>1384.0</ele><time>2026-05-01T08:38:02.001Z</time></trkpt><trkpt lat="45.6475594384084" lon="11.094811695667616"><ele>1383.25</ele><time>2026-05-01T08:38:03.001Z</time></trkpt><trkpt lat="45.64741526556309" lon="11.09482776812784"><ele>1382.5</ele><time>2026-05-01T08:38:04.001Z</time></trkpt><trkpt lat="45.64727938573895" lon="11.09485199479788"><ele>1381.75</ele><time>2026-05-01T08:38:05.001Z</time></trkpt><trkpt lat="45.647152416981385" lon="11.094864805799626"><ele>1381.0</ele><time>2026-05-01T08:38:06.001Z</time></trkpt><trkpt lat="45.64702834625764" lon="11.09486742216117"><ele>1383.8</ele><time>2026-05-01T08:38:07.001Z</time></trkpt><trkpt lat="45.64691084701188" lon="11.094870062761455"><ele>1386.6</ele><time>2026-05-01T08:38:08.001Z</time></trkpt><trkpt lat="45.64679683283724" lon="11.094866536418035"><ele>1389.4</ele><time>2026-05-01T08:38:09.001Z</time></trkpt><trkpt lat="45.646687871233496" lon="11.09485409226431"><ele>1392.2</ele><time>2026-05-01T08:38:10.001Z</time></trkpt><trkpt lat="45.64658985588526" lon="11.094800741361679"><ele>1395.0</ele><time>2026-05-01T08:38:11.001Z</time></trkpt><trkpt lat="45.64652245195823" lon="11.094682658258149"><ele>1395.0</ele><time>2026-05-01T08:38:12.001Z</time></trkpt><trkpt lat="45.64647209101046" lon="11.094560999283388"><ele>1395.0</ele><time>2026-05-01T08:38:13.001Z</time></trkpt><trkpt lat="45.64642861225764" lon="11.094436617476296"><ele>1395.0</ele><time>2026-05-01T08:38:14.001Z</time></trkpt><trkpt lat="45.646391402241036" lon="11.09432277717691"><ele>1395.0</ele><time>2026-05-01T08:38:15.001Z</time></trkpt><trkpt lat="45.646352601551186" lon="11.094201187651857"><ele>1395.0</ele><time>2026-05-01T08:38:16.001Z</time></trkpt><trkpt lat="45.64631285923338" lon="11.09407516103411"><ele>1394.8</ele><time>2026-05-01T08:38:17.001Z</time></trkpt><trkpt lat="45.6462629736607" lon="11.093956608102788"><ele>1394.6</ele><time>2026-05-01T08:38:18.001Z</time></trkpt><trkpt lat="45.646199440895344" lon="11.093847841393636"><ele>1394.4</ele><time>2026-05-01T08:38:19.001Z</time></trkpt><trkpt lat="45.64612253134721" lon="11.093742755099269"><ele>1394.2</ele><time>2026-05-01T08:38:20.001Z</time></trkpt><trkpt lat="45.64604049302468" lon="11.093636369887722"><ele>1394.0</ele><time>2026-05-01T08:38:21.001Z</time></trkpt><trkpt lat="45.64595354189396" lon="11.09352339012216"><ele>1393.75</ele><time>2026-05-01T08:38:22.001Z</time></trkpt><trkpt lat="45.64586253612863" lon="11.093398242192634"><ele>1393.5</ele><time>2026-05-01T08:38:23.001Z</time></trkpt><trkpt lat="45.64577117124215" lon="11.093266873294723"><ele>1393.25</ele><time>2026-05-01T08:38:24.001Z</time></trkpt><trkpt lat="45.64567793330374" lon="11.093122168931876"><ele>1393.0</ele><time>2026-05-01T08:38:25.001Z</time></trkpt><trkpt lat="45.645588906758455" lon="11.092958465185289"><ele>1393.0</ele><time>2026-05-01T08:38:26.001Z</time></trkpt><trkpt lat="45.64550489696669" lon="11.092782253710798"><ele>1393.0</ele><time>2026-05-01T08:38:27.001Z</time></trkpt><trkpt lat="45.64542452512018" lon="11.092597399108248"><ele>1393.0</ele><time>2026-05-01T08:38:28.001Z</time></trkpt><trkpt lat="45.645337860447725" lon="11.092407170454495"><ele>1393.3333333333333</ele><time>2026-05-01T08:38:29.001Z</time></trkpt><trkpt lat="45.64523968428076" lon="11.092220601023449"><ele>1393.6666666666667</ele><time>2026-05-01T08:38:30.001Z</time></trkpt><trkpt lat="45.64513206243715" lon="11.092041946663711"><ele>1394.0</ele><time>2026-05-01T08:38:31.001Z</time></trkpt><trkpt lat="45.64501155153862" lon="11.091869867832365"><ele>1394.0</ele><time>2026-05-01T08:38:32.001Z</time></trkpt><trkpt lat="45.64488077348645" lon="11.091716432269262"><ele>1394.0</ele><time>2026-05-01T08:38:33.001Z</time></trkpt><trkpt lat="45.6447378672875" lon="11.091587609942945"><ele>1394.0</ele><time>2026-05-01T08:38:34.001Z</time></trkpt><trkpt lat="45.644578968909144" lon="11.091514881950907"><ele>1391.3333333333335</ele><time>2026-05-01T08:38:35.001Z</time></trkpt><trkpt lat="45.64440988037446" lon="11.091501004546874"><ele>1388.6666666666667</ele><time>2026-05-01T08:38:36.001Z</time></trkpt><trkpt lat="45.64424866387138" lon="11.091510229466676"><ele>1386.0</ele><time>2026-05-01T08:38:37.001Z</time></trkpt><trkpt lat="45.64409763582997" lon="11.09143986953672"><ele>1386.0</ele><time>2026-05-01T08:38:38.001Z</time></trkpt><trkpt lat="45.643936513171646" lon="11.09136835602688"><ele>1386.0</ele><time>2026-05-01T08:38:39.001Z</time></trkpt><trkpt lat="45.643755593897026" lon="11.09129528467455"><ele>1386.0</ele><time>2026-05-01T08:38:40.001Z</time></trkpt><trkpt lat="45.64356843964355" lon="11.091205127172687"><ele>1382.0</ele><time>2026-05-01T08:38:41.001Z</time></trkpt><trkpt lat="45.64337438460952" lon="11.091116585823356"><ele>1378.0</ele><time>2026-05-01T08:38:42.001Z</time></trkpt><trkpt lat="45.64317403270377" lon="11.091027383547733"><ele>1374.0</ele><time>2026-05-01T08:38:43.001Z</time></trkpt><trkpt lat="45.64296325679538" lon="11.090936817835827"><ele>1370.0</ele><time>2026-05-01T08:38:44.001Z</time></trkpt><trkpt lat="45.64274626731413" lon="11.090864161752865"><ele>1366.0</ele><time>2026-05-01T08:38:45.001Z</time></trkpt><trkpt lat="45.64253190994169" lon="11.090822745882324"><ele>1362.0</ele><time>2026-05-01T08:38:46.001Z</time></trkpt><trkpt lat="45.642316539838106" lon="11.090789514970083"><ele>1361.6666666666667</ele><time>2026-05-01T08:38:47.001Z</time></trkpt><trkpt lat="45.64210831620306" lon="11.090757508578651"><ele>1361.3333333333335</ele><time>2026-05-01T08:38:48.001Z</time></trkpt><trkpt lat="45.64190068238635" lon="11.090705826305216"><ele>1361.0</ele><time>2026-05-01T08:38:49.001Z</time></trkpt><trkpt lat="45.64170578379798" lon="11.09059733833102"><ele>1357.0</ele><time>2026-05-01T08:38:50.001Z</time></trkpt><trkpt lat="45.6415034194193" lon="11.090504665748254"><ele>1353.0</ele><time>2026-05-01T08:38:51.001Z</time></trkpt><trkpt lat="45.64130007097053" lon="11.090381965194076"><ele>1349.0</ele><time>2026-05-01T08:38:52.001Z</time></trkpt><trkpt lat="45.64110108730894" lon="11.090266446850082"><ele>1347.0</ele><time>2026-05-01T08:38:53.001Z</time></trkpt><trkpt lat="45.64092179845035" lon="11.090163309587295"><ele>1345.0</ele><time>2026-05-01T08:38:54.001Z</time></trkpt><trkpt lat="45.64076697895601" lon="11.090074465809991"><ele>1343.0</ele><time>2026-05-01T08:38:55.001Z</time></trkpt><trkpt lat="45.640633898491096" lon="11.089984109145858"><ele>1338.6666666666667</ele><time>2026-05-01T08:38:56.001Z</time></trkpt><trkpt lat="45.640536933792966" lon="11.089822455447985"><ele>1334.3333333333333</ele><time>2026-05-01T08:38:57.001Z</time></trkpt><trkpt lat="45.64051968704131" lon="11.089590283572106"><ele>1330.0</ele><time>2026-05-01T08:38:58.001Z</time></trkpt><trkpt lat="45.64049351990293" lon="11.089338732463487"><ele>1330.0</ele><time>2026-05-01T08:38:59.001Z</time></trkpt><trkpt lat="45.640490231713265" lon="11.089108032386688"><ele>1330.0</ele><time>2026-05-01T08:39:00.001Z</time></trkpt><trkpt lat="45.640456707166074" lon="11.088927548838594"><ele>1330.0</ele><time>2026-05-01T08:39:01.001Z</time></trkpt><trkpt lat="45.64038041412356" lon="11.088799892169312"><ele>1330.0</ele><time>2026-05-01T08:39:02.001Z</time></trkpt><trkpt lat="45.640261671205785" lon="11.088745041546225"><ele>1327.6666666666665</ele><time>2026-05-01T08:39:03.001Z</time></trkpt><trkpt lat="45.64011458744137" lon="11.088779675668555"><ele>1325.3333333333333</ele><time>2026-05-01T08:39:04.001Z</time></trkpt><trkpt lat="45.63994793112772" lon="11.088872549525973"><ele>1323.0</ele><time>2026-05-01T08:39:05.001Z</time></trkpt><trkpt lat="45.639772532924546" lon="11.088894694095913"><ele>1323.0</ele><time>2026-05-01T08:39:06.001Z</time></trkpt><trkpt lat="45.63962347278698" lon="11.08886829347553"><ele>1323.0</ele><time>2026-05-01T08:39:07.001Z</time></trkpt><trkpt lat="45.639505867133565" lon="11.088810142621865"><ele>1323.0</ele><time>2026-05-01T08:39:08.001Z</time></trkpt><trkpt lat="45.63941776877407" lon="11.088717346041431"><ele>1323.0</ele><time>2026-05-01T08:39:09.001Z</time></trkpt><trkpt lat="45.6393596956124" lon="11.088580951174327"><ele>1323.3333333333333</ele><time>2026-05-01T08:39:10.001Z</time></trkpt><trkpt lat="45.63935571212327" lon="11.0883699461828"><ele>1323.6666666666665</ele><time>2026-05-01T08:39:11.001Z</time></trkpt><trkpt lat="45.63942339011984" lon="11.088134291700605"><ele>1324.0</ele><time>2026-05-01T08:39:12.001Z</time></trkpt><trkpt lat="45.63949576951391" lon="11.087865464477144"><ele>1319.6666666666665</ele><time>2026-05-01T08:39:13.001Z</time></trkpt><trkpt lat="45.639588148172294" lon="11.0876205885822"><ele>1315.3333333333333</ele><time>2026-05-01T08:39:14.001Z</time></trkpt><trkpt lat="45.63964141345261" lon="11.08736869686937"><ele>1311.0</ele><time>2026-05-01T08:39:15.001Z</time></trkpt><trkpt lat="45.63965430253893" lon="11.08711250427318"><ele>1308.0</ele><time>2026-05-01T08:39:16.001Z</time></trkpt><trkpt lat="45.6396277161668" lon="11.086849363303552"><ele>1305.0</ele><time>2026-05-01T08:39:17.001Z</time></trkpt><trkpt lat="45.639582641667246" lon="11.086601388228377"><ele>1302.0</ele><time>2026-05-01T08:39:18.001Z</time></trkpt><trkpt lat="45.63950553185055" lon="11.08637067990481"><ele>1302.0</ele><time>2026-05-01T08:39:19.001Z</time></trkpt><trkpt lat="45.63938793562011" lon="11.08615363267371"><ele>1302.0</ele><time>2026-05-01T08:39:20.001Z</time></trkpt><trkpt lat="45.639228781632184" lon="11.085933759022781"><ele>1302.0</ele><time>2026-05-01T08:39:21.001Z</time></trkpt><trkpt lat="45.63904491051603" lon="11.085712396069491"><ele>1300.6666666666667</ele><time>2026-05-01T08:39:22.001Z</time></trkpt><trkpt lat="45.63886482299305" lon="11.085495922786473"><ele>1299.3333333333335</ele><time>2026-05-01T08:39:23.001Z</time></trkpt><trkpt lat="45.638703587412344" lon="11.08529479093953"><ele>1298.0</ele><time>2026-05-01T08:39:24.001Z</time></trkpt><trkpt lat="45.638548131938165" lon="11.085117212294781"><ele>1298.0</ele><time>2026-05-01T08:39:25.001Z</time></trkpt><trkpt lat="45.63838106300792" lon="11.084984854236433"><ele>1298.0</ele><time>2026-05-01T08:39:26.001Z</time></trkpt><trkpt lat="45.63825963827215" lon="11.084836489621571"><ele>1298.0</ele><time>2026-05-01T08:39:27.001Z</time></trkpt><trkpt lat="45.63815526754355" lon="11.084727608799861"><ele>1294.3333333333335</ele><time>2026-05-01T08:39:28.001Z</time></trkpt><trkpt lat="45.63797306020236" lon="11.084820794524061"><ele>1290.6666666666667</ele><time>2026-05-01T08:39:29.001Z</time></trkpt><trkpt lat="45.63784727801842" lon="11.084884326259225"><ele>1287.0</ele><time>2026-05-01T08:39:30.001Z</time></trkpt><trkpt lat="45.63773084068152" lon="11.085022810591022"><ele>1287.0</ele><time>2026-05-01T08:39:31.001Z</time></trkpt><trkpt lat="45.637650024830045" lon="11.085226277959487"><ele>1287.0</ele><time>2026-05-01T08:39:32.001Z</time></trkpt><trkpt lat="45.63760275711009" lon="11.085463173316535"><ele>1287.0</ele><time>2026-05-01T08:39:33.001Z</time></trkpt><trkpt lat="45.63759849179438" lon="11.085697638620491"><ele>1288.0</ele><time>2026-05-01T08:39:34.001Z</time></trkpt><trkpt lat="45.637613725821936" lon="11.085898386393396"><ele>1289.0</ele><time>2026-05-01T08:39:35.001Z</time></trkpt><trkpt lat="45.63760837251993" lon="11.086080821476118"><ele>1290.0</ele><time>2026-05-01T08:39:36.001Z</time></trkpt><trkpt lat="45.637534263525964" lon="11.086234835859225"><ele>1291.0</ele><time>2026-05-01T08:39:37.001Z</time></trkpt><trkpt lat="45.6374108299915" lon="11.086339578509458"><ele>1291.0</ele><time>2026-05-01T08:39:38.001Z</time></trkpt><trkpt lat="45.6372748602721" lon="11.08638193357239"><ele>1291.0</ele><time>2026-05-01T08:39:39.001Z</time></trkpt><trkpt lat="45.637137741084736" lon="11.086335336999257"><ele>1291.0</ele><time>2026-05-01T08:39:40.001Z</time></trkpt><trkpt lat="45.6370266653799" lon="11.086187237785065"><ele>1291.0</ele><time>2026-05-01T08:39:41.001Z</time></trkpt><trkpt lat="45.63692096139894" lon="11.085967493966889"><ele>1285.6666666666665</ele><time>2026-05-01T08:39:42.001Z</time></trkpt><trkpt lat="45.63679706034214" lon="11.08571760733986"><ele>1280.3333333333333</ele><time>2026-05-01T08:39:43.002Z</time></trkpt><trkpt lat="45.63665323924143" lon="11.085464979548073"><ele>1275.0</ele><time>2026-05-01T08:39:44.002Z</time></trkpt><trkpt lat="45.63648833305124" lon="11.085213127618447"><ele>1275.0</ele><time>2026-05-01T08:39:45.002Z</time></trkpt><trkpt lat="45.63632100275651" lon="11.085002915683203"><ele>1275.0</ele><time>2026-05-01T08:39:46.002Z</time></trkpt><trkpt lat="45.63617132587419" lon="11.08484616262895"><ele>1275.0</ele><time>2026-05-01T08:39:47.002Z</time></trkpt><trkpt lat="45.63604980674018" lon="11.084733883491191"><ele>1273.25</ele><time>2026-05-01T08:39:48.002Z</time></trkpt><trkpt lat="45.63593242684621" lon="11.084676601206965"><ele>1271.5</ele><time>2026-05-01T08:39:49.002Z</time></trkpt><trkpt lat="45.63579602392179" lon="11.084690973745337"><ele>1269.75</ele><time>2026-05-01T08:39:50.002Z</time></trkpt><trkpt lat="45.635641205750744" lon="11.084766605245136"><ele>1268.0</ele><time>2026-05-01T08:39:51.002Z</time></trkpt><trkpt lat="45.635488111451885" lon="11.084912856129638"><ele>1267.0</ele><time>2026-05-01T08:39:52.002Z</time></trkpt><trkpt lat="45.63534070852256" lon="11.08512199417478"><ele>1266.0</ele><time>2026-05-01T08:39:53.002Z</time></trkpt><trkpt lat="45.63519928326039" lon="11.085350573677555"><ele>1265.0</ele><time>2026-05-01T08:39:54.001Z</time></trkpt><trkpt lat="45.635064697667346" lon="11.08556426158228"><ele>1267.3333333333335</ele><time>2026-05-01T08:39:55.001Z</time></trkpt><trkpt lat="45.63495692571575" lon="11.085791987084537"><ele>1269.6666666666667</ele><time>2026-05-01T08:39:56.001Z</time></trkpt><trkpt lat="45.63488764654798" lon="11.0860735139505"><ele>1272.0</ele><time>2026-05-01T08:39:57.001Z</time></trkpt><trkpt lat="45.63482805826496" lon="11.086364203336732"><ele>1271.6666666666667</ele><time>2026-05-01T08:39:58.001Z</time></trkpt><trkpt lat="45.63474702912764" lon="11.086628140570992"><ele>1271.3333333333335</ele><time>2026-05-01T08:39:59.001Z</time></trkpt><trkpt lat="45.634672530181646" lon="11.086867675433416"><ele>1271.0</ele><time>2026-05-01T08:40:00.001Z</time></trkpt><trkpt lat="45.63463082506254" lon="11.08710673117395"><ele>1271.0</ele><time>2026-05-01T08:40:01.001Z</time></trkpt><trkpt lat="45.634639872043245" lon="11.087360745660142"><ele>1271.0</ele><time>2026-05-01T08:40:02.001Z</time></trkpt><trkpt lat="45.63469703032169" lon="11.087626412483194"><ele>1271.0</ele><time>2026-05-01T08:40:03.001Z</time></trkpt><trkpt lat="45.6347922048274" lon="11.0879069597202"><ele>1268.3333333333335</ele><time>2026-05-01T08:40:04.001Z</time></trkpt><trkpt lat="45.634877446438146" lon="11.08816226197637"><ele>1265.6666666666667</ele><time>2026-05-01T08:40:05.001Z</time></trkpt><trkpt lat="45.63491678984048" lon="11.088416307479628"><ele>1263.0</ele><time>2026-05-01T08:40:06.001Z</time></trkpt><trkpt lat="45.63490459798921" lon="11.088662078739288"><ele>1261.5</ele><time>2026-05-01T08:40:07.001Z</time></trkpt><trkpt lat="45.63485333552568" lon="11.088892862162815"><ele>1260.0</ele><time>2026-05-01T08:40:08.001Z</time></trkpt><trkpt lat="45.634787850576465" lon="11.089088608418898"><ele>1258.5</ele><time>2026-05-01T08:40:09.001Z</time></trkpt><trkpt lat="45.634727636369156" lon="11.089241700614034"><ele>1257.0</ele><time>2026-05-01T08:40:10.001Z</time></trkpt><trkpt lat="45.63464758910836" lon="11.089339780931734"><ele>1257.0</ele><time>2026-05-01T08:40:11.001Z</time></trkpt><trkpt lat="45.63454374227578" lon="11.089375113732745"><ele>1257.0</ele><time>2026-05-01T08:40:12.001Z</time></trkpt><trkpt lat="45.63441638888145" lon="11.089307521928282"><ele>1257.0</ele><time>2026-05-01T08:40:13.001Z</time></trkpt><trkpt lat="45.63428938432378" lon="11.089175947117056"><ele>1257.0</ele><time>2026-05-01T08:40:14.001Z</time></trkpt><trkpt lat="45.63416470895267" lon="11.08901908576257"><ele>1250.0</ele><time>2026-05-01T08:40:15.001Z</time></trkpt><trkpt lat="45.6339992542382" lon="11.088894355176935"><ele>1243.0</ele><time>2026-05-01T08:40:16.001Z</time></trkpt><trkpt lat="45.63381079537392" lon="11.088808809403682"><ele>1236.0</ele><time>2026-05-01T08:40:17.001Z</time></trkpt><trkpt lat="45.63360237847939" lon="11.088810702871955"><ele>1231.6666666666667</ele><time>2026-05-01T08:40:18.001Z</time></trkpt><trkpt lat="45.63339167338076" lon="11.08878942713905"><ele>1227.3333333333335</ele><time>2026-05-01T08:40:19.001Z</time></trkpt><trkpt lat="45.63318855152231" lon="11.088664359142548"><ele>1223.0</ele><time>2026-05-01T08:40:20.001Z</time></trkpt><trkpt lat="45.632972562136665" lon="11.088493051352422"><ele>1224.0</ele><time>2026-05-01T08:40:21.001Z</time></trkpt><trkpt lat="45.632753870471376" lon="11.088316755899852"><ele>1225.0</ele><time>2026-05-01T08:40:22.001Z</time></trkpt><trkpt lat="45.632507275902604" lon="11.088193878266665"><ele>1214.5</ele><time>2026-05-01T08:40:23.001Z</time></trkpt><trkpt lat="45.63225876330194" lon="11.088109138693126"><ele>1204.0</ele><time>2026-05-01T08:40:24.001Z</time></trkpt><trkpt lat="45.632020744652515" lon="11.088027426991081"><ele>1204.5</ele><time>2026-05-01T08:40:25.001Z</time></trkpt><trkpt lat="45.63178605198279" lon="11.087949659286089"><ele>1205.0</ele><time>2026-05-01T08:40:26.001Z</time></trkpt><trkpt lat="45.63153651016623" lon="11.087883982028522"><ele>1205.0</ele><time>2026-05-01T08:40:27.001Z</time></trkpt><trkpt lat="45.63127946099181" lon="11.087824493493484"><ele>1205.0</ele><time>2026-05-01T08:40:28.001Z</time></trkpt><trkpt lat="45.63101459634175" lon="11.087763877216084"><ele>1201.0</ele><time>2026-05-01T08:40:29.001Z</time></trkpt><trkpt lat="45.63075481465798" lon="11.087694809387624"><ele>1197.0</ele><time>2026-05-01T08:40:30.001Z</time></trkpt><trkpt lat="45.63050140587663" lon="11.087629904871251"><ele>1192.5</ele><time>2026-05-01T08:40:31.001Z</time></trkpt><trkpt lat="45.63025371596278" lon="11.087571019323818"><ele>1188.0</ele><time>2026-05-01T08:40:32.001Z</time></trkpt><trkpt lat="45.63001172800548" lon="11.087526693873338"><ele>1188.0</ele><time>2026-05-01T08:40:33.001Z</time></trkpt><trkpt lat="45.62977147836566" lon="11.08752113821958"><ele>1188.0</ele><time>2026-05-01T08:40:34.001Z</time></trkpt><trkpt lat="45.62953491994831" lon="11.087542549935364"><ele>1183.5</ele><time>2026-05-01T08:40:35.001Z</time></trkpt><trkpt lat="45.62930228398819" lon="11.087575585609237"><ele>1179.0</ele><time>2026-05-01T08:40:36.001Z</time></trkpt><trkpt lat="45.629079998079106" lon="11.087602789238483"><ele>1179.0</ele><time>2026-05-01T08:40:37.001Z</time></trkpt><trkpt lat="45.62888064125115" lon="11.087639746792998"><ele>1179.0</ele><time>2026-05-01T08:40:38.001Z</time></trkpt><trkpt lat="45.628696074159826" lon="11.087715385339326"><ele>1179.0</ele><time>2026-05-01T08:40:39.001Z</time></trkpt><trkpt lat="45.62852010462883" lon="11.08784406625109"><ele>1177.3333333333333</ele><time>2026-05-01T08:40:40.001Z</time></trkpt><trkpt lat="45.62836733961738" lon="11.088000419594788"><ele>1175.6666666666665</ele><time>2026-05-01T08:40:41.001Z</time></trkpt><trkpt lat="45.62821291447387" lon="11.088145814341013"><ele>1174.0</ele><time>2026-05-01T08:40:42.001Z</time></trkpt><trkpt lat="45.628043174310015" lon="11.088243943849669"><ele>1173.6666666666665</ele><time>2026-05-01T08:40:43.001Z</time></trkpt><trkpt lat="45.62786163179155" lon="11.088281841343864"><ele>1173.3333333333333</ele><time>2026-05-01T08:40:44.001Z</time></trkpt><trkpt lat="45.62767436231753" lon="11.088290508902773"><ele>1173.0</ele><time>2026-05-01T08:40:45.001Z</time></trkpt><trkpt lat="45.62750493847145" lon="11.088292238633596"><ele>1172.2</ele><time>2026-05-01T08:40:46.001Z</time></trkpt><trkpt lat="45.6273648738716" lon="11.088304401250793"><ele>1171.4</ele><time>2026-05-01T08:40:47.001Z</time></trkpt><trkpt lat="45.627250900733706" lon="11.088316674086188"><ele>1170.6000000000001</ele><time>2026-05-01T08:40:48.001Z</time></trkpt><trkpt lat="45.62716210318756" lon="11.088313738407516"><ele>1169.8</ele><time>2026-05-01T08:40:49.001Z</time></trkpt><trkpt lat="45.627072231986766" lon="11.088275975581366"><ele>1169.0</ele><time>2026-05-01T08:40:51.001Z</time></trkpt><trkpt lat="45.62699673215067" lon="11.088209971435568"><ele>1168.3333333333335</ele><time>2026-05-01T08:41:15.001Z</time></trkpt><trkpt lat="45.6268917442614" lon="11.08826567145565"><ele>1167.6666666666667</ele><time>2026-05-01T08:41:17.001Z</time></trkpt><trkpt lat="45.62684030920246" lon="11.088347258604166"><ele>1167.0</ele><time>2026-05-01T08:41:18.001Z</time></trkpt><trkpt lat="45.62678907228924" lon="11.088421123271377"><ele>1166.3333333333333</ele><time>2026-05-01T08:41:19.001Z</time></trkpt><trkpt lat="45.62673708378072" lon="11.088494710595606"><ele>1165.6666666666665</ele><time>2026-05-01T08:41:20.001Z</time></trkpt><trkpt lat="45.62668877986963" lon="11.08856977903595"><ele>1165.0</ele><time>2026-05-01T08:41:21.001Z</time></trkpt><trkpt lat="45.62662850151022" lon="11.088647176390024"><ele>1165.0</ele><time>2026-05-01T08:41:22.001Z</time></trkpt><trkpt lat="45.626543561101506" lon="11.088700865297685"><ele>1165.0</ele><time>2026-05-01T08:41:23.001Z</time></trkpt><trkpt lat="45.6264565055965" lon="11.088771922856985"><ele>1165.0</ele><time>2026-05-01T08:41:24.001Z</time></trkpt><trkpt lat="45.62635595948345" lon="11.088824078938098"><ele>1165.0</ele><time>2026-05-01T08:41:25.001Z</time></trkpt><trkpt lat="45.626242408436816" lon="11.088864328471905"><ele>1165.0</ele><time>2026-05-01T08:41:26.001Z</time></trkpt><trkpt lat="45.626128634562555" lon="11.0889018919895"><ele>1165.0</ele><time>2026-05-01T08:41:27.001Z</time></trkpt><trkpt lat="45.62601835273383" lon="11.088936067314686"><ele>1165.0</ele><time>2026-05-01T08:41:28.001Z</time></trkpt><trkpt lat="45.62590173968184" lon="11.088972204628389"><ele>1165.0</ele><time>2026-05-01T08:41:29.001Z</time></trkpt><trkpt lat="45.62578049932294" lon="11.089012112826133"><ele>1165.0</ele><time>2026-05-01T08:41:30.001Z</time></trkpt><trkpt lat="45.625646417692025" lon="11.089056351804068"><ele>1165.5</ele><time>2026-05-01T08:41:31.001Z</time></trkpt><trkpt lat="45.625512006412116" lon="11.089100699548487"><ele>1166.0</ele><time>2026-05-01T08:41:32.001Z</time></trkpt><trkpt lat="45.62537359033781" lon="11.089145803346483"><ele>1166.5</ele><time>2026-05-01T08:41:33.001Z</time></trkpt><trkpt lat="45.62522825718525" lon="11.089193270468028"><ele>1167.0</ele><time>2026-05-01T08:41:34.001Z</time></trkpt><trkpt lat="45.625075696125634" lon="11.089242038819135"><ele>1167.0</ele><time>2026-05-01T08:41:35.001Z</time></trkpt><trkpt lat="45.62491948293618" lon="11.089325092128965"><ele>1167.0</ele><time>2026-05-01T08:41:36.001Z</time></trkpt><trkpt lat="45.62475875662511" lon="11.089378698337194"><ele>1167.0</ele><time>2026-05-01T08:41:37.001Z</time></trkpt><trkpt lat="45.62461325835009" lon="11.089429001191991"><ele>1168.25</ele><time>2026-05-01T08:41:38.001Z</time></trkpt><trkpt lat="45.62447731277045" lon="11.089469814361497"><ele>1169.5</ele><time>2026-05-01T08:41:39.001Z</time></trkpt><trkpt lat="45.624332198884524" lon="11.089501234068026"><ele>1170.75</ele><time>2026-05-01T08:41:40.001Z</time></trkpt><trkpt lat="45.624179612218725" lon="11.089506047357686"><ele>1172.0</ele><time>2026-05-01T08:41:41.001Z</time></trkpt><trkpt lat="45.624016398955376" lon="11.08945098413722"><ele>1172.0</ele><time>2026-05-01T08:41:42.001Z</time></trkpt><trkpt lat="45.62383882536583" lon="11.089405578475068"><ele>1172.0</ele><time>2026-05-01T08:41:43.001Z</time></trkpt><trkpt lat="45.62364033725019" lon="11.089355049753367"><ele>1172.0</ele><time>2026-05-01T08:41:44.001Z</time></trkpt><trkpt lat="45.62341028010552" lon="11.089316485457752"><ele>1177.0</ele><time>2026-05-01T08:41:45.001Z</time></trkpt><trkpt lat="45.62315703143225" lon="11.08930134619291"><ele>1182.0</ele><time>2026-05-01T08:41:46.001Z</time></trkpt><trkpt lat="45.62288839394941" lon="11.089290490583467"><ele>1182.5</ele><time>2026-05-01T08:41:47Z</time></trkpt><trkpt lat="45.62263276280581" lon="11.089296329546421"><ele>1183.0</ele><time>2026-05-01T08:41:48Z</time></trkpt><trkpt lat="45.6224031207028" lon="11.089297741040387"><ele>1183.0</ele><time>2026-05-01T08:41:49.001Z</time></trkpt><trkpt lat="45.62218862162683" lon="11.089272320367032"><ele>1183.0</ele><time>2026-05-01T08:41:50.001Z</time></trkpt><trkpt lat="45.62197867958989" lon="11.089265999129665"><ele>1183.0</ele><time>2026-05-01T08:41:51.001Z</time></trkpt><trkpt lat="45.621774099270496" lon="11.089256024137502"><ele>1183.3333333333333</ele><time>2026-05-01T08:41:52.001Z</time></trkpt><trkpt lat="45.621577871717754" lon="11.089253454954614"><ele>1183.6666666666667</ele><time>2026-05-01T08:41:53.001Z</time></trkpt><trkpt lat="45.62138752035837" lon="11.08918662832291"><ele>1184.0</ele><time>2026-05-01T08:41:54.001Z</time></trkpt><trkpt lat="45.62119660139592" lon="11.089094020646085"><ele>1182.3333333333335</ele><time>2026-05-01T08:41:55.001Z</time></trkpt><trkpt lat="45.620997764439274" lon="11.088975000037271"><ele>1180.6666666666667</ele><time>2026-05-01T08:41:56.001Z</time></trkpt><trkpt lat="45.62079303868257" lon="11.088850954555737"><ele>1179.0</ele><time>2026-05-01T08:41:57.001Z</time></trkpt><trkpt lat="45.6206026134614" lon="11.08872455998583"><ele>1179.0</ele><time>2026-05-01T08:41:58.001Z</time></trkpt><trkpt lat="45.62042296330327" lon="11.088604450506471"><ele>1179.0</ele><time>2026-05-01T08:41:59.001Z</time></trkpt><trkpt lat="45.620263259349265" lon="11.088492954938559"><ele>1179.0</ele><time>2026-05-01T08:42:00.001Z</time></trkpt><trkpt lat="45.62011935865632" lon="11.088393031310343"><ele>1170.0</ele><time>2026-05-01T08:42:01.001Z</time></trkpt><trkpt lat="45.61997934504032" lon="11.088322678880344"><ele>1161.0</ele><time>2026-05-01T08:42:02.001Z</time></trkpt><trkpt lat="45.61983096444488" lon="11.088296542405377"><ele>1152.0</ele><time>2026-05-01T08:42:03.001Z</time></trkpt><trkpt lat="45.61967585345878" lon="11.088353376477098"><ele>1152.0</ele><time>2026-05-01T08:42:04.001Z</time></trkpt><trkpt lat="45.61951513200751" lon="11.088477541586665"><ele>1152.0</ele><time>2026-05-01T08:42:05.001Z</time></trkpt><trkpt lat="45.61934691690022" lon="11.088670110368131"><ele>1152.0</ele><time>2026-05-01T08:42:06.001Z</time></trkpt><trkpt lat="45.61917471442862" lon="11.08885092902723"><ele>1148.3333333333333</ele><time>2026-05-01T08:42:07.001Z</time></trkpt><trkpt lat="45.61902839206484" lon="11.089014486174223"><ele>1144.6666666666665</ele><time>2026-05-01T08:42:08.001Z</time></trkpt><trkpt lat="45.6189065796172" lon="11.089161953115857"><ele>1141.0</ele><time>2026-05-01T08:42:09.001Z</time></trkpt><trkpt lat="45.6188304127193" lon="11.089315723190174"><ele>1141.0</ele><time>2026-05-01T08:42:10.001Z</time></trkpt><trkpt lat="45.61879212753655" lon="11.089479006229032"><ele>1141.0</ele><time>2026-05-01T08:42:11.001Z</time></trkpt><trkpt lat="45.618814153825966" lon="11.089652465131032"><ele>1141.0</ele><time>2026-05-01T08:42:12.001Z</time></trkpt><trkpt lat="45.61889074279508" lon="11.089832079648824"><ele>1141.0</ele><time>2026-05-01T08:42:13.001Z</time></trkpt><trkpt lat="45.618982550708466" lon="11.090006779299436"><ele>1141.75</ele><time>2026-05-01T08:42:14.001Z</time></trkpt><trkpt lat="45.61902446064875" lon="11.090165499809023"><ele>1142.5</ele><time>2026-05-01T08:42:15.001Z</time></trkpt><trkpt lat="45.61901630307732" lon="11.090310529510335"><ele>1143.25</ele><time>2026-05-01T08:42:16.001Z</time></trkpt><trkpt lat="45.618948009590476" lon="11.090448288851645"><ele>1144.0</ele><time>2026-05-01T08:42:17.001Z</time></trkpt><trkpt lat="45.61882889597376" lon="11.09056218375187"><ele>1144.0</ele><time>2026-05-01T08:42:18.001Z</time></trkpt><trkpt lat="45.618676255103615" lon="11.090644460847368"><ele>1144.0</ele><time>2026-05-01T08:42:19.001Z</time></trkpt><trkpt lat="45.61853425464988" lon="11.090750310264774"><ele>1144.0</ele><time>2026-05-01T08:42:20.001Z</time></trkpt><trkpt lat="45.618419160301045" lon="11.090913731103393"><ele>1141.6666666666665</ele><time>2026-05-01T08:42:21.001Z</time></trkpt><trkpt lat="45.618322859452356" lon="11.09115016776598"><ele>1139.3333333333333</ele><time>2026-05-01T08:42:22Z</time></trkpt><trkpt lat="45.61820362070399" lon="11.091395944916501"><ele>1137.0</ele><time>2026-05-01T08:42:23Z</time></trkpt><trkpt lat="45.61808974816713" lon="11.091645940925032"><ele>1137.0</ele><time>2026-05-01T08:42:24Z</time></trkpt><trkpt lat="45.617976898224654" lon="11.091885286440114"><ele>1137.0</ele><time>2026-05-01T08:42:25Z</time></trkpt><trkpt lat="45.61785824814554" lon="11.092103828489991"><ele>1137.0</ele><time>2026-05-01T08:42:26Z</time></trkpt><trkpt lat="45.61772718672337" lon="11.092298673963112"><ele>1132.0</ele><time>2026-05-01T08:42:27Z</time></trkpt><trkpt lat="45.61759144911896" lon="11.09249061012364"><ele>1127.0</ele><time>2026-05-01T08:42:28Z</time></trkpt><trkpt lat="45.6174645510883" lon="11.092681366225266"><ele>1122.0</ele><time>2026-05-01T08:42:29Z</time></trkpt><trkpt lat="45.61737103442315" lon="11.092908102010423"><ele>1122.0</ele><time>2026-05-01T08:42:30Z</time></trkpt><trkpt lat="45.617298254183154" lon="11.093142637304377"><ele>1122.0</ele><time>2026-05-01T08:42:31Z</time></trkpt><trkpt lat="45.61724053184396" lon="11.0933877663593"><ele>1122.0</ele><time>2026-05-01T08:42:32Z</time></trkpt><trkpt lat="45.617189866756505" lon="11.09363036627848"><ele>1122.25</ele><time>2026-05-01T08:42:33Z</time></trkpt><trkpt lat="45.61712965478426" lon="11.093831837679447"><ele>1122.5</ele><time>2026-05-01T08:42:34Z</time></trkpt><trkpt lat="45.61704338002214" lon="11.093989717481364"><ele>1122.75</ele><time>2026-05-01T08:42:35Z</time></trkpt><trkpt lat="45.61692313357757" lon="11.094089596269743"><ele>1123.0</ele><time>2026-05-01T08:42:36Z</time></trkpt><trkpt lat="45.61676933910738" lon="11.094122043519683"><ele>1116.6666666666665</ele><time>2026-05-01T08:42:37Z</time></trkpt><trkpt lat="45.61658176211657" lon="11.094173606288777"><ele>1110.3333333333333</ele><time>2026-05-01T08:42:38Z</time></trkpt><trkpt lat="45.6163810017051" lon="11.094227796377679"><ele>1104.0</ele><time>2026-05-01T08:42:39Z</time></trkpt><trkpt lat="45.61617090502951" lon="11.094280433786256"><ele>1101.6666666666667</ele><time>2026-05-01T08:42:40Z</time></trkpt><trkpt lat="45.6159550011217" lon="11.094333611844489"><ele>1099.3333333333335</ele><time>2026-05-01T08:42:41Z</time></trkpt><trkpt lat="45.61574582659578" lon="11.094379638659355"><ele>1097.0</ele><time>2026-05-01T08:42:42Z</time></trkpt><trkpt lat="45.61554219110131" lon="11.094407810304247"><ele>1097.0</ele><time>2026-05-01T08:42:43Z</time></trkpt><trkpt lat="45.6153389579995" lon="11.09442252918524"><ele>1097.0</ele><time>2026-05-01T08:42:44Z</time></trkpt><trkpt lat="45.61513322149284" lon="11.094433308923573"><ele>1097.0</ele><time>2026-05-01T08:42:45Z</time></trkpt><trkpt lat="45.61492570698778" lon="11.094440541793045"><ele>1097.6666666666667</ele><time>2026-05-01T08:42:46Z</time></trkpt><trkpt lat="45.61471666059202" lon="11.094443919218856"><ele>1098.3333333333333</ele><time>2026-05-01T08:42:47Z</time></trkpt><trkpt lat="45.61450394228556" lon="11.094444922867282"><ele>1099.0</ele><time>2026-05-01T08:42:48Z</time></trkpt><trkpt lat="45.6142888409939" lon="11.094435959686313"><ele>1099.0</ele><time>2026-05-01T08:42:49Z</time></trkpt><trkpt lat="45.614086595205514" lon="11.094385587023869"><ele>1099.0</ele><time>2026-05-01T08:42:50Z</time></trkpt><trkpt lat="45.61388338081348" lon="11.094313580308043"><ele>1099.0</ele><time>2026-05-01T08:42:51Z</time></trkpt><trkpt lat="45.613688572928616" lon="11.094238728024493"><ele>1099.0</ele><time>2026-05-01T08:42:52Z</time></trkpt><trkpt lat="45.61350376239269" lon="11.094192157649314"><ele>1099.0</ele><time>2026-05-01T08:42:53Z</time></trkpt><trkpt lat="45.61333979720263" lon="11.094173093285995"><ele>1099.0</ele><time>2026-05-01T08:42:54Z</time></trkpt><trkpt lat="45.61317999616239" lon="11.094227401637983"><ele>1099.0</ele><time>2026-05-01T08:42:55Z</time></trkpt><trkpt lat="45.61302958862973" lon="11.09435167345809"><ele>1099.0</ele><time>2026-05-01T08:42:56Z</time></trkpt><trkpt lat="45.61286751198119" lon="11.094440737030835"><ele>1099.0</ele><time>2026-05-01T08:42:57Z</time></trkpt><trkpt lat="45.61269200016224" lon="11.094478027074732"><ele>1097.0</ele><time>2026-05-01T08:42:58Z</time></trkpt><trkpt lat="45.612513324343475" lon="11.094494433440953"><ele>1095.0</ele><time>2026-05-01T08:42:59Z</time></trkpt><trkpt lat="45.61235527846698" lon="11.094477479258558"><ele>1093.0</ele><time>2026-05-01T08:43:00Z</time></trkpt><trkpt lat="45.61222993793608" lon="11.094420457827093"><ele>1093.0</ele><time>2026-05-01T08:43:01Z</time></trkpt><trkpt lat="45.61215093700324" lon="11.094260838461112"><ele>1093.0</ele><time>2026-05-01T08:43:02Z</time></trkpt><trkpt lat="45.612044696234975" lon="11.09412081447269"><ele>1093.0</ele><time>2026-05-01T08:43:03Z</time></trkpt><trkpt lat="45.61193310956274" lon="11.093997855395756"><ele>1093.0</ele><time>2026-05-01T08:43:04Z</time></trkpt><trkpt lat="45.61178226864207" lon="11.093972280539985"><ele>1092.3333333333333</ele><time>2026-05-01T08:43:05Z</time></trkpt><trkpt lat="45.61163031550502" lon="11.09401339804824"><ele>1091.6666666666667</ele><time>2026-05-01T08:43:06Z</time></trkpt><trkpt lat="45.61150720822421" lon="11.09412718728231"><ele>1091.0</ele><time>2026-05-01T08:43:07Z</time></trkpt><trkpt lat="45.61141391392899" lon="11.094315863516787"><ele>1091.0</ele><time>2026-05-01T08:43:08Z</time></trkpt><trkpt lat="45.611323750772925" lon="11.094532811191554"><ele>1091.0</ele><time>2026-05-01T08:43:09Z</time></trkpt><trkpt lat="45.611228880300935" lon="11.09471492243557"><ele>1091.0</ele><time>2026-05-01T08:43:10Z</time></trkpt><trkpt lat="45.61113219129786" lon="11.094852977162528"><ele>1091.25</ele><time>2026-05-01T08:43:11Z</time></trkpt><trkpt lat="45.611017923811424" lon="11.094922160774043"><ele>1091.5</ele><time>2026-05-01T08:43:12Z</time></trkpt><trkpt lat="45.61088225625558" lon="11.094946404606896"><ele>1091.75</ele><time>2026-05-01T08:43:13Z</time></trkpt><trkpt lat="45.61074032431429" lon="11.094870510079833"><ele>1092.0</ele><time>2026-05-01T08:43:14Z</time></trkpt><trkpt lat="45.610575453648664" lon="11.094761334215473"><ele>1090.6666666666667</ele><time>2026-05-01T08:43:15Z</time></trkpt><trkpt lat="45.61040890505083" lon="11.094691849270125"><ele>1089.3333333333335</ele><time>2026-05-01T08:43:16Z</time></trkpt><trkpt lat="45.610230352505965" lon="11.094671189748647"><ele>1088.0</ele><time>2026-05-01T08:43:17Z</time></trkpt><trkpt lat="45.61004364097448" lon="11.09471011811944"><ele>1088.0</ele><time>2026-05-01T08:43:18Z</time></trkpt><trkpt lat="45.60985210821559" lon="11.094763499048064"><ele>1088.0</ele><time>2026-05-01T08:43:19Z</time></trkpt><trkpt lat="45.60965871055132" lon="11.094820225558115"><ele>1088.0</ele><time>2026-05-01T08:43:20Z</time></trkpt><trkpt lat="45.60947275969015" lon="11.09486747313274"><ele>1086.6666666666667</ele><time>2026-05-01T08:43:21Z</time></trkpt><trkpt lat="45.60929353240214" lon="11.09491565719569"><ele>1085.3333333333333</ele><time>2026-05-01T08:43:22Z</time></trkpt><trkpt lat="45.60912897620438" lon="11.094962141002462"><ele>1084.0</ele><time>2026-05-01T08:43:23Z</time></trkpt><trkpt lat="45.608981419790155" lon="11.095017332745792"><ele>1082.75</ele><time>2026-05-01T08:43:24Z</time></trkpt><trkpt lat="45.60885008493435" lon="11.095107644410946"><ele>1081.5</ele><time>2026-05-01T08:43:25Z</time></trkpt><trkpt lat="45.60873573897275" lon="11.095231381638609"><ele>1080.25</ele><time>2026-05-01T08:43:26Z</time></trkpt><trkpt lat="45.608625406741474" lon="11.095360454006027"><ele>1079.0</ele><time>2026-05-01T08:43:27Z</time></trkpt><trkpt lat="45.608529643501285" lon="11.095485991340121"><ele>1077.0</ele><time>2026-05-01T08:43:28Z</time></trkpt><trkpt lat="45.608444312538616" lon="11.095590240247036"><ele>1075.0</ele><time>2026-05-01T08:43:29Z</time></trkpt><trkpt lat="45.60835918973988" lon="11.095676606531399"><ele>1073.0</ele><time>2026-05-01T08:43:30Z</time></trkpt><trkpt lat="45.60825870886664" lon="11.09575168332896"><ele>1071.0</ele><time>2026-05-01T08:43:31Z</time></trkpt><trkpt lat="45.608138974121545" lon="11.095781096397172"><ele>1069.75</ele><time>2026-05-01T08:43:32Z</time></trkpt><trkpt lat="45.608009852070715" lon="11.095740268540837"><ele>1068.5</ele><time>2026-05-01T08:43:33Z</time></trkpt><trkpt lat="45.60787652489945" lon="11.095661087952847"><ele>1067.25</ele><time>2026-05-01T08:43:34Z</time></trkpt><trkpt lat="45.607732116991485" lon="11.095588532250364"><ele>1066.0</ele><time>2026-05-01T08:43:35Z</time></trkpt><trkpt lat="45.60760530799648" lon="11.095512307368223"><ele>1065.5</ele><time>2026-05-01T08:43:36Z</time></trkpt><trkpt lat="45.60749002520817" lon="11.095431282117723"><ele>1065.0</ele><time>2026-05-01T08:43:37Z</time></trkpt><trkpt lat="45.60736920250155" lon="11.095404857955804"><ele>1064.5</ele><time>2026-05-01T08:43:38Z</time></trkpt><trkpt lat="45.607253216763155" lon="11.095422052577243"><ele>1064.0</ele><time>2026-05-01T08:43:39Z</time></trkpt><trkpt lat="45.60715136593907" lon="11.095465997220364"><ele>1064.0</ele><time>2026-05-01T08:43:40Z</time></trkpt><trkpt lat="45.60702810465175" lon="11.09545735793027"><ele>1064.0</ele><time>2026-05-01T08:43:41Z</time></trkpt><trkpt lat="45.60699964334034" lon="11.095707699192193"><ele>1064.0</ele><time>2026-05-01T08:43:42Z</time></trkpt><trkpt lat="45.60692287082404" lon="11.09580497162298"><ele>1064.0</ele><time>2026-05-01T08:43:43Z</time></trkpt><trkpt lat="45.60685750917606" lon="11.095886995192643"><ele>1066.6666666666667</ele><time>2026-05-01T08:43:44Z</time></trkpt><trkpt lat="45.606802331331984" lon="11.09594550423485"><ele>1069.3333333333335</ele><time>2026-05-01T08:43:45Z</time></trkpt><trkpt lat="45.606738789611164" lon="11.09595072820068"><ele>1072.0</ele><time>2026-05-01T08:43:46Z</time></trkpt><trkpt lat="45.6066531209153" lon="11.095987207791964"><ele>1074.6666666666667</ele><time>2026-05-01T08:43:48Z</time></trkpt><trkpt lat="45.60663375152417" lon="11.09616064912797"><ele>1077.3333333333333</ele><time>2026-05-01T08:43:50Z</time></trkpt><trkpt lat="45.606641678474595" lon="11.096267764623287"><ele>1080.0</ele><time>2026-05-01T08:43:52Z</time></trkpt><trkpt lat="45.60664231664629" lon="11.09638766143428"><ele>1080.0</ele><time>2026-05-01T08:43:54Z</time></trkpt><trkpt lat="45.60669962665045" lon="11.09646544728805"><ele>1080.0</ele><time>2026-05-01T08:43:57.001Z</time></trkpt><trkpt lat="45.60676516078883" lon="11.09650709461357"><ele>1080.0</ele><time>2026-05-01T08:44:01.001Z</time></trkpt><trkpt lat="45.6068230977907" lon="11.096553816603375"><ele>1080.0</ele><time>2026-05-01T08:44:02.001Z</time></trkpt><trkpt lat="45.606890991573444" lon="11.096617139322714"><ele>1080.0</ele><time>2026-05-01T08:44:03.001Z</time></trkpt><trkpt lat="45.60695868989122" lon="11.09667941067954"><ele>1080.0</ele><time>2026-05-01T08:44:04.001Z</time></trkpt><trkpt lat="45.60701231391842" lon="11.096768875969302"><ele>1080.8333333333333</ele><time>2026-05-01T08:44:05.001Z</time></trkpt><trkpt lat="45.60707362142139" lon="11.096827498893898"><ele>1081.6666666666667</ele><time>2026-05-01T08:44:06.001Z</time></trkpt><trkpt lat="45.60713590883899" lon="11.09688705887361"><ele>1082.5</ele><time>2026-05-01T08:44:07.001Z</time></trkpt><trkpt lat="45.607198947650105" lon="11.096947337356017"><ele>1083.3333333333335</ele><time>2026-05-01T08:44:08Z</time></trkpt><trkpt lat="45.6072617064683" lon="11.097010901047542"><ele>1084.1666666666667</ele><time>2026-05-01T08:44:09Z</time></trkpt><trkpt lat="45.607331634896326" lon="11.097057344898394"><ele>1085.0</ele><time>2026-05-01T08:44:10Z</time></trkpt><trkpt lat="45.607386253168706" lon="11.097130083201975"><ele>1085.0</ele><time>2026-05-01T08:44:11Z</time></trkpt><trkpt lat="45.60742166414854" lon="11.09723075485886"><ele>1085.0</ele><time>2026-05-01T08:44:12Z</time></trkpt><trkpt lat="45.60746126541617" lon="11.097328533375693"><ele>1085.0</ele><time>2026-05-01T08:44:13Z</time></trkpt><trkpt lat="45.607504392659095" lon="11.097439938005005"><ele>1085.0</ele><time>2026-05-01T08:44:14Z</time></trkpt><trkpt lat="45.607548877213326" lon="11.09756225460259"><ele>1085.0</ele><time>2026-05-01T08:44:15Z</time></trkpt><trkpt lat="45.60759539327861" lon="11.09767684805074"><ele>1085.0</ele><time>2026-05-01T08:44:16Z</time></trkpt><trkpt lat="45.60763608853052" lon="11.097803113419591"><ele>1083.8</ele><time>2026-05-01T08:44:17Z</time></trkpt><trkpt lat="45.607675851691354" lon="11.097932975981248"><ele>1082.6</ele><time>2026-05-01T08:44:18Z</time></trkpt><trkpt lat="45.60770415335493" lon="11.098067661088368"><ele>1081.4</ele><time>2026-05-01T08:44:19Z</time></trkpt><trkpt lat="45.60772761587052" lon="11.098204253882574"><ele>1080.2</ele><time>2026-05-01T08:44:20Z</time></trkpt><trkpt lat="45.607751801410295" lon="11.098345529771867"><ele>1079.0</ele><time>2026-05-01T08:44:21Z</time></trkpt><trkpt lat="45.60777478493621" lon="11.098488993814753"><ele>1077.4</ele><time>2026-05-01T08:44:22Z</time></trkpt><trkpt lat="45.6077933526878" lon="11.098628336797141"><ele>1075.8000000000002</ele><time>2026-05-01T08:44:23Z</time></trkpt><trkpt lat="45.60780269647622" lon="11.098769780538627"><ele>1074.1999999999998</ele><time>2026-05-01T08:44:24Z</time></trkpt><trkpt lat="45.607803019259215" lon="11.09891244859353"><ele>1072.6</ele><time>2026-05-01T08:44:25Z</time></trkpt><trkpt lat="45.60777824126652" lon="11.099056119055941"><ele>1071.0</ele><time>2026-05-01T08:44:26Z</time></trkpt><trkpt lat="45.6077813851344" lon="11.0991998337928"><ele>1068.6</ele><time>2026-05-01T08:44:27Z</time></trkpt><trkpt lat="45.60778726826764" lon="11.099345035373982"><ele>1066.1999999999998</ele><time>2026-05-01T08:44:28Z</time></trkpt><trkpt lat="45.60779929563778" lon="11.099496683527267"><ele>1063.8000000000002</ele><time>2026-05-01T08:44:29Z</time></trkpt><trkpt lat="45.60784061000683" lon="11.099638211844214"><ele>1061.4</ele><time>2026-05-01T08:44:30Z</time></trkpt><trkpt lat="45.60787790001066" lon="11.099779864582082"><ele>1059.0</ele><time>2026-05-01T08:44:31Z</time></trkpt><trkpt lat="45.60792386709162" lon="11.099915413222122"><ele>1064.0</ele><time>2026-05-01T08:44:32Z</time></trkpt><trkpt lat="45.60795772497759" lon="11.100058126289891"><ele>1069.0</ele><time>2026-05-01T08:44:33Z</time></trkpt><trkpt lat="45.60799364812196" lon="11.100198008084966"><ele>1074.0</ele><time>2026-05-01T08:44:34Z</time></trkpt><trkpt lat="45.60803068288372" lon="11.100334553294191"><ele>1079.0</ele><time>2026-05-01T08:44:35Z</time></trkpt><trkpt lat="45.60806504867827" lon="11.100472423705805"><ele>1084.0</ele><time>2026-05-01T08:44:36Z</time></trkpt><trkpt lat="45.60812535505708" lon="11.100591247674028"><ele>1084.0</ele><time>2026-05-01T08:44:37Z</time></trkpt><trkpt lat="45.60819273084401" lon="11.100704262011861"><ele>1084.0</ele><time>2026-05-01T08:44:38Z</time></trkpt><trkpt lat="45.60826865213294" lon="11.100804555118291"><ele>1084.0</ele><time>2026-05-01T08:44:39Z</time></trkpt><trkpt lat="45.60834102288167" lon="11.100905875663887"><ele>1084.0</ele><time>2026-05-01T08:44:40Z</time></trkpt><trkpt lat="45.60841075092387" lon="11.101020628176135"><ele>1084.0</ele><time>2026-05-01T08:44:41Z</time></trkpt><trkpt lat="45.60847522259163" lon="11.101148509166293"><ele>1083.6000000000001</ele><time>2026-05-01T08:44:42Z</time></trkpt><trkpt lat="45.60853809773074" lon="11.10127776930293"><ele>1083.2</ele><time>2026-05-01T08:44:43Z</time></trkpt><trkpt lat="45.608597409504355" lon="11.101408285056657"><ele>1082.8000000000002</ele><time>2026-05-01T08:44:44Z</time></trkpt><trkpt lat="45.60864856917464" lon="11.101547936849569"><ele>1082.4</ele><time>2026-05-01T08:44:45Z</time></trkpt><trkpt lat="45.60867807671851" lon="11.101690268475412"><ele>1082.0</ele><time>2026-05-01T08:44:46Z</time></trkpt><trkpt lat="45.608713330905175" lon="11.101839776988662"><ele>1082.0</ele><time>2026-05-01T08:44:47Z</time></trkpt><trkpt lat="45.60876259451781" lon="11.101995694408252"><ele>1082.0</ele><time>2026-05-01T08:44:48Z</time></trkpt><trkpt lat="45.608797409956594" lon="11.102147702618892"><ele>1082.0</ele><time>2026-05-01T08:44:49Z</time></trkpt><trkpt lat="45.60883334236211" lon="11.102302058944266"><ele>1082.0</ele><time>2026-05-01T08:44:50Z</time></trkpt><trkpt lat="45.60884732713111" lon="11.102456489901051"><ele>1079.2</ele><time>2026-05-01T08:44:51Z</time></trkpt><trkpt lat="45.60885626173992" lon="11.10260926586651"><ele>1076.4</ele><time>2026-05-01T08:44:52Z</time></trkpt><trkpt lat="45.60884267139447" lon="11.10275235660831"><ele>1073.6</ele><time>2026-05-01T08:44:53Z</time></trkpt><trkpt lat="45.60882155220616" lon="11.10291145636135"><ele>1070.8</ele><time>2026-05-01T08:44:54Z</time></trkpt><trkpt lat="45.608788216385406" lon="11.103079724843319"><ele>1068.0</ele><time>2026-05-01T08:44:55Z</time></trkpt><trkpt lat="45.60875352469875" lon="11.103241511303723"><ele>1066.6</ele><time>2026-05-01T08:44:56Z</time></trkpt><trkpt lat="45.60872217968262" lon="11.103401872737885"><ele>1065.1999999999998</ele><time>2026-05-01T08:44:57Z</time></trkpt><trkpt lat="45.60871148375695" lon="11.103550703417204"><ele>1063.8</ele><time>2026-05-01T08:44:58Z</time></trkpt><trkpt lat="45.608745578921614" lon="11.103707512250606"><ele>1062.3999999999999</ele><time>2026-05-01T08:44:59Z</time></trkpt><trkpt lat="45.608798070477306" lon="11.103842083997684"><ele>1061.0</ele><time>2026-05-01T08:45:00Z</time></trkpt><trkpt lat="45.60886303430494" lon="11.103958280726868"><ele>1061.0</ele><time>2026-05-01T08:45:01Z</time></trkpt><trkpt lat="45.60893077865419" lon="11.104076767045562"><ele>1061.0</ele><time>2026-05-01T08:45:02Z</time></trkpt><trkpt lat="45.60900691329168" lon="11.104184892618335"><ele>1061.0</ele><time>2026-05-01T08:45:03Z</time></trkpt><trkpt lat="45.60908504297177" lon="11.104280093637144"><ele>1061.0</ele><time>2026-05-01T08:45:04Z</time></trkpt><trkpt lat="45.60915123730537" lon="11.10437671964104"><ele>1061.0</ele><time>2026-05-01T08:45:05Z</time></trkpt><trkpt lat="45.609171644394486" lon="11.104511859402475"><ele>1057.5</ele><time>2026-05-01T08:45:06Z</time></trkpt><trkpt lat="45.609197329830344" lon="11.10466157747099"><ele>1054.0</ele><time>2026-05-01T08:45:07Z</time></trkpt><trkpt lat="45.60922361523286" lon="11.104814110688642"><ele>1050.5</ele><time>2026-05-01T08:45:08Z</time></trkpt><trkpt lat="45.609267146377434" lon="11.104971188421143"><ele>1047.0</ele><time>2026-05-01T08:45:09Z</time></trkpt><trkpt lat="45.609286550721954" lon="11.105137106039752"><ele>1043.25</ele><time>2026-05-01T08:45:10Z</time></trkpt><trkpt lat="45.60931805427628" lon="11.105299900669085"><ele>1039.5</ele><time>2026-05-01T08:45:11Z</time></trkpt><trkpt lat="45.60935168993072" lon="11.105460031898486"><ele>1035.75</ele><time>2026-05-01T08:45:12Z</time></trkpt><trkpt lat="45.60939995679901" lon="11.105622552114074"><ele>1032.0</ele><time>2026-05-01T08:45:13Z</time></trkpt><trkpt lat="45.609448294766864" lon="11.105778944184468"><ele>1033.2</ele><time>2026-05-01T08:45:14Z</time></trkpt><trkpt lat="45.60949721812957" lon="11.105919025566257"><ele>1034.4</ele><time>2026-05-01T08:45:15Z</time></trkpt><trkpt lat="45.60955793582849" lon="11.106031295468428"><ele>1035.6</ele><time>2026-05-01T08:45:16Z</time></trkpt><trkpt lat="45.60962609928715" lon="11.10610196590786"><ele>1036.8</ele><time>2026-05-01T08:45:17Z</time></trkpt><trkpt lat="45.60969184070938" lon="11.106222387617423"><ele>1038.0</ele><time>2026-05-01T08:45:19Z</time></trkpt><trkpt lat="45.60960898866462" lon="11.106302443818935"><ele>1038.0</ele><time>2026-05-01T08:45:21Z</time></trkpt><trkpt lat="45.609555797601296" lon="11.106249257819329"><ele>1038.0</ele><time>2026-05-01T08:45:22Z</time></trkpt><trkpt lat="45.60951448767673" lon="11.10615906833917"><ele>1038.0</ele><time>2026-05-01T08:45:23Z</time></trkpt><trkpt lat="45.60945983714354" lon="11.10603141307518"><ele>1038.0</ele><time>2026-05-01T08:45:24Z</time></trkpt><trkpt lat="45.60938591719162" lon="11.105875805688715"><ele>1038.0</ele><time>2026-05-01T08:45:25Z</time></trkpt><trkpt lat="45.609316478997876" lon="11.105746975275787"><ele>1036.8</ele><time>2026-05-01T08:45:26Z</time></trkpt><trkpt lat="45.6092625022573" lon="11.105631664279397"><ele>1035.6</ele><time>2026-05-01T08:45:27Z</time></trkpt><trkpt lat="45.60922582309764" lon="11.105527969060047"><ele>1034.4</ele><time>2026-05-01T08:45:28Z</time></trkpt><trkpt lat="45.609188907861004" lon="11.10544846750734"><ele>1033.2</ele><time>2026-05-01T08:45:29Z</time></trkpt><trkpt lat="45.60907472554299" lon="11.105476873225596"><ele>1032.0</ele><time>2026-05-01T08:45:31Z</time></trkpt><trkpt lat="45.609037715041836" lon="11.105620502907803"><ele>1032.0</ele><time>2026-05-01T08:45:33Z</time></trkpt><trkpt lat="45.60910599756339" lon="11.105708907648221"><ele>1032.0</ele><time>2026-05-01T08:45:34Z</time></trkpt><trkpt lat="45.6091665648708" lon="11.105804052086363"><ele>1032.0</ele><time>2026-05-01T08:45:35Z</time></trkpt><trkpt lat="45.60921725627201" lon="11.105898341842153"><ele>1032.0</ele><time>2026-05-01T08:45:36Z</time></trkpt><trkpt lat="45.60924480438903" lon="11.106009733432051"><ele>1032.0</ele><time>2026-05-01T08:45:37Z</time></trkpt><trkpt lat="45.60920265424315" lon="11.106119672077499"><ele>1032.0</ele><time>2026-05-01T08:45:38Z</time></trkpt><trkpt lat="45.60914468208251" lon="11.106228378688726"><ele>1029.75</ele><time>2026-05-01T08:45:39Z</time></trkpt><trkpt lat="45.60904520840229" lon="11.10633936066034"><ele>1027.5</ele><time>2026-05-01T08:45:40Z</time></trkpt><trkpt lat="45.60894395266799" lon="11.106429224556914"><ele>1025.25</ele><time>2026-05-01T08:45:41Z</time></trkpt><trkpt lat="45.60885208000277" lon="11.10652636801561"><ele>1023.0</ele><time>2026-05-01T08:45:42Z</time></trkpt><trkpt lat="45.608782725153006" lon="11.106659901294233"><ele>1022.75</ele><time>2026-05-01T08:45:43Z</time></trkpt><trkpt lat="45.60874795746189" lon="11.106833982607528"><ele>1022.5</ele><time>2026-05-01T08:45:43.999Z</time></trkpt><trkpt lat="45.60875992890205" lon="11.107010519278367"><ele>1022.25</ele><time>2026-05-01T08:45:44.999Z</time></trkpt><trkpt lat="45.608825809968444" lon="11.10717986999208"><ele>1022.0</ele><time>2026-05-01T08:45:45.999Z</time></trkpt><trkpt lat="45.60889142795484" lon="11.107342822376479"><ele>1019.75</ele><time>2026-05-01T08:45:46.999Z</time></trkpt><trkpt lat="45.60897841514103" lon="11.107471511672667"><ele>1017.5</ele><time>2026-05-01T08:45:47.999Z</time></trkpt><trkpt lat="45.609078572964165" lon="11.107567314952538"><ele>1015.25</ele><time>2026-05-01T08:45:48.999Z</time></trkpt><trkpt lat="45.60921393398684" lon="11.107624026266967"><ele>1013.0</ele><time>2026-05-01T08:45:49.999Z</time></trkpt><trkpt lat="45.60936524302334" lon="11.107704470220801"><ele>1013.3333333333334</ele><time>2026-05-01T08:45:50.999Z</time></trkpt><trkpt lat="45.609530321142636" lon="11.107782668848355"><ele>1013.6666666666667</ele><time>2026-05-01T08:45:51.999Z</time></trkpt><trkpt lat="45.609701096654504" lon="11.107867999975232"><ele>1014.0</ele><time>2026-05-01T08:45:52.999Z</time></trkpt><trkpt lat="45.60986266043324" lon="11.107931846199385"><ele>1014.0</ele><time>2026-05-01T08:45:53.999Z</time></trkpt><trkpt lat="45.6100051684536" lon="11.108017754771579"><ele>1014.0</ele><time>2026-05-01T08:45:54.999Z</time></trkpt><trkpt lat="45.610125858109576" lon="11.108075428958058"><ele>1014.0</ele><time>2026-05-01T08:45:55.999Z</time></trkpt><trkpt lat="45.610235873120814" lon="11.10807993098028"><ele>1014.0</ele><time>2026-05-01T08:45:56.999Z</time></trkpt><trkpt lat="45.61034561232881" lon="11.107998885110058"><ele>1010.3333333333333</ele><time>2026-05-01T08:45:57.999Z</time></trkpt><trkpt lat="45.61045361305047" lon="11.107859594030453"><ele>1006.6666666666666</ele><time>2026-05-01T08:45:58.999Z</time></trkpt><trkpt lat="45.610571840608884" lon="11.107708016701435"><ele>1003.0</ele><time>2026-05-01T08:45:59.999Z</time></trkpt><trkpt lat="45.6107118494542" lon="11.107651360014344"><ele>1003.0</ele><time>2026-05-01T08:46:01Z</time></trkpt><trkpt lat="45.61086467614444" lon="11.107652263184946"><ele>1003.0</ele><time>2026-05-01T08:46:02Z</time></trkpt><trkpt lat="45.61101924623462" lon="11.107628219373272"><ele>1003.0</ele><time>2026-05-01T08:46:03Z</time></trkpt><trkpt lat="45.61115882970638" lon="11.107608721381158"><ele>1003.0</ele><time>2026-05-01T08:46:04Z</time></trkpt><trkpt lat="45.61127803557037" lon="11.107546067014654"><ele>1004.5</ele><time>2026-05-01T08:46:05Z</time></trkpt><trkpt lat="45.61134239499972" lon="11.10738197226743"><ele>1006.0</ele><time>2026-05-01T08:46:06Z</time></trkpt><trkpt lat="45.61143532420597" lon="11.107270025647901"><ele>1007.5</ele><time>2026-05-01T08:46:07Z</time></trkpt><trkpt lat="45.611546373039126" lon="11.107187930042409"><ele>1009.0</ele><time>2026-05-01T08:46:08Z</time></trkpt><trkpt lat="45.61170586915765" lon="11.107247631659929"><ele>1009.0</ele><time>2026-05-01T08:46:09Z</time></trkpt><trkpt lat="45.611901046827086" lon="11.107286920696765"><ele>1009.0</ele><time>2026-05-01T08:46:10Z</time></trkpt><trkpt lat="45.61208476197137" lon="11.10732390431659"><ele>1009.0</ele><time>2026-05-01T08:46:11Z</time></trkpt><trkpt lat="45.61225220694425" lon="11.107371145823851"><ele>1000.3333333333333</ele><time>2026-05-01T08:46:12Z</time></trkpt><trkpt lat="45.612406062855236" lon="11.10746263350705"><ele>991.6666666666667</ele><time>2026-05-01T08:46:13Z</time></trkpt><trkpt lat="45.612557486571085" lon="11.107585486039596"><ele>983.0</ele><time>2026-05-01T08:46:14Z</time></trkpt><trkpt lat="45.612713165126344" lon="11.107722742205805"><ele>983.6666666666667</ele><time>2026-05-01T08:46:15Z</time></trkpt><trkpt lat="45.612897855174296" lon="11.107807306241071"><ele>984.3333333333333</ele><time>2026-05-01T08:46:16Z</time></trkpt><trkpt lat="45.61307984307042" lon="11.10789917146705"><ele>985.0</ele><time>2026-05-01T08:46:17Z</time></trkpt><trkpt lat="45.613260388428074" lon="11.107977158169312"><ele>985.0</ele><time>2026-05-01T08:46:18Z</time></trkpt><trkpt lat="45.613429024481455" lon="11.10804857513697"><ele>985.0</ele><time>2026-05-01T08:46:19Z</time></trkpt><trkpt lat="45.61358755094649" lon="11.108119047642235"><ele>985.0</ele><time>2026-05-01T08:46:20Z</time></trkpt><trkpt lat="45.61372930459945" lon="11.108194532853169"><ele>980.75</ele><time>2026-05-01T08:46:21Z</time></trkpt><trkpt lat="45.61386057291922" lon="11.108259847103012"><ele>976.5</ele><time>2026-05-01T08:46:22Z</time></trkpt><trkpt lat="45.613979235515885" lon="11.108295062002481"><ele>972.25</ele><time>2026-05-01T08:46:23Z</time></trkpt><trkpt lat="45.614103722836276" lon="11.108292844291688"><ele>968.0</ele><time>2026-05-01T08:46:24Z</time></trkpt><trkpt lat="45.61422375218024" lon="11.108244334780917"><ele>968.0</ele><time>2026-05-01T08:46:25Z</time></trkpt><trkpt lat="45.61433907937263" lon="11.108176548332205"><ele>968.0</ele><time>2026-05-01T08:46:26Z</time></trkpt><trkpt lat="45.61443568632331" lon="11.108128431868394"><ele>968.0</ele><time>2026-05-01T08:46:27Z</time></trkpt><trkpt lat="45.61453820069562" lon="11.108120867458359"><ele>968.0</ele><time>2026-05-01T08:46:28Z</time></trkpt><trkpt lat="45.6146269497397" lon="11.10822256747903"><ele>968.0</ele><time>2026-05-01T08:46:29Z</time></trkpt><trkpt lat="45.6147165042548" lon="11.1083793213824"><ele>968.0</ele><time>2026-05-01T08:46:30Z</time></trkpt><trkpt lat="45.614778309489914" lon="11.108594941592361"><ele>968.0</ele><time>2026-05-01T08:46:31Z</time></trkpt><trkpt lat="45.614883408949794" lon="11.10877131718413"><ele>968.0</ele><time>2026-05-01T08:46:32Z</time></trkpt><trkpt lat="45.61498258389769" lon="11.108927713039442"><ele>968.0</ele><time>2026-05-01T08:46:33Z</time></trkpt><trkpt lat="45.61509616136012" lon="11.10905233540477"><ele>968.0</ele><time>2026-05-01T08:46:34Z</time></trkpt><trkpt lat="45.615213986013316" lon="11.109188785014815"><ele>968.0</ele><time>2026-05-01T08:46:35Z</time></trkpt><trkpt lat="45.61534813414101" lon="11.109310157339976"><ele>968.0</ele><time>2026-05-01T08:46:36Z</time></trkpt><trkpt lat="45.61549410520198" lon="11.109425528341776"><ele>968.0</ele><time>2026-05-01T08:46:37Z</time></trkpt><trkpt lat="45.615633685937674" lon="11.109543636803053"><ele>968.0</ele><time>2026-05-01T08:46:38Z</time></trkpt><trkpt lat="45.61576934027363" lon="11.109693067850634"><ele>968.0</ele><time>2026-05-01T08:46:39Z</time></trkpt><trkpt lat="45.61592519929757" lon="11.109809530668326"><ele>968.0</ele><time>2026-05-01T08:46:40Z</time></trkpt><trkpt lat="45.61606749762162" lon="11.109943320001928"><ele>968.0</ele><time>2026-05-01T08:46:41Z</time></trkpt><trkpt lat="45.6162092371479" lon="11.110070598449862"><ele>964.3333333333334</ele><time>2026-05-01T08:46:42Z</time></trkpt><trkpt lat="45.616349947401645" lon="11.110199752594227"><ele>960.6666666666667</ele><time>2026-05-01T08:46:43Z</time></trkpt><trkpt lat="45.61648435242209" lon="11.110318515371292"><ele>957.0</ele><time>2026-05-01T08:46:44Z</time></trkpt><trkpt lat="45.61660671568977" lon="11.110425025372948"><ele>957.0</ele><time>2026-05-01T08:46:45Z</time></trkpt><trkpt lat="45.61670145716886" lon="11.110543847856684"><ele>957.0</ele><time>2026-05-01T08:46:46Z</time></trkpt><trkpt lat="45.616769302784135" lon="11.110650168368867"><ele>957.0</ele><time>2026-05-01T08:46:47Z</time></trkpt><trkpt lat="45.616786509898475" lon="11.110792102220167"><ele>957.0</ele><time>2026-05-01T08:46:48Z</time></trkpt><trkpt lat="45.616756671230306" lon="11.110930985579412"><ele>957.0</ele><time>2026-05-01T08:46:49Z</time></trkpt><trkpt lat="45.61666526078325" lon="11.111040743677767"><ele>952.6666666666667</ele><time>2026-05-01T08:46:50Z</time></trkpt><trkpt lat="45.61653492569495" lon="11.111112189770834"><ele>948.3333333333334</ele><time>2026-05-01T08:46:51Z</time></trkpt><trkpt lat="45.61637179014824" lon="11.111226555610008"><ele>944.0</ele><time>2026-05-01T08:46:52Z</time></trkpt><trkpt lat="45.61619830822953" lon="11.111336637392096"><ele>945.0</ele><time>2026-05-01T08:46:53Z</time></trkpt><trkpt lat="45.61604494741471" lon="11.111437557381334"><ele>946.0</ele><time>2026-05-01T08:46:54Z</time></trkpt><trkpt lat="45.61592225647299" lon="11.111521609396494"><ele>947.0</ele><time>2026-05-01T08:46:55Z</time></trkpt><trkpt lat="45.61581851332416" lon="11.111598862795287"><ele>948.0</ele><time>2026-05-01T08:46:56Z</time></trkpt><trkpt lat="45.61573088914306" lon="11.111692545522834"><ele>945.25</ele><time>2026-05-01T08:46:57Z</time></trkpt><trkpt lat="45.61570789747728" lon="11.11184619974702"><ele>942.5</ele><time>2026-05-01T08:46:58Z</time></trkpt><trkpt lat="45.61573121271735" lon="11.111999681543502"><ele>939.75</ele><time>2026-05-01T08:46:59Z</time></trkpt><trkpt lat="45.6157938694003" lon="11.11214048276927"><ele>937.0</ele><time>2026-05-01T08:47:00Z</time></trkpt><trkpt lat="45.61590276365721" lon="11.11222146404562"><ele>937.0</ele><time>2026-05-01T08:47:01Z</time></trkpt><trkpt lat="45.6160582709868" lon="11.11225402657192"><ele>937.0</ele><time>2026-05-01T08:47:02Z</time></trkpt><trkpt lat="45.61622333140381" lon="11.112271047615844"><ele>937.0</ele><time>2026-05-01T08:47:03Z</time></trkpt><trkpt lat="45.616368925774914" lon="11.112333433047827"><ele>936.6</ele><time>2026-05-01T08:47:04Z</time></trkpt><trkpt lat="45.61648178016079" lon="11.112382835207518"><ele>936.2</ele><time>2026-05-01T08:47:05Z</time></trkpt><trkpt lat="45.61657495061769" lon="11.112456893477416"><ele>935.8</ele><time>2026-05-01T08:47:06Z</time></trkpt><trkpt lat="45.616620704803694" lon="11.112579298494438"><ele>935.4</ele><time>2026-05-01T08:47:07Z</time></trkpt><trkpt lat="45.616621845775406" lon="11.112714113865135"><ele>935.0</ele><time>2026-05-01T08:47:08Z</time></trkpt><trkpt lat="45.61658240392625" lon="11.112856062947133"><ele>933.25</ele><time>2026-05-01T08:47:09Z</time></trkpt><trkpt lat="45.616497286032335" lon="11.112968422152818"><ele>931.5</ele><time>2026-05-01T08:47:10Z</time></trkpt><trkpt lat="45.61636634637117" lon="11.113016100461179"><ele>929.75</ele><time>2026-05-01T08:47:11Z</time></trkpt><trkpt lat="45.61621074473137" lon="11.113106731639498"><ele>928.0</ele><time>2026-05-01T08:47:12Z</time></trkpt><trkpt lat="45.61605258924048" lon="11.113233580208886"><ele>925.6666666666666</ele><time>2026-05-01T08:47:13Z</time></trkpt><trkpt lat="45.61588909142159" lon="11.113397832063264"><ele>923.3333333333333</ele><time>2026-05-01T08:47:14Z</time></trkpt><trkpt lat="45.615741088212914" lon="11.113585224292954"><ele>921.0</ele><time>2026-05-01T08:47:15Z</time></trkpt><trkpt lat="45.61558176568816" lon="11.113761434349293"><ele>921.0</ele><time>2026-05-01T08:47:16Z</time></trkpt><trkpt lat="45.61544208675906" lon="11.1139403901637"><ele>921.0</ele><time>2026-05-01T08:47:17Z</time></trkpt><trkpt lat="45.61531191900718" lon="11.114108317701083"><ele>921.0</ele><time>2026-05-01T08:47:18Z</time></trkpt><trkpt lat="45.61519436720924" lon="11.114266005981051"><ele>919.5</ele><time>2026-05-01T08:47:19Z</time></trkpt><trkpt lat="45.615088350096066" lon="11.114406086925827"><ele>918.0</ele><time>2026-05-01T08:47:20Z</time></trkpt><trkpt lat="45.61498346067954" lon="11.114519941230244"><ele>916.5</ele><time>2026-05-01T08:47:21Z</time></trkpt><trkpt lat="45.61486184941181" lon="11.114607373079087"><ele>915.0</ele><time>2026-05-01T08:47:22Z</time></trkpt><trkpt lat="45.6147048882598" lon="11.114631314803043"><ele>915.0</ele><time>2026-05-01T08:47:23Z</time></trkpt><trkpt lat="45.614533230339894" lon="11.114672572873232"><ele>915.0</ele><time>2026-05-01T08:47:24Z</time></trkpt><trkpt lat="45.61435237044011" lon="11.114735553352242"><ele>915.0</ele><time>2026-05-01T08:47:25Z</time></trkpt><trkpt lat="45.614174180590076" lon="11.114774968819914"><ele>917.0</ele><time>2026-05-01T08:47:26Z</time></trkpt><trkpt lat="45.6140084021241" lon="11.114814120909163"><ele>919.0</ele><time>2026-05-01T08:47:27Z</time></trkpt><trkpt lat="45.6138599835988" lon="11.114873518457681"><ele>921.0</ele><time>2026-05-01T08:47:28Z</time></trkpt><trkpt lat="45.61372397776191" lon="11.11496138084641"><ele>920.3333333333333</ele><time>2026-05-01T08:47:29Z</time></trkpt><trkpt lat="45.61360029171182" lon="11.115081371840267"><ele>919.6666666666666</ele><time>2026-05-01T08:47:30Z</time></trkpt><trkpt lat="45.6134927597136" lon="11.115236969037642"><ele>919.0</ele><time>2026-05-01T08:47:31Z</time></trkpt><trkpt lat="45.61340106155605" lon="11.11541468406094"><ele>919.0</ele><time>2026-05-01T08:47:32Z</time></trkpt><trkpt lat="45.61331514397663" lon="11.115582485395366"><ele>919.0</ele><time>2026-05-01T08:47:33Z</time></trkpt><trkpt lat="45.61324045659081" lon="11.115754243134347"><ele>919.0</ele><time>2026-05-01T08:47:33.999Z</time></trkpt><trkpt lat="45.61313647386001" lon="11.115873749808701"><ele>919.0</ele><time>2026-05-01T08:47:34.999Z</time></trkpt><trkpt lat="45.61302871495521" lon="11.11596152087674"><ele>915.6666666666666</ele><time>2026-05-01T08:47:35.999Z</time></trkpt><trkpt lat="45.612900170850025" lon="11.11608437913482"><ele>912.3333333333333</ele><time>2026-05-01T08:47:36.999Z</time></trkpt><trkpt lat="45.61274917599962" lon="11.116182847707384"><ele>909.0</ele><time>2026-05-01T08:47:37.999Z</time></trkpt><trkpt lat="45.612592260261685" lon="11.116289452677373"><ele>908.3333333333333</ele><time>2026-05-01T08:47:38.999Z</time></trkpt><trkpt lat="45.612431814316466" lon="11.11640027999721"><ele>907.6666666666666</ele><time>2026-05-01T08:47:39.999Z</time></trkpt><trkpt lat="45.61225994957259" lon="11.11648199209836"><ele>907.0</ele><time>2026-05-01T08:47:40.999Z</time></trkpt><trkpt lat="45.61210364299267" lon="11.11658886747564"><ele>905.3333333333333</ele><time>2026-05-01T08:47:41.999Z</time></trkpt><trkpt lat="45.61195718628102" lon="11.116686701926016"><ele>903.6666666666667</ele><time>2026-05-01T08:47:42.999Z</time></trkpt><trkpt lat="45.611816921875665" lon="11.11677407304456"><ele>902.0</ele><time>2026-05-01T08:47:43.999Z</time></trkpt><trkpt lat="45.61166906108307" lon="11.116846343483378"><ele>902.0</ele><time>2026-05-01T08:47:44.999Z</time></trkpt><trkpt lat="45.61151534546357" lon="11.11688104814459"><ele>902.0</ele><time>2026-05-01T08:47:45.999Z</time></trkpt><trkpt lat="45.61135227347408" lon="11.116897013854384"><ele>902.0</ele><time>2026-05-01T08:47:46.999Z</time></trkpt><trkpt lat="45.611179736703775" lon="11.116902232004788"><ele>902.6666666666667</ele><time>2026-05-01T08:47:47.999Z</time></trkpt><trkpt lat="45.61100311034104" lon="11.116926196261366"><ele>903.3333333333333</ele><time>2026-05-01T08:47:48.999Z</time></trkpt><trkpt lat="45.6108317703201" lon="11.116889524296814"><ele>904.0</ele><time>2026-05-01T08:47:49.999Z</time></trkpt><trkpt lat="45.61068087222132" lon="11.11689250702474"><ele>904.0</ele><time>2026-05-01T08:47:50.999Z</time></trkpt><trkpt lat="45.61055323373193" lon="11.116873499931861"><ele>904.0</ele><time>2026-05-01T08:47:51.999Z</time></trkpt><trkpt lat="45.61044258287828" lon="11.116880465154665"><ele>904.0</ele><time>2026-05-01T08:47:52.999Z</time></trkpt><trkpt lat="45.61034191528891" lon="11.116925975979056"><ele>904.0</ele><time>2026-05-01T08:47:53.999Z</time></trkpt><trkpt lat="45.61026295114785" lon="11.11705681989877"><ele>904.3333333333333</ele><time>2026-05-01T08:47:54.999Z</time></trkpt><trkpt lat="45.61014342806133" lon="11.117180637430412"><ele>904.6666666666667</ele><time>2026-05-01T08:47:55.999Z</time></trkpt><trkpt lat="45.609996572450164" lon="11.117286493592385"><ele>905.0</ele><time>2026-05-01T08:47:56.999Z</time></trkpt><trkpt lat="45.6098457391625" lon="11.117389911012383"><ele>904.5</ele><time>2026-05-01T08:47:57.999Z</time></trkpt><trkpt lat="45.609706732924515" lon="11.117486697172053"><ele>904.0</ele><time>2026-05-01T08:47:58.999Z</time></trkpt><trkpt lat="45.60960221617606" lon="11.117606956800858"><ele>903.5</ele><time>2026-05-01T08:47:59.999Z</time></trkpt><trkpt lat="45.609517092159926" lon="11.117720269802886"><ele>903.0</ele><time>2026-05-01T08:48:00.999Z</time></trkpt><trkpt lat="45.60946149625703" lon="11.117882616605073"><ele>903.0</ele><time>2026-05-01T08:48:01.999Z</time></trkpt><trkpt lat="45.60945223264946" lon="11.118081601579693"><ele>903.0</ele><time>2026-05-01T08:48:02.999Z</time></trkpt><trkpt lat="45.60945835543382" lon="11.118301281743028"><ele>903.0</ele><time>2026-05-01T08:48:03.999Z</time></trkpt><trkpt lat="45.60945627286543" lon="11.118520389329065"><ele>903.0</ele><time>2026-05-01T08:48:04.999Z</time></trkpt><trkpt lat="45.60944672034488" lon="11.118706726134393"><ele>898.3333333333334</ele><time>2026-05-01T08:48:05.999Z</time></trkpt><trkpt lat="45.60943104759737" lon="11.118834826140311"><ele>893.6666666666667</ele><time>2026-05-01T08:48:07Z</time></trkpt><trkpt lat="45.60939467423037" lon="11.118910099869298"><ele>889.0</ele><time>2026-05-01T08:48:09Z</time></trkpt><trkpt lat="45.60933736090839" lon="11.118860319678017"><ele>884.3333333333334</ele><time>2026-05-01T08:48:11Z</time></trkpt><trkpt lat="45.609342555999675" lon="11.118747747790719"><ele>879.6666666666667</ele><time>2026-05-01T08:48:12Z</time></trkpt><trkpt lat="45.60937471660731" lon="11.118603314868848"><ele>875.0</ele><time>2026-05-01T08:48:13Z</time></trkpt><trkpt lat="45.60939316217249" lon="11.118442632571663"><ele>875.0</ele><time>2026-05-01T08:48:14Z</time></trkpt><trkpt lat="45.60939679383719" lon="11.118271041972072"><ele>875.0</ele><time>2026-05-01T08:48:15Z</time></trkpt><trkpt lat="45.60939611791891" lon="11.118112218285969"><ele>875.0</ele><time>2026-05-01T08:48:16Z</time></trkpt><trkpt lat="45.6093946400867" lon="11.117978911122682"><ele>875.0</ele><time>2026-05-01T08:48:17Z</time></trkpt><trkpt lat="45.60940123920534" lon="11.117860449258608"><ele>875.0</ele><time>2026-05-01T08:48:18Z</time></trkpt><trkpt lat="45.60933302592763" lon="11.117741220445247"><ele>875.0</ele><time>2026-05-01T08:48:20Z</time></trkpt><trkpt lat="45.60927205920719" lon="11.117770144587965"><ele>875.0</ele><time>2026-05-01T08:48:21Z</time></trkpt><trkpt lat="45.60921917574957" lon="11.1178616613435"><ele>875.0</ele><time>2026-05-01T08:48:22Z</time></trkpt><trkpt lat="45.609245481455865" lon="11.118044096078808"><ele>875.0</ele><time>2026-05-01T08:48:23Z</time></trkpt><trkpt lat="45.60927503314625" lon="11.118214661743522"><ele>875.0</ele><time>2026-05-01T08:48:24Z</time></trkpt><trkpt lat="45.60928795658371" lon="11.11838311378915"><ele>875.0</ele><time>2026-05-01T08:48:25Z</time></trkpt><trkpt lat="45.60927698956719" lon="11.11857792773094"><ele>875.0</ele><time>2026-05-01T08:48:26Z</time></trkpt><trkpt lat="45.60918398768872" lon="11.11875861054208"><ele>875.0</ele><time>2026-05-01T08:48:27Z</time></trkpt><trkpt lat="45.60914470527867" lon="11.118941587833666"><ele>875.0</ele><time>2026-05-01T08:48:28Z</time></trkpt><trkpt lat="45.609121787026496" lon="11.119100056201598"><ele>871.5</ele><time>2026-05-01T08:48:29Z</time></trkpt><trkpt lat="45.60913149241989" lon="11.11923486985273"><ele>868.0</ele><time>2026-05-01T08:48:30Z</time></trkpt><trkpt lat="45.609139339446344" lon="11.119377170559696"><ele>864.5</ele><time>2026-05-01T08:48:31Z</time></trkpt><trkpt lat="45.609276139208205" lon="11.11948033662192"><ele>861.0</ele><time>2026-05-01T08:48:32Z</time></trkpt><trkpt lat="45.6093806575102" lon="11.119574631973043"><ele>862.0</ele><time>2026-05-01T08:48:33Z</time></trkpt><trkpt lat="45.60951183895631" lon="11.119657715555029"><ele>863.0</ele><time>2026-05-01T08:48:34Z</time></trkpt><trkpt lat="45.60964745517428" lon="11.11973189271066"><ele>864.0</ele><time>2026-05-01T08:48:35Z</time></trkpt><trkpt lat="45.609769220573995" lon="11.119808757762204"><ele>865.0</ele><time>2026-05-01T08:48:36Z</time></trkpt><trkpt lat="45.609870894740126" lon="11.119905751980033"><ele>865.0</ele><time>2026-05-01T08:48:37Z</time></trkpt><trkpt lat="45.609962786408026" lon="11.119993627330771"><ele>865.0</ele><time>2026-05-01T08:48:38Z</time></trkpt><trkpt lat="45.61003867304849" lon="11.120102222844478"><ele>865.0</ele><time>2026-05-01T08:48:39Z</time></trkpt><trkpt lat="45.610096989197245" lon="11.120212271398836"><ele>865.0</ele><time>2026-05-01T08:48:40Z</time></trkpt><trkpt lat="45.61012611374117" lon="11.120336937350928"><ele>865.0</ele><time>2026-05-01T08:48:41Z</time></trkpt><trkpt lat="45.61013803845472" lon="11.120476774020954"><ele>865.0</ele><time>2026-05-01T08:48:42Z</time></trkpt><trkpt lat="45.61016448156946" lon="11.12065601967844"><ele>865.0</ele><time>2026-05-01T08:48:43Z</time></trkpt><trkpt lat="45.61019304825256" lon="11.120859249132673"><ele>865.0</ele><time>2026-05-01T08:48:44Z</time></trkpt><trkpt lat="45.610223558463545" lon="11.121053148073118"><ele>865.0</ele><time>2026-05-01T08:48:45Z</time></trkpt><trkpt lat="45.61026581396234" lon="11.121217891129787"><ele>863.6</ele><time>2026-05-01T08:48:46Z</time></trkpt><trkpt lat="45.61028397798066" lon="11.12138145652261"><ele>862.2</ele><time>2026-05-01T08:48:47Z</time></trkpt><trkpt lat="45.610311774754734" lon="11.121516127842542"><ele>860.8</ele><time>2026-05-01T08:48:48Z</time></trkpt><trkpt lat="45.610370985120305" lon="11.121628422712673"><ele>859.4</ele><time>2026-05-01T08:48:49Z</time></trkpt><trkpt lat="45.61046951112804" lon="11.121693025943811"><ele>858.0</ele><time>2026-05-01T08:48:50Z</time></trkpt><trkpt lat="45.61059847697568" lon="11.121758576130857"><ele>858.0</ele><time>2026-05-01T08:48:51Z</time></trkpt><trkpt lat="45.610734890220556" lon="11.121864436737491"><ele>858.0</ele><time>2026-05-01T08:48:52Z</time></trkpt><trkpt lat="45.61084335901146" lon="11.122023352412295"><ele>858.0</ele><time>2026-05-01T08:48:53Z</time></trkpt><trkpt lat="45.610942158490246" lon="11.12217800320672"><ele>858.0</ele><time>2026-05-01T08:48:54Z</time></trkpt><trkpt lat="45.61104182011683" lon="11.122308924559702"><ele>858.0</ele><time>2026-05-01T08:48:55Z</time></trkpt><trkpt lat="45.61112584334267" lon="11.122422994109499"><ele>858.0</ele><time>2026-05-01T08:48:56Z</time></trkpt><trkpt lat="45.6112461433227" lon="11.122497382495018"><ele>858.0</ele><time>2026-05-01T08:48:57Z</time></trkpt><trkpt lat="45.61138736306638" lon="11.1225688248771"><ele>857.0</ele><time>2026-05-01T08:48:58Z</time></trkpt><trkpt lat="45.61149557039366" lon="11.122674604765699"><ele>856.0</ele><time>2026-05-01T08:48:59Z</time></trkpt><trkpt lat="45.61157265752643" lon="11.122802314228538"><ele>855.0</ele><time>2026-05-01T08:49:00Z</time></trkpt><trkpt lat="45.61162428515851" lon="11.122952378094102"><ele>854.0</ele><time>2026-05-01T08:49:01Z</time></trkpt><trkpt lat="45.611651573222375" lon="11.123121580822996"><ele>845.25</ele><time>2026-05-01T08:49:02Z</time></trkpt><trkpt lat="45.611670718887794" lon="11.123277172068994"><ele>836.5</ele><time>2026-05-01T08:49:03Z</time></trkpt><trkpt lat="45.61172936305348" lon="11.123399700589571"><ele>827.75</ele><time>2026-05-01T08:49:04Z</time></trkpt><trkpt lat="45.61185240855407" lon="11.123456060331113"><ele>819.0</ele><time>2026-05-01T08:49:05Z</time></trkpt><trkpt lat="45.611979697169964" lon="11.12349086151151"><ele>828.6</ele><time>2026-05-01T08:49:06Z</time></trkpt><trkpt lat="45.61210446161939" lon="11.123503517960048"><ele>838.2</ele><time>2026-05-01T08:49:07Z</time></trkpt><trkpt lat="45.61218593655179" lon="11.12356803094554"><ele>847.8000000000001</ele><time>2026-05-01T08:49:08Z</time></trkpt><trkpt lat="45.61224203917474" lon="11.12365935260887"><ele>857.4000000000001</ele><time>2026-05-01T08:49:09Z</time></trkpt><trkpt lat="45.6122512216023" lon="11.123793194814333"><ele>867.0</ele><time>2026-05-01T08:49:10Z</time></trkpt><trkpt lat="45.61222697107159" lon="11.12394689362537"><ele>859.75</ele><time>2026-05-01T08:49:11Z</time></trkpt><trkpt lat="45.61221330501193" lon="11.124132149533883"><ele>852.5</ele><time>2026-05-01T08:49:12Z</time></trkpt><trkpt lat="45.61223108918262" lon="11.124317548280498"><ele>845.25</ele><time>2026-05-01T08:49:13Z</time></trkpt><trkpt lat="45.61226807296367" lon="11.124466535705306"><ele>838.0</ele><time>2026-05-01T08:49:14Z</time></trkpt><trkpt lat="45.61235862317086" lon="11.12456436285379"><ele>838.0</ele><time>2026-05-01T08:49:15Z</time></trkpt><trkpt lat="45.6124648757683" lon="11.12469006348157"><ele>838.0</ele><time>2026-05-01T08:49:16Z</time></trkpt><trkpt lat="45.612562423596295" lon="11.124826805919836"><ele>838.0</ele><time>2026-05-01T08:49:17Z</time></trkpt><trkpt lat="45.6126431888323" lon="11.124978451836393"><ele>838.0</ele><time>2026-05-01T08:49:18Z</time></trkpt><trkpt lat="45.612700593226435" lon="11.125113453991906"><ele>831.25</ele><time>2026-05-01T08:49:19Z</time></trkpt><trkpt lat="45.612696750581534" lon="11.125241058616972"><ele>824.5</ele><time>2026-05-01T08:49:20Z</time></trkpt><trkpt lat="45.61266803824494" lon="11.125393523798865"><ele>817.75</ele><time>2026-05-01T08:49:21Z</time></trkpt><trkpt lat="45.612671438301135" lon="11.125604989351007"><ele>811.0</ele><time>2026-05-01T08:49:22Z</time></trkpt><trkpt lat="45.61268739533352" lon="11.125827489137205"><ele>808.0</ele><time>2026-05-01T08:49:23Z</time></trkpt><trkpt lat="45.6126835278781" lon="11.126029455056983"><ele>805.0</ele><time>2026-05-01T08:49:24Z</time></trkpt><trkpt lat="45.61265355002314" lon="11.126210482711999"><ele>802.0</ele><time>2026-05-01T08:49:25Z</time></trkpt><trkpt lat="45.61264206469053" lon="11.126364529373365"><ele>799.0</ele><time>2026-05-01T08:49:25.999Z</time></trkpt><trkpt lat="45.612641385584006" lon="11.126486001344642"><ele>796.6</ele><time>2026-05-01T08:49:26.999Z</time></trkpt><trkpt lat="45.61268800608152" lon="11.126576197228138"><ele>794.2</ele><time>2026-05-01T08:49:27.999Z</time></trkpt><trkpt lat="45.61277806439958" lon="11.126613991291665"><ele>791.8000000000001</ele><time>2026-05-01T08:49:28.999Z</time></trkpt><trkpt lat="45.61286442600342" lon="11.126627680818146"><ele>789.4000000000001</ele><time>2026-05-01T08:49:29.999Z</time></trkpt><trkpt lat="45.612962153305006" lon="11.126657353267738"><ele>787.0</ele><time>2026-05-01T08:49:30.999Z</time></trkpt><trkpt lat="45.61307739536928" lon="11.12668589235225"><ele>793.0</ele><time>2026-05-01T08:49:31.999Z</time></trkpt><trkpt lat="45.613180812631924" lon="11.12675830040281"><ele>799.0</ele><time>2026-05-01T08:49:32.999Z</time></trkpt><trkpt lat="45.61329111517159" lon="11.12682437014485"><ele>805.0</ele><time>2026-05-01T08:49:33.999Z</time></trkpt><trkpt lat="45.61338465711871" lon="11.126891436802921"><ele>811.0</ele><time>2026-05-01T08:49:34.999Z</time></trkpt><trkpt lat="45.61345532889385" lon="11.126957348870864"><ele>817.0</ele><time>2026-05-01T08:49:35.999Z</time></trkpt><trkpt lat="45.613486052878045" lon="11.12704774013802"><ele>817.0</ele><time>2026-05-01T08:49:36.999Z</time></trkpt><trkpt lat="45.61346221108837" lon="11.127169616672068"><ele>817.0</ele><time>2026-05-01T08:49:37.999Z</time></trkpt><trkpt lat="45.613441708082576" lon="11.12729277256613"><ele>817.0</ele><time>2026-05-01T08:49:38.999Z</time></trkpt><trkpt lat="45.61338296775872" lon="11.127424598747048"><ele>817.0</ele><time>2026-05-01T08:49:39.999Z</time></trkpt><trkpt lat="45.61330327317962" lon="11.127600250295126"><ele>817.0</ele><time>2026-05-01T08:49:40.999Z</time></trkpt><trkpt lat="45.61320522465711" lon="11.127806847040302"><ele>814.6666666666666</ele><time>2026-05-01T08:49:41.999Z</time></trkpt><trkpt lat="45.613119060360525" lon="11.12803678132653"><ele>812.3333333333333</ele><time>2026-05-01T08:49:42.999Z</time></trkpt><trkpt lat="45.61301238802951" lon="11.128216990976522"><ele>810.0</ele><time>2026-05-01T08:49:43.999Z</time></trkpt><trkpt lat="45.612928890035356" lon="11.1283658898891"><ele>810.0</ele><time>2026-05-01T08:49:44.999Z</time></trkpt><trkpt lat="45.6128704002907" lon="11.128487982490057"><ele>810.0</ele><time>2026-05-01T08:49:45.999Z</time></trkpt><trkpt lat="45.61282303514962" lon="11.128580770385053"><ele>810.0</ele><time>2026-05-01T08:49:46.999Z</time></trkpt><trkpt lat="45.612845100330375" lon="11.128705689539103"><ele>810.0</ele><time>2026-05-01T08:49:47.999Z</time></trkpt><trkpt lat="45.61292602383538" lon="11.128825516964358"><ele>810.0</ele><time>2026-05-01T08:49:48.999Z</time></trkpt><trkpt lat="45.61300998768264" lon="11.128923487245043"><ele>808.4</ele><time>2026-05-01T08:49:49.999Z</time></trkpt><trkpt lat="45.61306856351379" lon="11.129066082070057"><ele>806.8</ele><time>2026-05-01T08:49:50.999Z</time></trkpt><trkpt lat="45.613109193616985" lon="11.129195503031493"><ele>805.2</ele><time>2026-05-01T08:49:51.999Z</time></trkpt><trkpt lat="45.61309565691528" lon="11.129313096384188"><ele>803.6</ele><time>2026-05-01T08:49:52.999Z</time></trkpt><trkpt lat="45.613057002127945" lon="11.129468398430294"><ele>802.0</ele><time>2026-05-01T08:49:53.999Z</time></trkpt><trkpt lat="45.61304425090673" lon="11.129607993995606"><ele>802.0</ele><time>2026-05-01T08:49:54.999Z</time></trkpt><trkpt lat="45.61310517847532" lon="11.129737873422625"><ele>802.0</ele><time>2026-05-01T08:49:55.999Z</time></trkpt><trkpt lat="45.61319442643731" lon="11.129854155178313"><ele>802.0</ele><time>2026-05-01T08:49:56.999Z</time></trkpt><trkpt lat="45.6133242356284" lon="11.129990646476218"><ele>802.0</ele><time>2026-05-01T08:49:57.999Z</time></trkpt><trkpt lat="45.6134550859828" lon="11.130122397863957"><ele>805.75</ele><time>2026-05-01T08:49:58.999Z</time></trkpt><trkpt lat="45.61359204489456" lon="11.130238123947699"><ele>809.5</ele><time>2026-05-01T08:49:59.999Z</time></trkpt><trkpt lat="45.61368583608614" lon="11.130368414477816"><ele>813.25</ele><time>2026-05-01T08:50:00.999Z</time></trkpt><trkpt lat="45.613755783144455" lon="11.1304874529343"><ele>817.0</ele><time>2026-05-01T08:50:01.999Z</time></trkpt><trkpt lat="45.61380661529604" lon="11.13062398058873"><ele>813.2</ele><time>2026-05-01T08:50:02.999Z</time></trkpt><trkpt lat="45.61381237520557" lon="11.130754116451097"><ele>809.4000000000001</ele><time>2026-05-01T08:50:03.999Z</time></trkpt><trkpt lat="45.61380242277819" lon="11.130887983808028"><ele>805.5999999999999</ele><time>2026-05-01T08:50:04.999Z</time></trkpt><trkpt lat="45.61376739927539" lon="11.131031396734429"><ele>801.8</ele><time>2026-05-01T08:50:05.999Z</time></trkpt><trkpt lat="45.61370322620875" lon="11.131184820196472"><ele>798.0</ele><time>2026-05-01T08:50:06.999Z</time></trkpt><trkpt lat="45.61363714690486" lon="11.131336463063422"><ele>786.0</ele><time>2026-05-01T08:50:07.999Z</time></trkpt><trkpt lat="45.61358474878057" lon="11.131505742765906"><ele>774.0</ele><time>2026-05-01T08:50:08.999Z</time></trkpt><trkpt lat="45.61356814185546" lon="11.131670551983506"><ele>762.0</ele><time>2026-05-01T08:50:09.999Z</time></trkpt><trkpt lat="45.61360018351717" lon="11.131847611122613"><ele>750.0</ele><time>2026-05-01T08:50:10.999Z</time></trkpt><trkpt lat="45.613640371807435" lon="11.132049750459728"><ele>760.0</ele><time>2026-05-01T08:50:11.999Z</time></trkpt><trkpt lat="45.61366169504163" lon="11.13228002808444"><ele>770.0</ele><time>2026-05-01T08:50:13Z</time></trkpt><trkpt lat="45.61366669875668" lon="11.132534747681479"><ele>780.0</ele><time>2026-05-01T08:50:14Z</time></trkpt><trkpt lat="45.61367566522449" lon="11.132773362157362"><ele>780.0</ele><time>2026-05-01T08:50:15Z</time></trkpt><trkpt lat="45.613695281862206" lon="11.132960912548217"><ele>780.0</ele><time>2026-05-01T08:50:16Z</time></trkpt><trkpt lat="45.6137380484578" lon="11.1331043676081"><ele>780.0</ele><time>2026-05-01T08:50:17Z</time></trkpt><trkpt lat="45.613795960012375" lon="11.133196127110415"><ele>780.0</ele><time>2026-05-01T08:50:18Z</time></trkpt><trkpt lat="45.61390708816029" lon="11.133211343631503"><ele>780.0</ele><time>2026-05-01T08:50:19Z</time></trkpt><trkpt lat="45.61403664913429" lon="11.133229499570989"><ele>770.0</ele><time>2026-05-01T08:50:20Z</time></trkpt><trkpt lat="45.6141830462493" lon="11.133247522479232"><ele>760.0</ele><time>2026-05-01T08:50:21Z</time></trkpt><trkpt lat="45.61435840129167" lon="11.133287606179787"><ele>750.0</ele><time>2026-05-01T08:50:22Z</time></trkpt><trkpt lat="45.61449604100153" lon="11.13329879004838"><ele>747.25</ele><time>2026-05-01T08:50:23Z</time></trkpt><trkpt lat="45.614616599077756" lon="11.133341664691528"><ele>744.5</ele><time>2026-05-01T08:50:24Z</time></trkpt><trkpt lat="45.61474195364114" lon="11.13332991991329"><ele>741.75</ele><time>2026-05-01T08:50:25Z</time></trkpt><trkpt lat="45.61485237628456" lon="11.133293332058141"><ele>739.0</ele><time>2026-05-01T08:50:26Z</time></trkpt><trkpt lat="45.61493912674328" lon="11.133185787481578"><ele>750.3333333333334</ele><time>2026-05-01T08:50:27Z</time></trkpt><trkpt lat="45.615049548041654" lon="11.133022639143194"><ele>761.6666666666667</ele><time>2026-05-01T08:50:28Z</time></trkpt><trkpt lat="45.615161664456636" lon="11.132827518235214"><ele>773.0</ele><time>2026-05-01T08:50:29Z</time></trkpt><trkpt lat="45.61526462233544" lon="11.13265109351589"><ele>775.0</ele><time>2026-05-01T08:50:30Z</time></trkpt><trkpt lat="45.6153589568141" lon="11.132503175377126"><ele>777.0</ele><time>2026-05-01T08:50:31Z</time></trkpt><trkpt lat="45.615440013532044" lon="11.13240946012869"><ele>779.0</ele><time>2026-05-01T08:50:32Z</time></trkpt><trkpt lat="45.615519328642364" lon="11.132314753524648"><ele>781.0</ele><time>2026-05-01T08:50:33Z</time></trkpt><trkpt lat="45.61566929845485" lon="11.132249054218963"><ele>781.0</ele><time>2026-05-01T08:50:34Z</time></trkpt><trkpt lat="45.61579943047402" lon="11.132279890629814"><ele>781.0</ele><time>2026-05-01T08:50:35Z</time></trkpt><trkpt lat="45.61592311071571" lon="11.132317008525234"><ele>781.0</ele><time>2026-05-01T08:50:36Z</time></trkpt><trkpt lat="45.61602543353806" lon="11.132385496881476"><ele>781.0</ele><time>2026-05-01T08:50:37Z</time></trkpt><trkpt lat="45.616115172980756" lon="11.132495061993325"><ele>774.3333333333333</ele><time>2026-05-01T08:50:38Z</time></trkpt><trkpt lat="45.61622656763966" lon="11.132641622237681"><ele>767.6666666666666</ele><time>2026-05-01T08:50:39Z</time></trkpt><trkpt lat="45.61635940673282" lon="11.132808718742638"><ele>761.0</ele><time>2026-05-01T08:50:40Z</time></trkpt><trkpt lat="45.6164961122632" lon="11.132986019988099"><ele>761.0</ele><time>2026-05-01T08:50:41Z</time></trkpt><trkpt lat="45.61661159671003" lon="11.133155780147078"><ele>761.0</ele><time>2026-05-01T08:50:42Z</time></trkpt><trkpt lat="45.61670776158827" lon="11.133317801731197"><ele>761.0</ele><time>2026-05-01T08:50:43Z</time></trkpt><trkpt lat="45.61679985387609" lon="11.13343611951439"><ele>761.0</ele><time>2026-05-01T08:50:44Z</time></trkpt><trkpt lat="45.61691460372747" lon="11.133508122778116"><ele>750.25</ele><time>2026-05-01T08:50:45Z</time></trkpt><trkpt lat="45.617013130164835" lon="11.13356867709806"><ele>739.5</ele><time>2026-05-01T08:50:46Z</time></trkpt><trkpt lat="45.61712200611636" lon="11.133585264858429"><ele>728.75</ele><time>2026-05-01T08:50:47Z</time></trkpt><trkpt lat="45.617231623750705" lon="11.133522901590522"><ele>718.0</ele><time>2026-05-01T08:50:48Z</time></trkpt><trkpt lat="45.61734235290846" lon="11.133416873289681"><ele>718.0</ele><time>2026-05-01T08:50:49Z</time></trkpt><trkpt lat="45.61750123634185" lon="11.133265820112447"><ele>718.0</ele><time>2026-05-01T08:50:50Z</time></trkpt><trkpt lat="45.61766245456333" lon="11.13313763447863"><ele>718.0</ele><time>2026-05-01T08:50:51Z</time></trkpt><trkpt lat="45.61781117067904" lon="11.133018581308468"><ele>720.25</ele><time>2026-05-01T08:50:52Z</time></trkpt><trkpt lat="45.617937051757345" lon="11.132863681784501"><ele>722.5</ele><time>2026-05-01T08:50:53Z</time></trkpt><trkpt lat="45.618048511742124" lon="11.132737148368875"><ele>724.75</ele><time>2026-05-01T08:50:54Z</time></trkpt><trkpt lat="45.61814401182727" lon="11.132688785464229"><ele>727.0</ele><time>2026-05-01T08:50:55Z</time></trkpt><trkpt lat="45.61825374698669" lon="11.132677560836033"><ele>727.0</ele><time>2026-05-01T08:50:56Z</time></trkpt><trkpt lat="45.618363421645256" lon="11.132741532156547"><ele>727.0</ele><time>2026-05-01T08:50:57Z</time></trkpt><trkpt lat="45.61848622218759" lon="11.132776302182684"><ele>727.0</ele><time>2026-05-01T08:50:58Z</time></trkpt><trkpt lat="45.618570972184926" lon="11.132780777431666"><ele>727.0</ele><time>2026-05-01T08:50:59Z</time></trkpt><trkpt lat="45.61864023460222" lon="11.132726949103684"><ele>727.0</ele><time>2026-05-01T08:51:00Z</time></trkpt><trkpt lat="45.61869076983558" lon="11.132576543458065"><ele>729.75</ele><time>2026-05-01T08:51:01Z</time></trkpt><trkpt lat="45.61875699437137" lon="11.132435291293591"><ele>732.5</ele><time>2026-05-01T08:51:02Z</time></trkpt><trkpt lat="45.61881708508754" lon="11.132316580388608"><ele>735.25</ele><time>2026-05-01T08:51:03Z</time></trkpt><trkpt lat="45.618931656564925" lon="11.132281749126134"><ele>738.0</ele><time>2026-05-01T08:51:04Z</time></trkpt><trkpt lat="45.6190734859608" lon="11.132276769860011"><ele>738.0</ele><time>2026-05-01T08:51:05Z</time></trkpt><trkpt lat="45.61923824184853" lon="11.13223043335525"><ele>738.0</ele><time>2026-05-01T08:51:06Z</time></trkpt><trkpt lat="45.61940831001991" lon="11.132199705566853"><ele>738.0</ele><time>2026-05-01T08:51:07Z</time></trkpt><trkpt lat="45.61957556479653" lon="11.132134718172143"><ele>729.6666666666666</ele><time>2026-05-01T08:51:08Z</time></trkpt><trkpt lat="45.61974134313385" lon="11.13203856157342"><ele>721.3333333333333</ele><time>2026-05-01T08:51:09Z</time></trkpt><trkpt lat="45.61990254808021" lon="11.131942952433059"><ele>713.0</ele><time>2026-05-01T08:51:10Z</time></trkpt><trkpt lat="45.62004963213385" lon="11.13184767294276"><ele>713.0</ele><time>2026-05-01T08:51:11Z</time></trkpt><trkpt lat="45.62016609810755" lon="11.131781330231178"><ele>713.0</ele><time>2026-05-01T08:51:12Z</time></trkpt><trkpt lat="45.62028522153537" lon="11.131874224861843"><ele>713.0</ele><time>2026-05-01T08:51:13Z</time></trkpt><trkpt lat="45.62039265170589" lon="11.131863521969"><ele>713.0</ele><time>2026-05-01T08:51:14Z</time></trkpt><trkpt lat="45.62052090797553" lon="11.13184045770514"><ele>706.0</ele><time>2026-05-01T08:51:15Z</time></trkpt><trkpt lat="45.6206637513838" lon="11.131787521484373"><ele>699.0</ele><time>2026-05-01T08:51:16Z</time></trkpt><trkpt lat="45.620836391336304" lon="11.131764040782867"><ele>692.0</ele><time>2026-05-01T08:51:17Z</time></trkpt><trkpt lat="45.62098865356685" lon="11.131727312711263"><ele>692.0</ele><time>2026-05-01T08:51:18Z</time></trkpt><trkpt lat="45.62110367277944" lon="11.131721249482599"><ele>692.0</ele><time>2026-05-01T08:51:19Z</time></trkpt><trkpt lat="45.621191426519594" lon="11.131656986778795"><ele>692.0</ele><time>2026-05-01T08:51:20Z</time></trkpt><trkpt lat="45.621254401577815" lon="11.131534862727046"><ele>692.0</ele><time>2026-05-01T08:51:21Z</time></trkpt><trkpt lat="45.62133267757795" lon="11.131401357076344"><ele>692.0</ele><time>2026-05-01T08:51:22Z</time></trkpt><trkpt lat="45.621475220167554" lon="11.131397568968374"><ele>694.6666666666666</ele><time>2026-05-01T08:51:23Z</time></trkpt><trkpt lat="45.62162160960366" lon="11.13140430789976"><ele>697.3333333333334</ele><time>2026-05-01T08:51:24Z</time></trkpt><trkpt lat="45.62177076092763" lon="11.131339094689901"><ele>700.0</ele><time>2026-05-01T08:51:25Z</time></trkpt><trkpt lat="45.621916193253575" lon="11.131250966351798"><ele>691.6666666666667</ele><time>2026-05-01T08:51:26Z</time></trkpt><trkpt lat="45.622047913121044" lon="11.131148121036077"><ele>683.3333333333334</ele><time>2026-05-01T08:51:27Z</time></trkpt><trkpt lat="45.62218425793738" lon="11.13103446110833"><ele>675.0</ele><time>2026-05-01T08:51:28Z</time></trkpt><trkpt lat="45.62232189968402" lon="11.130934317561502"><ele>675.0</ele><time>2026-05-01T08:51:29Z</time></trkpt><trkpt lat="45.622463343503114" lon="11.130886849427213"><ele>675.0</ele><time>2026-05-01T08:51:30Z</time></trkpt><trkpt lat="45.62260364238837" lon="11.130854985590531"><ele>675.0</ele><time>2026-05-01T08:51:30.999Z</time></trkpt><trkpt lat="45.62275037492939" lon="11.130840155507245"><ele>675.0</ele><time>2026-05-01T08:51:31.999Z</time></trkpt><trkpt lat="45.622892998469894" lon="11.130791889584613"><ele>677.0</ele><time>2026-05-01T08:51:32.999Z</time></trkpt><trkpt lat="45.62303665291892" lon="11.130748775004735"><ele>679.0</ele><time>2026-05-01T08:51:33.999Z</time></trkpt><trkpt lat="45.62317190933932" lon="11.130648869411496"><ele>681.0</ele><time>2026-05-01T08:51:34.999Z</time></trkpt><trkpt lat="45.623314462420986" lon="11.13054680997272"><ele>681.0</ele><time>2026-05-01T08:51:35.999Z</time></trkpt><trkpt lat="45.623470593293405" lon="11.130456747704454"><ele>681.0</ele><time>2026-05-01T08:51:36.999Z</time></trkpt><trkpt lat="45.62361500247485" lon="11.130369852007671"><ele>681.0</ele><time>2026-05-01T08:51:37.999Z</time></trkpt><trkpt lat="45.62373169413255" lon="11.130286760075675"><ele>678.5</ele><time>2026-05-01T08:51:38.999Z</time></trkpt><trkpt lat="45.623828773434376" lon="11.130226946620802"><ele>676.0</ele><time>2026-05-01T08:51:39.999Z</time></trkpt><trkpt lat="45.62392887840173" lon="11.130253350161357"><ele>673.5</ele><time>2026-05-01T08:51:40.999Z</time></trkpt><trkpt lat="45.62401890272967" lon="11.130349985489747"><ele>671.0</ele><time>2026-05-01T08:51:41.999Z</time></trkpt><trkpt lat="45.624155270879704" lon="11.130445903987605"><ele>671.0</ele><time>2026-05-01T08:51:42.999Z</time></trkpt><trkpt lat="45.62427579409134" lon="11.130493937351178"><ele>671.0</ele><time>2026-05-01T08:51:43.999Z</time></trkpt><trkpt lat="45.62438099786249" lon="11.130529510753552"><ele>671.0</ele><time>2026-05-01T08:51:44.999Z</time></trkpt><trkpt lat="45.62450692323251" lon="11.130484999440407"><ele>671.0</ele><time>2026-05-01T08:51:45.999Z</time></trkpt><trkpt lat="45.6246542109793" lon="11.130466414451549"><ele>668.3333333333333</ele><time>2026-05-01T08:51:46.999Z</time></trkpt><trkpt lat="45.62482711710489" lon="11.130445919180238"><ele>665.6666666666666</ele><time>2026-05-01T08:51:47.999Z</time></trkpt><trkpt lat="45.624997132080814" lon="11.130468683933723"><ele>663.0</ele><time>2026-05-01T08:51:48.999Z</time></trkpt><trkpt lat="45.62515029129711" lon="11.130441136766223"><ele>663.0</ele><time>2026-05-01T08:51:49.999Z</time></trkpt><trkpt lat="45.6252880457463" lon="11.130385309278411"><ele>663.0</ele><time>2026-05-01T08:51:50.999Z</time></trkpt><trkpt lat="45.62540867277219" lon="11.13035573365154"><ele>663.0</ele><time>2026-05-01T08:51:51.999Z</time></trkpt><trkpt lat="45.62553341281586" lon="11.130387415484485"><ele>663.0</ele><time>2026-05-01T08:51:52.999Z</time></trkpt><trkpt lat="45.62571186913301" lon="11.130438344827688"><ele>661.6666666666666</ele><time>2026-05-01T08:51:53.999Z</time></trkpt><trkpt lat="45.62591729992638" lon="11.130464813939323"><ele>660.3333333333333</ele><time>2026-05-01T08:51:54.999Z</time></trkpt><trkpt lat="45.62610258827045" lon="11.13051095907459"><ele>659.0</ele><time>2026-05-01T08:51:55.999Z</time></trkpt><trkpt lat="45.626273070463846" lon="11.13055333906637"><ele>659.0</ele><time>2026-05-01T08:51:56.999Z</time></trkpt><trkpt lat="45.62641232935155" lon="11.130581392063052"><ele>659.0</ele><time>2026-05-01T08:51:57.999Z</time></trkpt><trkpt lat="45.62655345358378" lon="11.130631193542591"><ele>659.0</ele><time>2026-05-01T08:51:58.999Z</time></trkpt><trkpt lat="45.62668013718491" lon="11.130746367792515"><ele>659.0</ele><time>2026-05-01T08:51:59.999Z</time></trkpt><trkpt lat="45.62680968028422" lon="11.130854961444498"><ele>653.0</ele><time>2026-05-01T08:52:00.999Z</time></trkpt><trkpt lat="45.62693249800522" lon="11.130915414712861"><ele>647.0</ele><time>2026-05-01T08:52:01.999Z</time></trkpt><trkpt lat="45.62701632643057" lon="11.13099657277029"><ele>641.0</ele><time>2026-05-01T08:52:02.999Z</time></trkpt><trkpt lat="45.62708196553373" lon="11.131064444040746"><ele>635.0</ele><time>2026-05-01T08:52:03.999Z</time></trkpt><trkpt lat="45.627114589106995" lon="11.131156215436928"><ele>629.0</ele><time>2026-05-01T08:52:04.999Z</time></trkpt><trkpt lat="45.62711255661372" lon="11.131277915745683"><ele>629.0</ele><time>2026-05-01T08:52:05.999Z</time></trkpt><trkpt lat="45.62699749724069" lon="11.131360928879602"><ele>629.0</ele><time>2026-05-01T08:52:06.999Z</time></trkpt><trkpt lat="45.62686369975666" lon="11.131479274006814"><ele>629.0</ele><time>2026-05-01T08:52:07.999Z</time></trkpt><trkpt lat="45.62673888257227" lon="11.131615924853426"><ele>629.0</ele><time>2026-05-01T08:52:08.999Z</time></trkpt><trkpt lat="45.62661917733339" lon="11.131697283337077"><ele>629.0</ele><time>2026-05-01T08:52:09.999Z</time></trkpt><trkpt lat="45.626487264694205" lon="11.13168274756792"><ele>629.0</ele><time>2026-05-01T08:52:10.999Z</time></trkpt><trkpt lat="45.62635923225075" lon="11.131704983763061"><ele>629.0</ele><time>2026-05-01T08:52:11.999Z</time></trkpt><trkpt lat="45.62628454125472" lon="11.131690450036809"><ele>629.0</ele><time>2026-05-01T08:52:12.999Z</time></trkpt><trkpt lat="45.62619574595933" lon="11.131691445938172"><ele>629.0</ele><time>2026-05-01T08:52:14.999Z</time></trkpt><trkpt lat="45.62610648893642" lon="11.131717791871635"><ele>628.0</ele><time>2026-05-01T08:52:16.999Z</time></trkpt><trkpt lat="45.62602473881546" lon="11.131786892030748"><ele>627.0</ele><time>2026-05-01T08:52:19Z</time></trkpt><trkpt lat="45.62596144874388" lon="11.131823524910033"><ele>626.0</ele><time>2026-05-01T08:52:20Z</time></trkpt><trkpt lat="45.62588926989976" lon="11.131845798378487"><ele>625.0</ele><time>2026-05-01T08:52:21Z</time></trkpt><trkpt lat="45.62582413828015" lon="11.131858296380527"><ele>624.0</ele><time>2026-05-01T08:52:22Z</time></trkpt><trkpt lat="45.625719492658035" lon="11.13188153684115"><ele>623.0</ele><time>2026-05-01T08:52:24Z</time></trkpt><trkpt lat="45.62564415486108" lon="11.131904717944561"><ele>623.0</ele><time>2026-05-01T08:52:26Z</time></trkpt><trkpt lat="45.62558183524319" lon="11.131921213993708"><ele>623.0</ele><time>2026-05-01T08:52:29Z</time></trkpt><trkpt lat="45.625512437765735" lon="11.131944234666655"><ele>623.0</ele><time>2026-05-01T08:52:45Z</time></trkpt><trkpt lat="45.62541711763504" lon="11.131975149662793"><ele>623.0</ele><time>2026-05-01T08:53:17Z</time></trkpt><trkpt lat="45.62535290099835" lon="11.131998871237995"><ele>623.0</ele><time>2026-05-01T08:53:18Z</time></trkpt><trkpt lat="45.62527282629486" lon="11.13202500359517"><ele>623.0</ele><time>2026-05-01T08:53:19Z</time></trkpt><trkpt lat="45.62519062996798" lon="11.132050934489897"><ele>621.6</ele><time>2026-05-01T08:53:20Z</time></trkpt><trkpt lat="45.625093479157904" lon="11.13208510037571"><ele>620.1999999999999</ele><time>2026-05-01T08:53:21Z</time></trkpt><trkpt lat="45.62499500968425" lon="11.132119771706568"><ele>618.8</ele><time>2026-05-01T08:53:22Z</time></trkpt><trkpt lat="45.62489808040122" lon="11.132129140855714"><ele>617.4</ele><time>2026-05-01T08:53:23Z</time></trkpt><trkpt lat="45.62480901274819" lon="11.132153873152399"><ele>616.0</ele><time>2026-05-01T08:53:24Z</time></trkpt><trkpt lat="45.624725491164035" lon="11.132177065412066"><ele>616.0</ele><time>2026-05-01T08:53:25Z</time></trkpt><trkpt lat="45.624646142564565" lon="11.132199098921685"><ele>616.0</ele><time>2026-05-01T08:53:26Z</time></trkpt><trkpt lat="45.62457150699749" lon="11.132219831065948"><ele>616.0</ele><time>2026-05-01T08:53:27Z</time></trkpt><trkpt lat="45.62450317944696" lon="11.13223884086723"><ele>616.0</ele><time>2026-05-01T08:53:28Z</time></trkpt><trkpt lat="45.6244402137936" lon="11.132277376437749"><ele>616.0</ele><time>2026-05-01T08:53:29Z</time></trkpt><trkpt lat="45.624363736561364" lon="11.132287848488161"><ele>616.0</ele><time>2026-05-01T08:53:30Z</time></trkpt><trkpt lat="45.624247503508656" lon="11.132314053699066"><ele>615.6666666666667</ele><time>2026-05-01T08:53:31Z</time></trkpt><trkpt lat="45.624096352059354" lon="11.13235442900265"><ele>615.3333333333334</ele><time>2026-05-01T08:53:32Z</time></trkpt><trkpt lat="45.623936980432475" lon="11.13240396941321"><ele>615.0</ele><time>2026-05-01T08:53:33Z</time></trkpt><trkpt lat="45.62379344061376" lon="11.132444015783406"><ele>615.0</ele><time>2026-05-01T08:53:34Z</time></trkpt><trkpt lat="45.623657671659096" lon="11.132480018693053"><ele>615.0</ele><time>2026-05-01T08:53:35Z</time></trkpt><trkpt lat="45.62352913696688" lon="11.132517246562898"><ele>615.0</ele><time>2026-05-01T08:53:36Z</time></trkpt><trkpt lat="45.62340632352607" lon="11.132572023358454"><ele>615.0</ele><time>2026-05-01T08:53:37Z</time></trkpt><trkpt lat="45.62329505015837" lon="11.132650846559542"><ele>614.75</ele><time>2026-05-01T08:53:38Z</time></trkpt><trkpt lat="45.623184332441696" lon="11.132767111159664"><ele>614.5</ele><time>2026-05-01T08:53:39Z</time></trkpt><trkpt lat="45.623086239301976" lon="11.132915091047737"><ele>614.25</ele><time>2026-05-01T08:53:40Z</time></trkpt><trkpt lat="45.6229929692437" lon="11.133078026015943"><ele>614.0</ele><time>2026-05-01T08:53:41Z</time></trkpt><trkpt lat="45.622897648804745" lon="11.13323476962495"><ele>612.0</ele><time>2026-05-01T08:53:42Z</time></trkpt><trkpt lat="45.62277490717227" lon="11.133351057229765"><ele>610.0</ele><time>2026-05-01T08:53:43Z</time></trkpt><trkpt lat="45.622647712523275" lon="11.133454401453918"><ele>608.0</ele><time>2026-05-01T08:53:43.999Z</time></trkpt><trkpt lat="45.622527151656215" lon="11.133579586859637"><ele>606.0</ele><time>2026-05-01T08:53:44.999Z</time></trkpt><trkpt lat="45.62239515042745" lon="11.133683639939061"><ele>606.0</ele><time>2026-05-01T08:53:45.999Z</time></trkpt><trkpt lat="45.62225978518055" lon="11.133784313301968"><ele>606.0</ele><time>2026-05-01T08:53:46.999Z</time></trkpt><trkpt lat="45.62211539883858" lon="11.133869716663567"><ele>606.0</ele><time>2026-05-01T08:53:47.999Z</time></trkpt><trkpt lat="45.62196965940318" lon="11.133946269435228"><ele>606.3333333333334</ele><time>2026-05-01T08:53:48.999Z</time></trkpt><trkpt lat="45.62182885864002" lon="11.134029631668108"><ele>606.6666666666667</ele><time>2026-05-01T08:53:49.999Z</time></trkpt><trkpt lat="45.62168964277743" lon="11.134120669498943"><ele>607.0</ele><time>2026-05-01T08:53:50.999Z</time></trkpt><trkpt lat="45.62155757544495" lon="11.134229175367441"><ele>606.3333333333334</ele><time>2026-05-01T08:53:51.999Z</time></trkpt><trkpt lat="45.621421451641176" lon="11.134343323656324"><ele>605.6666666666666</ele><time>2026-05-01T08:53:52.999Z</time></trkpt><trkpt lat="45.62128608809562" lon="11.13446182443446"><ele>605.0</ele><time>2026-05-01T08:53:53.999Z</time></trkpt><trkpt lat="45.62115322899415" lon="11.13458108572232"><ele>603.6666666666666</ele><time>2026-05-01T08:53:54.999Z</time></trkpt><trkpt lat="45.62102450074038" lon="11.134717550024963"><ele>602.3333333333334</ele><time>2026-05-01T08:53:55.999Z</time></trkpt><trkpt lat="45.620901812775934" lon="11.1348628926185"><ele>601.0</ele><time>2026-05-01T08:53:56.999Z</time></trkpt><trkpt lat="45.62078255451035" lon="11.135022825458586"><ele>600.3333333333334</ele><time>2026-05-01T08:53:57.999Z</time></trkpt><trkpt lat="45.6206633807651" lon="11.135184707181676"><ele>599.6666666666666</ele><time>2026-05-01T08:53:58.999Z</time></trkpt><trkpt lat="45.62053990695242" lon="11.135348112546529"><ele>599.0</ele><time>2026-05-01T08:53:59.999Z</time></trkpt><trkpt lat="45.62042254063049" lon="11.135512877292586"><ele>599.0</ele><time>2026-05-01T08:54:00.999Z</time></trkpt><trkpt lat="45.62030137118361" lon="11.135677613668616"><ele>599.0</ele><time>2026-05-01T08:54:01.999Z</time></trkpt><trkpt lat="45.62017959801351" lon="11.135848953351092"><ele>599.0</ele><time>2026-05-01T08:54:02.999Z</time></trkpt><trkpt lat="45.620056227012064" lon="11.13601623291848"><ele>598.0</ele><time>2026-05-01T08:54:03.999Z</time></trkpt><trkpt lat="45.619931980085035" lon="11.13617986933648"><ele>597.0</ele><time>2026-05-01T08:54:04.999Z</time></trkpt><trkpt lat="45.61979309804648" lon="11.136318717621036"><ele>596.0</ele><time>2026-05-01T08:54:05.999Z</time></trkpt><trkpt lat="45.61964873544963" lon="11.136452989441517"><ele>598.3333333333333</ele><time>2026-05-01T08:54:06.999Z</time></trkpt><trkpt lat="45.61948977996286" lon="11.136561990250708"><ele>600.6666666666666</ele><time>2026-05-01T08:54:07.999Z</time></trkpt><trkpt lat="45.61932036103684" lon="11.136642139022083"><ele>603.0</ele><time>2026-05-01T08:54:08.999Z</time></trkpt><trkpt lat="45.619147705130736" lon="11.1367226519103"><ele>603.0</ele><time>2026-05-01T08:54:09.999Z</time></trkpt><trkpt lat="45.61897559013281" lon="11.136776449954246"><ele>603.0</ele><time>2026-05-01T08:54:10.999Z</time></trkpt><trkpt lat="45.618815046443665" lon="11.136835580084034"><ele>603.0</ele><time>2026-05-01T08:54:11.999Z</time></trkpt><trkpt lat="45.618659254725436" lon="11.136888606306263"><ele>598.3333333333334</ele><time>2026-05-01T08:54:12.999Z</time></trkpt><trkpt lat="45.61850312398384" lon="11.136943708848996"><ele>593.6666666666667</ele><time>2026-05-01T08:54:13.999Z</time></trkpt><trkpt lat="45.618339489167326" lon="11.136997554588618"><ele>589.0</ele><time>2026-05-01T08:54:14.999Z</time></trkpt><trkpt lat="45.61816610023622" lon="11.137051190694345"><ele>589.0</ele><time>2026-05-01T08:54:15.999Z</time></trkpt><trkpt lat="45.61799621884481" lon="11.137103012393435"><ele>589.0</ele><time>2026-05-01T08:54:16.999Z</time></trkpt><trkpt lat="45.617843477209306" lon="11.137145599105953"><ele>589.0</ele><time>2026-05-01T08:54:17.999Z</time></trkpt><trkpt lat="45.617693009118824" lon="11.137186445184064"><ele>587.6666666666667</ele><time>2026-05-01T08:54:18.999Z</time></trkpt><trkpt lat="45.61753872731376" lon="11.137227561157033"><ele>586.3333333333334</ele><time>2026-05-01T08:54:19.999Z</time></trkpt><trkpt lat="45.61737821356541" lon="11.137290276147526"><ele>585.0</ele><time>2026-05-01T08:54:20.999Z</time></trkpt><trkpt lat="45.61721625125921" lon="11.137358408008335"><ele>586.3333333333334</ele><time>2026-05-01T08:54:21.999Z</time></trkpt><trkpt lat="45.61703828929045" lon="11.137411768488867"><ele>587.6666666666667</ele><time>2026-05-01T08:54:22.999Z</time></trkpt><trkpt lat="45.616859821408234" lon="11.137442277429344"><ele>589.0</ele><time>2026-05-01T08:54:23.999Z</time></trkpt><trkpt lat="45.61667452196145" lon="11.13747209026829"><ele>589.0</ele><time>2026-05-01T08:54:25Z</time></trkpt><trkpt lat="45.61649530125592" lon="11.137509518694642"><ele>589.0</ele><time>2026-05-01T08:54:26Z</time></trkpt><trkpt lat="45.6163027193215" lon="11.137545787974116"><ele>589.0</ele><time>2026-05-01T08:54:27Z</time></trkpt><trkpt lat="45.61611209995712" lon="11.137579263213178"><ele>588.3333333333334</ele><time>2026-05-01T08:54:28Z</time></trkpt><trkpt lat="45.61591848858594" lon="11.13761001302898"><ele>587.6666666666666</ele><time>2026-05-01T08:54:29Z</time></trkpt><trkpt lat="45.61573473345736" lon="11.137637187536061"><ele>587.0</ele><time>2026-05-01T08:54:30Z</time></trkpt><trkpt lat="45.61556569156724" lon="11.137664437100767"><ele>587.0</ele><time>2026-05-01T08:54:31Z</time></trkpt><trkpt lat="45.615406432957016" lon="11.137701277937586"><ele>587.0</ele><time>2026-05-01T08:54:32Z</time></trkpt><trkpt lat="45.61526090890133" lon="11.137781410643747"><ele>587.0</ele><time>2026-05-01T08:54:33Z</time></trkpt><trkpt lat="45.615116027532395" lon="11.137907324715616"><ele>584.6666666666666</ele><time>2026-05-01T08:54:34Z</time></trkpt><trkpt lat="45.61496670812937" lon="11.138040111515938"><ele>582.3333333333334</ele><time>2026-05-01T08:54:35Z</time></trkpt><trkpt lat="45.614819660754456" lon="11.138161117859136"><ele>580.0</ele><time>2026-05-01T08:54:36Z</time></trkpt><trkpt lat="45.61467438193339" lon="11.138252646399602"><ele>582.3333333333334</ele><time>2026-05-01T08:54:37Z</time></trkpt><trkpt lat="45.61452619989932" lon="11.138321439130157"><ele>584.6666666666666</ele><time>2026-05-01T08:54:38Z</time></trkpt><trkpt lat="45.6143769163798" lon="11.138366233955523"><ele>587.0</ele><time>2026-05-01T08:54:39Z</time></trkpt><trkpt lat="45.614217225594174" lon="11.138356486713842"><ele>587.0</ele><time>2026-05-01T08:54:40Z</time></trkpt><trkpt lat="45.61406490877911" lon="11.138359291180754"><ele>587.0</ele><time>2026-05-01T08:54:41Z</time></trkpt><trkpt lat="45.61391452621869" lon="11.138312063044337"><ele>587.0</ele><time>2026-05-01T08:54:42Z</time></trkpt><trkpt lat="45.61376650255699" lon="11.138242374991096"><ele>582.6666666666666</ele><time>2026-05-01T08:54:43Z</time></trkpt><trkpt lat="45.61362419946103" lon="11.138151410461267"><ele>578.3333333333334</ele><time>2026-05-01T08:54:44Z</time></trkpt><trkpt lat="45.61348787912559" lon="11.138067500343016"><ele>574.0</ele><time>2026-05-01T08:54:45Z</time></trkpt><trkpt lat="45.61332379819243" lon="11.138022026697769"><ele>574.0</ele><time>2026-05-01T08:54:46Z</time></trkpt><trkpt lat="45.61315977622636" lon="11.138024949931133"><ele>574.0</ele><time>2026-05-01T08:54:47Z</time></trkpt><trkpt lat="45.61300185315144" lon="11.138046829792689"><ele>574.0</ele><time>2026-05-01T08:54:48Z</time></trkpt><trkpt lat="45.6128445666858" lon="11.13806539480769"><ele>573.25</ele><time>2026-05-01T08:54:49Z</time></trkpt><trkpt lat="45.61269714735897" lon="11.138075659913838"><ele>572.5</ele><time>2026-05-01T08:54:50Z</time></trkpt><trkpt lat="45.61257220793278" lon="11.138077067094478"><ele>571.75</ele><time>2026-05-01T08:54:51Z</time></trkpt><trkpt lat="45.61247195461392" lon="11.138078202836853"><ele>571.0</ele><time>2026-05-01T08:54:52Z</time></trkpt><trkpt lat="45.61238991648112" lon="11.138079628532235"><ele>571.0</ele><time>2026-05-01T08:54:53Z</time></trkpt><trkpt lat="45.612315001040315" lon="11.138085681255948"><ele>571.0</ele><time>2026-05-01T08:54:54Z</time></trkpt><trkpt lat="45.612234153891684" lon="11.138103493557685"><ele>571.0</ele><time>2026-05-01T08:54:55Z</time></trkpt><trkpt lat="45.61215449243457" lon="11.138169638738031"><ele>571.0</ele><time>2026-05-01T08:54:56Z</time></trkpt><trkpt lat="45.61206782586352" lon="11.138229867928946"><ele>571.0</ele><time>2026-05-01T08:54:57Z</time></trkpt><trkpt lat="45.611972636764456" lon="11.138311881157298"><ele>570.75</ele><time>2026-05-01T08:54:58Z</time></trkpt><trkpt lat="45.61187968770938" lon="11.138419812591746"><ele>570.5</ele><time>2026-05-01T08:54:59Z</time></trkpt><trkpt lat="45.6117694469673" lon="11.138509922020638"><ele>570.25</ele><time>2026-05-01T08:55:00Z</time></trkpt><trkpt lat="45.61166664975427" lon="11.13859763251736"><ele>570.0</ele><time>2026-05-01T08:55:01Z</time></trkpt><trkpt lat="45.611554959306865" lon="11.138686988497192"><ele>570.0</ele><time>2026-05-01T08:55:02Z</time></trkpt><trkpt lat="45.61144931757557" lon="11.13877749457476"><ele>570.0</ele><time>2026-05-01T08:55:03Z</time></trkpt><trkpt lat="45.6113399069964" lon="11.138864654523765"><ele>570.0</ele><time>2026-05-01T08:55:04Z</time></trkpt><trkpt lat="45.61124473203416" lon="11.138955542542766"><ele>570.0</ele><time>2026-05-01T08:55:05Z</time></trkpt><trkpt lat="45.611139078257445" lon="11.139015272643814"><ele>569.5</ele><time>2026-05-01T08:55:06Z</time></trkpt><trkpt lat="45.61103102835475" lon="11.139073090945638"><ele>569.0</ele><time>2026-05-01T08:55:07Z</time></trkpt><trkpt lat="45.61092035145346" lon="11.139121080482347"><ele>568.5</ele><time>2026-05-01T08:55:08Z</time></trkpt><trkpt lat="45.61080109642451" lon="11.139170242851504"><ele>568.0</ele><time>2026-05-01T08:55:09Z</time></trkpt><trkpt lat="45.61068271335154" lon="11.139248985742274"><ele>568.0</ele><time>2026-05-01T08:55:10Z</time></trkpt><trkpt lat="45.61056795337828" lon="11.13933063487952"><ele>568.0</ele><time>2026-05-01T08:55:11Z</time></trkpt><trkpt lat="45.610449654071125" lon="11.139416483398335"><ele>568.0</ele><time>2026-05-01T08:55:12Z</time></trkpt><trkpt lat="45.610321825204366" lon="11.139502107605402"><ele>568.0</ele><time>2026-05-01T08:55:13Z</time></trkpt><trkpt lat="45.610189296156065" lon="11.139589332979483"><ele>567.6666666666667</ele><time>2026-05-01T08:55:14Z</time></trkpt><trkpt lat="45.61005151355043" lon="11.139682779150059"><ele>567.3333333333334</ele><time>2026-05-01T08:55:15Z</time></trkpt><trkpt lat="45.609910883637895" lon="11.139786438516047"><ele>567.0</ele><time>2026-05-01T08:55:16Z</time></trkpt><trkpt lat="45.60976893477625" lon="11.13989144104531"><ele>567.0</ele><time>2026-05-01T08:55:17Z</time></trkpt><trkpt lat="45.6096298137475" lon="11.140004841549219"><ele>567.0</ele><time>2026-05-01T08:55:18Z</time></trkpt><trkpt lat="45.609494077224625" lon="11.14012105146684"><ele>567.0</ele><time>2026-05-01T08:55:19Z</time></trkpt><trkpt lat="45.60935357514012" lon="11.140245896829803"><ele>564.6666666666666</ele><time>2026-05-01T08:55:20Z</time></trkpt><trkpt lat="45.60921372911675" lon="11.140366251131393"><ele>562.3333333333333</ele><time>2026-05-01T08:55:21Z</time></trkpt><trkpt lat="45.60907373755337" lon="11.1404927982507"><ele>560.0</ele><time>2026-05-01T08:55:22Z</time></trkpt><trkpt lat="45.60894262880857" lon="11.140618755859427"><ele>559.5</ele><time>2026-05-01T08:55:23Z</time></trkpt><trkpt lat="45.608812221006815" lon="11.140731698896507"><ele>559.0</ele><time>2026-05-01T08:55:24Z</time></trkpt><trkpt lat="45.608685717799275" lon="11.140811844747654"><ele>558.5</ele><time>2026-05-01T08:55:25Z</time></trkpt><trkpt lat="45.60857559172599" lon="11.14088143922489"><ele>558.0</ele><time>2026-05-01T08:55:26Z</time></trkpt><trkpt lat="45.60847230293474" lon="11.140922459023187"><ele>558.0</ele><time>2026-05-01T08:55:27Z</time></trkpt><trkpt lat="45.60836360308182" lon="11.140826058081677"><ele>558.0</ele><time>2026-05-01T08:55:28Z</time></trkpt><trkpt lat="45.60825952633218" lon="11.140702090028212"><ele>558.0</ele><time>2026-05-01T08:55:29Z</time></trkpt><trkpt lat="45.60814944119904" lon="11.140555556801456"><ele>558.0</ele><time>2026-05-01T08:55:30Z</time></trkpt><trkpt lat="45.60803512310622" lon="11.140411183904893"><ele>558.25</ele><time>2026-05-01T08:55:31Z</time></trkpt><trkpt lat="45.60792548198743" lon="11.14030470190212"><ele>558.5</ele><time>2026-05-01T08:55:32Z</time></trkpt><trkpt lat="45.60780509460933" lon="11.140245515861757"><ele>558.75</ele><time>2026-05-01T08:55:33Z</time></trkpt><trkpt lat="45.607669865179744" lon="11.140239223963123"><ele>559.0</ele><time>2026-05-01T08:55:34Z</time></trkpt><trkpt lat="45.607528963880135" lon="11.140275482722323"><ele>565.3333333333334</ele><time>2026-05-01T08:55:35Z</time></trkpt><trkpt lat="45.60739306320626" lon="11.140369183619656"><ele>571.6666666666666</ele><time>2026-05-01T08:55:36Z</time></trkpt><trkpt lat="45.60726084799354" lon="11.14049653862189"><ele>578.0</ele><time>2026-05-01T08:55:37Z</time></trkpt><trkpt lat="45.60713187313885" lon="11.140634788023828"><ele>575.3333333333333</ele><time>2026-05-01T08:55:38Z</time></trkpt><trkpt lat="45.606986850777965" lon="11.140772331474357"><ele>572.6666666666666</ele><time>2026-05-01T08:55:39Z</time></trkpt><trkpt lat="45.6068409712076" lon="11.140909169024889"><ele>570.0</ele><time>2026-05-01T08:55:40Z</time></trkpt><trkpt lat="45.60669158980933" lon="11.141033182410911"><ele>570.0</ele><time>2026-05-01T08:55:41Z</time></trkpt><trkpt lat="45.60652924703432" lon="11.14115723934848"><ele>570.0</ele><time>2026-05-01T08:55:42Z</time></trkpt><trkpt lat="45.60636165307253" lon="11.141252849248401"><ele>570.0</ele><time>2026-05-01T08:55:43Z</time></trkpt><trkpt lat="45.60620485398923" lon="11.141361668915355"><ele>568.0</ele><time>2026-05-01T08:55:44Z</time></trkpt><trkpt lat="45.60605447977179" lon="11.141450208970243"><ele>566.0</ele><time>2026-05-01T08:55:45Z</time></trkpt><trkpt lat="45.60591259127575" lon="11.141550626738917"><ele>564.0</ele><time>2026-05-01T08:55:46Z</time></trkpt><trkpt lat="45.605780911399556" lon="11.141662025505651"><ele>564.0</ele><time>2026-05-01T08:55:47Z</time></trkpt><trkpt lat="45.605653665838695" lon="11.141837612245345"><ele>564.0</ele><time>2026-05-01T08:55:48Z</time></trkpt><trkpt lat="45.605554428828654" lon="11.142024922082905"><ele>564.0</ele><time>2026-05-01T08:55:49Z</time></trkpt><trkpt lat="45.6054393736608" lon="11.142182507440094"><ele>564.0</ele><time>2026-05-01T08:55:50Z</time></trkpt><trkpt lat="45.60534046360761" lon="11.142314893644347"><ele>564.0</ele><time>2026-05-01T08:55:51Z</time></trkpt><trkpt lat="45.6052271035555" lon="11.142400317265574"><ele>564.0</ele><time>2026-05-01T08:55:52Z</time></trkpt><trkpt lat="45.60508203936502" lon="11.142476197016983"><ele>564.0</ele><time>2026-05-01T08:55:53Z</time></trkpt><trkpt lat="45.6049201079611" lon="11.14256336909399"><ele>560.3333333333334</ele><time>2026-05-01T08:55:54Z</time></trkpt><trkpt lat="45.604749388481345" lon="11.142648312678759"><ele>556.6666666666667</ele><time>2026-05-01T08:55:55Z</time></trkpt><trkpt lat="45.604577181328175" lon="11.142745571221118"><ele>553.0</ele><time>2026-05-01T08:55:55.999Z</time></trkpt><trkpt lat="45.60440511919202" lon="11.142844840449698"><ele>560.3333333333334</ele><time>2026-05-01T08:55:56.999Z</time></trkpt><trkpt lat="45.604234404948166" lon="11.14293510562764"><ele>567.6666666666666</ele><time>2026-05-01T08:55:57.999Z</time></trkpt><trkpt lat="45.60405604868376" lon="11.14302441464842"><ele>575.0</ele><time>2026-05-01T08:55:58.999Z</time></trkpt><trkpt lat="45.60388734292103" lon="11.143113354930597"><ele>575.0</ele><time>2026-05-01T08:55:59.999Z</time></trkpt><trkpt lat="45.6037122946944" lon="11.143194055060931"><ele>575.0</ele><time>2026-05-01T08:56:00.999Z</time></trkpt><trkpt lat="45.60352808936503" lon="11.14326310735343"><ele>575.0</ele><time>2026-05-01T08:56:01.999Z</time></trkpt><trkpt lat="45.603338353383485" lon="11.143302075789295"><ele>570.0</ele><time>2026-05-01T08:56:02.999Z</time></trkpt><trkpt lat="45.60314939010387" lon="11.1433490696804"><ele>565.0</ele><time>2026-05-01T08:56:03.999Z</time></trkpt><trkpt lat="45.60297009179566" lon="11.143413731333977"><ele>560.0</ele><time>2026-05-01T08:56:04.999Z</time></trkpt><trkpt lat="45.60278846924428" lon="11.14351454487147"><ele>560.0</ele><time>2026-05-01T08:56:05.999Z</time></trkpt><trkpt lat="45.602599385594594" lon="11.14364460150703"><ele>560.0</ele><time>2026-05-01T08:56:06.999Z</time></trkpt><trkpt lat="45.60243117679079" lon="11.143777095193037"><ele>560.0</ele><time>2026-05-01T08:56:07.999Z</time></trkpt><trkpt lat="45.60225183879677" lon="11.143927645832433"><ele>554.6666666666666</ele><time>2026-05-01T08:56:08.999Z</time></trkpt><trkpt lat="45.602070031663445" lon="11.144055914419354"><ele>549.3333333333334</ele><time>2026-05-01T08:56:09.999Z</time></trkpt><trkpt lat="45.60188384574303" lon="11.14417958131651"><ele>544.0</ele><time>2026-05-01T08:56:10.999Z</time></trkpt><trkpt lat="45.60169853808318" lon="11.144290274869284"><ele>544.0</ele><time>2026-05-01T08:56:11.999Z</time></trkpt><trkpt lat="45.60151580053053" lon="11.144411403203842"><ele>544.0</ele><time>2026-05-01T08:56:12.999Z</time></trkpt><trkpt lat="45.60134538618601" lon="11.144527349040098"><ele>544.0</ele><time>2026-05-01T08:56:13.999Z</time></trkpt><trkpt lat="45.6011761073252" lon="11.144657834876044"><ele>542.3333333333334</ele><time>2026-05-01T08:56:14.999Z</time></trkpt><trkpt lat="45.601012165853795" lon="11.144812557185068"><ele>540.6666666666666</ele><time>2026-05-01T08:56:15.999Z</time></trkpt><trkpt lat="45.60085309114415" lon="11.14499037770565"><ele>539.0</ele><time>2026-05-01T08:56:16.999Z</time></trkpt><trkpt lat="45.60069327680533" lon="11.145177325041839"><ele>539.0</ele><time>2026-05-01T08:56:17.999Z</time></trkpt><trkpt lat="45.600529085844244" lon="11.145354710635107"><ele>539.0</ele><time>2026-05-01T08:56:18.999Z</time></trkpt><trkpt lat="45.60035924549767" lon="11.145528865269803"><ele>539.0</ele><time>2026-05-01T08:56:19.999Z</time></trkpt><trkpt lat="45.600189046621516" lon="11.145708846316513"><ele>537.3333333333333</ele><time>2026-05-01T08:56:20.999Z</time></trkpt><trkpt lat="45.600016168277214" lon="11.145890653819082"><ele>535.6666666666666</ele><time>2026-05-01T08:56:21.999Z</time></trkpt><trkpt lat="45.59983508235891" lon="11.146039968406663"><ele>534.0</ele><time>2026-05-01T08:56:22.999Z</time></trkpt><trkpt lat="45.59965313931567" lon="11.146199433453443"><ele>535.3333333333334</ele><time>2026-05-01T08:56:23.999Z</time></trkpt><trkpt lat="45.59947700425512" lon="11.146367604677978"><ele>536.6666666666667</ele><time>2026-05-01T08:56:24.999Z</time></trkpt><trkpt lat="45.59929669849451" lon="11.146504783679664"><ele>538.0</ele><time>2026-05-01T08:56:25.999Z</time></trkpt><trkpt lat="45.59911045159349" lon="11.14664509832493"><ele>537.0</ele><time>2026-05-01T08:56:26.999Z</time></trkpt><trkpt lat="45.59893011124845" lon="11.146789248095422"><ele>536.0</ele><time>2026-05-01T08:56:27.999Z</time></trkpt><trkpt lat="45.59875328377826" lon="11.146927408465157"><ele>535.0</ele><time>2026-05-01T08:56:28.999Z</time></trkpt><trkpt lat="45.59858958908026" lon="11.147059480490649"><ele>535.0</ele><time>2026-05-01T08:56:29.999Z</time></trkpt><trkpt lat="45.59843458157389" lon="11.147205255158728"><ele>535.0</ele><time>2026-05-01T08:56:31Z</time></trkpt><trkpt lat="45.59828635218507" lon="11.147379938785196"><ele>535.0</ele><time>2026-05-01T08:56:32Z</time></trkpt><trkpt lat="45.598154110768874" lon="11.147566978135778"><ele>534.3333333333334</ele><time>2026-05-01T08:56:33Z</time></trkpt><trkpt lat="45.59803558192727" lon="11.147766324121523"><ele>533.6666666666666</ele><time>2026-05-01T08:56:34Z</time></trkpt><trkpt lat="45.59792986796388" lon="11.147957952437933"><ele>533.0</ele><time>2026-05-01T08:56:35Z</time></trkpt><trkpt lat="45.597818643493916" lon="11.148131414400227"><ele>531.3333333333333</ele><time>2026-05-01T08:56:36Z</time></trkpt><trkpt lat="45.59768631448412" lon="11.148278108507602"><ele>529.6666666666666</ele><time>2026-05-01T08:56:37Z</time></trkpt><trkpt lat="45.59754206829259" lon="11.148407193454805"><ele>528.0</ele><time>2026-05-01T08:56:38Z</time></trkpt><trkpt lat="45.59738354421919" lon="11.148514530872403"><ele>528.0</ele><time>2026-05-01T08:56:39Z</time></trkpt><trkpt lat="45.597214300188206" lon="11.148584753238515"><ele>528.0</ele><time>2026-05-01T08:56:40Z</time></trkpt><trkpt lat="45.5970517982872" lon="11.148667890763495"><ele>528.0</ele><time>2026-05-01T08:56:41Z</time></trkpt><trkpt lat="45.596889669545966" lon="11.148715420234797"><ele>528.0</ele><time>2026-05-01T08:56:42Z</time></trkpt><trkpt lat="45.59672946577922" lon="11.148794556014549"><ele>528.0</ele><time>2026-05-01T08:56:43Z</time></trkpt><trkpt lat="45.596573810451346" lon="11.148859747448114"><ele>528.0</ele><time>2026-05-01T08:56:44Z</time></trkpt><trkpt lat="45.59642808867472" lon="11.148902250012677"><ele>528.0</ele><time>2026-05-01T08:56:45Z</time></trkpt><trkpt lat="45.59629873232356" lon="11.148978058684946"><ele>528.0</ele><time>2026-05-01T08:56:46Z</time></trkpt><trkpt lat="45.59617082748599" lon="11.149087883798805"><ele>528.0</ele><time>2026-05-01T08:56:47Z</time></trkpt><trkpt lat="45.59601214107597" lon="11.149095144420343"><ele>528.0</ele><time>2026-05-01T08:56:48Z</time></trkpt><trkpt lat="45.59590854342243" lon="11.1492666942885"><ele>527.25</ele><time>2026-05-01T08:56:49Z</time></trkpt><trkpt lat="45.595796494978174" lon="11.149391583054522"><ele>526.5</ele><time>2026-05-01T08:56:50Z</time></trkpt><trkpt lat="45.59569477772343" lon="11.149523284857501"><ele>525.75</ele><time>2026-05-01T08:56:51Z</time></trkpt><trkpt lat="45.595615711959276" lon="11.149671875923563"><ele>525.0</ele><time>2026-05-01T08:56:52Z</time></trkpt><trkpt lat="45.59555480080623" lon="11.149840496114962"><ele>524.0</ele><time>2026-05-01T08:56:53Z</time></trkpt><trkpt lat="45.595487147415795" lon="11.149989035148392"><ele>523.0</ele><time>2026-05-01T08:56:54Z</time></trkpt><trkpt lat="45.59544837507516" lon="11.150140235514668"><ele>522.0</ele><time>2026-05-01T08:56:55Z</time></trkpt><trkpt lat="45.595406200060324" lon="11.150263464313722"><ele>521.0</ele><time>2026-05-01T08:56:56Z</time></trkpt><trkpt lat="45.5953499721859" lon="11.150349148308536"><ele>520.0</ele><time>2026-05-01T08:56:57Z</time></trkpt><trkpt lat="45.59528294172735" lon="11.150415300351145"><ele>520.0</ele><time>2026-05-01T08:56:58Z</time></trkpt><trkpt lat="45.59519785761013" lon="11.150462049914319"><ele>520.0</ele><time>2026-05-01T08:56:59Z</time></trkpt><trkpt lat="45.59510328077663" lon="11.15050410419713"><ele>520.0</ele><time>2026-05-01T08:57:00Z</time></trkpt><trkpt lat="45.595007768116595" lon="11.150543742227748"><ele>520.0</ele><time>2026-05-01T08:57:01Z</time></trkpt><trkpt lat="45.59490029502137" lon="11.150568927397327"><ele>520.0</ele><time>2026-05-01T08:57:02Z</time></trkpt><trkpt lat="45.59478932991192" lon="11.150582989067793"><ele>520.0</ele><time>2026-05-01T08:57:03Z</time></trkpt><trkpt lat="45.594679728211524" lon="11.150606729622185"><ele>520.0</ele><time>2026-05-01T08:57:04Z</time></trkpt><trkpt lat="45.594594631288686" lon="11.150625524467666"><ele>520.0</ele><time>2026-05-01T08:57:05Z</time></trkpt><trkpt lat="45.59452801410082" lon="11.15061032611755"><ele>520.0</ele><time>2026-05-01T08:57:06Z</time></trkpt><trkpt lat="45.59444004781176" lon="11.150641408747964"><ele>520.0</ele><time>2026-05-01T08:57:08Z</time></trkpt><trkpt lat="45.59435925801861" lon="11.150645121359053"><ele>520.0</ele><time>2026-05-01T08:57:10Z</time></trkpt><trkpt lat="45.59426940854151" lon="11.15066725708715"><ele>518.25</ele><time>2026-05-01T08:57:12Z</time></trkpt><trkpt lat="45.59418937241478" lon="11.150720639685527"><ele>516.5</ele><time>2026-05-01T08:57:13Z</time></trkpt><trkpt lat="45.59410708564181" lon="11.150801201957599"><ele>514.75</ele><time>2026-05-01T08:57:14Z</time></trkpt><trkpt lat="45.59399914603243" lon="11.15090130473436"><ele>513.0</ele><time>2026-05-01T08:57:15Z</time></trkpt><trkpt lat="45.59389692203305" lon="11.151027379849667"><ele>513.0</ele><time>2026-05-01T08:57:16Z</time></trkpt><trkpt lat="45.59378939242016" lon="11.15110974313506"><ele>513.0</ele><time>2026-05-01T08:57:17Z</time></trkpt><trkpt lat="45.593716015944054" lon="11.151241531919233"><ele>513.0</ele><time>2026-05-01T08:57:18Z</time></trkpt><trkpt lat="45.59366751279984" lon="11.151368987724254"><ele>513.0</ele><time>2026-05-01T08:57:19Z</time></trkpt><trkpt lat="45.59365420228435" lon="11.151516588189354"><ele>513.0</ele><time>2026-05-01T08:57:20Z</time></trkpt><trkpt lat="45.593630567297815" lon="11.151661208557627"><ele>511.59999999999997</ele><time>2026-05-01T08:57:21Z</time></trkpt><trkpt lat="45.59361278190172" lon="11.151801768249026"><ele>510.19999999999993</ele><time>2026-05-01T08:57:22Z</time></trkpt><trkpt lat="45.59360437639008" lon="11.151946150954082"><ele>508.8</ele><time>2026-05-01T08:57:23Z</time></trkpt><trkpt lat="45.593528211217894" lon="11.152068461895768"><ele>507.4</ele><time>2026-05-01T08:57:24Z</time></trkpt><trkpt lat="45.593422280493876" lon="11.15215776754353"><ele>506.0</ele><time>2026-05-01T08:57:25Z</time></trkpt><trkpt lat="45.593299967812" lon="11.152222142716482"><ele>506.0</ele><time>2026-05-01T08:57:26Z</time></trkpt><trkpt lat="45.59317912340619" lon="11.152291031885104"><ele>506.0</ele><time>2026-05-01T08:57:27Z</time></trkpt><trkpt lat="45.5930518035621" lon="11.152378580468833"><ele>506.0</ele><time>2026-05-01T08:57:28Z</time></trkpt><trkpt lat="45.5929195054965" lon="11.15247556988971"><ele>506.0</ele><time>2026-05-01T08:57:29Z</time></trkpt><trkpt lat="45.59278503891513" lon="11.15257891321389"><ele>506.66666666666663</ele><time>2026-05-01T08:57:30Z</time></trkpt><trkpt lat="45.59263256782333" lon="11.152639774444253"><ele>507.33333333333337</ele><time>2026-05-01T08:57:31Z</time></trkpt><trkpt lat="45.59247655200471" lon="11.152708269345508"><ele>508.0</ele><time>2026-05-01T08:57:32Z</time></trkpt><trkpt lat="45.59231514975318" lon="11.152779128850607"><ele>508.0</ele><time>2026-05-01T08:57:33Z</time></trkpt><trkpt lat="45.59216253878098" lon="11.152846665709673"><ele>508.0</ele><time>2026-05-01T08:57:34Z</time></trkpt><trkpt lat="45.59201598789768" lon="11.15293489883971"><ele>508.0</ele><time>2026-05-01T08:57:35Z</time></trkpt><trkpt lat="45.591861361472006" lon="11.152998226316344"><ele>506.6666666666667</ele><time>2026-05-01T08:57:36Z</time></trkpt><trkpt lat="45.59169672924134" lon="11.153063697221414"><ele>505.33333333333337</ele><time>2026-05-01T08:57:37Z</time></trkpt><trkpt lat="45.59153145743719" lon="11.153123539157603"><ele>504.0</ele><time>2026-05-01T08:57:38Z</time></trkpt><trkpt lat="45.59136225702561" lon="11.153175168998308"><ele>503.33333333333337</ele><time>2026-05-01T08:57:39Z</time></trkpt><trkpt lat="45.591193887523964" lon="11.15323142368081"><ele>502.6666666666667</ele><time>2026-05-01T08:57:40Z</time></trkpt><trkpt lat="45.591025927837784" lon="11.153287746545821"><ele>502.0</ele><time>2026-05-01T08:57:41Z</time></trkpt><trkpt lat="45.59086026094951" lon="11.15334087396357"><ele>502.0</ele><time>2026-05-01T08:57:42Z</time></trkpt><trkpt lat="45.590696614769506" lon="11.153400326269104"><ele>502.0</ele><time>2026-05-01T08:57:43Z</time></trkpt><trkpt lat="45.59053843834195" lon="11.153474819805107"><ele>502.0</ele><time>2026-05-01T08:57:44Z</time></trkpt><trkpt lat="45.5903843108418" lon="11.153574753614679"><ele>500.6666666666667</ele><time>2026-05-01T08:57:45Z</time></trkpt><trkpt lat="45.59023937951714" lon="11.153697464136103"><ele>499.33333333333337</ele><time>2026-05-01T08:57:46Z</time></trkpt><trkpt lat="45.59010036945334" lon="11.153821164172571"><ele>498.0</ele><time>2026-05-01T08:57:47Z</time></trkpt><trkpt lat="45.58995159543556" lon="11.153901917279008"><ele>498.0</ele><time>2026-05-01T08:57:48Z</time></trkpt><trkpt lat="45.589799924017576" lon="11.153973116169857"><ele>498.0</ele><time>2026-05-01T08:57:49Z</time></trkpt><trkpt lat="45.589641444976934" lon="11.154004959206048"><ele>498.0</ele><time>2026-05-01T08:57:50Z</time></trkpt><trkpt lat="45.58947543592381" lon="11.15402863600462"><ele>498.0</ele><time>2026-05-01T08:57:51Z</time></trkpt><trkpt lat="45.58930404294591" lon="11.154011383472785"><ele>498.0</ele><time>2026-05-01T08:57:52Z</time></trkpt><trkpt lat="45.58913263825508" lon="11.153984267280304"><ele>498.0</ele><time>2026-05-01T08:57:53Z</time></trkpt><trkpt lat="45.588960920984356" lon="11.153958028838975"><ele>498.0</ele><time>2026-05-01T08:57:54Z</time></trkpt><trkpt lat="45.58878365156671" lon="11.153939009431776"><ele>498.0</ele><time>2026-05-01T08:57:55Z</time></trkpt><trkpt lat="45.588610730215464" lon="11.153929514504133"><ele>498.0</ele><time>2026-05-01T08:57:56Z</time></trkpt><trkpt lat="45.58842481285654" lon="11.153924549243749"><ele>497.66666666666663</ele><time>2026-05-01T08:57:57Z</time></trkpt><trkpt lat="45.58824613166437" lon="11.153937229835893"><ele>497.3333333333333</ele><time>2026-05-01T08:57:58Z</time></trkpt><trkpt lat="45.58806961388053" lon="11.153963273422411"><ele>497.0</ele><time>2026-05-01T08:57:59Z</time></trkpt><trkpt lat="45.587885072613" lon="11.154006047287442"><ele>498.3333333333333</ele><time>2026-05-01T08:58:00Z</time></trkpt><trkpt lat="45.587715306479886" lon="11.154050671280265"><ele>499.66666666666663</ele><time>2026-05-01T08:58:01Z</time></trkpt><trkpt lat="45.58755723693562" lon="11.154081629347822"><ele>501.0</ele><time>2026-05-01T08:58:02Z</time></trkpt><trkpt lat="45.58739603533578" lon="11.15408437634102"><ele>501.0</ele><time>2026-05-01T08:58:03Z</time></trkpt><trkpt lat="45.587223087810926" lon="11.154042963450888"><ele>501.0</ele><time>2026-05-01T08:58:04Z</time></trkpt><trkpt lat="45.58705568260424" lon="11.153965619938948"><ele>501.0</ele><time>2026-05-01T08:58:05Z</time></trkpt><trkpt lat="45.58688155095139" lon="11.153861569138906"><ele>498.33333333333337</ele><time>2026-05-01T08:58:06Z</time></trkpt><trkpt lat="45.58670662631783" lon="11.153772248408554"><ele>495.6666666666667</ele><time>2026-05-01T08:58:07Z</time></trkpt><trkpt lat="45.58652462300369" lon="11.153687718435446"><ele>493.0</ele><time>2026-05-01T08:58:08Z</time></trkpt><trkpt lat="45.58633442865694" lon="11.153600209777204"><ele>493.0</ele><time>2026-05-01T08:58:09Z</time></trkpt><trkpt lat="45.586163194517326" lon="11.153521920372693"><ele>493.0</ele><time>2026-05-01T08:58:10Z</time></trkpt><trkpt lat="45.58599627490151" lon="11.153449562571245"><ele>493.0</ele><time>2026-05-01T08:58:11Z</time></trkpt><trkpt lat="45.58583521074824" lon="11.153392970164338"><ele>493.0</ele><time>2026-05-01T08:58:12Z</time></trkpt><trkpt lat="45.58565986781372" lon="11.153358994612658"><ele>493.0</ele><time>2026-05-01T08:58:13Z</time></trkpt><trkpt lat="45.58547636352305" lon="11.153328355893187"><ele>493.0</ele><time>2026-05-01T08:58:14Z</time></trkpt><trkpt lat="45.58529672490007" lon="11.153304759564929"><ele>493.33333333333337</ele><time>2026-05-01T08:58:15Z</time></trkpt><trkpt lat="45.585129853934944" lon="11.153290566258633"><ele>493.66666666666663</ele><time>2026-05-01T08:58:16Z</time></trkpt><trkpt lat="45.584980337961404" lon="11.153269374683905"><ele>494.0</ele><time>2026-05-01T08:58:17Z</time></trkpt><trkpt lat="45.58484349972852" lon="11.153232546419021"><ele>493.4</ele><time>2026-05-01T08:58:18Z</time></trkpt><trkpt lat="45.584727394249654" lon="11.153171418048888"><ele>492.79999999999995</ele><time>2026-05-01T08:58:18.999Z</time></trkpt><trkpt lat="45.58464920552872" lon="11.153092364507648"><ele>492.20000000000005</ele><time>2026-05-01T08:58:19.999Z</time></trkpt><trkpt lat="45.58459280464733" lon="11.153008190648894"><ele>491.6</ele><time>2026-05-01T08:58:20.999Z</time></trkpt><trkpt lat="45.58455706272534" lon="11.152927375919628"><ele>491.0</ele><time>2026-05-01T08:58:21.999Z</time></trkpt><trkpt lat="45.58444465610465" lon="11.153083862968261"><ele>490.6</ele><time>2026-05-01T08:58:25.999Z</time></trkpt><trkpt lat="45.584492611341936" lon="11.153175849271001"><ele>490.20000000000005</ele><time>2026-05-01T08:58:26.999Z</time></trkpt><trkpt lat="45.584557260057714" lon="11.153262424181964"><ele>489.79999999999995</ele><time>2026-05-01T08:58:27.999Z</time></trkpt><trkpt lat="45.58462136801885" lon="11.153352717767483"><ele>489.4</ele><time>2026-05-01T08:58:28.999Z</time></trkpt><trkpt lat="45.58470028946319" lon="11.153463875573928"><ele>489.0</ele><time>2026-05-01T08:58:29.999Z</time></trkpt><trkpt lat="45.58479015128919" lon="11.153590442480635"><ele>490.66666666666663</ele><time>2026-05-01T08:58:30.999Z</time></trkpt><trkpt lat="45.5848997742357" lon="11.153744240656406"><ele>492.3333333333333</ele><time>2026-05-01T08:58:31.999Z</time></trkpt><trkpt lat="45.58501907960819" lon="11.153911553981246"><ele>494.0</ele><time>2026-05-01T08:58:32.999Z</time></trkpt><trkpt lat="45.58514437395825" lon="11.154083715286452"><ele>495.6</ele><time>2026-05-01T08:58:33.999Z</time></trkpt><trkpt lat="45.58524212947568" lon="11.154229270160856"><ele>497.2</ele><time>2026-05-01T08:58:34.999Z</time></trkpt><trkpt lat="45.585314060514726" lon="11.15434155545154"><ele>498.80000000000007</ele><time>2026-05-01T08:58:35.999Z</time></trkpt><trkpt lat="45.58536663235289" lon="11.154427384806743"><ele>500.40000000000003</ele><time>2026-05-01T08:58:37Z</time></trkpt><trkpt lat="45.585353784619215" lon="11.154598445670592"><ele>502.0</ele><time>2026-05-01T08:58:39Z</time></trkpt><trkpt lat="45.58529242798345" lon="11.154663824982057"><ele>502.25</ele><time>2026-05-01T08:58:40Z</time></trkpt><trkpt lat="45.58518400785007" lon="11.154667183649751"><ele>502.5</ele><time>2026-05-01T08:58:41Z</time></trkpt><trkpt lat="45.5850727410779" lon="11.154743924508262"><ele>502.75</ele><time>2026-05-01T08:58:42Z</time></trkpt><trkpt lat="45.58498555988346" lon="11.154830381870333"><ele>503.0</ele><time>2026-05-01T08:58:43Z</time></trkpt><trkpt lat="45.58494222431003" lon="11.154985458667593"><ele>506.0</ele><time>2026-05-01T08:58:44Z</time></trkpt><trkpt lat="45.58494413061395" lon="11.155202168178109"><ele>509.0</ele><time>2026-05-01T08:58:45Z</time></trkpt><trkpt lat="45.58493901853124" lon="11.15546049032048"><ele>512.0</ele><time>2026-05-01T08:58:46Z</time></trkpt><trkpt lat="45.584940256165886" lon="11.155749581714431"><ele>515.3333333333333</ele><time>2026-05-01T08:58:47Z</time></trkpt><trkpt lat="45.58492124911321" lon="11.156053415753693"><ele>518.6666666666666</ele><time>2026-05-01T08:58:48Z</time></trkpt><trkpt lat="45.58490925730781" lon="11.156342902622832"><ele>522.0</ele><time>2026-05-01T08:58:49Z</time></trkpt><trkpt lat="45.58493231907877" lon="11.156584355145878"><ele>522.5</ele><time>2026-05-01T08:58:50Z</time></trkpt><trkpt lat="45.5849507116839" lon="11.156813232306835"><ele>523.0</ele><time>2026-05-01T08:58:51Z</time></trkpt><trkpt lat="45.58499680624897" lon="11.157018393639342"><ele>523.5</ele><time>2026-05-01T08:58:52Z</time></trkpt><trkpt lat="45.58503347364789" lon="11.157173969220697"><ele>524.0</ele><time>2026-05-01T08:58:53Z</time></trkpt><trkpt lat="45.58509003252772" lon="11.157321832397999"><ele>524.25</ele><time>2026-05-01T08:58:54Z</time></trkpt><trkpt lat="45.585173549683" lon="11.157485699013817"><ele>524.5</ele><time>2026-05-01T08:58:55Z</time></trkpt><trkpt lat="45.58525055311262" lon="11.157662089999558"><ele>524.75</ele><time>2026-05-01T08:58:56Z</time></trkpt><trkpt lat="45.58533839398136" lon="11.157786449716049"><ele>525.0</ele><time>2026-05-01T08:58:57Z</time></trkpt><trkpt lat="45.58541840266684" lon="11.15790679962984"><ele>528.4</ele><time>2026-05-01T08:58:58Z</time></trkpt><trkpt lat="45.58551009637138" lon="11.157984981922695"><ele>531.8</ele><time>2026-05-01T08:58:59Z</time></trkpt><trkpt lat="45.58560292434083" lon="11.158020608635448"><ele>535.2</ele><time>2026-05-01T08:59:00Z</time></trkpt><trkpt lat="45.58569406299848" lon="11.15800513985721"><ele>538.6</ele><time>2026-05-01T08:59:01Z</time></trkpt><trkpt lat="45.58578147068375" lon="11.157928790362089"><ele>542.0</ele><time>2026-05-01T08:59:02Z</time></trkpt><trkpt lat="45.58585722863224" lon="11.157785905730243"><ele>542.0</ele><time>2026-05-01T08:59:03Z</time></trkpt><trkpt lat="45.58592197308152" lon="11.157586625089586"><ele>542.0</ele><time>2026-05-01T08:59:04Z</time></trkpt><trkpt lat="45.585984325167814" lon="11.157381258261411"><ele>542.0</ele><time>2026-05-01T08:59:05Z</time></trkpt><trkpt lat="45.58603583919051" lon="11.157182959079403"><ele>542.0</ele><time>2026-05-01T08:59:06Z</time></trkpt><trkpt lat="45.586071938289834" lon="11.157028918419424"><ele>542.0</ele><time>2026-05-01T08:59:07Z</time></trkpt><trkpt lat="45.586111517645215" lon="11.156910901841771"><ele>542.0</ele><time>2026-05-01T08:59:08Z</time></trkpt><trkpt lat="45.58617476344429" lon="11.156836605908454"><ele>542.0</ele><time>2026-05-01T08:59:09Z</time></trkpt><trkpt lat="45.586258197551516" lon="11.156848081743819"><ele>542.0</ele><time>2026-05-01T08:59:10Z</time></trkpt><trkpt lat="45.58632224298154" lon="11.156948370124383"><ele>548.75</ele><time>2026-05-01T08:59:11Z</time></trkpt><trkpt lat="45.58629563325429" lon="11.157130357844585"><ele>555.5</ele><time>2026-05-01T08:59:12Z</time></trkpt><trkpt lat="45.5863066223502" lon="11.15731861269482"><ele>562.25</ele><time>2026-05-01T08:59:13Z</time></trkpt><trkpt lat="45.58633689457054" lon="11.15754328374621"><ele>569.0</ele><time>2026-05-01T08:59:14Z</time></trkpt><trkpt lat="45.58639663718075" lon="11.15779820068699"><ele>568.6666666666666</ele><time>2026-05-01T08:59:15Z</time></trkpt><trkpt lat="45.58646379772381" lon="11.158065983124411"><ele>568.3333333333334</ele><time>2026-05-01T08:59:16Z</time></trkpt><trkpt lat="45.586527905581676" lon="11.158334324601839"><ele>568.0</ele><time>2026-05-01T08:59:17Z</time></trkpt><trkpt lat="45.58659254775275" lon="11.158558473627464"><ele>568.0</ele><time>2026-05-01T08:59:18Z</time></trkpt><trkpt lat="45.58664162738895" lon="11.158767422561487"><ele>568.0</ele><time>2026-05-01T08:59:19Z</time></trkpt><trkpt lat="45.58663187392689" lon="11.158998464958731"><ele>568.0</ele><time>2026-05-01T08:59:20Z</time></trkpt><trkpt lat="45.5866517941228" lon="11.15925018324493"><ele>569.0</ele><time>2026-05-01T08:59:21Z</time></trkpt><trkpt lat="45.58667927582252" lon="11.15948044614181"><ele>570.0</ele><time>2026-05-01T08:59:22Z</time></trkpt><trkpt lat="45.586688056300474" lon="11.159671288100931"><ele>571.0</ele><time>2026-05-01T08:59:23Z</time></trkpt><trkpt lat="45.586679465502876" lon="11.159851865161006"><ele>572.0</ele><time>2026-05-01T08:59:24Z</time></trkpt><trkpt lat="45.586647105634036" lon="11.160036261725208"><ele>573.4</ele><time>2026-05-01T08:59:25Z</time></trkpt><trkpt lat="45.58660314403147" lon="11.160209971754227"><ele>574.8000000000001</ele><time>2026-05-01T08:59:26Z</time></trkpt><trkpt lat="45.586552596157546" lon="11.160366473025718"><ele>576.2</ele><time>2026-05-01T08:59:27Z</time></trkpt><trkpt lat="45.58652622733886" lon="11.160516915828655"><ele>577.6</ele><time>2026-05-01T08:59:28Z</time></trkpt><trkpt lat="45.586524884674716" lon="11.160631365496283"><ele>579.0</ele><time>2026-05-01T08:59:29Z</time></trkpt><trkpt lat="45.586602389823355" lon="11.160762869392418"><ele>579.6666666666666</ele><time>2026-05-01T08:59:30Z</time></trkpt><trkpt lat="45.586672811554855" lon="11.160933933634249"><ele>580.3333333333333</ele><time>2026-05-01T08:59:31Z</time></trkpt><trkpt lat="45.5867349163144" lon="11.161146991052219"><ele>581.0</ele><time>2026-05-01T08:59:32Z</time></trkpt><trkpt lat="45.58679375699412" lon="11.161362800031366"><ele>582.25</ele><time>2026-05-01T08:59:33Z</time></trkpt><trkpt lat="45.58685708088411" lon="11.161567926629038"><ele>583.5</ele><time>2026-05-01T08:59:34Z</time></trkpt><trkpt lat="45.58691114324709" lon="11.161734773737155"><ele>584.75</ele><time>2026-05-01T08:59:35Z</time></trkpt><trkpt lat="45.58694557893675" lon="11.161871330748928"><ele>586.0</ele><time>2026-05-01T08:59:36Z</time></trkpt><trkpt lat="45.58694267929814" lon="11.161963533737433"><ele>586.0</ele><time>2026-05-01T08:59:37Z</time></trkpt><trkpt lat="45.586892251570056" lon="11.16203527361589"><ele>586.0</ele><time>2026-05-01T08:59:38Z</time></trkpt><trkpt lat="45.58680780688809" lon="11.162090583016715"><ele>586.0</ele><time>2026-05-01T08:59:39Z</time></trkpt><trkpt lat="45.58667156850312" lon="11.162048154863097"><ele>586.0</ele><time>2026-05-01T08:59:40Z</time></trkpt><trkpt lat="45.58651816134643" lon="11.162051893122612"><ele>586.0</ele><time>2026-05-01T08:59:41Z</time></trkpt><trkpt lat="45.58637448775508" lon="11.162070549952634"><ele>586.0</ele><time>2026-05-01T08:59:42Z</time></trkpt><trkpt lat="45.58622351475672" lon="11.162108070422553"><ele>586.0</ele><time>2026-05-01T08:59:43Z</time></trkpt><trkpt lat="45.58608466902554" lon="11.162167365294861"><ele>586.0</ele><time>2026-05-01T08:59:44Z</time></trkpt><trkpt lat="45.58596328199425" lon="11.162235161949301"><ele>588.25</ele><time>2026-05-01T08:59:45Z</time></trkpt><trkpt lat="45.5858555693141" lon="11.162333347334455"><ele>590.5</ele><time>2026-05-01T08:59:46Z</time></trkpt><trkpt lat="45.58574655901084" lon="11.162472248870726"><ele>592.75</ele><time>2026-05-01T08:59:47Z</time></trkpt><trkpt lat="45.585646257684154" lon="11.16256287301158"><ele>595.0</ele><time>2026-05-01T08:59:48Z</time></trkpt><trkpt lat="45.585564574845186" lon="11.162637773970289"><ele>595.0</ele><time>2026-05-01T08:59:49Z</time></trkpt><trkpt lat="45.585511636130576" lon="11.162706134801502"><ele>595.0</ele><time>2026-05-01T08:59:50Z</time></trkpt><trkpt lat="45.585477285833015" lon="11.162787275150908"><ele>595.0</ele><time>2026-05-01T08:59:52Z</time></trkpt><trkpt lat="45.58551785290365" lon="11.162864616078213"><ele>595.0</ele><time>2026-05-01T08:59:53Z</time></trkpt><trkpt lat="45.58560102182567" lon="11.16287579730427"><ele>595.0</ele><time>2026-05-01T08:59:54Z</time></trkpt><trkpt lat="45.58567608298288" lon="11.162737411731474"><ele>595.0</ele><time>2026-05-01T08:59:55Z</time></trkpt><trkpt lat="45.58575120854702" lon="11.162664216783133"><ele>595.0</ele><time>2026-05-01T08:59:56Z</time></trkpt><trkpt lat="45.58585233166114" lon="11.162628177320958"><ele>595.0</ele><time>2026-05-01T08:59:57Z</time></trkpt><trkpt lat="45.585954088911954" lon="11.162577812344797"><ele>595.0</ele><time>2026-05-01T08:59:58Z</time></trkpt><trkpt lat="45.58606404649599" lon="11.162553271799625"><ele>595.0</ele><time>2026-05-01T08:59:59Z</time></trkpt><trkpt lat="45.586188559640135" lon="11.162548936498085"><ele>595.0</ele><time>2026-05-01T09:00:00Z</time></trkpt><trkpt lat="45.586338484600255" lon="11.162541823287615"><ele>598.5</ele><time>2026-05-01T09:00:01Z</time></trkpt><trkpt lat="45.58647998000504" lon="11.162508589591338"><ele>602.0</ele><time>2026-05-01T09:00:02Z</time></trkpt><trkpt lat="45.58661900974907" lon="11.162508378911815"><ele>605.5</ele><time>2026-05-01T09:00:03Z</time></trkpt><trkpt lat="45.58674186099451" lon="11.162531964493754"><ele>609.0</ele><time>2026-05-01T09:00:04Z</time></trkpt><trkpt lat="45.586826820247545" lon="11.162533704546359"><ele>609.0</ele><time>2026-05-01T09:00:05Z</time></trkpt><trkpt lat="45.58691836225548" lon="11.162559256830283"><ele>609.0</ele><time>2026-05-01T09:00:07Z</time></trkpt><trkpt lat="45.58689853404756" lon="11.162685597431835"><ele>609.0</ele><time>2026-05-01T09:00:10Z</time></trkpt><trkpt lat="45.58682902085448" lon="11.162670594470558"><ele>609.0</ele><time>2026-05-01T09:00:11Z</time></trkpt><trkpt lat="45.586743959406235" lon="11.16263951702668"><ele>609.0</ele><time>2026-05-01T09:00:12Z</time></trkpt><trkpt lat="45.58664081168202" lon="11.16261698280826"><ele>609.0</ele><time>2026-05-01T09:00:13Z</time></trkpt><trkpt lat="45.58654083823293" lon="11.162646457951467"><ele>609.0</ele><time>2026-05-01T09:00:14Z</time></trkpt><trkpt lat="45.586439621187246" lon="11.162699344405768"><ele>609.0</ele><time>2026-05-01T09:00:15Z</time></trkpt><trkpt lat="45.58632586179049" lon="11.162769728930169"><ele>609.0</ele><time>2026-05-01T09:00:16Z</time></trkpt><trkpt lat="45.58619918604586" lon="11.162836170706052"><ele>609.0</ele><time>2026-05-01T09:00:17Z</time></trkpt><trkpt lat="45.586080338164955" lon="11.162870598074326"><ele>606.2</ele><time>2026-05-01T09:00:18Z</time></trkpt><trkpt lat="45.585985397782146" lon="11.162906937037299"><ele>603.4</ele><time>2026-05-01T09:00:19Z</time></trkpt><trkpt lat="45.58589552734124" lon="11.162973608179849"><ele>600.6</ele><time>2026-05-01T09:00:20Z</time></trkpt><trkpt lat="45.585809534545476" lon="11.163067638203952"><ele>597.8</ele><time>2026-05-01T09:00:21Z</time></trkpt><trkpt lat="45.585727455071265" lon="11.163198014013318"><ele>595.0</ele><time>2026-05-01T09:00:22Z</time></trkpt><trkpt lat="45.58562932677781" lon="11.163338874102285"><ele>594.0</ele><time>2026-05-01T09:00:23Z</time></trkpt><trkpt lat="45.58552701770933" lon="11.163474969861635"><ele>593.0</ele><time>2026-05-01T09:00:23.999Z</time></trkpt><trkpt lat="45.58543419756181" lon="11.1636154713974"><ele>592.0</ele><time>2026-05-01T09:00:24.999Z</time></trkpt><trkpt lat="45.58534574853295" lon="11.163759161458044"><ele>591.0</ele><time>2026-05-01T09:00:25.999Z</time></trkpt><trkpt lat="45.58527264835895" lon="11.163892395672786"><ele>591.0</ele><time>2026-05-01T09:00:26.999Z</time></trkpt><trkpt lat="45.58522257632201" lon="11.16402121451153"><ele>591.0</ele><time>2026-05-01T09:00:27.999Z</time></trkpt><trkpt lat="45.585176655079486" lon="11.164131380935828"><ele>591.0</ele><time>2026-05-01T09:00:28.999Z</time></trkpt><trkpt lat="45.58515659991342" lon="11.16424309670181"><ele>591.0</ele><time>2026-05-01T09:00:29.999Z</time></trkpt><trkpt lat="45.585159091424366" lon="11.164352771370682"><ele>591.0</ele><time>2026-05-01T09:00:30.999Z</time></trkpt><trkpt lat="45.58521458148047" lon="11.164485724395137"><ele>595.25</ele><time>2026-05-01T09:00:31.999Z</time></trkpt><trkpt lat="45.58529573358199" lon="11.164641964811414"><ele>599.5</ele><time>2026-05-01T09:00:32.999Z</time></trkpt><trkpt lat="45.58536262961961" lon="11.164835315823213"><ele>603.75</ele><time>2026-05-01T09:00:33.999Z</time></trkpt><trkpt lat="45.5854352370243" lon="11.165016542392538"><ele>608.0</ele><time>2026-05-01T09:00:34.999Z</time></trkpt><trkpt lat="45.58548305003337" lon="11.165199216915592"><ele>620.75</ele><time>2026-05-01T09:00:35.999Z</time></trkpt><trkpt lat="45.58550890160024" lon="11.165396594783049"><ele>633.5</ele><time>2026-05-01T09:00:36.999Z</time></trkpt><trkpt lat="45.58550594804002" lon="11.16557842657141"><ele>646.25</ele><time>2026-05-01T09:00:37.999Z</time></trkpt><trkpt lat="45.585518343084345" lon="11.165743107208005"><ele>659.0</ele><time>2026-05-01T09:00:38.999Z</time></trkpt><trkpt lat="45.585569320765295" lon="11.165897651007022"><ele>659.0</ele><time>2026-05-01T09:00:39.999Z</time></trkpt><trkpt lat="45.58562621262857" lon="11.166066373420758"><ele>659.0</ele><time>2026-05-01T09:00:40.999Z</time></trkpt><trkpt lat="45.58570265190148" lon="11.166230428433106"><ele>659.0</ele><time>2026-05-01T09:00:41.999Z</time></trkpt><trkpt lat="45.585778845298464" lon="11.166363933843154"><ele>659.0</ele><time>2026-05-01T09:00:43Z</time></trkpt><trkpt lat="45.585851052868314" lon="11.16646748324297"><ele>657.8000000000001</ele><time>2026-05-01T09:00:44Z</time></trkpt><trkpt lat="45.58588435868485" lon="11.16659581856163"><ele>656.6</ele><time>2026-05-01T09:00:45Z</time></trkpt><trkpt lat="45.585865072937715" lon="11.16672801170226"><ele>655.4</ele><time>2026-05-01T09:00:46Z</time></trkpt><trkpt lat="45.58584499108128" lon="11.166883132163747"><ele>654.2</ele><time>2026-05-01T09:00:47Z</time></trkpt><trkpt lat="45.58582146211671" lon="11.167087530563753"><ele>653.0</ele><time>2026-05-01T09:00:48Z</time></trkpt><trkpt lat="45.5858113565241" lon="11.167269870714883"><ele>653.0</ele><time>2026-05-01T09:00:49Z</time></trkpt><trkpt lat="45.58583218742398" lon="11.167431275336352"><ele>653.0</ele><time>2026-05-01T09:00:50Z</time></trkpt><trkpt lat="45.58587121074645" lon="11.167605714026783"><ele>653.0</ele><time>2026-05-01T09:00:51Z</time></trkpt><trkpt lat="45.58590272988952" lon="11.16781240190029"><ele>653.0</ele><time>2026-05-01T09:00:52Z</time></trkpt><trkpt lat="45.585942432516674" lon="11.168011296296982"><ele>652.5</ele><time>2026-05-01T09:00:53Z</time></trkpt><trkpt lat="45.58594086390591" lon="11.16820046868221"><ele>652.0</ele><time>2026-05-01T09:00:54Z</time></trkpt><trkpt lat="45.58595901362485" lon="11.168357196251753"><ele>651.5</ele><time>2026-05-01T09:00:55Z</time></trkpt><trkpt lat="45.585991752560304" lon="11.168499108320225"><ele>651.0</ele><time>2026-05-01T09:00:56Z</time></trkpt><trkpt lat="45.58608563746133" lon="11.168610159591125"><ele>651.0</ele><time>2026-05-01T09:00:57Z</time></trkpt><trkpt lat="45.58617808334684" lon="11.168710082641978"><ele>651.0</ele><time>2026-05-01T09:00:58Z</time></trkpt><trkpt lat="45.58626316114402" lon="11.168833769064275"><ele>651.0</ele><time>2026-05-01T09:00:59Z</time></trkpt><trkpt lat="45.586358914955746" lon="11.168953559342576"><ele>651.0</ele><time>2026-05-01T09:01:00Z</time></trkpt><trkpt lat="45.586454257087226" lon="11.169086209897749"><ele>656.6666666666666</ele><time>2026-05-01T09:01:01Z</time></trkpt><trkpt lat="45.58652006751011" lon="11.169213905371562"><ele>662.3333333333334</ele><time>2026-05-01T09:01:02Z</time></trkpt><trkpt lat="45.58656042370382" lon="11.169331921169757"><ele>668.0</ele><time>2026-05-01T09:01:03Z</time></trkpt><trkpt lat="45.5866008793006" lon="11.169413702540387"><ele>673.6666666666667</ele><time>2026-05-01T09:01:04Z</time></trkpt><trkpt lat="45.58667241183211" lon="11.169495731213466"><ele>679.3333333333334</ele><time>2026-05-01T09:01:06Z</time></trkpt><trkpt lat="45.58672136114792" lon="11.169428425077346"><ele>685.0</ele><time>2026-05-01T09:01:07Z</time></trkpt><trkpt lat="45.586731635272805" lon="11.16929707050714"><ele>685.0</ele><time>2026-05-01T09:01:09Z</time></trkpt><trkpt lat="45.586653012644696" lon="11.169235564427115"><ele>685.0</ele><time>2026-05-01T09:01:12Z</time></trkpt><trkpt lat="45.586628498421014" lon="11.169150218383596"><ele>685.0</ele><time>2026-05-01T09:01:14Z</time></trkpt><trkpt lat="45.58658673527558" lon="11.169044997210857"><ele>685.0</ele><time>2026-05-01T09:05:03Z</time></trkpt><trkpt lat="45.586540282325146" lon="11.168910410058508"><ele>685.0</ele><time>2026-05-01T09:05:05Z</time></trkpt><trkpt lat="45.58651265414547" lon="11.168829503645695"><ele>685.0</ele><time>2026-05-01T09:05:06Z</time></trkpt><trkpt lat="45.5864671426277" lon="11.168696439186583"><ele>687.8</ele><time>2026-05-01T09:05:08Z</time></trkpt><trkpt lat="45.586419136985846" lon="11.168580161720596"><ele>690.6</ele><time>2026-05-01T09:05:10Z</time></trkpt><trkpt lat="45.586380304823074" lon="11.168467060543403"><ele>693.4000000000001</ele><time>2026-05-01T09:05:12Z</time></trkpt><trkpt lat="45.586339821537656" lon="11.168291734492465"><ele>696.2</ele><time>2026-05-01T09:05:14Z</time></trkpt><trkpt lat="45.58632923418625" lon="11.168175508510387"><ele>699.0</ele><time>2026-05-01T09:05:15Z</time></trkpt><trkpt lat="45.58636236885806" lon="11.168040820690303"><ele>700.2</ele><time>2026-05-01T09:05:16Z</time></trkpt><trkpt lat="45.58638632845346" lon="11.167901035081888"><ele>701.4000000000001</ele><time>2026-05-01T09:05:17Z</time></trkpt><trkpt lat="45.58638605172482" lon="11.167751090693248"><ele>702.6</ele><time>2026-05-01T09:05:18Z</time></trkpt><trkpt lat="45.586406877233635" lon="11.167609139667634"><ele>703.8</ele><time>2026-05-01T09:05:19Z</time></trkpt><trkpt lat="45.5864123092536" lon="11.167465438940297"><ele>705.0</ele><time>2026-05-01T09:05:20Z</time></trkpt><trkpt lat="45.58641971066392" lon="11.167326852601743"><ele>705.6666666666666</ele><time>2026-05-01T09:05:21Z</time></trkpt><trkpt lat="45.586439624030135" lon="11.167194985023135"><ele>706.3333333333334</ele><time>2026-05-01T09:05:22Z</time></trkpt><trkpt lat="45.58648093619405" lon="11.16707632710383"><ele>707.0</ele><time>2026-05-01T09:05:23Z</time></trkpt><trkpt lat="45.586508797342624" lon="11.166963368263497"><ele>707.6666666666667</ele><time>2026-05-01T09:05:24Z</time></trkpt><trkpt lat="45.58651202638963" lon="11.166832108042378"><ele>708.3333333333334</ele><time>2026-05-01T09:05:25Z</time></trkpt><trkpt lat="45.586491487855334" lon="11.166719784508453"><ele>709.0</ele><time>2026-05-01T09:05:26Z</time></trkpt><trkpt lat="45.58649798712634" lon="11.166588731287362"><ele>709.0</ele><time>2026-05-01T09:05:28Z</time></trkpt><trkpt lat="45.586511324187235" lon="11.166686839178238"><ele>709.0</ele><time>2026-05-01T09:05:31Z</time></trkpt><trkpt lat="45.58654233341018" lon="11.166831164075775"><ele>709.0</ele><time>2026-05-01T09:05:32Z</time></trkpt><trkpt lat="45.58655813350012" lon="11.166978251304066"><ele>709.0</ele><time>2026-05-01T09:05:33Z</time></trkpt><trkpt lat="45.58654553792894" lon="11.167124578036498"><ele>709.0</ele><time>2026-05-01T09:05:34Z</time></trkpt><trkpt lat="45.58649864229054" lon="11.16725585075675"><ele>708.0</ele><time>2026-05-01T09:05:35Z</time></trkpt><trkpt lat="45.58646842382941" lon="11.167380927766038"><ele>707.0</ele><time>2026-05-01T09:05:36Z</time></trkpt><trkpt lat="45.586553650868474" lon="11.167540920496405"><ele>706.0</ele><time>2026-05-01T09:05:37Z</time></trkpt><trkpt lat="45.586572133265406" lon="11.16768615913933"><ele>705.0</ele><time>2026-05-01T09:05:38Z</time></trkpt><trkpt lat="45.58655899714018" lon="11.167849906788769"><ele>705.0</ele><time>2026-05-01T09:05:39Z</time></trkpt><trkpt lat="45.5865802162986" lon="11.167983057277485"><ele>705.0</ele><time>2026-05-01T09:05:40Z</time></trkpt><trkpt lat="45.586591703642675" lon="11.16810202057704"><ele>705.0</ele><time>2026-05-01T09:05:41Z</time></trkpt><trkpt lat="45.58663098203338" lon="11.168223958582823"><ele>705.0</ele><time>2026-05-01T09:05:42Z</time></trkpt><trkpt lat="45.58668904202611" lon="11.168336375048346"><ele>705.0</ele><time>2026-05-01T09:05:43Z</time></trkpt><trkpt lat="45.58675134539245" lon="11.16845525174406"><ele>703.8</ele><time>2026-05-01T09:05:44Z</time></trkpt><trkpt lat="45.5868253330684" lon="11.168570161016957"><ele>702.6</ele><time>2026-05-01T09:05:45Z</time></trkpt><trkpt lat="45.58689452681396" lon="11.168690816192408"><ele>701.4000000000001</ele><time>2026-05-01T09:05:46Z</time></trkpt><trkpt lat="45.58697903607731" lon="11.168791401107542"><ele>700.2</ele><time>2026-05-01T09:05:47Z</time></trkpt><trkpt lat="45.58707470188322" lon="11.1688926678999"><ele>699.0</ele><time>2026-05-01T09:05:48Z</time></trkpt><trkpt lat="45.58716379051896" lon="11.168988462865142"><ele>703.8000000000001</ele><time>2026-05-01T09:05:49Z</time></trkpt><trkpt lat="45.58724979849741" lon="11.16907537095461"><ele>708.6</ele><time>2026-05-01T09:05:50Z</time></trkpt><trkpt lat="45.58734499680423" lon="11.16913422438333"><ele>713.4</ele><time>2026-05-01T09:05:51Z</time></trkpt><trkpt lat="45.58744840157823" lon="11.169164475847477"><ele>718.2</ele><time>2026-05-01T09:05:52Z</time></trkpt><trkpt lat="45.58753224110078" lon="11.169191165850588"><ele>723.0</ele><time>2026-05-01T09:05:53Z</time></trkpt><trkpt lat="45.587574193459794" lon="11.169286960831553"><ele>723.0</ele><time>2026-05-01T09:05:54Z</time></trkpt><trkpt lat="45.5875760905979" lon="11.169402388248297"><ele>723.0</ele><time>2026-05-01T09:05:55Z</time></trkpt><trkpt lat="45.58755566288065" lon="11.169529297319684"><ele>723.0</ele><time>2026-05-01T09:05:56Z</time></trkpt><trkpt lat="45.587515377255876" lon="11.169670841443212"><ele>723.0</ele><time>2026-05-01T09:05:57Z</time></trkpt><trkpt lat="45.58745890729657" lon="11.169811270840407"><ele>723.0</ele><time>2026-05-01T09:05:58Z</time></trkpt><trkpt lat="45.58739531386112" lon="11.169969224103612"><ele>723.5</ele><time>2026-05-01T09:05:59Z</time></trkpt><trkpt lat="45.587332511906126" lon="11.170130960052127"><ele>724.0</ele><time>2026-05-01T09:06:00Z</time></trkpt><trkpt lat="45.587269944656825" lon="11.17029209155354"><ele>724.5</ele><time>2026-05-01T09:06:01Z</time></trkpt><trkpt lat="45.58723096706753" lon="11.170438962730607"><ele>725.0</ele><time>2026-05-01T09:06:02Z</time></trkpt><trkpt lat="45.58716531614376" lon="11.170553827069062"><ele>725.0</ele><time>2026-05-01T09:06:03Z</time></trkpt><trkpt lat="45.587129524153546" lon="11.170676190479785"><ele>725.0</ele><time>2026-05-01T09:06:04Z</time></trkpt><trkpt lat="45.58705972334831" lon="11.17075405885307"><ele>725.0</ele><time>2026-05-01T09:06:05Z</time></trkpt><trkpt lat="45.586962829525206" lon="11.17073065322332"><ele>725.0</ele><time>2026-05-01T09:06:06Z</time></trkpt><trkpt lat="45.58685819677712" lon="11.170723073739786"><ele>725.0</ele><time>2026-05-01T09:06:07Z</time></trkpt><trkpt lat="45.58674371161199" lon="11.170732393920622"><ele>723.0</ele><time>2026-05-01T09:06:08Z</time></trkpt><trkpt lat="45.58664389521184" lon="11.170718885005849"><ele>721.0</ele><time>2026-05-01T09:06:09Z</time></trkpt><trkpt lat="45.5865700363381" lon="11.170705696723067"><ele>719.0</ele><time>2026-05-01T09:06:10Z</time></trkpt><trkpt lat="45.58648015599576" lon="11.170769727881956"><ele>717.0</ele><time>2026-05-01T09:06:12Z</time></trkpt><trkpt lat="45.58652485319328" lon="11.170991395645503"><ele>715.0</ele><time>2026-05-01T09:06:14Z</time></trkpt><trkpt lat="45.586563132864796" lon="11.171105143924953"><ele>715.0</ele><time>2026-05-01T09:06:15Z</time></trkpt><trkpt lat="45.5865969796954" lon="11.171210353845238"><ele>715.0</ele><time>2026-05-01T09:06:16Z</time></trkpt><trkpt lat="45.58661945441568" lon="11.171302150959129"><ele>715.0</ele><time>2026-05-01T09:06:17Z</time></trkpt><trkpt lat="45.58668858882607" lon="11.171415350108441"><ele>715.0</ele><time>2026-05-01T09:06:19Z</time></trkpt><trkpt lat="45.58675543009462" lon="11.171238917412232"><ele>715.0</ele><time>2026-05-01T09:06:21Z</time></trkpt><trkpt lat="45.58665928835579" lon="11.1710491826007"><ele>715.0</ele><time>2026-05-01T09:06:23Z</time></trkpt><trkpt lat="45.58665351438341" lon="11.170955351334587"><ele>715.0</ele><time>2026-05-01T09:06:24Z</time></trkpt><trkpt lat="45.586785443254726" lon="11.170899128444837"><ele>715.0</ele><time>2026-05-01T09:06:26Z</time></trkpt><trkpt lat="45.58687645219854" lon="11.170940894252302"><ele>715.0</ele><time>2026-05-01T09:06:27Z</time></trkpt><trkpt lat="45.58696765994995" lon="11.170985400144595"><ele>715.0</ele><time>2026-05-01T09:06:28Z</time></trkpt><trkpt lat="45.58708494419755" lon="11.170993638758574"><ele>720.2</ele><time>2026-05-01T09:06:29Z</time></trkpt><trkpt lat="45.58718145197313" lon="11.17105240369029"><ele>725.4</ele><time>2026-05-01T09:06:30Z</time></trkpt><trkpt lat="45.587279349604415" lon="11.17106701351245"><ele>730.5999999999999</ele><time>2026-05-01T09:06:31Z</time></trkpt><trkpt lat="45.587359134506336" lon="11.171084384939947"><ele>735.8</ele><time>2026-05-01T09:06:32Z</time></trkpt><trkpt lat="45.58742806787567" lon="11.171060137806123"><ele>741.0</ele><time>2026-05-01T09:06:33Z</time></trkpt><trkpt lat="45.58745884242828" lon="11.170908896790143"><ele>741.0</ele><time>2026-05-01T09:06:34Z</time></trkpt><trkpt lat="45.587496569286024" lon="11.17075423650543"><ele>741.0</ele><time>2026-05-01T09:06:35Z</time></trkpt><trkpt lat="45.587534620063316" lon="11.170585430336793"><ele>741.0</ele><time>2026-05-01T09:06:36Z</time></trkpt><trkpt lat="45.58762157889233" lon="11.170456312540523"><ele>741.0</ele><time>2026-05-01T09:06:37Z</time></trkpt><trkpt lat="45.58768640521048" lon="11.170295753359106"><ele>743.8</ele><time>2026-05-01T09:06:38Z</time></trkpt><trkpt lat="45.587744503809844" lon="11.170160635571232"><ele>746.5999999999999</ele><time>2026-05-01T09:06:39Z</time></trkpt><trkpt lat="45.58778176368504" lon="11.17001651992832"><ele>749.4</ele><time>2026-05-01T09:06:40Z</time></trkpt><trkpt lat="45.58785473706091" lon="11.169908000883972"><ele>752.2</ele><time>2026-05-01T09:06:41Z</time></trkpt><trkpt lat="45.58794846489176" lon="11.169828523858014"><ele>755.0</ele><time>2026-05-01T09:06:42Z</time></trkpt><trkpt lat="45.5880231135514" lon="11.169716626438326"><ele>755.0</ele><time>2026-05-01T09:06:43Z</time></trkpt><trkpt lat="45.588063554383936" lon="11.169552851916349"><ele>755.0</ele><time>2026-05-01T09:06:44Z</time></trkpt><trkpt lat="45.58812802673762" lon="11.169417595056812"><ele>755.0</ele><time>2026-05-01T09:06:45Z</time></trkpt><trkpt lat="45.58821194096295" lon="11.169318010254552"><ele>755.0</ele><time>2026-05-01T09:06:46Z</time></trkpt><trkpt lat="45.58830774978575" lon="11.169231344308985"><ele>755.0</ele><time>2026-05-01T09:06:47Z</time></trkpt><trkpt lat="45.58842624330796" lon="11.16918006910883"><ele>755.0</ele><time>2026-05-01T09:06:48Z</time></trkpt><trkpt lat="45.5885604805945" lon="11.169135292347768"><ele>755.0</ele><time>2026-05-01T09:06:49Z</time></trkpt><trkpt lat="45.58870496785532" lon="11.169061812884417"><ele>755.0</ele><time>2026-05-01T09:06:50Z</time></trkpt><trkpt lat="45.58883204422863" lon="11.168989218864708"><ele>758.6</ele><time>2026-05-01T09:06:51Z</time></trkpt><trkpt lat="45.588939894147245" lon="11.168962791282189"><ele>762.2</ele><time>2026-05-01T09:06:52Z</time></trkpt><trkpt lat="45.589034322802206" lon="11.16895514049271"><ele>765.8</ele><time>2026-05-01T09:06:53Z</time></trkpt><trkpt lat="45.589104741522625" lon="11.168925780341795"><ele>769.4</ele><time>2026-05-01T09:06:54Z</time></trkpt><trkpt lat="45.58920576468526" lon="11.1688368814672"><ele>773.0</ele><time>2026-05-01T09:06:56Z</time></trkpt><trkpt lat="45.58915979226491" lon="11.168667496800468"><ele>773.0</ele><time>2026-05-01T09:06:57Z</time></trkpt><trkpt lat="45.5890890351754" lon="11.168557091812318"><ele>773.0</ele><time>2026-05-01T09:06:58Z</time></trkpt><trkpt lat="45.588995804319026" lon="11.168450496322858"><ele>773.0</ele><time>2026-05-01T09:06:58.999Z</time></trkpt><trkpt lat="45.588912697179936" lon="11.168336177070458"><ele>773.0</ele><time>2026-05-01T09:06:59.999Z</time></trkpt><trkpt lat="45.58882400420087" lon="11.168251652538318"><ele>773.0</ele><time>2026-05-01T09:07:00.999Z</time></trkpt><trkpt lat="45.58871351247928" lon="11.168220446756356"><ele>770.5</ele><time>2026-05-01T09:07:01.999Z</time></trkpt><trkpt lat="45.58859406311532" lon="11.168234263242812"><ele>768.0</ele><time>2026-05-01T09:07:02.999Z</time></trkpt><trkpt lat="45.58847656744315" lon="11.168256501787285"><ele>765.5</ele><time>2026-05-01T09:07:03.999Z</time></trkpt><trkpt lat="45.588346616554354" lon="11.168216220586379"><ele>763.0</ele><time>2026-05-01T09:07:04.999Z</time></trkpt><trkpt lat="45.58821542607985" lon="11.168183240836337"><ele>761.5</ele><time>2026-05-01T09:07:05.999Z</time></trkpt><trkpt lat="45.58808408282346" lon="11.168143928978115"><ele>760.0</ele><time>2026-05-01T09:07:06.999Z</time></trkpt><trkpt lat="45.58795987998232" lon="11.168106615700776"><ele>758.5</ele><time>2026-05-01T09:07:07.999Z</time></trkpt><trkpt lat="45.58785735020729" lon="11.168061833799507"><ele>757.0</ele><time>2026-05-01T09:07:09Z</time></trkpt><trkpt lat="45.58777251710971" lon="11.16800676586201"><ele>757.0</ele><time>2026-05-01T09:07:10Z</time></trkpt><trkpt lat="45.58770413678648" lon="11.167951247562774"><ele>757.0</ele><time>2026-05-01T09:07:11Z</time></trkpt><trkpt lat="45.58764462559024" lon="11.167881090190418"><ele>757.0</ele><time>2026-05-01T09:07:12Z</time></trkpt><trkpt lat="45.58763195532326" lon="11.167739126697999"><ele>757.0</ele><time>2026-05-01T09:07:13Z</time></trkpt><trkpt lat="45.58761843064901" lon="11.167585467000341"><ele>757.0</ele><time>2026-05-01T09:07:14Z</time></trkpt><trkpt lat="45.58769760374325" lon="11.167409732573256"><ele>758.0</ele><time>2026-05-01T09:07:15Z</time></trkpt><trkpt lat="45.587740070138565" lon="11.167190128701828"><ele>759.0</ele><time>2026-05-01T09:07:16Z</time></trkpt><trkpt lat="45.58779632226355" lon="11.16697215601398"><ele>760.0</ele><time>2026-05-01T09:07:17Z</time></trkpt><trkpt lat="45.587813048905396" lon="11.166759033937794"><ele>760.0</ele><time>2026-05-01T09:07:18Z</time></trkpt><trkpt lat="45.58781005798745" lon="11.166578847932769"><ele>760.0</ele><time>2026-05-01T09:07:19Z</time></trkpt><trkpt lat="45.58778529607715" lon="11.166449486273006"><ele>760.0</ele><time>2026-05-01T09:07:20Z</time></trkpt><trkpt lat="45.58776215715865" lon="11.16636531195875"><ele>760.0</ele><time>2026-05-01T09:07:21Z</time></trkpt><trkpt lat="45.587853226113765" lon="11.166353348431628"><ele>760.0</ele><time>2026-05-01T09:07:24Z</time></trkpt><trkpt lat="45.58784057862485" lon="11.166452316633883"><ele>760.0</ele><time>2026-05-01T09:07:25Z</time></trkpt><trkpt lat="45.587824240465274" lon="11.166569549610916"><ele>766.6</ele><time>2026-05-01T09:07:26Z</time></trkpt><trkpt lat="45.58785032065365" lon="11.166707456382511"><ele>773.2</ele><time>2026-05-01T09:07:27Z</time></trkpt><trkpt lat="45.58788165256842" lon="11.166852523606604"><ele>779.8</ele><time>2026-05-01T09:07:28Z</time></trkpt><trkpt lat="45.58790154570129" lon="11.166990182796214"><ele>786.4</ele><time>2026-05-01T09:07:29Z</time></trkpt><trkpt lat="45.58793905485439" lon="11.167117104241896"><ele>793.0</ele><time>2026-05-01T09:07:30Z</time></trkpt><trkpt lat="45.587981401941555" lon="11.16724634615506"><ele>793.0</ele><time>2026-05-01T09:07:31Z</time></trkpt><trkpt lat="45.5880459623803" lon="11.167355284142971"><ele>793.0</ele><time>2026-05-01T09:07:32Z</time></trkpt><trkpt lat="45.588114338978194" lon="11.167454057069502"><ele>793.0</ele><time>2026-05-01T09:07:33Z</time></trkpt><trkpt lat="45.588202901224996" lon="11.167527052075004"><ele>793.0</ele><time>2026-05-01T09:07:34Z</time></trkpt><trkpt lat="45.5883190791511" lon="11.1675584523015"><ele>793.0</ele><time>2026-05-01T09:07:35Z</time></trkpt><trkpt lat="45.58844891619385" lon="11.167578043240328"><ele>793.5</ele><time>2026-05-01T09:07:36Z</time></trkpt><trkpt lat="45.58858634577611" lon="11.16759576242036"><ele>794.0</ele><time>2026-05-01T09:07:37Z</time></trkpt><trkpt lat="45.588721811481875" lon="11.167598790457582"><ele>794.5</ele><time>2026-05-01T09:07:38Z</time></trkpt><trkpt lat="45.58885552910217" lon="11.167606097667505"><ele>795.0</ele><time>2026-05-01T09:07:39Z</time></trkpt><trkpt lat="45.58898186010243" lon="11.167662442560937"><ele>795.0</ele><time>2026-05-01T09:07:40Z</time></trkpt><trkpt lat="45.589110259406695" lon="11.167703199011543"><ele>795.0</ele><time>2026-05-01T09:07:41Z</time></trkpt><trkpt lat="45.58923142720363" lon="11.16777312751489"><ele>795.0</ele><time>2026-05-01T09:07:42Z</time></trkpt><trkpt lat="45.58935694684028" lon="11.167842852779772"><ele>795.0</ele><time>2026-05-01T09:07:43Z</time></trkpt><trkpt lat="45.589481198664394" lon="11.167904123581437"><ele>795.5</ele><time>2026-05-01T09:07:44Z</time></trkpt><trkpt lat="45.58961107673542" lon="11.167959221723237"><ele>796.0</ele><time>2026-05-01T09:07:45Z</time></trkpt><trkpt lat="45.58974303681587" lon="11.168011773392651"><ele>796.5</ele><time>2026-05-01T09:07:46Z</time></trkpt><trkpt lat="45.58987948866747" lon="11.168068254097147"><ele>797.0</ele><time>2026-05-01T09:07:47Z</time></trkpt><trkpt lat="45.59001562327532" lon="11.168136190803002"><ele>797.0</ele><time>2026-05-01T09:07:48Z</time></trkpt><trkpt lat="45.59013946186293" lon="11.168247174643552"><ele>797.0</ele><time>2026-05-01T09:07:49Z</time></trkpt><trkpt lat="45.5902593005761" lon="11.168355571401477"><ele>797.0</ele><time>2026-05-01T09:07:50Z</time></trkpt><trkpt lat="45.59034742456962" lon="11.168474243227312"><ele>797.0</ele><time>2026-05-01T09:07:51Z</time></trkpt><trkpt lat="45.590405296729024" lon="11.168657470953358"><ele>797.0</ele><time>2026-05-01T09:07:52Z</time></trkpt><trkpt lat="45.59049105971933" lon="11.16879569148633"><ele>797.0</ele><time>2026-05-01T09:07:53Z</time></trkpt><trkpt lat="45.59059506451018" lon="11.16892999490102"><ele>797.0</ele><time>2026-05-01T09:07:54Z</time></trkpt><trkpt lat="45.59067197336304" lon="11.169098231466373"><ele>797.0</ele><time>2026-05-01T09:07:55Z</time></trkpt><trkpt lat="45.590759378376966" lon="11.169276980606591"><ele>799.0</ele><time>2026-05-01T09:07:56Z</time></trkpt><trkpt lat="45.59086673191733" lon="11.169440395264981"><ele>801.0</ele><time>2026-05-01T09:07:57Z</time></trkpt><trkpt lat="45.590973441546566" lon="11.16961997938558"><ele>803.0</ele><time>2026-05-01T09:07:58Z</time></trkpt><trkpt lat="45.5910861537026" lon="11.169773775277372"><ele>807.5</ele><time>2026-05-01T09:07:59Z</time></trkpt><trkpt lat="45.59120146416497" lon="11.169885706128085"><ele>812.0</ele><time>2026-05-01T09:08:00Z</time></trkpt><trkpt lat="45.59133617202732" lon="11.169959995950851"><ele>816.5</ele><time>2026-05-01T09:08:01Z</time></trkpt><trkpt lat="45.591471060083705" lon="11.169984134002338"><ele>821.0</ele><time>2026-05-01T09:08:02Z</time></trkpt><trkpt lat="45.59157931664177" lon="11.170075866413368"><ele>821.0</ele><time>2026-05-01T09:08:03Z</time></trkpt><trkpt lat="45.59167444820272" lon="11.170171946717385"><ele>821.0</ele><time>2026-05-01T09:08:04Z</time></trkpt><trkpt lat="45.59177018967759" lon="11.170304321129"><ele>821.0</ele><time>2026-05-01T09:08:05Z</time></trkpt><trkpt lat="45.591870368954936" lon="11.170453083249907"><ele>821.0</ele><time>2026-05-01T09:08:06Z</time></trkpt><trkpt lat="45.59197229110424" lon="11.170609377113363"><ele>824.5999999999999</ele><time>2026-05-01T09:08:07Z</time></trkpt><trkpt lat="45.59206586332571" lon="11.170719353385273"><ele>828.2</ele><time>2026-05-01T09:08:08Z</time></trkpt><trkpt lat="45.59215167730117" lon="11.170803307943778"><ele>831.8</ele><time>2026-05-01T09:08:09Z</time></trkpt><trkpt lat="45.592220721674394" lon="11.1708613937923"><ele>835.4000000000001</ele><time>2026-05-01T09:08:10Z</time></trkpt><trkpt lat="45.59226969740048" lon="11.170963854805887"><ele>839.0</ele><time>2026-05-01T09:08:12Z</time></trkpt><trkpt lat="45.59221259805488" lon="11.171003714767394"><ele>839.0</ele><time>2026-05-01T09:08:13Z</time></trkpt><trkpt lat="45.59214800579205" lon="11.170989675471269"><ele>839.0</ele><time>2026-05-01T09:08:14Z</time></trkpt><trkpt lat="45.59206617374121" lon="11.17093312310135"><ele>839.0</ele><time>2026-05-01T09:08:15Z</time></trkpt><trkpt lat="45.591951582834696" lon="11.170908901527579"><ele>839.0</ele><time>2026-05-01T09:08:16Z</time></trkpt><trkpt lat="45.591855780716145" lon="11.17087219292184"><ele>839.0</ele><time>2026-05-01T09:08:17Z</time></trkpt><trkpt lat="45.59177475487474" lon="11.170875723230706"><ele>837.2</ele><time>2026-05-01T09:08:18Z</time></trkpt><trkpt lat="45.59171326749754" lon="11.170915314370461"><ele>835.4000000000001</ele><time>2026-05-01T09:08:19Z</time></trkpt><trkpt lat="45.591655695013344" lon="11.171106019231607"><ele>833.6</ele><time>2026-05-01T09:08:21Z</time></trkpt><trkpt lat="45.59170867813657" lon="11.17125626259624"><ele>831.8</ele><time>2026-05-01T09:08:22Z</time></trkpt><trkpt lat="45.591773013616546" lon="11.171389821951607"><ele>830.0</ele><time>2026-05-01T09:08:23Z</time></trkpt><trkpt lat="45.59186412965031" lon="11.17152200188778"><ele>829.8</ele><time>2026-05-01T09:08:24Z</time></trkpt><trkpt lat="45.591951924865434" lon="11.171654783091967"><ele>829.6</ele><time>2026-05-01T09:08:25Z</time></trkpt><trkpt lat="45.59202905961375" lon="11.171764741915725"><ele>829.4000000000001</ele><time>2026-05-01T09:08:26Z</time></trkpt><trkpt lat="45.592125049569844" lon="11.171830773135879"><ele>829.2</ele><time>2026-05-01T09:08:27Z</time></trkpt><trkpt lat="45.592222061091924" lon="11.171868765495425"><ele>829.0</ele><time>2026-05-01T09:08:28Z</time></trkpt><trkpt lat="45.592294811984715" lon="11.171911755319769"><ele>832.6</ele><time>2026-05-01T09:08:29Z</time></trkpt><trkpt lat="45.59238614565816" lon="11.17188364556259"><ele>836.2</ele><time>2026-05-01T09:08:31Z</time></trkpt><trkpt lat="45.59233203962787" lon="11.171726911458292"><ele>839.8000000000001</ele><time>2026-05-01T09:08:33Z</time></trkpt><trkpt lat="45.59224951096824" lon="11.17169830446869"><ele>843.4000000000001</ele><time>2026-05-01T09:08:34Z</time></trkpt><trkpt lat="45.592180807759156" lon="11.17169309881754"><ele>847.0</ele><time>2026-05-01T09:08:34.999Z</time></trkpt><trkpt lat="45.59209646172095" lon="11.171618405084276"><ele>847.0</ele><time>2026-05-01T09:08:36.999Z</time></trkpt><trkpt lat="45.59223416273463" lon="11.171598237637335"><ele>847.0</ele><time>2026-05-01T09:08:39.999Z</time></trkpt><trkpt lat="45.592309989460105" lon="11.17164718487054"><ele>847.0</ele><time>2026-05-01T09:08:40.999Z</time></trkpt><trkpt lat="45.592397908806" lon="11.17167501110979"><ele>847.0</ele><time>2026-05-01T09:08:41.999Z</time></trkpt><trkpt lat="45.59248446818421" lon="11.171728578840568"><ele>847.0</ele><time>2026-05-01T09:08:42.999Z</time></trkpt><trkpt lat="45.592574077218764" lon="11.171779956172438"><ele>846.9999999999999</ele><time>2026-05-01T09:08:43.999Z</time></trkpt><trkpt lat="45.59265690874499" lon="11.171844962255166"><ele>847.0</ele><time>2026-05-01T09:08:44.999Z</time></trkpt><trkpt lat="45.59270029224132" lon="11.17196482461313"><ele>847.0</ele><time>2026-05-01T09:08:45.999Z</time></trkpt><trkpt lat="45.592715865120844" lon="11.172069850142973"><ele>847.0</ele><time>2026-05-01T09:08:46.999Z</time></trkpt><trkpt lat="45.59272319363517" lon="11.172183601371886"><ele>846.9999999999999</ele><time>2026-05-01T09:08:47.999Z</time></trkpt><trkpt lat="45.59271742639692" lon="11.172295215213987"><ele>847.0</ele><time>2026-05-01T09:08:48.999Z</time></trkpt><trkpt lat="45.59268593795163" lon="11.172392063123523"><ele>848.6666666666666</ele><time>2026-05-01T09:08:49.999Z</time></trkpt><trkpt lat="45.59263067886788" lon="11.172470457756962"><ele>850.3333333333333</ele><time>2026-05-01T09:08:50.999Z</time></trkpt><trkpt lat="45.59257032030815" lon="11.172548062158677"><ele>852.0</ele><time>2026-05-01T09:08:51.999Z</time></trkpt><trkpt lat="45.59250296477465" lon="11.172623414692806"><ele>853.6666666666667</ele><time>2026-05-01T09:08:52.999Z</time></trkpt><trkpt lat="45.592431431822455" lon="11.172685919710082"><ele>855.3333333333334</ele><time>2026-05-01T09:08:53.999Z</time></trkpt><trkpt lat="45.592357727199655" lon="11.172737653689735"><ele>857.0</ele><time>2026-05-01T09:08:54.999Z</time></trkpt><trkpt lat="45.59224550838852" lon="11.172796074405053"><ele>857.0</ele><time>2026-05-01T09:08:56.999Z</time></trkpt><trkpt lat="45.592142650552894" lon="11.172902177721141"><ele>857.0</ele><time>2026-05-01T09:08:58.999Z</time></trkpt><trkpt lat="45.592137804404814" lon="11.173027767517885"><ele>857.0</ele><time>2026-05-01T09:08:59.999Z</time></trkpt><trkpt lat="45.59219587792716" lon="11.173169567070605"><ele>857.0</ele><time>2026-05-01T09:09:00.999Z</time></trkpt><trkpt lat="45.59220264608423" lon="11.173302470670858"><ele>857.0</ele><time>2026-05-01T09:09:01.999Z</time></trkpt><trkpt lat="45.59221718007099" lon="11.173415452406081"><ele>858.1666666666667</ele><time>2026-05-01T09:09:02.999Z</time></trkpt><trkpt lat="45.59222031463461" lon="11.173518075484626"><ele>859.3333333333334</ele><time>2026-05-01T09:09:03.999Z</time></trkpt><trkpt lat="45.59220635766429" lon="11.17361233451236"><ele>860.5</ele><time>2026-05-01T09:09:04.999Z</time></trkpt><trkpt lat="45.59215239799307" lon="11.17366788106576"><ele>861.6666666666667</ele><time>2026-05-01T09:09:05.999Z</time></trkpt><trkpt lat="45.592091557968445" lon="11.1737173415505"><ele>862.8333333333334</ele><time>2026-05-01T09:09:07Z</time></trkpt><trkpt lat="45.592018239696365" lon="11.173657530646066"><ele>864.0</ele><time>2026-05-01T09:09:08Z</time></trkpt><trkpt lat="45.59192674180198" lon="11.173610393939555"><ele>864.0</ele><time>2026-05-01T09:09:10Z</time></trkpt><trkpt lat="45.591878380392295" lon="11.173669684303016"><ele>864.0</ele><time>2026-05-01T09:09:12Z</time></trkpt><trkpt lat="45.59189920690342" lon="11.17381368732094"><ele>864.0</ele><time>2026-05-01T09:09:14Z</time></trkpt><trkpt lat="45.591990133457685" lon="11.173816171058764"><ele>864.0</ele><time>2026-05-01T09:09:15Z</time></trkpt><trkpt lat="45.59206204325184" lon="11.173834588332179"><ele>864.0</ele><time>2026-05-01T09:09:16Z</time></trkpt><trkpt lat="45.59217253773867" lon="11.17388614457029"><ele>864.0</ele><time>2026-05-01T09:09:18Z</time></trkpt><trkpt lat="45.592277450086605" lon="11.173927080962972"><ele>865.0</ele><time>2026-05-01T09:09:20Z</time></trkpt><trkpt lat="45.59237425837108" lon="11.173963598884159"><ele>866.0</ele><time>2026-05-01T09:09:22Z</time></trkpt><trkpt lat="45.59243706830139" lon="11.17402607567435"><ele>867.0</ele><time>2026-05-01T09:09:24Z</time></trkpt><trkpt lat="45.592397851249004" lon="11.174124637561937"><ele>868.0</ele><time>2026-05-01T09:09:26Z</time></trkpt><trkpt lat="45.59231117184992" lon="11.174183358160228"><ele>869.0</ele><time>2026-05-01T09:09:28Z</time></trkpt><trkpt lat="45.592246730964185" lon="11.174153950214402"><ele>870.0</ele><time>2026-05-01T09:09:29Z</time></trkpt><trkpt lat="45.59218957191786" lon="11.174097993748815"><ele>870.0</ele><time>2026-05-01T09:09:30Z</time></trkpt><trkpt lat="45.59207428232896" lon="11.174017250048626"><ele>870.0</ele><time>2026-05-01T09:09:32Z</time></trkpt><trkpt lat="45.59200748105219" lon="11.17398430523398"><ele>870.0</ele><time>2026-05-01T09:09:33Z</time></trkpt><trkpt lat="45.59193694213265" lon="11.173947231480673"><ele>870.0</ele><time>2026-05-01T09:09:34Z</time></trkpt><trkpt lat="45.59186045253337" lon="11.173912615111774"><ele>870.0</ele><time>2026-05-01T09:09:35Z</time></trkpt><trkpt lat="45.59177833703008" lon="11.173882767388427"><ele>870.0</ele><time>2026-05-01T09:09:36Z</time></trkpt><trkpt lat="45.591696983226306" lon="11.173854730826758"><ele>868.8</ele><time>2026-05-01T09:09:37Z</time></trkpt><trkpt lat="45.59162340213299" lon="11.173827224532129"><ele>867.6</ele><time>2026-05-01T09:09:38Z</time></trkpt><trkpt lat="45.59154298723265" lon="11.17381308979137"><ele>866.4000000000001</ele><time>2026-05-01T09:09:39Z</time></trkpt><trkpt lat="45.591474635227584" lon="11.173812569173844"><ele>865.2</ele><time>2026-05-01T09:09:40Z</time></trkpt><trkpt lat="45.59135869560641" lon="11.173794876565124"><ele>864.0</ele><time>2026-05-01T09:09:42Z</time></trkpt><trkpt lat="45.59125270748103" lon="11.173836364355251"><ele>864.0</ele><time>2026-05-01T09:09:44Z</time></trkpt><trkpt lat="45.59118485361843" lon="11.173914410188583"><ele>864.0</ele><time>2026-05-01T09:09:46Z</time></trkpt><trkpt lat="45.59117085770973" lon="11.174025542827048"><ele>864.0</ele><time>2026-05-01T09:09:47Z</time></trkpt><trkpt lat="45.59120258920246" lon="11.174150444023947"><ele>864.0</ele><time>2026-05-01T09:09:48Z</time></trkpt><trkpt lat="45.59122791433871" lon="11.174267316723983"><ele>864.0</ele><time>2026-05-01T09:09:49Z</time></trkpt><trkpt lat="45.591248440006304" lon="11.17440527271234"><ele>864.0</ele><time>2026-05-01T09:09:50Z</time></trkpt><trkpt lat="45.59127799984149" lon="11.174528800730728"><ele>866.6</ele><time>2026-05-01T09:09:51Z</time></trkpt><trkpt lat="45.5912992453702" lon="11.174643584244615"><ele>869.2</ele><time>2026-05-01T09:09:52Z</time></trkpt><trkpt lat="45.59130641092574" lon="11.174770684166491"><ele>871.8000000000001</ele><time>2026-05-01T09:09:53Z</time></trkpt><trkpt lat="45.591314708302406" lon="11.174907203650221"><ele>874.4000000000001</ele><time>2026-05-01T09:09:54Z</time></trkpt><trkpt lat="45.59133613168477" lon="11.175042044242735"><ele>877.0</ele><time>2026-05-01T09:09:55Z</time></trkpt><trkpt lat="45.591345081441254" lon="11.175166430015604"><ele>877.8</ele><time>2026-05-01T09:09:56Z</time></trkpt><trkpt lat="45.591375113689615" lon="11.175278271590232"><ele>878.6</ele><time>2026-05-01T09:09:57Z</time></trkpt><trkpt lat="45.59142965368821" lon="11.17538525102761"><ele>879.3999999999999</ele><time>2026-05-01T09:09:58Z</time></trkpt><trkpt lat="45.59150223027904" lon="11.175494018691456"><ele>880.1999999999999</ele><time>2026-05-01T09:09:59Z</time></trkpt><trkpt lat="45.59158324120512" lon="11.175596509845136"><ele>881.0</ele><time>2026-05-01T09:10:00Z</time></trkpt><trkpt lat="45.59167199499032" lon="11.175694039682284"><ele>881.8</ele><time>2026-05-01T09:10:01Z</time></trkpt><trkpt lat="45.59176770793267" lon="11.175789081737944"><ele>882.5999999999999</ele><time>2026-05-01T09:10:02Z</time></trkpt><trkpt lat="45.591860861969465" lon="11.175874946375853"><ele>883.4</ele><time>2026-05-01T09:10:03Z</time></trkpt><trkpt lat="45.59194534501421" lon="11.17596229582846"><ele>884.2</ele><time>2026-05-01T09:10:04Z</time></trkpt><trkpt lat="45.592015733460855" lon="11.176047430463152"><ele>885.0</ele><time>2026-05-01T09:10:05Z</time></trkpt><trkpt lat="45.592063130599925" lon="11.176147572408938"><ele>885.0</ele><time>2026-05-01T09:10:06Z</time></trkpt><trkpt lat="45.59209080921883" lon="11.176253522224807"><ele>885.0</ele><time>2026-05-01T09:10:07Z</time></trkpt><trkpt lat="45.592053634194926" lon="11.176356675490348"><ele>885.0</ele><time>2026-05-01T09:10:08Z</time></trkpt><trkpt lat="45.59203226930079" lon="11.176499261276058"><ele>885.0</ele><time>2026-05-01T09:10:09Z</time></trkpt><trkpt lat="45.59200756426623" lon="11.176642116582546"><ele>885.0</ele><time>2026-05-01T09:10:10Z</time></trkpt><trkpt lat="45.59197715857269" lon="11.17679787924642"><ele>878.75</ele><time>2026-05-01T09:10:11Z</time></trkpt><trkpt lat="45.591922994424905" lon="11.176944880699638"><ele>872.5</ele><time>2026-05-01T09:10:12Z</time></trkpt><trkpt lat="45.591860031865" lon="11.177083158236787"><ele>866.25</ele><time>2026-05-01T09:10:13Z</time></trkpt><trkpt lat="45.59179232238971" lon="11.177206702616092"><ele>860.0</ele><time>2026-05-01T09:10:14Z</time></trkpt><trkpt lat="45.591708887030386" lon="11.177322448989857"><ele>859.0</ele><time>2026-05-01T09:10:15Z</time></trkpt><trkpt lat="45.591590913429464" lon="11.17745353709821"><ele>858.0</ele><time>2026-05-01T09:10:16Z</time></trkpt><trkpt lat="45.59146184167719" lon="11.17757853028902"><ele>857.0</ele><time>2026-05-01T09:10:17Z</time></trkpt><trkpt lat="45.59131897493155" lon="11.177701362809762"><ele>855.0</ele><time>2026-05-01T09:10:18Z</time></trkpt><trkpt lat="45.59116253330147" lon="11.177833910196675"><ele>853.0</ele><time>2026-05-01T09:10:19Z</time></trkpt><trkpt lat="45.59100531759718" lon="11.177977723572512"><ele>851.0</ele><time>2026-05-01T09:10:20Z</time></trkpt><trkpt lat="45.5908554174412" lon="11.178143084574796"><ele>854.3333333333334</ele><time>2026-05-01T09:10:21Z</time></trkpt><trkpt lat="45.59070941905455" lon="11.178341734525517"><ele>857.6666666666667</ele><time>2026-05-01T09:10:22Z</time></trkpt><trkpt lat="45.59057813397237" lon="11.178544638530616"><ele>861.0</ele><time>2026-05-01T09:10:23Z</time></trkpt><trkpt lat="45.59046598268685" lon="11.178732796796945"><ele>861.0</ele><time>2026-05-01T09:10:24Z</time></trkpt><trkpt lat="45.59036437158265" lon="11.178910185677728"><ele>861.0</ele><time>2026-05-01T09:10:25Z</time></trkpt><trkpt lat="45.59026318030065" lon="11.179059658946702"><ele>861.0</ele><time>2026-05-01T09:10:26Z</time></trkpt><trkpt lat="45.590154253876655" lon="11.17919462295361"><ele>864.0</ele><time>2026-05-01T09:10:27Z</time></trkpt><trkpt lat="45.59001358503513" lon="11.179303630507446"><ele>867.0</ele><time>2026-05-01T09:10:28Z</time></trkpt><trkpt lat="45.589864883600136" lon="11.179386505516014"><ele>870.0</ele><time>2026-05-01T09:10:29Z</time></trkpt><trkpt lat="45.58972427889553" lon="11.179415640964462"><ele>870.0</ele><time>2026-05-01T09:10:30Z</time></trkpt><trkpt lat="45.58959811758852" lon="11.17943349461982"><ele>870.0</ele><time>2026-05-01T09:10:31Z</time></trkpt><trkpt lat="45.58951063429048" lon="11.179496400440497"><ele>870.0</ele><time>2026-05-01T09:10:32Z</time></trkpt><trkpt lat="45.589441725873364" lon="11.179578362464536"><ele>870.0</ele><time>2026-05-01T09:10:33Z</time></trkpt><trkpt lat="45.58938059333421" lon="11.179676969847058"><ele>870.0</ele><time>2026-05-01T09:10:34Z</time></trkpt><trkpt lat="45.589328291174304" lon="11.179818919450417"><ele>869.75</ele><time>2026-05-01T09:10:35Z</time></trkpt><trkpt lat="45.58927792959502" lon="11.179982511324772"><ele>869.5</ele><time>2026-05-01T09:10:36Z</time></trkpt><trkpt lat="45.58923122135615" lon="11.180161842763548"><ele>869.25</ele><time>2026-05-01T09:10:37Z</time></trkpt><trkpt lat="45.58920309815031" lon="11.18035472694552"><ele>869.0</ele><time>2026-05-01T09:10:38Z</time></trkpt><trkpt lat="45.58919476001504" lon="11.180537997670436"><ele>870.75</ele><time>2026-05-01T09:10:39Z</time></trkpt><trkpt lat="45.58924626423237" lon="11.180730875265493"><ele>872.5</ele><time>2026-05-01T09:10:40Z</time></trkpt><trkpt lat="45.589275049232654" lon="11.180903219144348"><ele>874.25</ele><time>2026-05-01T09:10:41Z</time></trkpt><trkpt lat="45.58928358004988" lon="11.181052547234177"><ele>876.0</ele><time>2026-05-01T09:10:42Z</time></trkpt><trkpt lat="45.58926154849717" lon="11.181176347398209"><ele>876.0</ele><time>2026-05-01T09:10:43Z</time></trkpt><trkpt lat="45.58921028851956" lon="11.181306076795735"><ele>876.0</ele><time>2026-05-01T09:10:44Z</time></trkpt><trkpt lat="45.589153244082425" lon="11.18146674394676"><ele>876.0</ele><time>2026-05-01T09:10:45Z</time></trkpt><trkpt lat="45.58910110148612" lon="11.181652669985027"><ele>876.0</ele><time>2026-05-01T09:10:46Z</time></trkpt><trkpt lat="45.58906927903627" lon="11.181862881863742"><ele>875.3333333333333</ele><time>2026-05-01T09:10:47Z</time></trkpt><trkpt lat="45.589047937289614" lon="11.182080005929812"><ele>874.6666666666666</ele><time>2026-05-01T09:10:48Z</time></trkpt><trkpt lat="45.589028254837714" lon="11.182295537678318"><ele>874.0</ele><time>2026-05-01T09:10:49Z</time></trkpt><trkpt lat="45.58900552398447" lon="11.182510527218067"><ele>873.25</ele><time>2026-05-01T09:10:50Z</time></trkpt><trkpt lat="45.58898457407399" lon="11.182709640233721"><ele>872.5</ele><time>2026-05-01T09:10:51Z</time></trkpt><trkpt lat="45.5889670203001" lon="11.182902546781905"><ele>871.75</ele><time>2026-05-01T09:10:52Z</time></trkpt><trkpt lat="45.58898098258766" lon="11.183093379578361"><ele>871.0</ele><time>2026-05-01T09:10:53Z</time></trkpt><trkpt lat="45.58898903847897" lon="11.183272663997133"><ele>871.0</ele><time>2026-05-01T09:10:54Z</time></trkpt><trkpt lat="45.58898824269574" lon="11.183440453920143"><ele>871.0</ele><time>2026-05-01T09:10:55Z</time></trkpt><trkpt lat="45.58905312693096" lon="11.183571959176197"><ele>871.0</ele><time>2026-05-01T09:10:56Z</time></trkpt><trkpt lat="45.589128655531866" lon="11.18369992220693"><ele>871.0</ele><time>2026-05-01T09:10:57Z</time></trkpt><trkpt lat="45.589238545712085" lon="11.183807424832342"><ele>871.0</ele><time>2026-05-01T09:10:58Z</time></trkpt><trkpt lat="45.589339170504374" lon="11.183936055840052"><ele>871.0</ele><time>2026-05-01T09:10:59Z</time></trkpt><trkpt lat="45.58943817582999" lon="11.18408703034584"><ele>871.0</ele><time>2026-05-01T09:11:00Z</time></trkpt><trkpt lat="45.58953742171817" lon="11.184237358062479"><ele>871.0</ele><time>2026-05-01T09:11:01Z</time></trkpt><trkpt lat="45.58964889980343" lon="11.184375015842354"><ele>874.0</ele><time>2026-05-01T09:11:02Z</time></trkpt><trkpt lat="45.589744316055956" lon="11.184533784484673"><ele>877.0</ele><time>2026-05-01T09:11:03Z</time></trkpt><trkpt lat="45.58984631623691" lon="11.184685914296146"><ele>880.0</ele><time>2026-05-01T09:11:04Z</time></trkpt><trkpt lat="45.58993336556251" lon="11.184848317787502"><ele>883.0</ele><time>2026-05-01T09:11:05Z</time></trkpt><trkpt lat="45.59002363564409" lon="11.18501302565919"><ele>884.3333333333333</ele><time>2026-05-01T09:11:06Z</time></trkpt><trkpt lat="45.590108114465664" lon="11.185180435722478"><ele>885.6666666666667</ele><time>2026-05-01T09:11:07Z</time></trkpt><trkpt lat="45.59020475662009" lon="11.185338822260015"><ele>887.0</ele><time>2026-05-01T09:11:08Z</time></trkpt><trkpt lat="45.590320559957924" lon="11.18549353656501"><ele>893.3333333333334</ele><time>2026-05-01T09:11:09Z</time></trkpt><trkpt lat="45.59044546648215" lon="11.185655201837022"><ele>899.6666666666667</ele><time>2026-05-01T09:11:10Z</time></trkpt><trkpt lat="45.59057409455095" lon="11.185816092660163"><ele>906.0</ele><time>2026-05-01T09:11:11Z</time></trkpt><trkpt lat="45.590703747994134" lon="11.185978221401184"><ele>906.0</ele><time>2026-05-01T09:11:12Z</time></trkpt><trkpt lat="45.590836207693776" lon="11.186142996344739"><ele>906.0</ele><time>2026-05-01T09:11:13Z</time></trkpt><trkpt lat="45.59095724146277" lon="11.186308914292232"><ele>906.0</ele><time>2026-05-01T09:11:14Z</time></trkpt><trkpt lat="45.59106777911349" lon="11.186484849901861"><ele>904.3333333333333</ele><time>2026-05-01T09:11:15Z</time></trkpt><trkpt lat="45.5911753468097" lon="11.186653045372731"><ele>902.6666666666666</ele><time>2026-05-01T09:11:16Z</time></trkpt><trkpt lat="45.59128295438411" lon="11.186817689633699"><ele>901.0</ele><time>2026-05-01T09:11:17Z</time></trkpt><trkpt lat="45.591398694758645" lon="11.186980712057174"><ele>901.0</ele><time>2026-05-01T09:11:18Z</time></trkpt><trkpt lat="45.59150385786643" lon="11.18715970143563"><ele>901.0</ele><time>2026-05-01T09:11:19Z</time></trkpt><trkpt lat="45.59161967551801" lon="11.187324526642307"><ele>901.0</ele><time>2026-05-01T09:11:20Z</time></trkpt><trkpt lat="45.5917425332375" lon="11.187474465930228"><ele>899.3333333333333</ele><time>2026-05-01T09:11:21Z</time></trkpt><trkpt lat="45.59184685307261" lon="11.187639575691858"><ele>897.6666666666667</ele><time>2026-05-01T09:11:22Z</time></trkpt><trkpt lat="45.59193671644201" lon="11.187820831803354"><ele>896.0</ele><time>2026-05-01T09:11:23Z</time></trkpt><trkpt lat="45.592037445486774" lon="11.187987556173354"><ele>895.3333333333334</ele><time>2026-05-01T09:11:24Z</time></trkpt><trkpt lat="45.59213293376217" lon="11.188151483702708"><ele>894.6666666666667</ele><time>2026-05-01T09:11:25Z</time></trkpt><trkpt lat="45.592215099081365" lon="11.188342275901594"><ele>894.0</ele><time>2026-05-01T09:11:26Z</time></trkpt><trkpt lat="45.59227844588253" lon="11.188549887982393"><ele>894.0</ele><time>2026-05-01T09:11:27Z</time></trkpt><trkpt lat="45.59234444122791" lon="11.188788128927747"><ele>894.0</ele><time>2026-05-01T09:11:28Z</time></trkpt><trkpt lat="45.59246148457481" lon="11.189000565893835"><ele>894.0</ele><time>2026-05-01T09:11:29Z</time></trkpt><trkpt lat="45.592576224791465" lon="11.18920743569556"><ele>895.3333333333333</ele><time>2026-05-01T09:11:30Z</time></trkpt><trkpt lat="45.592656035124854" lon="11.189412008623467"><ele>896.6666666666666</ele><time>2026-05-01T09:11:31Z</time></trkpt><trkpt lat="45.592738726970495" lon="11.18960435956549"><ele>898.0</ele><time>2026-05-01T09:11:32Z</time></trkpt><trkpt lat="45.592818726133196" lon="11.189808524136676"><ele>896.0</ele><time>2026-05-01T09:11:33Z</time></trkpt><trkpt lat="45.59288175069822" lon="11.189989403791827"><ele>894.0</ele><time>2026-05-01T09:11:34Z</time></trkpt><trkpt lat="45.59292108383856" lon="11.190166110367583"><ele>892.0</ele><time>2026-05-01T09:11:35Z</time></trkpt><trkpt lat="45.592942480335566" lon="11.190345316683857"><ele>890.0</ele><time>2026-05-01T09:11:36Z</time></trkpt><trkpt lat="45.59294867919193" lon="11.1905457414574"><ele>890.3333333333334</ele><time>2026-05-01T09:11:37Z</time></trkpt><trkpt lat="45.59294220312914" lon="11.190760073668784"><ele>890.6666666666667</ele><time>2026-05-01T09:11:38Z</time></trkpt><trkpt lat="45.59292691510374" lon="11.19097600491514"><ele>891.0</ele><time>2026-05-01T09:11:39Z</time></trkpt><trkpt lat="45.59289406331872" lon="11.191193365267093"><ele>891.0</ele><time>2026-05-01T09:11:40Z</time></trkpt><trkpt lat="45.592852659019776" lon="11.191422090714532"><ele>891.0</ele><time>2026-05-01T09:11:41Z</time></trkpt><trkpt lat="45.59279702483056" lon="11.191654994098538"><ele>891.0</ele><time>2026-05-01T09:11:42Z</time></trkpt><trkpt lat="45.592739482615926" lon="11.191863568185152"><ele>890.75</ele><time>2026-05-01T09:11:43Z</time></trkpt><trkpt lat="45.59268456689853" lon="11.19204334814428"><ele>890.5</ele><time>2026-05-01T09:11:44Z</time></trkpt><trkpt lat="45.59266116275588" lon="11.192222131127574"><ele>890.25</ele><time>2026-05-01T09:11:45Z</time></trkpt><trkpt lat="45.59266932709913" lon="11.192402505013085"><ele>890.0</ele><time>2026-05-01T09:11:46Z</time></trkpt><trkpt lat="45.59271866248739" lon="11.192601835608363"><ele>890.0</ele><time>2026-05-01T09:11:47Z</time></trkpt><trkpt lat="45.59280799790454" lon="11.192834973452882"><ele>890.0</ele><time>2026-05-01T09:11:48Z</time></trkpt><trkpt lat="45.59288361186208" lon="11.193098156429938"><ele>890.0</ele><time>2026-05-01T09:11:49Z</time></trkpt><trkpt lat="45.59297013040397" lon="11.193355226342897"><ele>890.0</ele><time>2026-05-01T09:11:50Z</time></trkpt><trkpt lat="45.59304968448122" lon="11.193597864742989"><ele>890.0</ele><time>2026-05-01T09:11:51Z</time></trkpt><trkpt lat="45.59311482388571" lon="11.193836256486318"><ele>890.0</ele><time>2026-05-01T09:11:52Z</time></trkpt><trkpt lat="45.59316772918804" lon="11.194088445226761"><ele>890.6666666666667</ele><time>2026-05-01T09:11:53Z</time></trkpt><trkpt lat="45.59321912207263" lon="11.194356182846747"><ele>891.3333333333333</ele><time>2026-05-01T09:11:54Z</time></trkpt><trkpt lat="45.59327578365873" lon="11.19464460199584"><ele>892.0</ele><time>2026-05-01T09:11:55Z</time></trkpt><trkpt lat="45.59335993127938" lon="11.194933871373896"><ele>893.6666666666666</ele><time>2026-05-01T09:11:56Z</time></trkpt><trkpt lat="45.593443253279005" lon="11.19519957448056"><ele>895.3333333333333</ele><time>2026-05-01T09:11:57Z</time></trkpt><trkpt lat="45.59351570201752" lon="11.195448853051571"><ele>897.0</ele><time>2026-05-01T09:11:58Z</time></trkpt><trkpt lat="45.59357192654225" lon="11.195687675682843"><ele>899.6666666666667</ele><time>2026-05-01T09:11:59Z</time></trkpt><trkpt lat="45.593627008789746" lon="11.195929944624796"><ele>902.3333333333334</ele><time>2026-05-01T09:12:00Z</time></trkpt><trkpt lat="45.59368466887896" lon="11.196175987340666"><ele>905.0</ele><time>2026-05-01T09:12:01Z</time></trkpt><trkpt lat="45.5937383831949" lon="11.196405192945212"><ele>899.6666666666667</ele><time>2026-05-01T09:12:02Z</time></trkpt><trkpt lat="45.593788220006935" lon="11.196625566739604"><ele>894.3333333333333</ele><time>2026-05-01T09:12:03Z</time></trkpt><trkpt lat="45.59384120788778" lon="11.196835388032726"><ele>889.0</ele><time>2026-05-01T09:12:04Z</time></trkpt><trkpt lat="45.59391427494261" lon="11.19701392424518"><ele>889.0</ele><time>2026-05-01T09:12:05Z</time></trkpt><trkpt lat="45.59399491935846" lon="11.197164618491124"><ele>889.0</ele><time>2026-05-01T09:12:06Z</time></trkpt><trkpt lat="45.594098309960906" lon="11.197284527291394"><ele>889.0</ele><time>2026-05-01T09:12:07Z</time></trkpt><trkpt lat="45.59420780311347" lon="11.197354300554483"><ele>889.0</ele><time>2026-05-01T09:12:08Z</time></trkpt><trkpt lat="45.594292669020405" lon="11.197417006447672"><ele>890.2</ele><time>2026-05-01T09:12:09Z</time></trkpt><trkpt lat="45.59436092959304" lon="11.197522439970117"><ele>891.4000000000001</ele><time>2026-05-01T09:12:10Z</time></trkpt><trkpt lat="45.594429726478715" lon="11.197630952954247"><ele>892.6</ele><time>2026-05-01T09:12:11Z</time></trkpt><trkpt lat="45.594505853084925" lon="11.197761377365191"><ele>893.8</ele><time>2026-05-01T09:12:12Z</time></trkpt><trkpt lat="45.59459746101299" lon="11.197884432525628"><ele>895.0</ele><time>2026-05-01T09:12:13Z</time></trkpt><trkpt lat="45.59467172560053" lon="11.197997240103257"><ele>895.0</ele><time>2026-05-01T09:12:14Z</time></trkpt><trkpt lat="45.594759315736844" lon="11.198087860443374"><ele>895.0</ele><time>2026-05-01T09:12:15Z</time></trkpt><trkpt lat="45.59486609094022" lon="11.198146646127762"><ele>895.0</ele><time>2026-05-01T09:12:16Z</time></trkpt><trkpt lat="45.594979347041225" lon="11.198208381683779"><ele>895.0</ele><time>2026-05-01T09:12:17Z</time></trkpt><trkpt lat="45.595050692879305" lon="11.198350446246103"><ele>893.25</ele><time>2026-05-01T09:12:18Z</time></trkpt><trkpt lat="45.595141975679645" lon="11.198465908635116"><ele>891.5</ele><time>2026-05-01T09:12:19Z</time></trkpt><trkpt lat="45.595222868359734" lon="11.19856395661286"><ele>889.75</ele><time>2026-05-01T09:12:20Z</time></trkpt><trkpt lat="45.59532287664337" lon="11.198619436643385"><ele>888.0</ele><time>2026-05-01T09:12:21Z</time></trkpt><trkpt lat="45.595438247409305" lon="11.198637304855287"><ele>888.0</ele><time>2026-05-01T09:12:22Z</time></trkpt><trkpt lat="45.59556368906596" lon="11.198663168722517"><ele>888.0</ele><time>2026-05-01T09:12:23Z</time></trkpt><trkpt lat="45.59569561641777" lon="11.198698928655174"><ele>888.0</ele><time>2026-05-01T09:12:24Z</time></trkpt><trkpt lat="45.595828674778566" lon="11.198730908000115"><ele>888.0</ele><time>2026-05-01T09:12:25Z</time></trkpt><trkpt lat="45.59596229959699" lon="11.198761219089787"><ele>888.0</ele><time>2026-05-01T09:12:26Z</time></trkpt><trkpt lat="45.59609603742986" lon="11.198789515486792"><ele>888.0</ele><time>2026-05-01T09:12:27Z</time></trkpt><trkpt lat="45.59622996654183" lon="11.198825019404257"><ele>888.0</ele><time>2026-05-01T09:12:28Z</time></trkpt><trkpt lat="45.596363479405554" lon="11.198867696775634"><ele>888.0</ele><time>2026-05-01T09:12:29Z</time></trkpt><trkpt lat="45.59648386614776" lon="11.198952022913849"><ele>882.0</ele><time>2026-05-01T09:12:30Z</time></trkpt><trkpt lat="45.59659290150905" lon="11.19901977130339"><ele>876.0</ele><time>2026-05-01T09:12:31Z</time></trkpt><trkpt lat="45.596710105393484" lon="11.199052021374069"><ele>870.0</ele><time>2026-05-01T09:12:32Z</time></trkpt><trkpt lat="45.596832819644035" lon="11.199055690306697"><ele>864.0</ele><time>2026-05-01T09:12:33Z</time></trkpt><trkpt lat="45.59695406709768" lon="11.199036261221428"><ele>865.8000000000001</ele><time>2026-05-01T09:12:34Z</time></trkpt><trkpt lat="45.5970719790008" lon="11.199010615646298"><ele>867.6000000000001</ele><time>2026-05-01T09:12:35Z</time></trkpt><trkpt lat="45.597177733410845" lon="11.198975594755057"><ele>869.4</ele><time>2026-05-01T09:12:36Z</time></trkpt><trkpt lat="45.59727208896534" lon="11.19891416176751"><ele>871.2</ele><time>2026-05-01T09:12:37Z</time></trkpt><trkpt lat="45.59736538112259" lon="11.198887914074765"><ele>873.0</ele><time>2026-05-01T09:12:38Z</time></trkpt><trkpt lat="45.59745115767924" lon="11.198837587584517"><ele>873.0</ele><time>2026-05-01T09:12:39Z</time></trkpt><trkpt lat="45.59750879303359" lon="11.198793288319907"><ele>873.0</ele><time>2026-05-01T09:12:40Z</time></trkpt><trkpt lat="45.597584323347924" lon="11.19883303900188"><ele>873.0</ele><time>2026-05-01T09:12:42Z</time></trkpt><trkpt lat="45.59755689801448" lon="11.199045651420569"><ele>873.0</ele><time>2026-05-01T09:12:50Z</time></trkpt><trkpt lat="45.59751258306161" lon="11.19912179019537"><ele>873.0</ele><time>2026-05-01T09:12:51Z</time></trkpt><trkpt lat="45.59747359093705" lon="11.19921353394514"><ele>873.0</ele><time>2026-05-01T09:12:52Z</time></trkpt><trkpt lat="45.59743879199848" lon="11.199302328551003"><ele>869.8333333333334</ele><time>2026-05-01T09:12:53Z</time></trkpt><trkpt lat="45.59740047602439" lon="11.199392544298899"><ele>866.6666666666667</ele><time>2026-05-01T09:12:54Z</time></trkpt><trkpt lat="45.59736041792466" lon="11.199484402510459"><ele>863.5</ele><time>2026-05-01T09:12:55Z</time></trkpt><trkpt lat="45.59732026473766" lon="11.199582528530254"><ele>860.3333333333334</ele><time>2026-05-01T09:12:56Z</time></trkpt><trkpt lat="45.59727391516076" lon="11.199680739594676"><ele>857.1666666666667</ele><time>2026-05-01T09:12:57Z</time></trkpt><trkpt lat="45.59722479815736" lon="11.199784956367514"><ele>854.0</ele><time>2026-05-01T09:12:58Z</time></trkpt><trkpt lat="45.59716865122669" lon="11.199907098146879"><ele>851.6</ele><time>2026-05-01T09:12:59Z</time></trkpt><trkpt lat="45.597110439292706" lon="11.200047830686032"><ele>849.2</ele><time>2026-05-01T09:13:00Z</time></trkpt><trkpt lat="45.59705861451696" lon="11.200177941775278"><ele>846.8000000000001</ele><time>2026-05-01T09:13:01Z</time></trkpt><trkpt lat="45.59703817113514" lon="11.200318124478073"><ele>844.4000000000001</ele><time>2026-05-01T09:13:02Z</time></trkpt><trkpt lat="45.59704337530506" lon="11.200485981319982"><ele>842.0</ele><time>2026-05-01T09:13:03Z</time></trkpt><trkpt lat="45.59713716448003" lon="11.200642173907564"><ele>840.3333333333334</ele><time>2026-05-01T09:13:04Z</time></trkpt><trkpt lat="45.59721822915905" lon="11.20082192512323"><ele>838.6666666666667</ele><time>2026-05-01T09:13:05Z</time></trkpt><trkpt lat="45.59731709893503" lon="11.201001190048096"><ele>837.0</ele><time>2026-05-01T09:13:06Z</time></trkpt><trkpt lat="45.5974093136839" lon="11.2011685063187"><ele>837.0</ele><time>2026-05-01T09:13:07Z</time></trkpt><trkpt lat="45.597503210644724" lon="11.201308508809285"><ele>837.0</ele><time>2026-05-01T09:13:08Z</time></trkpt><trkpt lat="45.59757075432023" lon="11.201444953495301"><ele>837.0</ele><time>2026-05-01T09:13:09Z</time></trkpt><trkpt lat="45.59762143107328" lon="11.20155717011268"><ele>837.0</ele><time>2026-05-01T09:13:10Z</time></trkpt><trkpt lat="45.5976522290431" lon="11.201645246466793"><ele>837.0</ele><time>2026-05-01T09:13:11Z</time></trkpt><trkpt lat="45.59766006801987" lon="11.20176738192651"><ele>834.75</ele><time>2026-05-01T09:13:13Z</time></trkpt><trkpt lat="45.59780750756533" lon="11.201797488627891"><ele>832.5</ele><time>2026-05-01T09:13:15Z</time></trkpt><trkpt lat="45.59789587463414" lon="11.201753529261946"><ele>830.25</ele><time>2026-05-01T09:13:16Z</time></trkpt><trkpt lat="45.59799944130008" lon="11.201706365644084"><ele>828.0</ele><time>2026-05-01T09:13:17Z</time></trkpt><trkpt lat="45.598112649888904" lon="11.201654846494492"><ele>828.0</ele><time>2026-05-01T09:13:18Z</time></trkpt><trkpt lat="45.598234489268805" lon="11.201603818126838"><ele>828.0</ele><time>2026-05-01T09:13:19Z</time></trkpt><trkpt lat="45.598363778439825" lon="11.201551510094278"><ele>828.0</ele><time>2026-05-01T09:13:20Z</time></trkpt><trkpt lat="45.59849142309423" lon="11.201498960583896"><ele>828.0</ele><time>2026-05-01T09:13:21Z</time></trkpt><trkpt lat="45.59861474231695" lon="11.201447974065648"><ele>827.75</ele><time>2026-05-01T09:13:22Z</time></trkpt><trkpt lat="45.598733880556416" lon="11.201411413017759"><ele>827.5</ele><time>2026-05-01T09:13:23Z</time></trkpt><trkpt lat="45.59884828324405" lon="11.201379969812276"><ele>827.25</ele><time>2026-05-01T09:13:24Z</time></trkpt><trkpt lat="45.59897711346362" lon="11.201354883019475"><ele>827.0</ele><time>2026-05-01T09:13:25Z</time></trkpt><trkpt lat="45.59911890049429" lon="11.201385079219778"><ele>827.0</ele><time>2026-05-01T09:13:26Z</time></trkpt><trkpt lat="45.59925481767438" lon="11.201415987297729"><ele>827.0</ele><time>2026-05-01T09:13:27Z</time></trkpt><trkpt lat="45.59938348256651" lon="11.20142007817113"><ele>827.0</ele><time>2026-05-01T09:13:28Z</time></trkpt><trkpt lat="45.599501220061676" lon="11.20145806957933"><ele>827.0</ele><time>2026-05-01T09:13:29Z</time></trkpt><trkpt lat="45.59961756504664" lon="11.201484245471628"><ele>825.4000000000001</ele><time>2026-05-01T09:13:30Z</time></trkpt><trkpt lat="45.5997300565644" lon="11.201532007946774"><ele>823.8000000000001</ele><time>2026-05-01T09:13:31Z</time></trkpt><trkpt lat="45.59983738638478" lon="11.201601594586782"><ele>822.2</ele><time>2026-05-01T09:13:32Z</time></trkpt><trkpt lat="45.59993169430826" lon="11.201668802321326"><ele>820.6</ele><time>2026-05-01T09:13:33Z</time></trkpt><trkpt lat="45.60001803795906" lon="11.201700001296633"><ele>819.0</ele><time>2026-05-01T09:13:34Z</time></trkpt><trkpt lat="45.6001165915567" lon="11.201689339473985"><ele>819.0</ele><time>2026-05-01T09:13:35Z</time></trkpt><trkpt lat="45.60021714416367" lon="11.20165504569064"><ele>819.0</ele><time>2026-05-01T09:13:36Z</time></trkpt><trkpt lat="45.60031321028399" lon="11.201607088811638"><ele>819.0</ele><time>2026-05-01T09:13:37Z</time></trkpt><trkpt lat="45.60041018550875" lon="11.201556199194062"><ele>819.0</ele><time>2026-05-01T09:13:38Z</time></trkpt><trkpt lat="45.60050458927911" lon="11.20148311469014"><ele>819.0</ele><time>2026-05-01T09:13:39Z</time></trkpt><trkpt lat="45.60059434005086" lon="11.201417576509895"><ele>820.6</ele><time>2026-05-01T09:13:40Z</time></trkpt><trkpt lat="45.60065951473416" lon="11.201364234955939"><ele>822.2</ele><time>2026-05-01T09:13:41Z</time></trkpt><trkpt lat="45.60072433159008" lon="11.201359568928527"><ele>823.8000000000001</ele><time>2026-05-01T09:13:42Z</time></trkpt><trkpt lat="45.60086582187911" lon="11.20139565590862"><ele>825.4000000000001</ele><time>2026-05-01T09:13:44Z</time></trkpt><trkpt lat="45.60093574700575" lon="11.20151035731981"><ele>827.0</ele><time>2026-05-01T09:13:45Z</time></trkpt><trkpt lat="45.60102042144805" lon="11.201598359870744"><ele>823.0</ele><time>2026-05-01T09:13:46Z</time></trkpt><trkpt lat="45.601104065773214" lon="11.201681967922227"><ele>819.0</ele><time>2026-05-01T09:13:47Z</time></trkpt><trkpt lat="45.60119122382932" lon="11.201756261144462"><ele>815.0</ele><time>2026-05-01T09:13:48Z</time></trkpt><trkpt lat="45.60127768383923" lon="11.201841939343362"><ele>811.0</ele><time>2026-05-01T09:13:49Z</time></trkpt><trkpt lat="45.60136357382475" lon="11.201924785496898"><ele>807.0</ele><time>2026-05-01T09:13:50Z</time></trkpt><trkpt lat="45.601433342333394" lon="11.201993510447332"><ele>804.6</ele><time>2026-05-01T09:13:51Z</time></trkpt><trkpt lat="45.60155054311908" lon="11.202023490856563"><ele>802.2</ele><time>2026-05-01T09:13:53Z</time></trkpt><trkpt lat="45.60161396404207" lon="11.201996651922142"><ele>799.8</ele><time>2026-05-01T09:13:54Z</time></trkpt><trkpt lat="45.60167486145695" lon="11.201935055187885"><ele>797.4</ele><time>2026-05-01T09:13:55Z</time></trkpt><trkpt lat="45.60173377659397" lon="11.201832543042118"><ele>795.0</ele><time>2026-05-01T09:13:56Z</time></trkpt><trkpt lat="45.601821404410295" lon="11.201699067264762"><ele>795.0</ele><time>2026-05-01T09:13:57Z</time></trkpt><trkpt lat="45.601927147412546" lon="11.201526212875633"><ele>795.0</ele><time>2026-05-01T09:13:58Z</time></trkpt><trkpt lat="45.60204575440039" lon="11.201340164135006"><ele>795.0</ele><time>2026-05-01T09:13:59Z</time></trkpt><trkpt lat="45.60217040819626" lon="11.20115564089552"><ele>793.6666666666667</ele><time>2026-05-01T09:14:00Z</time></trkpt><trkpt lat="45.602317422822075" lon="11.201025189680664"><ele>792.3333333333334</ele><time>2026-05-01T09:14:01Z</time></trkpt><trkpt lat="45.602488207929966" lon="11.2009161540139"><ele>791.0</ele><time>2026-05-01T09:14:02Z</time></trkpt><trkpt lat="45.602658613078404" lon="11.20078453413937"><ele>792.6666666666667</ele><time>2026-05-01T09:14:03Z</time></trkpt><trkpt lat="45.60282456733279" lon="11.200637109743845"><ele>794.3333333333333</ele><time>2026-05-01T09:14:04Z</time></trkpt><trkpt lat="45.60301983418669" lon="11.200491297295546"><ele>796.0</ele><time>2026-05-01T09:14:05Z</time></trkpt><trkpt lat="45.60320569082953" lon="11.200353119867836"><ele>796.0</ele><time>2026-05-01T09:14:06Z</time></trkpt><trkpt lat="45.60338243513772" lon="11.20025918989876"><ele>796.0</ele><time>2026-05-01T09:14:07Z</time></trkpt><trkpt lat="45.60353766501" lon="11.200158157114851"><ele>796.0</ele><time>2026-05-01T09:14:08Z</time></trkpt><trkpt lat="45.60368581479924" lon="11.20006542416911"><ele>786.75</ele><time>2026-05-01T09:14:09Z</time></trkpt><trkpt lat="45.60382140111088" lon="11.200002178006473"><ele>777.5</ele><time>2026-05-01T09:14:10Z</time></trkpt><trkpt lat="45.60395542512318" lon="11.199991238378288"><ele>768.25</ele><time>2026-05-01T09:14:11Z</time></trkpt><trkpt lat="45.6040965357578" lon="11.20001734292147"><ele>759.0</ele><time>2026-05-01T09:14:12Z</time></trkpt><trkpt lat="45.604240709819656" lon="11.200083686844376"><ele>759.0</ele><time>2026-05-01T09:14:13Z</time></trkpt><trkpt lat="45.60438846659259" lon="11.200167344319823"><ele>759.0</ele><time>2026-05-01T09:14:14Z</time></trkpt><trkpt lat="45.60452079831753" lon="11.200242431621474"><ele>759.0</ele><time>2026-05-01T09:14:15Z</time></trkpt><trkpt lat="45.60463676841923" lon="11.200307668076068"><ele>759.0</ele><time>2026-05-01T09:14:16Z</time></trkpt><trkpt lat="45.60475442052098" lon="11.200355277756895"><ele>759.0</ele><time>2026-05-01T09:14:17Z</time></trkpt><trkpt lat="45.604860717314" lon="11.200448080896132"><ele>759.0</ele><time>2026-05-01T09:14:18Z</time></trkpt><trkpt lat="45.60496118405204" lon="11.200546028531278"><ele>759.0</ele><time>2026-05-01T09:14:19Z</time></trkpt><trkpt lat="45.60504511512065" lon="11.200665234475547"><ele>759.0</ele><time>2026-05-01T09:14:20Z</time></trkpt><trkpt lat="45.605119207190654" lon="11.200772827847121"><ele>754.75</ele><time>2026-05-01T09:14:21Z</time></trkpt><trkpt lat="45.6052165632759" lon="11.20084493354448"><ele>750.5</ele><time>2026-05-01T09:14:22Z</time></trkpt><trkpt lat="45.6053367336808" lon="11.200875972180766"><ele>746.25</ele><time>2026-05-01T09:14:23Z</time></trkpt><trkpt lat="45.605469062420056" lon="11.20093433407199"><ele>742.0</ele><time>2026-05-01T09:14:24Z</time></trkpt><trkpt lat="45.60558685281744" lon="11.201026304191831"><ele>742.0</ele><time>2026-05-01T09:14:25Z</time></trkpt><trkpt lat="45.60570243827652" lon="11.201103911436116"><ele>742.0</ele><time>2026-05-01T09:14:26Z</time></trkpt><trkpt lat="45.60582385751893" lon="11.201131449244755"><ele>742.0</ele><time>2026-05-01T09:14:27Z</time></trkpt><trkpt lat="45.60594236143171" lon="11.201108071623088"><ele>742.0</ele><time>2026-05-01T09:14:28Z</time></trkpt><trkpt lat="45.60604077973946" lon="11.201048310843381"><ele>742.0</ele><time>2026-05-01T09:14:29Z</time></trkpt><trkpt lat="45.606112738126654" lon="11.200946746555921"><ele>742.0</ele><time>2026-05-01T09:14:30Z</time></trkpt><trkpt lat="45.60618604072179" lon="11.200851584323786"><ele>742.0</ele><time>2026-05-01T09:14:31Z</time></trkpt><trkpt lat="45.60630578278629" lon="11.200857745273508"><ele>742.0</ele><time>2026-05-01T09:14:32Z</time></trkpt><trkpt lat="45.606449050027095" lon="11.200926483144118"><ele>740.3333333333334</ele><time>2026-05-01T09:14:33Z</time></trkpt><trkpt lat="45.60661477655798" lon="11.200992364608862"><ele>738.6666666666666</ele><time>2026-05-01T09:14:34Z</time></trkpt><trkpt lat="45.606756190926816" lon="11.2010758089973"><ele>737.0</ele><time>2026-05-01T09:14:35Z</time></trkpt><trkpt lat="45.606884305360275" lon="11.20116087082491"><ele>735.25</ele><time>2026-05-01T09:14:36Z</time></trkpt><trkpt lat="45.607009092447385" lon="11.201246410049214"><ele>733.5</ele><time>2026-05-01T09:14:37Z</time></trkpt><trkpt lat="45.607123196404864" lon="11.201316204001564"><ele>731.75</ele><time>2026-05-01T09:14:38Z</time></trkpt><trkpt lat="45.607227098009446" lon="11.201393292388136"><ele>730.0</ele><time>2026-05-01T09:14:39Z</time></trkpt><trkpt lat="45.607298462981596" lon="11.201514650624873"><ele>730.0</ele><time>2026-05-01T09:14:40Z</time></trkpt><trkpt lat="45.607373151246435" lon="11.201621032961361"><ele>730.0</ele><time>2026-05-01T09:14:41Z</time></trkpt><trkpt lat="45.607452372925124" lon="11.20171876948588"><ele>730.0</ele><time>2026-05-01T09:14:42Z</time></trkpt><trkpt lat="45.60754668222073" lon="11.201779248085696"><ele>730.0</ele><time>2026-05-01T09:14:43Z</time></trkpt><trkpt lat="45.60761545975424" lon="11.20187858973814"><ele>730.0</ele><time>2026-05-01T09:14:44Z</time></trkpt><trkpt lat="45.607643920780504" lon="11.202028103532157"><ele>730.0</ele><time>2026-05-01T09:14:45Z</time></trkpt><trkpt lat="45.60759165458565" lon="11.202211437774482"><ele>730.0</ele><time>2026-05-01T09:14:46Z</time></trkpt><trkpt lat="45.60759952270559" lon="11.202399469091922"><ele>730.0</ele><time>2026-05-01T09:14:47Z</time></trkpt><trkpt lat="45.607593966165545" lon="11.202539691558544"><ele>730.0</ele><time>2026-05-01T09:14:48Z</time></trkpt><trkpt lat="45.607607953802734" lon="11.202641747572427"><ele>730.0</ele><time>2026-05-01T09:14:49Z</time></trkpt><trkpt lat="45.60764731157902" lon="11.20272148042707"><ele>731.1666666666667</ele><time>2026-05-01T09:14:50Z</time></trkpt><trkpt lat="45.60770865086605" lon="11.202788873267162"><ele>732.3333333333334</ele><time>2026-05-01T09:14:51Z</time></trkpt><trkpt lat="45.60778794816311" lon="11.20285299919563"><ele>733.5</ele><time>2026-05-01T09:14:52Z</time></trkpt><trkpt lat="45.607841053402325" lon="11.202965535032606"><ele>734.6666666666666</ele><time>2026-05-01T09:14:53Z</time></trkpt><trkpt lat="45.60789657266522" lon="11.203069772464248"><ele>735.8333333333333</ele><time>2026-05-01T09:14:54Z</time></trkpt><trkpt lat="45.6079487983564" lon="11.203164948214171"><ele>737.0</ele><time>2026-05-01T09:14:55Z</time></trkpt><trkpt lat="45.60800298757476" lon="11.203253405794657"><ele>733.8333333333333</ele><time>2026-05-01T09:14:56Z</time></trkpt><trkpt lat="45.60805916339667" lon="11.203348623507106"><ele>730.6666666666666</ele><time>2026-05-01T09:14:57Z</time></trkpt><trkpt lat="45.60811087943553" lon="11.20345021333834"><ele>727.5</ele><time>2026-05-01T09:14:58Z</time></trkpt><trkpt lat="45.608156720675765" lon="11.203556719364457"><ele>724.3333333333334</ele><time>2026-05-01T09:14:59Z</time></trkpt><trkpt lat="45.608201727947005" lon="11.203647966517893"><ele>721.1666666666667</ele><time>2026-05-01T09:15:00Z</time></trkpt><trkpt lat="45.608244028124524" lon="11.203737635565545"><ele>718.0</ele><time>2026-05-01T09:15:01Z</time></trkpt><trkpt lat="45.608289306113626" lon="11.203809079416938"><ele>718.0</ele><time>2026-05-01T09:15:02Z</time></trkpt><trkpt lat="45.60833979899963" lon="11.203888558234235"><ele>718.0</ele><time>2026-05-01T09:15:03Z</time></trkpt><trkpt lat="45.608373281274865" lon="11.203974674997447"><ele>718.0</ele><time>2026-05-01T09:15:04Z</time></trkpt><trkpt lat="45.608386773989004" lon="11.204074475404443"><ele>718.0</ele><time>2026-05-01T09:15:05Z</time></trkpt><trkpt lat="45.60837933229205" lon="11.2041752784392"><ele>718.0</ele><time>2026-05-01T09:15:06Z</time></trkpt><trkpt lat="45.608351932381886" lon="11.204331987066679"><ele>718.0</ele><time>2026-05-01T09:15:08Z</time></trkpt><trkpt lat="45.60833486269609" lon="11.204421113631188"><ele>714.5</ele><time>2026-05-01T09:15:09Z</time></trkpt><trkpt lat="45.60832706951272" lon="11.20452548123892"><ele>711.0</ele><time>2026-05-01T09:15:10Z</time></trkpt><trkpt lat="45.608318211880004" lon="11.204621117479318"><ele>707.5</ele><time>2026-05-01T09:15:11Z</time></trkpt><trkpt lat="45.60833740027759" lon="11.204774526119543"><ele>704.0</ele><time>2026-05-01T09:15:13Z</time></trkpt><trkpt lat="45.60843961076211" lon="11.204810919366112"><ele>700.5</ele><time>2026-05-01T09:15:14Z</time></trkpt><trkpt lat="45.60851969278612" lon="11.204858862579288"><ele>697.0</ele><time>2026-05-01T09:15:15Z</time></trkpt><trkpt lat="45.608560740128866" lon="11.204986261164043"><ele>695.5714285714286</ele><time>2026-05-01T09:15:16Z</time></trkpt><trkpt lat="45.6086284473357" lon="11.205053225267527"><ele>694.1428571428571</ele><time>2026-05-01T09:15:17Z</time></trkpt><trkpt lat="45.608687251133745" lon="11.20511186401005"><ele>692.7142857142858</ele><time>2026-05-01T09:15:18Z</time></trkpt><trkpt lat="45.60876785189436" lon="11.205122642669767"><ele>691.2857142857142</ele><time>2026-05-01T09:15:19Z</time></trkpt><trkpt lat="45.60884704693632" lon="11.205107773675117"><ele>689.8571428571428</ele><time>2026-05-01T09:15:20Z</time></trkpt><trkpt lat="45.608911822852804" lon="11.205082556290034"><ele>688.4285714285714</ele><time>2026-05-01T09:15:21Z</time></trkpt><trkpt lat="45.60896038034654" lon="11.205021000893876"><ele>687.0</ele><time>2026-05-01T09:15:22Z</time></trkpt><trkpt lat="45.60898716707231" lon="11.204830480718785"><ele>689.0</ele><time>2026-05-01T09:15:24Z</time></trkpt><trkpt lat="45.60899122926578" lon="11.204712324469241"><ele>691.0</ele><time>2026-05-01T09:15:25Z</time></trkpt><trkpt lat="45.609006109861554" lon="11.204620991421525"><ele>693.0</ele><time>2026-05-01T09:15:26Z</time></trkpt><trkpt lat="45.60908233907831" lon="11.204481909331479"><ele>695.0</ele><time>2026-05-01T09:15:28Z</time></trkpt><trkpt lat="45.60915783936481" lon="11.204449593841854"><ele>697.0</ele><time>2026-05-01T09:15:29Z</time></trkpt><trkpt lat="45.60924276087399" lon="11.204402523913785"><ele>699.0</ele><time>2026-05-01T09:15:30Z</time></trkpt><trkpt lat="45.60933494825359" lon="11.204401928037612"><ele>699.0</ele><time>2026-05-01T09:15:31Z</time></trkpt><trkpt lat="45.60942463202023" lon="11.204448415807013"><ele>699.0</ele><time>2026-05-01T09:15:32Z</time></trkpt><trkpt lat="45.60949579867794" lon="11.20454956168564"><ele>699.0</ele><time>2026-05-01T09:15:33Z</time></trkpt><trkpt lat="45.60956525601669" lon="11.2046928115045"><ele>699.0</ele><time>2026-05-01T09:15:34Z</time></trkpt><trkpt lat="45.60964051408078" lon="11.204884157113142"><ele>696.3333333333334</ele><time>2026-05-01T09:15:35Z</time></trkpt><trkpt lat="45.609726264306666" lon="11.205115108624955"><ele>693.6666666666667</ele><time>2026-05-01T09:15:36Z</time></trkpt><trkpt lat="45.60981213817764" lon="11.205348960524853"><ele>691.0</ele><time>2026-05-01T09:15:37Z</time></trkpt><trkpt lat="45.60989010450491" lon="11.205572924305114"><ele>686.75</ele><time>2026-05-01T09:15:38Z</time></trkpt><trkpt lat="45.60995771084506" lon="11.205768393079747"><ele>682.5</ele><time>2026-05-01T09:15:39Z</time></trkpt><trkpt lat="45.61001750962347" lon="11.205941050439256"><ele>678.25</ele><time>2026-05-01T09:15:40Z</time></trkpt><trkpt lat="45.610070111309724" lon="11.206074961545482"><ele>674.0</ele><time>2026-05-01T09:15:41Z</time></trkpt><trkpt lat="45.610158636042904" lon="11.206175353790783"><ele>674.0</ele><time>2026-05-01T09:15:42Z</time></trkpt><trkpt lat="45.61026033712738" lon="11.20625667471624"><ele>674.0</ele><time>2026-05-01T09:15:43Z</time></trkpt><trkpt lat="45.610389511299516" lon="11.20634847148804"><ele>674.0</ele><time>2026-05-01T09:15:44Z</time></trkpt><trkpt lat="45.61051951023297" lon="11.20641742800482"><ele>674.0</ele><time>2026-05-01T09:15:45Z</time></trkpt><trkpt lat="45.61063389284992" lon="11.20645802640334"><ele>674.4000000000001</ele><time>2026-05-01T09:15:46Z</time></trkpt><trkpt lat="45.6107298367887" lon="11.206471132056453"><ele>674.8</ele><time>2026-05-01T09:15:47Z</time></trkpt><trkpt lat="45.61082103028058" lon="11.206424730317483"><ele>675.2</ele><time>2026-05-01T09:15:48Z</time></trkpt><trkpt lat="45.610904415761716" lon="11.206337237607414"><ele>675.5999999999999</ele><time>2026-05-01T09:15:49Z</time></trkpt><trkpt lat="45.610991361897675" lon="11.206194742241662"><ele>676.0</ele><time>2026-05-01T09:15:50Z</time></trkpt><trkpt lat="45.61108487323381" lon="11.206071241097357"><ele>674.4</ele><time>2026-05-01T09:15:51Z</time></trkpt><trkpt lat="45.61119013524838" lon="11.206027023465202"><ele>672.8</ele><time>2026-05-01T09:15:52Z</time></trkpt><trkpt lat="45.61128031837233" lon="11.206034531682215"><ele>671.1999999999999</ele><time>2026-05-01T09:15:53Z</time></trkpt><trkpt lat="45.61135186152693" lon="11.20612187605682"><ele>669.5999999999999</ele><time>2026-05-01T09:15:54Z</time></trkpt><trkpt lat="45.61143393649232" lon="11.206270739110265"><ele>668.0</ele><time>2026-05-01T09:15:55Z</time></trkpt><trkpt lat="45.6115422099722" lon="11.206466468374318"><ele>665.0</ele><time>2026-05-01T09:15:56Z</time></trkpt><trkpt lat="45.61160880004232" lon="11.206720372919154"><ele>662.0</ele><time>2026-05-01T09:15:57Z</time></trkpt><trkpt lat="45.61166908977516" lon="11.207007733875958"><ele>659.0</ele><time>2026-05-01T09:15:58Z</time></trkpt><trkpt lat="45.61172448321075" lon="11.207253504609985"><ele>659.5</ele><time>2026-05-01T09:15:59Z</time></trkpt><trkpt lat="45.61178834118161" lon="11.207445631777409"><ele>660.0</ele><time>2026-05-01T09:16:00Z</time></trkpt><trkpt lat="45.611845576774186" lon="11.207606856864926"><ele>660.5</ele><time>2026-05-01T09:16:01Z</time></trkpt><trkpt lat="45.61193855373281" lon="11.207737420622598"><ele>661.0</ele><time>2026-05-01T09:16:02Z</time></trkpt><trkpt lat="45.612067086306105" lon="11.207861811567192"><ele>661.0</ele><time>2026-05-01T09:16:03Z</time></trkpt><trkpt lat="45.61220523272628" lon="11.207990963934979"><ele>661.0</ele><time>2026-05-01T09:16:04Z</time></trkpt><trkpt lat="45.61232411630647" lon="11.208093992448584"><ele>661.0</ele><time>2026-05-01T09:16:05Z</time></trkpt><trkpt lat="45.612416252737276" lon="11.208148219435092"><ele>661.0</ele><time>2026-05-01T09:16:06Z</time></trkpt><trkpt lat="45.61250390732408" lon="11.208161916407022"><ele>661.0</ele><time>2026-05-01T09:16:07Z</time></trkpt><trkpt lat="45.61261889080008" lon="11.208049168222916"><ele>661.0</ele><time>2026-05-01T09:16:08Z</time></trkpt><trkpt lat="45.61272767705776" lon="11.207943937051088"><ele>661.0</ele><time>2026-05-01T09:16:09Z</time></trkpt><trkpt lat="45.61284254601493" lon="11.20784321771191"><ele>661.0</ele><time>2026-05-01T09:16:10Z</time></trkpt><trkpt lat="45.61295728409269" lon="11.207767373017946"><ele>661.5</ele><time>2026-05-01T09:16:11Z</time></trkpt><trkpt lat="45.61306010201235" lon="11.207706284845047"><ele>662.0</ele><time>2026-05-01T09:16:12Z</time></trkpt><trkpt lat="45.61314342965876" lon="11.207629313033697"><ele>662.5</ele><time>2026-05-01T09:16:13Z</time></trkpt><trkpt lat="45.61320192265222" lon="11.207497428822784"><ele>663.0</ele><time>2026-05-01T09:16:14Z</time></trkpt><trkpt lat="45.61323137878022" lon="11.207311192424894"><ele>665.4</ele><time>2026-05-01T09:16:15Z</time></trkpt><trkpt lat="45.61324365388286" lon="11.207132105945695"><ele>667.8</ele><time>2026-05-01T09:16:16Z</time></trkpt><trkpt lat="45.61331982997625" lon="11.207028487594831"><ele>670.2</ele><time>2026-05-01T09:16:17Z</time></trkpt><trkpt lat="45.613395029184645" lon="11.206954641126943"><ele>672.6</ele><time>2026-05-01T09:16:18Z</time></trkpt><trkpt lat="45.61347192394595" lon="11.20694242213402"><ele>675.0</ele><time>2026-05-01T09:16:19Z</time></trkpt><trkpt lat="45.613533519911186" lon="11.207005959446622"><ele>675.0</ele><time>2026-05-01T09:16:20Z</time></trkpt><trkpt lat="45.61358492656414" lon="11.207136831093697"><ele>675.0</ele><time>2026-05-01T09:16:21Z</time></trkpt><trkpt lat="45.61362027825334" lon="11.207333175576041"><ele>675.0</ele><time>2026-05-01T09:16:22Z</time></trkpt><trkpt lat="45.613698357082605" lon="11.207558793299386"><ele>675.0</ele><time>2026-05-01T09:16:23Z</time></trkpt><trkpt lat="45.61381239885491" lon="11.20779011800254"><ele>673.6666666666666</ele><time>2026-05-01T09:16:24Z</time></trkpt><trkpt lat="45.6139123756407" lon="11.208007474311366"><ele>672.3333333333333</ele><time>2026-05-01T09:16:25Z</time></trkpt><trkpt lat="45.613998014605635" lon="11.208182578921997"><ele>671.0</ele><time>2026-05-01T09:16:26Z</time></trkpt><trkpt lat="45.61407477874344" lon="11.208328037438408"><ele>669.0</ele><time>2026-05-01T09:16:27Z</time></trkpt><trkpt lat="45.61416744337579" lon="11.208434960761084"><ele>667.0</ele><time>2026-05-01T09:16:28Z</time></trkpt><trkpt lat="45.61427963701563" lon="11.208502433769095"><ele>665.0</ele><time>2026-05-01T09:16:29Z</time></trkpt><trkpt lat="45.614404757526145" lon="11.20854050864796"><ele>663.0</ele><time>2026-05-01T09:16:30Z</time></trkpt><trkpt lat="45.61451248793038" lon="11.208566694577973"><ele>663.0</ele><time>2026-05-01T09:16:31Z</time></trkpt><trkpt lat="45.61459372499524" lon="11.208604330988136"><ele>663.0</ele><time>2026-05-01T09:16:32Z</time></trkpt><trkpt lat="45.614666935347266" lon="11.208671422004105"><ele>663.0</ele><time>2026-05-01T09:16:33Z</time></trkpt><trkpt lat="45.61477237565525" lon="11.208697155712594"><ele>663.0</ele><time>2026-05-01T09:16:34Z</time></trkpt><trkpt lat="45.61491157186267" lon="11.20872220427364"><ele>663.0</ele><time>2026-05-01T09:16:35Z</time></trkpt><trkpt lat="45.61506395082902" lon="11.208779578688045"><ele>663.0</ele><time>2026-05-01T09:16:36Z</time></trkpt><trkpt lat="45.61521523696365" lon="11.20885896186019"><ele>663.0</ele><time>2026-05-01T09:16:37Z</time></trkpt><trkpt lat="45.61537711235058" lon="11.208985385791905"><ele>663.0</ele><time>2026-05-01T09:16:38Z</time></trkpt><trkpt lat="45.615554713592" lon="11.209135352737222"><ele>660.6666666666666</ele><time>2026-05-01T09:16:39Z</time></trkpt><trkpt lat="45.61572814123656" lon="11.20928567713217"><ele>658.3333333333333</ele><time>2026-05-01T09:16:40Z</time></trkpt><trkpt lat="45.61588161429313" lon="11.209438604551554"><ele>656.0</ele><time>2026-05-01T09:16:41Z</time></trkpt><trkpt lat="45.61602607346512" lon="11.209595623563791"><ele>656.6666666666666</ele><time>2026-05-01T09:16:42Z</time></trkpt><trkpt lat="45.616173890674936" lon="11.209737812801219"><ele>657.3333333333334</ele><time>2026-05-01T09:16:43Z</time></trkpt><trkpt lat="45.616325577064316" lon="11.209865495805532"><ele>658.0</ele><time>2026-05-01T09:16:44Z</time></trkpt><trkpt lat="45.61646301859474" lon="11.20998649636396"><ele>656.5999999999999</ele><time>2026-05-01T09:16:45Z</time></trkpt><trkpt lat="45.616559146501025" lon="11.210099403718907"><ele>655.1999999999999</ele><time>2026-05-01T09:16:46Z</time></trkpt><trkpt lat="45.61661003928922" lon="11.210216131211933"><ele>653.8</ele><time>2026-05-01T09:16:47Z</time></trkpt><trkpt lat="45.61662768002095" lon="11.210340470109424"><ele>652.4</ele><time>2026-05-01T09:16:48Z</time></trkpt><trkpt lat="45.6165485948986" lon="11.210460573731174"><ele>651.0</ele><time>2026-05-01T09:16:49Z</time></trkpt><trkpt lat="45.616496548562715" lon="11.210618193350783"><ele>649.75</ele><time>2026-05-01T09:16:50Z</time></trkpt><trkpt lat="45.616455796783185" lon="11.210794273998829"><ele>648.5</ele><time>2026-05-01T09:16:51Z</time></trkpt><trkpt lat="45.6164319959572" lon="11.210961835011053"><ele>647.25</ele><time>2026-05-01T09:16:52Z</time></trkpt><trkpt lat="45.61643836518246" lon="11.211134339206897"><ele>646.0</ele><time>2026-05-01T09:16:53Z</time></trkpt><trkpt lat="45.61642636017803" lon="11.211294325609632"><ele>646.0</ele><time>2026-05-01T09:16:54Z</time></trkpt><trkpt lat="45.61641141745957" lon="11.21141990134426"><ele>646.0</ele><time>2026-05-01T09:16:55Z</time></trkpt><trkpt lat="45.61636698494403" lon="11.211515175993986"><ele>646.0</ele><time>2026-05-01T09:16:56Z</time></trkpt><trkpt lat="45.61624474216799" lon="11.211535084868824"><ele>646.0</ele><time>2026-05-01T09:16:57Z</time></trkpt><trkpt lat="45.61610465601066" lon="11.211616466241699"><ele>646.0</ele><time>2026-05-01T09:16:58Z</time></trkpt><trkpt lat="45.61596472367293" lon="11.211713114573834"><ele>641.5</ele><time>2026-05-01T09:16:59Z</time></trkpt><trkpt lat="45.61583766030203" lon="11.21179215586012"><ele>637.0</ele><time>2026-05-01T09:17:00Z</time></trkpt><trkpt lat="45.61573378139995" lon="11.211895461116903"><ele>632.5</ele><time>2026-05-01T09:17:01Z</time></trkpt><trkpt lat="45.6156461368207" lon="11.21202015045002"><ele>628.0</ele><time>2026-05-01T09:17:02Z</time></trkpt><trkpt lat="45.61558783616812" lon="11.212147049041087"><ele>628.0</ele><time>2026-05-01T09:17:03Z</time></trkpt><trkpt lat="45.61556113338243" lon="11.212295163382416"><ele>628.0</ele><time>2026-05-01T09:17:04Z</time></trkpt><trkpt lat="45.615564608450114" lon="11.212474492785347"><ele>628.0</ele><time>2026-05-01T09:17:05Z</time></trkpt><trkpt lat="45.61552730078958" lon="11.21265982662681"><ele>628.0</ele><time>2026-05-01T09:17:06Z</time></trkpt><trkpt lat="45.61545789371595" lon="11.212803128773672"><ele>627.5</ele><time>2026-05-01T09:17:07Z</time></trkpt><trkpt lat="45.61537189122038" lon="11.212908017071436"><ele>627.0</ele><time>2026-05-01T09:17:08Z</time></trkpt><trkpt lat="45.61525868660715" lon="11.213005423219984"><ele>626.5</ele><time>2026-05-01T09:17:09Z</time></trkpt><trkpt lat="45.615125851612255" lon="11.213135333759043"><ele>626.0</ele><time>2026-05-01T09:17:10Z</time></trkpt><trkpt lat="45.61499217301268" lon="11.213229463466726"><ele>625.0</ele><time>2026-05-01T09:17:11Z</time></trkpt><trkpt lat="45.614890645755" lon="11.213305521265127"><ele>624.0</ele><time>2026-05-01T09:17:12Z</time></trkpt><trkpt lat="45.61481657152515" lon="11.213380724349015"><ele>623.0</ele><time>2026-05-01T09:17:13Z</time></trkpt><trkpt lat="45.61476769814505" lon="11.213474984882723"><ele>622.0</ele><time>2026-05-01T09:17:14Z</time></trkpt><trkpt lat="45.614738551083335" lon="11.213585575161941"><ele>621.0</ele><time>2026-05-01T09:17:15Z</time></trkpt><trkpt lat="45.61471585351999" lon="11.213698900421111"><ele>621.0</ele><time>2026-05-01T09:17:16Z</time></trkpt><trkpt lat="45.61472725238351" lon="11.213801848109918"><ele>621.0</ele><time>2026-05-01T09:17:17Z</time></trkpt><trkpt lat="45.61474125650178" lon="11.213951587635531"><ele>621.0</ele><time>2026-05-01T09:17:19Z</time></trkpt><trkpt lat="45.61474125649846" lon="11.21407980633654"><ele>621.0</ele><time>2026-05-01T09:17:21Z</time></trkpt><trkpt lat="45.61469245785946" lon="11.214154391143026"><ele>621.0</ele><time>2026-05-01T09:17:23Z</time></trkpt><trkpt lat="45.61464009219264" lon="11.214254171106425"><ele>621.0</ele><time>2026-05-01T09:17:25Z</time></trkpt><trkpt lat="45.614618731712376" lon="11.214351012720314"><ele>621.1666666666666</ele><time>2026-05-01T09:17:26Z</time></trkpt><trkpt lat="45.614604492175225" lon="11.21445394115041"><ele>621.3333333333334</ele><time>2026-05-01T09:17:27Z</time></trkpt><trkpt lat="45.61457750248061" lon="11.214560283002712"><ele>621.5</ele><time>2026-05-01T09:17:28Z</time></trkpt><trkpt lat="45.614546375959314" lon="11.214677816953795"><ele>621.6666666666667</ele><time>2026-05-01T09:17:29Z</time></trkpt><trkpt lat="45.614529000538255" lon="11.214821946691549"><ele>621.8333333333334</ele><time>2026-05-01T09:17:30Z</time></trkpt><trkpt lat="45.614498703825724" lon="11.21496305367085"><ele>622.0</ele><time>2026-05-01T09:17:31Z</time></trkpt><trkpt lat="45.614450796242345" lon="11.215107061017061"><ele>616.0</ele><time>2026-05-01T09:17:32Z</time></trkpt><trkpt lat="45.614418082917965" lon="11.215255268003576"><ele>610.0</ele><time>2026-05-01T09:17:33Z</time></trkpt><trkpt lat="45.614389140120025" lon="11.215385400421637"><ele>604.0</ele><time>2026-05-01T09:17:34Z</time></trkpt><trkpt lat="45.614365808191316" lon="11.2154903053019"><ele>598.0</ele><time>2026-05-01T09:17:35Z</time></trkpt><trkpt lat="45.61434579658323" lon="11.215581556087818"><ele>592.0</ele><time>2026-05-01T09:17:36Z</time></trkpt><trkpt lat="45.61431921274617" lon="11.215706724877299"><ele>586.0</ele><time>2026-05-01T09:17:38Z</time></trkpt><trkpt lat="45.61432705533344" lon="11.21583132737708"><ele>583.4</ele><time>2026-05-01T09:17:41Z</time></trkpt><trkpt lat="45.614357088598176" lon="11.215956918832832"><ele>580.8</ele><time>2026-05-01T09:17:44Z</time></trkpt><trkpt lat="45.61444010925993" lon="11.216029747369921"><ele>578.1999999999999</ele><time>2026-05-01T09:17:46Z</time></trkpt><trkpt lat="45.614522694621655" lon="11.216122836355243"><ele>575.6</ele><time>2026-05-01T09:17:48Z</time></trkpt><trkpt lat="45.61461689157656" lon="11.216231224022236"><ele>573.0</ele><time>2026-05-01T09:17:50Z</time></trkpt><trkpt lat="45.61472839137885" lon="11.216306543310647"><ele>572.4</ele><time>2026-05-01T09:17:52Z</time></trkpt><trkpt lat="45.614841976450556" lon="11.216302379776575"><ele>571.8</ele><time>2026-05-01T09:17:54Z</time></trkpt><trkpt lat="45.614926642372126" lon="11.216410296609684"><ele>571.2</ele><time>2026-05-01T09:17:56Z</time></trkpt><trkpt lat="45.61503868907235" lon="11.216488975666106"><ele>570.6</ele><time>2026-05-01T09:17:58Z</time></trkpt><trkpt lat="45.61511330237512" lon="11.216524263389527"><ele>570.0</ele><time>2026-05-01T09:17:59Z</time></trkpt><trkpt lat="45.61521732466906" lon="11.21655034586407"><ele>571.75</ele><time>2026-05-01T09:18:00Z</time></trkpt><trkpt lat="45.615350834791705" lon="11.216553191902747"><ele>573.5</ele><time>2026-05-01T09:18:01Z</time></trkpt><trkpt lat="45.615496215981416" lon="11.216559979924272"><ele>575.25</ele><time>2026-05-01T09:18:02Z</time></trkpt><trkpt lat="45.61564390475596" lon="11.216573961624018"><ele>577.0</ele><time>2026-05-01T09:18:03Z</time></trkpt><trkpt lat="45.61578688263675" lon="11.216610068795013"><ele>577.0</ele><time>2026-05-01T09:18:04Z</time></trkpt><trkpt lat="45.615917044216715" lon="11.2167179604706"><ele>577.0</ele><time>2026-05-01T09:18:05Z</time></trkpt><trkpt lat="45.61605852583684" lon="11.21679669801195"><ele>577.0</ele><time>2026-05-01T09:18:06Z</time></trkpt><trkpt lat="45.61620881218274" lon="11.216815385639496"><ele>578.0</ele><time>2026-05-01T09:18:07Z</time></trkpt><trkpt lat="45.61635381167683" lon="11.216841375454985"><ele>579.0</ele><time>2026-05-01T09:18:08Z</time></trkpt><trkpt lat="45.616475728557816" lon="11.216923452180168"><ele>580.0</ele><time>2026-05-01T09:18:09Z</time></trkpt><trkpt lat="45.61656165834639" lon="11.217042915926317"><ele>581.0</ele><time>2026-05-01T09:18:10Z</time></trkpt><trkpt lat="45.616644102307376" lon="11.217109616334856"><ele>581.0</ele><time>2026-05-01T09:18:11Z</time></trkpt><trkpt lat="45.61670027415482" lon="11.217161925495795"><ele>581.0</ele><time>2026-05-01T09:18:12Z</time></trkpt><trkpt lat="45.61659552364246" lon="11.217097587225249"><ele>581.0</ele><time>2026-05-01T09:18:16Z</time></trkpt><trkpt lat="45.61650318818978" lon="11.217006948884542"><ele>581.0</ele><time>2026-05-01T09:18:17Z</time></trkpt><trkpt lat="45.61631723862367" lon="11.217056870724628"><ele>581.0</ele><time>2026-05-01T09:18:18Z</time></trkpt><trkpt lat="45.616169392269555" lon="11.217120333064063"><ele>581.0</ele><time>2026-05-01T09:18:19Z</time></trkpt><trkpt lat="45.61603347049056" lon="11.217216793374314"><ele>581.0</ele><time>2026-05-01T09:18:20Z</time></trkpt><trkpt lat="45.61590234272" lon="11.217267476147407"><ele>581.0</ele><time>2026-05-01T09:18:21Z</time></trkpt><trkpt lat="45.61576049421956" lon="11.217245741427881"><ele>579.6666666666666</ele><time>2026-05-01T09:18:22Z</time></trkpt><trkpt lat="45.61560306445237" lon="11.217217438445235"><ele>578.3333333333334</ele><time>2026-05-01T09:18:23Z</time></trkpt><trkpt lat="45.615435918031686" lon="11.217205086331413"><ele>577.0</ele><time>2026-05-01T09:18:24Z</time></trkpt><trkpt lat="45.61527827286832" lon="11.217173446174295"><ele>574.6666666666667</ele><time>2026-05-01T09:18:25Z</time></trkpt><trkpt lat="45.61510740061175" lon="11.217195130519924"><ele>572.3333333333334</ele><time>2026-05-01T09:18:26Z</time></trkpt><trkpt lat="45.61493886148101" lon="11.217251911250921"><ele>570.0</ele><time>2026-05-01T09:18:27Z</time></trkpt><trkpt lat="45.614787669774906" lon="11.217320519662234"><ele>564.25</ele><time>2026-05-01T09:18:28Z</time></trkpt><trkpt lat="45.614645907013134" lon="11.2173365062526"><ele>558.5</ele><time>2026-05-01T09:18:29Z</time></trkpt><trkpt lat="45.61452200848335" lon="11.21734319227296"><ele>552.75</ele><time>2026-05-01T09:18:30Z</time></trkpt><trkpt lat="45.61439899470202" lon="11.217310877054729"><ele>547.0</ele><time>2026-05-01T09:18:31Z</time></trkpt><trkpt lat="45.61425956009297" lon="11.217241938271506"><ele>547.0</ele><time>2026-05-01T09:18:32Z</time></trkpt><trkpt lat="45.614098875995644" lon="11.21714512103893"><ele>547.0</ele><time>2026-05-01T09:18:33Z</time></trkpt><trkpt lat="45.613940034140604" lon="11.21706602030747"><ele>547.0</ele><time>2026-05-01T09:18:34Z</time></trkpt><trkpt lat="45.61381754276092" lon="11.216970449739781"><ele>547.0</ele><time>2026-05-01T09:18:35Z</time></trkpt><trkpt lat="45.61371508543431" lon="11.216877126851772"><ele>547.0</ele><time>2026-05-01T09:18:36Z</time></trkpt><trkpt lat="45.6136434948595" lon="11.216768908553437"><ele>547.0</ele><time>2026-05-01T09:18:37Z</time></trkpt><trkpt lat="45.61360553037451" lon="11.216669302536928"><ele>547.0</ele><time>2026-05-01T09:18:38Z</time></trkpt><trkpt lat="45.613497125026136" lon="11.216707920495294"><ele>547.0</ele><time>2026-05-01T09:18:40Z</time></trkpt><trkpt lat="45.613504185646796" lon="11.216917840838079"><ele>547.0</ele><time>2026-05-01T09:18:42Z</time></trkpt><trkpt lat="45.613622555901614" lon="11.216988835367102"><ele>547.0</ele><time>2026-05-01T09:18:43Z</time></trkpt><trkpt lat="45.61371395349134" lon="11.217095088907522"><ele>547.0</ele><time>2026-05-01T09:18:44Z</time></trkpt><trkpt lat="45.61380839887765" lon="11.217206135454155"><ele>547.0</ele><time>2026-05-01T09:18:45Z</time></trkpt><trkpt lat="45.61389887125902" lon="11.217323392277882"><ele>540.2</ele><time>2026-05-01T09:18:46Z</time></trkpt><trkpt lat="45.61398511219942" lon="11.217443125339368"><ele>533.4000000000001</ele><time>2026-05-01T09:18:47Z</time></trkpt><trkpt lat="45.61406460567035" lon="11.21756021776959"><ele>526.5999999999999</ele><time>2026-05-01T09:18:48Z</time></trkpt><trkpt lat="45.61413289961596" lon="11.217666240842208"><ele>519.8</ele><time>2026-05-01T09:18:49Z</time></trkpt><trkpt lat="45.614209064229016" lon="11.217754147482864"><ele>513.0</ele><time>2026-05-01T09:18:50Z</time></trkpt><trkpt lat="45.61427931059984" lon="11.217856851714625"><ele>513.0</ele><time>2026-05-01T09:18:51Z</time></trkpt><trkpt lat="45.614364324114" lon="11.217954358126665"><ele>513.0</ele><time>2026-05-01T09:18:52Z</time></trkpt><trkpt lat="45.614457665477865" lon="11.218038563283402"><ele>513.0</ele><time>2026-05-01T09:18:53Z</time></trkpt><trkpt lat="45.614564888742386" lon="11.218107599901566"><ele>513.0</ele><time>2026-05-01T09:18:54Z</time></trkpt><trkpt lat="45.61466823150392" lon="11.21817571663627"><ele>506.75</ele><time>2026-05-01T09:18:55Z</time></trkpt><trkpt lat="45.61478619850875" lon="11.218240877828107"><ele>500.5</ele><time>2026-05-01T09:18:56Z</time></trkpt><trkpt lat="45.61491244172256" lon="11.21828669525741"><ele>494.25</ele><time>2026-05-01T09:18:57Z</time></trkpt><trkpt lat="45.61504274118888" lon="11.218338206568534"><ele>488.0</ele><time>2026-05-01T09:18:58Z</time></trkpt><trkpt lat="45.615166098136015" lon="11.21839660305753"><ele>488.0</ele><time>2026-05-01T09:18:59Z</time></trkpt><trkpt lat="45.61528286643879" lon="11.218462371061143"><ele>488.0</ele><time>2026-05-01T09:19:00Z</time></trkpt><trkpt lat="45.615382297011436" lon="11.218546691324352"><ele>488.0</ele><time>2026-05-01T09:19:01Z</time></trkpt><trkpt lat="45.615472203481886" lon="11.218662949198926"><ele>488.0</ele><time>2026-05-01T09:19:02Z</time></trkpt><trkpt lat="45.61554142266192" lon="11.218795171681123"><ele>486.4</ele><time>2026-05-01T09:19:03Z</time></trkpt><trkpt lat="45.61558743623634" lon="11.218924083273286"><ele>484.79999999999995</ele><time>2026-05-01T09:19:04Z</time></trkpt><trkpt lat="45.61562279011394" lon="11.21903303281395"><ele>483.2</ele><time>2026-05-01T09:19:05Z</time></trkpt><trkpt lat="45.61565129436549" lon="11.21918098107728"><ele>481.6</ele><time>2026-05-01T09:19:07Z</time></trkpt><trkpt lat="45.615564077638794" lon="11.219195993461458"><ele>480.0</ele><time>2026-05-01T09:19:09Z</time></trkpt><trkpt lat="45.61550186459694" lon="11.219109023919351"><ele>480.0</ele><time>2026-05-01T09:19:10Z</time></trkpt><trkpt lat="45.615447338734526" lon="11.218992470634827"><ele>480.0</ele><time>2026-05-01T09:19:11Z</time></trkpt><trkpt lat="45.61535579277936" lon="11.218908742412593"><ele>480.0</ele><time>2026-05-01T09:19:12Z</time></trkpt><trkpt lat="45.615237301486296" lon="11.218877706117846"><ele>480.0</ele><time>2026-05-01T09:19:13Z</time></trkpt><trkpt lat="45.6151279249994" lon="11.218862383402769"><ele>480.0</ele><time>2026-05-01T09:19:14Z</time></trkpt><trkpt lat="45.615041316850316" lon="11.218843830863584"><ele>481.3333333333333</ele><time>2026-05-01T09:19:15Z</time></trkpt><trkpt lat="45.6149425724913" lon="11.218887121694372"><ele>482.66666666666663</ele><time>2026-05-01T09:19:17Z</time></trkpt><trkpt lat="45.6149504486571" lon="11.218982081272411"><ele>484.0</ele><time>2026-05-01T09:19:18Z</time></trkpt><trkpt lat="45.615002837622484" lon="11.219038241344595"><ele>485.3333333333333</ele><time>2026-05-01T09:19:19Z</time></trkpt><trkpt lat="45.615079416913666" lon="11.21904792260066"><ele>486.66666666666663</ele><time>2026-05-01T09:19:20Z</time></trkpt><trkpt lat="45.61515225408931" lon="11.219070916925618"><ele>488.0</ele><time>2026-05-01T09:19:21Z</time></trkpt><trkpt lat="45.615205989247215" lon="11.219175458449389"><ele>479.25</ele><time>2026-05-01T09:19:22Z</time></trkpt><trkpt lat="45.615186969711964" lon="11.219343193602139"><ele>470.5</ele><time>2026-05-01T09:19:23Z</time></trkpt><trkpt lat="45.615197708045315" lon="11.219528670580821"><ele>461.75</ele><time>2026-05-01T09:19:24Z</time></trkpt><trkpt lat="45.61520903654785" lon="11.219726529161983"><ele>453.0</ele><time>2026-05-01T09:19:25Z</time></trkpt><trkpt lat="45.615220265262884" lon="11.21992169678426"><ele>453.4</ele><time>2026-05-01T09:19:26Z</time></trkpt><trkpt lat="45.61522990578452" lon="11.220088316268548"><ele>453.79999999999995</ele><time>2026-05-01T09:19:27Z</time></trkpt><trkpt lat="45.615245790663415" lon="11.220245820156276"><ele>454.2</ele><time>2026-05-01T09:19:28Z</time></trkpt><trkpt lat="45.61528299158875" lon="11.220374245052913"><ele>454.6</ele><time>2026-05-01T09:19:29Z</time></trkpt><trkpt lat="45.61533820053228" lon="11.220488735871356"><ele>455.0</ele><time>2026-05-01T09:19:30Z</time></trkpt><trkpt lat="45.6154324277896" lon="11.220564174209226"><ele>455.0</ele><time>2026-05-01T09:19:31Z</time></trkpt><trkpt lat="45.6155432846205" lon="11.220592709197778"><ele>455.0</ele><time>2026-05-01T09:19:32Z</time></trkpt><trkpt lat="45.615669918238424" lon="11.22066402841961"><ele>455.0</ele><time>2026-05-01T09:19:33Z</time></trkpt><trkpt lat="45.61580867892725" lon="11.22079534777573"><ele>455.0</ele><time>2026-05-01T09:19:34Z</time></trkpt><trkpt lat="45.615957747161794" lon="11.220937005258415"><ele>450.25</ele><time>2026-05-01T09:19:35Z</time></trkpt><trkpt lat="45.61610421159271" lon="11.221040491828854"><ele>445.5</ele><time>2026-05-01T09:19:36Z</time></trkpt><trkpt lat="45.61620974227536" lon="11.22115064465463"><ele>440.75</ele><time>2026-05-01T09:19:37Z</time></trkpt><trkpt lat="45.61628720170663" lon="11.221269139100986"><ele>436.0</ele><time>2026-05-01T09:19:38Z</time></trkpt><trkpt lat="45.61632459562088" lon="11.22143508395086"><ele>432.0</ele><time>2026-05-01T09:19:39Z</time></trkpt><trkpt lat="45.61630935567393" lon="11.221617703836367"><ele>428.0</ele><time>2026-05-01T09:19:40Z</time></trkpt><trkpt lat="45.61638016465049" lon="11.221747332566734"><ele>424.0</ele><time>2026-05-01T09:19:41Z</time></trkpt><trkpt lat="45.61647984704157" lon="11.22186058707802"><ele>420.0</ele><time>2026-05-01T09:19:42Z</time></trkpt><trkpt lat="45.61659814006738" lon="11.22195499851436"><ele>420.0</ele><time>2026-05-01T09:19:43Z</time></trkpt><trkpt lat="45.616703619814736" lon="11.222049272867169"><ele>420.0</ele><time>2026-05-01T09:19:44Z</time></trkpt><trkpt lat="45.61679871228013" lon="11.222171036769366"><ele>420.0</ele><time>2026-05-01T09:19:45Z</time></trkpt><trkpt lat="45.61689544842333" lon="11.222259169689805"><ele>420.0</ele><time>2026-05-01T09:19:46Z</time></trkpt><trkpt lat="45.61698110075111" lon="11.222342571796933"><ele>416.8</ele><time>2026-05-01T09:19:47Z</time></trkpt><trkpt lat="45.61705613852437" lon="11.222416177991905"><ele>413.6</ele><time>2026-05-01T09:19:48Z</time></trkpt><trkpt lat="45.61712942674675" lon="11.222461019899413"><ele>410.4</ele><time>2026-05-01T09:19:49Z</time></trkpt><trkpt lat="45.61721341608314" lon="11.222464325129351"><ele>407.2</ele><time>2026-05-01T09:19:50Z</time></trkpt><trkpt lat="45.61730344940121" lon="11.222442327326927"><ele>404.0</ele><time>2026-05-01T09:19:51Z</time></trkpt><trkpt lat="45.61740132283315" lon="11.22239315477387"><ele>403.99999999999994</ele><time>2026-05-01T09:19:52Z</time></trkpt><trkpt lat="45.61748832821947" lon="11.222360489962469"><ele>404.0</ele><time>2026-05-01T09:19:53Z</time></trkpt><trkpt lat="45.6175742788426" lon="11.222347615268236"><ele>404.0</ele><time>2026-05-01T09:19:54Z</time></trkpt><trkpt lat="45.61765532399953" lon="11.22238209515429"><ele>404.0</ele><time>2026-05-01T09:19:55Z</time></trkpt><trkpt lat="45.61772824610868" lon="11.22244358521027"><ele>403.99999999999994</ele><time>2026-05-01T09:19:56Z</time></trkpt><trkpt lat="45.61781352653045" lon="11.222495443841742"><ele>404.0</ele><time>2026-05-01T09:19:57Z</time></trkpt><trkpt lat="45.61790360035565" lon="11.222534302395571"><ele>402.2</ele><time>2026-05-01T09:19:58Z</time></trkpt><trkpt lat="45.61799820645467" lon="11.22254070334009"><ele>400.4</ele><time>2026-05-01T09:19:59Z</time></trkpt><trkpt lat="45.61809397931564" lon="11.222548267778677"><ele>398.6</ele><time>2026-05-01T09:20:00Z</time></trkpt><trkpt lat="45.618190390940114" lon="11.222554756045552"><ele>396.8</ele><time>2026-05-01T09:20:01Z</time></trkpt><trkpt lat="45.61829099091062" lon="11.222546778334856"><ele>395.0</ele><time>2026-05-01T09:20:02Z</time></trkpt><trkpt lat="45.61837751426289" lon="11.222552485998232"><ele>394.99999999999994</ele><time>2026-05-01T09:20:03Z</time></trkpt><trkpt lat="45.61845209175149" lon="11.222576584113282"><ele>395.0</ele><time>2026-05-01T09:20:04Z</time></trkpt><trkpt lat="45.618520093536326" lon="11.222585560188453"><ele>395.0</ele><time>2026-05-01T09:20:05Z</time></trkpt><trkpt lat="45.61858351893553" lon="11.22260293080206"><ele>395.0</ele><time>2026-05-01T09:20:06Z</time></trkpt><trkpt lat="45.618701907676744" lon="11.222620462969335"><ele>394.99999999999994</ele><time>2026-05-01T09:20:08Z</time></trkpt><trkpt lat="45.61880798008304" lon="11.222603368799339"><ele>395.0</ele><time>2026-05-01T09:20:10Z</time></trkpt><trkpt lat="45.618866786049495" lon="11.222444614853725"><ele>393.49999999999994</ele><time>2026-05-01T09:20:12Z</time></trkpt><trkpt lat="45.61886303422061" lon="11.22232797061833"><ele>392.0</ele><time>2026-05-01T09:20:13Z</time></trkpt><trkpt lat="45.61884174681275" lon="11.222209630741144"><ele>390.5</ele><time>2026-05-01T09:20:14Z</time></trkpt><trkpt lat="45.61881064537471" lon="11.222083010145964"><ele>389.0</ele><time>2026-05-01T09:20:15Z</time></trkpt><trkpt lat="45.618801126077" lon="11.221961126571685"><ele>387.49999999999994</ele><time>2026-05-01T09:20:16Z</time></trkpt><trkpt lat="45.618825636214" lon="11.221847273185144"><ele>386.0</ele><time>2026-05-01T09:20:17Z</time></trkpt><trkpt lat="45.61890855811846" lon="11.221756391709784"><ele>385.99999999999994</ele><time>2026-05-01T09:20:18Z</time></trkpt><trkpt lat="45.618965008625" lon="11.22163727389877"><ele>386.0</ele><time>2026-05-01T09:20:19Z</time></trkpt><trkpt lat="45.61903024320243" lon="11.22153406162307"><ele>386.0</ele><time>2026-05-01T09:20:20Z</time></trkpt><trkpt lat="45.619091236585085" lon="11.221422402822771"><ele>386.0</ele><time>2026-05-01T09:20:21Z</time></trkpt><trkpt lat="45.619151167487104" lon="11.221331850334675"><ele>385.99999999999994</ele><time>2026-05-01T09:20:22Z</time></trkpt><trkpt lat="45.61917527548338" lon="11.221248666531526"><ele>386.0</ele><time>2026-05-01T09:20:23Z</time></trkpt><trkpt lat="45.61922432734048" lon="11.221165364809814"><ele>385.99999999999994</ele><time>2026-05-01T09:20:25Z</time></trkpt><trkpt lat="45.61927321309982" lon="11.221272120116371"><ele>386.0</ele><time>2026-05-01T09:20:27Z</time></trkpt><trkpt lat="45.61921880602254" lon="11.221364686132976"><ele>386.0</ele><time>2026-05-01T09:20:28Z</time></trkpt><trkpt lat="45.61916544996921" lon="11.221465247781104"><ele>386.0</ele><time>2026-05-01T09:20:29Z</time></trkpt><trkpt lat="45.61913074813598" lon="11.221580110325128"><ele>385.99999999999994</ele><time>2026-05-01T09:20:30Z</time></trkpt><trkpt lat="45.61909804380784" lon="11.221703341762778"><ele>386.0</ele><time>2026-05-01T09:20:31Z</time></trkpt><trkpt lat="45.61909808152795" lon="11.221830490907802"><ele>386.0</ele><time>2026-05-01T09:20:32Z</time></trkpt><trkpt lat="45.61911728720307" lon="11.221955548686367"><ele>386.0</ele><time>2026-05-01T09:20:33Z</time></trkpt><trkpt lat="45.61917287193434" lon="11.22206830225715"><ele>386.0</ele><time>2026-05-01T09:20:34Z</time></trkpt><trkpt lat="45.619251586167906" lon="11.222161373136151"><ele>386.0</ele><time>2026-05-01T09:20:35Z</time></trkpt><trkpt lat="45.619338078147535" lon="11.22224963630446"><ele>386.0</ele><time>2026-05-01T09:20:36Z</time></trkpt><trkpt lat="45.61940452946317" lon="11.222363239101426"><ele>381.8</ele><time>2026-05-01T09:20:37Z</time></trkpt><trkpt lat="45.61947302216546" lon="11.222458350285402"><ele>377.6</ele><time>2026-05-01T09:20:38Z</time></trkpt><trkpt lat="45.61952526756386" lon="11.222543037011395"><ele>373.4</ele><time>2026-05-01T09:20:39Z</time></trkpt><trkpt lat="45.619555564717" lon="11.222686054954103"><ele>369.2</ele><time>2026-05-01T09:20:41Z</time></trkpt><trkpt lat="45.61946803888049" lon="11.222802363490596"><ele>365.0</ele><time>2026-05-01T09:20:43Z</time></trkpt><trkpt lat="45.61940238953883" lon="11.22284401031991"><ele>365.0</ele><time>2026-05-01T09:20:44Z</time></trkpt><trkpt lat="45.619321577330325" lon="11.2228467265204"><ele>365.0</ele><time>2026-05-01T09:20:45Z</time></trkpt><trkpt lat="45.61924346522439" lon="11.22286435708874"><ele>365.0</ele><time>2026-05-01T09:20:46Z</time></trkpt><trkpt lat="45.61915768373428" lon="11.222896591760822"><ele>365.0</ele><time>2026-05-01T09:20:47Z</time></trkpt><trkpt lat="45.6190788992879" lon="11.222979086546486"><ele>365.0</ele><time>2026-05-01T09:20:48Z</time></trkpt><trkpt lat="45.6190062969903" lon="11.223085914466637"><ele>360.8</ele><time>2026-05-01T09:20:49Z</time></trkpt><trkpt lat="45.61893412197737" lon="11.223190534677714"><ele>356.6</ele><time>2026-05-01T09:20:50Z</time></trkpt><trkpt lat="45.618865427771425" lon="11.223309061161512"><ele>352.4</ele><time>2026-05-01T09:20:51Z</time></trkpt><trkpt lat="45.61879738169916" lon="11.223431021689699"><ele>348.2</ele><time>2026-05-01T09:20:52Z</time></trkpt><trkpt lat="45.6187367394457" lon="11.223557768855695"><ele>344.0</ele><time>2026-05-01T09:20:53Z</time></trkpt><trkpt lat="45.618682329053506" lon="11.223681904349315"><ele>344.5</ele><time>2026-05-01T09:20:54Z</time></trkpt><trkpt lat="45.61863210957721" lon="11.223795923253535"><ele>345.0</ele><time>2026-05-01T09:20:55Z</time></trkpt><trkpt lat="45.618590181194385" lon="11.223893104286251"><ele>345.5</ele><time>2026-05-01T09:20:56Z</time></trkpt><trkpt lat="45.618556130196815" lon="11.22397044204018"><ele>346.0</ele><time>2026-05-01T09:20:57Z</time></trkpt><trkpt lat="45.618505433724586" lon="11.224061142953966"><ele>346.5</ele><time>2026-05-01T09:20:59Z</time></trkpt><trkpt lat="45.618602043614715" lon="11.22414667251341"><ele>347.0</ele><time>2026-05-01T09:21:00Z</time></trkpt><trkpt lat="45.61867350342987" lon="11.224158531869199"><ele>345.0</ele><time>2026-05-01T09:21:01Z</time></trkpt><trkpt lat="45.61874534914771" lon="11.224171079857776"><ele>343.0</ele><time>2026-05-01T09:21:02Z</time></trkpt><trkpt lat="45.6188267880718" lon="11.224206910851555"><ele>341.0</ele><time>2026-05-01T09:21:03Z</time></trkpt><trkpt lat="45.61890772826234" lon="11.224254375829592"><ele>339.0</ele><time>2026-05-01T09:21:04Z</time></trkpt><trkpt lat="45.61898739973329" lon="11.224288928438211"><ele>337.0</ele><time>2026-05-01T09:21:05Z</time></trkpt><trkpt lat="45.61906706208902" lon="11.22430544582012"><ele>335.0</ele><time>2026-05-01T09:21:06Z</time></trkpt><trkpt lat="45.61914394071912" lon="11.224294546485682"><ele>335.0</ele><time>2026-05-01T09:21:07Z</time></trkpt><trkpt lat="45.61921715474343" lon="11.22424943400041"><ele>335.0</ele><time>2026-05-01T09:21:08Z</time></trkpt><trkpt lat="45.61928753547061" lon="11.224156238256473"><ele>335.0</ele><time>2026-05-01T09:21:09Z</time></trkpt><trkpt lat="45.619374452830456" lon="11.224023825954825"><ele>335.0</ele><time>2026-05-01T09:21:10Z</time></trkpt><trkpt lat="45.61947658971859" lon="11.223877629886287"><ele>335.0</ele><time>2026-05-01T09:21:11Z</time></trkpt><trkpt lat="45.619591854069796" lon="11.223733429119294"><ele>335.8</ele><time>2026-05-01T09:21:12Z</time></trkpt><trkpt lat="45.61969381136874" lon="11.223609382618864"><ele>336.6</ele><time>2026-05-01T09:21:13Z</time></trkpt><trkpt lat="45.61977368621541" lon="11.223502681562037"><ele>337.4</ele><time>2026-05-01T09:21:14Z</time></trkpt><trkpt lat="45.619830513706816" lon="11.223428508757387"><ele>338.2</ele><time>2026-05-01T09:21:15Z</time></trkpt><trkpt lat="45.61991324431091" lon="11.223356343035046"><ele>339.0</ele><time>2026-05-01T09:21:17Z</time></trkpt><trkpt lat="45.620002079651336" lon="11.22351257173899"><ele>339.0</ele><time>2026-05-01T09:21:20Z</time></trkpt><trkpt lat="45.620064224938545" lon="11.223606384379313"><ele>339.0</ele><time>2026-05-01T09:21:22Z</time></trkpt><trkpt lat="45.620157090651816" lon="11.22351253674837"><ele>339.0</ele><time>2026-05-01T09:21:23Z</time></trkpt><trkpt lat="45.62024993926968" lon="11.223439876766948"><ele>339.0</ele><time>2026-05-01T09:21:25Z</time></trkpt><trkpt lat="45.620320058660205" lon="11.22349182864152"><ele>339.0</ele><time>2026-05-01T09:21:27Z</time></trkpt><trkpt lat="45.62045209821558" lon="11.223423263595128"><ele>340.6666666666667</ele><time>2026-05-01T09:21:29Z</time></trkpt><trkpt lat="45.62053291086598" lon="11.223396744044331"><ele>342.3333333333333</ele><time>2026-05-01T09:21:30Z</time></trkpt><trkpt lat="45.6206115535846" lon="11.223363599526744"><ele>344.0</ele><time>2026-05-01T09:21:31Z</time></trkpt><trkpt lat="45.62068550771414" lon="11.223332431033219"><ele>345.66666666666663</ele><time>2026-05-01T09:21:32Z</time></trkpt><trkpt lat="45.62074878664605" lon="11.223305761658464"><ele>347.3333333333333</ele><time>2026-05-01T09:21:33Z</time></trkpt><trkpt lat="45.62083771906464" lon="11.223277219726391"><ele>349.0</ele><time>2026-05-01T09:21:35Z</time></trkpt><trkpt lat="45.620744550732674" lon="11.223347516057446"><ele>348.99999999999994</ele><time>2026-05-01T09:21:39.999Z</time></trkpt><trkpt lat="45.620678196586375" lon="11.223388816643935"><ele>349.0</ele><time>2026-05-01T09:21:40.999Z</time></trkpt><trkpt lat="45.620617588558964" lon="11.223420888473399"><ele>349.0</ele><time>2026-05-01T09:21:41.999Z</time></trkpt><trkpt lat="45.62055417305662" lon="11.223450396388943"><ele>349.0</ele><time>2026-05-01T09:21:43Z</time></trkpt><trkpt lat="45.62049577685485" lon="11.223485132221352"><ele>349.0</ele><time>2026-05-01T09:21:44Z</time></trkpt><trkpt lat="45.620434173513765" lon="11.22352745728577"><ele>348.99999999999994</ele><time>2026-05-01T09:21:45Z</time></trkpt><trkpt lat="45.6203780063859" lon="11.223575906288097"><ele>349.0</ele><time>2026-05-01T09:21:46Z</time></trkpt><trkpt lat="45.62032356667714" lon="11.2236293870595"><ele>348.0</ele><time>2026-05-01T09:21:47Z</time></trkpt><trkpt lat="45.62024845953134" lon="11.22377519384038"><ele>347.0</ele><time>2026-05-01T09:21:49Z</time></trkpt><trkpt lat="45.62023206599452" lon="11.223886848411958"><ele>346.0</ele><time>2026-05-01T09:21:50Z</time></trkpt><trkpt lat="45.62022476238075" lon="11.223998357533048"><ele>345.0</ele><time>2026-05-01T09:21:51Z</time></trkpt><trkpt lat="45.620215296105776" lon="11.224120619906891"><ele>344.0</ele><time>2026-05-01T09:21:52Z</time></trkpt><trkpt lat="45.62020465870355" lon="11.22424357230781"><ele>344.0</ele><time>2026-05-01T09:21:53Z</time></trkpt><trkpt lat="45.62018881300458" lon="11.224371555210642"><ele>344.0</ele><time>2026-05-01T09:21:54Z</time></trkpt><trkpt lat="45.620182604155836" lon="11.224496694387271"><ele>344.0</ele><time>2026-05-01T09:21:55Z</time></trkpt><trkpt lat="45.62014678640916" lon="11.224617196564756"><ele>344.0</ele><time>2026-05-01T09:21:56Z</time></trkpt><trkpt lat="45.62012499417702" lon="11.224737325364456"><ele>344.0</ele><time>2026-05-01T09:21:57Z</time></trkpt><trkpt lat="45.620101480258235" lon="11.224859475016347"><ele>344.0</ele><time>2026-05-01T09:21:58Z</time></trkpt><trkpt lat="45.62007443107829" lon="11.224974599025954"><ele>346.1666666666667</ele><time>2026-05-01T09:21:59Z</time></trkpt><trkpt lat="45.6200367522635" lon="11.225086035288829"><ele>348.33333333333337</ele><time>2026-05-01T09:22:00Z</time></trkpt><trkpt lat="45.620011937807234" lon="11.225210644791234"><ele>350.5</ele><time>2026-05-01T09:22:01Z</time></trkpt><trkpt lat="45.619960809770234" lon="11.225313014802532"><ele>352.6666666666667</ele><time>2026-05-01T09:22:02Z</time></trkpt><trkpt lat="45.6199245889996" lon="11.225416219735346"><ele>354.8333333333333</ele><time>2026-05-01T09:22:03Z</time></trkpt><trkpt lat="45.6198895446663" lon="11.225515258549217"><ele>357.0</ele><time>2026-05-01T09:22:04Z</time></trkpt><trkpt lat="45.619857820792106" lon="11.225612557787287"><ele>358.0</ele><time>2026-05-01T09:22:05Z</time></trkpt><trkpt lat="45.61983364466386" lon="11.225708987052926"><ele>359.0</ele><time>2026-05-01T09:22:06Z</time></trkpt><trkpt lat="45.61981924189143" lon="11.2258698881078"><ele>360.0</ele><time>2026-05-01T09:22:08Z</time></trkpt><trkpt lat="45.6197806696581" lon="11.225958452938833"><ele>361.0</ele><time>2026-05-01T09:22:11Z</time></trkpt><trkpt lat="45.61994548661599" lon="11.225999612817427"><ele>362.0</ele><time>2026-05-01T09:22:14Z</time></trkpt><trkpt lat="45.62000819950477" lon="11.225946411517599"><ele>362.0</ele><time>2026-05-01T09:22:15Z</time></trkpt><trkpt lat="45.6200693635598" lon="11.225918012939484"><ele>362.0</ele><time>2026-05-01T09:22:16Z</time></trkpt><trkpt lat="45.62013943126657" lon="11.225900266575843"><ele>362.0</ele><time>2026-05-01T09:22:17Z</time></trkpt><trkpt lat="45.62021874354406" lon="11.225898183265729"><ele>362.0</ele><time>2026-05-01T09:22:18Z</time></trkpt><trkpt lat="45.62030535802398" lon="11.225889956022217"><ele>362.0</ele><time>2026-05-01T09:22:19Z</time></trkpt><trkpt lat="45.62038852504573" lon="11.225879019183207"><ele>362.0</ele><time>2026-05-01T09:22:20Z</time></trkpt><trkpt lat="45.62046765446827" lon="11.22585807465312"><ele>364.33333333333337</ele><time>2026-05-01T09:22:21Z</time></trkpt><trkpt lat="45.620547299648834" lon="11.225837765779966"><ele>366.6666666666667</ele><time>2026-05-01T09:22:22Z</time></trkpt><trkpt lat="45.62063082955153" lon="11.22582456505356"><ele>369.0</ele><time>2026-05-01T09:22:23Z</time></trkpt><trkpt lat="45.620716190178214" lon="11.225814626079112"><ele>371.3333333333333</ele><time>2026-05-01T09:22:24Z</time></trkpt><trkpt lat="45.620788747617446" lon="11.225809883009997"><ele>373.66666666666663</ele><time>2026-05-01T09:22:25Z</time></trkpt><trkpt lat="45.620864676642164" lon="11.22582036494393"><ele>376.0</ele><time>2026-05-01T09:22:26Z</time></trkpt><trkpt lat="45.62094557268761" lon="11.225841348018465"><ele>376.0</ele><time>2026-05-01T09:22:27Z</time></trkpt><trkpt lat="45.62102629508377" lon="11.225871434691001"><ele>376.0</ele><time>2026-05-01T09:22:28Z</time></trkpt><trkpt lat="45.62110887920266" lon="11.225917950683806"><ele>376.0</ele><time>2026-05-01T09:22:29Z</time></trkpt><trkpt lat="45.621198375378796" lon="11.225949910010712"><ele>376.0</ele><time>2026-05-01T09:22:30Z</time></trkpt><trkpt lat="45.621292136255335" lon="11.225994306277085"><ele>376.0</ele><time>2026-05-01T09:22:31Z</time></trkpt><trkpt lat="45.6213834065467" lon="11.226041704108678"><ele>379.20000000000005</ele><time>2026-05-01T09:22:32Z</time></trkpt><trkpt lat="45.62148138465934" lon="11.226090558570997"><ele>382.40000000000003</ele><time>2026-05-01T09:22:33Z</time></trkpt><trkpt lat="45.621575271699506" lon="11.226140278841633"><ele>385.6</ele><time>2026-05-01T09:22:34Z</time></trkpt><trkpt lat="45.621656581636486" lon="11.22619392453811"><ele>388.8</ele><time>2026-05-01T09:22:35Z</time></trkpt><trkpt lat="45.621711692807885" lon="11.22624384776754"><ele>392.0</ele><time>2026-05-01T09:22:36Z</time></trkpt><trkpt lat="45.62180750974268" lon="11.226287990382136"><ele>391.99999999999994</ele><time>2026-05-01T09:22:38Z</time></trkpt><trkpt lat="45.62186683398069" lon="11.22614420961871"><ele>392.0</ele><time>2026-05-01T09:22:40Z</time></trkpt><trkpt lat="45.62184178104133" lon="11.226042813011144"><ele>392.0</ele><time>2026-05-01T09:22:41Z</time></trkpt><trkpt lat="45.62179937361525" lon="11.225954965946901"><ele>392.0</ele><time>2026-05-01T09:22:42Z</time></trkpt><trkpt lat="45.62176379088303" lon="11.22587455426913"><ele>391.99999999999994</ele><time>2026-05-01T09:22:43Z</time></trkpt><trkpt lat="45.62172333161823" lon="11.22579566124774"><ele>392.0</ele><time>2026-05-01T09:22:44Z</time></trkpt><trkpt lat="45.621678342405716" lon="11.225726419291542"><ele>392.0</ele><time>2026-05-01T09:22:45Z</time></trkpt><trkpt lat="45.62161863663802" lon="11.225674056649332"><ele>392.0</ele><time>2026-05-01T09:22:46Z</time></trkpt><trkpt lat="45.62155965885159" lon="11.225626353427565"><ele>392.0</ele><time>2026-05-01T09:22:47Z</time></trkpt><trkpt lat="45.62150541812147" lon="11.225562880831278"><ele>392.0</ele><time>2026-05-01T09:22:48Z</time></trkpt><trkpt lat="45.62146657489576" lon="11.225482355550334"><ele>392.0</ele><time>2026-05-01T09:22:49Z</time></trkpt><trkpt lat="45.621429192335" lon="11.225400404581803"><ele>392.0</ele><time>2026-05-01T09:22:50Z</time></trkpt><trkpt lat="45.62139235864157" lon="11.225313841758949"><ele>392.0</ele><time>2026-05-01T09:22:51Z</time></trkpt><trkpt lat="45.6213579669605" lon="11.225218532336028"><ele>394.42857142857144</ele><time>2026-05-01T09:22:52Z</time></trkpt><trkpt lat="45.62132270871239" lon="11.225125356977443"><ele>396.8571428571429</ele><time>2026-05-01T09:22:53Z</time></trkpt><trkpt lat="45.62128094599375" lon="11.225026306002452"><ele>399.2857142857143</ele><time>2026-05-01T09:22:54Z</time></trkpt><trkpt lat="45.621256920898325" lon="11.224921858505947"><ele>401.7142857142857</ele><time>2026-05-01T09:22:55Z</time></trkpt><trkpt lat="45.62122198874832" lon="11.224826152994945"><ele>404.14285714285717</ele><time>2026-05-01T09:22:56Z</time></trkpt><trkpt lat="45.6211907459688" lon="11.224733757477338"><ele>406.57142857142856</ele><time>2026-05-01T09:22:57Z</time></trkpt><trkpt lat="45.62116706406458" lon="11.224642844077827"><ele>409.0</ele><time>2026-05-01T09:22:58Z</time></trkpt><trkpt lat="45.621147385689646" lon="11.224556253634377"><ele>409.1666666666667</ele><time>2026-05-01T09:22:59Z</time></trkpt><trkpt lat="45.62116766697421" lon="11.224461561512237"><ele>409.33333333333337</ele><time>2026-05-01T09:23:00Z</time></trkpt><trkpt lat="45.62121136882519" lon="11.224383541334529"><ele>409.5</ele><time>2026-05-01T09:23:01Z</time></trkpt><trkpt lat="45.62128117726363" lon="11.224335500627216"><ele>409.66666666666663</ele><time>2026-05-01T09:23:02Z</time></trkpt><trkpt lat="45.62136696260594" lon="11.224310975172042"><ele>409.8333333333333</ele><time>2026-05-01T09:23:03Z</time></trkpt><trkpt lat="45.62145678022136" lon="11.224283857554402"><ele>410.0</ele><time>2026-05-01T09:23:04Z</time></trkpt><trkpt lat="45.62154000768171" lon="11.224247985536456"><ele>409.99999999999994</ele><time>2026-05-01T09:23:05Z</time></trkpt><trkpt lat="45.62162543824992" lon="11.224202552615152"><ele>410.0</ele><time>2026-05-01T09:23:06Z</time></trkpt><trkpt lat="45.62170744451201" lon="11.22415740873806"><ele>410.0</ele><time>2026-05-01T09:23:07Z</time></trkpt><trkpt lat="45.62178556310982" lon="11.22410995108731"><ele>410.0</ele><time>2026-05-01T09:23:08Z</time></trkpt><trkpt lat="45.621863019171634" lon="11.224057753060727"><ele>409.99999999999994</ele><time>2026-05-01T09:23:09Z</time></trkpt><trkpt lat="45.62194092867362" lon="11.224015903424784"><ele>410.0</ele><time>2026-05-01T09:23:10Z</time></trkpt><trkpt lat="45.622022354116076" lon="11.22399287010258"><ele>410.66666666666663</ele><time>2026-05-01T09:23:11Z</time></trkpt><trkpt lat="45.622106226617994" lon="11.223988413000322"><ele>411.3333333333333</ele><time>2026-05-01T09:23:12Z</time></trkpt><trkpt lat="45.62218927158647" lon="11.223988960810326"><ele>412.0</ele><time>2026-05-01T09:23:13Z</time></trkpt><trkpt lat="45.622273217541505" lon="11.22398360826004"><ele>412.66666666666663</ele><time>2026-05-01T09:23:14Z</time></trkpt><trkpt lat="45.62235143225352" lon="11.223960182111451"><ele>413.3333333333333</ele><time>2026-05-01T09:23:15Z</time></trkpt><trkpt lat="45.62242707753887" lon="11.223911165417428"><ele>414.0</ele><time>2026-05-01T09:23:16Z</time></trkpt><trkpt lat="45.62249622607134" lon="11.223854126400214"><ele>414.0</ele><time>2026-05-01T09:23:17Z</time></trkpt><trkpt lat="45.62256210437267" lon="11.223796124600664"><ele>414.0</ele><time>2026-05-01T09:23:18Z</time></trkpt><trkpt lat="45.62263173202308" lon="11.223728209497912"><ele>414.0</ele><time>2026-05-01T09:23:19Z</time></trkpt><trkpt lat="45.62272044758076" lon="11.223629164828887"><ele>414.0</ele><time>2026-05-01T09:23:20Z</time></trkpt><trkpt lat="45.6228348050016" lon="11.223550404897939"><ele>414.0</ele><time>2026-05-01T09:23:21Z</time></trkpt><trkpt lat="45.62295776649083" lon="11.22345293173468"><ele>423.0</ele><time>2026-05-01T09:23:22Z</time></trkpt><trkpt lat="45.62309569733224" lon="11.223361760625139"><ele>432.0</ele><time>2026-05-01T09:23:23Z</time></trkpt><trkpt lat="45.623239457601805" lon="11.223293975677072"><ele>441.0</ele><time>2026-05-01T09:23:24Z</time></trkpt><trkpt lat="45.62338898718289" lon="11.223245269317053"><ele>441.0</ele><time>2026-05-01T09:23:25Z</time></trkpt><trkpt lat="45.623530742441844" lon="11.223187846886361"><ele>441.0</ele><time>2026-05-01T09:23:26Z</time></trkpt><trkpt lat="45.623658867351956" lon="11.223163422550643"><ele>441.0</ele><time>2026-05-01T09:23:27Z</time></trkpt><trkpt lat="45.62376656320531" lon="11.22313283186336"><ele>441.0</ele><time>2026-05-01T09:23:28Z</time></trkpt><trkpt lat="45.62386333978651" lon="11.223047021485772"><ele>441.25</ele><time>2026-05-01T09:23:29Z</time></trkpt><trkpt lat="45.62395109751115" lon="11.222915681080305"><ele>441.5</ele><time>2026-05-01T09:23:30Z</time></trkpt><trkpt lat="45.62402513561025" lon="11.22275106125577"><ele>441.75</ele><time>2026-05-01T09:23:31Z</time></trkpt><trkpt lat="45.62408474346286" lon="11.222576654599328"><ele>442.0</ele><time>2026-05-01T09:23:32Z</time></trkpt><trkpt lat="45.62413281745486" lon="11.222423898973958"><ele>442.00000000000006</ele><time>2026-05-01T09:23:33Z</time></trkpt><trkpt lat="45.624202003392334" lon="11.222324284889236"><ele>442.0</ele><time>2026-05-01T09:23:34Z</time></trkpt><trkpt lat="45.62426358315475" lon="11.222238620774684"><ele>442.0</ele><time>2026-05-01T09:23:35Z</time></trkpt><trkpt lat="45.62432434083275" lon="11.222177958875946"><ele>442.0</ele><time>2026-05-01T09:23:36Z</time></trkpt><trkpt lat="45.624386686476875" lon="11.222154892368984"><ele>442.00000000000006</ele><time>2026-05-01T09:23:37Z</time></trkpt><trkpt lat="45.62449189056665" lon="11.222236364238713"><ele>442.0</ele><time>2026-05-01T09:23:39Z</time></trkpt><trkpt lat="45.624489468542464" lon="11.222358602990514"><ele>442.0</ele><time>2026-05-01T09:23:40Z</time></trkpt><trkpt lat="45.62442303595499" lon="11.222460506994807"><ele>442.0</ele><time>2026-05-01T09:23:41Z</time></trkpt><trkpt lat="45.62434153197487" lon="11.222568942764953"><ele>442.0</ele><time>2026-05-01T09:23:42Z</time></trkpt><trkpt lat="45.62425222355115" lon="11.22270634959644"><ele>442.0</ele><time>2026-05-01T09:23:43Z</time></trkpt><trkpt lat="45.62416862665714" lon="11.222859690386649"><ele>442.0</ele><time>2026-05-01T09:23:44Z</time></trkpt><trkpt lat="45.62406567739" lon="11.222996820779612"><ele>442.0</ele><time>2026-05-01T09:23:45Z</time></trkpt><trkpt lat="45.623970677741994" lon="11.22315048617947"><ele>442.0</ele><time>2026-05-01T09:23:46Z</time></trkpt><trkpt lat="45.62388058225231" lon="11.22328704802547"><ele>442.0</ele><time>2026-05-01T09:23:47Z</time></trkpt><trkpt lat="45.62376591949653" lon="11.223372959162006"><ele>441.75</ele><time>2026-05-01T09:23:48Z</time></trkpt><trkpt lat="45.623646414466975" lon="11.223458049325641"><ele>441.5</ele><time>2026-05-01T09:23:49Z</time></trkpt><trkpt lat="45.623530826945434" lon="11.22355573278789"><ele>441.25</ele><time>2026-05-01T09:23:50Z</time></trkpt><trkpt lat="45.623409322856766" lon="11.223646937309104"><ele>441.0</ele><time>2026-05-01T09:23:51Z</time></trkpt><trkpt lat="45.623297430355905" lon="11.223755022499772"><ele>441.0</ele><time>2026-05-01T09:23:52Z</time></trkpt><trkpt lat="45.62319593410449" lon="11.223852874728827"><ele>441.0</ele><time>2026-05-01T09:23:53Z</time></trkpt><trkpt lat="45.62310226200422" lon="11.223938348563461"><ele>441.0</ele><time>2026-05-01T09:23:54Z</time></trkpt><trkpt lat="45.62302250613661" lon="11.224026676448622"><ele>441.0</ele><time>2026-05-01T09:23:55Z</time></trkpt><trkpt lat="45.62295599816871" lon="11.224113165525996"><ele>441.0</ele><time>2026-05-01T09:23:56Z</time></trkpt><trkpt lat="45.622901566305515" lon="11.224195607332796"><ele>445.6</ele><time>2026-05-01T09:23:57Z</time></trkpt><trkpt lat="45.62287506302292" lon="11.224292279716423"><ele>450.20000000000005</ele><time>2026-05-01T09:23:58Z</time></trkpt><trkpt lat="45.622858452990606" lon="11.224395298911322"><ele>454.79999999999995</ele><time>2026-05-01T09:23:59Z</time></trkpt><trkpt lat="45.62291415892264" lon="11.224519814839905"><ele>459.4</ele><time>2026-05-01T09:24:00Z</time></trkpt><trkpt lat="45.6229778776944" lon="11.224631809301762"><ele>464.0</ele><time>2026-05-01T09:24:01Z</time></trkpt><trkpt lat="45.623052697956936" lon="11.224748407729933"><ele>463.75</ele><time>2026-05-01T09:24:02Z</time></trkpt><trkpt lat="45.62313164233492" lon="11.224869774678146"><ele>463.5</ele><time>2026-05-01T09:24:03Z</time></trkpt><trkpt lat="45.62321943525325" lon="11.22498743447305"><ele>463.25</ele><time>2026-05-01T09:24:04Z</time></trkpt><trkpt lat="45.62332489591376" lon="11.22508147784915"><ele>463.0</ele><time>2026-05-01T09:24:05Z</time></trkpt><trkpt lat="45.62343778159287" lon="11.225162851438556"><ele>463.0</ele><time>2026-05-01T09:24:06Z</time></trkpt><trkpt lat="45.623544577878086" lon="11.225251999201074"><ele>463.0</ele><time>2026-05-01T09:24:07Z</time></trkpt><trkpt lat="45.62364332552761" lon="11.225352796817202"><ele>463.0</ele><time>2026-05-01T09:24:08Z</time></trkpt><trkpt lat="45.623749411706925" lon="11.225427215311095"><ele>463.0</ele><time>2026-05-01T09:24:09Z</time></trkpt><trkpt lat="45.6238513407897" lon="11.225506100311089"><ele>463.2</ele><time>2026-05-01T09:24:10Z</time></trkpt><trkpt lat="45.623945218845776" lon="11.225585968480821"><ele>463.4</ele><time>2026-05-01T09:24:11Z</time></trkpt><trkpt lat="45.62402355219726" lon="11.225710033959704"><ele>463.59999999999997</ele><time>2026-05-01T09:24:12Z</time></trkpt><trkpt lat="45.62410464596454" lon="11.225816124881383"><ele>463.79999999999995</ele><time>2026-05-01T09:24:13Z</time></trkpt><trkpt lat="45.624195289563595" lon="11.225900084742376"><ele>464.0</ele><time>2026-05-01T09:24:14Z</time></trkpt><trkpt lat="45.62427402841938" lon="11.22600215373171"><ele>464.0</ele><time>2026-05-01T09:24:15Z</time></trkpt><trkpt lat="45.62435243227475" lon="11.226097155984355"><ele>464.0</ele><time>2026-05-01T09:24:16Z</time></trkpt><trkpt lat="45.62444206447169" lon="11.22616097605439"><ele>464.0</ele><time>2026-05-01T09:24:17Z</time></trkpt><trkpt lat="45.624542184761424" lon="11.226211991691692"><ele>464.0</ele><time>2026-05-01T09:24:18Z</time></trkpt><trkpt lat="45.62463766753234" lon="11.226278323268279"><ele>464.0</ele><time>2026-05-01T09:24:19Z</time></trkpt><trkpt lat="45.6247120993846" lon="11.226392251460675"><ele>465.0</ele><time>2026-05-01T09:24:20Z</time></trkpt><trkpt lat="45.62479256302213" lon="11.22650218440585"><ele>466.0</ele><time>2026-05-01T09:24:21Z</time></trkpt><trkpt lat="45.624885051296395" lon="11.226593111388537"><ele>467.0</ele><time>2026-05-01T09:24:22Z</time></trkpt><trkpt lat="45.624961987725904" lon="11.226711820919341"><ele>468.0</ele><time>2026-05-01T09:24:23Z</time></trkpt><trkpt lat="45.625046839480895" lon="11.22681670382807"><ele>469.0</ele><time>2026-05-01T09:24:24Z</time></trkpt><trkpt lat="45.62513086089106" lon="11.226915011428925"><ele>469.0</ele><time>2026-05-01T09:24:25Z</time></trkpt><trkpt lat="45.62521794013643" lon="11.227007274361853"><ele>469.0</ele><time>2026-05-01T09:24:26Z</time></trkpt><trkpt lat="45.6253260709591" lon="11.22706957332256"><ele>469.0</ele><time>2026-05-01T09:24:27Z</time></trkpt><trkpt lat="45.625446821832796" lon="11.227105085790466"><ele>469.0</ele><time>2026-05-01T09:24:28Z</time></trkpt><trkpt lat="45.625560005981654" lon="11.227134835568185"><ele>473.5</ele><time>2026-05-01T09:24:29Z</time></trkpt><trkpt lat="45.62568636690173" lon="11.227163091161044"><ele>478.0</ele><time>2026-05-01T09:24:30Z</time></trkpt><trkpt lat="45.62581636290162" lon="11.227175363071467"><ele>482.5</ele><time>2026-05-01T09:24:31Z</time></trkpt><trkpt lat="45.625947694590316" lon="11.227208138847226"><ele>487.0</ele><time>2026-05-01T09:24:32Z</time></trkpt><trkpt lat="45.626073885787996" lon="11.227299802867549"><ele>485.5</ele><time>2026-05-01T09:24:33Z</time></trkpt><trkpt lat="45.6262090531814" lon="11.227350887747958"><ele>484.0</ele><time>2026-05-01T09:24:34Z</time></trkpt><trkpt lat="45.62633685634039" lon="11.227414507770586"><ele>482.5</ele><time>2026-05-01T09:24:35Z</time></trkpt><trkpt lat="45.626465237933346" lon="11.227480925381629"><ele>481.0</ele><time>2026-05-01T09:24:36Z</time></trkpt><trkpt lat="45.626584782167434" lon="11.227511796010742"><ele>481.0</ele><time>2026-05-01T09:24:37Z</time></trkpt><trkpt lat="45.62670544971554" lon="11.227533817147673"><ele>481.0</ele><time>2026-05-01T09:24:38Z</time></trkpt><trkpt lat="45.62683362295518" lon="11.227545431289585"><ele>481.0</ele><time>2026-05-01T09:24:39Z</time></trkpt><trkpt lat="45.626967197079125" lon="11.227560979083094"><ele>481.0</ele><time>2026-05-01T09:24:40Z</time></trkpt><trkpt lat="45.62710319093854" lon="11.227572146165045"><ele>482.75</ele><time>2026-05-01T09:24:41Z</time></trkpt><trkpt lat="45.62724547372752" lon="11.227552493328885"><ele>484.5</ele><time>2026-05-01T09:24:42Z</time></trkpt><trkpt lat="45.62738864328031" lon="11.227504918244618"><ele>486.25</ele><time>2026-05-01T09:24:43Z</time></trkpt><trkpt lat="45.627539221843605" lon="11.22743887675938"><ele>488.0</ele><time>2026-05-01T09:24:44Z</time></trkpt><trkpt lat="45.62768402972548" lon="11.227371274754185"><ele>491.0</ele><time>2026-05-01T09:24:45Z</time></trkpt><trkpt lat="45.62784196702889" lon="11.227309691218533"><ele>494.0</ele><time>2026-05-01T09:24:46Z</time></trkpt><trkpt lat="45.62799062420212" lon="11.227296080923486"><ele>497.0</ele><time>2026-05-01T09:24:47Z</time></trkpt><trkpt lat="45.62813659819438" lon="11.227317691642428"><ele>497.0</ele><time>2026-05-01T09:24:48Z</time></trkpt><trkpt lat="45.62828956379255" lon="11.227340680274475"><ele>497.0</ele><time>2026-05-01T09:24:49Z</time></trkpt><trkpt lat="45.628439260624326" lon="11.227358161831722"><ele>497.0</ele><time>2026-05-01T09:24:50Z</time></trkpt><trkpt lat="45.628591490469276" lon="11.227347575039097"><ele>498.75</ele><time>2026-05-01T09:24:51Z</time></trkpt><trkpt lat="45.62874421605488" lon="11.22735653450781"><ele>500.5</ele><time>2026-05-01T09:24:52Z</time></trkpt><trkpt lat="45.628891561645005" lon="11.227362297736196"><ele>502.25</ele><time>2026-05-01T09:24:53Z</time></trkpt><trkpt lat="45.629018750796" lon="11.227370875538377"><ele>504.0</ele><time>2026-05-01T09:24:54Z</time></trkpt><trkpt lat="45.62912756590019" lon="11.227411798133081"><ele>504.0</ele><time>2026-05-01T09:24:55Z</time></trkpt><trkpt lat="45.629246124555706" lon="11.2274593054737"><ele>504.0</ele><time>2026-05-01T09:24:56Z</time></trkpt><trkpt lat="45.62936188299492" lon="11.227545957462153"><ele>504.0</ele><time>2026-05-01T09:24:57Z</time></trkpt><trkpt lat="45.629492786713726" lon="11.227648068686511"><ele>504.0</ele><time>2026-05-01T09:24:58Z</time></trkpt><trkpt lat="45.62961825964205" lon="11.227786755458892"><ele>510.33333333333337</ele><time>2026-05-01T09:24:59Z</time></trkpt><trkpt lat="45.629757093261524" lon="11.227875406340921"><ele>516.6666666666667</ele><time>2026-05-01T09:25:00Z</time></trkpt><trkpt lat="45.6299498230696" lon="11.227855815375158"><ele>523.0</ele><time>2026-05-01T09:25:01Z</time></trkpt><trkpt lat="45.630087859176015" lon="11.227976656198042"><ele>523.0</ele><time>2026-05-01T09:25:02Z</time></trkpt><trkpt lat="45.63024186889336" lon="11.228085778381997"><ele>523.0</ele><time>2026-05-01T09:25:03Z</time></trkpt><trkpt lat="45.63037876527355" lon="11.228182784416163"><ele>523.0</ele><time>2026-05-01T09:25:04Z</time></trkpt><trkpt lat="45.63050216124196" lon="11.228259117032238"><ele>524.4</ele><time>2026-05-01T09:25:05Z</time></trkpt><trkpt lat="45.63059388523115" lon="11.228363037745492"><ele>525.8</ele><time>2026-05-01T09:25:06Z</time></trkpt><trkpt lat="45.630665595185725" lon="11.228476476851489"><ele>527.2</ele><time>2026-05-01T09:25:07Z</time></trkpt><trkpt lat="45.63070054269424" lon="11.228610711753483"><ele>528.6</ele><time>2026-05-01T09:25:08Z</time></trkpt><trkpt lat="45.630739631932386" lon="11.22872927592335"><ele>530.0</ele><time>2026-05-01T09:25:09Z</time></trkpt><trkpt lat="45.63077057254114" lon="11.22881228804899"><ele>530.0</ele><time>2026-05-01T09:25:10Z</time></trkpt><trkpt lat="45.6308774072814" lon="11.228837022340999"><ele>530.0</ele><time>2026-05-01T09:25:12Z</time></trkpt><trkpt lat="45.63090235802997" lon="11.228711568372768"><ele>530.0</ele><time>2026-05-01T09:25:13Z</time></trkpt><trkpt lat="45.63087917556042" lon="11.22859541067666"><ele>530.0</ele><time>2026-05-01T09:25:14Z</time></trkpt><trkpt lat="45.63082721181918" lon="11.228481547947126"><ele>530.0</ele><time>2026-05-01T09:25:15Z</time></trkpt><trkpt lat="45.63078203253625" lon="11.228348016245002"><ele>530.0</ele><time>2026-05-01T09:25:16Z</time></trkpt><trkpt lat="45.63074339532601" lon="11.228198306002122"><ele>530.0</ele><time>2026-05-01T09:25:17Z</time></trkpt><trkpt lat="45.63067961103779" lon="11.228057133139048"><ele>530.0</ele><time>2026-05-01T09:25:18Z</time></trkpt><trkpt lat="45.6305937471435" lon="11.227913530413039"><ele>530.0</ele><time>2026-05-01T09:25:19Z</time></trkpt><trkpt lat="45.63050027019697" lon="11.227772764356338"><ele>528.6</ele><time>2026-05-01T09:25:20Z</time></trkpt><trkpt lat="45.63040896580624" lon="11.227635377334684"><ele>527.2</ele><time>2026-05-01T09:25:21Z</time></trkpt><trkpt lat="45.63033873464378" lon="11.22750795618421"><ele>525.8</ele><time>2026-05-01T09:25:22Z</time></trkpt><trkpt lat="45.63027733044339" lon="11.227399916150041"><ele>524.4</ele><time>2026-05-01T09:25:23Z</time></trkpt><trkpt lat="45.63021929390612" lon="11.227276296544497"><ele>523.0</ele><time>2026-05-01T09:25:24Z</time></trkpt><trkpt lat="45.63018004514303" lon="11.227126776778942"><ele>530.25</ele><time>2026-05-01T09:25:25Z</time></trkpt><trkpt lat="45.6301542085918" lon="11.226966588038188"><ele>537.5</ele><time>2026-05-01T09:25:26Z</time></trkpt><trkpt lat="45.63010987017106" lon="11.2268114950424"><ele>544.75</ele><time>2026-05-01T09:25:27Z</time></trkpt><trkpt lat="45.63003747643596" lon="11.226678573241335"><ele>552.0</ele><time>2026-05-01T09:25:28Z</time></trkpt><trkpt lat="45.62995055208172" lon="11.226572320452465"><ele>552.0</ele><time>2026-05-01T09:25:29Z</time></trkpt><trkpt lat="45.62982974696185" lon="11.226493141236602"><ele>552.0</ele><time>2026-05-01T09:25:30Z</time></trkpt><trkpt lat="45.629689443977774" lon="11.226427989349029"><ele>552.0</ele><time>2026-05-01T09:25:31Z</time></trkpt><trkpt lat="45.62955229371281" lon="11.226314577538792"><ele>552.0</ele><time>2026-05-01T09:25:32Z</time></trkpt><trkpt lat="45.629421779982984" lon="11.226213561351887"><ele>558.3333333333334</ele><time>2026-05-01T09:25:33Z</time></trkpt><trkpt lat="45.62928093644584" lon="11.226104751231281"><ele>564.6666666666667</ele><time>2026-05-01T09:25:34Z</time></trkpt><trkpt lat="45.62913819419096" lon="11.226019656363048"><ele>571.0</ele><time>2026-05-01T09:25:35Z</time></trkpt><trkpt lat="45.62900800848123" lon="11.22591493490626"><ele>571.0</ele><time>2026-05-01T09:25:36Z</time></trkpt><trkpt lat="45.628878006382955" lon="11.22579589878655"><ele>571.0</ele><time>2026-05-01T09:25:37Z</time></trkpt><trkpt lat="45.628748019465824" lon="11.225676348405885"><ele>571.0</ele><time>2026-05-01T09:25:38Z</time></trkpt><trkpt lat="45.62862124975648" lon="11.225554512424802"><ele>571.75</ele><time>2026-05-01T09:25:39Z</time></trkpt><trkpt lat="45.6285107763549" lon="11.225429626829888"><ele>572.5</ele><time>2026-05-01T09:25:40Z</time></trkpt><trkpt lat="45.62842221777972" lon="11.2253130948869"><ele>573.25</ele><time>2026-05-01T09:25:41Z</time></trkpt><trkpt lat="45.628333949962055" lon="11.22523488266526"><ele>574.0</ele><time>2026-05-01T09:25:42Z</time></trkpt><trkpt lat="45.62823057993665" lon="11.225211446385932"><ele>574.0</ele><time>2026-05-01T09:25:43Z</time></trkpt><trkpt lat="45.62809595632316" lon="11.225231718098213"><ele>574.0</ele><time>2026-05-01T09:25:44Z</time></trkpt><trkpt lat="45.62795208938721" lon="11.225217843006524"><ele>574.0</ele><time>2026-05-01T09:25:45Z</time></trkpt><trkpt lat="45.627815484791434" lon="11.225204032616656"><ele>574.0</ele><time>2026-05-01T09:25:46Z</time></trkpt><trkpt lat="45.6276962452291" lon="11.225180226486104"><ele>574.0</ele><time>2026-05-01T09:25:47Z</time></trkpt><trkpt lat="45.6276264271802" lon="11.225143396027041"><ele>574.0</ele><time>2026-05-01T09:25:48Z</time></trkpt><trkpt lat="45.62761159495529" lon="11.225031343223115"><ele>574.0</ele><time>2026-05-01T09:25:51Z</time></trkpt><trkpt lat="45.627678191527714" lon="11.22501766562236"><ele>574.0</ele><time>2026-05-01T09:25:52Z</time></trkpt><trkpt lat="45.62776206370149" lon="11.2250496451466"><ele>574.0</ele><time>2026-05-01T09:25:53Z</time></trkpt><trkpt lat="45.627857858790875" lon="11.22507521214637"><ele>574.0</ele><time>2026-05-01T09:25:54Z</time></trkpt><trkpt lat="45.62796833572719" lon="11.225048838394468"><ele>574.0</ele><time>2026-05-01T09:25:54.999Z</time></trkpt><trkpt lat="45.628077530774355" lon="11.224990711540494"><ele>574.0</ele><time>2026-05-01T09:25:55.999Z</time></trkpt><trkpt lat="45.628179002609826" lon="11.224924588716412"><ele>574.0</ele><time>2026-05-01T09:25:56.999Z</time></trkpt><trkpt lat="45.62828529266757" lon="11.224866969889453"><ele>574.0</ele><time>2026-05-01T09:25:57.999Z</time></trkpt><trkpt lat="45.628396442576545" lon="11.22480494203009"><ele>573.5</ele><time>2026-05-01T09:25:58.999Z</time></trkpt><trkpt lat="45.62850826655027" lon="11.224744247215318"><ele>573.0</ele><time>2026-05-01T09:25:59.999Z</time></trkpt><trkpt lat="45.628623235236" lon="11.224690459030708"><ele>572.5</ele><time>2026-05-01T09:26:00.999Z</time></trkpt><trkpt lat="45.62873412211096" lon="11.224635526819885"><ele>572.0</ele><time>2026-05-01T09:26:01.999Z</time></trkpt><trkpt lat="45.62884034440942" lon="11.224565672607849"><ele>572.0</ele><time>2026-05-01T09:26:02.999Z</time></trkpt><trkpt lat="45.628963383595085" lon="11.224573328333989"><ele>572.0</ele><time>2026-05-01T09:26:03.999Z</time></trkpt><trkpt lat="45.62910617573568" lon="11.22457166021185"><ele>572.0</ele><time>2026-05-01T09:26:04.999Z</time></trkpt><trkpt lat="45.62926389705937" lon="11.224565131707312"><ele>572.0</ele><time>2026-05-01T09:26:05.999Z</time></trkpt><trkpt lat="45.629429355707636" lon="11.224560768890173"><ele>575.0</ele><time>2026-05-01T09:26:07Z</time></trkpt><trkpt lat="45.62959653875918" lon="11.22455883882882"><ele>578.0</ele><time>2026-05-01T09:26:08Z</time></trkpt><trkpt lat="45.62976228696849" lon="11.22456035879518"><ele>581.0</ele><time>2026-05-01T09:26:09Z</time></trkpt><trkpt lat="45.629914452833766" lon="11.224568748857214"><ele>581.0</ele><time>2026-05-01T09:26:10Z</time></trkpt><trkpt lat="45.630063491731434" lon="11.224599022551422"><ele>581.0</ele><time>2026-05-01T09:26:11Z</time></trkpt><trkpt lat="45.630219366242244" lon="11.224646442601376"><ele>581.0</ele><time>2026-05-01T09:26:12Z</time></trkpt><trkpt lat="45.63038324257396" lon="11.224677430135289"><ele>581.25</ele><time>2026-05-01T09:26:13Z</time></trkpt><trkpt lat="45.63052280578229" lon="11.224721796284838"><ele>581.5</ele><time>2026-05-01T09:26:14Z</time></trkpt><trkpt lat="45.63064559693421" lon="11.224743943487843"><ele>581.75</ele><time>2026-05-01T09:26:15Z</time></trkpt><trkpt lat="45.63076667282825" lon="11.224713565942313"><ele>582.0</ele><time>2026-05-01T09:26:16Z</time></trkpt><trkpt lat="45.63087546783145" lon="11.224674809149764"><ele>582.0</ele><time>2026-05-01T09:26:17Z</time></trkpt><trkpt lat="45.63097745900438" lon="11.224687647812095"><ele>582.0</ele><time>2026-05-01T09:26:18Z</time></trkpt><trkpt lat="45.63106824761005" lon="11.224730547520434"><ele>582.0</ele><time>2026-05-01T09:26:19Z</time></trkpt><trkpt lat="45.63115798959762" lon="11.224805231918577"><ele>582.0</ele><time>2026-05-01T09:26:20Z</time></trkpt><trkpt lat="45.63124566173222" lon="11.224875857155611"><ele>582.0</ele><time>2026-05-01T09:26:21Z</time></trkpt><trkpt lat="45.63130669727748" lon="11.224932907697786"><ele>586.8333333333334</ele><time>2026-05-01T09:26:22Z</time></trkpt><trkpt lat="45.63135184126706" lon="11.22504091847863"><ele>591.6666666666666</ele><time>2026-05-01T09:26:24Z</time></trkpt><trkpt lat="45.63129451295481" lon="11.22511827672573"><ele>596.5</ele><time>2026-05-01T09:26:25Z</time></trkpt><trkpt lat="45.631212557993116" lon="11.225128604518376"><ele>601.3333333333333</ele><time>2026-05-01T09:26:26Z</time></trkpt><trkpt lat="45.631140462961525" lon="11.225057380069673"><ele>606.1666666666666</ele><time>2026-05-01T09:26:27Z</time></trkpt><trkpt lat="45.631086192249185" lon="11.224961832468978"><ele>611.0</ele><time>2026-05-01T09:26:28Z</time></trkpt><trkpt lat="45.63098856777894" lon="11.224952160231584"><ele>611.0</ele><time>2026-05-01T09:26:30Z</time></trkpt><trkpt lat="45.63097822356877" lon="11.2251466214051"><ele>611.0</ele><time>2026-05-01T09:26:32Z</time></trkpt><trkpt lat="45.63102608356154" lon="11.225258074816043"><ele>611.0</ele><time>2026-05-01T09:26:33Z</time></trkpt><trkpt lat="45.63108355041586" lon="11.225363603953502"><ele>611.0</ele><time>2026-05-01T09:26:34Z</time></trkpt><trkpt lat="45.63117224065256" lon="11.225452997665297"><ele>611.0</ele><time>2026-05-01T09:26:35Z</time></trkpt><trkpt lat="45.63127116701991" lon="11.225490176465987"><ele>612.0</ele><time>2026-05-01T09:26:36Z</time></trkpt><trkpt lat="45.631389195744504" lon="11.225493737290027"><ele>613.0</ele><time>2026-05-01T09:26:37Z</time></trkpt><trkpt lat="45.63148294149698" lon="11.225462871662126"><ele>614.0</ele><time>2026-05-01T09:26:38Z</time></trkpt><trkpt lat="45.63154948228444" lon="11.22538200770661"><ele>615.0</ele><time>2026-05-01T09:26:39Z</time></trkpt><trkpt lat="45.631583910349406" lon="11.225254803762871"><ele>616.0</ele><time>2026-05-01T09:26:40Z</time></trkpt><trkpt lat="45.631606162499395" lon="11.22510879969718"><ele>616.0</ele><time>2026-05-01T09:26:41Z</time></trkpt><trkpt lat="45.631673923628306" lon="11.224996361433055"><ele>616.0</ele><time>2026-05-01T09:26:42Z</time></trkpt><trkpt lat="45.63176273904129" lon="11.224890392124102"><ele>616.0</ele><time>2026-05-01T09:26:43Z</time></trkpt><trkpt lat="45.63185532735124" lon="11.224761321497686"><ele>616.0</ele><time>2026-05-01T09:26:44Z</time></trkpt><trkpt lat="45.63197032226279" lon="11.224644047466093"><ele>618.25</ele><time>2026-05-01T09:26:45Z</time></trkpt><trkpt lat="45.63207588337859" lon="11.224507479734903"><ele>620.5</ele><time>2026-05-01T09:26:46Z</time></trkpt><trkpt lat="45.63215251238106" lon="11.224374980310905"><ele>622.75</ele><time>2026-05-01T09:26:47Z</time></trkpt><trkpt lat="45.63222143969535" lon="11.22426683709339"><ele>625.0</ele><time>2026-05-01T09:26:48Z</time></trkpt><trkpt lat="45.63232353094256" lon="11.224230016201048"><ele>625.0</ele><time>2026-05-01T09:26:49Z</time></trkpt><trkpt lat="45.632449425367184" lon="11.224238468069593"><ele>625.0</ele><time>2026-05-01T09:26:50Z</time></trkpt><trkpt lat="45.632604745427756" lon="11.224249797719066"><ele>625.0</ele><time>2026-05-01T09:26:51Z</time></trkpt><trkpt lat="45.632774423956974" lon="11.22423625329359"><ele>629.75</ele><time>2026-05-01T09:26:52Z</time></trkpt><trkpt lat="45.63293151293274" lon="11.22423473082335"><ele>634.5</ele><time>2026-05-01T09:26:53Z</time></trkpt><trkpt lat="45.633063325759956" lon="11.22419765543407"><ele>639.25</ele><time>2026-05-01T09:26:54Z</time></trkpt><trkpt lat="45.6331893036652" lon="11.224122840959744"><ele>644.0</ele><time>2026-05-01T09:26:55Z</time></trkpt><trkpt lat="45.63332404136706" lon="11.224020741263228"><ele>641.0</ele><time>2026-05-01T09:26:56Z</time></trkpt><trkpt lat="45.63345370559922" lon="11.223910068474082"><ele>638.0</ele><time>2026-05-01T09:26:57Z</time></trkpt><trkpt lat="45.6335747838581" lon="11.223776324835644"><ele>635.0</ele><time>2026-05-01T09:26:58Z</time></trkpt><trkpt lat="45.633695234424145" lon="11.223636591713332"><ele>639.8</ele><time>2026-05-01T09:26:59Z</time></trkpt><trkpt lat="45.63380793605581" lon="11.223525359701405"><ele>644.6</ele><time>2026-05-01T09:27:00Z</time></trkpt><trkpt lat="45.63389132457195" lon="11.223411314016886"><ele>649.4000000000001</ele><time>2026-05-01T09:27:01Z</time></trkpt><trkpt lat="45.633941207366185" lon="11.223295470315794"><ele>654.2</ele><time>2026-05-01T09:27:02Z</time></trkpt><trkpt lat="45.63398669500637" lon="11.223225851720949"><ele>659.0</ele><time>2026-05-01T09:27:03Z</time></trkpt><trkpt lat="45.634090851897994" lon="11.223341390805167"><ele>659.0</ele><time>2026-05-01T09:27:05Z</time></trkpt><trkpt lat="45.63408255259288" lon="11.223490980081992"><ele>659.0</ele><time>2026-05-01T09:27:06Z</time></trkpt><trkpt lat="45.63411394343067" lon="11.223647800447429"><ele>659.0</ele><time>2026-05-01T09:27:07Z</time></trkpt><trkpt lat="45.63416897617171" lon="11.223811026371239"><ele>659.0</ele><time>2026-05-01T09:27:08Z</time></trkpt><trkpt lat="45.634217945268865" lon="11.22397810497244"><ele>659.2</ele><time>2026-05-01T09:27:09Z</time></trkpt><trkpt lat="45.63427017612489" lon="11.224129303290505"><ele>659.4000000000001</ele><time>2026-05-01T09:27:10Z</time></trkpt><trkpt lat="45.63429877680556" lon="11.224264893322555"><ele>659.6</ele><time>2026-05-01T09:27:11Z</time></trkpt><trkpt lat="45.634346570779066" lon="11.224363055112637"><ele>659.8</ele><time>2026-05-01T09:27:12Z</time></trkpt><trkpt lat="45.63438431968747" lon="11.224440552949819"><ele>660.0</ele><time>2026-05-01T09:27:13Z</time></trkpt><trkpt lat="45.634474956848265" lon="11.22443851418834"><ele>664.4</ele><time>2026-05-01T09:27:15Z</time></trkpt><trkpt lat="45.634496434914" lon="11.224272140571323"><ele>668.8</ele><time>2026-05-01T09:27:16Z</time></trkpt><trkpt lat="45.6344871313732" lon="11.224138834809203"><ele>673.2</ele><time>2026-05-01T09:27:17Z</time></trkpt><trkpt lat="45.63449211324839" lon="11.223996743126538"><ele>677.6</ele><time>2026-05-01T09:27:18Z</time></trkpt><trkpt lat="45.63453197991792" lon="11.223854067395129"><ele>682.0</ele><time>2026-05-01T09:27:19Z</time></trkpt><trkpt lat="45.63460146739316" lon="11.223700052734253"><ele>682.0</ele><time>2026-05-01T09:27:20Z</time></trkpt><trkpt lat="45.634680161149376" lon="11.223556305791268"><ele>682.0</ele><time>2026-05-01T09:27:21Z</time></trkpt><trkpt lat="45.634729161146254" lon="11.223422470020626"><ele>682.0</ele><time>2026-05-01T09:27:22Z</time></trkpt><trkpt lat="45.63472661974596" lon="11.223291857879332"><ele>682.0</ele><time>2026-05-01T09:27:23Z</time></trkpt><trkpt lat="45.634679113280846" lon="11.223161943095025"><ele>682.0</ele><time>2026-05-01T09:27:24Z</time></trkpt><trkpt lat="45.63461739485034" lon="11.2230568427676"><ele>681.2</ele><time>2026-05-01T09:27:25Z</time></trkpt><trkpt lat="45.634563716373634" lon="11.222988894677687"><ele>680.4000000000001</ele><time>2026-05-01T09:27:26Z</time></trkpt><trkpt lat="45.63456987235904" lon="11.222814852384673"><ele>679.5999999999999</ele><time>2026-05-01T09:27:28Z</time></trkpt><trkpt lat="45.63465312718398" lon="11.222758658458183"><ele>678.8</ele><time>2026-05-01T09:27:29Z</time></trkpt><trkpt lat="45.63475644380894" lon="11.22269931979226"><ele>678.0</ele><time>2026-05-01T09:27:30Z</time></trkpt><trkpt lat="45.634876664397275" lon="11.22259857755157"><ele>678.0</ele><time>2026-05-01T09:27:31Z</time></trkpt><trkpt lat="45.63498336093628" lon="11.222526664163235"><ele>678.0</ele><time>2026-05-01T09:27:32Z</time></trkpt><trkpt lat="45.635067939471895" lon="11.222476321696744"><ele>678.0</ele><time>2026-05-01T09:27:33Z</time></trkpt><trkpt lat="45.635146675164044" lon="11.222468328767043"><ele>678.0</ele><time>2026-05-01T09:27:34Z</time></trkpt><trkpt lat="45.63522478902306" lon="11.222546279911626"><ele>678.0</ele><time>2026-05-01T09:27:35Z</time></trkpt><trkpt lat="45.63529832889592" lon="11.222651366485932"><ele>682.8</ele><time>2026-05-01T09:27:36Z</time></trkpt><trkpt lat="45.63536421197336" lon="11.222793258718008"><ele>687.5999999999999</ele><time>2026-05-01T09:27:37Z</time></trkpt><trkpt lat="45.635434182469005" lon="11.222885545333288"><ele>692.4000000000001</ele><time>2026-05-01T09:27:38Z</time></trkpt><trkpt lat="45.63550145522959" lon="11.222942015586934"><ele>697.2</ele><time>2026-05-01T09:27:39Z</time></trkpt><trkpt lat="45.63560081621278" lon="11.22294196097403"><ele>702.0</ele><time>2026-05-01T09:27:40Z</time></trkpt><trkpt lat="45.635713747841784" lon="11.222860290299751"><ele>702.0</ele><time>2026-05-01T09:27:41Z</time></trkpt><trkpt lat="45.63581667417304" lon="11.222794568259552"><ele>702.0</ele><time>2026-05-01T09:27:42Z</time></trkpt><trkpt lat="45.63589196489155" lon="11.222693742948351"><ele>702.0</ele><time>2026-05-01T09:27:43Z</time></trkpt><trkpt lat="45.635938479168274" lon="11.22257413711317"><ele>702.0</ele><time>2026-05-01T09:27:44Z</time></trkpt><trkpt lat="45.63598159433944" lon="11.222444658436668"><ele>702.0</ele><time>2026-05-01T09:27:45Z</time></trkpt><trkpt lat="45.636016076131305" lon="11.22233731151417"><ele>703.8</ele><time>2026-05-01T09:27:46Z</time></trkpt><trkpt lat="45.63602586009137" lon="11.222230466747238"><ele>705.6</ele><time>2026-05-01T09:27:47Z</time></trkpt><trkpt lat="45.63598580090885" lon="11.22212052885937"><ele>707.4</ele><time>2026-05-01T09:27:48Z</time></trkpt><trkpt lat="45.63590464904431" lon="11.222018306554197"><ele>709.1999999999999</ele><time>2026-05-01T09:27:49Z</time></trkpt><trkpt lat="45.63582922281677" lon="11.221881219547821"><ele>711.0</ele><time>2026-05-01T09:27:50Z</time></trkpt><trkpt lat="45.63579133215855" lon="11.221697637183022"><ele>711.0</ele><time>2026-05-01T09:27:51Z</time></trkpt><trkpt lat="45.635770647664565" lon="11.221493905224222"><ele>711.0</ele><time>2026-05-01T09:27:52Z</time></trkpt><trkpt lat="45.635719639795525" lon="11.221299938666657"><ele>711.0</ele><time>2026-05-01T09:27:53Z</time></trkpt><trkpt lat="45.63568152212757" lon="11.22115148257143"><ele>711.0</ele><time>2026-05-01T09:27:54Z</time></trkpt><trkpt lat="45.63566593433709" lon="11.221012541525244"><ele>710.0</ele><time>2026-05-01T09:27:55Z</time></trkpt><trkpt lat="45.63563652942686" lon="11.220916364646788"><ele>709.0</ele><time>2026-05-01T09:27:56Z</time></trkpt><trkpt lat="45.635575050380226" lon="11.220865572353603"><ele>708.0</ele><time>2026-05-01T09:27:57Z</time></trkpt><trkpt lat="45.635477816611996" lon="11.220867644938158"><ele>707.0</ele><time>2026-05-01T09:27:58Z</time></trkpt><trkpt lat="45.635372219723415" lon="11.220882971051783"><ele>706.0</ele><time>2026-05-01T09:27:59Z</time></trkpt><trkpt lat="45.635287069283834" lon="11.220847191487502"><ele>705.0</ele><time>2026-05-01T09:28:00Z</time></trkpt><trkpt lat="45.63523382124324" lon="11.220743160144632"><ele>710.0</ele><time>2026-05-01T09:28:01Z</time></trkpt><trkpt lat="45.63515898765915" lon="11.220596634630937"><ele>715.0</ele><time>2026-05-01T09:28:02Z</time></trkpt><trkpt lat="45.63508244187717" lon="11.220405557620179"><ele>720.0</ele><time>2026-05-01T09:28:03Z</time></trkpt><trkpt lat="45.63500413688645" lon="11.220223750284186"><ele>725.0</ele><time>2026-05-01T09:28:04Z</time></trkpt><trkpt lat="45.63495684512558" lon="11.220070346427855"><ele>725.0</ele><time>2026-05-01T09:28:05Z</time></trkpt><trkpt lat="45.63493242262328" lon="11.219921227612291"><ele>725.0</ele><time>2026-05-01T09:28:06Z</time></trkpt><trkpt lat="45.63493857928339" lon="11.219752197969097"><ele>725.0</ele><time>2026-05-01T09:28:07Z</time></trkpt><trkpt lat="45.63494821886728" lon="11.219593566524743"><ele>725.0</ele><time>2026-05-01T09:28:08Z</time></trkpt><trkpt lat="45.63493154471287" lon="11.219472390330042"><ele>725.0</ele><time>2026-05-01T09:28:09Z</time></trkpt><trkpt lat="45.63495943398673" lon="11.219322384599911"><ele>725.0</ele><time>2026-05-01T09:28:11Z</time></trkpt><trkpt lat="45.63503204431296" lon="11.219322794960561"><ele>725.0</ele><time>2026-05-01T09:28:12Z</time></trkpt><trkpt lat="45.63508062339066" lon="11.219429905902958"><ele>725.0</ele><time>2026-05-01T09:28:13Z</time></trkpt><trkpt lat="45.63510307189023" lon="11.219533898377955"><ele>725.0</ele><time>2026-05-01T09:28:14Z</time></trkpt><trkpt lat="45.63513977482687" lon="11.219653259988975"><ele>725.0</ele><time>2026-05-01T09:28:15Z</time></trkpt><trkpt lat="45.63516344529917" lon="11.219787722605975"><ele>725.0</ele><time>2026-05-01T09:28:16Z</time></trkpt><trkpt lat="45.63522046722283" lon="11.219930917302523"><ele>732.6666666666666</ele><time>2026-05-01T09:28:17Z</time></trkpt><trkpt lat="45.635354936164624" lon="11.220014137324583"><ele>740.3333333333334</ele><time>2026-05-01T09:28:18Z</time></trkpt><trkpt lat="45.635504861054706" lon="11.220073944779012"><ele>748.0</ele><time>2026-05-01T09:28:19Z</time></trkpt><trkpt lat="45.63566542430872" lon="11.220114274912515"><ele>748.0</ele><time>2026-05-01T09:28:20Z</time></trkpt><trkpt lat="45.635806884016645" lon="11.220120855405323"><ele>748.0</ele><time>2026-05-01T09:28:21Z</time></trkpt><trkpt lat="45.6359004145786" lon="11.220174990457636"><ele>748.0</ele><time>2026-05-01T09:28:22Z</time></trkpt><trkpt lat="45.635967361504726" lon="11.220263146733112"><ele>748.0</ele><time>2026-05-01T09:28:23Z</time></trkpt><trkpt lat="45.63601150230579" lon="11.220400016632238"><ele>748.0</ele><time>2026-05-01T09:28:24Z</time></trkpt><trkpt lat="45.63610698411781" lon="11.220521397508373"><ele>749.75</ele><time>2026-05-01T09:28:25Z</time></trkpt><trkpt lat="45.63621874021201" lon="11.220656973165484"><ele>751.5</ele><time>2026-05-01T09:28:26Z</time></trkpt><trkpt lat="45.63634105568776" lon="11.22074933212912"><ele>753.25</ele><time>2026-05-01T09:28:27Z</time></trkpt><trkpt lat="45.63641652321595" lon="11.220853378274564"><ele>755.0</ele><time>2026-05-01T09:28:28Z</time></trkpt><trkpt lat="45.636477818854054" lon="11.220937827945228"><ele>755.0</ele><time>2026-05-01T09:28:29Z</time></trkpt><trkpt lat="45.63657321802684" lon="11.22100304366516"><ele>755.0</ele><time>2026-05-01T09:28:31Z</time></trkpt><trkpt lat="45.63664027938784" lon="11.220832286120894"><ele>755.0</ele><time>2026-05-01T09:28:33Z</time></trkpt><trkpt lat="45.63662380458176" lon="11.220707243925608"><ele>755.0</ele><time>2026-05-01T09:28:34Z</time></trkpt><trkpt lat="45.636594862281854" lon="11.220561990347303"><ele>755.0</ele><time>2026-05-01T09:28:35Z</time></trkpt><trkpt lat="45.63655281811504" lon="11.220427711448838"><ele>758.2</ele><time>2026-05-01T09:28:36Z</time></trkpt><trkpt lat="45.636466386607246" lon="11.22031410436349"><ele>761.4</ele><time>2026-05-01T09:28:37Z</time></trkpt><trkpt lat="45.63636786913464" lon="11.220249667935237"><ele>764.5999999999999</ele><time>2026-05-01T09:28:38Z</time></trkpt><trkpt lat="45.63630160908902" lon="11.220189094048775"><ele>767.8</ele><time>2026-05-01T09:28:39Z</time></trkpt><trkpt lat="45.63629753825738" lon="11.220089843676805"><ele>771.0</ele><time>2026-05-01T09:28:40Z</time></trkpt><trkpt lat="45.63633713954022" lon="11.219983400676332"><ele>771.0</ele><time>2026-05-01T09:28:41Z</time></trkpt><trkpt lat="45.63638439588718" lon="11.21985760436547"><ele>771.0</ele><time>2026-05-01T09:28:42Z</time></trkpt><trkpt lat="45.63640312897735" lon="11.219724204582691"><ele>771.0</ele><time>2026-05-01T09:28:43Z</time></trkpt><trkpt lat="45.63638691779985" lon="11.21957410204823"><ele>771.0</ele><time>2026-05-01T09:28:44Z</time></trkpt><trkpt lat="45.63632647687812" lon="11.219425889477563"><ele>771.0</ele><time>2026-05-01T09:28:45Z</time></trkpt><trkpt lat="45.636237209325785" lon="11.219281446012541"><ele>769.4</ele><time>2026-05-01T09:28:46Z</time></trkpt><trkpt lat="45.63615307769123" lon="11.219134142980604"><ele>767.8</ele><time>2026-05-01T09:28:47Z</time></trkpt><trkpt lat="45.636081094464025" lon="11.219020258903173"><ele>766.1999999999999</ele><time>2026-05-01T09:28:48Z</time></trkpt><trkpt lat="45.636027138396784" lon="11.21891943712702"><ele>764.5999999999999</ele><time>2026-05-01T09:28:49Z</time></trkpt><trkpt lat="45.63601201614909" lon="11.218809007128549"><ele>763.0</ele><time>2026-05-01T09:28:50Z</time></trkpt><trkpt lat="45.636046547224666" lon="11.218694379946887"><ele>762.5</ele><time>2026-05-01T09:28:51Z</time></trkpt><trkpt lat="45.636128518109345" lon="11.21857549815462"><ele>762.0</ele><time>2026-05-01T09:28:52Z</time></trkpt><trkpt lat="45.636220655870744" lon="11.218440522495783"><ele>761.5</ele><time>2026-05-01T09:28:53Z</time></trkpt><trkpt lat="45.636312963355515" lon="11.218288002914527"><ele>761.0</ele><time>2026-05-01T09:28:54Z</time></trkpt><trkpt lat="45.63637358015944" lon="11.218120854456505"><ele>765.1999999999999</ele><time>2026-05-01T09:28:55Z</time></trkpt><trkpt lat="45.63638872143009" lon="11.217970706614864"><ele>769.4</ele><time>2026-05-01T09:28:56Z</time></trkpt><trkpt lat="45.63642391899074" lon="11.217856942069874"><ele>773.6</ele><time>2026-05-01T09:28:57Z</time></trkpt><trkpt lat="45.6365121311831" lon="11.217807967247523"><ele>777.8</ele><time>2026-05-01T09:28:58Z</time></trkpt><trkpt lat="45.63663184063294" lon="11.217753683408148"><ele>782.0</ele><time>2026-05-01T09:28:59Z</time></trkpt><trkpt lat="45.636723025244486" lon="11.217695970519951"><ele>782.0</ele><time>2026-05-01T09:29:00Z</time></trkpt><trkpt lat="45.63681686060309" lon="11.217680190827954"><ele>782.0</ele><time>2026-05-01T09:29:02Z</time></trkpt><trkpt lat="45.63675768244301" lon="11.217847782122133"><ele>782.0</ele><time>2026-05-01T09:29:05Z</time></trkpt><trkpt lat="45.63667034417359" lon="11.217980418958527"><ele>782.0</ele><time>2026-05-01T09:29:07Z</time></trkpt><trkpt lat="45.6366241074562" lon="11.218052875104597"><ele>782.0</ele><time>2026-05-01T09:29:08Z</time></trkpt><trkpt lat="45.63655598898678" lon="11.218161440484819"><ele>783.2</ele><time>2026-05-01T09:29:10Z</time></trkpt><trkpt lat="45.6365252926345" lon="11.21828534434832"><ele>784.4000000000001</ele><time>2026-05-01T09:29:12Z</time></trkpt><trkpt lat="45.63659646797192" lon="11.218435588618616"><ele>785.5999999999999</ele><time>2026-05-01T09:29:14Z</time></trkpt><trkpt lat="45.63666317525159" lon="11.218470246224554"><ele>786.8</ele><time>2026-05-01T09:29:15Z</time></trkpt><trkpt lat="45.6367307021578" lon="11.218483685490607"><ele>788.0</ele><time>2026-05-01T09:29:16Z</time></trkpt><trkpt lat="45.63685139474629" lon="11.218521291381249"><ele>788.0000000000001</ele><time>2026-05-01T09:29:18Z</time></trkpt><trkpt lat="45.636919815581486" lon="11.21853299536891"><ele>788.0</ele><time>2026-05-01T09:29:19Z</time></trkpt><trkpt lat="45.63698981695" lon="11.218549025906723"><ele>788.0</ele><time>2026-05-01T09:29:20Z</time></trkpt><trkpt lat="45.637061709012016" lon="11.21855958520839"><ele>788.0</ele><time>2026-05-01T09:29:21Z</time></trkpt><trkpt lat="45.63713878602983" lon="11.218568124406406"><ele>788.0000000000001</ele><time>2026-05-01T09:29:22Z</time></trkpt><trkpt lat="45.63722848749712" lon="11.21857517832831"><ele>788.0</ele><time>2026-05-01T09:29:23Z</time></trkpt><trkpt lat="45.63732469133919" lon="11.218579743487695"><ele>790.8</ele><time>2026-05-01T09:29:24Z</time></trkpt><trkpt lat="45.63742298806736" lon="11.218591600146404"><ele>793.5999999999999</ele><time>2026-05-01T09:29:25Z</time></trkpt><trkpt lat="45.637519147434354" lon="11.218592415938176"><ele>796.4000000000001</ele><time>2026-05-01T09:29:26Z</time></trkpt><trkpt lat="45.63761577665287" lon="11.218609743929964"><ele>799.2</ele><time>2026-05-01T09:29:27Z</time></trkpt><trkpt lat="45.63771176839267" lon="11.218614076509255"><ele>802.0</ele><time>2026-05-01T09:29:28Z</time></trkpt><trkpt lat="45.63780823050039" lon="11.218626592863886"><ele>804.8</ele><time>2026-05-01T09:29:29Z</time></trkpt><trkpt lat="45.63790447440169" lon="11.21863822714598"><ele>807.6</ele><time>2026-05-01T09:29:30Z</time></trkpt><trkpt lat="45.638005350040125" lon="11.21864504242054"><ele>810.4</ele><time>2026-05-01T09:29:31Z</time></trkpt><trkpt lat="45.63810474986038" lon="11.218653203090375"><ele>813.1999999999999</ele><time>2026-05-01T09:29:32Z</time></trkpt><trkpt lat="45.638203721472046" lon="11.218656195923177"><ele>816.0</ele><time>2026-05-01T09:29:33Z</time></trkpt><trkpt lat="45.638301555176874" lon="11.2186670461031"><ele>816.0</ele><time>2026-05-01T09:29:34Z</time></trkpt><trkpt lat="45.63839879176459" lon="11.218701416886416"><ele>816.0</ele><time>2026-05-01T09:29:35Z</time></trkpt><trkpt lat="45.63847535139524" lon="11.218803379356542"><ele>816.0</ele><time>2026-05-01T09:29:36Z</time></trkpt><trkpt lat="45.63855947582473" lon="11.218865546138572"><ele>816.0</ele><time>2026-05-01T09:29:37Z</time></trkpt><trkpt lat="45.638631018478286" lon="11.218960772935077"><ele>816.0</ele><time>2026-05-01T09:29:38Z</time></trkpt><trkpt lat="45.63870881933455" lon="11.219055691333278"><ele>818.25</ele><time>2026-05-01T09:29:39Z</time></trkpt><trkpt lat="45.6388098893042" lon="11.219142068885091"><ele>820.5</ele><time>2026-05-01T09:29:40Z</time></trkpt><trkpt lat="45.63892891158685" lon="11.219223094093044"><ele>822.75</ele><time>2026-05-01T09:29:41Z</time></trkpt><trkpt lat="45.639051485395164" lon="11.21932098065703"><ele>825.0</ele><time>2026-05-01T09:29:42Z</time></trkpt><trkpt lat="45.639179061675684" lon="11.219406031935627"><ele>825.0</ele><time>2026-05-01T09:29:43Z</time></trkpt><trkpt lat="45.63930296693958" lon="11.21950924388019"><ele>825.0</ele><time>2026-05-01T09:29:44Z</time></trkpt><trkpt lat="45.63942538555649" lon="11.219601602833988"><ele>825.0</ele><time>2026-05-01T09:29:45Z</time></trkpt><trkpt lat="45.63953550150472" lon="11.21970532429269"><ele>825.0</ele><time>2026-05-01T09:29:46Z</time></trkpt><trkpt lat="45.63962551959221" lon="11.219835009774641"><ele>824.0</ele><time>2026-05-01T09:29:47Z</time></trkpt><trkpt lat="45.639665967201296" lon="11.22003264953393"><ele>823.0</ele><time>2026-05-01T09:29:48Z</time></trkpt><trkpt lat="45.639728158514146" lon="11.220220276377276"><ele>822.0</ele><time>2026-05-01T09:29:49Z</time></trkpt><trkpt lat="45.63979011500975" lon="11.220414415158125"><ele>821.0</ele><time>2026-05-01T09:29:50Z</time></trkpt><trkpt lat="45.639852175651455" lon="11.220603698809885"><ele>820.5999999999999</ele><time>2026-05-01T09:29:51Z</time></trkpt><trkpt lat="45.63991176588265" lon="11.220759813760418"><ele>820.2</ele><time>2026-05-01T09:29:52Z</time></trkpt><trkpt lat="45.6399598748259" lon="11.220892019865984"><ele>819.8</ele><time>2026-05-01T09:29:53Z</time></trkpt><trkpt lat="45.63997446536101" lon="11.221014947306374"><ele>819.4000000000001</ele><time>2026-05-01T09:29:54Z</time></trkpt><trkpt lat="45.63999638030259" lon="11.221109134432405"><ele>819.0</ele><time>2026-05-01T09:29:55Z</time></trkpt><trkpt lat="45.640048597172935" lon="11.221280139809915"><ele>819.0</ele><time>2026-05-01T09:29:57Z</time></trkpt><trkpt lat="45.640077723391485" lon="11.22139260430236"><ele>819.0</ele><time>2026-05-01T09:29:58Z</time></trkpt><trkpt lat="45.640125038619395" lon="11.22153200981205"><ele>819.0</ele><time>2026-05-01T09:29:59Z</time></trkpt><trkpt lat="45.64017252752434" lon="11.221686305901489"><ele>819.0</ele><time>2026-05-01T09:30:00Z</time></trkpt><trkpt lat="45.64024330825992" lon="11.221821486739012"><ele>819.0</ele><time>2026-05-01T09:30:01Z</time></trkpt><trkpt lat="45.64030534280073" lon="11.221960748767783"><ele>818.5</ele><time>2026-05-01T09:30:02Z</time></trkpt><trkpt lat="45.640369879663396" lon="11.222095235684744"><ele>818.0</ele><time>2026-05-01T09:30:03Z</time></trkpt><trkpt lat="45.64043867000213" lon="11.222228806454728"><ele>817.5</ele><time>2026-05-01T09:30:04Z</time></trkpt><trkpt lat="45.64051566255599" lon="11.222347894306546"><ele>817.0</ele><time>2026-05-01T09:30:05Z</time></trkpt><trkpt lat="45.64060265806066" lon="11.222467867502761"><ele>817.0</ele><time>2026-05-01T09:30:06Z</time></trkpt><trkpt lat="45.64068212283186" lon="11.222607768939868"><ele>817.0</ele><time>2026-05-01T09:30:07Z</time></trkpt><trkpt lat="45.640769216077565" lon="11.222720863725272"><ele>817.0</ele><time>2026-05-01T09:30:08Z</time></trkpt><trkpt lat="45.64085939741523" lon="11.222813357632747"><ele>817.0</ele><time>2026-05-01T09:30:09Z</time></trkpt><trkpt lat="45.640929624139915" lon="11.222932320002275"><ele>817.0</ele><time>2026-05-01T09:30:10Z</time></trkpt><trkpt lat="45.640974381869846" lon="11.223075912013334"><ele>817.0</ele><time>2026-05-01T09:30:11Z</time></trkpt><trkpt lat="45.64103053781211" lon="11.223233584241505"><ele>817.0</ele><time>2026-05-01T09:30:12Z</time></trkpt><trkpt lat="45.64108715201884" lon="11.223388068425535"><ele>817.0</ele><time>2026-05-01T09:30:13Z</time></trkpt><trkpt lat="45.64115490644621" lon="11.223527096023162"><ele>818.0</ele><time>2026-05-01T09:30:14Z</time></trkpt><trkpt lat="45.64117920319166" lon="11.223684965348443"><ele>819.0</ele><time>2026-05-01T09:30:15Z</time></trkpt><trkpt lat="45.64119686422897" lon="11.223837803680597"><ele>820.0</ele><time>2026-05-01T09:30:16Z</time></trkpt><trkpt lat="45.64120657641814" lon="11.223986435242718"><ele>821.0</ele><time>2026-05-01T09:30:17Z</time></trkpt><trkpt lat="45.64123713592801" lon="11.224126094594189"><ele>822.0</ele><time>2026-05-01T09:30:18Z</time></trkpt><trkpt lat="45.641279318877885" lon="11.224269781387793"><ele>818.6</ele><time>2026-05-01T09:30:19Z</time></trkpt><trkpt lat="45.64134305447786" lon="11.22439572346602"><ele>815.2</ele><time>2026-05-01T09:30:20Z</time></trkpt><trkpt lat="45.64140948166851" lon="11.224517066960326"><ele>811.8</ele><time>2026-05-01T09:30:21Z</time></trkpt><trkpt lat="45.641472024035785" lon="11.224610822821173"><ele>808.4</ele><time>2026-05-01T09:30:22Z</time></trkpt><trkpt lat="45.64154187722125" lon="11.224687971971427"><ele>805.0</ele><time>2026-05-01T09:30:23Z</time></trkpt><trkpt lat="45.64162408737496" lon="11.224741589956926"><ele>805.0</ele><time>2026-05-01T09:30:24Z</time></trkpt><trkpt lat="45.641728128047234" lon="11.224778010980822"><ele>805.0</ele><time>2026-05-01T09:30:25Z</time></trkpt><trkpt lat="45.641830950892405" lon="11.224796577529446"><ele>805.0</ele><time>2026-05-01T09:30:26Z</time></trkpt><trkpt lat="45.641927304466215" lon="11.224791160624996"><ele>805.0</ele><time>2026-05-01T09:30:27Z</time></trkpt><trkpt lat="45.6420230634889" lon="11.224743643289164"><ele>805.0</ele><time>2026-05-01T09:30:28Z</time></trkpt><trkpt lat="45.64211641676431" lon="11.224670858697518"><ele>805.6</ele><time>2026-05-01T09:30:29Z</time></trkpt><trkpt lat="45.642200938334014" lon="11.224587627098451"><ele>806.2</ele><time>2026-05-01T09:30:30Z</time></trkpt><trkpt lat="45.64227976372196" lon="11.224523205677439"><ele>806.8</ele><time>2026-05-01T09:30:31Z</time></trkpt><trkpt lat="45.6423792027233" lon="11.2245309940275"><ele>807.4</ele><time>2026-05-01T09:30:32Z</time></trkpt><trkpt lat="45.6424801135168" lon="11.224560637690239"><ele>808.0</ele><time>2026-05-01T09:30:33Z</time></trkpt><trkpt lat="45.642588973053876" lon="11.224581963181564"><ele>808.0</ele><time>2026-05-01T09:30:34Z</time></trkpt><trkpt lat="45.642696767816" lon="11.224582408765412"><ele>808.0</ele><time>2026-05-01T09:30:35Z</time></trkpt><trkpt lat="45.642805239131164" lon="11.224611332090815"><ele>808.0</ele><time>2026-05-01T09:30:36Z</time></trkpt><trkpt lat="45.64291629101278" lon="11.224644730271704"><ele>808.0</ele><time>2026-05-01T09:30:37Z</time></trkpt><trkpt lat="45.64303008214325" lon="11.22467127847832"><ele>808.0</ele><time>2026-05-01T09:30:38Z</time></trkpt><trkpt lat="45.64314463978273" lon="11.224720394861667"><ele>808.2</ele><time>2026-05-01T09:30:39Z</time></trkpt><trkpt lat="45.64325509370296" lon="11.22475476999103"><ele>808.4</ele><time>2026-05-01T09:30:40Z</time></trkpt><trkpt lat="45.64334765595747" lon="11.224797671078237"><ele>808.6</ele><time>2026-05-01T09:30:41Z</time></trkpt><trkpt lat="45.64342858123968" lon="11.224855939054706"><ele>808.8000000000001</ele><time>2026-05-01T09:30:42Z</time></trkpt><trkpt lat="45.64346612665914" lon="11.224967019674697"><ele>809.0</ele><time>2026-05-01T09:30:43Z</time></trkpt><trkpt lat="45.64349969206017" lon="11.225096914017778"><ele>808.5000000000001</ele><time>2026-05-01T09:30:44Z</time></trkpt><trkpt lat="45.64352241424537" lon="11.225235271288648"><ele>808.0</ele><time>2026-05-01T09:30:45Z</time></trkpt><trkpt lat="45.64354781426864" lon="11.22536701243492"><ele>807.5</ele><time>2026-05-01T09:30:46Z</time></trkpt><trkpt lat="45.64357297687978" lon="11.225483420940867"><ele>807.0</ele><time>2026-05-01T09:30:47Z</time></trkpt><trkpt lat="45.64361752243778" lon="11.22557811605996"><ele>806.5000000000001</ele><time>2026-05-01T09:30:48Z</time></trkpt><trkpt lat="45.643634942386804" lon="11.225673695423165"><ele>806.0</ele><time>2026-05-01T09:30:49Z</time></trkpt><trkpt lat="45.643746768012555" lon="11.225752918933505"><ele>806.0</ele><time>2026-05-01T09:30:51Z</time></trkpt><trkpt lat="45.643822602294314" lon="11.22577089978417"><ele>806.0</ele><time>2026-05-01T09:30:52Z</time></trkpt><trkpt lat="45.64391541512881" lon="11.225769457052563"><ele>806.0</ele><time>2026-05-01T09:30:53Z</time></trkpt><trkpt lat="45.64401068005693" lon="11.225783609746616"><ele>806.0</ele><time>2026-05-01T09:30:54Z</time></trkpt><trkpt lat="45.64410754047168" lon="11.225827297032481"><ele>806.0</ele><time>2026-05-01T09:30:55Z</time></trkpt><trkpt lat="45.64417888187357" lon="11.22592175982592"><ele>806.0000000000001</ele><time>2026-05-01T09:30:56Z</time></trkpt><trkpt lat="45.64426449421483" lon="11.225976141443455"><ele>806.0</ele><time>2026-05-01T09:30:57Z</time></trkpt><trkpt lat="45.644331343924975" lon="11.226050227744834"><ele>806.0</ele><time>2026-05-01T09:30:58Z</time></trkpt><trkpt lat="45.64439038171717" lon="11.226112192462093"><ele>806.0</ele><time>2026-05-01T09:30:59Z</time></trkpt><trkpt lat="45.644456194232276" lon="11.22617587317727"><ele>806.0000000000001</ele><time>2026-05-01T09:31:00Z</time></trkpt><trkpt lat="45.64451894687961" lon="11.226242026803241"><ele>806.0</ele><time>2026-05-01T09:31:01Z</time></trkpt><trkpt lat="45.64459059084216" lon="11.226304334014227"><ele>807.5999999999999</ele><time>2026-05-01T09:31:02Z</time></trkpt><trkpt lat="45.64466696140875" lon="11.22636618335508"><ele>809.2</ele><time>2026-05-01T09:31:03Z</time></trkpt><trkpt lat="45.64476225871534" lon="11.22639287014802"><ele>810.8</ele><time>2026-05-01T09:31:04Z</time></trkpt><trkpt lat="45.64486156041542" lon="11.226385358548818"><ele>812.4000000000001</ele><time>2026-05-01T09:31:05Z</time></trkpt><trkpt lat="45.64496341941848" lon="11.226326698341552"><ele>814.0</ele><time>2026-05-01T09:31:06Z</time></trkpt><trkpt lat="45.64505269871784" lon="11.226246891204925"><ele>813.9999999999999</ele><time>2026-05-01T09:31:07Z</time></trkpt><trkpt lat="45.64512617042629" lon="11.226181235645935"><ele>814.0</ele><time>2026-05-01T09:31:08Z</time></trkpt><trkpt lat="45.64519376527019" lon="11.226157338363299"><ele>814.0</ele><time>2026-05-01T09:31:09Z</time></trkpt><trkpt lat="45.64525938651223" lon="11.226192947313184"><ele>814.0</ele><time>2026-05-01T09:31:10Z</time></trkpt><trkpt lat="45.64528161282036" lon="11.226313335271447"><ele>813.9999999999999</ele><time>2026-05-01T09:31:11Z</time></trkpt><trkpt lat="45.64525165136124" lon="11.226428890475582"><ele>814.0</ele><time>2026-05-01T09:31:12Z</time></trkpt><trkpt lat="45.64525078536224" lon="11.226569567306983"><ele>813.0</ele><time>2026-05-01T09:31:13Z</time></trkpt><trkpt lat="45.64525495495134" lon="11.226727187452084"><ele>812.0</ele><time>2026-05-01T09:31:14Z</time></trkpt><trkpt lat="45.64528482272655" lon="11.22685494308003"><ele>811.0</ele><time>2026-05-01T09:31:15Z</time></trkpt><trkpt lat="45.64531775671724" lon="11.22695069680119"><ele>810.0</ele><time>2026-05-01T09:31:16Z</time></trkpt><trkpt lat="45.64538230668623" lon="11.227012869850105"><ele>809.0</ele><time>2026-05-01T09:31:17Z</time></trkpt><trkpt lat="45.64547589277125" lon="11.227042728312103"><ele>809.0</ele><time>2026-05-01T09:31:18Z</time></trkpt><trkpt lat="45.64558597792461" lon="11.227070916397828"><ele>809.0</ele><time>2026-05-01T09:31:19Z</time></trkpt><trkpt lat="45.64570791055673" lon="11.227128133775183"><ele>809.0</ele><time>2026-05-01T09:31:20Z</time></trkpt><trkpt lat="45.645838094662466" lon="11.227165630994598"><ele>809.0</ele><time>2026-05-01T09:31:21Z</time></trkpt><trkpt lat="45.645957012460215" lon="11.227202174520837"><ele>809.0</ele><time>2026-05-01T09:31:22Z</time></trkpt><trkpt lat="45.64606489048814" lon="11.227241085430308"><ele>809.0</ele><time>2026-05-01T09:31:23Z</time></trkpt><trkpt lat="45.64615992008225" lon="11.227310292339427"><ele>809.0</ele><time>2026-05-01T09:31:24Z</time></trkpt><trkpt lat="45.64624512221936" lon="11.227397627390001"><ele>809.0</ele><time>2026-05-01T09:31:25Z</time></trkpt><trkpt lat="45.64626680627839" lon="11.2275472334876"><ele>809.0</ele><time>2026-05-01T09:31:26Z</time></trkpt><trkpt lat="45.64631787576462" lon="11.227677961545952"><ele>807.75</ele><time>2026-05-01T09:31:27Z</time></trkpt><trkpt lat="45.646382988265984" lon="11.227779012104628"><ele>806.5</ele><time>2026-05-01T09:31:28Z</time></trkpt><trkpt lat="45.64647114727855" lon="11.227885557021677"><ele>805.25</ele><time>2026-05-01T09:31:29Z</time></trkpt><trkpt lat="45.64658845349621" lon="11.227963759354923"><ele>804.0</ele><time>2026-05-01T09:31:30Z</time></trkpt><trkpt lat="45.6467174347888" lon="11.228003948402115"><ele>804.0</ele><time>2026-05-01T09:31:31Z</time></trkpt><trkpt lat="45.64682796424711" lon="11.228087133084703"><ele>804.0</ele><time>2026-05-01T09:31:32Z</time></trkpt><trkpt lat="45.646936138161145" lon="11.2282169000035"><ele>804.0</ele><time>2026-05-01T09:31:33Z</time></trkpt><trkpt lat="45.64707120708383" lon="11.228277416966451"><ele>804.0</ele><time>2026-05-01T09:31:34Z</time></trkpt><trkpt lat="45.64723734955235" lon="11.228355970474848"><ele>804.6666666666667</ele><time>2026-05-01T09:31:35Z</time></trkpt><trkpt lat="45.64741776085815" lon="11.228462355539905"><ele>805.3333333333334</ele><time>2026-05-01T09:31:36Z</time></trkpt><trkpt lat="45.647582371158265" lon="11.228540399951902"><ele>806.0</ele><time>2026-05-01T09:31:37Z</time></trkpt><trkpt lat="45.64773447177855" lon="11.228580668317992"><ele>811.5999999999999</ele><time>2026-05-01T09:31:38Z</time></trkpt><trkpt lat="45.64786543972869" lon="11.2286099008058"><ele>817.2</ele><time>2026-05-01T09:31:39Z</time></trkpt><trkpt lat="45.64795951737352" lon="11.22865714304557"><ele>822.8</ele><time>2026-05-01T09:31:40Z</time></trkpt><trkpt lat="45.64803666800342" lon="11.228700231855267"><ele>828.4000000000001</ele><time>2026-05-01T09:31:41Z</time></trkpt><trkpt lat="45.64810648730249" lon="11.228760983739766"><ele>834.0</ele><time>2026-05-01T09:31:42Z</time></trkpt><trkpt lat="45.648144102149246" lon="11.228875768367065"><ele>830.5</ele><time>2026-05-01T09:31:43Z</time></trkpt><trkpt lat="45.64818574530818" lon="11.229004448007524"><ele>827.0</ele><time>2026-05-01T09:31:44Z</time></trkpt><trkpt lat="45.6482297081844" lon="11.229134751797906"><ele>823.5</ele><time>2026-05-01T09:31:45Z</time></trkpt><trkpt lat="45.648263641305824" lon="11.229243970327992"><ele>820.0</ele><time>2026-05-01T09:31:46Z</time></trkpt><trkpt lat="45.64827191751659" lon="11.229336998988808"><ele>816.5</ele><time>2026-05-01T09:31:47Z</time></trkpt><trkpt lat="45.64824671239781" lon="11.229429682129245"><ele>813.0</ele><time>2026-05-01T09:31:48Z</time></trkpt><trkpt lat="45.64817973111499" lon="11.229489876267992"><ele>813.0</ele><time>2026-05-01T09:31:49Z</time></trkpt><trkpt lat="45.648088105820015" lon="11.229528188650114"><ele>813.0</ele><time>2026-05-01T09:31:50Z</time></trkpt><trkpt lat="45.64801354220054" lon="11.229590180828215"><ele>813.0</ele><time>2026-05-01T09:31:51Z</time></trkpt><trkpt lat="45.6479365392509" lon="11.229651418899548"><ele>813.0</ele><time>2026-05-01T09:31:52Z</time></trkpt><trkpt lat="45.64785769981884" lon="11.229745728687481"><ele>813.0</ele><time>2026-05-01T09:31:53Z</time></trkpt><trkpt lat="45.64779834926168" lon="11.229878155103956"><ele>809.2</ele><time>2026-05-01T09:31:54Z</time></trkpt><trkpt lat="45.64774489141816" lon="11.230017872043723"><ele>805.4</ele><time>2026-05-01T09:31:55Z</time></trkpt><trkpt lat="45.647661270317776" lon="11.230100399460175"><ele>801.6</ele><time>2026-05-01T09:31:56Z</time></trkpt><trkpt lat="45.6475852413053" lon="11.230160250430863"><ele>797.8000000000001</ele><time>2026-05-01T09:31:57Z</time></trkpt><trkpt lat="45.647477210406834" lon="11.230134693772959"><ele>794.0</ele><time>2026-05-01T09:31:58Z</time></trkpt><trkpt lat="45.64738200810419" lon="11.23005462871129"><ele>794.0</ele><time>2026-05-01T09:31:59Z</time></trkpt><trkpt lat="45.64728812083706" lon="11.230049951698165"><ele>794.0</ele><time>2026-05-01T09:32:00Z</time></trkpt><trkpt lat="45.64718811693132" lon="11.23008063760984"><ele>794.0</ele><time>2026-05-01T09:32:01Z</time></trkpt><trkpt lat="45.647082720025494" lon="11.230153118939391"><ele>794.0</ele><time>2026-05-01T09:32:02Z</time></trkpt><trkpt lat="45.646971732524165" lon="11.230235811831124"><ele>794.0</ele><time>2026-05-01T09:32:03Z</time></trkpt><trkpt lat="45.64686025209954" lon="11.230334339763786"><ele>793.25</ele><time>2026-05-01T09:32:04Z</time></trkpt><trkpt lat="45.64674081069225" lon="11.230423277274491"><ele>792.5</ele><time>2026-05-01T09:32:05Z</time></trkpt><trkpt lat="45.646637097784115" lon="11.230530447956951"><ele>791.75</ele><time>2026-05-01T09:32:06Z</time></trkpt><trkpt lat="45.64652308560408" lon="11.230623231757647"><ele>791.0</ele><time>2026-05-01T09:32:07Z</time></trkpt><trkpt lat="45.64641126976581" lon="11.230722474199856"><ele>791.0</ele><time>2026-05-01T09:32:08Z</time></trkpt><trkpt lat="45.64629245135006" lon="11.230811751499592"><ele>791.0</ele><time>2026-05-01T09:32:09Z</time></trkpt><trkpt lat="45.64618128306533" lon="11.230921966240627"><ele>791.0</ele><time>2026-05-01T09:32:10Z</time></trkpt><trkpt lat="45.6460661341648" lon="11.23102113588329"><ele>791.0</ele><time>2026-05-01T09:32:11Z</time></trkpt><trkpt lat="45.645951797991245" lon="11.231110360202694"><ele>786.75</ele><time>2026-05-01T09:32:12Z</time></trkpt><trkpt lat="45.64584109196275" lon="11.231185348120112"><ele>782.5</ele><time>2026-05-01T09:32:13Z</time></trkpt><trkpt lat="45.64573429525342" lon="11.23125572530138"><ele>778.25</ele><time>2026-05-01T09:32:14Z</time></trkpt><trkpt lat="45.645631130324574" lon="11.231322511079494"><ele>774.0</ele><time>2026-05-01T09:32:15Z</time></trkpt><trkpt lat="45.64553826941423" lon="11.231396336805231"><ele>774.0</ele><time>2026-05-01T09:32:16Z</time></trkpt><trkpt lat="45.64544907641818" lon="11.231468222174074"><ele>774.0</ele><time>2026-05-01T09:32:17Z</time></trkpt><trkpt lat="45.64536010921822" lon="11.231526634374438"><ele>774.0</ele><time>2026-05-01T09:32:18Z</time></trkpt><trkpt lat="45.6452981128284" lon="11.231597618917528"><ele>774.0</ele><time>2026-05-01T09:32:19Z</time></trkpt><trkpt lat="45.64521348386799" lon="11.231736554497859"><ele>774.0</ele><time>2026-05-01T09:32:21Z</time></trkpt><trkpt lat="45.64516462504429" lon="11.231814055188913"><ele>775.4000000000001</ele><time>2026-05-01T09:32:22Z</time></trkpt><trkpt lat="45.64516455203092" lon="11.231954441262172"><ele>776.8</ele><time>2026-05-01T09:32:23Z</time></trkpt><trkpt lat="45.645145458851054" lon="11.232089515266075"><ele>778.2</ele><time>2026-05-01T09:32:24Z</time></trkpt><trkpt lat="45.64510092153851" lon="11.23222971053254"><ele>779.5999999999999</ele><time>2026-05-01T09:32:25Z</time></trkpt><trkpt lat="45.64505693075051" lon="11.232361920125324"><ele>781.0</ele><time>2026-05-01T09:32:26Z</time></trkpt><trkpt lat="45.64502110374849" lon="11.232511544539252"><ele>780.8</ele><time>2026-05-01T09:32:27Z</time></trkpt><trkpt lat="45.6450090443029" lon="11.232664250004959"><ele>780.5999999999999</ele><time>2026-05-01T09:32:28Z</time></trkpt><trkpt lat="45.6449955250147" lon="11.232812816542024"><ele>780.4</ele><time>2026-05-01T09:32:29Z</time></trkpt><trkpt lat="45.64500622519087" lon="11.23295730790463"><ele>780.2</ele><time>2026-05-01T09:32:30Z</time></trkpt><trkpt lat="45.645035534365825" lon="11.23309512385224"><ele>780.0</ele><time>2026-05-01T09:32:31Z</time></trkpt><trkpt lat="45.645067031069225" lon="11.23321967765406"><ele>780.0</ele><time>2026-05-01T09:32:32Z</time></trkpt><trkpt lat="45.64507977603492" lon="11.233345451092063"><ele>780.0</ele><time>2026-05-01T09:32:33Z</time></trkpt><trkpt lat="45.6451058281168" lon="11.233466038311516"><ele>780.0</ele><time>2026-05-01T09:32:34Z</time></trkpt><trkpt lat="45.64514560340915" lon="11.233589312068899"><ele>780.0</ele><time>2026-05-01T09:32:35Z</time></trkpt><trkpt lat="45.64512945701381" lon="11.233733194615876"><ele>780.0</ele><time>2026-05-01T09:32:36Z</time></trkpt><trkpt lat="45.64509856229093" lon="11.233851373954948"><ele>780.0</ele><time>2026-05-01T09:32:37Z</time></trkpt><trkpt lat="45.64502263766308" lon="11.233957562220986"><ele>780.0</ele><time>2026-05-01T09:32:38Z</time></trkpt><trkpt lat="45.64495830565748" lon="11.23410299281556"><ele>780.0</ele><time>2026-05-01T09:32:39Z</time></trkpt><trkpt lat="45.64489142370953" lon="11.23423054852299"><ele>780.0</ele><time>2026-05-01T09:32:40Z</time></trkpt><trkpt lat="45.64482795840428" lon="11.234335614415523"><ele>780.0</ele><time>2026-05-01T09:32:41Z</time></trkpt><trkpt lat="45.64479031036525" lon="11.234448378729939"><ele>780.4</ele><time>2026-05-01T09:32:42Z</time></trkpt><trkpt lat="45.64474365944706" lon="11.23453262187777"><ele>780.8</ele><time>2026-05-01T09:32:43Z</time></trkpt><trkpt lat="45.64471902273166" lon="11.234644598805414"><ele>781.2</ele><time>2026-05-01T09:32:44Z</time></trkpt><trkpt lat="45.644717988099224" lon="11.234779206980257"><ele>781.6</ele><time>2026-05-01T09:32:45Z</time></trkpt><trkpt lat="45.64472728734104" lon="11.23492615170486"><ele>782.0</ele><time>2026-05-01T09:32:46Z</time></trkpt><trkpt lat="45.64475691930114" lon="11.235078316193967"><ele>782.2</ele><time>2026-05-01T09:32:47Z</time></trkpt><trkpt lat="45.644771429183706" lon="11.235231362829909"><ele>782.4000000000001</ele><time>2026-05-01T09:32:48Z</time></trkpt><trkpt lat="45.64477998405157" lon="11.235376166342217"><ele>782.5999999999999</ele><time>2026-05-01T09:32:49Z</time></trkpt><trkpt lat="45.6447796182872" lon="11.235523461568729"><ele>782.8</ele><time>2026-05-01T09:32:50Z</time></trkpt><trkpt lat="45.644775642543195" lon="11.235697883739292"><ele>783.0</ele><time>2026-05-01T09:32:51Z</time></trkpt><trkpt lat="45.64471998618019" lon="11.235869253023958"><ele>781.5999999999999</ele><time>2026-05-01T09:32:52Z</time></trkpt><trkpt lat="45.644711954513795" lon="11.236028157481012"><ele>780.1999999999999</ele><time>2026-05-01T09:32:53Z</time></trkpt><trkpt lat="45.644701280721016" lon="11.236165418979104"><ele>778.8</ele><time>2026-05-01T09:32:54Z</time></trkpt><trkpt lat="45.64471959959973" lon="11.236300215461227"><ele>777.4</ele><time>2026-05-01T09:32:55Z</time></trkpt><trkpt lat="45.64477573345973" lon="11.23642029878257"><ele>776.0</ele><time>2026-05-01T09:32:56Z</time></trkpt><trkpt lat="45.64484206920617" lon="11.236535023172017"><ele>774.75</ele><time>2026-05-01T09:32:57Z</time></trkpt><trkpt lat="45.644896012550475" lon="11.236676071028105"><ele>773.5</ele><time>2026-05-01T09:32:58Z</time></trkpt><trkpt lat="45.64495821613118" lon="11.23680974522242"><ele>772.25</ele><time>2026-05-01T09:32:59Z</time></trkpt><trkpt lat="45.64502227286543" lon="11.236950449939858"><ele>771.0</ele><time>2026-05-01T09:33:00Z</time></trkpt><trkpt lat="45.64508406363525" lon="11.237092652951814"><ele>771.0</ele><time>2026-05-01T09:33:01Z</time></trkpt><trkpt lat="45.64513518802385" lon="11.237237318896284"><ele>771.0</ele><time>2026-05-01T09:33:02Z</time></trkpt><trkpt lat="45.645158670967874" lon="11.237386259765266"><ele>771.0</ele><time>2026-05-01T09:33:03Z</time></trkpt><trkpt lat="45.64514052686094" lon="11.23753048828515"><ele>771.0</ele><time>2026-05-01T09:33:04Z</time></trkpt><trkpt lat="45.645110712064586" lon="11.237688390486806"><ele>771.0</ele><time>2026-05-01T09:33:05Z</time></trkpt><trkpt lat="45.645078136240166" lon="11.237848193143387"><ele>771.5</ele><time>2026-05-01T09:33:06Z</time></trkpt><trkpt lat="45.64504973120045" lon="11.238003631130733"><ele>772.0</ele><time>2026-05-01T09:33:07Z</time></trkpt><trkpt lat="45.645049679527894" lon="11.238166432915936"><ele>772.5</ele><time>2026-05-01T09:33:08Z</time></trkpt><trkpt lat="45.645047901541346" lon="11.23833512818717"><ele>773.0</ele><time>2026-05-01T09:33:09Z</time></trkpt><trkpt lat="45.64502138830729" lon="11.238510779472053"><ele>773.75</ele><time>2026-05-01T09:33:10Z</time></trkpt><trkpt lat="45.64498548870328" lon="11.23867924780592"><ele>774.5</ele><time>2026-05-01T09:33:11Z</time></trkpt><trkpt lat="45.6449402712862" lon="11.238841654023627"><ele>775.25</ele><time>2026-05-01T09:33:12Z</time></trkpt><trkpt lat="45.64490642604805" lon="11.239009797240358"><ele>776.0</ele><time>2026-05-01T09:33:13Z</time></trkpt><trkpt lat="45.644858072986146" lon="11.239162006446833"><ele>776.4</ele><time>2026-05-01T09:33:14Z</time></trkpt><trkpt lat="45.644817501688316" lon="11.239314970721388"><ele>776.8</ele><time>2026-05-01T09:33:15Z</time></trkpt><trkpt lat="45.64478010788141" lon="11.23945546771415"><ele>777.1999999999999</ele><time>2026-05-01T09:33:16Z</time></trkpt><trkpt lat="45.644768308106734" lon="11.239589200542888"><ele>777.5999999999999</ele><time>2026-05-01T09:33:17Z</time></trkpt><trkpt lat="45.6447634476819" lon="11.239731522336644"><ele>778.0</ele><time>2026-05-01T09:33:18Z</time></trkpt><trkpt lat="45.64476384141465" lon="11.239861750521946"><ele>777.9999999999999</ele><time>2026-05-01T09:33:19Z</time></trkpt><trkpt lat="45.644738628428996" lon="11.239988567200758"><ele>778.0</ele><time>2026-05-01T09:33:20Z</time></trkpt><trkpt lat="45.64469765822672" lon="11.2401077687604"><ele>778.0</ele><time>2026-05-01T09:33:21Z</time></trkpt><trkpt lat="45.64463603815858" lon="11.240210037914027"><ele>778.0</ele><time>2026-05-01T09:33:22Z</time></trkpt><trkpt lat="45.64456953617316" lon="11.240290846830424"><ele>777.9999999999999</ele><time>2026-05-01T09:33:23Z</time></trkpt><trkpt lat="45.64450970198402" lon="11.24035618878095"><ele>778.0</ele><time>2026-05-01T09:33:24Z</time></trkpt><trkpt lat="45.644439906624825" lon="11.240479433001434"><ele>775.5999999999999</ele><time>2026-05-01T09:33:26Z</time></trkpt><trkpt lat="45.644430770766796" lon="11.240641948958952"><ele>773.1999999999999</ele><time>2026-05-01T09:33:28Z</time></trkpt><trkpt lat="45.644392107760574" lon="11.24073359779374"><ele>770.8</ele><time>2026-05-01T09:33:29Z</time></trkpt><trkpt lat="45.64435780956318" lon="11.240857422067108"><ele>768.4</ele><time>2026-05-01T09:33:30Z</time></trkpt><trkpt lat="45.644315999900236" lon="11.240974815611818"><ele>766.0</ele><time>2026-05-01T09:33:31Z</time></trkpt><trkpt lat="45.64428869267099" lon="11.241092629381855"><ele>766.0</ele><time>2026-05-01T09:33:32Z</time></trkpt><trkpt lat="45.64424542908864" lon="11.241198736665558"><ele>766.0</ele><time>2026-05-01T09:33:33Z</time></trkpt><trkpt lat="45.64421699385833" lon="11.241315210585919"><ele>766.0</ele><time>2026-05-01T09:33:34Z</time></trkpt><trkpt lat="45.644181160654504" lon="11.241421149306351"><ele>766.0</ele><time>2026-05-01T09:33:35Z</time></trkpt><trkpt lat="45.644163758780124" lon="11.241538648741132"><ele>766.0</ele><time>2026-05-01T09:33:36Z</time></trkpt><trkpt lat="45.64415533674288" lon="11.241656152104161"><ele>766.0</ele><time>2026-05-01T09:33:37Z</time></trkpt><trkpt lat="45.644148564400275" lon="11.241759373064674"><ele>766.1999999999999</ele><time>2026-05-01T09:33:38Z</time></trkpt><trkpt lat="45.644261788794296" lon="11.24186324685887"><ele>766.4</ele><time>2026-05-01T09:33:39Z</time></trkpt><trkpt lat="45.64432281815" lon="11.241951299753984"><ele>766.6</ele><time>2026-05-01T09:33:40Z</time></trkpt><trkpt lat="45.644389670458054" lon="11.242045491480308"><ele>766.8</ele><time>2026-05-01T09:33:41Z</time></trkpt><trkpt lat="45.64445900695863" lon="11.242128887919337"><ele>767.0</ele><time>2026-05-01T09:33:42Z</time></trkpt><trkpt lat="45.64453283772224" lon="11.242200631897932"><ele>767.0</ele><time>2026-05-01T09:33:43Z</time></trkpt><trkpt lat="45.644601968022926" lon="11.24225339748152"><ele>767.0</ele><time>2026-05-01T09:33:44Z</time></trkpt><trkpt lat="45.64468531103378" lon="11.242299595357355"><ele>767.0</ele><time>2026-05-01T09:33:45Z</time></trkpt><trkpt lat="45.64476216345202" lon="11.242340701112564"><ele>767.0</ele><time>2026-05-01T09:33:46Z</time></trkpt><trkpt lat="45.64481237304301" lon="11.242429604913195"><ele>767.0</ele><time>2026-05-01T09:33:47Z</time></trkpt><trkpt lat="45.64488025438385" lon="11.242504625919302"><ele>767.0</ele><time>2026-05-01T09:33:48Z</time></trkpt><trkpt lat="45.644936985981374" lon="11.24256901627237"><ele>765.7142857142858</ele><time>2026-05-01T09:33:49Z</time></trkpt><trkpt lat="45.64500108456412" lon="11.242621246844333"><ele>764.4285714285714</ele><time>2026-05-01T09:33:50Z</time></trkpt><trkpt lat="45.64504235339707" lon="11.242694051468604"><ele>763.1428571428571</ele><time>2026-05-01T09:33:51Z</time></trkpt><trkpt lat="45.645066386058495" lon="11.242781882770263"><ele>761.8571428571429</ele><time>2026-05-01T09:33:52Z</time></trkpt><trkpt lat="45.645054684059446" lon="11.242875223967646"><ele>760.5714285714286</ele><time>2026-05-01T09:33:53Z</time></trkpt><trkpt lat="45.64507060782143" lon="11.242981212657908"><ele>759.2857142857143</ele><time>2026-05-01T09:33:54Z</time></trkpt><trkpt lat="45.645044486576595" lon="11.243097936171857"><ele>758.0</ele><time>2026-05-01T09:33:55Z</time></trkpt><trkpt lat="45.64506436929721" lon="11.24321380754489"><ele>757.2</ele><time>2026-05-01T09:33:56Z</time></trkpt><trkpt lat="45.64512146796301" lon="11.243316752679956"><ele>756.4</ele><time>2026-05-01T09:33:57Z</time></trkpt><trkpt lat="45.645181058665024" lon="11.243421495657849"><ele>755.6</ele><time>2026-05-01T09:33:58Z</time></trkpt><trkpt lat="45.645242671403835" lon="11.243523316523287"><ele>754.8000000000001</ele><time>2026-05-01T09:33:59Z</time></trkpt><trkpt lat="45.645292688732695" lon="11.243632682129322"><ele>754.0</ele><time>2026-05-01T09:34:00Z</time></trkpt><trkpt lat="45.64528662696844" lon="11.243790773506085"><ele>753.9999999999999</ele><time>2026-05-01T09:34:02Z</time></trkpt><trkpt lat="45.64522301449775" lon="11.243845991757121"><ele>754.0</ele><time>2026-05-01T09:34:03Z</time></trkpt><trkpt lat="45.64518805793007" lon="11.24393440395323"><ele>754.0</ele><time>2026-05-01T09:34:04Z</time></trkpt><trkpt lat="45.64515951673975" lon="11.244023370368064"><ele>754.0</ele><time>2026-05-01T09:34:05Z</time></trkpt><trkpt lat="45.64513610377647" lon="11.24411248355163"><ele>754.0</ele><time>2026-05-01T09:34:06Z</time></trkpt><trkpt lat="45.645111440540006" lon="11.244200609212426"><ele>753.9999999999999</ele><time>2026-05-01T09:34:07Z</time></trkpt><trkpt lat="45.64507962205802" lon="11.244282139265158"><ele>754.0</ele><time>2026-05-01T09:34:08Z</time></trkpt><trkpt lat="45.64498090656457" lon="11.244404967399811"><ele>752.6666666666667</ele><time>2026-05-01T09:34:10Z</time></trkpt><trkpt lat="45.644933096885" lon="11.244487653731372"><ele>751.3333333333334</ele><time>2026-05-01T09:34:11Z</time></trkpt><trkpt lat="45.64487126387074" lon="11.244547877919077"><ele>750.0</ele><time>2026-05-01T09:34:12Z</time></trkpt><trkpt lat="45.64480392836932" lon="11.24458885686305"><ele>748.6666666666666</ele><time>2026-05-01T09:34:13Z</time></trkpt><trkpt lat="45.64473044960147" lon="11.244612984302526"><ele>747.3333333333333</ele><time>2026-05-01T09:34:14Z</time></trkpt><trkpt lat="45.64464961302847" lon="11.244637549875984"><ele>746.0</ele><time>2026-05-01T09:34:15Z</time></trkpt><trkpt lat="45.64457955870945" lon="11.244705953054664"><ele>746.0</ele><time>2026-05-01T09:34:16Z</time></trkpt><trkpt lat="45.644510008040776" lon="11.244774550011922"><ele>746.0</ele><time>2026-05-01T09:34:17Z</time></trkpt><trkpt lat="45.64443860656201" lon="11.244839940261247"><ele>746.0</ele><time>2026-05-01T09:34:18Z</time></trkpt><trkpt lat="45.64437132294402" lon="11.244910886327565"><ele>746.0</ele><time>2026-05-01T09:34:19Z</time></trkpt><trkpt lat="45.64428786115454" lon="11.244940646846324"><ele>746.0</ele><time>2026-05-01T09:34:20Z</time></trkpt><trkpt lat="45.644204917306425" lon="11.244960060728088"><ele>746.0</ele><time>2026-05-01T09:34:21Z</time></trkpt><trkpt lat="45.64412775640234" lon="11.244954356306522"><ele>743.5999999999999</ele><time>2026-05-01T09:34:22Z</time></trkpt><trkpt lat="45.6440684985297" lon="11.244993326089286"><ele>741.2</ele><time>2026-05-01T09:34:23Z</time></trkpt><trkpt lat="45.64395712388335" lon="11.245049484609675"><ele>738.8</ele><time>2026-05-01T09:34:25Z</time></trkpt><trkpt lat="45.64386498931367" lon="11.245074659919586"><ele>736.4000000000001</ele><time>2026-05-01T09:34:27Z</time></trkpt><trkpt lat="45.643803294883085" lon="11.245140060893402"><ele>734.0</ele><time>2026-05-01T09:34:40Z</time></trkpt><trkpt lat="45.643704699661725" lon="11.245212285453645"><ele>733.5</ele><time>2026-05-01T09:34:42Z</time></trkpt><trkpt lat="45.643608413790986" lon="11.245308842878204"><ele>733.0</ele><time>2026-05-01T09:34:44Z</time></trkpt><trkpt lat="45.643545047361854" lon="11.245406813529963"><ele>732.5</ele><time>2026-05-01T09:34:46Z</time></trkpt><trkpt lat="45.64350867501277" lon="11.245488984551596"><ele>732.0</ele><time>2026-05-01T09:34:49Z</time></trkpt><trkpt lat="45.643499157645955" lon="11.245579205808392"><ele>731.5</ele><time>2026-05-01T09:35:03Z</time></trkpt><trkpt lat="45.64344884078361" lon="11.245690362780728"><ele>731.0</ele><time>2026-05-01T09:35:06Z</time></trkpt><trkpt lat="45.64341334910842" lon="11.24577445938126"><ele>731.0</ele><time>2026-05-01T09:35:08Z</time></trkpt><trkpt lat="45.64335570205356" lon="11.245825437605275"><ele>731.0</ele><time>2026-05-01T09:35:10Z</time></trkpt><trkpt lat="45.64331742983196" lon="11.245899270295237"><ele>731.0</ele><time>2026-05-01T09:35:12Z</time></trkpt><trkpt lat="45.64327413537051" lon="11.245990149827188"><ele>731.0</ele><time>2026-05-01T09:35:14Z</time></trkpt><trkpt lat="45.64318556102306" lon="11.245993389329355"><ele>731.0</ele><time>2026-05-01T09:35:16Z</time></trkpt><trkpt lat="45.64308555131394" lon="11.245984222284367"><ele>731.0</ele><time>2026-05-01T09:35:18Z</time></trkpt><trkpt lat="45.643001787013624" lon="11.24591046151594"><ele>731.0</ele><time>2026-05-01T09:35:20Z</time></trkpt><trkpt lat="45.64293770579196" lon="11.24582169229387"><ele>731.0</ele><time>2026-05-01T09:35:22Z</time></trkpt><trkpt lat="45.64287503112491" lon="11.245749301172562"><ele>731.0</ele><time>2026-05-01T09:35:24Z</time></trkpt><trkpt lat="45.64279820840749" lon="11.2456620664436"><ele>731.0</ele><time>2026-05-01T09:35:26Z</time></trkpt><trkpt lat="45.64270930381971" lon="11.245610267263704"><ele>731.0</ele><time>2026-05-01T09:35:28Z</time></trkpt><trkpt lat="45.64261213437509" lon="11.245565025035877"><ele>735.4</ele><time>2026-05-01T09:35:30Z</time></trkpt><trkpt lat="45.642504145211525" lon="11.245524430687585"><ele>739.8</ele><time>2026-05-01T09:35:32Z</time></trkpt><trkpt lat="45.64239518032229" lon="11.245493719010236"><ele>744.1999999999999</ele><time>2026-05-01T09:35:34Z</time></trkpt><trkpt lat="45.64233328502889" lon="11.245475936713513"><ele>748.5999999999999</ele><time>2026-05-01T09:35:35Z</time></trkpt><trkpt lat="45.642226449441324" lon="11.245545612969625"><ele>753.0</ele><time>2026-05-01T09:35:37Z</time></trkpt><trkpt lat="45.64211740740125" lon="11.24559854013738"><ele>749.2</ele><time>2026-05-01T09:35:39Z</time></trkpt><trkpt lat="45.64199912905243" lon="11.245652023100298"><ele>745.4</ele><time>2026-05-01T09:35:41Z</time></trkpt><trkpt lat="45.64193279370296" lon="11.245678012662172"><ele>741.6</ele><time>2026-05-01T09:35:42Z</time></trkpt><trkpt lat="45.641819117009014" lon="11.245726752442303"><ele>737.8000000000001</ele><time>2026-05-01T09:35:44Z</time></trkpt><trkpt lat="45.64171300513806" lon="11.245779825542366"><ele>734.0</ele><time>2026-05-01T09:35:46Z</time></trkpt><trkpt lat="45.64164647656811" lon="11.245808753662208"><ele>733.8333333333333</ele><time>2026-05-01T09:35:47Z</time></trkpt><trkpt lat="45.64157418071889" lon="11.245839747460124"><ele>733.6666666666666</ele><time>2026-05-01T09:35:48Z</time></trkpt><trkpt lat="45.64149948999287" lon="11.245869896723718"><ele>733.5</ele><time>2026-05-01T09:35:49Z</time></trkpt><trkpt lat="45.641422060496545" lon="11.245899231411391"><ele>733.3333333333334</ele><time>2026-05-01T09:35:50Z</time></trkpt><trkpt lat="45.6413427219255" lon="11.245930031307918"><ele>733.1666666666667</ele><time>2026-05-01T09:35:51Z</time></trkpt><trkpt lat="45.64125996069631" lon="11.24591893017395"><ele>733.0</ele><time>2026-05-01T09:35:52Z</time></trkpt><trkpt lat="45.641177477985615" lon="11.245901047559705"><ele>734.2</ele><time>2026-05-01T09:35:53Z</time></trkpt><trkpt lat="45.64108812970115" lon="11.245896234754282"><ele>735.4</ele><time>2026-05-01T09:35:54Z</time></trkpt><trkpt lat="45.64099066262858" lon="11.245931090637429"><ele>736.6</ele><time>2026-05-01T09:35:55Z</time></trkpt><trkpt lat="45.64089373304263" lon="11.245984109360661"><ele>737.8000000000001</ele><time>2026-05-01T09:35:56Z</time></trkpt><trkpt lat="45.6408025359167" lon="11.24604473546331"><ele>739.0</ele><time>2026-05-01T09:35:57Z</time></trkpt><trkpt lat="45.64071061259047" lon="11.246103420861902"><ele>739.0</ele><time>2026-05-01T09:35:58Z</time></trkpt><trkpt lat="45.64064287759045" lon="11.246170829570888"><ele>739.0</ele><time>2026-05-01T09:35:59Z</time></trkpt><trkpt lat="45.64056707983002" lon="11.246226296490688"><ele>739.0</ele><time>2026-05-01T09:36:00Z</time></trkpt><trkpt lat="45.64049761923273" lon="11.246282450326227"><ele>739.0</ele><time>2026-05-01T09:36:01Z</time></trkpt><trkpt lat="45.64041940660494" lon="11.246337703319018"><ele>739.0</ele><time>2026-05-01T09:36:02Z</time></trkpt><trkpt lat="45.64033387159253" lon="11.246381908437657"><ele>739.0</ele><time>2026-05-01T09:36:03Z</time></trkpt><trkpt lat="45.640234666262366" lon="11.246374528980011"><ele>739.8000000000001</ele><time>2026-05-01T09:36:04Z</time></trkpt><trkpt lat="45.64014058295984" lon="11.246404302574355"><ele>740.6</ele><time>2026-05-01T09:36:05Z</time></trkpt><trkpt lat="45.640055451022064" lon="11.246439492444116"><ele>741.4</ele><time>2026-05-01T09:36:06Z</time></trkpt><trkpt lat="45.639979994660514" lon="11.24650904380923"><ele>742.2</ele><time>2026-05-01T09:36:07Z</time></trkpt><trkpt lat="45.63990024020219" lon="11.2465649343256"><ele>743.0</ele><time>2026-05-01T09:36:08Z</time></trkpt><trkpt lat="45.639825309469146" lon="11.246632924483935"><ele>743.0</ele><time>2026-05-01T09:36:09Z</time></trkpt><trkpt lat="45.639757661723486" lon="11.246708323481458"><ele>743.0</ele><time>2026-05-01T09:36:10Z</time></trkpt><trkpt lat="45.6396886262798" lon="11.246770205579423"><ele>743.0</ele><time>2026-05-01T09:36:11Z</time></trkpt><trkpt lat="45.63961397157769" lon="11.246804124772648"><ele>743.0</ele><time>2026-05-01T09:36:12Z</time></trkpt><trkpt lat="45.639523907496994" lon="11.246885211152454"><ele>743.0</ele><time>2026-05-01T09:36:14Z</time></trkpt><trkpt lat="45.63944089018603" lon="11.246980363483072"><ele>743.0</ele><time>2026-05-01T09:36:16Z</time></trkpt><trkpt lat="45.63938532102828" lon="11.247028177627325"><ele>743.0</ele><time>2026-05-01T09:36:17Z</time></trkpt><trkpt lat="45.639333810697075" lon="11.247081153202137"><ele>743.0</ele><time>2026-05-01T09:36:18Z</time></trkpt><trkpt lat="45.6392800459835" lon="11.2471426736816"><ele>743.0</ele><time>2026-05-01T09:36:19Z</time></trkpt><trkpt lat="45.63922489980864" lon="11.247194807880488"><ele>743.0</ele><time>2026-05-01T09:36:20Z</time></trkpt><trkpt lat="45.63915991682256" lon="11.247230559641451"><ele>743.0</ele><time>2026-05-01T09:36:21Z</time></trkpt><trkpt lat="45.63908156531795" lon="11.247258707682109"><ele>743.0</ele><time>2026-05-01T09:36:22Z</time></trkpt><trkpt lat="45.63899455077775" lon="11.247282403686103"><ele>741.5999999999999</ele><time>2026-05-01T09:36:23Z</time></trkpt><trkpt lat="45.63890261852356" lon="11.24731139494942"><ele>740.1999999999999</ele><time>2026-05-01T09:36:24Z</time></trkpt><trkpt lat="45.63880795875937" lon="11.247352052529239"><ele>738.8</ele><time>2026-05-01T09:36:25Z</time></trkpt><trkpt lat="45.63871091248562" lon="11.247395727910975"><ele>737.4</ele><time>2026-05-01T09:36:26Z</time></trkpt><trkpt lat="45.63861297645884" lon="11.247443680230345"><ele>736.0</ele><time>2026-05-01T09:36:27Z</time></trkpt><trkpt lat="45.63852089807451" lon="11.247462401339128"><ele>736.0</ele><time>2026-05-01T09:36:28Z</time></trkpt><trkpt lat="45.638437147562804" lon="11.247499386944755"><ele>736.0</ele><time>2026-05-01T09:36:29Z</time></trkpt><trkpt lat="45.638365039959204" lon="11.247531230940439"><ele>736.0</ele><time>2026-05-01T09:36:30Z</time></trkpt><trkpt lat="45.638297168944625" lon="11.247570300627661"><ele>736.0</ele><time>2026-05-01T09:36:31Z</time></trkpt><trkpt lat="45.63823081939342" lon="11.247603622366247"><ele>736.0</ele><time>2026-05-01T09:36:32Z</time></trkpt><trkpt lat="45.638161881799576" lon="11.247623024290998"><ele>736.0</ele><time>2026-05-01T09:36:33Z</time></trkpt><trkpt lat="45.63809386497368" lon="11.247659842949941"><ele>736.0</ele><time>2026-05-01T09:36:34Z</time></trkpt><trkpt lat="45.638021556768585" lon="11.247691987030011"><ele>736.0</ele><time>2026-05-01T09:36:35Z</time></trkpt><trkpt lat="45.63794698227642" lon="11.247721191042684"><ele>736.0</ele><time>2026-05-01T09:36:36Z</time></trkpt><trkpt lat="45.63787511515314" lon="11.24775316188444"><ele>736.0</ele><time>2026-05-01T09:36:37Z</time></trkpt><trkpt lat="45.637811811233824" lon="11.247782164234376"><ele>736.0</ele><time>2026-05-01T09:36:38Z</time></trkpt><trkpt lat="45.63770368299009" lon="11.247831484873055"><ele>736.0</ele><time>2026-05-01T09:36:40Z</time></trkpt><trkpt lat="45.63763016475642" lon="11.24786251270241"><ele>735.8333333333334</ele><time>2026-05-01T09:36:42Z</time></trkpt><trkpt lat="45.63755403007201" lon="11.247884051407139"><ele>735.6666666666667</ele><time>2026-05-01T09:36:45Z</time></trkpt><trkpt lat="45.63757825737273" lon="11.248058002211236"><ele>735.5</ele><time>2026-05-01T09:36:48Z</time></trkpt><trkpt lat="45.637619054746224" lon="11.24815105938751"><ele>735.3333333333334</ele><time>2026-05-01T09:36:51Z</time></trkpt><trkpt lat="45.637644337781715" lon="11.24825026357718"><ele>735.1666666666666</ele><time>2026-05-01T09:36:54Z</time></trkpt><trkpt lat="45.6376829572074" lon="11.248342337617098"><ele>735.0</ele><time>2026-05-01T09:36:58Z</time></trkpt><trkpt lat="45.637716973202615" lon="11.248428233368115"><ele>735.0</ele><time>2026-05-01T09:37:01Z</time></trkpt><trkpt lat="45.63777642934049" lon="11.248512274802357"><ele>735.0</ele><time>2026-05-01T09:37:14Z</time></trkpt><trkpt lat="45.63780854703029" lon="11.248665031159707"><ele>735.0</ele><time>2026-05-01T09:37:16Z</time></trkpt><trkpt lat="45.637787829491515" lon="11.24875489359309"><ele>735.0</ele><time>2026-05-01T09:37:17Z</time></trkpt><trkpt lat="45.63774252811485" lon="11.248837623703858"><ele>735.0</ele><time>2026-05-01T09:37:18Z</time></trkpt><trkpt lat="45.637646688572914" lon="11.248865500504106"><ele>735.0</ele><time>2026-05-01T09:37:19Z</time></trkpt><trkpt lat="45.637561552335704" lon="11.248910470832207"><ele>733.4</ele><time>2026-05-01T09:37:20Z</time></trkpt><trkpt lat="45.63747214304236" lon="11.248965787912136"><ele>731.8</ele><time>2026-05-01T09:37:21Z</time></trkpt><trkpt lat="45.637379497680705" lon="11.249032141233094"><ele>730.2</ele><time>2026-05-01T09:37:22Z</time></trkpt><trkpt lat="45.63729276257389" lon="11.249138423030406"><ele>728.6</ele><time>2026-05-01T09:37:23Z</time></trkpt><trkpt lat="45.63722759283462" lon="11.2492838923904"><ele>727.0</ele><time>2026-05-01T09:37:24Z</time></trkpt><trkpt lat="45.63717685257518" lon="11.249429162257574"><ele>727.0</ele><time>2026-05-01T09:37:25Z</time></trkpt><trkpt lat="45.63712928763564" lon="11.249575266255146"><ele>727.0</ele><time>2026-05-01T09:37:26Z</time></trkpt><trkpt lat="45.6370869820939" lon="11.249719058473767"><ele>727.0</ele><time>2026-05-01T09:37:27Z</time></trkpt><trkpt lat="45.6370437423423" lon="11.249861994670075"><ele>727.0</ele><time>2026-05-01T09:37:28Z</time></trkpt><trkpt lat="45.63700132048771" lon="11.249993833795854"><ele>727.0</ele><time>2026-05-01T09:37:29Z</time></trkpt><trkpt lat="45.63695681817836" lon="11.250098708092365"><ele>726.1666666666667</ele><time>2026-05-01T09:37:30Z</time></trkpt><trkpt lat="45.63690258576878" lon="11.250152776332996"><ele>725.3333333333334</ele><time>2026-05-01T09:37:31Z</time></trkpt><trkpt lat="45.63678395513368" lon="11.250198391863346"><ele>724.5</ele><time>2026-05-01T09:37:33Z</time></trkpt><trkpt lat="45.63672252177902" lon="11.250260757743135"><ele>723.6666666666666</ele><time>2026-05-01T09:37:34Z</time></trkpt><trkpt lat="45.63675610139015" lon="11.2503832106052"><ele>722.8333333333333</ele><time>2026-05-01T09:37:35Z</time></trkpt><trkpt lat="45.63681754376979" lon="11.250456911536796"><ele>722.0</ele><time>2026-05-01T09:37:36Z</time></trkpt><trkpt lat="45.63690470635156" lon="11.250517960244286"><ele>720.25</ele><time>2026-05-01T09:37:37Z</time></trkpt><trkpt lat="45.6370217584175" lon="11.25054656156403"><ele>718.5</ele><time>2026-05-01T09:37:38Z</time></trkpt><trkpt lat="45.63715064669419" lon="11.250569439306073"><ele>716.75</ele><time>2026-05-01T09:37:39Z</time></trkpt><trkpt lat="45.63728885835288" lon="11.250592978743802"><ele>715.0</ele><time>2026-05-01T09:37:40Z</time></trkpt><trkpt lat="45.637422657093076" lon="11.250649367564774"><ele>712.8</ele><time>2026-05-01T09:37:41Z</time></trkpt><trkpt lat="45.63754020189463" lon="11.25067986115079"><ele>710.6</ele><time>2026-05-01T09:37:42Z</time></trkpt><trkpt lat="45.637639466285876" lon="11.250735048495255"><ele>708.4000000000001</ele><time>2026-05-01T09:37:43Z</time></trkpt><trkpt lat="45.63772059780664" lon="11.250834325336413"><ele>706.2</ele><time>2026-05-01T09:37:44Z</time></trkpt><trkpt lat="45.63779886218114" lon="11.250930439813727"><ele>704.0</ele><time>2026-05-01T09:37:45Z</time></trkpt><trkpt lat="45.63787091638259" lon="11.250999922711785"><ele>702.4000000000001</ele><time>2026-05-01T09:37:46Z</time></trkpt><trkpt lat="45.637976003377496" lon="11.250983436876673"><ele>700.8</ele><time>2026-05-01T09:37:47Z</time></trkpt><trkpt lat="45.63806722837245" lon="11.25093076365772"><ele>699.2</ele><time>2026-05-01T09:37:48Z</time></trkpt><trkpt lat="45.638149913530604" lon="11.250832536924868"><ele>697.5999999999999</ele><time>2026-05-01T09:37:49Z</time></trkpt><trkpt lat="45.63823329769368" lon="11.250735040459961"><ele>696.0</ele><time>2026-05-01T09:37:50Z</time></trkpt><trkpt lat="45.63832815941818" lon="11.250682186891144"><ele>696.0</ele><time>2026-05-01T09:37:51Z</time></trkpt><trkpt lat="45.638426774363495" lon="11.250691725751851"><ele>696.0</ele><time>2026-05-01T09:37:52Z</time></trkpt><trkpt lat="45.6385414835199" lon="11.250735336430438"><ele>696.0</ele><time>2026-05-01T09:37:53Z</time></trkpt><trkpt lat="45.638668998504414" lon="11.250778953607403"><ele>696.0</ele><time>2026-05-01T09:37:54Z</time></trkpt><trkpt lat="45.63878482747671" lon="11.250834705777628"><ele>693.8</ele><time>2026-05-01T09:37:55Z</time></trkpt><trkpt lat="45.63889039435995" lon="11.250870830822453"><ele>691.5999999999999</ele><time>2026-05-01T09:37:56Z</time></trkpt><trkpt lat="45.63900004285135" lon="11.250835733340601"><ele>689.4</ele><time>2026-05-01T09:37:57Z</time></trkpt><trkpt lat="45.63909277377803" lon="11.25077336124838"><ele>687.2</ele><time>2026-05-01T09:37:58Z</time></trkpt><trkpt lat="45.639176011463675" lon="11.250760490703696"><ele>685.0</ele><time>2026-05-01T09:37:59Z</time></trkpt><trkpt lat="45.639245154733814" lon="11.250773525791313"><ele>685.0</ele><time>2026-05-01T09:38:00Z</time></trkpt><trkpt lat="45.63929163203043" lon="11.250847550080453"><ele>685.0</ele><time>2026-05-01T09:38:01Z</time></trkpt><trkpt lat="45.63929999373308" lon="11.250959763571307"><ele>685.0</ele><time>2026-05-01T09:38:02Z</time></trkpt><trkpt lat="45.639285074743114" lon="11.251059497988553"><ele>685.0</ele><time>2026-05-01T09:38:03Z</time></trkpt><trkpt lat="45.63920454157667" lon="11.251146280137688"><ele>685.0</ele><time>2026-05-01T09:38:04Z</time></trkpt><trkpt lat="45.639084644173145" lon="11.251173944057836"><ele>685.0</ele><time>2026-05-01T09:38:05Z</time></trkpt><trkpt lat="45.63898052790814" lon="11.251220794163045"><ele>685.0</ele><time>2026-05-01T09:38:06Z</time></trkpt><trkpt lat="45.638889911910276" lon="11.251281568584549"><ele>685.0</ele><time>2026-05-01T09:38:07Z</time></trkpt><trkpt lat="45.63879122292441" lon="11.251355797947422"><ele>685.0</ele><time>2026-05-01T09:38:08Z</time></trkpt><trkpt lat="45.63871403670622" lon="11.251489816069267"><ele>685.0</ele><time>2026-05-01T09:38:09Z</time></trkpt><trkpt lat="45.63866164027218" lon="11.251642382285782"><ele>683.6</ele><time>2026-05-01T09:38:10Z</time></trkpt><trkpt lat="45.6385885386541" lon="11.251739226065036"><ele>682.2</ele><time>2026-05-01T09:38:11Z</time></trkpt><trkpt lat="45.63850124658141" lon="11.251786510021901"><ele>680.8</ele><time>2026-05-01T09:38:12Z</time></trkpt><trkpt lat="45.6383990358618" lon="11.251800134641645"><ele>679.4</ele><time>2026-05-01T09:38:13Z</time></trkpt><trkpt lat="45.63829320840279" lon="11.251880657133098"><ele>678.0</ele><time>2026-05-01T09:38:14Z</time></trkpt><trkpt lat="45.6381821861729" lon="11.251931051761487"><ele>678.0</ele><time>2026-05-01T09:38:15Z</time></trkpt><trkpt lat="45.638087286461214" lon="11.252026703794375"><ele>678.0</ele><time>2026-05-01T09:38:16Z</time></trkpt><trkpt lat="45.63801023980713" lon="11.25215332370895"><ele>678.0</ele><time>2026-05-01T09:38:17Z</time></trkpt><trkpt lat="45.63799574396106" lon="11.25234685451279"><ele>678.0</ele><time>2026-05-01T09:38:18Z</time></trkpt><trkpt lat="45.63797796697973" lon="11.252536322950922"><ele>674.75</ele><time>2026-05-01T09:38:19Z</time></trkpt><trkpt lat="45.6379515347368" lon="11.25270731211529"><ele>671.5</ele><time>2026-05-01T09:38:20Z</time></trkpt><trkpt lat="45.63797649058948" lon="11.252883820675105"><ele>668.25</ele><time>2026-05-01T09:38:21Z</time></trkpt><trkpt lat="45.638071841447065" lon="11.253048994132225"><ele>665.0</ele><time>2026-05-01T09:38:22Z</time></trkpt><trkpt lat="45.63819143066671" lon="11.253202609838006"><ele>662.6666666666666</ele><time>2026-05-01T09:38:23Z</time></trkpt><trkpt lat="45.63829906939147" lon="11.25337950143559"><ele>660.3333333333334</ele><time>2026-05-01T09:38:24Z</time></trkpt><trkpt lat="45.63839128385632" lon="11.253555889382959"><ele>658.0</ele><time>2026-05-01T09:38:25Z</time></trkpt><trkpt lat="45.63847699818479" lon="11.253732878580777"><ele>658.0</ele><time>2026-05-01T09:38:26Z</time></trkpt><trkpt lat="45.638558088276135" lon="11.253900405235708"><ele>658.0</ele><time>2026-05-01T09:38:27Z</time></trkpt><trkpt lat="45.63865060809555" lon="11.254038630899338"><ele>658.0</ele><time>2026-05-01T09:38:28Z</time></trkpt><trkpt lat="45.63874975022045" lon="11.2541765041448"><ele>658.0</ele><time>2026-05-01T09:38:29Z</time></trkpt><trkpt lat="45.63884319558608" lon="11.254325691621741"><ele>656.5</ele><time>2026-05-01T09:38:30Z</time></trkpt><trkpt lat="45.638943833969215" lon="11.254446743226138"><ele>655.0</ele><time>2026-05-01T09:38:31Z</time></trkpt><trkpt lat="45.639053053639834" lon="11.254550601493769"><ele>653.5</ele><time>2026-05-01T09:38:32Z</time></trkpt><trkpt lat="45.63915131842406" lon="11.25466878195748"><ele>652.0</ele><time>2026-05-01T09:38:33Z</time></trkpt><trkpt lat="45.639234790817085" lon="11.254800443683198"><ele>652.0</ele><time>2026-05-01T09:38:34Z</time></trkpt><trkpt lat="45.639336383366384" lon="11.254897153891235"><ele>652.0</ele><time>2026-05-01T09:38:35Z</time></trkpt><trkpt lat="45.63940759869277" lon="11.254990595978617"><ele>652.0</ele><time>2026-05-01T09:38:36Z</time></trkpt><trkpt lat="45.63948419656329" lon="11.255120405782858"><ele>652.0</ele><time>2026-05-01T09:38:38Z</time></trkpt><trkpt lat="45.639525085739386" lon="11.255203413936627"><ele>652.0</ele><time>2026-05-01T09:38:39Z</time></trkpt><trkpt lat="45.639568718065796" lon="11.255297376782478"><ele>652.0</ele><time>2026-05-01T09:38:40Z</time></trkpt><trkpt lat="45.639614173401846" lon="11.255400626089644"><ele>652.0</ele><time>2026-05-01T09:38:41Z</time></trkpt><trkpt lat="45.63965483009761" lon="11.255525156291426"><ele>652.0</ele><time>2026-05-01T09:38:42Z</time></trkpt><trkpt lat="45.63970913913297" lon="11.255618177178164"><ele>652.0</ele><time>2026-05-01T09:38:43Z</time></trkpt><trkpt lat="45.63979556155706" lon="11.255659958609598"><ele>652.0</ele><time>2026-05-01T09:38:44Z</time></trkpt><trkpt lat="45.63988548157186" lon="11.255693454277235"><ele>650.8333333333334</ele><time>2026-05-01T09:38:45Z</time></trkpt><trkpt lat="45.63995980922777" lon="11.255715191498828"><ele>649.6666666666667</ele><time>2026-05-01T09:38:46Z</time></trkpt><trkpt lat="45.64002332477041" lon="11.255748342205177"><ele>648.5</ele><time>2026-05-01T09:38:47Z</time></trkpt><trkpt lat="45.64008534843549" lon="11.255784030913004"><ele>647.3333333333334</ele><time>2026-05-01T09:38:48Z</time></trkpt><trkpt lat="45.640158026143716" lon="11.255824996805094"><ele>646.1666666666666</ele><time>2026-05-01T09:38:49Z</time></trkpt><trkpt lat="45.64024358046788" lon="11.25585915385695"><ele>645.0</ele><time>2026-05-01T09:38:50Z</time></trkpt><trkpt lat="45.64033474796722" lon="11.2558814415369"><ele>643.4</ele><time>2026-05-01T09:38:51Z</time></trkpt><trkpt lat="45.64042790625907" lon="11.255881203100012"><ele>641.8</ele><time>2026-05-01T09:38:52Z</time></trkpt><trkpt lat="45.64052543105535" lon="11.255829397357843"><ele>640.2</ele><time>2026-05-01T09:38:53Z</time></trkpt><trkpt lat="45.64062881666585" lon="11.255748671311917"><ele>638.6</ele><time>2026-05-01T09:38:54Z</time></trkpt><trkpt lat="45.64074037252783" lon="11.255665571162751"><ele>637.0</ele><time>2026-05-01T09:38:55Z</time></trkpt><trkpt lat="45.64084990057321" lon="11.255575762524218"><ele>637.0</ele><time>2026-05-01T09:38:56Z</time></trkpt><trkpt lat="45.640957908329284" lon="11.255504441371508"><ele>637.0</ele><time>2026-05-01T09:38:57Z</time></trkpt><trkpt lat="45.64107299313884" lon="11.25546275325634"><ele>637.0</ele><time>2026-05-01T09:38:58Z</time></trkpt><trkpt lat="45.641188996087266" lon="11.25543246497856"><ele>637.0</ele><time>2026-05-01T09:38:59Z</time></trkpt><trkpt lat="45.641305872338805" lon="11.255417213376962"><ele>632.6</ele><time>2026-05-01T09:39:00Z</time></trkpt><trkpt lat="45.64143136081324" lon="11.255408714083433"><ele>628.2</ele><time>2026-05-01T09:39:01Z</time></trkpt><trkpt lat="45.64155060512633" lon="11.25539638002626"><ele>623.8</ele><time>2026-05-01T09:39:02Z</time></trkpt><trkpt lat="45.641660528064975" lon="11.25538458245396"><ele>619.4</ele><time>2026-05-01T09:39:03Z</time></trkpt><trkpt lat="45.64175122661829" lon="11.255384214148059"><ele>615.0</ele><time>2026-05-01T09:39:04Z</time></trkpt><trkpt lat="45.6418241969626" lon="11.255417259021943"><ele>615.0</ele><time>2026-05-01T09:39:05Z</time></trkpt><trkpt lat="45.64186972960249" lon="11.255524850967607"><ele>615.0</ele><time>2026-05-01T09:39:06Z</time></trkpt><trkpt lat="45.64187965322222" lon="11.25566474892219"><ele>615.0</ele><time>2026-05-01T09:39:07Z</time></trkpt><trkpt lat="45.64192020225345" lon="11.255839711570173"><ele>615.0</ele><time>2026-05-01T09:39:08Z</time></trkpt><trkpt lat="45.64197328569273" lon="11.256021619382565"><ele>612.2</ele><time>2026-05-01T09:39:09Z</time></trkpt><trkpt lat="45.6420010854119" lon="11.256195190516118"><ele>609.4</ele><time>2026-05-01T09:39:10Z</time></trkpt><trkpt lat="45.64203025439795" lon="11.256339897101006"><ele>606.6</ele><time>2026-05-01T09:39:11Z</time></trkpt><trkpt lat="45.642071536998266" lon="11.25646279122009"><ele>603.8</ele><time>2026-05-01T09:39:12Z</time></trkpt><trkpt lat="45.64214916980048" lon="11.256561801775817"><ele>601.0</ele><time>2026-05-01T09:39:13Z</time></trkpt><trkpt lat="45.64226143503036" lon="11.256616424511062"><ele>601.0</ele><time>2026-05-01T09:39:14Z</time></trkpt><trkpt lat="45.64236153475861" lon="11.2566364074622"><ele>601.0</ele><time>2026-05-01T09:39:15Z</time></trkpt><trkpt lat="45.642436844830556" lon="11.25660191663225"><ele>601.0</ele><time>2026-05-01T09:39:16Z</time></trkpt><trkpt lat="45.64249083909918" lon="11.25650184175465"><ele>601.0</ele><time>2026-05-01T09:39:17Z</time></trkpt><trkpt lat="45.64250460283233" lon="11.256367187438684"><ele>601.0</ele><time>2026-05-01T09:39:18Z</time></trkpt><trkpt lat="45.64247339868804" lon="11.256218973649487"><ele>600.6</ele><time>2026-05-01T09:39:19Z</time></trkpt><trkpt lat="45.64241367103028" lon="11.256098608468669"><ele>600.2</ele><time>2026-05-01T09:39:20Z</time></trkpt><trkpt lat="45.64232801506161" lon="11.256000236570173"><ele>599.8</ele><time>2026-05-01T09:39:21Z</time></trkpt><trkpt lat="45.64224621212228" lon="11.255887162942154"><ele>599.4</ele><time>2026-05-01T09:39:22Z</time></trkpt><trkpt lat="45.64220492090177" lon="11.255740769255393"><ele>599.0</ele><time>2026-05-01T09:39:23Z</time></trkpt><trkpt lat="45.6422230434609" lon="11.255574546041442"><ele>596.25</ele><time>2026-05-01T09:39:24Z</time></trkpt><trkpt lat="45.64225780293278" lon="11.255410800440245"><ele>593.5</ele><time>2026-05-01T09:39:25Z</time></trkpt><trkpt lat="45.642278797140456" lon="11.255243532139874"><ele>590.75</ele><time>2026-05-01T09:39:26Z</time></trkpt><trkpt lat="45.642317364156355" lon="11.255091325393057"><ele>588.0</ele><time>2026-05-01T09:39:27Z</time></trkpt><trkpt lat="45.642302477234324" lon="11.254923036819353"><ele>587.0</ele><time>2026-05-01T09:39:28Z</time></trkpt><trkpt lat="45.642247464559446" lon="11.254756921089903"><ele>586.0</ele><time>2026-05-01T09:39:29Z</time></trkpt><trkpt lat="45.642169263288515" lon="11.254596779992815"><ele>585.0</ele><time>2026-05-01T09:39:30Z</time></trkpt><trkpt lat="45.642067464807276" lon="11.254453553429743"><ele>584.0</ele><time>2026-05-01T09:39:31Z</time></trkpt><trkpt lat="45.64198707088289" lon="11.254328026198603"><ele>584.0</ele><time>2026-05-01T09:39:32Z</time></trkpt><trkpt lat="45.64194859865406" lon="11.254193297413345"><ele>584.0</ele><time>2026-05-01T09:39:33Z</time></trkpt><trkpt lat="45.641939190642496" lon="11.25407452650385"><ele>584.0</ele><time>2026-05-01T09:39:34Z</time></trkpt><trkpt lat="45.6419860120628" lon="11.253969163849373"><ele>584.0</ele><time>2026-05-01T09:39:35Z</time></trkpt><trkpt lat="45.642065004471945" lon="11.253875689717725"><ele>584.0</ele><time>2026-05-01T09:39:36Z</time></trkpt><trkpt lat="45.64218083466837" lon="11.25384173206137"><ele>586.0</ele><time>2026-05-01T09:39:37Z</time></trkpt><trkpt lat="45.64230147589178" lon="11.253861912478412"><ele>588.0</ele><time>2026-05-01T09:39:38Z</time></trkpt><trkpt lat="45.64243411836313" lon="11.253901465217577"><ele>590.0</ele><time>2026-05-01T09:39:39Z</time></trkpt><trkpt lat="45.64255777401519" lon="11.253901825976257"><ele>592.0</ele><time>2026-05-01T09:39:40Z</time></trkpt><trkpt lat="45.64267531240648" lon="11.25387205911838"><ele>592.0</ele><time>2026-05-01T09:39:41Z</time></trkpt><trkpt lat="45.642782933961286" lon="11.253793319013752"><ele>592.0</ele><time>2026-05-01T09:39:42Z</time></trkpt><trkpt lat="45.642875788940245" lon="11.253729093111406"><ele>592.0</ele><time>2026-05-01T09:39:43Z</time></trkpt><trkpt lat="45.64296287126158" lon="11.25371020337378"><ele>592.0</ele><time>2026-05-01T09:39:44Z</time></trkpt><trkpt lat="45.64304163191599" lon="11.253799419171083"><ele>592.0</ele><time>2026-05-01T09:39:45Z</time></trkpt><trkpt lat="45.643112298954286" lon="11.253927184095685"><ele>587.5</ele><time>2026-05-01T09:39:46Z</time></trkpt><trkpt lat="45.64321085830643" lon="11.254061048679093"><ele>583.0</ele><time>2026-05-01T09:39:47Z</time></trkpt><trkpt lat="45.64331618060521" lon="11.254190546105635"><ele>578.5</ele><time>2026-05-01T09:39:48Z</time></trkpt><trkpt lat="45.64341086203601" lon="11.254329277866166"><ele>574.0</ele><time>2026-05-01T09:39:49Z</time></trkpt><trkpt lat="45.643505103265746" lon="11.254457152037425"><ele>574.0</ele><time>2026-05-01T09:39:50Z</time></trkpt><trkpt lat="45.6436064809023" lon="11.254587909972853"><ele>574.0</ele><time>2026-05-01T09:39:51Z</time></trkpt><trkpt lat="45.64370736116203" lon="11.254712448819257"><ele>574.0</ele><time>2026-05-01T09:39:52Z</time></trkpt><trkpt lat="45.64380890584781" lon="11.254819672698607"><ele>574.0</ele><time>2026-05-01T09:39:53Z</time></trkpt><trkpt lat="45.643894706819005" lon="11.254917721947916"><ele>572.0</ele><time>2026-05-01T09:39:54Z</time></trkpt><trkpt lat="45.64397625177839" lon="11.255005465806383"><ele>570.0</ele><time>2026-05-01T09:39:55Z</time></trkpt><trkpt lat="45.64405622997227" lon="11.255070728973893"><ele>568.0</ele><time>2026-05-01T09:39:56Z</time></trkpt><trkpt lat="45.644148095431014" lon="11.255079903580562"><ele>566.0</ele><time>2026-05-01T09:39:57Z</time></trkpt><trkpt lat="45.64423906285935" lon="11.25503072797227"><ele>564.0</ele><time>2026-05-01T09:39:58Z</time></trkpt><trkpt lat="45.644326452662916" lon="11.254937919505839"><ele>564.0</ele><time>2026-05-01T09:39:59Z</time></trkpt><trkpt lat="45.64441152777977" lon="11.254923574217193"><ele>564.0</ele><time>2026-05-01T09:40:00Z</time></trkpt><trkpt lat="45.644481843213306" lon="11.254921281689542"><ele>564.0</ele><time>2026-05-01T09:40:01Z</time></trkpt><trkpt lat="45.64453753833163" lon="11.25502736369194"><ele>564.0</ele><time>2026-05-01T09:40:02Z</time></trkpt><trkpt lat="45.64455475874635" lon="11.255178033349118"><ele>564.0</ele><time>2026-05-01T09:40:03Z</time></trkpt><trkpt lat="45.64460012417705" lon="11.255318541168531"><ele>567.25</ele><time>2026-05-01T09:40:04Z</time></trkpt><trkpt lat="45.64462521986838" lon="11.255479287797156"><ele>570.5</ele><time>2026-05-01T09:40:05Z</time></trkpt><trkpt lat="45.644605667902944" lon="11.255659824482194"><ele>573.75</ele><time>2026-05-01T09:40:06Z</time></trkpt><trkpt lat="45.644550588166375" lon="11.25582622940312"><ele>577.0</ele><time>2026-05-01T09:40:07Z</time></trkpt><trkpt lat="45.64447531817651" lon="11.255982260361757"><ele>577.0</ele><time>2026-05-01T09:40:08Z</time></trkpt><trkpt lat="45.644448352176674" lon="11.256122143310407"><ele>577.0</ele><time>2026-05-01T09:40:09Z</time></trkpt><trkpt lat="45.644439890596075" lon="11.256237374067833"><ele>577.0</ele><time>2026-05-01T09:40:10Z</time></trkpt><trkpt lat="45.64448835023601" lon="11.256341641290899"><ele>577.0</ele><time>2026-05-01T09:40:11Z</time></trkpt><trkpt lat="45.64456432708918" lon="11.25640265960492"><ele>577.0</ele><time>2026-05-01T09:40:12Z</time></trkpt><trkpt lat="45.64465613151188" lon="11.2564808333655"><ele>573.8000000000001</ele><time>2026-05-01T09:40:13Z</time></trkpt><trkpt lat="45.64474007356569" lon="11.2565780972117"><ele>570.6</ele><time>2026-05-01T09:40:14Z</time></trkpt><trkpt lat="45.644817567088424" lon="11.256692892374494"><ele>567.4000000000001</ele><time>2026-05-01T09:40:15Z</time></trkpt><trkpt lat="45.644888137597015" lon="11.256805304738977"><ele>564.2</ele><time>2026-05-01T09:40:16Z</time></trkpt><trkpt lat="45.64497836446319" lon="11.256879581745544"><ele>561.0</ele><time>2026-05-01T09:40:17Z</time></trkpt><trkpt lat="45.64508394286538" lon="11.25692351808535"><ele>561.0</ele><time>2026-05-01T09:40:18Z</time></trkpt><trkpt lat="45.64517773911089" lon="11.256965361498601"><ele>561.0</ele><time>2026-05-01T09:40:19Z</time></trkpt><trkpt lat="45.6452636080375" lon="11.257027795037578"><ele>561.0</ele><time>2026-05-01T09:40:20Z</time></trkpt><trkpt lat="45.645328061818404" lon="11.257168916697399"><ele>561.0</ele><time>2026-05-01T09:40:21Z</time></trkpt><trkpt lat="45.64537784416954" lon="11.25733330739017"><ele>561.0</ele><time>2026-05-01T09:40:22Z</time></trkpt><trkpt lat="45.64543276512148" lon="11.257522326607894"><ele>560.5</ele><time>2026-05-01T09:40:23Z</time></trkpt><trkpt lat="45.64547115889837" lon="11.257709883481613"><ele>560.0</ele><time>2026-05-01T09:40:24Z</time></trkpt><trkpt lat="45.64548863504198" lon="11.257911576848935"><ele>559.5</ele><time>2026-05-01T09:40:25Z</time></trkpt><trkpt lat="45.64550479552336" lon="11.258116045598062"><ele>559.0</ele><time>2026-05-01T09:40:26Z</time></trkpt><trkpt lat="45.645541850303516" lon="11.258306555926767"><ele>559.0</ele><time>2026-05-01T09:40:27Z</time></trkpt><trkpt lat="45.645583163542064" lon="11.258490035133049"><ele>559.0</ele><time>2026-05-01T09:40:28Z</time></trkpt><trkpt lat="45.64564076172741" lon="11.258667221921852"><ele>559.0</ele><time>2026-05-01T09:40:29Z</time></trkpt><trkpt lat="45.645679754284835" lon="11.25883763898378"><ele>559.0</ele><time>2026-05-01T09:40:30Z</time></trkpt><trkpt lat="45.645730335536975" lon="11.259000271385583"><ele>556.6</ele><time>2026-05-01T09:40:31Z</time></trkpt><trkpt lat="45.64577617875361" lon="11.259150025805592"><ele>554.2</ele><time>2026-05-01T09:40:32Z</time></trkpt><trkpt lat="45.64581269663586" lon="11.259278515504763"><ele>551.8000000000001</ele><time>2026-05-01T09:40:33Z</time></trkpt><trkpt lat="45.64585904184651" lon="11.259424215192052"><ele>549.4</ele><time>2026-05-01T09:40:34Z</time></trkpt><trkpt lat="45.645900736556555" lon="11.259548793273561"><ele>547.0</ele><time>2026-05-01T09:40:35Z</time></trkpt><trkpt lat="45.64594400035561" lon="11.259659588227835"><ele>547.0</ele><time>2026-05-01T09:40:36Z</time></trkpt><trkpt lat="45.64604794730415" lon="11.25969815148546"><ele>547.0</ele><time>2026-05-01T09:40:37Z</time></trkpt><trkpt lat="45.64615855237943" lon="11.25971496032349"><ele>547.0</ele><time>2026-05-01T09:40:38Z</time></trkpt><trkpt lat="45.64628455711478" lon="11.259694162947184"><ele>547.0</ele><time>2026-05-01T09:40:39Z</time></trkpt><trkpt lat="45.64641737437463" lon="11.259667837453874"><ele>549.25</ele><time>2026-05-01T09:40:40Z</time></trkpt><trkpt lat="45.646532195468815" lon="11.259676309077967"><ele>551.5</ele><time>2026-05-01T09:40:41Z</time></trkpt><trkpt lat="45.64661812415984" lon="11.259787134108334"><ele>553.75</ele><time>2026-05-01T09:40:42Z</time></trkpt><trkpt lat="45.64670427789901" lon="11.259922104779733"><ele>556.0</ele><time>2026-05-01T09:40:43Z</time></trkpt><trkpt lat="45.64680704700051" lon="11.260064444547767"><ele>551.6</ele><time>2026-05-01T09:40:44Z</time></trkpt><trkpt lat="45.64691495474332" lon="11.260172276656276"><ele>547.2</ele><time>2026-05-01T09:40:45Z</time></trkpt><trkpt lat="45.647008427706396" lon="11.260259558129842"><ele>542.8</ele><time>2026-05-01T09:40:46Z</time></trkpt><trkpt lat="45.6470818648739" lon="11.260320453082711"><ele>538.4</ele><time>2026-05-01T09:40:47Z</time></trkpt><trkpt lat="45.647128906245065" lon="11.260398862570904"><ele>534.0</ele><time>2026-05-01T09:40:48Z</time></trkpt><trkpt lat="45.647237845944204" lon="11.260477577828459"><ele>534.0</ele><time>2026-05-01T09:40:50Z</time></trkpt><trkpt lat="45.64732460700017" lon="11.260445080676279"><ele>534.0</ele><time>2026-05-01T09:40:51Z</time></trkpt><trkpt lat="45.64740952040616" lon="11.260419959508607"><ele>534.0</ele><time>2026-05-01T09:40:52Z</time></trkpt><trkpt lat="45.647488013458805" lon="11.26039614931853"><ele>534.0</ele><time>2026-05-01T09:40:53Z</time></trkpt><trkpt lat="45.64757228933531" lon="11.26039433092749"><ele>534.0</ele><time>2026-05-01T09:40:54Z</time></trkpt><trkpt lat="45.647664338205644" lon="11.260359484194357"><ele>534.0</ele><time>2026-05-01T09:40:55Z</time></trkpt><trkpt lat="45.64776520079422" lon="11.260435768771593"><ele>535.6666666666666</ele><time>2026-05-01T09:40:56Z</time></trkpt><trkpt lat="45.64785956987286" lon="11.260570487594334"><ele>537.3333333333333</ele><time>2026-05-01T09:40:57Z</time></trkpt><trkpt lat="45.647959775580844" lon="11.260739791078313"><ele>539.0</ele><time>2026-05-01T09:40:58Z</time></trkpt><trkpt lat="45.64807055739033" lon="11.260922419541348"><ele>534.0</ele><time>2026-05-01T09:40:59Z</time></trkpt><trkpt lat="45.64819063116347" lon="11.261081431103166"><ele>529.0</ele><time>2026-05-01T09:41:00Z</time></trkpt><trkpt lat="45.64829393068632" lon="11.261251521999299"><ele>524.0</ele><time>2026-05-01T09:41:01Z</time></trkpt><trkpt lat="45.64839997733499" lon="11.26143245218964"><ele>520.5</ele><time>2026-05-01T09:41:02Z</time></trkpt><trkpt lat="45.64849463094409" lon="11.26159907140229"><ele>517.0</ele><time>2026-05-01T09:41:03Z</time></trkpt><trkpt lat="45.64858524367292" lon="11.261762723983184"><ele>513.5</ele><time>2026-05-01T09:41:04Z</time></trkpt><trkpt lat="45.64867354827008" lon="11.261913935804287"><ele>510.0</ele><time>2026-05-01T09:41:05Z</time></trkpt><trkpt lat="45.64876465693773" lon="11.262045564907261"><ele>510.0</ele><time>2026-05-01T09:41:06Z</time></trkpt><trkpt lat="45.64885389225781" lon="11.262153400775151"><ele>510.0</ele><time>2026-05-01T09:41:07Z</time></trkpt><trkpt lat="45.64892917528274" lon="11.262261260886342"><ele>510.0</ele><time>2026-05-01T09:41:08Z</time></trkpt><trkpt lat="45.64896841534357" lon="11.26236525590229"><ele>510.0</ele><time>2026-05-01T09:41:09Z</time></trkpt><trkpt lat="45.648970759786" lon="11.262499032489874"><ele>510.0</ele><time>2026-05-01T09:41:10Z</time></trkpt><trkpt lat="45.6489257029905" lon="11.262632798823855"><ele>508.25</ele><time>2026-05-01T09:41:11Z</time></trkpt><trkpt lat="45.648901538926616" lon="11.26281321279732"><ele>506.5</ele><time>2026-05-01T09:41:12Z</time></trkpt><trkpt lat="45.64886018165217" lon="11.262999381150822"><ele>504.75</ele><time>2026-05-01T09:41:13Z</time></trkpt><trkpt lat="45.648808782263906" lon="11.263174760724"><ele>503.0</ele><time>2026-05-01T09:41:14Z</time></trkpt><trkpt lat="45.648770514840166" lon="11.26335175371306"><ele>500.0</ele><time>2026-05-01T09:41:15Z</time></trkpt><trkpt lat="45.64873084665848" lon="11.263536068847689"><ele>497.0</ele><time>2026-05-01T09:41:16Z</time></trkpt><trkpt lat="45.64869554818621" lon="11.263699471359919"><ele>494.0</ele><time>2026-05-01T09:41:17Z</time></trkpt><trkpt lat="45.648687900001036" lon="11.263847513309084"><ele>491.0</ele><time>2026-05-01T09:41:18Z</time></trkpt><trkpt lat="45.64866362599588" lon="11.263982178782989"><ele>490.0</ele><time>2026-05-01T09:41:19Z</time></trkpt><trkpt lat="45.64863826322316" lon="11.264121035636343"><ele>489.0</ele><time>2026-05-01T09:41:20Z</time></trkpt><trkpt lat="45.64863471324289" lon="11.264278658356826"><ele>488.0</ele><time>2026-05-01T09:41:21Z</time></trkpt><trkpt lat="45.6486349175022" lon="11.264431673670346"><ele>487.0</ele><time>2026-05-01T09:41:22Z</time></trkpt><trkpt lat="45.64871482629401" lon="11.264578462473766"><ele>486.0</ele><time>2026-05-01T09:41:23Z</time></trkpt><trkpt lat="45.64874693232679" lon="11.26474056670134"><ele>485.8</ele><time>2026-05-01T09:41:24Z</time></trkpt><trkpt lat="45.64878463543931" lon="11.264878062118008"><ele>485.6</ele><time>2026-05-01T09:41:25Z</time></trkpt><trkpt lat="45.648818398968594" lon="11.265019381134818"><ele>485.4</ele><time>2026-05-01T09:41:26Z</time></trkpt><trkpt lat="45.648840652765855" lon="11.265176828844771"><ele>485.2</ele><time>2026-05-01T09:41:27Z</time></trkpt><trkpt lat="45.64882091880939" lon="11.26533301072142"><ele>485.0</ele><time>2026-05-01T09:41:28Z</time></trkpt><trkpt lat="45.64879927397604" lon="11.2655291583002"><ele>483.66666666666663</ele><time>2026-05-01T09:41:29Z</time></trkpt><trkpt lat="45.648771013011675" lon="11.265781704612063"><ele>482.33333333333337</ele><time>2026-05-01T09:41:30Z</time></trkpt><trkpt lat="45.64874040824982" lon="11.266060770253244"><ele>481.0</ele><time>2026-05-01T09:41:31Z</time></trkpt><trkpt lat="45.64871439020397" lon="11.266315154869154"><ele>480.25</ele><time>2026-05-01T09:41:32Z</time></trkpt><trkpt lat="45.64870297735448" lon="11.266529252738138"><ele>479.5</ele><time>2026-05-01T09:41:33Z</time></trkpt><trkpt lat="45.64863649926648" lon="11.266693536110878"><ele>478.75</ele><time>2026-05-01T09:41:34Z</time></trkpt><trkpt lat="45.64855579974409" lon="11.266846166120542"><ele>478.0</ele><time>2026-05-01T09:41:35Z</time></trkpt><trkpt lat="45.64846088121576" lon="11.266999347954114"><ele>477.75</ele><time>2026-05-01T09:41:36Z</time></trkpt><trkpt lat="45.64838073595434" lon="11.267160134324866"><ele>477.5</ele><time>2026-05-01T09:41:37Z</time></trkpt><trkpt lat="45.64829992732018" lon="11.267285162551907"><ele>477.25</ele><time>2026-05-01T09:41:38Z</time></trkpt><trkpt lat="45.648226760276195" lon="11.267393562558846"><ele>477.0</ele><time>2026-05-01T09:41:39Z</time></trkpt><trkpt lat="45.64814488905748" lon="11.26746570090295"><ele>476.5</ele><time>2026-05-01T09:41:40Z</time></trkpt><trkpt lat="45.64807654942363" lon="11.267515232444364"><ele>476.0</ele><time>2026-05-01T09:41:41Z</time></trkpt><trkpt lat="45.64801985988044" lon="11.267561004205431"><ele>475.5</ele><time>2026-05-01T09:41:42Z</time></trkpt><trkpt lat="45.64801927952742" lon="11.267701861304737"><ele>475.0</ele><time>2026-05-01T09:41:43Z</time></trkpt><trkpt lat="45.648025063025614" lon="11.267801992310126"><ele>474.5</ele><time>2026-05-01T09:41:44Z</time></trkpt><trkpt lat="45.6480062366774" lon="11.26792095872474"><ele>474.0</ele><time>2026-05-01T09:41:45Z</time></trkpt><trkpt lat="45.64798954516311" lon="11.268049993114161"><ele>472.5</ele><time>2026-05-01T09:41:46Z</time></trkpt><trkpt lat="45.647988453817156" lon="11.26818664189586"><ele>471.0</ele><time>2026-05-01T09:41:47Z</time></trkpt><trkpt lat="45.647974682412624" lon="11.268307312245701"><ele>469.5</ele><time>2026-05-01T09:41:48Z</time></trkpt><trkpt lat="45.6479716759838" lon="11.268411676416264"><ele>468.0</ele><time>2026-05-01T09:41:49Z</time></trkpt><trkpt lat="45.6479891226361" lon="11.268509796474058"><ele>466.5</ele><time>2026-05-01T09:41:50Z</time></trkpt><trkpt lat="45.648035607439994" lon="11.268597297447672"><ele>465.0</ele><time>2026-05-01T09:41:51Z</time></trkpt><trkpt lat="45.6481071520582" lon="11.268638743737474"><ele>465.0</ele><time>2026-05-01T09:41:52Z</time></trkpt><trkpt lat="45.64819310624993" lon="11.268649195057518"><ele>465.0</ele><time>2026-05-01T09:41:53Z</time></trkpt><trkpt lat="45.64829139875275" lon="11.268667304591826"><ele>465.0</ele><time>2026-05-01T09:41:54Z</time></trkpt><trkpt lat="45.64837685640932" lon="11.268692466593011"><ele>465.0</ele><time>2026-05-01T09:41:55Z</time></trkpt><trkpt lat="45.64846132391715" lon="11.268703197103726"><ele>465.0</ele><time>2026-05-01T09:41:56Z</time></trkpt><trkpt lat="45.64854298404826" lon="11.26867756709775"><ele>465.0</ele><time>2026-05-01T09:41:57Z</time></trkpt><trkpt lat="45.648620542020495" lon="11.268630538671939"><ele>465.4</ele><time>2026-05-01T09:41:58Z</time></trkpt><trkpt lat="45.6486959153918" lon="11.268597223895116"><ele>465.8</ele><time>2026-05-01T09:41:59Z</time></trkpt><trkpt lat="45.64877740814459" lon="11.268605911606372"><ele>466.20000000000005</ele><time>2026-05-01T09:42:00Z</time></trkpt><trkpt lat="45.648854512577365" lon="11.268678246316721"><ele>466.6</ele><time>2026-05-01T09:42:01Z</time></trkpt><trkpt lat="45.64893494207789" lon="11.268771314575677"><ele>467.0</ele><time>2026-05-01T09:42:02Z</time></trkpt><trkpt lat="45.64903303228172" lon="11.26885537170625"><ele>464.75</ele><time>2026-05-01T09:42:03Z</time></trkpt><trkpt lat="45.649113652418016" lon="11.26895676026588"><ele>462.5</ele><time>2026-05-01T09:42:04Z</time></trkpt><trkpt lat="45.6492014073496" lon="11.269005061177578"><ele>460.25</ele><time>2026-05-01T09:42:05Z</time></trkpt><trkpt lat="45.64932043741572" lon="11.26906168296671"><ele>458.0</ele><time>2026-05-01T09:42:06Z</time></trkpt><trkpt lat="45.6494617911614" lon="11.269087908078196"><ele>457.0</ele><time>2026-05-01T09:42:07Z</time></trkpt><trkpt lat="45.64961527509147" lon="11.269097683367136"><ele>456.0</ele><time>2026-05-01T09:42:08Z</time></trkpt><trkpt lat="45.64976899819023" lon="11.269126890347895"><ele>455.0</ele><time>2026-05-01T09:42:09Z</time></trkpt><trkpt lat="45.64993165632589" lon="11.269208167656036"><ele>455.0</ele><time>2026-05-01T09:42:10Z</time></trkpt><trkpt lat="45.650092665402155" lon="11.269242567537763"><ele>455.0</ele><time>2026-05-01T09:42:11Z</time></trkpt><trkpt lat="45.65024140451636" lon="11.26929014787313"><ele>455.0</ele><time>2026-05-01T09:42:12Z</time></trkpt><trkpt lat="45.650401653752276" lon="11.2693294645226"><ele>452.0</ele><time>2026-05-01T09:42:13Z</time></trkpt><trkpt lat="45.65057833955714" lon="11.26935388579497"><ele>449.0</ele><time>2026-05-01T09:42:14Z</time></trkpt><trkpt lat="45.650754331163675" lon="11.269386447496531"><ele>446.0</ele><time>2026-05-01T09:42:15Z</time></trkpt><trkpt lat="45.65091479661039" lon="11.269422296462633"><ele>446.0</ele><time>2026-05-01T09:42:16Z</time></trkpt><trkpt lat="45.651079164934686" lon="11.269454019893905"><ele>446.0</ele><time>2026-05-01T09:42:17Z</time></trkpt><trkpt lat="45.65122049347979" lon="11.269481174901179"><ele>446.0</ele><time>2026-05-01T09:42:18Z</time></trkpt><trkpt lat="45.65134846672892" lon="11.269496311111912"><ele>446.0</ele><time>2026-05-01T09:42:19Z</time></trkpt><trkpt lat="45.651470162462964" lon="11.269481304089014"><ele>443.66666666666663</ele><time>2026-05-01T09:42:20Z</time></trkpt><trkpt lat="45.651573158673244" lon="11.2693978522379"><ele>441.33333333333337</ele><time>2026-05-01T09:42:21Z</time></trkpt><trkpt lat="45.651690139525385" lon="11.269254533365332"><ele>439.0</ele><time>2026-05-01T09:42:22Z</time></trkpt><trkpt lat="45.65182428089762" lon="11.269065162518169"><ele>439.5</ele><time>2026-05-01T09:42:23Z</time></trkpt><trkpt lat="45.651960533209376" lon="11.268895209465747"><ele>440.0</ele><time>2026-05-01T09:42:24Z</time></trkpt><trkpt lat="45.65207193864412" lon="11.26877261966983"><ele>440.5</ele><time>2026-05-01T09:42:25Z</time></trkpt><trkpt lat="45.65217386033865" lon="11.268688800075811"><ele>441.0</ele><time>2026-05-01T09:42:26Z</time></trkpt><trkpt lat="45.652303436107644" lon="11.268677504816418"><ele>441.0</ele><time>2026-05-01T09:42:27Z</time></trkpt><trkpt lat="45.6524203757388" lon="11.268646910747252"><ele>441.0</ele><time>2026-05-01T09:42:28Z</time></trkpt><trkpt lat="45.65251244341943" lon="11.268611702309638"><ele>441.0</ele><time>2026-05-01T09:42:29Z</time></trkpt><trkpt lat="45.6526005788084" lon="11.268670642040034"><ele>441.0</ele><time>2026-05-01T09:42:30Z</time></trkpt><trkpt lat="45.652674576021624" lon="11.268840641974705"><ele>439.66666666666663</ele><time>2026-05-01T09:42:31Z</time></trkpt><trkpt lat="45.65280219523421" lon="11.269008764412698"><ele>438.3333333333333</ele><time>2026-05-01T09:42:32Z</time></trkpt><trkpt lat="45.65292449811196" lon="11.269175204007862"><ele>437.0</ele><time>2026-05-01T09:42:33Z</time></trkpt><trkpt lat="45.6530367219166" lon="11.269317908640188"><ele>437.0</ele><time>2026-05-01T09:42:34Z</time></trkpt><trkpt lat="45.65314177112669" lon="11.269448639299085"><ele>437.0</ele><time>2026-05-01T09:42:35Z</time></trkpt><trkpt lat="45.65323734303606" lon="11.269568134032909"><ele>437.0</ele><time>2026-05-01T09:42:36Z</time></trkpt><trkpt lat="45.65332144296043" lon="11.269676954262808"><ele>437.0</ele><time>2026-05-01T09:42:37Z</time></trkpt><trkpt lat="45.65338861104006" lon="11.269783712026918"><ele>435.5</ele><time>2026-05-01T09:42:38Z</time></trkpt><trkpt lat="45.65344492924646" lon="11.269908307059481"><ele>434.0</ele><time>2026-05-01T09:42:39Z</time></trkpt><trkpt lat="45.65341705612493" lon="11.270062983867605"><ele>432.5</ele><time>2026-05-01T09:42:40Z</time></trkpt><trkpt lat="45.65334884253327" lon="11.270220054695892"><ele>431.0</ele><time>2026-05-01T09:42:41Z</time></trkpt><trkpt lat="45.653267969887686" lon="11.270362588578065"><ele>431.0</ele><time>2026-05-01T09:42:42Z</time></trkpt><trkpt lat="45.653150961120986" lon="11.270401395454009"><ele>431.0</ele><time>2026-05-01T09:42:43Z</time></trkpt><trkpt lat="45.65301603766198" lon="11.270385313447045"><ele>431.0</ele><time>2026-05-01T09:42:44Z</time></trkpt><trkpt lat="45.65288796524901" lon="11.270403062760613"><ele>431.0</ele><time>2026-05-01T09:42:45Z</time></trkpt><trkpt lat="45.652771772500174" lon="11.270390999976678"><ele>430.20000000000005</ele><time>2026-05-01T09:42:46Z</time></trkpt><trkpt lat="45.65266916933088" lon="11.270403502240447"><ele>429.40000000000003</ele><time>2026-05-01T09:42:47Z</time></trkpt><trkpt lat="45.65257783728731" lon="11.270458483147758"><ele>428.6</ele><time>2026-05-01T09:42:48Z</time></trkpt><trkpt lat="45.65251910725477" lon="11.270561655969667"><ele>427.8</ele><time>2026-05-01T09:42:49Z</time></trkpt><trkpt lat="45.65247950947579" lon="11.27071387996557"><ele>427.0</ele><time>2026-05-01T09:42:50Z</time></trkpt><trkpt lat="45.65244700302215" lon="11.270860500580557"><ele>426.6</ele><time>2026-05-01T09:42:51Z</time></trkpt><trkpt lat="45.652404443365725" lon="11.2709954071156"><ele>426.20000000000005</ele><time>2026-05-01T09:42:52Z</time></trkpt><trkpt lat="45.652359036497245" lon="11.271120950442572"><ele>425.8</ele><time>2026-05-01T09:42:53Z</time></trkpt><trkpt lat="45.652318854900564" lon="11.271245886706128"><ele>425.4</ele><time>2026-05-01T09:42:54Z</time></trkpt><trkpt lat="45.652303814682426" lon="11.271390941777407"><ele>425.0</ele><time>2026-05-01T09:42:55Z</time></trkpt><trkpt lat="45.652306034317604" lon="11.27152806006242"><ele>423.2</ele><time>2026-05-01T09:42:56Z</time></trkpt><trkpt lat="45.65230389137567" lon="11.271664705806543"><ele>421.4</ele><time>2026-05-01T09:42:57Z</time></trkpt><trkpt lat="45.652307955510416" lon="11.27179690229524"><ele>419.6</ele><time>2026-05-01T09:42:58Z</time></trkpt><trkpt lat="45.65235151179803" lon="11.271901441243273"><ele>417.8</ele><time>2026-05-01T09:42:59Z</time></trkpt><trkpt lat="45.652444134768224" lon="11.271962242368827"><ele>416.0</ele><time>2026-05-01T09:43:00Z</time></trkpt><trkpt lat="45.65256044078214" lon="11.2720024656769"><ele>416.0</ele><time>2026-05-01T09:43:01Z</time></trkpt><trkpt lat="45.65268854272715" lon="11.272059062804585"><ele>416.0</ele><time>2026-05-01T09:43:02Z</time></trkpt><trkpt lat="45.65280869748415" lon="11.272153955508498"><ele>416.0</ele><time>2026-05-01T09:43:03Z</time></trkpt><trkpt lat="45.652938684593515" lon="11.272231989218312"><ele>416.0</ele><time>2026-05-01T09:43:04Z</time></trkpt><trkpt lat="45.65307047867377" lon="11.272282860049014"><ele>412.75</ele><time>2026-05-01T09:43:05Z</time></trkpt><trkpt lat="45.65319565986771" lon="11.272359011035883"><ele>409.5</ele><time>2026-05-01T09:43:06Z</time></trkpt><trkpt lat="45.65330780478435" lon="11.27246100498075"><ele>406.25</ele><time>2026-05-01T09:43:07Z</time></trkpt><trkpt lat="45.6534189055417" lon="11.272558548246677"><ele>403.0</ele><time>2026-05-01T09:43:08Z</time></trkpt><trkpt lat="45.653534590643176" lon="11.272645463582196"><ele>403.2</ele><time>2026-05-01T09:43:09Z</time></trkpt><trkpt lat="45.65362481113255" lon="11.272765113321217"><ele>403.4</ele><time>2026-05-01T09:43:10Z</time></trkpt><trkpt lat="45.65371409807226" lon="11.272862095923951"><ele>403.59999999999997</ele><time>2026-05-01T09:43:11Z</time></trkpt><trkpt lat="45.6538071683504" lon="11.27293468430643"><ele>403.79999999999995</ele><time>2026-05-01T09:43:12Z</time></trkpt><trkpt lat="45.653859653420724" lon="11.273049181666087"><ele>404.0</ele><time>2026-05-01T09:43:13Z</time></trkpt><trkpt lat="45.653906548276716" lon="11.27316287379051"><ele>403.0</ele><time>2026-05-01T09:43:14Z</time></trkpt><trkpt lat="45.65394850418007" lon="11.273291485118632"><ele>402.0</ele><time>2026-05-01T09:43:15Z</time></trkpt><trkpt lat="45.65399721004399" lon="11.273432522581448"><ele>401.0</ele><time>2026-05-01T09:43:16Z</time></trkpt><trkpt lat="45.65406632153472" lon="11.273573396395982"><ele>400.0</ele><time>2026-05-01T09:43:17Z</time></trkpt><trkpt lat="45.65411250854514" lon="11.273710413396332"><ele>399.0</ele><time>2026-05-01T09:43:18Z</time></trkpt><trkpt lat="45.65416266632802" lon="11.273864880855015"><ele>397.6</ele><time>2026-05-01T09:43:19Z</time></trkpt><trkpt lat="45.654229187393554" lon="11.273991080422809"><ele>396.2</ele><time>2026-05-01T09:43:20Z</time></trkpt><trkpt lat="45.6542824987948" lon="11.274127881460041"><ele>394.8</ele><time>2026-05-01T09:43:21Z</time></trkpt><trkpt lat="45.6543391326664" lon="11.274263079312982"><ele>393.40000000000003</ele><time>2026-05-01T09:43:22Z</time></trkpt><trkpt lat="45.65440103119651" lon="11.274377642042449"><ele>392.0</ele><time>2026-05-01T09:43:23Z</time></trkpt><trkpt lat="45.65447014662657" lon="11.274497899200693"><ele>390.75</ele><time>2026-05-01T09:43:24Z</time></trkpt><trkpt lat="45.654547252789314" lon="11.274604508616857"><ele>389.5</ele><time>2026-05-01T09:43:25Z</time></trkpt><trkpt lat="45.65462579776367" lon="11.274722783425322"><ele>388.25</ele><time>2026-05-01T09:43:26Z</time></trkpt><trkpt lat="45.654675749912904" lon="11.274862453238311"><ele>387.0</ele><time>2026-05-01T09:43:27Z</time></trkpt><trkpt lat="45.65469151332004" lon="11.27503430494469"><ele>387.0</ele><time>2026-05-01T09:43:28Z</time></trkpt><trkpt lat="45.65471877887659" lon="11.275190047028017"><ele>387.0</ele><time>2026-05-01T09:43:29Z</time></trkpt><trkpt lat="45.65473632653433" lon="11.27532772526961"><ele>387.0</ele><time>2026-05-01T09:43:30Z</time></trkpt><trkpt lat="45.654788212863124" lon="11.275419723099128"><ele>387.0</ele><time>2026-05-01T09:43:31Z</time></trkpt><trkpt lat="45.65487994824656" lon="11.275470329752498"><ele>387.0</ele><time>2026-05-01T09:43:32Z</time></trkpt><trkpt lat="45.654995969994296" lon="11.275496609693034"><ele>387.0</ele><time>2026-05-01T09:43:33Z</time></trkpt><trkpt lat="45.65511602079697" lon="11.275510018174858"><ele>387.0</ele><time>2026-05-01T09:43:34Z</time></trkpt><trkpt lat="45.65522015708693" lon="11.275520024386697"><ele>387.0</ele><time>2026-05-01T09:43:35Z</time></trkpt><trkpt lat="45.65531684943983" lon="11.275504649679432"><ele>387.0</ele><time>2026-05-01T09:43:36Z</time></trkpt><trkpt lat="45.65540762741605" lon="11.275429596210447"><ele>387.0</ele><time>2026-05-01T09:43:37Z</time></trkpt><trkpt lat="45.65548398578979" lon="11.275324949986445"><ele>385.6</ele><time>2026-05-01T09:43:38Z</time></trkpt><trkpt lat="45.65555472507863" lon="11.275237692359346"><ele>384.20000000000005</ele><time>2026-05-01T09:43:39Z</time></trkpt><trkpt lat="45.65561154882835" lon="11.27518080803498"><ele>382.8</ele><time>2026-05-01T09:43:40Z</time></trkpt><trkpt lat="45.65573304401492" lon="11.275229932924097"><ele>381.4</ele><time>2026-05-01T09:43:42Z</time></trkpt><trkpt lat="45.65579022721098" lon="11.27534101859319"><ele>380.0</ele><time>2026-05-01T09:43:43Z</time></trkpt><trkpt lat="45.65587855870341" lon="11.275415921142033"><ele>380.0</ele><time>2026-05-01T09:43:44Z</time></trkpt><trkpt lat="45.65595989945807" lon="11.27552926703313"><ele>380.0</ele><time>2026-05-01T09:43:45Z</time></trkpt><trkpt lat="45.65604242926529" lon="11.275641407282093"><ele>380.0</ele><time>2026-05-01T09:43:46Z</time></trkpt><trkpt lat="45.65611356045433" lon="11.275752267749462"><ele>380.0</ele><time>2026-05-01T09:43:47Z</time></trkpt><trkpt lat="45.656169639405576" lon="11.275881457238738"><ele>380.0</ele><time>2026-05-01T09:43:48Z</time></trkpt><trkpt lat="45.656223265542835" lon="11.276021777202883"><ele>379.0</ele><time>2026-05-01T09:43:49Z</time></trkpt><trkpt lat="45.65627155143791" lon="11.2761636660006"><ele>378.0</ele><time>2026-05-01T09:43:50Z</time></trkpt><trkpt lat="45.65631151356076" lon="11.27630840742376"><ele>377.0</ele><time>2026-05-01T09:43:51Z</time></trkpt><trkpt lat="45.656349686510765" lon="11.276460757620228"><ele>376.0</ele><time>2026-05-01T09:43:52Z</time></trkpt><trkpt lat="45.65638336906934" lon="11.27661030192674"><ele>375.0</ele><time>2026-05-01T09:43:53Z</time></trkpt><trkpt lat="45.656379453824066" lon="11.276768251807095"><ele>374.4</ele><time>2026-05-01T09:43:54Z</time></trkpt><trkpt lat="45.65635765534033" lon="11.276913748214515"><ele>373.8</ele><time>2026-05-01T09:43:55Z</time></trkpt><trkpt lat="45.65634569345329" lon="11.277064119852744"><ele>373.20000000000005</ele><time>2026-05-01T09:43:56Z</time></trkpt><trkpt lat="45.656356783496996" lon="11.277226835209033"><ele>372.6</ele><time>2026-05-01T09:43:57Z</time></trkpt><trkpt lat="45.656361961893325" lon="11.277375242197303"><ele>372.0</ele><time>2026-05-01T09:43:58Z</time></trkpt><trkpt lat="45.65638209450411" lon="11.277520268223157"><ele>370.5</ele><time>2026-05-01T09:43:59Z</time></trkpt><trkpt lat="45.65642586670352" lon="11.277672349975552"><ele>369.0</ele><time>2026-05-01T09:44:00Z</time></trkpt><trkpt lat="45.65647931617851" lon="11.277814951353944"><ele>367.5</ele><time>2026-05-01T09:44:01Z</time></trkpt><trkpt lat="45.65653911875794" lon="11.277972418294615"><ele>366.0</ele><time>2026-05-01T09:44:02Z</time></trkpt><trkpt lat="45.656572499703636" lon="11.278150013079548"><ele>364.5</ele><time>2026-05-01T09:44:03Z</time></trkpt><trkpt lat="45.6566053075549" lon="11.278335262498581"><ele>363.0</ele><time>2026-05-01T09:44:04Z</time></trkpt><trkpt lat="45.65663491513244" lon="11.278513468491491"><ele>361.5</ele><time>2026-05-01T09:44:05Z</time></trkpt><trkpt lat="45.65666375751561" lon="11.278694354053451"><ele>360.0</ele><time>2026-05-01T09:44:06Z</time></trkpt><trkpt lat="45.65669272178562" lon="11.27886800650548"><ele>358.5</ele><time>2026-05-01T09:44:07Z</time></trkpt><trkpt lat="45.65672328372231" lon="11.27903753710424"><ele>357.0</ele><time>2026-05-01T09:44:08Z</time></trkpt><trkpt lat="45.65677008275035" lon="11.279200694668969"><ele>355.5</ele><time>2026-05-01T09:44:09Z</time></trkpt><trkpt lat="45.656807584936914" lon="11.279384575981856"><ele>354.0</ele><time>2026-05-01T09:44:10Z</time></trkpt><trkpt lat="45.65683147109547" lon="11.279563400129897"><ele>354.0</ele><time>2026-05-01T09:44:11Z</time></trkpt><trkpt lat="45.65685647949871" lon="11.27976192434039"><ele>354.0</ele><time>2026-05-01T09:44:12Z</time></trkpt><trkpt lat="45.656876839150364" lon="11.279963658695271"><ele>354.0</ele><time>2026-05-01T09:44:13Z</time></trkpt><trkpt lat="45.65688322951035" lon="11.280176766277595"><ele>354.0</ele><time>2026-05-01T09:44:14Z</time></trkpt><trkpt lat="45.65688308458445" lon="11.280353964555593"><ele>352.75</ele><time>2026-05-01T09:44:15Z</time></trkpt><trkpt lat="45.65690115063076" lon="11.280531731158213"><ele>351.5</ele><time>2026-05-01T09:44:16Z</time></trkpt><trkpt lat="45.65691847130871" lon="11.280697945916726"><ele>350.25</ele><time>2026-05-01T09:44:17Z</time></trkpt><trkpt lat="45.65696831463631" lon="11.280855311665638"><ele>349.0</ele><time>2026-05-01T09:44:18Z</time></trkpt><trkpt lat="45.657030080343155" lon="11.281008240743859"><ele>346.75</ele><time>2026-05-01T09:44:19Z</time></trkpt><trkpt lat="45.6571005392522" lon="11.281167551830736"><ele>344.5</ele><time>2026-05-01T09:44:20Z</time></trkpt><trkpt lat="45.65718327438801" lon="11.281322003793434"><ele>342.25</ele><time>2026-05-01T09:44:21Z</time></trkpt><trkpt lat="45.65725915541252" lon="11.281469652743178"><ele>340.0</ele><time>2026-05-01T09:44:22Z</time></trkpt><trkpt lat="45.65734408848589" lon="11.28158864831284"><ele>340.0</ele><time>2026-05-01T09:44:23Z</time></trkpt><trkpt lat="45.65743311239038" lon="11.281704239448594"><ele>340.0</ele><time>2026-05-01T09:44:24Z</time></trkpt><trkpt lat="45.65751888395839" lon="11.281816200873502"><ele>340.0</ele><time>2026-05-01T09:44:25Z</time></trkpt><trkpt lat="45.6576081178852" lon="11.281927958648579"><ele>340.0</ele><time>2026-05-01T09:44:26Z</time></trkpt><trkpt lat="45.657700679674754" lon="11.282035530427587"><ele>336.75</ele><time>2026-05-01T09:44:27Z</time></trkpt><trkpt lat="45.65780297466713" lon="11.28212863250453"><ele>333.5</ele><time>2026-05-01T09:44:28Z</time></trkpt><trkpt lat="45.65791001039676" lon="11.282186383382244"><ele>330.25</ele><time>2026-05-01T09:44:29Z</time></trkpt><trkpt lat="45.65802118359013" lon="11.282189379059977"><ele>327.0</ele><time>2026-05-01T09:44:30Z</time></trkpt><trkpt lat="45.65812836737187" lon="11.28213943020757"><ele>327.0</ele><time>2026-05-01T09:44:31Z</time></trkpt><trkpt lat="45.658244120086025" lon="11.282111692142665"><ele>327.0</ele><time>2026-05-01T09:44:32Z</time></trkpt><trkpt lat="45.65833905921404" lon="11.282226679167398"><ele>327.0</ele><time>2026-05-01T09:44:33Z</time></trkpt><trkpt lat="45.65844241789423" lon="11.282348948842078"><ele>327.0</ele><time>2026-05-01T09:44:34Z</time></trkpt><trkpt lat="45.65852547998224" lon="11.28247948661195"><ele>326.40000000000003</ele><time>2026-05-01T09:44:35Z</time></trkpt><trkpt lat="45.65859566172818" lon="11.28258750856006"><ele>325.8</ele><time>2026-05-01T09:44:36Z</time></trkpt><trkpt lat="45.65859317816964" lon="11.282727958831357"><ele>325.2</ele><time>2026-05-01T09:44:37Z</time></trkpt><trkpt lat="45.658574131172976" lon="11.282874474370939"><ele>324.6</ele><time>2026-05-01T09:44:38Z</time></trkpt><trkpt lat="45.658577096653396" lon="11.283044676308224"><ele>324.0</ele><time>2026-05-01T09:44:39Z</time></trkpt><trkpt lat="45.65857061445564" lon="11.283214936202699"><ele>323.0</ele><time>2026-05-01T09:44:40Z</time></trkpt><trkpt lat="45.658575280684495" lon="11.283384799998025"><ele>322.0</ele><time>2026-05-01T09:44:41Z</time></trkpt><trkpt lat="45.65858780654944" lon="11.283557341534193"><ele>321.0</ele><time>2026-05-01T09:44:42Z</time></trkpt><trkpt lat="45.658608480730145" lon="11.283729268433914"><ele>320.0</ele><time>2026-05-01T09:44:43Z</time></trkpt><trkpt lat="45.65862490008747" lon="11.283901910936443"><ele>318.75</ele><time>2026-05-01T09:44:44Z</time></trkpt><trkpt lat="45.65865592015747" lon="11.284071456602437"><ele>317.5</ele><time>2026-05-01T09:44:45Z</time></trkpt><trkpt lat="45.65869090358007" lon="11.284247698228185"><ele>316.25</ele><time>2026-05-01T09:44:46Z</time></trkpt><trkpt lat="45.65872017211611" lon="11.284420445112898"><ele>315.0</ele><time>2026-05-01T09:44:47Z</time></trkpt><trkpt lat="45.65876598161269" lon="11.284586213528668"><ele>315.0</ele><time>2026-05-01T09:44:48Z</time></trkpt><trkpt lat="45.6588029954017" lon="11.28475142773269"><ele>315.0</ele><time>2026-05-01T09:44:49Z</time></trkpt><trkpt lat="45.658849679838724" lon="11.284912208365467"><ele>315.0</ele><time>2026-05-01T09:44:50Z</time></trkpt><trkpt lat="45.65891431681502" lon="11.285060826225635"><ele>315.0</ele><time>2026-05-01T09:44:51Z</time></trkpt><trkpt lat="45.658988657867695" lon="11.285189999511987"><ele>313.0</ele><time>2026-05-01T09:44:52Z</time></trkpt><trkpt lat="45.659081337366416" lon="11.285313742872484"><ele>311.0</ele><time>2026-05-01T09:44:53Z</time></trkpt><trkpt lat="45.65918001452796" lon="11.285417977266206"><ele>309.0</ele><time>2026-05-01T09:44:54Z</time></trkpt><trkpt lat="45.659289274734306" lon="11.285509584961519"><ele>307.0</ele><time>2026-05-01T09:44:55Z</time></trkpt><trkpt lat="45.65940408918932" lon="11.28559449896961"><ele>305.75</ele><time>2026-05-01T09:44:56Z</time></trkpt><trkpt lat="45.65952092458138" lon="11.285674495242262"><ele>304.5</ele><time>2026-05-01T09:44:57Z</time></trkpt><trkpt lat="45.659623076540036" lon="11.285772943626005"><ele>303.25</ele><time>2026-05-01T09:44:58Z</time></trkpt><trkpt lat="45.65971961723582" lon="11.285891110614214"><ele>302.0</ele><time>2026-05-01T09:44:59Z</time></trkpt><trkpt lat="45.659779472129664" lon="11.286069980991954"><ele>302.0</ele><time>2026-05-01T09:45:00Z</time></trkpt><trkpt lat="45.65986178340711" lon="11.286243974780339"><ele>302.0</ele><time>2026-05-01T09:45:01Z</time></trkpt><trkpt lat="45.65993891057416" lon="11.286435992408963"><ele>302.0</ele><time>2026-05-01T09:45:02Z</time></trkpt><trkpt lat="45.66003327104895" lon="11.286606234956801"><ele>302.25</ele><time>2026-05-01T09:45:03Z</time></trkpt><trkpt lat="45.66014568660579" lon="11.28675283901328"><ele>302.5</ele><time>2026-05-01T09:45:04Z</time></trkpt><trkpt lat="45.66026671851467" lon="11.286868512819863"><ele>302.75</ele><time>2026-05-01T09:45:05Z</time></trkpt><trkpt lat="45.66037081644325" lon="11.286967159497767"><ele>303.0</ele><time>2026-05-01T09:45:06Z</time></trkpt><trkpt lat="45.66046134498223" lon="11.287062550842009"><ele>303.0</ele><time>2026-05-01T09:45:07Z</time></trkpt><trkpt lat="45.66054868370211" lon="11.287145479003456"><ele>303.0</ele><time>2026-05-01T09:45:08Z</time></trkpt><trkpt lat="45.660627743523406" lon="11.287215371935691"><ele>303.0</ele><time>2026-05-01T09:45:09Z</time></trkpt><trkpt lat="45.66069418066926" lon="11.287271592615976"><ele>303.0</ele><time>2026-05-01T09:45:10Z</time></trkpt><trkpt lat="45.66074693445573" lon="11.287336795096373"><ele>303.0</ele><time>2026-05-01T09:45:11Z</time></trkpt><trkpt lat="45.66081273043985" lon="11.28740479354411"><ele>303.0</ele><time>2026-05-01T09:45:13Z</time></trkpt><trkpt lat="45.660881149607945" lon="11.28746857126359"><ele>303.0</ele><time>2026-05-01T09:45:16Z</time></trkpt><trkpt lat="45.660974532084055" lon="11.287301304220318"><ele>303.0</ele><time>2026-05-01T09:45:17Z</time></trkpt><trkpt lat="45.66100897886886" lon="11.28721355878905"><ele>303.0</ele><time>2026-05-01T09:45:18Z</time></trkpt><trkpt lat="45.66105968536036" lon="11.28711817815159"><ele>303.0</ele><time>2026-05-01T09:45:19Z</time></trkpt><trkpt lat="45.66112991760858" lon="11.287030979521369"><ele>303.0</ele><time>2026-05-01T09:45:20Z</time></trkpt><trkpt lat="45.661218176530845" lon="11.286990910042954"><ele>303.0</ele><time>2026-05-01T09:45:21Z</time></trkpt><trkpt lat="45.66133906107263" lon="11.28698816191858"><ele>303.0</ele><time>2026-05-01T09:45:22Z</time></trkpt><trkpt lat="45.66145845734933" lon="11.286930407065025"><ele>303.0</ele><time>2026-05-01T09:45:23Z</time></trkpt><trkpt lat="45.66159031001475" lon="11.286884166498798"><ele>303.0</ele><time>2026-05-01T09:45:24Z</time></trkpt><trkpt lat="45.66171459488832" lon="11.28684056312243"><ele>303.0</ele><time>2026-05-01T09:45:25Z</time></trkpt><trkpt lat="45.661838851716624" lon="11.286791429994961"><ele>303.0</ele><time>2026-05-01T09:45:26Z</time></trkpt><trkpt lat="45.66196052754134" lon="11.286748242358687"><ele>303.0</ele><time>2026-05-01T09:45:27Z</time></trkpt><trkpt lat="45.66208415552474" lon="11.286703406787394"><ele>303.0</ele><time>2026-05-01T09:45:28Z</time></trkpt><trkpt lat="45.66221068298315" lon="11.28665208925376"><ele>304.25</ele><time>2026-05-01T09:45:29Z</time></trkpt><trkpt lat="45.662340641842555" lon="11.286626564136462"><ele>305.5</ele><time>2026-05-01T09:45:30Z</time></trkpt><trkpt lat="45.66246663950234" lon="11.286579314988591"><ele>306.75</ele><time>2026-05-01T09:45:31Z</time></trkpt><trkpt lat="45.662590762271094" lon="11.286534100707907"><ele>308.0</ele><time>2026-05-01T09:45:32Z</time></trkpt><trkpt lat="45.66270209636006" lon="11.286496995996059"><ele>309.0</ele><time>2026-05-01T09:45:33Z</time></trkpt><trkpt lat="45.662797200901814" lon="11.286490137364718"><ele>310.0</ele><time>2026-05-01T09:45:34Z</time></trkpt><trkpt lat="45.6628948659892" lon="11.286501436566608"><ele>311.0</ele><time>2026-05-01T09:45:35Z</time></trkpt><trkpt lat="45.662962091248026" lon="11.286583647323795"><ele>312.0</ele><time>2026-05-01T09:45:36Z</time></trkpt><trkpt lat="45.66303508054372" lon="11.286653115155852"><ele>313.0</ele><time>2026-05-01T09:45:37Z</time></trkpt><trkpt lat="45.66311763207719" lon="11.286707731570075"><ele>313.0</ele><time>2026-05-01T09:45:38Z</time></trkpt><trkpt lat="45.66319357762048" lon="11.286813414062198"><ele>313.0</ele><time>2026-05-01T09:45:39Z</time></trkpt><trkpt lat="45.66328722511547" lon="11.286932815585942"><ele>313.0</ele><time>2026-05-01T09:45:40Z</time></trkpt><trkpt lat="45.663387040382055" lon="11.287059169687684"><ele>313.0</ele><time>2026-05-01T09:45:41Z</time></trkpt><trkpt lat="45.663493746123784" lon="11.28719272489326"><ele>312.75</ele><time>2026-05-01T09:45:42Z</time></trkpt><trkpt lat="45.66359739408466" lon="11.28735601040201"><ele>312.5</ele><time>2026-05-01T09:45:43Z</time></trkpt><trkpt lat="45.66371026630327" lon="11.287499973445188"><ele>312.25</ele><time>2026-05-01T09:45:44Z</time></trkpt><trkpt lat="45.6638159518631" lon="11.287636710809174"><ele>312.0</ele><time>2026-05-01T09:45:45Z</time></trkpt><trkpt lat="45.66391459693972" lon="11.287764603367233"><ele>311.5</ele><time>2026-05-01T09:45:46Z</time></trkpt><trkpt lat="45.66400077180217" lon="11.287905259714226"><ele>311.0</ele><time>2026-05-01T09:45:47Z</time></trkpt><trkpt lat="45.664059441283925" lon="11.288069657451409"><ele>310.5</ele><time>2026-05-01T09:45:48Z</time></trkpt><trkpt lat="45.66413036365832" lon="11.28824785721998"><ele>310.0</ele><time>2026-05-01T09:45:49Z</time></trkpt><trkpt lat="45.66419901751138" lon="11.288426104690872"><ele>308.25</ele><time>2026-05-01T09:45:50Z</time></trkpt><trkpt lat="45.664266771892144" lon="11.288603277651221"><ele>306.5</ele><time>2026-05-01T09:45:51Z</time></trkpt><trkpt lat="45.66433125092435" lon="11.28877197040984"><ele>304.75</ele><time>2026-05-01T09:45:52Z</time></trkpt><trkpt lat="45.664394480874506" lon="11.288937395243956"><ele>303.0</ele><time>2026-05-01T09:45:53Z</time></trkpt><trkpt lat="45.66445514116417" lon="11.289096097323007"><ele>302.2</ele><time>2026-05-01T09:45:54Z</time></trkpt><trkpt lat="45.66451527144267" lon="11.289251328609138"><ele>301.4</ele><time>2026-05-01T09:45:55Z</time></trkpt><trkpt lat="45.66456924559118" lon="11.289392568525177"><ele>300.59999999999997</ele><time>2026-05-01T09:45:56Z</time></trkpt><trkpt lat="45.664618394091676" lon="11.289521130925369"><ele>299.8</ele><time>2026-05-01T09:45:57Z</time></trkpt><trkpt lat="45.664662955807174" lon="11.289641270651677"><ele>299.0</ele><time>2026-05-01T09:45:58Z</time></trkpt><trkpt lat="45.664696271949" lon="11.289730858604207"><ele>299.0</ele><time>2026-05-01T09:45:59Z</time></trkpt><trkpt lat="45.66473929948881" lon="11.289857072925091"><ele>299.0</ele><time>2026-05-01T09:46:01Z</time></trkpt><trkpt lat="45.664767020443236" lon="11.289951558954783"><ele>299.0</ele><time>2026-05-01T09:46:05Z</time></trkpt><trkpt lat="45.66491645130488" lon="11.289874525085594"><ele>299.0</ele><time>2026-05-01T09:46:08Z</time></trkpt><trkpt lat="45.66499081467317" lon="11.289756231432403"><ele>299.0</ele><time>2026-05-01T09:46:09Z</time></trkpt><trkpt lat="45.665044761844" lon="11.289660081394322"><ele>299.0</ele><time>2026-05-01T09:46:10Z</time></trkpt><trkpt lat="45.665103651445364" lon="11.28959578549127"><ele>299.0</ele><time>2026-05-01T09:46:11Z</time></trkpt><trkpt lat="45.665155020872916" lon="11.289522948322903"><ele>299.0</ele><time>2026-05-01T09:46:12Z</time></trkpt><trkpt lat="45.665202836057304" lon="11.289454782875461"><ele>299.0</ele><time>2026-05-01T09:46:13Z</time></trkpt><trkpt lat="45.66525014205503" lon="11.289380238121666"><ele>299.0</ele><time>2026-05-01T09:46:14Z</time></trkpt><trkpt lat="45.66531385426748" lon="11.289338321402221"><ele>299.0</ele><time>2026-05-01T09:46:15Z</time></trkpt><trkpt lat="45.66538043432609" lon="11.289286178935246"><ele>299.0</ele><time>2026-05-01T09:46:16Z</time></trkpt><trkpt lat="45.66544941667391" lon="11.289241919419453"><ele>298.6666666666667</ele><time>2026-05-01T09:46:17Z</time></trkpt><trkpt lat="45.66552309486451" lon="11.28920373893226"><ele>298.33333333333337</ele><time>2026-05-01T09:46:18Z</time></trkpt><trkpt lat="45.66559607693286" lon="11.28916909588407"><ele>298.0</ele><time>2026-05-01T09:46:19Z</time></trkpt><trkpt lat="45.66566806388752" lon="11.289135954036542"><ele>297.6666666666667</ele><time>2026-05-01T09:46:20Z</time></trkpt><trkpt lat="45.665743826761585" lon="11.289103020758919"><ele>297.3333333333333</ele><time>2026-05-01T09:46:21Z</time></trkpt><trkpt lat="45.665821586728065" lon="11.28907055350331"><ele>297.0</ele><time>2026-05-01T09:46:22Z</time></trkpt><trkpt lat="45.665908145762465" lon="11.289033539600323"><ele>297.0</ele><time>2026-05-01T09:46:23Z</time></trkpt><trkpt lat="45.66598996058863" lon="11.288990143391867"><ele>297.0</ele><time>2026-05-01T09:46:24Z</time></trkpt><trkpt lat="45.666070647645824" lon="11.288941810504674"><ele>297.0</ele><time>2026-05-01T09:46:25Z</time></trkpt><trkpt lat="45.66614222503059" lon="11.288879066218039"><ele>297.0</ele><time>2026-05-01T09:46:26Z</time></trkpt><trkpt lat="45.66620734257822" lon="11.288799124750755"><ele>297.0</ele><time>2026-05-01T09:46:27Z</time></trkpt><trkpt lat="45.66625383952631" lon="11.28869723263069"><ele>297.0</ele><time>2026-05-01T09:46:28Z</time></trkpt><trkpt lat="45.66629349932152" lon="11.288614658133078"><ele>297.4</ele><time>2026-05-01T09:46:29Z</time></trkpt><trkpt lat="45.666341689376026" lon="11.288511996555009"><ele>297.79999999999995</ele><time>2026-05-01T09:46:30Z</time></trkpt><trkpt lat="45.66639030012796" lon="11.288398632377062"><ele>298.2</ele><time>2026-05-01T09:46:31Z</time></trkpt><trkpt lat="45.66644323940589" lon="11.288285449201902"><ele>298.59999999999997</ele><time>2026-05-01T09:46:32Z</time></trkpt><trkpt lat="45.66649590300797" lon="11.288188676262081"><ele>299.0</ele><time>2026-05-01T09:46:33Z</time></trkpt><trkpt lat="45.66656539788757" lon="11.288089324451395"><ele>299.0</ele><time>2026-05-01T09:46:34Z</time></trkpt><trkpt lat="45.66664445394178" lon="11.287993340288342"><ele>299.0</ele><time>2026-05-01T09:46:35Z</time></trkpt><trkpt lat="45.66673264125051" lon="11.287899151656696"><ele>299.0</ele><time>2026-05-01T09:46:36Z</time></trkpt><trkpt lat="45.66682327036668" lon="11.287814972516781"><ele>299.0</ele><time>2026-05-01T09:46:37Z</time></trkpt><trkpt lat="45.666917788891844" lon="11.287731587426272"><ele>299.0</ele><time>2026-05-01T09:46:38Z</time></trkpt><trkpt lat="45.667018972170666" lon="11.287645022876772"><ele>299.0</ele><time>2026-05-01T09:46:39Z</time></trkpt><trkpt lat="45.66711897314072" lon="11.287560426880766"><ele>299.0</ele><time>2026-05-01T09:46:40Z</time></trkpt><trkpt lat="45.66723008776237" lon="11.287467327947665"><ele>299.0</ele><time>2026-05-01T09:46:41Z</time></trkpt><trkpt lat="45.66736484725536" lon="11.287354658183162"><ele>299.0</ele><time>2026-05-01T09:46:42Z</time></trkpt><trkpt lat="45.66750466238081" lon="11.287185919021804"><ele>299.0</ele><time>2026-05-01T09:46:43Z</time></trkpt><trkpt lat="45.66767278551141" lon="11.287046844069096"><ele>299.0</ele><time>2026-05-01T09:46:44Z</time></trkpt><trkpt lat="45.66785372611293" lon="11.286896064669723"><ele>299.0</ele><time>2026-05-01T09:46:45Z</time></trkpt><trkpt lat="45.668042895058015" lon="11.286741097962183"><ele>297.6666666666667</ele><time>2026-05-01T09:46:46Z</time></trkpt><trkpt lat="45.66823225361356" lon="11.286622423113702"><ele>296.3333333333333</ele><time>2026-05-01T09:46:47Z</time></trkpt><trkpt lat="45.668393807011746" lon="11.28648442658738"><ele>295.0</ele><time>2026-05-01T09:46:48Z</time></trkpt><trkpt lat="45.66854604720426" lon="11.286339578934866"><ele>294.3333333333333</ele><time>2026-05-01T09:46:49Z</time></trkpt><trkpt lat="45.66868187874876" lon="11.286169860692583"><ele>293.6666666666667</ele><time>2026-05-01T09:46:50Z</time></trkpt><trkpt lat="45.66881748887184" lon="11.28598345619931"><ele>293.0</ele><time>2026-05-01T09:46:51Z</time></trkpt><trkpt lat="45.66894224517372" lon="11.285764015145535"><ele>302.33333333333337</ele><time>2026-05-01T09:46:52Z</time></trkpt><trkpt lat="45.66907355381531" lon="11.285528647829404"><ele>311.6666666666667</ele><time>2026-05-01T09:46:53Z</time></trkpt><trkpt lat="45.669209278106365" lon="11.285291131928949"><ele>321.0</ele><time>2026-05-01T09:46:54Z</time></trkpt><trkpt lat="45.66935335488108" lon="11.285048398178352"><ele>314.0</ele><time>2026-05-01T09:46:55Z</time></trkpt><trkpt lat="45.669483126597214" lon="11.28480835750767"><ele>307.0</ele><time>2026-05-01T09:46:56Z</time></trkpt><trkpt lat="45.66960561655689" lon="11.28457178578938"><ele>300.0</ele><time>2026-05-01T09:46:57Z</time></trkpt><trkpt lat="45.66970309083485" lon="11.284329585415087"><ele>300.0</ele><time>2026-05-01T09:46:58Z</time></trkpt><trkpt lat="45.66983667038632" lon="11.284110468644688"><ele>300.0</ele><time>2026-05-01T09:46:59Z</time></trkpt><trkpt lat="45.66998039342922" lon="11.283903947343438"><ele>300.0</ele><time>2026-05-01T09:47:00Z</time></trkpt><trkpt lat="45.670126345325954" lon="11.283696422484487"><ele>299.6666666666667</ele><time>2026-05-01T09:47:01Z</time></trkpt><trkpt lat="45.67024857082148" lon="11.283482296133371"><ele>299.33333333333337</ele><time>2026-05-01T09:47:02Z</time></trkpt><trkpt lat="45.67035894325835" lon="11.283244245357634"><ele>299.0</ele><time>2026-05-01T09:47:03Z</time></trkpt><trkpt lat="45.67044750108022" lon="11.282970295481384"><ele>299.0</ele><time>2026-05-01T09:47:04Z</time></trkpt><trkpt lat="45.67054877502789" lon="11.282703847099896"><ele>299.0</ele><time>2026-05-01T09:47:05Z</time></trkpt><trkpt lat="45.67067615924555" lon="11.282468125893969"><ele>299.0</ele><time>2026-05-01T09:47:06Z</time></trkpt><trkpt lat="45.67081533963819" lon="11.282243034101493"><ele>298.0</ele><time>2026-05-01T09:47:07Z</time></trkpt><trkpt lat="45.67095172402925" lon="11.282006900856924"><ele>297.0</ele><time>2026-05-01T09:47:08Z</time></trkpt><trkpt lat="45.671085130912545" lon="11.28179023357871"><ele>296.0</ele><time>2026-05-01T09:47:09Z</time></trkpt><trkpt lat="45.67121707513605" lon="11.281585786174222"><ele>297.0</ele><time>2026-05-01T09:47:10Z</time></trkpt><trkpt lat="45.67134286274749" lon="11.281396428559257"><ele>298.0</ele><time>2026-05-01T09:47:11Z</time></trkpt><trkpt lat="45.67146369225547" lon="11.281222822495423"><ele>299.0</ele><time>2026-05-01T09:47:12Z</time></trkpt><trkpt lat="45.6715645050564" lon="11.281046870185344"><ele>299.0</ele><time>2026-05-01T09:47:13Z</time></trkpt><trkpt lat="45.67163206799308" lon="11.280863939284732"><ele>299.0</ele><time>2026-05-01T09:47:14Z</time></trkpt><trkpt lat="45.671665582993974" lon="11.280655722859265"><ele>299.0</ele><time>2026-05-01T09:47:15Z</time></trkpt><trkpt lat="45.67166172985325" lon="11.280430213950696"><ele>300.5</ele><time>2026-05-01T09:47:16Z</time></trkpt><trkpt lat="45.671635838014254" lon="11.280231618935987"><ele>302.0</ele><time>2026-05-01T09:47:17Z</time></trkpt><trkpt lat="45.67161739686048" lon="11.280031605063602"><ele>303.5</ele><time>2026-05-01T09:47:18Z</time></trkpt><trkpt lat="45.6716036933996" lon="11.27982546749763"><ele>305.0</ele><time>2026-05-01T09:47:19Z</time></trkpt><trkpt lat="45.67157938043393" lon="11.279630953911813"><ele>306.5</ele><time>2026-05-01T09:47:20Z</time></trkpt><trkpt lat="45.67156961463932" lon="11.27943830850118"><ele>308.0</ele><time>2026-05-01T09:47:21Z</time></trkpt><trkpt lat="45.67155109039787" lon="11.279261559407095"><ele>309.5</ele><time>2026-05-01T09:47:22Z</time></trkpt><trkpt lat="45.67153514272599" lon="11.279088094860517"><ele>311.0</ele><time>2026-05-01T09:47:23Z</time></trkpt><trkpt lat="45.671523696811235" lon="11.278927379732057"><ele>311.0</ele><time>2026-05-01T09:47:24Z</time></trkpt><trkpt lat="45.67150149182055" lon="11.278758870335016"><ele>311.0</ele><time>2026-05-01T09:47:25Z</time></trkpt><trkpt lat="45.67150958155571" lon="11.278577692137942"><ele>311.0</ele><time>2026-05-01T09:47:26Z</time></trkpt><trkpt lat="45.67153534074832" lon="11.278406053813992"><ele>311.0</ele><time>2026-05-01T09:47:27Z</time></trkpt><trkpt lat="45.67157739035375" lon="11.278241134439758"><ele>312.25</ele><time>2026-05-01T09:47:28Z</time></trkpt><trkpt lat="45.67163023709917" lon="11.278088248039515"><ele>313.5</ele><time>2026-05-01T09:47:29Z</time></trkpt><trkpt lat="45.67170963163377" lon="11.277958169763266"><ele>314.75</ele><time>2026-05-01T09:47:30Z</time></trkpt><trkpt lat="45.671769957150154" lon="11.277810385242145"><ele>316.0</ele><time>2026-05-01T09:47:31Z</time></trkpt><trkpt lat="45.67186325909781" lon="11.277667698974371"><ele>312.66666666666663</ele><time>2026-05-01T09:47:32Z</time></trkpt><trkpt lat="45.67195258963625" lon="11.277469850178177"><ele>309.3333333333333</ele><time>2026-05-01T09:47:33Z</time></trkpt><trkpt lat="45.67205349727053" lon="11.277274502627225"><ele>306.0</ele><time>2026-05-01T09:47:34Z</time></trkpt><trkpt lat="45.67213220018839" lon="11.277059721498368"><ele>306.0</ele><time>2026-05-01T09:47:35Z</time></trkpt><trkpt lat="45.67217592445413" lon="11.276807969386873"><ele>306.0</ele><time>2026-05-01T09:47:36Z</time></trkpt><trkpt lat="45.67219683066153" lon="11.276542435047647"><ele>306.0</ele><time>2026-05-01T09:47:37Z</time></trkpt><trkpt lat="45.672250506211256" lon="11.27627003112705"><ele>307.6666666666667</ele><time>2026-05-01T09:47:38Z</time></trkpt><trkpt lat="45.67234171282909" lon="11.27603059655467"><ele>309.33333333333337</ele><time>2026-05-01T09:47:39Z</time></trkpt><trkpt lat="45.67240594582098" lon="11.275793933458125"><ele>311.0</ele><time>2026-05-01T09:47:40Z</time></trkpt><trkpt lat="45.67247189368821" lon="11.275519469780027"><ele>314.33333333333337</ele><time>2026-05-01T09:47:41Z</time></trkpt><trkpt lat="45.67240298080236" lon="11.27524824559703"><ele>317.6666666666667</ele><time>2026-05-01T09:47:42Z</time></trkpt><trkpt lat="45.67241221100455" lon="11.275004515539829"><ele>321.0</ele><time>2026-05-01T09:47:43Z</time></trkpt><trkpt lat="45.672500133746475" lon="11.274774871496097"><ele>319.0</ele><time>2026-05-01T09:47:44Z</time></trkpt><trkpt lat="45.672619495531286" lon="11.27453057011729"><ele>317.0</ele><time>2026-05-01T09:47:45Z</time></trkpt><trkpt lat="45.67275147833702" lon="11.274278714251006"><ele>315.0</ele><time>2026-05-01T09:47:46Z</time></trkpt><trkpt lat="45.67290874096265" lon="11.274052753890512"><ele>321.6666666666667</ele><time>2026-05-01T09:47:47Z</time></trkpt><trkpt lat="45.67305934810199" lon="11.273842385683428"><ele>328.33333333333337</ele><time>2026-05-01T09:47:48Z</time></trkpt><trkpt lat="45.6732167842482" lon="11.27366867078626"><ele>335.0</ele><time>2026-05-01T09:47:49Z</time></trkpt><trkpt lat="45.673383529726735" lon="11.273512335971265"><ele>335.0</ele><time>2026-05-01T09:47:50Z</time></trkpt><trkpt lat="45.67356547614539" lon="11.273336894632546"><ele>335.0</ele><time>2026-05-01T09:47:51Z</time></trkpt><trkpt lat="45.67376898126462" lon="11.273185125017498"><ele>335.0</ele><time>2026-05-01T09:47:52Z</time></trkpt><trkpt lat="45.67396386972255" lon="11.273015257685019"><ele>334.0</ele><time>2026-05-01T09:47:53Z</time></trkpt><trkpt lat="45.67414162686861" lon="11.272850814274904"><ele>333.0</ele><time>2026-05-01T09:47:54Z</time></trkpt><trkpt lat="45.67429088409992" lon="11.27270651087326"><ele>332.0</ele><time>2026-05-01T09:47:55Z</time></trkpt><trkpt lat="45.67441423958844" lon="11.272571053386924"><ele>331.0</ele><time>2026-05-01T09:47:56Z</time></trkpt><trkpt lat="45.67450600832132" lon="11.272404801001265"><ele>330.0</ele><time>2026-05-01T09:47:57Z</time></trkpt><trkpt lat="45.67455499518547" lon="11.272188317779488"><ele>329.0</ele><time>2026-05-01T09:47:58Z</time></trkpt><trkpt lat="45.674565812312316" lon="11.271934311336292"><ele>329.0</ele><time>2026-05-01T09:47:59Z</time></trkpt><trkpt lat="45.6745792953406" lon="11.271682610749814"><ele>329.0</ele><time>2026-05-01T09:48:00Z</time></trkpt><trkpt lat="45.67462574822737" lon="11.271486245230673"><ele>329.0</ele><time>2026-05-01T09:48:01Z</time></trkpt><trkpt lat="45.67471066501529" lon="11.271333660394072"><ele>330.5</ele><time>2026-05-01T09:48:02Z</time></trkpt><trkpt lat="45.67482855832136" lon="11.271218531819912"><ele>332.0</ele><time>2026-05-01T09:48:03Z</time></trkpt><trkpt lat="45.67495583490265" lon="11.271147485338467"><ele>333.5</ele><time>2026-05-01T09:48:04Z</time></trkpt><trkpt lat="45.67510044792672" lon="11.27114138654098"><ele>335.0</ele><time>2026-05-01T09:48:05Z</time></trkpt><trkpt lat="45.675240003095915" lon="11.271139392467562"><ele>336.0</ele><time>2026-05-01T09:48:06Z</time></trkpt><trkpt lat="45.67538882514846" lon="11.271148068986122"><ele>337.0</ele><time>2026-05-01T09:48:07Z</time></trkpt><trkpt lat="45.67553105226636" lon="11.271132898011015"><ele>338.0</ele><time>2026-05-01T09:48:08Z</time></trkpt><trkpt lat="45.675673692591424" lon="11.271067334650732"><ele>339.0</ele><time>2026-05-01T09:48:09Z</time></trkpt><trkpt lat="45.67581183549531" lon="11.270998018754526"><ele>339.0</ele><time>2026-05-01T09:48:10Z</time></trkpt><trkpt lat="45.675958025621696" lon="11.270940766269339"><ele>339.0</ele><time>2026-05-01T09:48:11Z</time></trkpt><trkpt lat="45.67610061435884" lon="11.270872087140614"><ele>339.0</ele><time>2026-05-01T09:48:12Z</time></trkpt><trkpt lat="45.67623691615229" lon="11.270827232875455"><ele>339.0</ele><time>2026-05-01T09:48:13Z</time></trkpt><trkpt lat="45.67637583283895" lon="11.27078405880872"><ele>339.0</ele><time>2026-05-01T09:48:14Z</time></trkpt><trkpt lat="45.676527515619604" lon="11.270750966944453"><ele>339.0</ele><time>2026-05-01T09:48:15Z</time></trkpt><trkpt lat="45.676677452234095" lon="11.270695145876891"><ele>339.0</ele><time>2026-05-01T09:48:16Z</time></trkpt><trkpt lat="45.67682849359461" lon="11.270678426511177"><ele>341.0</ele><time>2026-05-01T09:48:17Z</time></trkpt><trkpt lat="45.67698430991481" lon="11.27067721121881"><ele>343.0</ele><time>2026-05-01T09:48:18Z</time></trkpt><trkpt lat="45.67714031028774" lon="11.270685062707642"><ele>345.0</ele><time>2026-05-01T09:48:19Z</time></trkpt><trkpt lat="45.677287410491566" lon="11.270748543635033"><ele>345.0</ele><time>2026-05-01T09:48:20Z</time></trkpt><trkpt lat="45.677444148237065" lon="11.270775775437297"><ele>345.0</ele><time>2026-05-01T09:48:21Z</time></trkpt><trkpt lat="45.67760339177251" lon="11.27078447685719"><ele>345.0</ele><time>2026-05-01T09:48:22Z</time></trkpt><trkpt lat="45.67776875159261" lon="11.27077964064986"><ele>345.3333333333333</ele><time>2026-05-01T09:48:23Z</time></trkpt><trkpt lat="45.677927114176725" lon="11.270775742900277"><ele>345.66666666666663</ele><time>2026-05-01T09:48:24Z</time></trkpt><trkpt lat="45.67809204648471" lon="11.27077009744217"><ele>346.0</ele><time>2026-05-01T09:48:25Z</time></trkpt><trkpt lat="45.67826179938985" lon="11.270763716166368"><ele>346.0</ele><time>2026-05-01T09:48:26Z</time></trkpt><trkpt lat="45.67843371344469" lon="11.270754771041352"><ele>346.0</ele><time>2026-05-01T09:48:27Z</time></trkpt><trkpt lat="45.67860352362599" lon="11.270745451305036"><ele>346.0</ele><time>2026-05-01T09:48:28Z</time></trkpt><trkpt lat="45.67877025355742" lon="11.270736300624216"><ele>346.0</ele><time>2026-05-01T09:48:29Z</time></trkpt><trkpt lat="45.67894063482594" lon="11.270725390267842"><ele>346.0</ele><time>2026-05-01T09:48:30Z</time></trkpt><trkpt lat="45.67910265851244" lon="11.270688544010158"><ele>346.0</ele><time>2026-05-01T09:48:31Z</time></trkpt><trkpt lat="45.67927149440219" lon="11.27068712572226"><ele>346.3333333333333</ele><time>2026-05-01T09:48:32Z</time></trkpt><trkpt lat="45.679438292395" lon="11.270619886373217"><ele>346.6666666666667</ele><time>2026-05-01T09:48:33Z</time></trkpt><trkpt lat="45.67961700839611" lon="11.270545414555668"><ele>347.0</ele><time>2026-05-01T09:48:34Z</time></trkpt><trkpt lat="45.679796495643544" lon="11.270472420803825"><ele>351.0</ele><time>2026-05-01T09:48:35Z</time></trkpt><trkpt lat="45.67997997177962" lon="11.270399110998078"><ele>355.0</ele><time>2026-05-01T09:48:36Z</time></trkpt><trkpt lat="45.680167111681065" lon="11.270323866316525"><ele>359.0</ele><time>2026-05-01T09:48:37Z</time></trkpt><trkpt lat="45.68035954962288" lon="11.27024812433445"><ele>359.0</ele><time>2026-05-01T09:48:38Z</time></trkpt><trkpt lat="45.68054911194323" lon="11.27017388118457"><ele>359.0</ele><time>2026-05-01T09:48:39Z</time></trkpt><trkpt lat="45.68073605421036" lon="11.270106585847838"><ele>359.0</ele><time>2026-05-01T09:48:40Z</time></trkpt><trkpt lat="45.680931514301" lon="11.270079411438532"><ele>356.33333333333337</ele><time>2026-05-01T09:48:41Z</time></trkpt><trkpt lat="45.68111779196916" lon="11.27004753470462"><ele>353.6666666666667</ele><time>2026-05-01T09:48:42Z</time></trkpt><trkpt lat="45.68129964145618" lon="11.269982144777874"><ele>351.0</ele><time>2026-05-01T09:48:43Z</time></trkpt><trkpt lat="45.681481957817056" lon="11.269957489382167"><ele>351.0</ele><time>2026-05-01T09:48:44Z</time></trkpt><trkpt lat="45.68166516033367" lon="11.26992622561882"><ele>351.0</ele><time>2026-05-01T09:48:45Z</time></trkpt><trkpt lat="45.68184015188863" lon="11.269893403313487"><ele>351.0</ele><time>2026-05-01T09:48:46Z</time></trkpt><trkpt lat="45.68202340196992" lon="11.269887357109074"><ele>350.6666666666667</ele><time>2026-05-01T09:48:47Z</time></trkpt><trkpt lat="45.68220465284612" lon="11.269851034740435"><ele>350.33333333333337</ele><time>2026-05-01T09:48:48Z</time></trkpt><trkpt lat="45.68239310574744" lon="11.26982349712418"><ele>350.0</ele><time>2026-05-01T09:48:49Z</time></trkpt><trkpt lat="45.682584348254636" lon="11.26977155627867"><ele>352.6666666666667</ele><time>2026-05-01T09:48:50Z</time></trkpt><trkpt lat="45.682777220754005" lon="11.26975174610617"><ele>355.3333333333333</ele><time>2026-05-01T09:48:51Z</time></trkpt><trkpt lat="45.68297042487136" lon="11.26973498911301"><ele>358.0</ele><time>2026-05-01T09:48:52Z</time></trkpt><trkpt lat="45.683162573971586" lon="11.269721840211723"><ele>358.0</ele><time>2026-05-01T09:48:53Z</time></trkpt><trkpt lat="45.68335674056202" lon="11.269708988930534"><ele>358.0</ele><time>2026-05-01T09:48:54Z</time></trkpt><trkpt lat="45.68355060436869" lon="11.26969172772758"><ele>358.0</ele><time>2026-05-01T09:48:55Z</time></trkpt><trkpt lat="45.68374864766896" lon="11.269683218536867"><ele>357.66666666666663</ele><time>2026-05-01T09:48:56Z</time></trkpt><trkpt lat="45.68394272296657" lon="11.269628841576855"><ele>357.3333333333333</ele><time>2026-05-01T09:48:57Z</time></trkpt><trkpt lat="45.6841350199842" lon="11.269563593234624"><ele>357.0</ele><time>2026-05-01T09:48:58Z</time></trkpt><trkpt lat="45.684318045614226" lon="11.269499634812881"><ele>354.3333333333333</ele><time>2026-05-01T09:48:59Z</time></trkpt><trkpt lat="45.68449277932992" lon="11.2694310052543"><ele>351.66666666666663</ele><time>2026-05-01T09:49:00Z</time></trkpt><trkpt lat="45.684656645621516" lon="11.269333370936211"><ele>349.0</ele><time>2026-05-01T09:49:01Z</time></trkpt><trkpt lat="45.68480849345851" lon="11.269187024498637"><ele>349.0</ele><time>2026-05-01T09:49:02Z</time></trkpt><trkpt lat="45.684948904981574" lon="11.268997941253751"><ele>349.0</ele><time>2026-05-01T09:49:03Z</time></trkpt><trkpt lat="45.685076337341144" lon="11.268780958270026"><ele>349.0</ele><time>2026-05-01T09:49:04Z</time></trkpt><trkpt lat="45.68519163275651" lon="11.268544711115076"><ele>348.66666666666663</ele><time>2026-05-01T09:49:05Z</time></trkpt><trkpt lat="45.685322232983026" lon="11.26832741236057"><ele>348.3333333333333</ele><time>2026-05-01T09:49:06Z</time></trkpt><trkpt lat="45.68543565333418" lon="11.268096963688565"><ele>348.0</ele><time>2026-05-01T09:49:07Z</time></trkpt><trkpt lat="45.68554291094222" lon="11.26787872495466"><ele>352.0</ele><time>2026-05-01T09:49:08Z</time></trkpt><trkpt lat="45.68564198205607" lon="11.26767714339988"><ele>356.0</ele><time>2026-05-01T09:49:09Z</time></trkpt><trkpt lat="45.68573962021066" lon="11.26747707564613"><ele>360.0</ele><time>2026-05-01T09:49:10Z</time></trkpt><trkpt lat="45.68582158668444" lon="11.26726911064789"><ele>363.0</ele><time>2026-05-01T09:49:11Z</time></trkpt><trkpt lat="45.68591484276022" lon="11.26708147130504"><ele>366.0</ele><time>2026-05-01T09:49:12Z</time></trkpt><trkpt lat="45.68600765469046" lon="11.266899708954128"><ele>369.0</ele><time>2026-05-01T09:49:13Z</time></trkpt><trkpt lat="45.6861019756686" lon="11.266715328029044"><ele>366.0</ele><time>2026-05-01T09:49:14Z</time></trkpt><trkpt lat="45.686196616598615" lon="11.266525441740837"><ele>363.0</ele><time>2026-05-01T09:49:15Z</time></trkpt><trkpt lat="45.686289878229395" lon="11.266330873483504"><ele>360.0</ele><time>2026-05-01T09:49:16Z</time></trkpt><trkpt lat="45.68638397224006" lon="11.266148875809456"><ele>360.0</ele><time>2026-05-01T09:49:17Z</time></trkpt><trkpt lat="45.68647488238934" lon="11.26595833920078"><ele>360.0</ele><time>2026-05-01T09:49:18Z</time></trkpt><trkpt lat="45.686579123314914" lon="11.265784893557658"><ele>360.0</ele><time>2026-05-01T09:49:19Z</time></trkpt><trkpt lat="45.686651822041924" lon="11.26559962560422"><ele>359.25</ele><time>2026-05-01T09:49:20Z</time></trkpt><trkpt lat="45.68674438915599" lon="11.265454067313078"><ele>358.5</ele><time>2026-05-01T09:49:21Z</time></trkpt><trkpt lat="45.68681077253006" lon="11.265283563613334"><ele>357.75</ele><time>2026-05-01T09:49:22Z</time></trkpt><trkpt lat="45.686895606084285" lon="11.265117943985725"><ele>357.0</ele><time>2026-05-01T09:49:23Z</time></trkpt><trkpt lat="45.68698533757876" lon="11.264952095689301"><ele>357.0</ele><time>2026-05-01T09:49:24Z</time></trkpt><trkpt lat="45.68706716603243" lon="11.264786957443972"><ele>357.0</ele><time>2026-05-01T09:49:25Z</time></trkpt><trkpt lat="45.687148960014824" lon="11.2646290090418"><ele>357.0</ele><time>2026-05-01T09:49:26Z</time></trkpt><trkpt lat="45.687229809149436" lon="11.264466493872446"><ele>357.0</ele><time>2026-05-01T09:49:27Z</time></trkpt><trkpt lat="45.687311584522995" lon="11.264304224412681"><ele>359.0</ele><time>2026-05-01T09:49:28Z</time></trkpt><trkpt lat="45.68740641989187" lon="11.264150091956155"><ele>361.0</ele><time>2026-05-01T09:49:29Z</time></trkpt><trkpt lat="45.68752731599143" lon="11.264042824983369"><ele>363.0</ele><time>2026-05-01T09:49:30Z</time></trkpt><trkpt lat="45.6876392582236" lon="11.263936894460889"><ele>365.0</ele><time>2026-05-01T09:49:31Z</time></trkpt><trkpt lat="45.687758113737196" lon="11.26383497351138"><ele>365.0</ele><time>2026-05-01T09:49:32Z</time></trkpt><trkpt lat="45.687888254936595" lon="11.263724788707345"><ele>365.0</ele><time>2026-05-01T09:49:33Z</time></trkpt><trkpt lat="45.688023091798264" lon="11.263612424685654"><ele>365.0</ele><time>2026-05-01T09:49:34Z</time></trkpt><trkpt lat="45.68814513272118" lon="11.2635091500903"><ele>365.0</ele><time>2026-05-01T09:49:35Z</time></trkpt><trkpt lat="45.68825223017977" lon="11.263393226866176"><ele>365.0</ele><time>2026-05-01T09:49:36Z</time></trkpt><trkpt lat="45.68837181494743" lon="11.2632998815415"><ele>365.0</ele><time>2026-05-01T09:49:37Z</time></trkpt><trkpt lat="45.6884770271586" lon="11.263158774814116"><ele>365.0</ele><time>2026-05-01T09:49:38Z</time></trkpt><trkpt lat="45.68861402445884" lon="11.263086546609426"><ele>365.0</ele><time>2026-05-01T09:49:39Z</time></trkpt><trkpt lat="45.688713732941224" lon="11.262930633167956"><ele>364.6666666666667</ele><time>2026-05-01T09:49:40Z</time></trkpt><trkpt lat="45.688759645679696" lon="11.262687267066108"><ele>364.3333333333333</ele><time>2026-05-01T09:49:41Z</time></trkpt><trkpt lat="45.68888644636652" lon="11.262525934817882"><ele>364.0</ele><time>2026-05-01T09:49:42Z</time></trkpt><trkpt lat="45.68904339227094" lon="11.262352369678638"><ele>373.0</ele><time>2026-05-01T09:49:43Z</time></trkpt><trkpt lat="45.689230546797475" lon="11.262169888604433"><ele>382.0</ele><time>2026-05-01T09:49:44Z</time></trkpt><trkpt lat="45.689424179750894" lon="11.26199772548127"><ele>375.66666666666663</ele><time>2026-05-01T09:49:45Z</time></trkpt><trkpt lat="45.68959641724371" lon="11.261854073105454"><ele>369.3333333333333</ele><time>2026-05-01T09:49:46Z</time></trkpt><trkpt lat="45.68973724999445" lon="11.261719558400227"><ele>363.0</ele><time>2026-05-01T09:49:47Z</time></trkpt><trkpt lat="45.68986021402185" lon="11.261588865669204"><ele>369.0</ele><time>2026-05-01T09:49:48Z</time></trkpt><trkpt lat="45.68995965561479" lon="11.261411659679077"><ele>375.0</ele><time>2026-05-01T09:49:49Z</time></trkpt><trkpt lat="45.69003271376582" lon="11.261203749773408"><ele>381.0</ele><time>2026-05-01T09:49:50Z</time></trkpt><trkpt lat="45.69007478313107" lon="11.260973565234634"><ele>381.0</ele><time>2026-05-01T09:49:51Z</time></trkpt><trkpt lat="45.69016476070276" lon="11.260778194848816"><ele>381.0</ele><time>2026-05-01T09:49:52Z</time></trkpt><trkpt lat="45.69028336555476" lon="11.260605805029028"><ele>381.0</ele><time>2026-05-01T09:49:53Z</time></trkpt><trkpt lat="45.69043466755912" lon="11.260428194510292"><ele>384.0</ele><time>2026-05-01T09:49:54Z</time></trkpt><trkpt lat="45.69062269410371" lon="11.260242278309544"><ele>387.0</ele><time>2026-05-01T09:49:55Z</time></trkpt><trkpt lat="45.69084298404111" lon="11.26007620219112"><ele>387.0</ele><time>2026-05-01T09:49:56Z</time></trkpt><trkpt lat="45.69107884784342" lon="11.259922524394693"><ele>387.0</ele><time>2026-05-01T09:49:57Z</time></trkpt><trkpt lat="45.69131148555385" lon="11.259731309653436"><ele>388.5</ele><time>2026-05-01T09:49:58Z</time></trkpt><trkpt lat="45.69153584364703" lon="11.259567628376603"><ele>390.0</ele><time>2026-05-01T09:49:59Z</time></trkpt><trkpt lat="45.691722430994915" lon="11.259421604480377"><ele>390.0</ele><time>2026-05-01T09:50:00Z</time></trkpt><trkpt lat="45.691885418729726" lon="11.259290697360882"><ele>390.0</ele><time>2026-05-01T09:50:01Z</time></trkpt><trkpt lat="45.692041662653274" lon="11.259159241035361"><ele>390.0</ele><time>2026-05-01T09:50:02Z</time></trkpt><trkpt lat="45.692174970291745" lon="11.25901564089091"><ele>388.0</ele><time>2026-05-01T09:50:03Z</time></trkpt><trkpt lat="45.69231245201867" lon="11.258827647841025"><ele>386.0</ele><time>2026-05-01T09:50:04Z</time></trkpt><trkpt lat="45.6924327902083" lon="11.258604396767737"><ele>384.0</ele><time>2026-05-01T09:50:05Z</time></trkpt><trkpt lat="45.69253740309475" lon="11.258354887146929"><ele>384.0</ele><time>2026-05-01T09:50:06Z</time></trkpt><trkpt lat="45.692678331079755" lon="11.258120543107252"><ele>384.0</ele><time>2026-05-01T09:50:07Z</time></trkpt><trkpt lat="45.692692864601746" lon="11.257778897899176"><ele>384.0</ele><time>2026-05-01T09:50:08Z</time></trkpt><trkpt lat="45.69275745167012" lon="11.257509226007993"><ele>384.0</ele><time>2026-05-01T09:50:09Z</time></trkpt><trkpt lat="45.69283972393281" lon="11.25726739607028"><ele>384.0</ele><time>2026-05-01T09:50:10Z</time></trkpt><trkpt lat="45.6929627986815" lon="11.257045608386345"><ele>384.0</ele><time>2026-05-01T09:50:11Z</time></trkpt><trkpt lat="45.693138460449205" lon="11.256890910147032"><ele>384.0</ele><time>2026-05-01T09:50:12Z</time></trkpt><trkpt lat="45.693315677517944" lon="11.256743275743645"><ele>384.0</ele><time>2026-05-01T09:50:13Z</time></trkpt><trkpt lat="45.69350868800017" lon="11.256643551435609"><ele>381.3333333333333</ele><time>2026-05-01T09:50:14Z</time></trkpt><trkpt lat="45.6937163766674" lon="11.256574249658282"><ele>378.66666666666663</ele><time>2026-05-01T09:50:15Z</time></trkpt><trkpt lat="45.69390641217849" lon="11.256504933308118"><ele>376.0</ele><time>2026-05-01T09:50:16Z</time></trkpt><trkpt lat="45.69407211719215" lon="11.256453133074698"><ele>376.0</ele><time>2026-05-01T09:50:17Z</time></trkpt><trkpt lat="45.69421483041906" lon="11.25634597381954"><ele>376.0</ele><time>2026-05-01T09:50:18Z</time></trkpt><trkpt lat="45.69435265636646" lon="11.256156473602127"><ele>376.0</ele><time>2026-05-01T09:50:19Z</time></trkpt><trkpt lat="45.69449299008743" lon="11.255928330090171"><ele>376.0</ele><time>2026-05-01T09:50:20Z</time></trkpt><trkpt lat="45.69462966630411" lon="11.255695561416925"><ele>376.0</ele><time>2026-05-01T09:50:21Z</time></trkpt><trkpt lat="45.69473278502664" lon="11.255430155736233"><ele>376.0</ele><time>2026-05-01T09:50:22Z</time></trkpt><trkpt lat="45.69481106432083" lon="11.25511556512011"><ele>383.5</ele><time>2026-05-01T09:50:23Z</time></trkpt><trkpt lat="45.69488508604196" lon="11.25478768629885"><ele>391.0</ele><time>2026-05-01T09:50:24Z</time></trkpt><trkpt lat="45.69498631894501" lon="11.254485925232526"><ele>391.0</ele><time>2026-05-01T09:50:25Z</time></trkpt><trkpt lat="45.69504966104986" lon="11.254185104112459"><ele>391.0</ele><time>2026-05-01T09:50:26Z</time></trkpt><trkpt lat="45.69509051242082" lon="11.253911230204656"><ele>391.0</ele><time>2026-05-01T09:50:27Z</time></trkpt><trkpt lat="45.695171740056935" lon="11.253679290818246"><ele>388.33333333333337</ele><time>2026-05-01T09:50:28Z</time></trkpt><trkpt lat="45.69530694052719" lon="11.25349811667051"><ele>385.6666666666667</ele><time>2026-05-01T09:50:29Z</time></trkpt><trkpt lat="45.69545927796259" lon="11.25332537124813"><ele>383.0</ele><time>2026-05-01T09:50:30Z</time></trkpt><trkpt lat="45.69564524625675" lon="11.25317655129203"><ele>385.6666666666667</ele><time>2026-05-01T09:50:31Z</time></trkpt><trkpt lat="45.69584715716332" lon="11.253075851497384"><ele>388.33333333333337</ele><time>2026-05-01T09:50:32Z</time></trkpt><trkpt lat="45.69604271453184" lon="11.2530110580243"><ele>391.0</ele><time>2026-05-01T09:50:33Z</time></trkpt><trkpt lat="45.69621176247164" lon="11.252934709992314"><ele>391.0</ele><time>2026-05-01T09:50:34Z</time></trkpt><trkpt lat="45.69637125636344" lon="11.252852146050353"><ele>391.0</ele><time>2026-05-01T09:50:35Z</time></trkpt><trkpt lat="45.69653655323125" lon="11.252698841099"><ele>391.0</ele><time>2026-05-01T09:50:36Z</time></trkpt><trkpt lat="45.696697847652096" lon="11.252482637693442"><ele>390.0</ele><time>2026-05-01T09:50:37Z</time></trkpt><trkpt lat="45.696860533444585" lon="11.252249297209048"><ele>389.0</ele><time>2026-05-01T09:50:38Z</time></trkpt><trkpt lat="45.697009269698256" lon="11.252026613927534"><ele>388.0</ele><time>2026-05-01T09:50:39Z</time></trkpt><trkpt lat="45.69714417190476" lon="11.251818756320702"><ele>388.0</ele><time>2026-05-01T09:50:40Z</time></trkpt><trkpt lat="45.69727612067226" lon="11.251624242213127"><ele>388.0</ele><time>2026-05-01T09:50:41Z</time></trkpt><trkpt lat="45.69740891464742" lon="11.251432571839796"><ele>388.0</ele><time>2026-05-01T09:50:42Z</time></trkpt><trkpt lat="45.697541876859226" lon="11.251254390267908"><ele>387.0</ele><time>2026-05-01T09:50:43Z</time></trkpt><trkpt lat="45.697670896815325" lon="11.251072960561256"><ele>386.0</ele><time>2026-05-01T09:50:44Z</time></trkpt><trkpt lat="45.697797508114746" lon="11.250897946327777"><ele>385.0</ele><time>2026-05-01T09:50:45Z</time></trkpt><trkpt lat="45.697937791049306" lon="11.250735250350337"><ele>391.33333333333337</ele><time>2026-05-01T09:50:46Z</time></trkpt><trkpt lat="45.698088588400275" lon="11.250598216614538"><ele>397.66666666666663</ele><time>2026-05-01T09:50:47Z</time></trkpt><trkpt lat="45.69824812032978" lon="11.25046653147788"><ele>404.0</ele><time>2026-05-01T09:50:48Z</time></trkpt><trkpt lat="45.698395764734926" lon="11.250344470623416"><ele>404.0</ele><time>2026-05-01T09:50:49Z</time></trkpt><trkpt lat="45.69854098388374" lon="11.250224598780116"><ele>404.0</ele><time>2026-05-01T09:50:50Z</time></trkpt><trkpt lat="45.6986776178602" lon="11.25009920124035"><ele>404.0</ele><time>2026-05-01T09:50:51Z</time></trkpt><trkpt lat="45.698812219986124" lon="11.249969071932346"><ele>402.3333333333333</ele><time>2026-05-01T09:50:52Z</time></trkpt><trkpt lat="45.69894447838594" lon="11.249835662853835"><ele>400.66666666666663</ele><time>2026-05-01T09:50:53Z</time></trkpt><trkpt lat="45.69907896225575" lon="11.249702719896067"><ele>399.0</ele><time>2026-05-01T09:50:54Z</time></trkpt><trkpt lat="45.699219026739144" lon="11.249578969588832"><ele>399.0</ele><time>2026-05-01T09:50:55Z</time></trkpt><trkpt lat="45.69936573922581" lon="11.249467012769292"><ele>399.0</ele><time>2026-05-01T09:50:56Z</time></trkpt><trkpt lat="45.69951914887526" lon="11.24936901885837"><ele>399.0</ele><time>2026-05-01T09:50:57Z</time></trkpt><trkpt lat="45.69967513178053" lon="11.249279361237926"><ele>401.66666666666663</ele><time>2026-05-01T09:50:58Z</time></trkpt><trkpt lat="45.69982331416336" lon="11.249190737403573"><ele>404.3333333333333</ele><time>2026-05-01T09:50:59Z</time></trkpt><trkpt lat="45.6999815191627" lon="11.249082521981514"><ele>407.0</ele><time>2026-05-01T09:51:00Z</time></trkpt><trkpt lat="45.70013608222193" lon="11.248959093406555"><ele>403.3333333333333</ele><time>2026-05-01T09:51:01Z</time></trkpt><trkpt lat="45.700287428614025" lon="11.24882278312496"><ele>399.66666666666663</ele><time>2026-05-01T09:51:02Z</time></trkpt><trkpt lat="45.70043394791994" lon="11.248649231125711"><ele>396.0</ele><time>2026-05-01T09:51:03Z</time></trkpt><trkpt lat="45.700565138260664" lon="11.248443053768451"><ele>396.0</ele><time>2026-05-01T09:51:04Z</time></trkpt><trkpt lat="45.70069279134347" lon="11.248209551252629"><ele>396.0</ele><time>2026-05-01T09:51:05Z</time></trkpt><trkpt lat="45.70082184215314" lon="11.247954644646954"><ele>396.0</ele><time>2026-05-01T09:51:06Z</time></trkpt><trkpt lat="45.70094608762025" lon="11.247696743420061"><ele>397.5</ele><time>2026-05-01T09:51:07Z</time></trkpt><trkpt lat="45.70108183545862" lon="11.247434625594446"><ele>399.0</ele><time>2026-05-01T09:51:08Z</time></trkpt><trkpt lat="45.701216638455605" lon="11.24716758288131"><ele>399.0</ele><time>2026-05-01T09:51:09Z</time></trkpt><trkpt lat="45.70134882408623" lon="11.24689771764105"><ele>399.0</ele><time>2026-05-01T09:51:10Z</time></trkpt><trkpt lat="45.70147658519274" lon="11.246629154286712"><ele>401.33333333333337</ele><time>2026-05-01T09:51:11Z</time></trkpt><trkpt lat="45.70158639555603" lon="11.24636738030964"><ele>403.6666666666667</ele><time>2026-05-01T09:51:12Z</time></trkpt><trkpt lat="45.70170115473113" lon="11.246105425439294"><ele>406.0</ele><time>2026-05-01T09:51:13Z</time></trkpt><trkpt lat="45.70183208809987" lon="11.245808736338152"><ele>404.0</ele><time>2026-05-01T09:51:14Z</time></trkpt><trkpt lat="45.701982615222526" lon="11.245505561935737"><ele>402.0</ele><time>2026-05-01T09:51:15Z</time></trkpt><trkpt lat="45.70213939935999" lon="11.245202504923292"><ele>402.0</ele><time>2026-05-01T09:51:16Z</time></trkpt><trkpt lat="45.70229274188695" lon="11.244916210531523"><ele>402.0</ele><time>2026-05-01T09:51:17Z</time></trkpt><trkpt lat="45.70244749701391" lon="11.244641400099578"><ele>399.66666666666663</ele><time>2026-05-01T09:51:18Z</time></trkpt><trkpt lat="45.70259986573691" lon="11.244395161890198"><ele>397.3333333333333</ele><time>2026-05-01T09:51:19Z</time></trkpt><trkpt lat="45.702753228695386" lon="11.244184714052883"><ele>395.0</ele><time>2026-05-01T09:51:20Z</time></trkpt><trkpt lat="45.70290302741395" lon="11.243999464737945"><ele>400.3333333333333</ele><time>2026-05-01T09:51:21Z</time></trkpt><trkpt lat="45.70302283678968" lon="11.243808277293379"><ele>405.66666666666663</ele><time>2026-05-01T09:51:22Z</time></trkpt><trkpt lat="45.70311025237282" lon="11.243582996135157"><ele>411.0</ele><time>2026-05-01T09:51:23Z</time></trkpt><trkpt lat="45.703156162569364" lon="11.243328762574713"><ele>417.66666666666663</ele><time>2026-05-01T09:51:24Z</time></trkpt><trkpt lat="45.70317003262362" lon="11.243059586223886"><ele>424.3333333333333</ele><time>2026-05-01T09:51:25Z</time></trkpt><trkpt lat="45.70320263954852" lon="11.242820585373584"><ele>431.0</ele><time>2026-05-01T09:51:26Z</time></trkpt><trkpt lat="45.70328609275571" lon="11.242592486062945"><ele>431.0</ele><time>2026-05-01T09:51:27Z</time></trkpt><trkpt lat="45.703421438001115" lon="11.242385799136928"><ele>431.0</ele><time>2026-05-01T09:51:28Z</time></trkpt><trkpt lat="45.70361001458659" lon="11.2422061249352"><ele>431.0</ele><time>2026-05-01T09:51:29Z</time></trkpt><trkpt lat="45.7038114056813" lon="11.242018605784628"><ele>421.5</ele><time>2026-05-01T09:51:30Z</time></trkpt><trkpt lat="45.70401117467593" lon="11.241799281220713"><ele>412.0</ele><time>2026-05-01T09:51:31Z</time></trkpt><trkpt lat="45.70420538174389" lon="11.241561537766644"><ele>412.0</ele><time>2026-05-01T09:51:32Z</time></trkpt><trkpt lat="45.704403051274525" lon="11.241317374197784"><ele>412.0</ele><time>2026-05-01T09:51:33Z</time></trkpt><trkpt lat="45.7045991951793" lon="11.241065686956004"><ele>412.0</ele><time>2026-05-01T09:51:34Z</time></trkpt><trkpt lat="45.70478368817721" lon="11.240830548040343"><ele>412.0</ele><time>2026-05-01T09:51:35Z</time></trkpt><trkpt lat="45.70495681231637" lon="11.240620880905967"><ele>414.33333333333337</ele><time>2026-05-01T09:51:36Z</time></trkpt><trkpt lat="45.70511275992187" lon="11.24042925394718"><ele>416.66666666666663</ele><time>2026-05-01T09:51:37Z</time></trkpt><trkpt lat="45.7052541595058" lon="11.240247112925205"><ele>419.0</ele><time>2026-05-01T09:51:38Z</time></trkpt><trkpt lat="45.70539534947395" lon="11.240079446956937"><ele>419.0</ele><time>2026-05-01T09:51:39Z</time></trkpt><trkpt lat="45.70554617999455" lon="11.239948816668877"><ele>419.0</ele><time>2026-05-01T09:51:40Z</time></trkpt><trkpt lat="45.70569721788071" lon="11.239868459441018"><ele>419.0</ele><time>2026-05-01T09:51:41Z</time></trkpt><trkpt lat="45.705838345046196" lon="11.239816909514829"><ele>418.25</ele><time>2026-05-01T09:51:42Z</time></trkpt><trkpt lat="45.705950318545376" lon="11.239710105016748"><ele>417.5</ele><time>2026-05-01T09:51:43Z</time></trkpt><trkpt lat="45.70602738540555" lon="11.2395466626878"><ele>416.75</ele><time>2026-05-01T09:51:44Z</time></trkpt><trkpt lat="45.70606760731472" lon="11.2393480866707"><ele>416.0</ele><time>2026-05-01T09:51:45Z</time></trkpt><trkpt lat="45.70606948304232" lon="11.239104505603912"><ele>415.66666666666663</ele><time>2026-05-01T09:51:46Z</time></trkpt><trkpt lat="45.70606686723255" lon="11.238816899568695"><ele>415.33333333333337</ele><time>2026-05-01T09:51:47Z</time></trkpt><trkpt lat="45.70607477380195" lon="11.238504807309877"><ele>415.0</ele><time>2026-05-01T09:51:48Z</time></trkpt><trkpt lat="45.70610010279611" lon="11.238222075097541"><ele>424.33333333333337</ele><time>2026-05-01T09:51:49Z</time></trkpt><trkpt lat="45.70612452080443" lon="11.237965396526242"><ele>433.66666666666663</ele><time>2026-05-01T09:51:50Z</time></trkpt><trkpt lat="45.70615686107886" lon="11.23772893407919"><ele>443.0</ele><time>2026-05-01T09:51:51Z</time></trkpt><trkpt lat="45.70620207483881" lon="11.237490328819277"><ele>440.3333333333333</ele><time>2026-05-01T09:51:52Z</time></trkpt><trkpt lat="45.70624216117122" lon="11.237246704424152"><ele>437.66666666666663</ele><time>2026-05-01T09:51:53Z</time></trkpt><trkpt lat="45.706283425895855" lon="11.23698963023527"><ele>435.0</ele><time>2026-05-01T09:51:54Z</time></trkpt><trkpt lat="45.70635557191532" lon="11.236735501701512"><ele>435.0</ele><time>2026-05-01T09:51:55Z</time></trkpt><trkpt lat="45.70646019980445" lon="11.236470027899372"><ele>435.0</ele><time>2026-05-01T09:51:56Z</time></trkpt><trkpt lat="45.70656419675079" lon="11.23621773292878"><ele>435.0</ele><time>2026-05-01T09:51:57Z</time></trkpt><trkpt lat="45.70663822372955" lon="11.235977077008323"><ele>435.33333333333337</ele><time>2026-05-01T09:51:58Z</time></trkpt><trkpt lat="45.70669015100702" lon="11.235747309745461"><ele>435.6666666666667</ele><time>2026-05-01T09:51:59Z</time></trkpt><trkpt lat="45.70669779263865" lon="11.235484237383226"><ele>436.0</ele><time>2026-05-01T09:52:00Z</time></trkpt><trkpt lat="45.70668377739212" lon="11.23517586017066"><ele>436.0</ele><time>2026-05-01T09:52:01Z</time></trkpt><trkpt lat="45.70665889664066" lon="11.234852724863893"><ele>436.0</ele><time>2026-05-01T09:52:02Z</time></trkpt><trkpt lat="45.70662501532748" lon="11.234506361426803"><ele>436.5</ele><time>2026-05-01T09:52:03Z</time></trkpt><trkpt lat="45.706591607684494" lon="11.234155380602596"><ele>437.0</ele><time>2026-05-01T09:52:04Z</time></trkpt><trkpt lat="45.70656316750623" lon="11.233830211017676"><ele>438.66666666666663</ele><time>2026-05-01T09:52:05Z</time></trkpt><trkpt lat="45.70654062519627" lon="11.233535327249012"><ele>440.33333333333337</ele><time>2026-05-01T09:52:06Z</time></trkpt><trkpt lat="45.706516278229834" lon="11.233251754775889"><ele>442.0</ele><time>2026-05-01T09:52:07Z</time></trkpt><trkpt lat="45.70649902188479" lon="11.232992165500972"><ele>442.0</ele><time>2026-05-01T09:52:08Z</time></trkpt><trkpt lat="45.706480858694555" lon="11.232741801347387"><ele>442.0</ele><time>2026-05-01T09:52:09Z</time></trkpt><trkpt lat="45.706509446809555" lon="11.23251437308445"><ele>442.0</ele><time>2026-05-01T09:52:10Z</time></trkpt><trkpt lat="45.706563971720975" lon="11.23229946950364"><ele>442.6666666666667</ele><time>2026-05-01T09:52:11Z</time></trkpt><trkpt lat="45.70663800299714" lon="11.232094445584178"><ele>443.33333333333337</ele><time>2026-05-01T09:52:12Z</time></trkpt><trkpt lat="45.70668429296678" lon="11.231897633044465"><ele>444.0</ele><time>2026-05-01T09:52:13Z</time></trkpt><trkpt lat="45.706695743721895" lon="11.23167010545241"><ele>449.33333333333337</ele><time>2026-05-01T09:52:14Z</time></trkpt><trkpt lat="45.706674774727546" lon="11.231447211248254"><ele>454.6666666666667</ele><time>2026-05-01T09:52:15Z</time></trkpt><trkpt lat="45.70661158996955" lon="11.23122409785317"><ele>460.0</ele><time>2026-05-01T09:52:16Z</time></trkpt><trkpt lat="45.70651936152436" lon="11.231033851586217"><ele>460.0</ele><time>2026-05-01T09:52:17Z</time></trkpt><trkpt lat="45.70642258955581" lon="11.23087495735577"><ele>460.0</ele><time>2026-05-01T09:52:18Z</time></trkpt><trkpt lat="45.706327941874214" lon="11.23071675821397"><ele>460.0</ele><time>2026-05-01T09:52:19Z</time></trkpt><trkpt lat="45.706251999900786" lon="11.230550541750198"><ele>460.0</ele><time>2026-05-01T09:52:20Z</time></trkpt><trkpt lat="45.70618741199525" lon="11.230377046214006"><ele>457.0</ele><time>2026-05-01T09:52:21Z</time></trkpt><trkpt lat="45.70613333240247" lon="11.230199798597056"><ele>454.0</ele><time>2026-05-01T09:52:22Z</time></trkpt><trkpt lat="45.70609316029596" lon="11.230019155212005"><ele>451.0</ele><time>2026-05-01T09:52:23Z</time></trkpt><trkpt lat="45.70606339079045" lon="11.229845683960825"><ele>448.0</ele><time>2026-05-01T09:52:24Z</time></trkpt><trkpt lat="45.706033329290285" lon="11.229671401291798"><ele>448.0</ele><time>2026-05-01T09:52:25Z</time></trkpt><trkpt lat="45.70599272839739" lon="11.229503505999213"><ele>448.0</ele><time>2026-05-01T09:52:26Z</time></trkpt><trkpt lat="45.705955688696726" lon="11.229343419195027"><ele>448.0</ele><time>2026-05-01T09:52:27Z</time></trkpt><trkpt lat="45.705913761907944" lon="11.22918573056859"><ele>448.0</ele><time>2026-05-01T09:52:28Z</time></trkpt><trkpt lat="45.70588306649461" lon="11.229037200748865"><ele>448.2</ele><time>2026-05-01T09:52:29Z</time></trkpt><trkpt lat="45.70584736042146" lon="11.228897496896726"><ele>448.4</ele><time>2026-05-01T09:52:30Z</time></trkpt><trkpt lat="45.70581391692274" lon="11.228756982830658"><ele>448.59999999999997</ele><time>2026-05-01T09:52:31Z</time></trkpt><trkpt lat="45.70578358273136" lon="11.228631482380855"><ele>448.79999999999995</ele><time>2026-05-01T09:52:32Z</time></trkpt><trkpt lat="45.70575794571923" lon="11.228500328766543"><ele>449.0</ele><time>2026-05-01T09:52:33Z</time></trkpt><trkpt lat="45.705720488062866" lon="11.228372164266279"><ele>449.0</ele><time>2026-05-01T09:52:34Z</time></trkpt><trkpt lat="45.70569148098777" lon="11.228241308255342"><ele>449.0</ele><time>2026-05-01T09:52:35Z</time></trkpt><trkpt lat="45.70566136383751" lon="11.228109637670018"><ele>449.0</ele><time>2026-05-01T09:52:36Z</time></trkpt><trkpt lat="45.70563182959283" lon="11.227987234547207"><ele>449.0</ele><time>2026-05-01T09:52:37Z</time></trkpt><trkpt lat="45.70560112872669" lon="11.227857213064969"><ele>449.0</ele><time>2026-05-01T09:52:38Z</time></trkpt><trkpt lat="45.705567254365356" lon="11.227733553493028"><ele>448.49999999999994</ele><time>2026-05-01T09:52:39Z</time></trkpt><trkpt lat="45.70553734435728" lon="11.227607350963904"><ele>448.0</ele><time>2026-05-01T09:52:40Z</time></trkpt><trkpt lat="45.70550600657733" lon="11.227480597015672"><ele>447.5</ele><time>2026-05-01T09:52:41Z</time></trkpt><trkpt lat="45.70547901676758" lon="11.227360992136378"><ele>447.0</ele><time>2026-05-01T09:52:42Z</time></trkpt><trkpt lat="45.705451567359525" lon="11.227246892731262"><ele>446.49999999999994</ele><time>2026-05-01T09:52:43Z</time></trkpt><trkpt lat="45.70542510058505" lon="11.227137783434515"><ele>446.0</ele><time>2026-05-01T09:52:44Z</time></trkpt><trkpt lat="45.70539623911438" lon="11.227038907290792"><ele>445.99999999999994</ele><time>2026-05-01T09:52:45Z</time></trkpt><trkpt lat="45.70537421262648" lon="11.226937176745286"><ele>446.0</ele><time>2026-05-01T09:52:46Z</time></trkpt><trkpt lat="45.70535175334008" lon="11.226839688443773"><ele>446.0</ele><time>2026-05-01T09:52:47Z</time></trkpt><trkpt lat="45.70532792108914" lon="11.226746846207377"><ele>446.0</ele><time>2026-05-01T09:52:48Z</time></trkpt><trkpt lat="45.70528890960683" lon="11.226588134030617"><ele>445.99999999999994</ele><time>2026-05-01T09:52:50Z</time></trkpt><trkpt lat="45.70525601306878" lon="11.226439464447575"><ele>446.0</ele><time>2026-05-01T09:52:52Z</time></trkpt><trkpt lat="45.70522559142316" lon="11.22629811641579"><ele>444.8333333333333</ele><time>2026-05-01T09:52:54Z</time></trkpt><trkpt lat="45.70519298012898" lon="11.226177070121285"><ele>443.66666666666663</ele><time>2026-05-01T09:52:56Z</time></trkpt><trkpt lat="45.70516501442627" lon="11.22606559032917"><ele>442.5</ele><time>2026-05-01T09:52:58Z</time></trkpt><trkpt lat="45.7051415984878" lon="11.22595568565595"><ele>441.33333333333337</ele><time>2026-05-01T09:53:00Z</time></trkpt><trkpt lat="45.70511670688413" lon="11.225850703490082"><ele>440.1666666666667</ele><time>2026-05-01T09:53:02Z</time></trkpt><trkpt lat="45.70513394459224" lon="11.225750403069815"><ele>439.0</ele><time>2026-05-01T09:53:05Z</time></trkpt><trkpt lat="45.705171759054295" lon="11.225654251375323"><ele>440.1666666666667</ele><time>2026-05-01T09:53:08Z</time></trkpt><trkpt lat="45.70521272766917" lon="11.225537153154162"><ele>441.33333333333337</ele><time>2026-05-01T09:53:11Z</time></trkpt><trkpt lat="45.705259678475464" lon="11.225431957340502"><ele>442.5</ele><time>2026-05-01T09:53:14Z</time></trkpt><trkpt lat="45.70530187387919" lon="11.22532740181251"><ele>443.66666666666663</ele><time>2026-05-01T09:53:17Z</time></trkpt><trkpt lat="45.705337819221334" lon="11.225238698942986"><ele>444.8333333333333</ele><time>2026-05-01T09:53:20Z</time></trkpt><trkpt lat="45.70535427222513" lon="11.225129811572758"><ele>446.0</ele><time>2026-05-01T09:53:39Z</time></trkpt><trkpt lat="45.70540661114718" lon="11.22503194626828"><ele>447.3333333333333</ele><time>2026-05-01T09:53:42Z</time></trkpt><trkpt lat="45.705448264964424" lon="11.224956619992033"><ele>448.66666666666663</ele><time>2026-05-01T09:53:44Z</time></trkpt><trkpt lat="45.705529918265206" lon="11.224905859721677"><ele>450.0</ele><time>2026-05-01T09:53:46Z</time></trkpt><trkpt lat="45.70565324037484" lon="11.224971076399761"><ele>451.33333333333337</ele><time>2026-05-01T09:53:48Z</time></trkpt><trkpt lat="45.70572381785876" lon="11.22501437390659"><ele>452.6666666666667</ele><time>2026-05-01T09:53:49Z</time></trkpt><trkpt lat="45.70578598736975" lon="11.225082122731475"><ele>454.0</ele><time>2026-05-01T09:53:50Z</time></trkpt><trkpt lat="45.70583914117948" lon="11.225173376790869"><ele>454.0</ele><time>2026-05-01T09:53:51Z</time></trkpt><trkpt lat="45.70589358565086" lon="11.225265968407399"><ele>454.0</ele><time>2026-05-01T09:53:52Z</time></trkpt><trkpt lat="45.70593111482813" lon="11.22537908994635"><ele>454.0</ele><time>2026-05-01T09:53:53Z</time></trkpt><trkpt lat="45.705967877118965" lon="11.22550597888097"><ele>454.0</ele><time>2026-05-01T09:53:54Z</time></trkpt><trkpt lat="45.706006444768185" lon="11.225637870986684"><ele>454.0</ele><time>2026-05-01T09:53:55Z</time></trkpt><trkpt lat="45.70604213952048" lon="11.225765209000203"><ele>453.6</ele><time>2026-05-01T09:53:56Z</time></trkpt><trkpt lat="45.70607214989931" lon="11.225879140557982"><ele>453.2</ele><time>2026-05-01T09:53:57Z</time></trkpt><trkpt lat="45.70610076318391" lon="11.225991098096634"><ele>452.80000000000007</ele><time>2026-05-01T09:53:58Z</time></trkpt><trkpt lat="45.706130055795974" lon="11.226112836185896"><ele>452.40000000000003</ele><time>2026-05-01T09:53:59Z</time></trkpt><trkpt lat="45.70616613583807" lon="11.226277948797412"><ele>452.0</ele><time>2026-05-01T09:54:00Z</time></trkpt><trkpt lat="45.70620327658849" lon="11.226467911351568"><ele>463.3333333333333</ele><time>2026-05-01T09:54:01Z</time></trkpt><trkpt lat="45.70622817430112" lon="11.226680625890598"><ele>474.66666666666663</ele><time>2026-05-01T09:54:02Z</time></trkpt><trkpt lat="45.70623170454932" lon="11.226910708906157"><ele>486.0</ele><time>2026-05-01T09:54:03Z</time></trkpt><trkpt lat="45.706212038600945" lon="11.227144354270363"><ele>489.75</ele><time>2026-05-01T09:54:04Z</time></trkpt><trkpt lat="45.70619393668586" lon="11.227356998908512"><ele>493.5</ele><time>2026-05-01T09:54:05Z</time></trkpt><trkpt lat="45.70621415124429" lon="11.227545176409983"><ele>497.25</ele><time>2026-05-01T09:54:06Z</time></trkpt><trkpt lat="45.70619791854349" lon="11.227733443793484"><ele>501.0</ele><time>2026-05-01T09:54:07Z</time></trkpt><trkpt lat="45.70617633011931" lon="11.227931727964027"><ele>501.0</ele><time>2026-05-01T09:54:08Z</time></trkpt><trkpt lat="45.70617277486936" lon="11.228125862181177"><ele>501.0</ele><time>2026-05-01T09:54:09Z</time></trkpt><trkpt lat="45.706146858554845" lon="11.228284511269171"><ele>501.0</ele><time>2026-05-01T09:54:10Z</time></trkpt><trkpt lat="45.70612330064711" lon="11.228420454897055"><ele>501.0</ele><time>2026-05-01T09:54:11Z</time></trkpt><trkpt lat="45.70611548595189" lon="11.228545651578054"><ele>501.0</ele><time>2026-05-01T09:54:12Z</time></trkpt><trkpt lat="45.7060965236181" lon="11.228640290287075"><ele>502.4</ele><time>2026-05-01T09:54:13Z</time></trkpt><trkpt lat="45.70613145327541" lon="11.228758755986654"><ele>503.8</ele><time>2026-05-01T09:54:15Z</time></trkpt><trkpt lat="45.7062469160699" lon="11.22867551748308"><ele>505.19999999999993</ele><time>2026-05-01T09:54:17Z</time></trkpt><trkpt lat="45.70624347281612" lon="11.228537091872258"><ele>506.59999999999997</ele><time>2026-05-01T09:54:18Z</time></trkpt><trkpt lat="45.70624760726135" lon="11.228406761293398"><ele>508.0</ele><time>2026-05-01T09:54:19Z</time></trkpt><trkpt lat="45.70626519394513" lon="11.228251606810087"><ele>506.59999999999997</ele><time>2026-05-01T09:54:20Z</time></trkpt><trkpt lat="45.70627313658495" lon="11.228091491829339"><ele>505.19999999999993</ele><time>2026-05-01T09:54:21Z</time></trkpt><trkpt lat="45.706291133838214" lon="11.227939059652462"><ele>503.8</ele><time>2026-05-01T09:54:22Z</time></trkpt><trkpt lat="45.706329941603364" lon="11.227822231147856"><ele>502.4</ele><time>2026-05-01T09:54:23Z</time></trkpt><trkpt lat="45.70635979516015" lon="11.22768874656833"><ele>501.0</ele><time>2026-05-01T09:54:24Z</time></trkpt><trkpt lat="45.70638734255151" lon="11.227541474463502"><ele>501.0</ele><time>2026-05-01T09:54:25Z</time></trkpt><trkpt lat="45.70640937534483" lon="11.22738236139725"><ele>501.0</ele><time>2026-05-01T09:54:26Z</time></trkpt><trkpt lat="45.7064255027858" lon="11.227219539340886"><ele>501.0</ele><time>2026-05-01T09:54:27Z</time></trkpt><trkpt lat="45.70642829991706" lon="11.227084080611734"><ele>501.0</ele><time>2026-05-01T09:54:28Z</time></trkpt><trkpt lat="45.70642170656934" lon="11.226974491303542"><ele>501.0</ele><time>2026-05-01T09:54:29Z</time></trkpt><trkpt lat="45.706448249318164" lon="11.226890417904297"><ele>499.0</ele><time>2026-05-01T09:54:30Z</time></trkpt><trkpt lat="45.70651316979291" lon="11.226810903337572"><ele>497.0</ele><time>2026-05-01T09:54:31Z</time></trkpt><trkpt lat="45.706532630568624" lon="11.226703413154217"><ele>495.0</ele><time>2026-05-01T09:54:32Z</time></trkpt><trkpt lat="45.70651628533182" lon="11.2265948459087"><ele>493.0</ele><time>2026-05-01T09:54:33Z</time></trkpt><trkpt lat="45.706536086682505" lon="11.226451727760647"><ele>491.0</ele><time>2026-05-01T09:54:35Z</time></trkpt><trkpt lat="45.706612702585765" lon="11.226422137779931"><ele>489.0</ele><time>2026-05-01T09:54:36Z</time></trkpt><trkpt lat="45.70670695707601" lon="11.226406981029777"><ele>489.0</ele><time>2026-05-01T09:54:37Z</time></trkpt><trkpt lat="45.70681305061167" lon="11.226368474948332"><ele>489.0</ele><time>2026-05-01T09:54:38Z</time></trkpt><trkpt lat="45.70689957048178" lon="11.226316849290878"><ele>489.0</ele><time>2026-05-01T09:54:39Z</time></trkpt><trkpt lat="45.70696771474061" lon="11.226281109679181"><ele>489.0</ele><time>2026-05-01T09:54:40Z</time></trkpt><trkpt lat="45.7069972511498" lon="11.226200333082993"><ele>489.0</ele><time>2026-05-01T09:54:41Z</time></trkpt><trkpt lat="45.706987410327265" lon="11.226085124386152"><ele>489.0</ele><time>2026-05-01T09:54:42Z</time></trkpt><trkpt lat="45.70692440185741" lon="11.225994398470368"><ele>489.0</ele><time>2026-05-01T09:54:43Z</time></trkpt><trkpt lat="45.706836409520434" lon="11.225943459476781"><ele>489.0</ele><time>2026-05-01T09:54:44Z</time></trkpt><trkpt lat="45.706740467310105" lon="11.225913707981238"><ele>489.0</ele><time>2026-05-01T09:54:45Z</time></trkpt><trkpt lat="45.7066497858628" lon="11.225865207255278"><ele>489.0</ele><time>2026-05-01T09:54:46Z</time></trkpt><trkpt lat="45.7065639317036" lon="11.225783637285913"><ele>489.0</ele><time>2026-05-01T09:54:47Z</time></trkpt><trkpt lat="45.70650859071587" lon="11.225687180940241"><ele>488.2</ele><time>2026-05-01T09:54:48Z</time></trkpt><trkpt lat="45.706512579410465" lon="11.225550430152367"><ele>487.4</ele><time>2026-05-01T09:54:49Z</time></trkpt><trkpt lat="45.70650050313775" lon="11.225409549450067"><ele>486.6</ele><time>2026-05-01T09:54:50Z</time></trkpt><trkpt lat="45.706500927119414" lon="11.225274865249313"><ele>485.8</ele><time>2026-05-01T09:54:51Z</time></trkpt><trkpt lat="45.70649498695487" lon="11.225140172231766"><ele>485.0</ele><time>2026-05-01T09:54:52Z</time></trkpt><trkpt lat="45.70649537332335" lon="11.22503353096856"><ele>485.0</ele><time>2026-05-01T09:54:53Z</time></trkpt><trkpt lat="45.70654080772703" lon="11.224872771635729"><ele>485.0</ele><time>2026-05-01T09:54:55Z</time></trkpt><trkpt lat="45.70660737309695" lon="11.224825469412067"><ele>485.0</ele><time>2026-05-01T09:54:56Z</time></trkpt><trkpt lat="45.70669600747134" lon="11.224827219445622"><ele>485.0</ele><time>2026-05-01T09:54:57Z</time></trkpt><trkpt lat="45.706774867132246" lon="11.224825215993041"><ele>485.0</ele><time>2026-05-01T09:54:58Z</time></trkpt><trkpt lat="45.706878467420154" lon="11.224837765854902"><ele>489.66666666666663</ele><time>2026-05-01T09:54:59Z</time></trkpt><trkpt lat="45.70699340887908" lon="11.224858632640549"><ele>494.3333333333333</ele><time>2026-05-01T09:55:00Z</time></trkpt><trkpt lat="45.70709421396542" lon="11.224879723684277"><ele>499.0</ele><time>2026-05-01T09:55:01Z</time></trkpt><trkpt lat="45.70718250381134" lon="11.224886779614694"><ele>503.66666666666663</ele><time>2026-05-01T09:55:02Z</time></trkpt><trkpt lat="45.707252270247416" lon="11.224895221286092"><ele>508.3333333333333</ele><time>2026-05-01T09:55:03Z</time></trkpt><trkpt lat="45.70732267469284" lon="11.224878399871901"><ele>513.0</ele><time>2026-05-01T09:55:04Z</time></trkpt><trkpt lat="45.70738939484752" lon="11.22483412350823"><ele>511.5</ele><time>2026-05-01T09:55:05Z</time></trkpt><trkpt lat="45.70743683208121" lon="11.224751244027535"><ele>510.0</ele><time>2026-05-01T09:55:06Z</time></trkpt><trkpt lat="45.70744720807693" lon="11.224647884917829"><ele>508.5</ele><time>2026-05-01T09:55:07Z</time></trkpt><trkpt lat="45.70741681416685" lon="11.224558208795568"><ele>507.0</ele><time>2026-05-01T09:55:08Z</time></trkpt><trkpt lat="45.70732516183212" lon="11.224469651709466"><ele>505.5</ele><time>2026-05-01T09:55:10Z</time></trkpt><trkpt lat="45.70725751541828" lon="11.224423162721342"><ele>504.0</ele><time>2026-05-01T09:55:12Z</time></trkpt><trkpt lat="45.707212215057915" lon="11.224325299007273"><ele>504.0</ele><time>2026-05-01T09:55:14Z</time></trkpt><trkpt lat="45.707277538868674" lon="11.224254850178843"><ele>504.0</ele><time>2026-05-01T09:55:16Z</time></trkpt><trkpt lat="45.70734523708421" lon="11.224412125056272"><ele>504.0</ele><time>2026-05-01T09:55:18Z</time></trkpt><trkpt lat="45.70740264698787" lon="11.224463077592677"><ele>504.0</ele><time>2026-05-01T09:55:19Z</time></trkpt><trkpt lat="45.7074685712254" lon="11.224526044389789"><ele>504.0</ele><time>2026-05-01T09:55:20Z</time></trkpt><trkpt lat="45.70754063653773" lon="11.224558348899794"><ele>504.0</ele><time>2026-05-01T09:55:21Z</time></trkpt><trkpt lat="45.70760304588968" lon="11.224592262658067"><ele>504.0</ele><time>2026-05-01T09:55:22Z</time></trkpt><trkpt lat="45.70770925416982" lon="11.224662498244518"><ele>504.0</ele><time>2026-05-01T09:55:24Z</time></trkpt><trkpt lat="45.70770911879379" lon="11.224763382891014"><ele>504.0</ele><time>2026-05-01T09:55:25Z</time></trkpt><trkpt lat="45.70767799774903" lon="11.224864691134048"><ele>504.0</ele><time>2026-05-01T09:55:26Z</time></trkpt><trkpt lat="45.707615852961524" lon="11.22494296277095"><ele>504.0</ele><time>2026-05-01T09:55:27Z</time></trkpt><trkpt lat="45.70751576053155" lon="11.224950048027235"><ele>504.0</ele><time>2026-05-01T09:55:28Z</time></trkpt><trkpt lat="45.707435508147945" lon="11.225001776594892"><ele>505.5</ele><time>2026-05-01T09:55:29Z</time></trkpt><trkpt lat="45.70735839148067" lon="11.225065381090362"><ele>507.0</ele><time>2026-05-01T09:55:30Z</time></trkpt><trkpt lat="45.70727027725874" lon="11.225095240321718"><ele>508.5</ele><time>2026-05-01T09:55:31Z</time></trkpt><trkpt lat="45.70718169775916" lon="11.225112046690866"><ele>510.0</ele><time>2026-05-01T09:55:32Z</time></trkpt><trkpt lat="45.70710737239637" lon="11.225087745454058"><ele>511.5</ele><time>2026-05-01T09:55:33Z</time></trkpt><trkpt lat="45.707027991045734" lon="11.22510746788403"><ele>513.0</ele><time>2026-05-01T09:55:34Z</time></trkpt><trkpt lat="45.70694286698502" lon="11.225101043075933"><ele>508.3333333333333</ele><time>2026-05-01T09:55:35Z</time></trkpt><trkpt lat="45.706867962595396" lon="11.225095466288012"><ele>503.66666666666663</ele><time>2026-05-01T09:55:36Z</time></trkpt><trkpt lat="45.70679442174548" lon="11.2251010309223"><ele>499.0</ele><time>2026-05-01T09:55:37Z</time></trkpt><trkpt lat="45.70669353092738" lon="11.225199342316701"><ele>494.3333333333333</ele><time>2026-05-01T09:55:39Z</time></trkpt><trkpt lat="45.7066862496312" lon="11.225301359524066"><ele>489.66666666666663</ele><time>2026-05-01T09:55:40Z</time></trkpt><trkpt lat="45.7067398988964" lon="11.225411162616634"><ele>485.0</ele><time>2026-05-01T09:55:41Z</time></trkpt><trkpt lat="45.7068022449894" lon="11.225484790698411"><ele>484.99999999999994</ele><time>2026-05-01T09:55:42Z</time></trkpt><trkpt lat="45.70688912277263" lon="11.225513811776437"><ele>485.0</ele><time>2026-05-01T09:55:43Z</time></trkpt><trkpt lat="45.70697624199932" lon="11.225536898614662"><ele>485.0</ele><time>2026-05-01T09:55:44Z</time></trkpt><trkpt lat="45.70706662945368" lon="11.225562798481782"><ele>485.0</ele><time>2026-05-01T09:55:45Z</time></trkpt><trkpt lat="45.70713734261353" lon="11.225598876629006"><ele>484.99999999999994</ele><time>2026-05-01T09:55:46Z</time></trkpt><trkpt lat="45.70719784317874" lon="11.225685775981177"><ele>485.0</ele><time>2026-05-01T09:55:47Z</time></trkpt><trkpt lat="45.70727215275061" lon="11.225773214069147"><ele>494.75</ele><time>2026-05-01T09:55:48Z</time></trkpt><trkpt lat="45.70732894042904" lon="11.225868042179082"><ele>504.5</ele><time>2026-05-01T09:55:49Z</time></trkpt><trkpt lat="45.707392621434515" lon="11.225989164246286"><ele>514.25</ele><time>2026-05-01T09:55:50Z</time></trkpt><trkpt lat="45.70749254776394" lon="11.226137671124235"><ele>524.0</ele><time>2026-05-01T09:55:51Z</time></trkpt><trkpt lat="45.707596278312266" lon="11.226317099789949"><ele>524.0</ele><time>2026-05-01T09:55:52Z</time></trkpt><trkpt lat="45.707704253097404" lon="11.22650474586764"><ele>524.0</ele><time>2026-05-01T09:55:53Z</time></trkpt><trkpt lat="45.7077767715719" lon="11.226661565988131"><ele>524.0</ele><time>2026-05-01T09:55:54Z</time></trkpt><trkpt lat="45.70782025591889" lon="11.226776429073999"><ele>524.0</ele><time>2026-05-01T09:55:55Z</time></trkpt><trkpt lat="45.70780143744649" lon="11.226897097252843"><ele>524.0</ele><time>2026-05-01T09:55:56Z</time></trkpt><trkpt lat="45.707725542305035" lon="11.226974246351311"><ele>524.0</ele><time>2026-05-01T09:55:57Z</time></trkpt><trkpt lat="45.70762009472574" lon="11.226985037145594"><ele>524.0</ele><time>2026-05-01T09:55:58Z</time></trkpt><trkpt lat="45.70749836804485" lon="11.226897781435698"><ele>524.0</ele><time>2026-05-01T09:55:59Z</time></trkpt><trkpt lat="45.707347771904324" lon="11.22686382066562"><ele>524.0</ele><time>2026-05-01T09:56:00Z</time></trkpt><trkpt lat="45.70722720804045" lon="11.226880218287002"><ele>524.0</ele><time>2026-05-01T09:56:01Z</time></trkpt><trkpt lat="45.707137867166495" lon="11.226839237502551"><ele>524.0</ele><time>2026-05-01T09:56:02Z</time></trkpt><trkpt lat="45.70707136754899" lon="11.226856416551376"><ele>524.0</ele><time>2026-05-01T09:56:03Z</time></trkpt><trkpt lat="45.70701005363042" lon="11.226968864758904"><ele>524.0</ele><time>2026-05-01T09:56:05Z</time></trkpt><trkpt lat="45.70705712487212" lon="11.22707090277583"><ele>524.0</ele><time>2026-05-01T09:56:06Z</time></trkpt><trkpt lat="45.7071481480997" lon="11.227099115718044"><ele>524.0</ele><time>2026-05-01T09:56:07Z</time></trkpt><trkpt lat="45.70727565039113" lon="11.22702966514142"><ele>524.0</ele><time>2026-05-01T09:56:08Z</time></trkpt><trkpt lat="45.707384607685626" lon="11.226988644783722"><ele>524.0</ele><time>2026-05-01T09:56:09Z</time></trkpt><trkpt lat="45.70748710176292" lon="11.227041231801179"><ele>524.0</ele><time>2026-05-01T09:56:10Z</time></trkpt><trkpt lat="45.70763487503024" lon="11.227081392632273"><ele>524.0</ele><time>2026-05-01T09:56:11Z</time></trkpt><trkpt lat="45.70777792861495" lon="11.227134658808158"><ele>524.0</ele><time>2026-05-01T09:56:12Z</time></trkpt><trkpt lat="45.707905972508414" lon="11.227156408090767"><ele>524.0</ele><time>2026-05-01T09:56:13Z</time></trkpt><trkpt lat="45.70800730565688" lon="11.227120620850167"><ele>531.0</ele><time>2026-05-01T09:56:14Z</time></trkpt><trkpt lat="45.70807364650974" lon="11.227039618858797"><ele>538.0</ele><time>2026-05-01T09:56:15Z</time></trkpt><trkpt lat="45.70808562979083" lon="11.226888920023319"><ele>545.0</ele><time>2026-05-01T09:56:16Z</time></trkpt><trkpt lat="45.708057327232034" lon="11.22673265845161"><ele>552.0</ele><time>2026-05-01T09:56:17Z</time></trkpt><trkpt lat="45.70799217000493" lon="11.226559660939804"><ele>559.0</ele><time>2026-05-01T09:56:18Z</time></trkpt><trkpt lat="45.70790176210874" lon="11.226358014700127"><ele>559.0</ele><time>2026-05-01T09:56:19Z</time></trkpt><trkpt lat="45.70780484392556" lon="11.22615808600037"><ele>559.0</ele><time>2026-05-01T09:56:20Z</time></trkpt><trkpt lat="45.70771738533975" lon="11.225981580342808"><ele>559.0</ele><time>2026-05-01T09:56:21Z</time></trkpt><trkpt lat="45.70765074655574" lon="11.225836072712989"><ele>559.0</ele><time>2026-05-01T09:56:22Z</time></trkpt><trkpt lat="45.707607506351884" lon="11.225713357162682"><ele>555.0</ele><time>2026-05-01T09:56:23Z</time></trkpt><trkpt lat="45.70759535660068" lon="11.225609847180008"><ele>551.0</ele><time>2026-05-01T09:56:24Z</time></trkpt><trkpt lat="45.70762627613206" lon="11.225513938664035"><ele>547.0</ele><time>2026-05-01T09:56:25Z</time></trkpt><trkpt lat="45.70772094203727" lon="11.225483620237148"><ele>543.0</ele><time>2026-05-01T09:56:26Z</time></trkpt><trkpt lat="45.70783088531555" lon="11.225413380167922"><ele>539.0</ele><time>2026-05-01T09:56:27Z</time></trkpt><trkpt lat="45.70796919731024" lon="11.225322048235203"><ele>539.0</ele><time>2026-05-01T09:56:28Z</time></trkpt><trkpt lat="45.70811354785432" lon="11.22522475279733"><ele>539.0</ele><time>2026-05-01T09:56:29Z</time></trkpt><trkpt lat="45.70824153016355" lon="11.225109937792066"><ele>539.0</ele><time>2026-05-01T09:56:30Z</time></trkpt><trkpt lat="45.70834878707177" lon="11.22500607985811"><ele>539.0</ele><time>2026-05-01T09:56:31Z</time></trkpt><trkpt lat="45.708424937161" lon="11.224899207645706"><ele>538.2</ele><time>2026-05-01T09:56:32Z</time></trkpt><trkpt lat="45.70845792354464" lon="11.224789586038991"><ele>537.4</ele><time>2026-05-01T09:56:33Z</time></trkpt><trkpt lat="45.70844677938068" lon="11.22467618470285"><ele>536.6</ele><time>2026-05-01T09:56:34Z</time></trkpt><trkpt lat="45.70839245073931" lon="11.224546753921738"><ele>535.8</ele><time>2026-05-01T09:56:35Z</time></trkpt><trkpt lat="45.70831239322599" lon="11.224443792337542"><ele>535.0</ele><time>2026-05-01T09:56:36Z</time></trkpt><trkpt lat="45.708249553586064" lon="11.22434789515585"><ele>535.0</ele><time>2026-05-01T09:56:37Z</time></trkpt><trkpt lat="45.708210471099086" lon="11.22425443944548"><ele>535.0</ele><time>2026-05-01T09:56:38Z</time></trkpt><trkpt lat="45.708220529336124" lon="11.224135369142987"><ele>535.0</ele><time>2026-05-01T09:56:39Z</time></trkpt><trkpt lat="45.70829948810819" lon="11.224027160237341"><ele>535.0</ele><time>2026-05-01T09:56:40Z</time></trkpt><trkpt lat="45.70839663755238" lon="11.223950694317859"><ele>535.0</ele><time>2026-05-01T09:56:41Z</time></trkpt><trkpt lat="45.70851348943765" lon="11.223917963900961"><ele>536.0</ele><time>2026-05-01T09:56:42Z</time></trkpt><trkpt lat="45.708654888185215" lon="11.223914518321289"><ele>537.0</ele><time>2026-05-01T09:56:43Z</time></trkpt><trkpt lat="45.70882349125908" lon="11.223919012319476"><ele>538.0</ele><time>2026-05-01T09:56:44Z</time></trkpt><trkpt lat="45.70896989471454" lon="11.223923798671121"><ele>538.0</ele><time>2026-05-01T09:56:45Z</time></trkpt><trkpt lat="45.70907559481812" lon="11.223940940587516"><ele>538.0</ele><time>2026-05-01T09:56:46Z</time></trkpt><trkpt lat="45.7091659501578" lon="11.223919283458887"><ele>538.0</ele><time>2026-05-01T09:56:47Z</time></trkpt><trkpt lat="45.709231300966294" lon="11.22383898640762"><ele>538.0</ele><time>2026-05-01T09:56:48Z</time></trkpt><trkpt lat="45.70927122625519" lon="11.223687495192022"><ele>538.0</ele><time>2026-05-01T09:56:49Z</time></trkpt><trkpt lat="45.70929564959073" lon="11.223518229479641"><ele>538.0</ele><time>2026-05-01T09:56:50Z</time></trkpt><trkpt lat="45.70937029049856" lon="11.22338320384813"><ele>538.0</ele><time>2026-05-01T09:56:51Z</time></trkpt><trkpt lat="45.70944860709279" lon="11.223273070287703"><ele>538.0</ele><time>2026-05-01T09:56:52Z</time></trkpt><trkpt lat="45.709502888259365" lon="11.223211664261044"><ele>538.0</ele><time>2026-05-01T09:56:53Z</time></trkpt><trkpt lat="45.709547838931925" lon="11.223310332651568"><ele>538.0</ele><time>2026-05-01T09:56:55Z</time></trkpt><trkpt lat="45.70951796677238" lon="11.223411047609646"><ele>538.0</ele><time>2026-05-01T09:56:56Z</time></trkpt><trkpt lat="45.70942657806836" lon="11.223457509408819"><ele>538.0</ele><time>2026-05-01T09:56:57Z</time></trkpt><trkpt lat="45.709375563586" lon="11.223561377780616"><ele>538.0</ele><time>2026-05-01T09:56:58Z</time></trkpt><trkpt lat="45.70933865774581" lon="11.223677188542775"><ele>538.0</ele><time>2026-05-01T09:56:59Z</time></trkpt><trkpt lat="45.70934139381952" lon="11.223849589579732"><ele>538.0</ele><time>2026-05-01T09:57:00Z</time></trkpt><trkpt lat="45.7093290932839" lon="11.224018230926857"><ele>543.25</ele><time>2026-05-01T09:57:01Z</time></trkpt><trkpt lat="45.70931228641862" lon="11.224145695032417"><ele>548.5</ele><time>2026-05-01T09:57:02Z</time></trkpt><trkpt lat="45.70921150484786" lon="11.22419952137786"><ele>553.75</ele><time>2026-05-01T09:57:03Z</time></trkpt><trkpt lat="45.70907121429463" lon="11.224159288698472"><ele>559.0</ele><time>2026-05-01T09:57:04Z</time></trkpt><trkpt lat="45.70895156941858" lon="11.22419711756698"><ele>559.0</ele><time>2026-05-01T09:57:05Z</time></trkpt><trkpt lat="45.70885731607823" lon="11.224247244112027"><ele>559.0</ele><time>2026-05-01T09:57:06Z</time></trkpt><trkpt lat="45.70879765225936" lon="11.224296848502862"><ele>559.0</ele><time>2026-05-01T09:57:07Z</time></trkpt><trkpt lat="45.70877247380024" lon="11.224440072999931"><ele>559.0</ele><time>2026-05-01T09:57:09Z</time></trkpt><trkpt lat="45.70883922228666" lon="11.224497604423343"><ele>559.0</ele><time>2026-05-01T09:57:10Z</time></trkpt><trkpt lat="45.70893514279017" lon="11.224434016575449"><ele>559.0</ele><time>2026-05-01T09:57:11Z</time></trkpt><trkpt lat="45.70901327841427" lon="11.224362563655388"><ele>559.0</ele><time>2026-05-01T09:57:12Z</time></trkpt><trkpt lat="45.709110525215245" lon="11.224323698110842"><ele>559.0</ele><time>2026-05-01T09:57:13Z</time></trkpt><trkpt lat="45.70922555600816" lon="11.22437718601649"><ele>559.0</ele><time>2026-05-01T09:57:14Z</time></trkpt><trkpt lat="45.70934289551953" lon="11.224390250106833"><ele>559.0</ele><time>2026-05-01T09:57:15Z</time></trkpt><trkpt lat="45.709440694088265" lon="11.224417629053624"><ele>558.8</ele><time>2026-05-01T09:57:16Z</time></trkpt><trkpt lat="45.709511681650305" lon="11.224383177342444"><ele>558.5999999999999</ele><time>2026-05-01T09:57:17Z</time></trkpt><trkpt lat="45.70955247757916" lon="11.224275059249548"><ele>558.4</ele><time>2026-05-01T09:57:18Z</time></trkpt><trkpt lat="45.709553049542784" lon="11.224111864905758"><ele>558.1999999999999</ele><time>2026-05-01T09:57:19Z</time></trkpt><trkpt lat="45.709533602586156" lon="11.223957962001599"><ele>558.0</ele><time>2026-05-01T09:57:20Z</time></trkpt><trkpt lat="45.70956306873365" lon="11.223838978474296"><ele>558.0</ele><time>2026-05-01T09:57:21Z</time></trkpt><trkpt lat="45.70961408909145" lon="11.223737120703456"><ele>558.0</ele><time>2026-05-01T09:57:22Z</time></trkpt><trkpt lat="45.709701028559785" lon="11.223676028484762"><ele>558.0</ele><time>2026-05-01T09:57:23Z</time></trkpt><trkpt lat="45.70981552651657" lon="11.22370232043926"><ele>558.0</ele><time>2026-05-01T09:57:24Z</time></trkpt><trkpt lat="45.70995966342625" lon="11.223692154153447"><ele>558.0</ele><time>2026-05-01T09:57:25Z</time></trkpt><trkpt lat="45.71011492803118" lon="11.223669861341895"><ele>558.0</ele><time>2026-05-01T09:57:26Z</time></trkpt><trkpt lat="45.71024673478701" lon="11.223669080693892"><ele>558.0</ele><time>2026-05-01T09:57:27Z</time></trkpt><trkpt lat="45.710357344788626" lon="11.223675062295385"><ele>558.0</ele><time>2026-05-01T09:57:28Z</time></trkpt><trkpt lat="45.71046688078237" lon="11.223733542711873"><ele>558.0</ele><time>2026-05-01T09:57:29Z</time></trkpt><trkpt lat="45.71058744923993" lon="11.223799739893547"><ele>558.0</ele><time>2026-05-01T09:57:30Z</time></trkpt><trkpt lat="45.71069790304586" lon="11.22387580484955"><ele>558.0</ele><time>2026-05-01T09:57:31Z</time></trkpt><trkpt lat="45.710786410157084" lon="11.223981933480925"><ele>558.0</ele><time>2026-05-01T09:57:32Z</time></trkpt><trkpt lat="45.710870453643466" lon="11.224111210103738"><ele>558.0</ele><time>2026-05-01T09:57:33Z</time></trkpt><trkpt lat="45.710957759803165" lon="11.224259705034154"><ele>563.0</ele><time>2026-05-01T09:57:34Z</time></trkpt><trkpt lat="45.71106668411653" lon="11.224359598388858"><ele>568.0</ele><time>2026-05-01T09:57:35Z</time></trkpt><trkpt lat="45.71117771827731" lon="11.22442020826418"><ele>573.0</ele><time>2026-05-01T09:57:36Z</time></trkpt><trkpt lat="45.71130320564098" lon="11.224425200005697"><ele>578.0</ele><time>2026-05-01T09:57:37Z</time></trkpt><trkpt lat="45.71141046419646" lon="11.224360910018198"><ele>578.0</ele><time>2026-05-01T09:57:38Z</time></trkpt><trkpt lat="45.71150355830779" lon="11.224259897055717"><ele>578.0</ele><time>2026-05-01T09:57:39Z</time></trkpt><trkpt lat="45.71160279218837" lon="11.224176579416831"><ele>578.0</ele><time>2026-05-01T09:57:40Z</time></trkpt><trkpt lat="45.7117133390809" lon="11.224207156095309"><ele>578.0</ele><time>2026-05-01T09:57:41Z</time></trkpt><trkpt lat="45.711841200357156" lon="11.22419014137556"><ele>582.5</ele><time>2026-05-01T09:57:42Z</time></trkpt><trkpt lat="45.71196922685818" lon="11.22421759244706"><ele>587.0</ele><time>2026-05-01T09:57:43Z</time></trkpt><trkpt lat="45.71207772595592" lon="11.224233772372264"><ele>591.5</ele><time>2026-05-01T09:57:44Z</time></trkpt><trkpt lat="45.7121810454272" lon="11.224211087134837"><ele>596.0</ele><time>2026-05-01T09:57:45Z</time></trkpt><trkpt lat="45.712271535475374" lon="11.224119674104426"><ele>589.75</ele><time>2026-05-01T09:57:46Z</time></trkpt><trkpt lat="45.71233581691082" lon="11.223977541202593"><ele>583.5</ele><time>2026-05-01T09:57:47Z</time></trkpt><trkpt lat="45.712427283225395" lon="11.223875973933222"><ele>577.25</ele><time>2026-05-01T09:57:48Z</time></trkpt><trkpt lat="45.71253108965186" lon="11.223836873278703"><ele>571.0</ele><time>2026-05-01T09:57:49Z</time></trkpt><trkpt lat="45.71264546008112" lon="11.223758553025379"><ele>577.3333333333334</ele><time>2026-05-01T09:57:50Z</time></trkpt><trkpt lat="45.712783292480914" lon="11.22371594156414"><ele>583.6666666666666</ele><time>2026-05-01T09:57:51Z</time></trkpt><trkpt lat="45.712933649622414" lon="11.223662636424098"><ele>590.0</ele><time>2026-05-01T09:57:52Z</time></trkpt><trkpt lat="45.713081262458154" lon="11.223583083301007"><ele>590.0</ele><time>2026-05-01T09:57:53Z</time></trkpt><trkpt lat="45.713210643408274" lon="11.223470606725456"><ele>590.0</ele><time>2026-05-01T09:57:54Z</time></trkpt><trkpt lat="45.71331025275474" lon="11.223358755938825"><ele>590.0</ele><time>2026-05-01T09:57:55Z</time></trkpt><trkpt lat="45.71339093096409" lon="11.2232415361946"><ele>590.0</ele><time>2026-05-01T09:57:56Z</time></trkpt><trkpt lat="45.71348477890756" lon="11.223209434693075"><ele>592.25</ele><time>2026-05-01T09:57:57Z</time></trkpt><trkpt lat="45.713584672940534" lon="11.223205709352396"><ele>594.5</ele><time>2026-05-01T09:57:58Z</time></trkpt><trkpt lat="45.71368005263147" lon="11.223303067412436"><ele>596.75</ele><time>2026-05-01T09:57:59Z</time></trkpt><trkpt lat="45.713816632797084" lon="11.223392453231718"><ele>599.0</ele><time>2026-05-01T09:58:00Z</time></trkpt><trkpt lat="45.713965849690126" lon="11.22346033870404"><ele>599.0</ele><time>2026-05-01T09:58:01Z</time></trkpt><trkpt lat="45.71410685481288" lon="11.223522558580273"><ele>599.0</ele><time>2026-05-01T09:58:02Z</time></trkpt><trkpt lat="45.71424983684359" lon="11.22351950310974"><ele>599.0</ele><time>2026-05-01T09:58:03Z</time></trkpt><trkpt lat="45.71437493076085" lon="11.22345953064074"><ele>599.0</ele><time>2026-05-01T09:58:04Z</time></trkpt><trkpt lat="45.71447682616945" lon="11.223448108695159"><ele>599.0</ele><time>2026-05-01T09:58:05Z</time></trkpt><trkpt lat="45.71454436235466" lon="11.22343392472879"><ele>599.0</ele><time>2026-05-01T09:58:06Z</time></trkpt><trkpt lat="45.714536871340925" lon="11.223568037440202"><ele>599.0</ele><time>2026-05-01T09:58:09Z</time></trkpt><trkpt lat="45.714456373073645" lon="11.223594716157484"><ele>599.0</ele><time>2026-05-01T09:58:10Z</time></trkpt><trkpt lat="45.71434588223119" lon="11.223556282058047"><ele>599.0</ele><time>2026-05-01T09:58:11Z</time></trkpt><trkpt lat="45.71422242826092" lon="11.223630291797816"><ele>599.0</ele><time>2026-05-01T09:58:12Z</time></trkpt><trkpt lat="45.71408726432703" lon="11.2236777509483"><ele>599.0</ele><time>2026-05-01T09:58:13Z</time></trkpt><trkpt lat="45.71393545059188" lon="11.22364417948013"><ele>599.0</ele><time>2026-05-01T09:58:14Z</time></trkpt><trkpt lat="45.71376742813579" lon="11.223615012577234"><ele>599.0</ele><time>2026-05-01T09:58:15Z</time></trkpt><trkpt lat="45.71363669712356" lon="11.223598227835554"><ele>599.0</ele><time>2026-05-01T09:58:16Z</time></trkpt><trkpt lat="45.71354381945002" lon="11.223572133618532"><ele>599.0</ele><time>2026-05-01T09:58:17Z</time></trkpt><trkpt lat="45.71344862654143" lon="11.223607336375911"><ele>599.0</ele><time>2026-05-01T09:58:19Z</time></trkpt><trkpt lat="45.71344796489216" lon="11.22370421970808"><ele>599.0</ele><time>2026-05-01T09:58:20Z</time></trkpt><trkpt lat="45.71347464289588" lon="11.223787379354633"><ele>599.0</ele><time>2026-05-01T09:58:21Z</time></trkpt><trkpt lat="45.71358817131679" lon="11.223790026594166"><ele>599.0</ele><time>2026-05-01T09:58:22Z</time></trkpt><trkpt lat="45.71368444219212" lon="11.223769878905681"><ele>599.0</ele><time>2026-05-01T09:58:23Z</time></trkpt><trkpt lat="45.71379226628857" lon="11.223802689302463"><ele>599.0</ele><time>2026-05-01T09:58:24Z</time></trkpt><trkpt lat="45.71391125859814" lon="11.223858275905977"><ele>599.0</ele><time>2026-05-01T09:58:25Z</time></trkpt><trkpt lat="45.71404870656038" lon="11.223956687009158"><ele>605.0</ele><time>2026-05-01T09:58:26Z</time></trkpt><trkpt lat="45.71420513590181" lon="11.224038982884334"><ele>611.0</ele><time>2026-05-01T09:58:27Z</time></trkpt><trkpt lat="45.71434597825714" lon="11.224129252599989"><ele>617.0</ele><time>2026-05-01T09:58:28Z</time></trkpt><trkpt lat="45.71448036588293" lon="11.224189537161003"><ele>618.6</ele><time>2026-05-01T09:58:29Z</time></trkpt><trkpt lat="45.71460531698258" lon="11.224218410230522"><ele>620.2</ele><time>2026-05-01T09:58:30Z</time></trkpt><trkpt lat="45.71471303047176" lon="11.224257472237014"><ele>621.8</ele><time>2026-05-01T09:58:31Z</time></trkpt><trkpt lat="45.71478837843251" lon="11.224360715569897"><ele>623.4</ele><time>2026-05-01T09:58:32Z</time></trkpt><trkpt lat="45.71487603303592" lon="11.224403268504197"><ele>625.0</ele><time>2026-05-01T09:58:33Z</time></trkpt><trkpt lat="45.71496617266453" lon="11.224409158953387"><ele>625.0</ele><time>2026-05-01T09:58:34Z</time></trkpt><trkpt lat="45.71506369291829" lon="11.224349804819223"><ele>625.0</ele><time>2026-05-01T09:58:35Z</time></trkpt><trkpt lat="45.71515678819713" lon="11.224261222030579"><ele>625.0</ele><time>2026-05-01T09:58:36Z</time></trkpt><trkpt lat="45.715238191507794" lon="11.224154845033608"><ele>625.0</ele><time>2026-05-01T09:58:37Z</time></trkpt><trkpt lat="45.71529589119569" lon="11.223996790971407"><ele>626.4</ele><time>2026-05-01T09:58:38Z</time></trkpt><trkpt lat="45.715345466125754" lon="11.223853977955482"><ele>627.8</ele><time>2026-05-01T09:58:39Z</time></trkpt><trkpt lat="45.715416700883026" lon="11.223752936726564"><ele>629.2</ele><time>2026-05-01T09:58:40Z</time></trkpt><trkpt lat="45.71548821169462" lon="11.223667570460163"><ele>630.6</ele><time>2026-05-01T09:58:41Z</time></trkpt><trkpt lat="45.715581665776554" lon="11.223603823938236"><ele>632.0</ele><time>2026-05-01T09:58:42Z</time></trkpt><trkpt lat="45.715684936332906" lon="11.223527232760135"><ele>632.0</ele><time>2026-05-01T09:58:43Z</time></trkpt><trkpt lat="45.7157646377039" lon="11.22341332058062"><ele>632.0</ele><time>2026-05-01T09:58:44Z</time></trkpt><trkpt lat="45.71583024776789" lon="11.22329650923719"><ele>632.0</ele><time>2026-05-01T09:58:45Z</time></trkpt><trkpt lat="45.715874212207765" lon="11.223183277918494"><ele>632.0</ele><time>2026-05-01T09:58:46Z</time></trkpt><trkpt lat="45.715932902147884" lon="11.223122031922903"><ele>632.0</ele><time>2026-05-01T09:58:47Z</time></trkpt><trkpt lat="45.71602123363713" lon="11.223142620992064"><ele>635.25</ele><time>2026-05-01T09:58:48Z</time></trkpt><trkpt lat="45.716114788118205" lon="11.223163060959445"><ele>638.5</ele><time>2026-05-01T09:58:49Z</time></trkpt><trkpt lat="45.71622116769792" lon="11.2231974862727"><ele>641.75</ele><time>2026-05-01T09:58:50Z</time></trkpt><trkpt lat="45.7163398106687" lon="11.22323821939133"><ele>645.0</ele><time>2026-05-01T09:58:51Z</time></trkpt><trkpt lat="45.71647835127923" lon="11.22327931982667"><ele>645.0</ele><time>2026-05-01T09:58:52Z</time></trkpt><trkpt lat="45.71663174475409" lon="11.223277733868803"><ele>645.0</ele><time>2026-05-01T09:58:53Z</time></trkpt><trkpt lat="45.716775728597895" lon="11.22323455603116"><ele>645.0</ele><time>2026-05-01T09:58:54Z</time></trkpt><trkpt lat="45.716920148745906" lon="11.223163832908877"><ele>642.6666666666666</ele><time>2026-05-01T09:58:55Z</time></trkpt><trkpt lat="45.717067076679754" lon="11.223089996001082"><ele>640.3333333333333</ele><time>2026-05-01T09:58:56Z</time></trkpt><trkpt lat="45.717214827533994" lon="11.223009124572641"><ele>638.0</ele><time>2026-05-01T09:58:57Z</time></trkpt><trkpt lat="45.71735152418817" lon="11.222918981046929"><ele>638.0</ele><time>2026-05-01T09:58:58Z</time></trkpt><trkpt lat="45.71747148502604" lon="11.222811078098106"><ele>638.0</ele><time>2026-05-01T09:58:59Z</time></trkpt><trkpt lat="45.717561825675986" lon="11.22266407360883"><ele>638.0</ele><time>2026-05-01T09:59:00Z</time></trkpt><trkpt lat="45.71761512456599" lon="11.222491602947068"><ele>638.0</ele><time>2026-05-01T09:59:01Z</time></trkpt><trkpt lat="45.71765574681824" lon="11.222339762191421"><ele>639.5</ele><time>2026-05-01T09:59:02Z</time></trkpt><trkpt lat="45.71775231022008" lon="11.222271778947091"><ele>641.0</ele><time>2026-05-01T09:59:03Z</time></trkpt><trkpt lat="45.71787970609339" lon="11.222217270582075"><ele>642.5</ele><time>2026-05-01T09:59:04Z</time></trkpt><trkpt lat="45.718011875858636" lon="11.2221005573413"><ele>644.0</ele><time>2026-05-01T09:59:05Z</time></trkpt><trkpt lat="45.718143984591336" lon="11.221965938140636"><ele>644.0</ele><time>2026-05-01T09:59:06Z</time></trkpt><trkpt lat="45.71827091374677" lon="11.22183169366817"><ele>644.0</ele><time>2026-05-01T09:59:07Z</time></trkpt><trkpt lat="45.71842713678634" lon="11.221774897627883"><ele>644.0</ele><time>2026-05-01T09:59:08Z</time></trkpt><trkpt lat="45.71859085639089" lon="11.221687360996665"><ele>646.0</ele><time>2026-05-01T09:59:09Z</time></trkpt><trkpt lat="45.718748102952354" lon="11.221565800140752"><ele>648.0</ele><time>2026-05-01T09:59:10Z</time></trkpt><trkpt lat="45.71890241435815" lon="11.221438679048562"><ele>650.0</ele><time>2026-05-01T09:59:11Z</time></trkpt><trkpt lat="45.71904774557074" lon="11.221287008666637"><ele>650.0</ele><time>2026-05-01T09:59:12Z</time></trkpt><trkpt lat="45.719189428667015" lon="11.221169219607273"><ele>650.0</ele><time>2026-05-01T09:59:13Z</time></trkpt><trkpt lat="45.719321936812435" lon="11.221072247526756"><ele>650.0</ele><time>2026-05-01T09:59:14Z</time></trkpt><trkpt lat="45.71944430865318" lon="11.220999298544308"><ele>650.0</ele><time>2026-05-01T09:59:15Z</time></trkpt><trkpt lat="45.7195559488333" lon="11.220958104918914"><ele>653.4</ele><time>2026-05-01T09:59:16Z</time></trkpt><trkpt lat="45.71966275531888" lon="11.220929932143552"><ele>656.8</ele><time>2026-05-01T09:59:17Z</time></trkpt><trkpt lat="45.71977633786311" lon="11.220900396714732"><ele>660.2</ele><time>2026-05-01T09:59:18Z</time></trkpt><trkpt lat="45.71989488738083" lon="11.220896304199911"><ele>663.6</ele><time>2026-05-01T09:59:19Z</time></trkpt><trkpt lat="45.71999889003467" lon="11.220869131423333"><ele>667.0</ele><time>2026-05-01T09:59:20Z</time></trkpt><trkpt lat="45.72010416663036" lon="11.220814286436799"><ele>667.0</ele><time>2026-05-01T09:59:21Z</time></trkpt><trkpt lat="45.7202002253861" lon="11.220710586598232"><ele>667.0</ele><time>2026-05-01T09:59:22Z</time></trkpt><trkpt lat="45.720285973342875" lon="11.220587916802112"><ele>667.0</ele><time>2026-05-01T09:59:23Z</time></trkpt><trkpt lat="45.720374939810576" lon="11.220506180659042"><ele>667.0</ele><time>2026-05-01T09:59:24Z</time></trkpt><trkpt lat="45.72043383524806" lon="11.22043589633874"><ele>667.0</ele><time>2026-05-01T09:59:25Z</time></trkpt><trkpt lat="45.720503949789254" lon="11.22037637641916"><ele>667.0</ele><time>2026-05-01T09:59:27Z</time></trkpt><trkpt lat="45.7204619759477" lon="11.220520740453402"><ele>667.0</ele><time>2026-05-01T09:59:29Z</time></trkpt><trkpt lat="45.72042504454137" lon="11.220628016403808"><ele>667.0</ele><time>2026-05-01T09:59:30Z</time></trkpt><trkpt lat="45.72036942008556" lon="11.220678859626048"><ele>667.0</ele><time>2026-05-01T09:59:31Z</time></trkpt><trkpt lat="45.720289003421115" lon="11.220798448315751"><ele>667.0</ele><time>2026-05-01T09:59:33Z</time></trkpt><trkpt lat="45.72023274850755" lon="11.220899562320456"><ele>667.0</ele><time>2026-05-01T09:59:35Z</time></trkpt><trkpt lat="45.72020793189044" lon="11.220989198320996"><ele>667.0</ele><time>2026-05-01T09:59:38Z</time></trkpt><trkpt lat="45.72025237606763" lon="11.221062711095938"><ele>667.0</ele><time>2026-05-01T10:13:29Z</time></trkpt><trkpt lat="45.72026981148932" lon="11.2211626065855"><ele>667.0</ele><time>2026-05-01T10:13:31Z</time></trkpt><trkpt lat="45.720331708508844" lon="11.221251580113783"><ele>667.0</ele><time>2026-05-01T10:13:33Z</time></trkpt><trkpt lat="45.720421472368166" lon="11.221318980184426"><ele>667.0</ele><time>2026-05-01T10:13:35Z</time></trkpt><trkpt lat="45.72053819858094" lon="11.221351046771005"><ele>669.5</ele><time>2026-05-01T10:13:37Z</time></trkpt><trkpt lat="45.72066535269488" lon="11.22136331088416"><ele>672.0</ele><time>2026-05-01T10:13:39Z</time></trkpt><trkpt lat="45.72073425196085" lon="11.22136343565664"><ele>674.5</ele><time>2026-05-01T10:13:40Z</time></trkpt><trkpt lat="45.720802865225245" lon="11.221345837920259"><ele>677.0</ele><time>2026-05-01T10:13:41Z</time></trkpt><trkpt lat="45.7208712994711" lon="11.221305502822325"><ele>679.5</ele><time>2026-05-01T10:13:42Z</time></trkpt><trkpt lat="45.72093817747059" lon="11.22127846661047"><ele>682.0</ele><time>2026-05-01T10:13:43Z</time></trkpt><trkpt lat="45.7210101828882" lon="11.221246174473377"><ele>685.5</ele><time>2026-05-01T10:13:44Z</time></trkpt><trkpt lat="45.721079211625266" lon="11.221229034954783"><ele>689.0</ele><time>2026-05-01T10:13:45Z</time></trkpt><trkpt lat="45.72115077184473" lon="11.221204447412827"><ele>692.5</ele><time>2026-05-01T10:13:46Z</time></trkpt><trkpt lat="45.72122132747936" lon="11.221164429526159"><ele>696.0</ele><time>2026-05-01T10:13:47Z</time></trkpt><trkpt lat="45.721288562241185" lon="11.221109437460322"><ele>699.5</ele><time>2026-05-01T10:13:48Z</time></trkpt><trkpt lat="45.72135615131428" lon="11.221049688196302"><ele>703.0</ele><time>2026-05-01T10:13:49Z</time></trkpt><trkpt lat="45.72142923150957" lon="11.221029455251504"><ele>703.0</ele><time>2026-05-01T10:13:50Z</time></trkpt><trkpt lat="45.721498981503586" lon="11.2210295325403"><ele>703.0</ele><time>2026-05-01T10:13:51Z</time></trkpt><trkpt lat="45.721552955269075" lon="11.221078214197915"><ele>703.0</ele><time>2026-05-01T10:13:52Z</time></trkpt><trkpt lat="45.721597496014574" lon="11.221160872871817"><ele>703.0</ele><time>2026-05-01T10:13:53Z</time></trkpt><trkpt lat="45.72160071341679" lon="11.221270685535842"><ele>703.0</ele><time>2026-05-01T10:13:54Z</time></trkpt><trkpt lat="45.72155755574506" lon="11.2214125121613"><ele>703.0</ele><time>2026-05-01T10:13:55Z</time></trkpt><trkpt lat="45.72155362694288" lon="11.221566787408793"><ele>696.25</ele><time>2026-05-01T10:13:56Z</time></trkpt><trkpt lat="45.721525965323586" lon="11.221725794922436"><ele>689.5</ele><time>2026-05-01T10:13:57Z</time></trkpt><trkpt lat="45.72150329243295" lon="11.221891307678595"><ele>682.75</ele><time>2026-05-01T10:13:58Z</time></trkpt><trkpt lat="45.72148488305255" lon="11.222063339258943"><ele>676.0</ele><time>2026-05-01T10:13:59Z</time></trkpt><trkpt lat="45.721466633054796" lon="11.222225526962502"><ele>672.8</ele><time>2026-05-01T10:14:00Z</time></trkpt><trkpt lat="45.721452570899345" lon="11.222377185667293"><ele>669.5999999999999</ele><time>2026-05-01T10:14:01Z</time></trkpt><trkpt lat="45.72145326813525" lon="11.222505408680163"><ele>666.4</ele><time>2026-05-01T10:14:02Z</time></trkpt><trkpt lat="45.72147590544769" lon="11.222629357838509"><ele>663.2</ele><time>2026-05-01T10:14:03Z</time></trkpt><trkpt lat="45.72152018082937" lon="11.222751887730164"><ele>660.0</ele><time>2026-05-01T10:14:04Z</time></trkpt><trkpt lat="45.72158623599895" lon="11.222879376940476"><ele>660.0</ele><time>2026-05-01T10:14:05Z</time></trkpt><trkpt lat="45.7216602505" lon="11.223021473862529"><ele>660.0</ele><time>2026-05-01T10:14:06Z</time></trkpt><trkpt lat="45.721742427383944" lon="11.223155866733673"><ele>660.0</ele><time>2026-05-01T10:14:07Z</time></trkpt><trkpt lat="45.721821309282554" lon="11.22327806121483"><ele>660.0</ele><time>2026-05-01T10:14:08Z</time></trkpt><trkpt lat="45.72190830558852" lon="11.223385528543758"><ele>659.0</ele><time>2026-05-01T10:14:09Z</time></trkpt><trkpt lat="45.72199871842627" lon="11.22346839694297"><ele>658.0</ele><time>2026-05-01T10:14:10Z</time></trkpt><trkpt lat="45.72210682117612" lon="11.223536305101678"><ele>657.0</ele><time>2026-05-01T10:14:11Z</time></trkpt><trkpt lat="45.72222733572124" lon="11.22358840847756"><ele>656.0</ele><time>2026-05-01T10:14:12Z</time></trkpt><trkpt lat="45.72236234798113" lon="11.223631417441451"><ele>656.0</ele><time>2026-05-01T10:14:13Z</time></trkpt><trkpt lat="45.722501599482776" lon="11.223666696796728"><ele>656.0</ele><time>2026-05-01T10:14:14Z</time></trkpt><trkpt lat="45.72264634640093" lon="11.223682634617138"><ele>656.0</ele><time>2026-05-01T10:14:15Z</time></trkpt><trkpt lat="45.72279404705635" lon="11.223687878700845"><ele>656.0</ele><time>2026-05-01T10:14:16Z</time></trkpt><trkpt lat="45.72293894709636" lon="11.22369485832221"><ele>657.25</ele><time>2026-05-01T10:14:17Z</time></trkpt><trkpt lat="45.723080477615355" lon="11.223737803244928"><ele>658.5</ele><time>2026-05-01T10:14:18Z</time></trkpt><trkpt lat="45.723217612462065" lon="11.223764694305421"><ele>659.75</ele><time>2026-05-01T10:14:19Z</time></trkpt><trkpt lat="45.72334014935364" lon="11.223779397756"><ele>661.0</ele><time>2026-05-01T10:14:20Z</time></trkpt><trkpt lat="45.72345066523361" lon="11.22381393242926"><ele>661.0</ele><time>2026-05-01T10:14:21Z</time></trkpt><trkpt lat="45.723542586343676" lon="11.223834986251822"><ele>661.0</ele><time>2026-05-01T10:14:22Z</time></trkpt><trkpt lat="45.723631605860234" lon="11.223838685638572"><ele>661.0</ele><time>2026-05-01T10:14:23Z</time></trkpt><trkpt lat="45.72372716181123" lon="11.223813516367201"><ele>661.0</ele><time>2026-05-01T10:14:24Z</time></trkpt><trkpt lat="45.72382471111594" lon="11.223733964912874"><ele>661.0</ele><time>2026-05-01T10:14:25Z</time></trkpt><trkpt lat="45.72391477218515" lon="11.223619900060626"><ele>656.0</ele><time>2026-05-01T10:14:26Z</time></trkpt><trkpt lat="45.72400777634059" lon="11.223501620990744"><ele>651.0</ele><time>2026-05-01T10:14:27Z</time></trkpt><trkpt lat="45.724090808027434" lon="11.22336878767036"><ele>646.0</ele><time>2026-05-01T10:14:28Z</time></trkpt><trkpt lat="45.72418173490336" lon="11.223256626462508"><ele>641.0</ele><time>2026-05-01T10:14:29Z</time></trkpt><trkpt lat="45.7242457049503" lon="11.223154832749133"><ele>642.0</ele><time>2026-05-01T10:14:30Z</time></trkpt><trkpt lat="45.724306413293085" lon="11.223065989570106"><ele>643.0</ele><time>2026-05-01T10:14:31Z</time></trkpt><trkpt lat="45.724362115373495" lon="11.223005556023693"><ele>644.0</ele><time>2026-05-01T10:14:32Z</time></trkpt><trkpt lat="45.724425170433264" lon="11.222974740549565"><ele>645.0</ele><time>2026-05-01T10:14:33Z</time></trkpt><trkpt lat="45.724495805584986" lon="11.222998659402773"><ele>646.0</ele><time>2026-05-01T10:14:34Z</time></trkpt><trkpt lat="45.724551927556206" lon="11.223089617039246"><ele>647.0</ele><time>2026-05-01T10:14:35Z</time></trkpt><trkpt lat="45.72460027243075" lon="11.22321083040342"><ele>644.4</ele><time>2026-05-01T10:14:36Z</time></trkpt><trkpt lat="45.72468285706264" lon="11.223303469579827"><ele>641.8000000000001</ele><time>2026-05-01T10:14:37Z</time></trkpt><trkpt lat="45.72478071150942" lon="11.22335665711906"><ele>639.2</ele><time>2026-05-01T10:14:38Z</time></trkpt><trkpt lat="45.72485813641844" lon="11.223475475695007"><ele>636.6</ele><time>2026-05-01T10:14:39Z</time></trkpt><trkpt lat="45.72494365185525" lon="11.22358396837425"><ele>634.0</ele><time>2026-05-01T10:14:40Z</time></trkpt><trkpt lat="45.72504183593225" lon="11.223687965212104"><ele>634.0</ele><time>2026-05-01T10:14:41Z</time></trkpt><trkpt lat="45.72514333674457" lon="11.22379578650297"><ele>634.0</ele><time>2026-05-01T10:14:42Z</time></trkpt><trkpt lat="45.72524628922489" lon="11.223905148244295"><ele>634.0</ele><time>2026-05-01T10:14:43Z</time></trkpt><trkpt lat="45.72535611312752" lon="11.22401949744686"><ele>634.0</ele><time>2026-05-01T10:14:44Z</time></trkpt><trkpt lat="45.72546030044023" lon="11.224126536536772"><ele>632.25</ele><time>2026-05-01T10:14:45Z</time></trkpt><trkpt lat="45.72557311428384" lon="11.22424110308159"><ele>630.5</ele><time>2026-05-01T10:14:46Z</time></trkpt><trkpt lat="45.72567678182767" lon="11.224347418392233"><ele>628.75</ele><time>2026-05-01T10:14:47Z</time></trkpt><trkpt lat="45.725778733488376" lon="11.224453057334287"><ele>627.0</ele><time>2026-05-01T10:14:48Z</time></trkpt><trkpt lat="45.72587639488124" lon="11.22455670963498"><ele>627.0</ele><time>2026-05-01T10:14:49Z</time></trkpt><trkpt lat="45.72595708023537" lon="11.224645843830318"><ele>627.0</ele><time>2026-05-01T10:14:50Z</time></trkpt><trkpt lat="45.72601131576788" lon="11.224730106664529"><ele>627.0</ele><time>2026-05-01T10:14:51Z</time></trkpt><trkpt lat="45.72604808194883" lon="11.224828038513769"><ele>627.0</ele><time>2026-05-01T10:14:52Z</time></trkpt><trkpt lat="45.72605938579118" lon="11.224924780044347"><ele>627.0</ele><time>2026-05-01T10:14:53Z</time></trkpt><trkpt lat="45.72599333849445" lon="11.225016864488293"><ele>627.0</ele><time>2026-05-01T10:14:54Z</time></trkpt><trkpt lat="45.72588372818293" lon="11.225042756840603"><ele>624.75</ele><time>2026-05-01T10:14:55Z</time></trkpt><trkpt lat="45.72574976779614" lon="11.225040120120523"><ele>622.5</ele><time>2026-05-01T10:14:56Z</time></trkpt><trkpt lat="45.72560195398815" lon="11.225046361459661"><ele>620.25</ele><time>2026-05-01T10:14:57Z</time></trkpt><trkpt lat="45.72544187364887" lon="11.22506867189669"><ele>618.0</ele><time>2026-05-01T10:14:58Z</time></trkpt><trkpt lat="45.72528313880539" lon="11.225089785616984"><ele>616.3333333333334</ele><time>2026-05-01T10:14:59Z</time></trkpt><trkpt lat="45.725116554742726" lon="11.22511416005615"><ele>614.6666666666667</ele><time>2026-05-01T10:15:00Z</time></trkpt><trkpt lat="45.72495242187042" lon="11.225137722373512"><ele>613.0</ele><time>2026-05-01T10:15:01Z</time></trkpt><trkpt lat="45.72480818013467" lon="11.225155410432901"><ele>613.0</ele><time>2026-05-01T10:15:02Z</time></trkpt><trkpt lat="45.72467919552569" lon="11.225166165727735"><ele>613.0</ele><time>2026-05-01T10:15:03Z</time></trkpt><trkpt lat="45.72456338429544" lon="11.225182554325619"><ele>613.0</ele><time>2026-05-01T10:15:04Z</time></trkpt><trkpt lat="45.72445443117238" lon="11.225194463874075"><ele>613.0</ele><time>2026-05-01T10:15:05Z</time></trkpt><trkpt lat="45.72436201701053" lon="11.225211009895439"><ele>613.0</ele><time>2026-05-01T10:15:06Z</time></trkpt><trkpt lat="45.72428098781252" lon="11.225276275445728"><ele>613.0</ele><time>2026-05-01T10:15:07Z</time></trkpt><trkpt lat="45.72422267115733" lon="11.225383119053623"><ele>613.0</ele><time>2026-05-01T10:15:08Z</time></trkpt><trkpt lat="45.724198510902795" lon="11.225521451045372"><ele>613.0</ele><time>2026-05-01T10:15:09Z</time></trkpt><trkpt lat="45.72422865387127" lon="11.225654736389728"><ele>613.0</ele><time>2026-05-01T10:15:10Z</time></trkpt><trkpt lat="45.72431230623702" lon="11.225771519536536"><ele>613.0</ele><time>2026-05-01T10:15:11Z</time></trkpt><trkpt lat="45.724433741381674" lon="11.225882827032"><ele>610.0</ele><time>2026-05-01T10:15:12Z</time></trkpt><trkpt lat="45.724561584296914" lon="11.226015332253697"><ele>607.0</ele><time>2026-05-01T10:15:13Z</time></trkpt><trkpt lat="45.72469154027544" lon="11.226158186637257"><ele>604.0</ele><time>2026-05-01T10:15:14Z</time></trkpt><trkpt lat="45.7248122139375" lon="11.226292552373113"><ele>604.0</ele><time>2026-05-01T10:15:15Z</time></trkpt><trkpt lat="45.72493042361279" lon="11.22642521542796"><ele>604.0</ele><time>2026-05-01T10:15:16Z</time></trkpt><trkpt lat="45.72505310273479" lon="11.226556288554812"><ele>604.0</ele><time>2026-05-01T10:15:17Z</time></trkpt><trkpt lat="45.72517034535645" lon="11.22668342307952"><ele>602.3333333333334</ele><time>2026-05-01T10:15:18Z</time></trkpt><trkpt lat="45.72528053142873" lon="11.226824469145374"><ele>600.6666666666666</ele><time>2026-05-01T10:15:19Z</time></trkpt><trkpt lat="45.72541176585148" lon="11.226961161450774"><ele>599.0</ele><time>2026-05-01T10:15:20Z</time></trkpt><trkpt lat="45.72554169050691" lon="11.227106357009566"><ele>599.0</ele><time>2026-05-01T10:15:21Z</time></trkpt><trkpt lat="45.72566720284384" lon="11.227258838805593"><ele>599.0</ele><time>2026-05-01T10:15:22Z</time></trkpt><trkpt lat="45.725797322718606" lon="11.227401229410965"><ele>599.0</ele><time>2026-05-01T10:15:23Z</time></trkpt><trkpt lat="45.72592177926677" lon="11.227539964244876"><ele>597.0</ele><time>2026-05-01T10:15:24Z</time></trkpt><trkpt lat="45.72604783325065" lon="11.227677986883617"><ele>595.0</ele><time>2026-05-01T10:15:25Z</time></trkpt><trkpt lat="45.726158024794444" lon="11.227799286112509"><ele>593.0</ele><time>2026-05-01T10:15:26Z</time></trkpt><trkpt lat="45.726251788086444" lon="11.227916883093599"><ele>591.0</ele><time>2026-05-01T10:15:27Z</time></trkpt><trkpt lat="45.726344135454774" lon="11.227984635956712"><ele>590.8</ele><time>2026-05-01T10:15:28Z</time></trkpt><trkpt lat="45.72639433139761" lon="11.228074425691187"><ele>590.6</ele><time>2026-05-01T10:15:29Z</time></trkpt><trkpt lat="45.72644639852019" lon="11.228147269804154"><ele>590.4</ele><time>2026-05-01T10:15:30Z</time></trkpt><trkpt lat="45.7264326848516" lon="11.228272831718751"><ele>590.2</ele><time>2026-05-01T10:15:31Z</time></trkpt><trkpt lat="45.72635024641085" lon="11.22839414743384"><ele>590.0</ele><time>2026-05-01T10:15:32Z</time></trkpt><trkpt lat="45.72625345737486" lon="11.228548217193865"><ele>588.75</ele><time>2026-05-01T10:15:33Z</time></trkpt><trkpt lat="45.72614404212894" lon="11.22870660592897"><ele>587.5</ele><time>2026-05-01T10:15:34Z</time></trkpt><trkpt lat="45.7260647089737" lon="11.228846184756879"><ele>586.25</ele><time>2026-05-01T10:15:35Z</time></trkpt><trkpt lat="45.72598438064871" lon="11.228951831305233"><ele>585.0</ele><time>2026-05-01T10:15:36Z</time></trkpt><trkpt lat="45.72594311805862" lon="11.229045419869662"><ele>583.5</ele><time>2026-05-01T10:15:37Z</time></trkpt><trkpt lat="45.725912231829405" lon="11.229144078909721"><ele>582.0</ele><time>2026-05-01T10:15:38Z</time></trkpt><trkpt lat="45.725995692838275" lon="11.22933100247197"><ele>580.5</ele><time>2026-05-01T10:15:40Z</time></trkpt><trkpt lat="45.72609937243602" lon="11.229396664525458"><ele>579.0</ele><time>2026-05-01T10:15:41Z</time></trkpt><trkpt lat="45.726226976892136" lon="11.229444925103367"><ele>579.0</ele><time>2026-05-01T10:15:42Z</time></trkpt><trkpt lat="45.7263689632605" lon="11.229487217339743"><ele>579.0</ele><time>2026-05-01T10:15:43Z</time></trkpt><trkpt lat="45.72651788609869" lon="11.229534645817015"><ele>579.0</ele><time>2026-05-01T10:15:44Z</time></trkpt><trkpt lat="45.72664556470148" lon="11.229577304954315"><ele>579.0</ele><time>2026-05-01T10:15:45Z</time></trkpt><trkpt lat="45.72675056172417" lon="11.22962300055778"><ele>579.0</ele><time>2026-05-01T10:15:46Z</time></trkpt><trkpt lat="45.72684462442799" lon="11.229661178367463"><ele>579.0</ele><time>2026-05-01T10:15:47Z</time></trkpt><trkpt lat="45.72692922550698" lon="11.229726257862891"><ele>579.0</ele><time>2026-05-01T10:15:48Z</time></trkpt><trkpt lat="45.72698434087773" lon="11.229869433509155"><ele>579.0</ele><time>2026-05-01T10:15:49Z</time></trkpt><trkpt lat="45.7270312210946" lon="11.230018895822289"><ele>579.0</ele><time>2026-05-01T10:15:50Z</time></trkpt><trkpt lat="45.72706445120188" lon="11.230158611351408"><ele>576.4</ele><time>2026-05-01T10:15:51Z</time></trkpt><trkpt lat="45.72707485474715" lon="11.230280278279084"><ele>573.8</ele><time>2026-05-01T10:15:52Z</time></trkpt><trkpt lat="45.72703874916171" lon="11.230362030980315"><ele>571.2</ele><time>2026-05-01T10:15:53Z</time></trkpt><trkpt lat="45.72696879078528" lon="11.230456040245686"><ele>568.6</ele><time>2026-05-01T10:15:54Z</time></trkpt><trkpt lat="45.72691071846607" lon="11.230600021827728"><ele>566.0</ele><time>2026-05-01T10:15:55Z</time></trkpt><trkpt lat="45.72682777773318" lon="11.230737365903318"><ele>566.0</ele><time>2026-05-01T10:15:56Z</time></trkpt><trkpt lat="45.72675562624677" lon="11.230858519962572"><ele>566.0</ele><time>2026-05-01T10:15:57Z</time></trkpt><trkpt lat="45.72669649420378" lon="11.230958409840351"><ele>566.0</ele><time>2026-05-01T10:15:57.999Z</time></trkpt><trkpt lat="45.72665558277954" lon="11.231047173693574"><ele>566.0</ele><time>2026-05-01T10:15:58.999Z</time></trkpt><trkpt lat="45.726651157193686" lon="11.231145863210054"><ele>566.0</ele><time>2026-05-01T10:15:59.999Z</time></trkpt><trkpt lat="45.72670125794157" lon="11.231245348006045"><ele>566.0</ele><time>2026-05-01T10:16:00.999Z</time></trkpt><trkpt lat="45.72678783186959" lon="11.231335587767154"><ele>564.6666666666666</ele><time>2026-05-01T10:16:01.999Z</time></trkpt><trkpt lat="45.726913686029675" lon="11.231389050080137"><ele>563.3333333333334</ele><time>2026-05-01T10:16:02.999Z</time></trkpt><trkpt lat="45.727069336876276" lon="11.231419865254395"><ele>562.0</ele><time>2026-05-01T10:16:03.999Z</time></trkpt><trkpt lat="45.72723586346907" lon="11.23144426280647"><ele>561.75</ele><time>2026-05-01T10:16:04.999Z</time></trkpt><trkpt lat="45.72739616971579" lon="11.231478949758719"><ele>561.5</ele><time>2026-05-01T10:16:05.999Z</time></trkpt><trkpt lat="45.727539624132646" lon="11.231516262685776"><ele>561.25</ele><time>2026-05-01T10:16:06.999Z</time></trkpt><trkpt lat="45.72765950997263" lon="11.231537267922514"><ele>561.0</ele><time>2026-05-01T10:16:07.999Z</time></trkpt><trkpt lat="45.727748049188314" lon="11.231566947730135"><ele>555.8</ele><time>2026-05-01T10:16:08.999Z</time></trkpt><trkpt lat="45.72782161174748" lon="11.23157917246388"><ele>550.6</ele><time>2026-05-01T10:16:09.999Z</time></trkpt><trkpt lat="45.727934760274735" lon="11.231671160615313"><ele>545.4</ele><time>2026-05-01T10:16:11.999Z</time></trkpt><trkpt lat="45.72796642808261" lon="11.23177929313602"><ele>540.2</ele><time>2026-05-01T10:16:12.999Z</time></trkpt><trkpt lat="45.72795579822629" lon="11.231902234033765"><ele>535.0</ele><time>2026-05-01T10:16:13.999Z</time></trkpt><trkpt lat="45.7279066969765" lon="11.232017421326336"><ele>535.0</ele><time>2026-05-01T10:16:14.999Z</time></trkpt><trkpt lat="45.72779449189871" lon="11.232086036986276"><ele>535.0</ele><time>2026-05-01T10:16:15.999Z</time></trkpt><trkpt lat="45.72768824315893" lon="11.232185104625177"><ele>535.0</ele><time>2026-05-01T10:16:16.999Z</time></trkpt><trkpt lat="45.72760728041221" lon="11.232271932674648"><ele>535.0</ele><time>2026-05-01T10:16:17.999Z</time></trkpt><trkpt lat="45.72755007552251" lon="11.232326766121437"><ele>535.0</ele><time>2026-05-01T10:16:18.999Z</time></trkpt><trkpt lat="45.72754674986339" lon="11.23245652036227"><ele>535.6</ele><time>2026-05-01T10:16:20.999Z</time></trkpt><trkpt lat="45.727627247913496" lon="11.23256265233078"><ele>536.2</ele><time>2026-05-01T10:16:22.999Z</time></trkpt><trkpt lat="45.72770040977164" lon="11.232585600653387"><ele>536.8</ele><time>2026-05-01T10:16:23.999Z</time></trkpt><trkpt lat="45.727778364721175" lon="11.232566179801232"><ele>537.4</ele><time>2026-05-01T10:16:24.999Z</time></trkpt><trkpt lat="45.72786601181701" lon="11.23253268691817"><ele>538.0</ele><time>2026-05-01T10:16:25.999Z</time></trkpt><trkpt lat="45.72796914509599" lon="11.232502590100378"><ele>538.0</ele><time>2026-05-01T10:16:26.999Z</time></trkpt><trkpt lat="45.728061190599" lon="11.232464920345638"><ele>538.0</ele><time>2026-05-01T10:16:27.999Z</time></trkpt><trkpt lat="45.72814588621417" lon="11.232423846958325"><ele>538.0</ele><time>2026-05-01T10:16:28.999Z</time></trkpt><trkpt lat="45.72822614981543" lon="11.23241188822601"><ele>538.0</ele><time>2026-05-01T10:16:29.999Z</time></trkpt><trkpt lat="45.7282906460754" lon="11.232378098286175"><ele>538.0</ele><time>2026-05-01T10:16:30.999Z</time></trkpt><trkpt lat="45.72836398285516" lon="11.232399578246978"><ele>538.0</ele><time>2026-05-01T10:16:31.999Z</time></trkpt><trkpt lat="45.7284249439196" lon="11.232481908791597"><ele>538.0</ele><time>2026-05-01T10:16:32.999Z</time></trkpt><trkpt lat="45.728456238316895" lon="11.232619876632123"><ele>538.0</ele><time>2026-05-01T10:16:33.999Z</time></trkpt><trkpt lat="45.728450718857864" lon="11.232807767668243"><ele>538.0</ele><time>2026-05-01T10:16:35Z</time></trkpt><trkpt lat="45.72851242883864" lon="11.232978772439889"><ele>538.0</ele><time>2026-05-01T10:16:36Z</time></trkpt><trkpt lat="45.72860398727185" lon="11.233114254536847"><ele>533.25</ele><time>2026-05-01T10:16:37Z</time></trkpt><trkpt lat="45.72870780429059" lon="11.233233621675035"><ele>528.5</ele><time>2026-05-01T10:16:38Z</time></trkpt><trkpt lat="45.728794932093955" lon="11.233358363554245"><ele>523.75</ele><time>2026-05-01T10:16:39Z</time></trkpt><trkpt lat="45.72887175715114" lon="11.233491555224894"><ele>519.0</ele><time>2026-05-01T10:16:40Z</time></trkpt><trkpt lat="45.728928385274905" lon="11.233645081249762"><ele>519.0</ele><time>2026-05-01T10:16:41Z</time></trkpt><trkpt lat="45.72899828652161" lon="11.233828438313633"><ele>519.0</ele><time>2026-05-01T10:16:42Z</time></trkpt><trkpt lat="45.72907931356937" lon="11.234012737461754"><ele>519.0</ele><time>2026-05-01T10:16:43Z</time></trkpt><trkpt lat="45.729148294598595" lon="11.234197033256528"><ele>519.0</ele><time>2026-05-01T10:16:44Z</time></trkpt><trkpt lat="45.72921931937275" lon="11.234356653873958"><ele>520.4</ele><time>2026-05-01T10:16:45Z</time></trkpt><trkpt lat="45.72929078592849" lon="11.234487900177044"><ele>521.8</ele><time>2026-05-01T10:16:46Z</time></trkpt><trkpt lat="45.72935640522675" lon="11.23459806764433"><ele>523.2</ele><time>2026-05-01T10:16:47Z</time></trkpt><trkpt lat="45.72939318741371" lon="11.234706724375817"><ele>524.6</ele><time>2026-05-01T10:16:48Z</time></trkpt><trkpt lat="45.72942611347682" lon="11.234783940231377"><ele>526.0</ele><time>2026-05-01T10:16:49Z</time></trkpt><trkpt lat="45.729410805406566" lon="11.234937507656854"><ele>526.0</ele><time>2026-05-01T10:16:51Z</time></trkpt><trkpt lat="45.72933234342386" lon="11.234956715773064"><ele>526.0</ele><time>2026-05-01T10:16:52Z</time></trkpt><trkpt lat="45.72925427715118" lon="11.23489665386479"><ele>526.0</ele><time>2026-05-01T10:16:53Z</time></trkpt><trkpt lat="45.7291903794846" lon="11.234763702061729"><ele>526.0</ele><time>2026-05-01T10:16:54Z</time></trkpt><trkpt lat="45.72908590677385" lon="11.234662299517204"><ele>526.0</ele><time>2026-05-01T10:16:55Z</time></trkpt><trkpt lat="45.72898258598422" lon="11.234571587336449"><ele>526.0</ele><time>2026-05-01T10:16:56Z</time></trkpt><trkpt lat="45.72889065355859" lon="11.234507436612448"><ele>526.0</ele><time>2026-05-01T10:16:57Z</time></trkpt><trkpt lat="45.72882847600762" lon="11.23437975913541"><ele>526.0</ele><time>2026-05-01T10:16:58Z</time></trkpt><trkpt lat="45.72877402078645" lon="11.234219854157434"><ele>526.0</ele><time>2026-05-01T10:16:59Z</time></trkpt><trkpt lat="45.72870321362318" lon="11.23403628869954"><ele>526.5</ele><time>2026-05-01T10:17:00Z</time></trkpt><trkpt lat="45.72862173839595" lon="11.233870538071592"><ele>527.0</ele><time>2026-05-01T10:17:01Z</time></trkpt><trkpt lat="45.72853531432154" lon="11.23371235943381"><ele>527.5</ele><time>2026-05-01T10:17:02Z</time></trkpt><trkpt lat="45.72845895232979" lon="11.23356805052746"><ele>528.0</ele><time>2026-05-01T10:17:03Z</time></trkpt><trkpt lat="45.728361176202974" lon="11.233439892659513"><ele>528.0</ele><time>2026-05-01T10:17:04Z</time></trkpt><trkpt lat="45.72823681850504" lon="11.23332748774483"><ele>528.0</ele><time>2026-05-01T10:17:05Z</time></trkpt><trkpt lat="45.72808946839863" lon="11.233246412819762"><ele>528.0</ele><time>2026-05-01T10:17:06Z</time></trkpt><trkpt lat="45.72793379069667" lon="11.233185018243452"><ele>528.0</ele><time>2026-05-01T10:17:07Z</time></trkpt><trkpt lat="45.727780194435596" lon="11.23314168096147"><ele>528.0</ele><time>2026-05-01T10:17:08Z</time></trkpt><trkpt lat="45.727639798522546" lon="11.23308611327132"><ele>528.0</ele><time>2026-05-01T10:17:09Z</time></trkpt><trkpt lat="45.72750624336703" lon="11.233003271335363"><ele>528.0</ele><time>2026-05-01T10:17:10Z</time></trkpt><trkpt lat="45.72736848817831" lon="11.232901544739052"><ele>533.6666666666666</ele><time>2026-05-01T10:17:11Z</time></trkpt><trkpt lat="45.72723260683011" lon="11.232798516927664"><ele>539.3333333333333</ele><time>2026-05-01T10:17:12Z</time></trkpt><trkpt lat="45.727095809773836" lon="11.232704837490088"><ele>545.0</ele><time>2026-05-01T10:17:13Z</time></trkpt><trkpt lat="45.726958890676954" lon="11.232623627190094"><ele>538.5</ele><time>2026-05-01T10:17:14Z</time></trkpt><trkpt lat="45.72682438132306" lon="11.232545701200314"><ele>532.0</ele><time>2026-05-01T10:17:15Z</time></trkpt><trkpt lat="45.72669081650511" lon="11.232484020917108"><ele>525.5</ele><time>2026-05-01T10:17:16Z</time></trkpt><trkpt lat="45.7265819311741" lon="11.23241793475054"><ele>519.0</ele><time>2026-05-01T10:17:17Z</time></trkpt><trkpt lat="45.72648957590961" lon="11.2323667579195"><ele>519.0</ele><time>2026-05-01T10:17:18Z</time></trkpt><trkpt lat="45.726416389777185" lon="11.232318288548067"><ele>519.0</ele><time>2026-05-01T10:17:19Z</time></trkpt><trkpt lat="45.726354029461135" lon="11.2322961347429"><ele>519.0</ele><time>2026-05-01T10:17:20Z</time></trkpt><trkpt lat="45.72627379258336" lon="11.232381844100392"><ele>519.0</ele><time>2026-05-01T10:17:22Z</time></trkpt><trkpt lat="45.72629523686827" lon="11.232488378880849"><ele>519.0</ele><time>2026-05-01T10:17:23Z</time></trkpt><trkpt lat="45.726366049251965" lon="11.232560910269482"><ele>519.0</ele><time>2026-05-01T10:17:24Z</time></trkpt><trkpt lat="45.726469977445184" lon="11.232593438501299"><ele>519.0</ele><time>2026-05-01T10:17:25Z</time></trkpt><trkpt lat="45.72660042516021" lon="11.232629898824094"><ele>519.0</ele><time>2026-05-01T10:17:26Z</time></trkpt><trkpt lat="45.726736231530346" lon="11.232707533905263"><ele>519.0</ele><time>2026-05-01T10:17:27Z</time></trkpt><trkpt lat="45.72686828363555" lon="11.232811910645426"><ele>519.0</ele><time>2026-05-01T10:17:28Z</time></trkpt><trkpt lat="45.72700015985015" lon="11.232913065605562"><ele>517.0</ele><time>2026-05-01T10:17:29Z</time></trkpt><trkpt lat="45.72711178707372" lon="11.233017228487231"><ele>515.0</ele><time>2026-05-01T10:17:30Z</time></trkpt><trkpt lat="45.72721130905388" lon="11.233115885160728"><ele>513.0</ele><time>2026-05-01T10:17:31Z</time></trkpt><trkpt lat="45.72728857091501" lon="11.233248761860267"><ele>511.0</ele><time>2026-05-01T10:17:32Z</time></trkpt><trkpt lat="45.72736070858237" lon="11.233387309176251"><ele>511.0</ele><time>2026-05-01T10:17:33Z</time></trkpt><trkpt lat="45.727429850425594" lon="11.233534419879529"><ele>511.0</ele><time>2026-05-01T10:17:34Z</time></trkpt><trkpt lat="45.7275058103818" lon="11.233643627001404"><ele>511.0</ele><time>2026-05-01T10:17:35Z</time></trkpt><trkpt lat="45.72758082944183" lon="11.233753367439"><ele>511.0</ele><time>2026-05-01T10:17:36Z</time></trkpt><trkpt lat="45.72766526438163" lon="11.233841405923666"><ele>511.0</ele><time>2026-05-01T10:17:37Z</time></trkpt><trkpt lat="45.72776325970436" lon="11.233922949872992"><ele>510.75</ele><time>2026-05-01T10:17:38Z</time></trkpt><trkpt lat="45.72787796055908" lon="11.23398607051925"><ele>510.5</ele><time>2026-05-01T10:17:39Z</time></trkpt><trkpt lat="45.727984461210646" lon="11.234109740320427"><ele>510.25</ele><time>2026-05-01T10:17:40Z</time></trkpt><trkpt lat="45.728084132729634" lon="11.234260116771022"><ele>510.0</ele><time>2026-05-01T10:17:41Z</time></trkpt><trkpt lat="45.72819560476172" lon="11.23439500851863"><ele>510.0</ele><time>2026-05-01T10:17:42Z</time></trkpt><trkpt lat="45.72830468526712" lon="11.234529587774507"><ele>510.0</ele><time>2026-05-01T10:17:43Z</time></trkpt><trkpt lat="45.72839971566688" lon="11.234656050448631"><ele>510.0</ele><time>2026-05-01T10:17:44Z</time></trkpt><trkpt lat="45.7284836624803" lon="11.23476949708427"><ele>510.0</ele><time>2026-05-01T10:17:45Z</time></trkpt><trkpt lat="45.728560027452126" lon="11.234907552228009"><ele>511.0</ele><time>2026-05-01T10:17:46Z</time></trkpt><trkpt lat="45.72860975320857" lon="11.235076020792363"><ele>512.0</ele><time>2026-05-01T10:17:47Z</time></trkpt><trkpt lat="45.72867178349825" lon="11.23522992311938"><ele>513.0</ele><time>2026-05-01T10:17:48Z</time></trkpt><trkpt lat="45.72876751700588" lon="11.23538197288397"><ele>514.0</ele><time>2026-05-01T10:17:49Z</time></trkpt><trkpt lat="45.7288681532252" lon="11.235523367955341"><ele>507.25</ele><time>2026-05-01T10:17:50Z</time></trkpt><trkpt lat="45.728964461576595" lon="11.23567628673958"><ele>500.5</ele><time>2026-05-01T10:17:51Z</time></trkpt><trkpt lat="45.72905446159651" lon="11.235830445081152"><ele>493.75</ele><time>2026-05-01T10:17:52Z</time></trkpt><trkpt lat="45.72915449359057" lon="11.23595258805092"><ele>487.0</ele><time>2026-05-01T10:17:53Z</time></trkpt><trkpt lat="45.729263591036094" lon="11.236052391582483"><ele>487.0</ele><time>2026-05-01T10:17:54Z</time></trkpt><trkpt lat="45.72937682986422" lon="11.236121010960437"><ele>487.00000000000006</ele><time>2026-05-01T10:17:55Z</time></trkpt><trkpt lat="45.729473536458556" lon="11.23617743434278"><ele>487.00000000000006</ele><time>2026-05-01T10:17:56Z</time></trkpt><trkpt lat="45.729571420190695" lon="11.236224512361018"><ele>487.0</ele><time>2026-05-01T10:17:57Z</time></trkpt><trkpt lat="45.72967867452464" lon="11.236216226484137"><ele>487.0</ele><time>2026-05-01T10:17:58Z</time></trkpt><trkpt lat="45.72980318626128" lon="11.236150441645393"><ele>487.75</ele><time>2026-05-01T10:17:59Z</time></trkpt><trkpt lat="45.729942763462994" lon="11.236066140579013"><ele>488.5</ele><time>2026-05-01T10:18:00Z</time></trkpt><trkpt lat="45.73008232965024" lon="11.236009376378771"><ele>489.25</ele><time>2026-05-01T10:18:01Z</time></trkpt><trkpt lat="45.73020846743384" lon="11.236008666044944"><ele>490.0</ele><time>2026-05-01T10:18:02Z</time></trkpt><trkpt lat="45.73032068211918" lon="11.236042491807098"><ele>484.75</ele><time>2026-05-01T10:18:03Z</time></trkpt><trkpt lat="45.7304253106269" lon="11.236152467098387"><ele>479.5</ele><time>2026-05-01T10:18:04Z</time></trkpt><trkpt lat="45.730549990627935" lon="11.23621697228529"><ele>474.25</ele><time>2026-05-01T10:18:05Z</time></trkpt><trkpt lat="45.730686972572066" lon="11.236236129099558"><ele>469.0</ele><time>2026-05-01T10:18:06Z</time></trkpt><trkpt lat="45.73082239768775" lon="11.236303307371626"><ele>469.0</ele><time>2026-05-01T10:18:07Z</time></trkpt><trkpt lat="45.730942295626605" lon="11.236402587968408"><ele>469.0</ele><time>2026-05-01T10:18:08Z</time></trkpt><trkpt lat="45.731037336715765" lon="11.23650665034368"><ele>469.0</ele><time>2026-05-01T10:18:09Z</time></trkpt><trkpt lat="45.73111120756576" lon="11.23663128682708"><ele>469.0</ele><time>2026-05-01T10:18:10Z</time></trkpt><trkpt lat="45.731173866168916" lon="11.236769447030381"><ele>464.5</ele><time>2026-05-01T10:18:11Z</time></trkpt><trkpt lat="45.73122215209553" lon="11.23693947059698"><ele>460.0</ele><time>2026-05-01T10:18:12Z</time></trkpt><trkpt lat="45.73129139068473" lon="11.237082361297972"><ele>455.5</ele><time>2026-05-01T10:18:13Z</time></trkpt><trkpt lat="45.731355839415606" lon="11.237224065104934"><ele>451.0</ele><time>2026-05-01T10:18:14Z</time></trkpt><trkpt lat="45.73147139256868" lon="11.237349231710263"><ele>451.0</ele><time>2026-05-01T10:18:15Z</time></trkpt><trkpt lat="45.731585519601865" lon="11.237447295452448"><ele>451.0</ele><time>2026-05-01T10:18:16Z</time></trkpt><trkpt lat="45.73169140779919" lon="11.237556374615364"><ele>451.0</ele><time>2026-05-01T10:18:17Z</time></trkpt><trkpt lat="45.731773966421926" lon="11.2376658996937"><ele>451.0</ele><time>2026-05-01T10:18:18Z</time></trkpt><trkpt lat="45.7318600025741" lon="11.237760523177593"><ele>449.1666666666667</ele><time>2026-05-01T10:18:19Z</time></trkpt><trkpt lat="45.73191580543094" lon="11.237858849475877"><ele>447.33333333333337</ele><time>2026-05-01T10:18:20Z</time></trkpt><trkpt lat="45.731962990509885" lon="11.237939216394063"><ele>445.5</ele><time>2026-05-01T10:18:21Z</time></trkpt><trkpt lat="45.732066672340444" lon="11.23797149104439"><ele>443.66666666666663</ele><time>2026-05-01T10:18:23Z</time></trkpt><trkpt lat="45.73211160104066" lon="11.237877859642452"><ele>441.8333333333333</ele><time>2026-05-01T10:18:24Z</time></trkpt><trkpt lat="45.732122489376586" lon="11.23776689473015"><ele>440.0</ele><time>2026-05-01T10:18:25Z</time></trkpt><trkpt lat="45.73207320034411" lon="11.237640073900039"><ele>440.0</ele><time>2026-05-01T10:18:26Z</time></trkpt><trkpt lat="45.73199042676694" lon="11.237514618966289"><ele>440.0</ele><time>2026-05-01T10:18:27Z</time></trkpt><trkpt lat="45.73189729490635" lon="11.237395322653683"><ele>440.0</ele><time>2026-05-01T10:18:28Z</time></trkpt><trkpt lat="45.73181092522029" lon="11.237266407806255"><ele>440.0</ele><time>2026-05-01T10:18:29Z</time></trkpt><trkpt lat="45.731749878953245" lon="11.237123827520175"><ele>439.0</ele><time>2026-05-01T10:18:30Z</time></trkpt><trkpt lat="45.7316954707357" lon="11.236974860063073"><ele>438.0</ele><time>2026-05-01T10:18:31Z</time></trkpt><trkpt lat="45.73165342792885" lon="11.236823443773078"><ele>437.0</ele><time>2026-05-01T10:18:32Z</time></trkpt><trkpt lat="45.73162454138986" lon="11.23664612065936"><ele>436.0</ele><time>2026-05-01T10:18:33Z</time></trkpt><trkpt lat="45.731603447369224" lon="11.23646752239462"><ele>436.0</ele><time>2026-05-01T10:18:34Z</time></trkpt><trkpt lat="45.7315839161486" lon="11.236294074853307"><ele>436.0</ele><time>2026-05-01T10:18:35Z</time></trkpt><trkpt lat="45.73156373539556" lon="11.236126845441264"><ele>436.0</ele><time>2026-05-01T10:18:36Z</time></trkpt><trkpt lat="45.73152501837292" lon="11.23597928838318"><ele>436.0</ele><time>2026-05-01T10:18:37Z</time></trkpt><trkpt lat="45.73145600542527" lon="11.235820104090573"><ele>436.0</ele><time>2026-05-01T10:18:38Z</time></trkpt><trkpt lat="45.73136219790289" lon="11.235656991815791"><ele>436.0</ele><time>2026-05-01T10:18:39Z</time></trkpt><trkpt lat="45.73127493898791" lon="11.23548396556105"><ele>436.0</ele><time>2026-05-01T10:18:40Z</time></trkpt><trkpt lat="45.73119777507698" lon="11.23530813466931"><ele>436.0</ele><time>2026-05-01T10:18:41Z</time></trkpt><trkpt lat="45.731122186842924" lon="11.235151132970469"><ele>436.75</ele><time>2026-05-01T10:18:42Z</time></trkpt><trkpt lat="45.73103977975788" lon="11.234997391960713"><ele>437.5</ele><time>2026-05-01T10:18:43Z</time></trkpt><trkpt lat="45.730943244514414" lon="11.234853649093008"><ele>438.25</ele><time>2026-05-01T10:18:44Z</time></trkpt><trkpt lat="45.730855655717214" lon="11.234688089413396"><ele>439.0</ele><time>2026-05-01T10:18:45Z</time></trkpt><trkpt lat="45.730800139783675" lon="11.234488553459514"><ele>439.0</ele><time>2026-05-01T10:18:46Z</time></trkpt><trkpt lat="45.73076332632413" lon="11.234279145229806"><ele>439.0</ele><time>2026-05-01T10:18:47Z</time></trkpt><trkpt lat="45.7307347829278" lon="11.23408302772916"><ele>439.0</ele><time>2026-05-01T10:18:48Z</time></trkpt><trkpt lat="45.73069606153789" lon="11.23391865841386"><ele>439.0</ele><time>2026-05-01T10:18:49Z</time></trkpt><trkpt lat="45.73064525131387" lon="11.233756819134058"><ele>440.0</ele><time>2026-05-01T10:18:50Z</time></trkpt><trkpt lat="45.7305679948129" lon="11.23362786785927"><ele>441.0</ele><time>2026-05-01T10:18:51Z</time></trkpt><trkpt lat="45.73047358747667" lon="11.233506841214185"><ele>442.0</ele><time>2026-05-01T10:18:52Z</time></trkpt><trkpt lat="45.73038927220134" lon="11.233381663087556"><ele>443.0</ele><time>2026-05-01T10:18:53Z</time></trkpt><trkpt lat="45.730329364063444" lon="11.233241161860187"><ele>445.99999999999994</ele><time>2026-05-01T10:18:54Z</time></trkpt><trkpt lat="45.73031091270617" lon="11.233104576548286"><ele>449.0</ele><time>2026-05-01T10:18:55Z</time></trkpt><trkpt lat="45.73027863596217" lon="11.233000273678831"><ele>452.0</ele><time>2026-05-01T10:18:56Z</time></trkpt><trkpt lat="45.73028077515458" lon="11.232892968653678"><ele>455.0</ele><time>2026-05-01T10:18:57Z</time></trkpt><trkpt lat="45.73031640731286" lon="11.232790551744749"><ele>457.99999999999994</ele><time>2026-05-01T10:18:58Z</time></trkpt><trkpt lat="45.73037913409952" lon="11.232711761018104"><ele>461.0</ele><time>2026-05-01T10:18:59Z</time></trkpt><trkpt lat="45.730455890626075" lon="11.232691066406606"><ele>461.0</ele><time>2026-05-01T10:19:00Z</time></trkpt><trkpt lat="45.73053986221776" lon="11.232716599693207"><ele>461.0</ele><time>2026-05-01T10:19:01Z</time></trkpt><trkpt lat="45.73062491441086" lon="11.232795948989377"><ele>461.0</ele><time>2026-05-01T10:19:02Z</time></trkpt><trkpt lat="45.73068865145975" lon="11.232943320278608"><ele>461.0</ele><time>2026-05-01T10:19:03Z</time></trkpt><trkpt lat="45.73078830267162" lon="11.23307073992082"><ele>461.0</ele><time>2026-05-01T10:19:04Z</time></trkpt><trkpt lat="45.73088298452172" lon="11.233198807237645"><ele>460.25</ele><time>2026-05-01T10:19:05Z</time></trkpt><trkpt lat="45.73100103341822" lon="11.233295265985632"><ele>459.5</ele><time>2026-05-01T10:19:06Z</time></trkpt><trkpt lat="45.73111098142114" lon="11.233402330972867"><ele>458.75</ele><time>2026-05-01T10:19:07Z</time></trkpt><trkpt lat="45.73118105439065" lon="11.233586499268593"><ele>458.0</ele><time>2026-05-01T10:19:08Z</time></trkpt><trkpt lat="45.73125569690728" lon="11.233791022150507"><ele>450.3333333333333</ele><time>2026-05-01T10:19:09Z</time></trkpt><trkpt lat="45.73135551699322" lon="11.234000045112714"><ele>442.66666666666663</ele><time>2026-05-01T10:19:10Z</time></trkpt><trkpt lat="45.73145091800937" lon="11.234203872321812"><ele>435.0</ele><time>2026-05-01T10:19:11Z</time></trkpt><trkpt lat="45.73155857303653" lon="11.234383904409524"><ele>435.0</ele><time>2026-05-01T10:19:12Z</time></trkpt><trkpt lat="45.73166733687044" lon="11.234532850462786"><ele>435.0</ele><time>2026-05-01T10:19:13Z</time></trkpt><trkpt lat="45.73178394743236" lon="11.23464634807781"><ele>435.0</ele><time>2026-05-01T10:19:14Z</time></trkpt><trkpt lat="45.73192366049657" lon="11.23472618916937"><ele>435.0</ele><time>2026-05-01T10:19:15Z</time></trkpt><trkpt lat="45.732056837071035" lon="11.234829542081586"><ele>436.0</ele><time>2026-05-01T10:19:16Z</time></trkpt><trkpt lat="45.73217524712411" lon="11.234935823477308"><ele>437.0</ele><time>2026-05-01T10:19:17Z</time></trkpt><trkpt lat="45.73226109485015" lon="11.235092637591913"><ele>438.0</ele><time>2026-05-01T10:19:18Z</time></trkpt><trkpt lat="45.73235396385621" lon="11.235291444364913"><ele>439.0</ele><time>2026-05-01T10:19:19Z</time></trkpt><trkpt lat="45.73245217718973" lon="11.235468964925428"><ele>439.0</ele><time>2026-05-01T10:19:20Z</time></trkpt><trkpt lat="45.73253267773623" lon="11.235636558806066"><ele>439.0</ele><time>2026-05-01T10:19:21Z</time></trkpt><trkpt lat="45.73264463798688" lon="11.2357696525547"><ele>439.0</ele><time>2026-05-01T10:19:22Z</time></trkpt><trkpt lat="45.732781065867734" lon="11.235886541429947"><ele>439.0</ele><time>2026-05-01T10:19:23Z</time></trkpt><trkpt lat="45.73291687165119" lon="11.23603092113914"><ele>442.33333333333337</ele><time>2026-05-01T10:19:24Z</time></trkpt><trkpt lat="45.733005295276435" lon="11.236235650473498"><ele>445.66666666666663</ele><time>2026-05-01T10:19:25Z</time></trkpt><trkpt lat="45.73312250855326" lon="11.236395485026838"><ele>449.0</ele><time>2026-05-01T10:19:26Z</time></trkpt><trkpt lat="45.73322849268804" lon="11.236541162902189"><ele>450.25</ele><time>2026-05-01T10:19:27Z</time></trkpt><trkpt lat="45.73334915493977" lon="11.236683248349873"><ele>451.5</ele><time>2026-05-01T10:19:28Z</time></trkpt><trkpt lat="45.733465157235244" lon="11.236793397798202"><ele>452.75</ele><time>2026-05-01T10:19:29Z</time></trkpt><trkpt lat="45.73359731328758" lon="11.236884148930436"><ele>454.0</ele><time>2026-05-01T10:19:30Z</time></trkpt><trkpt lat="45.73373778907344" lon="11.236972759145464"><ele>454.0</ele><time>2026-05-01T10:19:31Z</time></trkpt><trkpt lat="45.73384873153066" lon="11.237095256881386"><ele>454.0</ele><time>2026-05-01T10:19:32Z</time></trkpt><trkpt lat="45.733953708892216" lon="11.237209630614197"><ele>454.0</ele><time>2026-05-01T10:19:33Z</time></trkpt><trkpt lat="45.734037636566285" lon="11.237336484914705"><ele>454.0</ele><time>2026-05-01T10:19:34Z</time></trkpt><trkpt lat="45.7340983229163" lon="11.237502259546982"><ele>445.33333333333337</ele><time>2026-05-01T10:19:35Z</time></trkpt><trkpt lat="45.73413949021688" lon="11.237702082128177"><ele>436.66666666666663</ele><time>2026-05-01T10:19:36Z</time></trkpt><trkpt lat="45.73418852241534" lon="11.237920534107944"><ele>428.0</ele><time>2026-05-01T10:19:37Z</time></trkpt><trkpt lat="45.734223685806064" lon="11.238125921429324"><ele>424.5</ele><time>2026-05-01T10:19:38Z</time></trkpt><trkpt lat="45.734218869166895" lon="11.238331077364146"><ele>421.0</ele><time>2026-05-01T10:19:39Z</time></trkpt><trkpt lat="45.734234481407405" lon="11.23851830434308"><ele>417.5</ele><time>2026-05-01T10:19:40Z</time></trkpt><trkpt lat="45.7342408079848" lon="11.238707944804172"><ele>414.0</ele><time>2026-05-01T10:19:41Z</time></trkpt><trkpt lat="45.73427299085944" lon="11.238882307746513"><ele>412.75</ele><time>2026-05-01T10:19:42Z</time></trkpt><trkpt lat="45.734333199588754" lon="11.239044967771264"><ele>411.5</ele><time>2026-05-01T10:19:43Z</time></trkpt><trkpt lat="45.73442737518351" lon="11.239200689834119"><ele>410.25</ele><time>2026-05-01T10:19:44Z</time></trkpt><trkpt lat="45.734556390529214" lon="11.239358320102033"><ele>409.0</ele><time>2026-05-01T10:19:45Z</time></trkpt><trkpt lat="45.734684919800465" lon="11.239515806614092"><ele>409.0</ele><time>2026-05-01T10:19:46Z</time></trkpt><trkpt lat="45.73481733778046" lon="11.239680029652463"><ele>409.0</ele><time>2026-05-01T10:19:47Z</time></trkpt><trkpt lat="45.73495817708494" lon="11.239841847001545"><ele>409.0</ele><time>2026-05-01T10:19:48Z</time></trkpt><trkpt lat="45.735096474909305" lon="11.239980042687014"><ele>409.0</ele><time>2026-05-01T10:19:49Z</time></trkpt><trkpt lat="45.735219149039324" lon="11.240130685433288"><ele>409.0</ele><time>2026-05-01T10:19:50Z</time></trkpt><trkpt lat="45.73533602003663" lon="11.24027565707643"><ele>409.0</ele><time>2026-05-01T10:19:51Z</time></trkpt><trkpt lat="45.73544336071464" lon="11.240429757184454"><ele>409.75</ele><time>2026-05-01T10:19:52Z</time></trkpt><trkpt lat="45.73555338334307" lon="11.240566545210358"><ele>410.5</ele><time>2026-05-01T10:19:53Z</time></trkpt><trkpt lat="45.735667126623866" lon="11.240695912905837"><ele>411.25</ele><time>2026-05-01T10:19:54Z</time></trkpt><trkpt lat="45.735788856655645" lon="11.240792515152199"><ele>412.0</ele><time>2026-05-01T10:19:55Z</time></trkpt><trkpt lat="45.73590548702589" lon="11.240857018779778"><ele>412.0</ele><time>2026-05-01T10:19:56Z</time></trkpt><trkpt lat="45.735990928641" lon="11.240970535239308"><ele>412.0</ele><time>2026-05-01T10:19:57Z</time></trkpt><trkpt lat="45.73608729002857" lon="11.241097686286112"><ele>412.0</ele><time>2026-05-01T10:19:58Z</time></trkpt><trkpt lat="45.736069933324316" lon="11.241361426156969"><ele>412.0</ele><time>2026-05-01T10:19:59Z</time></trkpt><trkpt lat="45.73602120328906" lon="11.241550004743175"><ele>413.75</ele><time>2026-05-01T10:20:00Z</time></trkpt><trkpt lat="45.736047555711664" lon="11.241702266779178"><ele>415.5</ele><time>2026-05-01T10:20:01Z</time></trkpt><trkpt lat="45.73613323893598" lon="11.241837848864071"><ele>417.25</ele><time>2026-05-01T10:20:02Z</time></trkpt><trkpt lat="45.73624380355304" lon="11.241973812808958"><ele>419.0</ele><time>2026-05-01T10:20:03Z</time></trkpt><trkpt lat="45.73634020464249" lon="11.242137113871031"><ele>419.0</ele><time>2026-05-01T10:20:04Z</time></trkpt><trkpt lat="45.73646826967899" lon="11.242296233247176"><ele>419.0</ele><time>2026-05-01T10:20:05Z</time></trkpt><trkpt lat="45.736591579672776" lon="11.242466059178156"><ele>419.0</ele><time>2026-05-01T10:20:06Z</time></trkpt><trkpt lat="45.736711396571295" lon="11.242634948596432"><ele>420.66666666666663</ele><time>2026-05-01T10:20:07Z</time></trkpt><trkpt lat="45.73682162586859" lon="11.242785873302472"><ele>422.33333333333337</ele><time>2026-05-01T10:20:08Z</time></trkpt><trkpt lat="45.736952350672716" lon="11.242915620154085"><ele>424.0</ele><time>2026-05-01T10:20:09Z</time></trkpt><trkpt lat="45.73710744824759" lon="11.243045846867576"><ele>416.33333333333337</ele><time>2026-05-01T10:20:10Z</time></trkpt><trkpt lat="45.73725083285972" lon="11.24319994768905"><ele>408.66666666666663</ele><time>2026-05-01T10:20:11Z</time></trkpt><trkpt lat="45.73740006984444" lon="11.24332546727976"><ele>401.0</ele><time>2026-05-01T10:20:12Z</time></trkpt><trkpt lat="45.73751367869167" lon="11.243448260935986"><ele>401.0</ele><time>2026-05-01T10:20:13Z</time></trkpt><trkpt lat="45.737614159861415" lon="11.243551362931818"><ele>401.0</ele><time>2026-05-01T10:20:14Z</time></trkpt><trkpt lat="45.73771257072398" lon="11.243641133699695"><ele>401.0</ele><time>2026-05-01T10:20:15Z</time></trkpt><trkpt lat="45.73780963551641" lon="11.243738507805752"><ele>401.0</ele><time>2026-05-01T10:20:16Z</time></trkpt><trkpt lat="45.73790920376164" lon="11.243839887752612"><ele>402.75</ele><time>2026-05-01T10:20:17Z</time></trkpt><trkpt lat="45.738019925805396" lon="11.243938053929696"><ele>404.5</ele><time>2026-05-01T10:20:18Z</time></trkpt><trkpt lat="45.7381326158748" lon="11.2440574267251"><ele>406.25</ele><time>2026-05-01T10:20:19Z</time></trkpt><trkpt lat="45.73824404862355" lon="11.244190539409578"><ele>408.0</ele><time>2026-05-01T10:20:20Z</time></trkpt><trkpt lat="45.738351522902214" lon="11.244365156068165"><ele>408.0</ele><time>2026-05-01T10:20:21Z</time></trkpt><trkpt lat="45.73847357988772" lon="11.244553747333741"><ele>408.0</ele><time>2026-05-01T10:20:22Z</time></trkpt><trkpt lat="45.73860463111897" lon="11.244770416633184"><ele>408.0</ele><time>2026-05-01T10:20:23Z</time></trkpt><trkpt lat="45.738743824702844" lon="11.24499826216235"><ele>408.0</ele><time>2026-05-01T10:20:24Z</time></trkpt><trkpt lat="45.73886880497721" lon="11.245199569257233"><ele>408.0</ele><time>2026-05-01T10:20:25Z</time></trkpt><trkpt lat="45.73898992824676" lon="11.245371178389574"><ele>408.0</ele><time>2026-05-01T10:20:26Z</time></trkpt><trkpt lat="45.73909867466819" lon="11.245546006108194"><ele>403.0</ele><time>2026-05-01T10:20:27Z</time></trkpt><trkpt lat="45.73919288797502" lon="11.245710394933818"><ele>398.0</ele><time>2026-05-01T10:20:28Z</time></trkpt><trkpt lat="45.73929185244124" lon="11.245862768922878"><ele>393.0</ele><time>2026-05-01T10:20:29Z</time></trkpt><trkpt lat="45.73938156074826" lon="11.245999532129545"><ele>388.0</ele><time>2026-05-01T10:20:30Z</time></trkpt><trkpt lat="45.73946229922929" lon="11.246135954662464"><ele>391.25</ele><time>2026-05-01T10:20:31Z</time></trkpt><trkpt lat="45.739544411085824" lon="11.246238983845727"><ele>394.5</ele><time>2026-05-01T10:20:32Z</time></trkpt><trkpt lat="45.7396235976443" lon="11.246341718237177"><ele>397.75</ele><time>2026-05-01T10:20:33Z</time></trkpt><trkpt lat="45.73969371108462" lon="11.246454630204981"><ele>401.0</ele><time>2026-05-01T10:20:34Z</time></trkpt><trkpt lat="45.73978168954799" lon="11.24658891351567"><ele>401.0</ele><time>2026-05-01T10:20:35Z</time></trkpt><trkpt lat="45.73978494657531" lon="11.246832797672576"><ele>401.0</ele><time>2026-05-01T10:20:36Z</time></trkpt><trkpt lat="45.739814560456885" lon="11.247092399051443"><ele>401.0</ele><time>2026-05-01T10:20:37Z</time></trkpt><trkpt lat="45.739840286808" lon="11.24738949189762"><ele>395.3333333333333</ele><time>2026-05-01T10:20:38Z</time></trkpt><trkpt lat="45.739860221633755" lon="11.24769854467524"><ele>389.66666666666663</ele><time>2026-05-01T10:20:39Z</time></trkpt><trkpt lat="45.73985656586097" lon="11.247989714591528"><ele>384.0</ele><time>2026-05-01T10:20:40Z</time></trkpt><trkpt lat="45.73988738930025" lon="11.248254530208742"><ele>383.0</ele><time>2026-05-01T10:20:41Z</time></trkpt><trkpt lat="45.7399113848706" lon="11.248510868858755"><ele>382.0</ele><time>2026-05-01T10:20:42Z</time></trkpt><trkpt lat="45.73994986414648" lon="11.248758754195148"><ele>381.0</ele><time>2026-05-01T10:20:43Z</time></trkpt><trkpt lat="45.73999046776901" lon="11.249009168002642"><ele>381.0</ele><time>2026-05-01T10:20:44Z</time></trkpt><trkpt lat="45.74002896446594" lon="11.249260468999642"><ele>381.0</ele><time>2026-05-01T10:20:45Z</time></trkpt><trkpt lat="45.74006841549697" lon="11.249508177247476"><ele>381.0</ele><time>2026-05-01T10:20:46Z</time></trkpt><trkpt lat="45.74007667016274" lon="11.249768681713624"><ele>381.0</ele><time>2026-05-01T10:20:47Z</time></trkpt><trkpt lat="45.74008538774309" lon="11.250031887464397"><ele>381.0</ele><time>2026-05-01T10:20:48Z</time></trkpt><trkpt lat="45.74008999481617" lon="11.25028036181536"><ele>381.0</ele><time>2026-05-01T10:20:49Z</time></trkpt><trkpt lat="45.74009293140085" lon="11.250499034126182"><ele>382.0</ele><time>2026-05-01T10:20:50Z</time></trkpt><trkpt lat="45.74009333458234" lon="11.250687692175982"><ele>383.0</ele><time>2026-05-01T10:20:51Z</time></trkpt><trkpt lat="45.74008366910731" lon="11.25085881191607"><ele>384.0</ele><time>2026-05-01T10:20:52Z</time></trkpt><trkpt lat="45.74004749219464" lon="11.251027659421336"><ele>385.0</ele><time>2026-05-01T10:20:53Z</time></trkpt><trkpt lat="45.7399572213132" lon="11.251172742664545"><ele>385.0</ele><time>2026-05-01T10:20:54Z</time></trkpt><trkpt lat="45.73985339145505" lon="11.251346389031024"><ele>385.0</ele><time>2026-05-01T10:20:55Z</time></trkpt><trkpt lat="45.73975728869788" lon="11.25151427751382"><ele>385.0</ele><time>2026-05-01T10:20:56Z</time></trkpt><trkpt lat="45.739668079718285" lon="11.251691737048708"><ele>386.6666666666667</ele><time>2026-05-01T10:20:57Z</time></trkpt><trkpt lat="45.73961878070523" lon="11.251886265377488"><ele>388.33333333333337</ele><time>2026-05-01T10:20:58Z</time></trkpt><trkpt lat="45.73957463991639" lon="11.25209262036227"><ele>390.0</ele><time>2026-05-01T10:20:59Z</time></trkpt><trkpt lat="45.739542549263305" lon="11.252313137965169"><ele>390.5</ele><time>2026-05-01T10:21:00Z</time></trkpt><trkpt lat="45.73951309785434" lon="11.252507150199941"><ele>391.0</ele><time>2026-05-01T10:21:01Z</time></trkpt><trkpt lat="45.73945169823025" lon="11.252690787708342"><ele>391.5</ele><time>2026-05-01T10:21:02Z</time></trkpt><trkpt lat="45.73937746951103" lon="11.252899104692265"><ele>392.0</ele><time>2026-05-01T10:21:03Z</time></trkpt><trkpt lat="45.73930886371288" lon="11.253103311895417"><ele>384.66666666666663</ele><time>2026-05-01T10:21:04Z</time></trkpt><trkpt lat="45.73925174043985" lon="11.253317792626722"><ele>377.3333333333333</ele><time>2026-05-01T10:21:05Z</time></trkpt><trkpt lat="45.739213317197155" lon="11.253551630428124"><ele>370.0</ele><time>2026-05-01T10:21:06Z</time></trkpt><trkpt lat="45.739209049287595" lon="11.253807920378216"><ele>367.0</ele><time>2026-05-01T10:21:07Z</time></trkpt><trkpt lat="45.73919916759906" lon="11.25406899546361"><ele>364.0</ele><time>2026-05-01T10:21:08Z</time></trkpt><trkpt lat="45.73918256606818" lon="11.254321051740058"><ele>361.0</ele><time>2026-05-01T10:21:09Z</time></trkpt><trkpt lat="45.73920591641835" lon="11.254559317358893"><ele>359.66666666666663</ele><time>2026-05-01T10:21:10Z</time></trkpt><trkpt lat="45.73921031592793" lon="11.254787768480746"><ele>358.3333333333333</ele><time>2026-05-01T10:21:11Z</time></trkpt><trkpt lat="45.739221054410905" lon="11.255004548723543"><ele>357.0</ele><time>2026-05-01T10:21:12Z</time></trkpt><trkpt lat="45.73924229817633" lon="11.255211951715633"><ele>357.0</ele><time>2026-05-01T10:21:13Z</time></trkpt><trkpt lat="45.73925039893722" lon="11.255404925493334"><ele>357.0</ele><time>2026-05-01T10:21:14Z</time></trkpt><trkpt lat="45.73927859121957" lon="11.255582650747103"><ele>357.0</ele><time>2026-05-01T10:21:15Z</time></trkpt><trkpt lat="45.73933169523607" lon="11.255749802874325"><ele>357.0</ele><time>2026-05-01T10:21:16Z</time></trkpt><trkpt lat="45.73938090082132" lon="11.255957580349255"><ele>363.6666666666667</ele><time>2026-05-01T10:21:17Z</time></trkpt><trkpt lat="45.73945101547607" lon="11.256189126067968"><ele>370.33333333333337</ele><time>2026-05-01T10:21:18Z</time></trkpt><trkpt lat="45.73951178469628" lon="11.256417714823145"><ele>377.0</ele><time>2026-05-01T10:21:19Z</time></trkpt><trkpt lat="45.739584089663424" lon="11.256634967239263"><ele>377.0</ele><time>2026-05-01T10:21:20Z</time></trkpt><trkpt lat="45.73962817389596" lon="11.256837472858283"><ele>377.0</ele><time>2026-05-01T10:21:21Z</time></trkpt><trkpt lat="45.73964054945752" lon="11.257032189514062"><ele>377.0</ele><time>2026-05-01T10:21:22Z</time></trkpt><trkpt lat="45.739620503752306" lon="11.257237183736416"><ele>377.0</ele><time>2026-05-01T10:21:23Z</time></trkpt><trkpt lat="45.7396101180626" lon="11.257443893916625"><ele>374.0</ele><time>2026-05-01T10:21:24Z</time></trkpt><trkpt lat="45.73960199734206" lon="11.257634477129262"><ele>371.0</ele><time>2026-05-01T10:21:25Z</time></trkpt><trkpt lat="45.73960837662468" lon="11.257818601439014"><ele>368.0</ele><time>2026-05-01T10:21:26Z</time></trkpt><trkpt lat="45.739609853502635" lon="11.258000207451303"><ele>365.0</ele><time>2026-05-01T10:21:27Z</time></trkpt><trkpt lat="45.73962545256154" lon="11.258160597772463"><ele>364.0</ele><time>2026-05-01T10:21:28Z</time></trkpt><trkpt lat="45.73964617775861" lon="11.258290550108603"><ele>363.0</ele><time>2026-05-01T10:21:29Z</time></trkpt><trkpt lat="45.73964550925946" lon="11.258416221824541"><ele>362.0</ele><time>2026-05-01T10:21:30Z</time></trkpt><trkpt lat="45.73966124330885" lon="11.258538703936187"><ele>361.0</ele><time>2026-05-01T10:21:31Z</time></trkpt><trkpt lat="45.739675346613595" lon="11.258655785692719"><ele>360.0</ele><time>2026-05-01T10:21:32Z</time></trkpt><trkpt lat="45.739691962897965" lon="11.258793729535313"><ele>359.0</ele><time>2026-05-01T10:21:33Z</time></trkpt><trkpt lat="45.739712485753174" lon="11.258964104619517"><ele>357.5</ele><time>2026-05-01T10:21:34Z</time></trkpt><trkpt lat="45.73975106788302" lon="11.25915044304544"><ele>356.0</ele><time>2026-05-01T10:21:35Z</time></trkpt><trkpt lat="45.739770601421284" lon="11.259331009896835"><ele>354.5</ele><time>2026-05-01T10:21:36Z</time></trkpt><trkpt lat="45.73980527567028" lon="11.25949414207699"><ele>353.0</ele><time>2026-05-01T10:21:37Z</time></trkpt><trkpt lat="45.73984077974954" lon="11.25963904153087"><ele>352.4</ele><time>2026-05-01T10:21:38Z</time></trkpt><trkpt lat="45.73987130629303" lon="11.259785117296676"><ele>351.79999999999995</ele><time>2026-05-01T10:21:39Z</time></trkpt><trkpt lat="45.73987448836664" lon="11.259928318750442"><ele>351.2</ele><time>2026-05-01T10:21:40Z</time></trkpt><trkpt lat="45.739881889403996" lon="11.260072306573631"><ele>350.6</ele><time>2026-05-01T10:21:41Z</time></trkpt><trkpt lat="45.73989800014574" lon="11.260212409433025"><ele>350.0</ele><time>2026-05-01T10:21:42Z</time></trkpt><trkpt lat="45.73989965091622" lon="11.260353649095434"><ele>350.0</ele><time>2026-05-01T10:21:43Z</time></trkpt><trkpt lat="45.73991783641315" lon="11.260483408506985"><ele>350.0</ele><time>2026-05-01T10:21:44Z</time></trkpt><trkpt lat="45.73994642120604" lon="11.26057997530135"><ele>350.0</ele><time>2026-05-01T10:21:45Z</time></trkpt><trkpt lat="45.739972665372235" lon="11.260667203226745"><ele>350.0</ele><time>2026-05-01T10:21:46Z</time></trkpt><trkpt lat="45.73999161265326" lon="11.260831447132015"><ele>350.0</ele><time>2026-05-01T10:21:48Z</time></trkpt><trkpt lat="45.73998594695065" lon="11.260923470185423"><ele>350.0</ele><time>2026-05-01T10:21:49Z</time></trkpt><trkpt lat="45.73997876441298" lon="11.261015788308065"><ele>349.6</ele><time>2026-05-01T10:21:51Z</time></trkpt><trkpt lat="45.73997840535582" lon="11.261131363713597"><ele>349.2</ele><time>2026-05-01T10:21:55Z</time></trkpt><trkpt lat="45.73997812198455" lon="11.261222577058946"><ele>348.79999999999995</ele><time>2026-05-01T10:21:57Z</time></trkpt><trkpt lat="45.73997220679196" lon="11.261436222828115"><ele>348.4</ele><time>2026-05-01T10:21:59Z</time></trkpt><trkpt lat="45.739967805852935" lon="11.261559331513276"><ele>348.0</ele><time>2026-05-01T10:22:00Z</time></trkpt><trkpt lat="45.7399639168893" lon="11.261668118226805"><ele>347.4</ele><time>2026-05-01T10:22:01Z</time></trkpt><trkpt lat="45.73996050548113" lon="11.261763546392237"><ele>346.79999999999995</ele><time>2026-05-01T10:22:02Z</time></trkpt><trkpt lat="45.73995660003337" lon="11.261910140451237"><ele>346.2</ele><time>2026-05-01T10:22:04Z</time></trkpt><trkpt lat="45.73997167679742" lon="11.26203577549691"><ele>345.6</ele><time>2026-05-01T10:22:07Z</time></trkpt><trkpt lat="45.73997734899883" lon="11.262128607196964"><ele>345.0</ele><time>2026-05-01T10:22:11Z</time></trkpt><trkpt lat="45.74011485342098" lon="11.261948763800529"><ele>345.0</ele><time>2026-05-01T10:22:20Z</time></trkpt><trkpt lat="45.740196673059025" lon="11.261759510708352"><ele>345.0</ele><time>2026-05-01T10:22:21Z</time></trkpt><trkpt lat="45.74026940949668" lon="11.261546333009404"><ele>345.0</ele><time>2026-05-01T10:22:22Z</time></trkpt><trkpt lat="45.74037785230901" lon="11.261324969507454"><ele>345.3333333333333</ele><time>2026-05-01T10:22:23Z</time></trkpt><trkpt lat="45.740474703546404" lon="11.261113277882288"><ele>345.66666666666663</ele><time>2026-05-01T10:22:24Z</time></trkpt><trkpt lat="45.74057040290705" lon="11.260931072638634"><ele>346.0</ele><time>2026-05-01T10:22:25Z</time></trkpt><trkpt lat="45.74065914848718" lon="11.260761103011014"><ele>348.25</ele><time>2026-05-01T10:22:26Z</time></trkpt><trkpt lat="45.74074053061765" lon="11.260605531066808"><ele>350.5</ele><time>2026-05-01T10:22:27Z</time></trkpt><trkpt lat="45.74080969488304" lon="11.260470691265434"><ele>352.75</ele><time>2026-05-01T10:22:28Z</time></trkpt><trkpt lat="45.7408767787545" lon="11.260346694643806"><ele>355.0</ele><time>2026-05-01T10:22:29Z</time></trkpt><trkpt lat="45.740947226671615" lon="11.260239156587062"><ele>355.0</ele><time>2026-05-01T10:22:30Z</time></trkpt><trkpt lat="45.74103142191496" lon="11.260159857137882"><ele>355.0</ele><time>2026-05-01T10:22:31Z</time></trkpt><trkpt lat="45.74110273757688" lon="11.260057586880412"><ele>355.0</ele><time>2026-05-01T10:22:32Z</time></trkpt><trkpt lat="45.74120055298997" lon="11.260001494274503"><ele>355.0</ele><time>2026-05-01T10:22:33Z</time></trkpt><trkpt lat="45.74130071933612" lon="11.259933978667146"><ele>355.0</ele><time>2026-05-01T10:22:34Z</time></trkpt><trkpt lat="45.74140181291827" lon="11.259844200197135"><ele>359.75</ele><time>2026-05-01T10:22:35Z</time></trkpt><trkpt lat="45.74151394381525" lon="11.25977970947175"><ele>364.5</ele><time>2026-05-01T10:22:36Z</time></trkpt><trkpt lat="45.74162607795992" lon="11.259713372148711"><ele>369.25</ele><time>2026-05-01T10:22:37Z</time></trkpt><trkpt lat="45.74174049401946" lon="11.259640417743604"><ele>374.0</ele><time>2026-05-01T10:22:38Z</time></trkpt><trkpt lat="45.741854700491615" lon="11.259564897502774"><ele>370.5</ele><time>2026-05-01T10:22:39Z</time></trkpt><trkpt lat="45.74196824407069" lon="11.25948490958096"><ele>367.0</ele><time>2026-05-01T10:22:40Z</time></trkpt><trkpt lat="45.74208347234232" lon="11.259412597801626"><ele>363.5</ele><time>2026-05-01T10:22:41Z</time></trkpt><trkpt lat="45.74220190113182" lon="11.259324078399509"><ele>360.0</ele><time>2026-05-01T10:22:42Z</time></trkpt><trkpt lat="45.74232192569074" lon="11.2592456911204"><ele>360.0</ele><time>2026-05-01T10:22:43Z</time></trkpt><trkpt lat="45.74244075601163" lon="11.259162208168638"><ele>360.0</ele><time>2026-05-01T10:22:44Z</time></trkpt><trkpt lat="45.74256169913577" lon="11.259077857164344"><ele>360.0</ele><time>2026-05-01T10:22:45Z</time></trkpt><trkpt lat="45.742680187272136" lon="11.258983889833603"><ele>360.0</ele><time>2026-05-01T10:22:46Z</time></trkpt><trkpt lat="45.742782931336144" lon="11.258870728399039"><ele>358.5</ele><time>2026-05-01T10:22:47Z</time></trkpt><trkpt lat="45.742868215516886" lon="11.258726728864746"><ele>357.0</ele><time>2026-05-01T10:22:48Z</time></trkpt><trkpt lat="45.742929360130994" lon="11.258561070070932"><ele>355.5</ele><time>2026-05-01T10:22:49Z</time></trkpt><trkpt lat="45.74297981487856" lon="11.258370758943414"><ele>354.0</ele><time>2026-05-01T10:22:50Z</time></trkpt><trkpt lat="45.74303023635529" lon="11.258173242352939"><ele>357.0</ele><time>2026-05-01T10:22:51Z</time></trkpt><trkpt lat="45.743093483726234" lon="11.25795514721352"><ele>360.0</ele><time>2026-05-01T10:22:52Z</time></trkpt><trkpt lat="45.74316833795959" lon="11.257709549405742"><ele>363.0</ele><time>2026-05-01T10:22:53Z</time></trkpt><trkpt lat="45.74326682223601" lon="11.25743599677165"><ele>366.3333333333333</ele><time>2026-05-01T10:22:54Z</time></trkpt><trkpt lat="45.743365083905395" lon="11.25714658475364"><ele>369.66666666666663</ele><time>2026-05-01T10:22:55Z</time></trkpt><trkpt lat="45.74343640909002" lon="11.256846687255935"><ele>373.0</ele><time>2026-05-01T10:22:56Z</time></trkpt><trkpt lat="45.743486339858826" lon="11.256579364796304"><ele>371.3333333333333</ele><time>2026-05-01T10:22:57Z</time></trkpt><trkpt lat="45.743548536214895" lon="11.256348951152182"><ele>369.6666666666667</ele><time>2026-05-01T10:22:58Z</time></trkpt><trkpt lat="45.74362798973793" lon="11.256152237925667"><ele>368.0</ele><time>2026-05-01T10:22:59Z</time></trkpt><trkpt lat="45.743678869546216" lon="11.25595944348735"><ele>368.0</ele><time>2026-05-01T10:23:00Z</time></trkpt><trkpt lat="45.743683585003765" lon="11.255765292013825"><ele>368.0</ele><time>2026-05-01T10:23:01Z</time></trkpt><trkpt lat="45.74363612510276" lon="11.255531546752376"><ele>368.0</ele><time>2026-05-01T10:23:02Z</time></trkpt><trkpt lat="45.74356028715976" lon="11.255273763181222"><ele>375.5</ele><time>2026-05-01T10:23:03Z</time></trkpt><trkpt lat="45.74347325218707" lon="11.25498147172904"><ele>383.0</ele><time>2026-05-01T10:23:04Z</time></trkpt><trkpt lat="45.74343502674815" lon="11.254658153908435"><ele>383.0</ele><time>2026-05-01T10:23:05Z</time></trkpt><trkpt lat="45.74342292810545" lon="11.254315550840023"><ele>383.0</ele><time>2026-05-01T10:23:06Z</time></trkpt><trkpt lat="45.74338104690401" lon="11.253982694943696"><ele>383.5</ele><time>2026-05-01T10:23:07Z</time></trkpt><trkpt lat="45.743330097431844" lon="11.25364729601818"><ele>384.0</ele><time>2026-05-01T10:23:08Z</time></trkpt><trkpt lat="45.743322151662646" lon="11.253322495570535"><ele>386.0</ele><time>2026-05-01T10:23:09Z</time></trkpt><trkpt lat="45.743328887580844" lon="11.253020264214781"><ele>388.0</ele><time>2026-05-01T10:23:10Z</time></trkpt><trkpt lat="45.743357576687366" lon="11.252714859598031"><ele>390.0</ele><time>2026-05-01T10:23:11Z</time></trkpt><trkpt lat="45.74340191386046" lon="11.252415735006702"><ele>390.0</ele><time>2026-05-01T10:23:12Z</time></trkpt><trkpt lat="45.74341969859813" lon="11.252140447637233"><ele>390.0</ele><time>2026-05-01T10:23:13Z</time></trkpt><trkpt lat="45.74343309506669" lon="11.251865657445324"><ele>390.0</ele><time>2026-05-01T10:23:14Z</time></trkpt><trkpt lat="45.74350315612806" lon="11.251592693536491"><ele>386.3333333333333</ele><time>2026-05-01T10:23:15Z</time></trkpt><trkpt lat="45.74358493673115" lon="11.251316104646477"><ele>382.66666666666663</ele><time>2026-05-01T10:23:16Z</time></trkpt><trkpt lat="45.743665769923375" lon="11.251063535180558"><ele>379.0</ele><time>2026-05-01T10:23:17Z</time></trkpt><trkpt lat="45.74373159789437" lon="11.250816211537071"><ele>381.3333333333333</ele><time>2026-05-01T10:23:18Z</time></trkpt><trkpt lat="45.74380653550657" lon="11.25058478968952"><ele>383.66666666666663</ele><time>2026-05-01T10:23:19Z</time></trkpt><trkpt lat="45.74387610292233" lon="11.25035484232733"><ele>386.0</ele><time>2026-05-01T10:23:20Z</time></trkpt><trkpt lat="45.74393874759684" lon="11.250100826767405"><ele>386.0</ele><time>2026-05-01T10:23:21Z</time></trkpt><trkpt lat="45.74399010231414" lon="11.249849510753869"><ele>386.0</ele><time>2026-05-01T10:23:22Z</time></trkpt><trkpt lat="45.744026894059814" lon="11.249600645837994"><ele>386.0</ele><time>2026-05-01T10:23:23Z</time></trkpt><trkpt lat="45.7440590168571" lon="11.249360054672467"><ele>387.66666666666663</ele><time>2026-05-01T10:23:24Z</time></trkpt><trkpt lat="45.74409294668945" lon="11.249135696083302"><ele>389.33333333333337</ele><time>2026-05-01T10:23:25Z</time></trkpt><trkpt lat="45.744124912061125" lon="11.248929374271286"><ele>391.0</ele><time>2026-05-01T10:23:26Z</time></trkpt><trkpt lat="45.74415374278449" lon="11.248728263802713"><ele>391.5</ele><time>2026-05-01T10:23:27Z</time></trkpt><trkpt lat="45.74418601233047" lon="11.248547085570767"><ele>392.0</ele><time>2026-05-01T10:23:28Z</time></trkpt><trkpt lat="45.74421349011501" lon="11.24837154844519"><ele>392.5</ele><time>2026-05-01T10:23:29Z</time></trkpt><trkpt lat="45.74423181481986" lon="11.248208051016922"><ele>393.0</ele><time>2026-05-01T10:23:30Z</time></trkpt><trkpt lat="45.74424492977479" lon="11.248036274483761"><ele>394.0</ele><time>2026-05-01T10:23:31Z</time></trkpt><trkpt lat="45.74423552468832" lon="11.247857989873673"><ele>395.0</ele><time>2026-05-01T10:23:32Z</time></trkpt><trkpt lat="45.744208076738126" lon="11.24767105932105"><ele>396.0</ele><time>2026-05-01T10:23:33Z</time></trkpt><trkpt lat="45.74417213840102" lon="11.247497491439255"><ele>397.0</ele><time>2026-05-01T10:23:34Z</time></trkpt><trkpt lat="45.744120368579374" lon="11.24734191382968"><ele>397.25</ele><time>2026-05-01T10:23:35Z</time></trkpt><trkpt lat="45.744068159780795" lon="11.247195009687733"><ele>397.5</ele><time>2026-05-01T10:23:36Z</time></trkpt><trkpt lat="45.74401579764895" lon="11.24705059600767"><ele>397.75</ele><time>2026-05-01T10:23:37Z</time></trkpt><trkpt lat="45.7439713725193" lon="11.246903678191229"><ele>398.0</ele><time>2026-05-01T10:23:38Z</time></trkpt><trkpt lat="45.743938048078306" lon="11.246744168690102"><ele>398.0</ele><time>2026-05-01T10:23:39Z</time></trkpt><trkpt lat="45.74392706692122" lon="11.246566357965648"><ele>398.0</ele><time>2026-05-01T10:23:40Z</time></trkpt><trkpt lat="45.74393288501653" lon="11.246360505841096"><ele>398.0</ele><time>2026-05-01T10:23:41Z</time></trkpt><trkpt lat="45.74393790403637" lon="11.246131870467153"><ele>398.0</ele><time>2026-05-01T10:23:42Z</time></trkpt><trkpt lat="45.74392967256429" lon="11.245876789524408"><ele>398.3333333333333</ele><time>2026-05-01T10:23:43Z</time></trkpt><trkpt lat="45.74390493376816" lon="11.24562223052896"><ele>398.66666666666663</ele><time>2026-05-01T10:23:44Z</time></trkpt><trkpt lat="45.74386030467144" lon="11.245387063525978"><ele>399.0</ele><time>2026-05-01T10:23:45Z</time></trkpt><trkpt lat="45.74384997556359" lon="11.245143392749153"><ele>399.0</ele><time>2026-05-01T10:23:46Z</time></trkpt><trkpt lat="45.74384631857283" lon="11.244880973435023"><ele>399.0</ele><time>2026-05-01T10:23:47Z</time></trkpt><trkpt lat="45.74385351311633" lon="11.244583311452018"><ele>399.0</ele><time>2026-05-01T10:23:48Z</time></trkpt><trkpt lat="45.7438450666322" lon="11.244304513507986"><ele>399.0</ele><time>2026-05-01T10:23:49Z</time></trkpt><trkpt lat="45.743854747809145" lon="11.244052691757254"><ele>399.0</ele><time>2026-05-01T10:23:50Z</time></trkpt><trkpt lat="45.74383250333135" lon="11.243807728809093"><ele>399.0</ele><time>2026-05-01T10:23:51Z</time></trkpt><trkpt lat="45.74378853921151" lon="11.243583023184991"><ele>399.33333333333337</ele><time>2026-05-01T10:23:52Z</time></trkpt><trkpt lat="45.74374326184576" lon="11.2433596071878"><ele>399.6666666666667</ele><time>2026-05-01T10:23:53Z</time></trkpt><trkpt lat="45.74374797220253" lon="11.243128785914218"><ele>400.0</ele><time>2026-05-01T10:23:54Z</time></trkpt><trkpt lat="45.74380053288716" lon="11.242891466117673"><ele>401.0</ele><time>2026-05-01T10:23:55Z</time></trkpt><trkpt lat="45.74386454191564" lon="11.242652059999646"><ele>402.0</ele><time>2026-05-01T10:23:56Z</time></trkpt><trkpt lat="45.7439223271407" lon="11.24240082179086"><ele>403.0</ele><time>2026-05-01T10:23:57Z</time></trkpt><trkpt lat="45.74398664525981" lon="11.242149364555475"><ele>404.33333333333337</ele><time>2026-05-01T10:23:58Z</time></trkpt><trkpt lat="45.74403953243178" lon="11.241888203966617"><ele>405.66666666666663</ele><time>2026-05-01T10:23:59Z</time></trkpt><trkpt lat="45.7440791799892" lon="11.24163482931304"><ele>407.0</ele><time>2026-05-01T10:24:00Z</time></trkpt><trkpt lat="45.744124421952804" lon="11.241394051474241"><ele>407.0</ele><time>2026-05-01T10:24:01Z</time></trkpt><trkpt lat="45.7441735708219" lon="11.241141493152746"><ele>407.0</ele><time>2026-05-01T10:24:02Z</time></trkpt><trkpt lat="45.744221116145226" lon="11.240905206461205"><ele>407.0</ele><time>2026-05-01T10:24:03Z</time></trkpt><trkpt lat="45.74426598566627" lon="11.240681825991564"><ele>407.66666666666663</ele><time>2026-05-01T10:24:04Z</time></trkpt><trkpt lat="45.74430886692332" lon="11.240476268467486"><ele>408.33333333333337</ele><time>2026-05-01T10:24:05Z</time></trkpt><trkpt lat="45.744353272363405" lon="11.240265045299466"><ele>409.0</ele><time>2026-05-01T10:24:06Z</time></trkpt><trkpt lat="45.74442479925785" lon="11.240078220654752"><ele>409.0</ele><time>2026-05-01T10:24:07Z</time></trkpt><trkpt lat="45.744501470034535" lon="11.239905360368015"><ele>409.0</ele><time>2026-05-01T10:24:08Z</time></trkpt><trkpt lat="45.74457765325667" lon="11.239750386671133"><ele>409.0</ele><time>2026-05-01T10:24:09Z</time></trkpt><trkpt lat="45.74463574405722" lon="11.23959850192018"><ele>409.0</ele><time>2026-05-01T10:24:10Z</time></trkpt><trkpt lat="45.74468510729207" lon="11.239443001635756"><ele>409.25</ele><time>2026-05-01T10:24:11Z</time></trkpt><trkpt lat="45.74470986119406" lon="11.239264063992715"><ele>409.5</ele><time>2026-05-01T10:24:12Z</time></trkpt><trkpt lat="45.74472130970747" lon="11.23908425733259"><ele>409.75</ele><time>2026-05-01T10:24:13Z</time></trkpt><trkpt lat="45.74473335809465" lon="11.238920805557854"><ele>410.0</ele><time>2026-05-01T10:24:14Z</time></trkpt><trkpt lat="45.74475222246005" lon="11.238761774294671"><ele>410.75</ele><time>2026-05-01T10:24:15Z</time></trkpt><trkpt lat="45.744814700670744" lon="11.238624282439329"><ele>411.5</ele><time>2026-05-01T10:24:16Z</time></trkpt><trkpt lat="45.74488397440236" lon="11.238495293860584"><ele>412.25</ele><time>2026-05-01T10:24:17Z</time></trkpt><trkpt lat="45.74498425777678" lon="11.238401028830953"><ele>413.0</ele><time>2026-05-01T10:24:18Z</time></trkpt><trkpt lat="45.74510686968537" lon="11.238309918923562"><ele>413.5</ele><time>2026-05-01T10:24:19Z</time></trkpt><trkpt lat="45.745224783915155" lon="11.238197871816288"><ele>414.0</ele><time>2026-05-01T10:24:20Z</time></trkpt><trkpt lat="45.745343351611886" lon="11.238100480763753"><ele>414.5</ele><time>2026-05-01T10:24:21Z</time></trkpt><trkpt lat="45.74545538128958" lon="11.237987220355087"><ele>415.0</ele><time>2026-05-01T10:24:22Z</time></trkpt><trkpt lat="45.745567381986696" lon="11.23785445774688"><ele>415.75</ele><time>2026-05-01T10:24:23Z</time></trkpt><trkpt lat="45.745679752314075" lon="11.237720617261346"><ele>416.5</ele><time>2026-05-01T10:24:24Z</time></trkpt><trkpt lat="45.745795997634715" lon="11.237589520748552"><ele>417.25</ele><time>2026-05-01T10:24:25Z</time></trkpt><trkpt lat="45.745931281986266" lon="11.237501812577023"><ele>418.0</ele><time>2026-05-01T10:24:26Z</time></trkpt><trkpt lat="45.746078743803764" lon="11.237401520444807"><ele>425.6666666666667</ele><time>2026-05-01T10:24:27Z</time></trkpt><trkpt lat="45.746236340352745" lon="11.237277525426585"><ele>433.33333333333337</ele><time>2026-05-01T10:24:28Z</time></trkpt><trkpt lat="45.74640352675078" lon="11.237172430513727"><ele>441.0</ele><time>2026-05-01T10:24:29Z</time></trkpt><trkpt lat="45.74656493886061" lon="11.237060740343596"><ele>441.0</ele><time>2026-05-01T10:24:30Z</time></trkpt><trkpt lat="45.74673600131323" lon="11.236932997643592"><ele>441.0</ele><time>2026-05-01T10:24:31Z</time></trkpt><trkpt lat="45.74691550665433" lon="11.236889925535477"><ele>441.0</ele><time>2026-05-01T10:24:32Z</time></trkpt><trkpt lat="45.7470993119149" lon="11.23688079003034"><ele>442.0</ele><time>2026-05-01T10:24:33Z</time></trkpt><trkpt lat="45.74728972655732" lon="11.236877667826796"><ele>443.0</ele><time>2026-05-01T10:24:34Z</time></trkpt><trkpt lat="45.74747832651396" lon="11.23691851084603"><ele>444.0</ele><time>2026-05-01T10:24:35Z</time></trkpt><trkpt lat="45.747653171873004" lon="11.236937224872058"><ele>441.0</ele><time>2026-05-01T10:24:36Z</time></trkpt><trkpt lat="45.74781384556368" lon="11.236916792735153"><ele>438.0</ele><time>2026-05-01T10:24:37Z</time></trkpt><trkpt lat="45.74797021901143" lon="11.236827472735037"><ele>435.0</ele><time>2026-05-01T10:24:38Z</time></trkpt><trkpt lat="45.74812081392334" lon="11.236703732760928"><ele>435.0</ele><time>2026-05-01T10:24:39Z</time></trkpt><trkpt lat="45.7482821991821" lon="11.236567044293274"><ele>435.0</ele><time>2026-05-01T10:24:40Z</time></trkpt><trkpt lat="45.74845290725188" lon="11.23643679573641"><ele>435.0</ele><time>2026-05-01T10:24:41Z</time></trkpt><trkpt lat="45.748614392765006" lon="11.236318638941652"><ele>437.33333333333337</ele><time>2026-05-01T10:24:42Z</time></trkpt><trkpt lat="45.748756752323956" lon="11.236215444298692"><ele>439.6666666666667</ele><time>2026-05-01T10:24:43Z</time></trkpt><trkpt lat="45.74888486344033" lon="11.236086760589973"><ele>442.0</ele><time>2026-05-01T10:24:44Z</time></trkpt><trkpt lat="45.74900961024187" lon="11.235903961778236"><ele>442.0</ele><time>2026-05-01T10:24:45Z</time></trkpt><trkpt lat="45.74910768342229" lon="11.235652392382695"><ele>442.0</ele><time>2026-05-01T10:24:46Z</time></trkpt><trkpt lat="45.74920552748063" lon="11.235393769530518"><ele>442.0</ele><time>2026-05-01T10:24:47Z</time></trkpt><trkpt lat="45.74929360860978" lon="11.23515761285771"><ele>443.0</ele><time>2026-05-01T10:24:48Z</time></trkpt><trkpt lat="45.749377365986675" lon="11.234942929553448"><ele>444.0</ele><time>2026-05-01T10:24:49Z</time></trkpt><trkpt lat="45.749454952828266" lon="11.234735067108994"><ele>445.0</ele><time>2026-05-01T10:24:50Z</time></trkpt><trkpt lat="45.74953657333776" lon="11.234535123297034"><ele>445.0</ele><time>2026-05-01T10:24:51Z</time></trkpt><trkpt lat="45.7496294736201" lon="11.234359290929287"><ele>445.0</ele><time>2026-05-01T10:24:52Z</time></trkpt><trkpt lat="45.7497156866948" lon="11.234168841251833"><ele>445.0</ele><time>2026-05-01T10:24:53Z</time></trkpt><trkpt lat="45.74977584993251" lon="11.23392135025587"><ele>446.6666666666667</ele><time>2026-05-01T10:24:54Z</time></trkpt><trkpt lat="45.749809705946575" lon="11.233624681479155"><ele>448.33333333333337</ele><time>2026-05-01T10:24:55Z</time></trkpt><trkpt lat="45.74983877378312" lon="11.233299025773707"><ele>450.0</ele><time>2026-05-01T10:24:56Z</time></trkpt><trkpt lat="45.7498699593776" lon="11.232966615276002"><ele>453.5</ele><time>2026-05-01T10:24:57Z</time></trkpt><trkpt lat="45.749922433860505" lon="11.232618573914797"><ele>457.0</ele><time>2026-05-01T10:24:58Z</time></trkpt><trkpt lat="45.749969039568946" lon="11.232241368632307"><ele>461.0</ele><time>2026-05-01T10:24:59Z</time></trkpt><trkpt lat="45.750018450203235" lon="11.231853938512618"><ele>465.0</ele><time>2026-05-01T10:25:00Z</time></trkpt><trkpt lat="45.75005637379788" lon="11.231469372186059"><ele>469.0</ele><time>2026-05-01T10:25:01Z</time></trkpt><trkpt lat="45.75010659142868" lon="11.231129691286435"><ele>473.0</ele><time>2026-05-01T10:25:02Z</time></trkpt><trkpt lat="45.75016521677484" lon="11.230807972162399"><ele>472.0</ele><time>2026-05-01T10:25:03Z</time></trkpt><trkpt lat="45.75023780495923" lon="11.23049167142882"><ele>471.0</ele><time>2026-05-01T10:25:04Z</time></trkpt><trkpt lat="45.75033650672692" lon="11.230179694708113"><ele>471.0</ele><time>2026-05-01T10:25:05Z</time></trkpt><trkpt lat="45.75044601186889" lon="11.229864456551203"><ele>471.0</ele><time>2026-05-01T10:25:06Z</time></trkpt><trkpt lat="45.750543280486596" lon="11.229537930854077"><ele>474.5</ele><time>2026-05-01T10:25:07Z</time></trkpt><trkpt lat="45.750631471880574" lon="11.229203006767325"><ele>478.0</ele><time>2026-05-01T10:25:08Z</time></trkpt><trkpt lat="45.75072545460757" lon="11.228876397872222"><ele>484.0</ele><time>2026-05-01T10:25:09Z</time></trkpt><trkpt lat="45.75083497175578" lon="11.22856699121372"><ele>490.0</ele><time>2026-05-01T10:25:10Z</time></trkpt><trkpt lat="45.75094111796222" lon="11.228279910280609"><ele>487.6666666666667</ele><time>2026-05-01T10:25:11Z</time></trkpt><trkpt lat="45.75104658775744" lon="11.228018004121639"><ele>485.33333333333337</ele><time>2026-05-01T10:25:12Z</time></trkpt><trkpt lat="45.75117779595172" lon="11.227755172794566"><ele>483.0</ele><time>2026-05-01T10:25:13Z</time></trkpt><trkpt lat="45.75133432036392" lon="11.227518566677833"><ele>488.0</ele><time>2026-05-01T10:25:14Z</time></trkpt><trkpt lat="45.75148875837061" lon="11.227268000054812"><ele>493.0</ele><time>2026-05-01T10:25:15Z</time></trkpt><trkpt lat="45.751678198267626" lon="11.227045084658284"><ele>493.0</ele><time>2026-05-01T10:25:16Z</time></trkpt><trkpt lat="45.75184788005919" lon="11.226806948781352"><ele>493.0</ele><time>2026-05-01T10:25:17Z</time></trkpt><trkpt lat="45.75201547648187" lon="11.226577539890059"><ele>493.33333333333337</ele><time>2026-05-01T10:25:18Z</time></trkpt><trkpt lat="45.7521785382979" lon="11.226350644864171"><ele>493.66666666666663</ele><time>2026-05-01T10:25:19Z</time></trkpt><trkpt lat="45.752333826134" lon="11.226125131560536"><ele>494.0</ele><time>2026-05-01T10:25:20Z</time></trkpt><trkpt lat="45.7524865244422" lon="11.225897555658419"><ele>494.0</ele><time>2026-05-01T10:25:21Z</time></trkpt><trkpt lat="45.7526444942107" lon="11.225671834652289"><ele>494.0</ele><time>2026-05-01T10:25:22Z</time></trkpt><trkpt lat="45.75280363519772" lon="11.225448896950484"><ele>494.0</ele><time>2026-05-01T10:25:23Z</time></trkpt><trkpt lat="45.75296388882202" lon="11.225235668698227"><ele>495.0</ele><time>2026-05-01T10:25:24Z</time></trkpt><trkpt lat="45.75312316155307" lon="11.225031206792584"><ele>496.0</ele><time>2026-05-01T10:25:25Z</time></trkpt><trkpt lat="45.753272494025495" lon="11.224854030583135"><ele>497.0</ele><time>2026-05-01T10:25:26Z</time></trkpt><trkpt lat="45.75341220444862" lon="11.224691989277272"><ele>500.3333333333333</ele><time>2026-05-01T10:25:27Z</time></trkpt><trkpt lat="45.753533343610115" lon="11.224513273033766"><ele>503.66666666666663</ele><time>2026-05-01T10:25:28Z</time></trkpt><trkpt lat="45.75363913398559" lon="11.22429159902216"><ele>507.0</ele><time>2026-05-01T10:25:29Z</time></trkpt><trkpt lat="45.75372354907329" lon="11.224051649085446"><ele>507.66666666666663</ele><time>2026-05-01T10:25:30Z</time></trkpt><trkpt lat="45.753780101734066" lon="11.223798061962851"><ele>508.3333333333333</ele><time>2026-05-01T10:25:31Z</time></trkpt><trkpt lat="45.753806838840816" lon="11.22352566011619"><ele>509.0</ele><time>2026-05-01T10:25:32Z</time></trkpt><trkpt lat="45.75383149557362" lon="11.223247024343424"><ele>511.66666666666663</ele><time>2026-05-01T10:25:33Z</time></trkpt><trkpt lat="45.75388878157792" lon="11.22297914057381"><ele>514.3333333333334</ele><time>2026-05-01T10:25:34Z</time></trkpt><trkpt lat="45.7539832840687" lon="11.222716810988265"><ele>517.0</ele><time>2026-05-01T10:25:35Z</time></trkpt><trkpt lat="45.754096207656616" lon="11.22247453516207"><ele>519.3333333333334</ele><time>2026-05-01T10:25:36Z</time></trkpt><trkpt lat="45.75418388430434" lon="11.22221477860341"><ele>521.6666666666666</ele><time>2026-05-01T10:25:37Z</time></trkpt><trkpt lat="45.754271212116436" lon="11.22195239764819"><ele>524.0</ele><time>2026-05-01T10:25:38Z</time></trkpt><trkpt lat="45.754365555997595" lon="11.221719208515907"><ele>523.6666666666666</ele><time>2026-05-01T10:25:39Z</time></trkpt><trkpt lat="45.75444540158177" lon="11.22151363114304"><ele>523.3333333333334</ele><time>2026-05-01T10:25:40Z</time></trkpt><trkpt lat="45.75453190522607" lon="11.221325780343314"><ele>523.0</ele><time>2026-05-01T10:25:41Z</time></trkpt><trkpt lat="45.75464842453466" lon="11.221159433755508"><ele>527.3333333333334</ele><time>2026-05-01T10:25:42Z</time></trkpt><trkpt lat="45.754798670630336" lon="11.221002446413138"><ele>531.6666666666666</ele><time>2026-05-01T10:25:43Z</time></trkpt><trkpt lat="45.75493910958475" lon="11.220837266214868"><ele>536.0</ele><time>2026-05-01T10:25:44Z</time></trkpt><trkpt lat="45.755051520650035" lon="11.22069989033217"><ele>538.25</ele><time>2026-05-01T10:25:45Z</time></trkpt><trkpt lat="45.75513594532672" lon="11.220568845720114"><ele>540.5</ele><time>2026-05-01T10:25:46Z</time></trkpt><trkpt lat="45.75517329696798" lon="11.220407781210048"><ele>542.75</ele><time>2026-05-01T10:25:47Z</time></trkpt><trkpt lat="45.75516141091087" lon="11.220197156885195"><ele>545.0</ele><time>2026-05-01T10:25:48Z</time></trkpt><trkpt lat="45.755115309052" lon="11.2199601880942"><ele>548.25</ele><time>2026-05-01T10:25:49Z</time></trkpt><trkpt lat="45.75505953374837" lon="11.219745333099388"><ele>551.5</ele><time>2026-05-01T10:25:50Z</time></trkpt><trkpt lat="45.754978617892284" lon="11.21956141856174"><ele>554.75</ele><time>2026-05-01T10:25:51Z</time></trkpt><trkpt lat="45.75487176073763" lon="11.219445145053918"><ele>558.0</ele><time>2026-05-01T10:25:52Z</time></trkpt><trkpt lat="45.75476926547762" lon="11.219369067879596"><ele>558.0</ele><time>2026-05-01T10:25:53Z</time></trkpt><trkpt lat="45.754722030153815" lon="11.219260171327864"><ele>558.0</ele><time>2026-05-01T10:25:54Z</time></trkpt><trkpt lat="45.75474180915337" lon="11.219108048207595"><ele>558.0</ele><time>2026-05-01T10:25:55Z</time></trkpt><trkpt lat="45.75481827502516" lon="11.218950590397906"><ele>558.0</ele><time>2026-05-01T10:25:56Z</time></trkpt><trkpt lat="45.7549186074323" lon="11.218793239576069"><ele>560.25</ele><time>2026-05-01T10:25:57Z</time></trkpt><trkpt lat="45.75498786940882" lon="11.21862888506386"><ele>562.5</ele><time>2026-05-01T10:25:58Z</time></trkpt><trkpt lat="45.75502340693554" lon="11.218473732162522"><ele>564.75</ele><time>2026-05-01T10:25:59Z</time></trkpt><trkpt lat="45.755063436158025" lon="11.21831532629398"><ele>567.0</ele><time>2026-05-01T10:26:00Z</time></trkpt><trkpt lat="45.755106746683126" lon="11.218146402651643"><ele>567.75</ele><time>2026-05-01T10:26:01Z</time></trkpt><trkpt lat="45.7551509926173" lon="11.21796972376888"><ele>568.5</ele><time>2026-05-01T10:26:02Z</time></trkpt><trkpt lat="45.75515953077314" lon="11.217767461795638"><ele>569.25</ele><time>2026-05-01T10:26:03Z</time></trkpt><trkpt lat="45.75514741072143" lon="11.217565899288315"><ele>570.0</ele><time>2026-05-01T10:26:04Z</time></trkpt><trkpt lat="45.75514058539888" lon="11.21737358130323"><ele>571.25</ele><time>2026-05-01T10:26:05Z</time></trkpt><trkpt lat="45.75514348290014" lon="11.21718897553558"><ele>572.5</ele><time>2026-05-01T10:26:06Z</time></trkpt><trkpt lat="45.75514619090859" lon="11.217030122294615"><ele>573.75</ele><time>2026-05-01T10:26:07Z</time></trkpt><trkpt lat="45.75514980793366" lon="11.216869154647847"><ele>575.0</ele><time>2026-05-01T10:26:08Z</time></trkpt><trkpt lat="45.75515090495755" lon="11.216702148218905"><ele>575.0</ele><time>2026-05-01T10:26:09Z</time></trkpt><trkpt lat="45.755148102262645" lon="11.216538573536699"><ele>575.0</ele><time>2026-05-01T10:26:10Z</time></trkpt><trkpt lat="45.755151750004735" lon="11.216368910732585"><ele>575.0</ele><time>2026-05-01T10:26:11Z</time></trkpt><trkpt lat="45.75516290192501" lon="11.216196155471987"><ele>575.0</ele><time>2026-05-01T10:26:12Z</time></trkpt><trkpt lat="45.75517822320181" lon="11.21601156477698"><ele>575.0</ele><time>2026-05-01T10:26:13Z</time></trkpt><trkpt lat="45.755207474382395" lon="11.215819365138051"><ele>575.0</ele><time>2026-05-01T10:26:14Z</time></trkpt><trkpt lat="45.755246993600366" lon="11.215610636389096"><ele>575.0</ele><time>2026-05-01T10:26:15Z</time></trkpt><trkpt lat="45.755296160532914" lon="11.215406778463814"><ele>575.0</ele><time>2026-05-01T10:26:16Z</time></trkpt><trkpt lat="45.75534400177543" lon="11.215223386163375"><ele>575.6</ele><time>2026-05-01T10:26:17Z</time></trkpt><trkpt lat="45.75538358268584" lon="11.21506203163895"><ele>576.2</ele><time>2026-05-01T10:26:18Z</time></trkpt><trkpt lat="45.75542114087105" lon="11.214912902388425"><ele>576.8</ele><time>2026-05-01T10:26:19Z</time></trkpt><trkpt lat="45.755455955207765" lon="11.21478551148722"><ele>577.4</ele><time>2026-05-01T10:26:20Z</time></trkpt><trkpt lat="45.75548993770998" lon="11.214683704955313"><ele>578.0</ele><time>2026-05-01T10:26:21Z</time></trkpt><trkpt lat="45.75552682252703" lon="11.21458720497394"><ele>580.8</ele><time>2026-05-01T10:26:22Z</time></trkpt><trkpt lat="45.755491841749084" lon="11.214436079570474"><ele>583.5999999999999</ele><time>2026-05-01T10:26:24Z</time></trkpt><trkpt lat="45.75542115013094" lon="11.214430561111971"><ele>586.4000000000001</ele><time>2026-05-01T10:26:25Z</time></trkpt><trkpt lat="45.755353732294076" lon="11.214503664923503"><ele>589.2</ele><time>2026-05-01T10:26:26Z</time></trkpt><trkpt lat="45.755293105692715" lon="11.214633444253918"><ele>592.0</ele><time>2026-05-01T10:26:27Z</time></trkpt><trkpt lat="45.75522559908872" lon="11.214778218677315"><ele>592.3333333333334</ele><time>2026-05-01T10:26:28Z</time></trkpt><trkpt lat="45.75515185734609" lon="11.214932503227239"><ele>592.6666666666666</ele><time>2026-05-01T10:26:29Z</time></trkpt><trkpt lat="45.75507298906142" lon="11.215132638135959"><ele>593.0</ele><time>2026-05-01T10:26:30Z</time></trkpt><trkpt lat="45.75496242359439" lon="11.215355458868135"><ele>593.0</ele><time>2026-05-01T10:26:31Z</time></trkpt><trkpt lat="45.75484801369144" lon="11.2155960052635"><ele>593.0</ele><time>2026-05-01T10:26:32Z</time></trkpt><trkpt lat="45.75476012352297" lon="11.215841683934837"><ele>593.0</ele><time>2026-05-01T10:26:33Z</time></trkpt><trkpt lat="45.75468644776272" lon="11.216062427924477"><ele>591.1999999999999</ele><time>2026-05-01T10:26:34Z</time></trkpt><trkpt lat="45.754616448952746" lon="11.216265563145527"><ele>589.4</ele><time>2026-05-01T10:26:35Z</time></trkpt><trkpt lat="45.75456276309973" lon="11.216429579987848"><ele>587.5999999999999</ele><time>2026-05-01T10:26:36Z</time></trkpt><trkpt lat="45.75452052397783" lon="11.216549730603518"><ele>585.8</ele><time>2026-05-01T10:26:37Z</time></trkpt><trkpt lat="45.75447800795658" lon="11.216617959119166"><ele>584.0</ele><time>2026-05-01T10:26:38Z</time></trkpt><trkpt lat="45.75437465127415" lon="11.216525800713233"><ele>584.0</ele><time>2026-05-01T10:26:40Z</time></trkpt><trkpt lat="45.754375865908735" lon="11.21639759473918"><ele>584.0</ele><time>2026-05-01T10:26:41Z</time></trkpt><trkpt lat="45.754409987106335" lon="11.216234701617799"><ele>584.0</ele><time>2026-05-01T10:26:42Z</time></trkpt><trkpt lat="45.75445092787104" lon="11.216033836008913"><ele>584.0</ele><time>2026-05-01T10:26:43Z</time></trkpt><trkpt lat="45.754482703658496" lon="11.215787022228321"><ele>587.0</ele><time>2026-05-01T10:26:44Z</time></trkpt><trkpt lat="45.754508193823796" lon="11.215506080819072"><ele>590.0</ele><time>2026-05-01T10:26:45Z</time></trkpt><trkpt lat="45.754536213260856" lon="11.215200328082307"><ele>593.0</ele><time>2026-05-01T10:26:46Z</time></trkpt><trkpt lat="45.75456640151399" lon="11.214911205980718"><ele>598.3333333333333</ele><time>2026-05-01T10:26:47Z</time></trkpt><trkpt lat="45.7545940026502" lon="11.214648096202678"><ele>603.6666666666666</ele><time>2026-05-01T10:26:48Z</time></trkpt><trkpt lat="45.75463342285096" lon="11.21441165524956"><ele>609.0</ele><time>2026-05-01T10:26:49Z</time></trkpt><trkpt lat="45.75469142368303" lon="11.214192914862489"><ele>609.0</ele><time>2026-05-01T10:26:50Z</time></trkpt><trkpt lat="45.754765699232664" lon="11.213992777988784"><ele>609.0</ele><time>2026-05-01T10:26:51Z</time></trkpt><trkpt lat="45.75486211546574" lon="11.21381878489394"><ele>609.0</ele><time>2026-05-01T10:26:52Z</time></trkpt><trkpt lat="45.7549900481816" lon="11.213653256154668"><ele>614.3333333333334</ele><time>2026-05-01T10:26:53Z</time></trkpt><trkpt lat="45.75514794983107" lon="11.213525904043154"><ele>619.6666666666667</ele><time>2026-05-01T10:26:54Z</time></trkpt><trkpt lat="45.755304283380156" lon="11.213443733199066"><ele>625.0</ele><time>2026-05-01T10:26:55Z</time></trkpt><trkpt lat="45.75543421508975" lon="11.213363785419798"><ele>625.0</ele><time>2026-05-01T10:26:56Z</time></trkpt><trkpt lat="45.755547427995495" lon="11.21323614411911"><ele>625.0</ele><time>2026-05-01T10:26:57Z</time></trkpt><trkpt lat="45.75566037597489" lon="11.213072889935214"><ele>625.0</ele><time>2026-05-01T10:26:58Z</time></trkpt><trkpt lat="45.755770158041365" lon="11.21287414027903"><ele>627.5</ele><time>2026-05-01T10:26:59Z</time></trkpt><trkpt lat="45.75590296707577" lon="11.21274790101441"><ele>630.0</ele><time>2026-05-01T10:27:00Z</time></trkpt><trkpt lat="45.75601106245707" lon="11.21263865837221"><ele>632.5</ele><time>2026-05-01T10:27:01Z</time></trkpt><trkpt lat="45.75611938093714" lon="11.212574991054323"><ele>635.0</ele><time>2026-05-01T10:27:02Z</time></trkpt><trkpt lat="45.75621689127149" lon="11.212507556184441"><ele>635.0</ele><time>2026-05-01T10:27:03Z</time></trkpt><trkpt lat="45.756306363279805" lon="11.21239837697124"><ele>635.0</ele><time>2026-05-01T10:27:04Z</time></trkpt><trkpt lat="45.756379166047346" lon="11.21230224470159"><ele>635.0</ele><time>2026-05-01T10:27:05Z</time></trkpt><trkpt lat="45.75644934051658" lon="11.212227594102707"><ele>635.0</ele><time>2026-05-01T10:27:06Z</time></trkpt><trkpt lat="45.756519682279084" lon="11.212126111800757"><ele>635.0</ele><time>2026-05-01T10:27:07Z</time></trkpt><trkpt lat="45.75658568153271" lon="11.212006092534718"><ele>640.5</ele><time>2026-05-01T10:27:08Z</time></trkpt><trkpt lat="45.75666607868953" lon="11.211902346769806"><ele>646.0</ele><time>2026-05-01T10:27:09Z</time></trkpt><trkpt lat="45.75677215831891" lon="11.21181965583567"><ele>651.5</ele><time>2026-05-01T10:27:10Z</time></trkpt><trkpt lat="45.756920446171726" lon="11.211742368452633"><ele>657.0</ele><time>2026-05-01T10:27:11Z</time></trkpt><trkpt lat="45.75710939808075" lon="11.21167159132134"><ele>657.0</ele><time>2026-05-01T10:27:12Z</time></trkpt><trkpt lat="45.75731796653112" lon="11.211599228350337"><ele>657.0</ele><time>2026-05-01T10:27:13Z</time></trkpt><trkpt lat="45.7575158558866" lon="11.211532106889253"><ele>657.0</ele><time>2026-05-01T10:27:14Z</time></trkpt><trkpt lat="45.757706026789165" lon="11.211410152209693"><ele>662.3333333333334</ele><time>2026-05-01T10:27:15Z</time></trkpt><trkpt lat="45.7578768359356" lon="11.211257862094406"><ele>667.6666666666667</ele><time>2026-05-01T10:27:16Z</time></trkpt><trkpt lat="45.75802414002761" lon="11.211112890125117"><ele>673.0</ele><time>2026-05-01T10:27:17Z</time></trkpt><trkpt lat="45.75814253367545" lon="11.21098393928538"><ele>673.0</ele><time>2026-05-01T10:27:18Z</time></trkpt><trkpt lat="45.75827034936177" lon="11.210915286393506"><ele>673.0</ele><time>2026-05-01T10:27:19Z</time></trkpt><trkpt lat="45.75841239250689" lon="11.210912590723103"><ele>673.0</ele><time>2026-05-01T10:27:20Z</time></trkpt><trkpt lat="45.75854409489607" lon="11.210855199420653"><ele>673.0</ele><time>2026-05-01T10:27:21Z</time></trkpt><trkpt lat="45.75865466195787" lon="11.210719615020112"><ele>669.25</ele><time>2026-05-01T10:27:22Z</time></trkpt><trkpt lat="45.758730497823905" lon="11.210567062293041"><ele>665.5</ele><time>2026-05-01T10:27:23Z</time></trkpt><trkpt lat="45.758792365405114" lon="11.21042510513424"><ele>661.75</ele><time>2026-05-01T10:27:24Z</time></trkpt><trkpt lat="45.75881409181832" lon="11.210255207093208"><ele>658.0</ele><time>2026-05-01T10:27:25Z</time></trkpt><trkpt lat="45.758805639828886" lon="11.210021280782438"><ele>662.6666666666667</ele><time>2026-05-01T10:27:26Z</time></trkpt><trkpt lat="45.758799055765344" lon="11.209746378922103"><ele>667.3333333333334</ele><time>2026-05-01T10:27:27Z</time></trkpt><trkpt lat="45.758803097654905" lon="11.209448036721165"><ele>672.0</ele><time>2026-05-01T10:27:28Z</time></trkpt><trkpt lat="45.75881828294186" lon="11.209158298453758"><ele>675.5</ele><time>2026-05-01T10:27:29Z</time></trkpt><trkpt lat="45.758844305087" lon="11.208925091497937"><ele>679.0</ele><time>2026-05-01T10:27:30Z</time></trkpt><trkpt lat="45.75887134403385" lon="11.20873139015295"><ele>682.5</ele><time>2026-05-01T10:27:31Z</time></trkpt><trkpt lat="45.75893015364794" lon="11.208555331195555"><ele>686.0</ele><time>2026-05-01T10:27:32Z</time></trkpt><trkpt lat="45.75904404823969" lon="11.208369863799918"><ele>690.0</ele><time>2026-05-01T10:27:33Z</time></trkpt><trkpt lat="45.75916874612543" lon="11.208146042873096"><ele>694.0</ele><time>2026-05-01T10:27:34Z</time></trkpt><trkpt lat="45.75929421737884" lon="11.207909850364363"><ele>698.0</ele><time>2026-05-01T10:27:35Z</time></trkpt><trkpt lat="45.75938392096738" lon="11.207652084554883"><ele>696.0</ele><time>2026-05-01T10:27:36Z</time></trkpt><trkpt lat="45.75946613557483" lon="11.207409893640493"><ele>694.0</ele><time>2026-05-01T10:27:37Z</time></trkpt><trkpt lat="45.75952207518333" lon="11.207145910140966"><ele>692.0</ele><time>2026-05-01T10:27:38Z</time></trkpt><trkpt lat="45.75956725585356" lon="11.206898829767875"><ele>692.0</ele><time>2026-05-01T10:27:39Z</time></trkpt><trkpt lat="45.759613348389294" lon="11.206697132793105"><ele>692.0</ele><time>2026-05-01T10:27:40Z</time></trkpt><trkpt lat="45.75965835988194" lon="11.206520231068934"><ele>692.0</ele><time>2026-05-01T10:27:41Z</time></trkpt><trkpt lat="45.75965943846871" lon="11.206343525308078"><ele>692.0</ele><time>2026-05-01T10:27:42Z</time></trkpt><trkpt lat="45.759606719254364" lon="11.206152137743606"><ele>695.0</ele><time>2026-05-01T10:27:43Z</time></trkpt><trkpt lat="45.759515794358805" lon="11.205953332260549"><ele>698.0</ele><time>2026-05-01T10:27:44Z</time></trkpt><trkpt lat="45.75947097996568" lon="11.205758720864877"><ele>701.0</ele><time>2026-05-01T10:27:45Z</time></trkpt><trkpt lat="45.75945299196153" lon="11.205585704426916"><ele>704.0</ele><time>2026-05-01T10:27:46Z</time></trkpt><trkpt lat="45.759544569277104" lon="11.205414151263538"><ele>708.3333333333333</ele><time>2026-05-01T10:27:47Z</time></trkpt><trkpt lat="45.75965235233455" lon="11.205226748530519"><ele>712.6666666666666</ele><time>2026-05-01T10:27:48Z</time></trkpt><trkpt lat="45.75978161150498" lon="11.205047028748417"><ele>717.0</ele><time>2026-05-01T10:27:49Z</time></trkpt><trkpt lat="45.75988412999608" lon="11.204900526434995"><ele>720.3333333333334</ele><time>2026-05-01T10:27:50Z</time></trkpt><trkpt lat="45.759970889232626" lon="11.204810922917297"><ele>723.6666666666666</ele><time>2026-05-01T10:27:51Z</time></trkpt><trkpt lat="45.76003095248305" lon="11.204733751929524"><ele>727.0</ele><time>2026-05-01T10:27:52Z</time></trkpt><trkpt lat="45.76005468992679" lon="11.204636086028064"><ele>730.3333333333333</ele><time>2026-05-01T10:27:53Z</time></trkpt><trkpt lat="45.76004291609572" lon="11.204544479166017"><ele>733.6666666666666</ele><time>2026-05-01T10:27:54Z</time></trkpt><trkpt lat="45.759934084638985" lon="11.204508601730968"><ele>737.0</ele><time>2026-05-01T10:27:55Z</time></trkpt><trkpt lat="45.75983169467711" lon="11.20456313182923"><ele>737.0</ele><time>2026-05-01T10:27:56Z</time></trkpt><trkpt lat="45.75972197210617" lon="11.204692065398978"><ele>737.0</ele><time>2026-05-01T10:27:57Z</time></trkpt><trkpt lat="45.75959399172364" lon="11.204861305149416"><ele>737.0</ele><time>2026-05-01T10:27:58Z</time></trkpt><trkpt lat="45.75944092384431" lon="11.2050556065523"><ele>737.0</ele><time>2026-05-01T10:27:59Z</time></trkpt><trkpt lat="45.75927256327553" lon="11.205266685763657"><ele>737.0</ele><time>2026-05-01T10:28:00Z</time></trkpt><trkpt lat="45.75909491926554" lon="11.205495055048276"><ele>730.6666666666666</ele><time>2026-05-01T10:28:01Z</time></trkpt><trkpt lat="45.75892961826095" lon="11.205709857842297"><ele>724.3333333333334</ele><time>2026-05-01T10:28:02Z</time></trkpt><trkpt lat="45.7587733561029" lon="11.205908582976702"><ele>718.0</ele><time>2026-05-01T10:28:03Z</time></trkpt><trkpt lat="45.758603709414366" lon="11.206089897185489"><ele>722.3333333333334</ele><time>2026-05-01T10:28:04Z</time></trkpt><trkpt lat="45.75846380277792" lon="11.206255247744107"><ele>726.6666666666666</ele><time>2026-05-01T10:28:05Z</time></trkpt><trkpt lat="45.75835615307275" lon="11.206413551563687"><ele>731.0</ele><time>2026-05-01T10:28:06Z</time></trkpt><trkpt lat="45.758249351142275" lon="11.206512066727107"><ele>731.0</ele><time>2026-05-01T10:28:07Z</time></trkpt><trkpt lat="45.75818376487439" lon="11.20658867347656"><ele>731.0</ele><time>2026-05-01T10:28:08Z</time></trkpt><trkpt lat="45.7581004451709" lon="11.20649127132604"><ele>731.0</ele><time>2026-05-01T10:28:10Z</time></trkpt><trkpt lat="45.75812170641936" lon="11.206359118760698"><ele>731.0</ele><time>2026-05-01T10:28:11Z</time></trkpt><trkpt lat="45.75821756933365" lon="11.206277368436528"><ele>731.0</ele><time>2026-05-01T10:28:12Z</time></trkpt><trkpt lat="45.75832290960788" lon="11.20616788724157"><ele>733.0</ele><time>2026-05-01T10:28:13Z</time></trkpt><trkpt lat="45.75841583488202" lon="11.206016243125037"><ele>735.0</ele><time>2026-05-01T10:28:14Z</time></trkpt><trkpt lat="45.758515822811106" lon="11.20582563097079"><ele>737.0</ele><time>2026-05-01T10:28:15Z</time></trkpt><trkpt lat="45.75861239095827" lon="11.205617077675418"><ele>737.0</ele><time>2026-05-01T10:28:16Z</time></trkpt><trkpt lat="45.758704369741416" lon="11.205418840636"><ele>737.0</ele><time>2026-05-01T10:28:17Z</time></trkpt><trkpt lat="45.7587964124175" lon="11.205210412241275"><ele>737.0</ele><time>2026-05-01T10:28:18Z</time></trkpt><trkpt lat="45.75889280344366" lon="11.204998585221123"><ele>748.3333333333333</ele><time>2026-05-01T10:28:19Z</time></trkpt><trkpt lat="45.758990540275384" lon="11.204788896695687"><ele>759.6666666666666</ele><time>2026-05-01T10:28:20Z</time></trkpt><trkpt lat="45.759095383982284" lon="11.204582375809675"><ele>771.0</ele><time>2026-05-01T10:28:21Z</time></trkpt><trkpt lat="45.75923366899393" lon="11.20442531451043"><ele>768.3333333333334</ele><time>2026-05-01T10:28:22Z</time></trkpt><trkpt lat="45.759374129045845" lon="11.204258423993709"><ele>765.6666666666667</ele><time>2026-05-01T10:28:23Z</time></trkpt><trkpt lat="45.75951336194328" lon="11.204064660074263"><ele>763.0</ele><time>2026-05-01T10:28:24Z</time></trkpt><trkpt lat="45.75966304342127" lon="11.203886045948312"><ele>763.0</ele><time>2026-05-01T10:28:25Z</time></trkpt><trkpt lat="45.75980649165639" lon="11.203687556947774"><ele>763.0</ele><time>2026-05-01T10:28:26Z</time></trkpt><trkpt lat="45.75993003334476" lon="11.20346526171086"><ele>763.0</ele><time>2026-05-01T10:28:27Z</time></trkpt><trkpt lat="45.760038204604164" lon="11.203252037470016"><ele>760.3333333333334</ele><time>2026-05-01T10:28:28Z</time></trkpt><trkpt lat="45.76012577166732" lon="11.203053334415577"><ele>757.6666666666666</ele><time>2026-05-01T10:28:29Z</time></trkpt><trkpt lat="45.76018826934474" lon="11.202835479136894"><ele>755.0</ele><time>2026-05-01T10:28:30Z</time></trkpt><trkpt lat="45.76022906349587" lon="11.202571552907056"><ele>757.3333333333333</ele><time>2026-05-01T10:28:31Z</time></trkpt><trkpt lat="45.760259742685825" lon="11.202288867281249"><ele>759.6666666666666</ele><time>2026-05-01T10:28:32Z</time></trkpt><trkpt lat="45.7603192122717" lon="11.202020513661708"><ele>762.0</ele><time>2026-05-01T10:28:33Z</time></trkpt><trkpt lat="45.76037733749828" lon="11.201785993547455"><ele>762.0</ele><time>2026-05-01T10:28:34Z</time></trkpt><trkpt lat="45.760381889861485" lon="11.201549812812504"><ele>762.0</ele><time>2026-05-01T10:28:35Z</time></trkpt><trkpt lat="45.760361206489804" lon="11.201296468617546"><ele>762.0</ele><time>2026-05-01T10:28:36Z</time></trkpt><trkpt lat="45.76035999019766" lon="11.201069880860391"><ele>766.3333333333333</ele><time>2026-05-01T10:28:37Z</time></trkpt><trkpt lat="45.760438112500424" lon="11.200891202182063"><ele>770.6666666666666</ele><time>2026-05-01T10:28:38Z</time></trkpt><trkpt lat="45.760507783441106" lon="11.200672712373004"><ele>775.0</ele><time>2026-05-01T10:28:39Z</time></trkpt><trkpt lat="45.76057157279022" lon="11.200439042155145"><ele>779.3333333333333</ele><time>2026-05-01T10:28:40Z</time></trkpt><trkpt lat="45.76060343185416" lon="11.20016533468584"><ele>783.6666666666667</ele><time>2026-05-01T10:28:41Z</time></trkpt><trkpt lat="45.760597972714365" lon="11.199879790630362"><ele>788.0</ele><time>2026-05-01T10:28:42Z</time></trkpt><trkpt lat="45.76064998595476" lon="11.199643134544988"><ele>790.0</ele><time>2026-05-01T10:28:43Z</time></trkpt><trkpt lat="45.76072131617693" lon="11.19946111435344"><ele>792.0</ele><time>2026-05-01T10:28:44Z</time></trkpt><trkpt lat="45.76081374400813" lon="11.199300616336247"><ele>794.0</ele><time>2026-05-01T10:28:45Z</time></trkpt><trkpt lat="45.760930680729295" lon="11.199179175350745"><ele>796.0</ele><time>2026-05-01T10:28:46Z</time></trkpt><trkpt lat="45.76106815401581" lon="11.199107445363376"><ele>802.1999999999999</ele><time>2026-05-01T10:28:47Z</time></trkpt><trkpt lat="45.76114515032267" lon="11.19904289357526"><ele>808.4</ele><time>2026-05-01T10:28:48Z</time></trkpt><trkpt lat="45.76117659459676" lon="11.198927746850144"><ele>814.6</ele><time>2026-05-01T10:28:49Z</time></trkpt><trkpt lat="45.76115771358073" lon="11.198778812449921"><ele>820.8</ele><time>2026-05-01T10:28:50Z</time></trkpt><trkpt lat="45.76111957578411" lon="11.198628425696226"><ele>827.0</ele><time>2026-05-01T10:28:51Z</time></trkpt><trkpt lat="45.7610713464426" lon="11.198525649289916"><ele>823.25</ele><time>2026-05-01T10:28:52Z</time></trkpt><trkpt lat="45.760983679597025" lon="11.198475300481089"><ele>819.5</ele><time>2026-05-01T10:28:53Z</time></trkpt><trkpt lat="45.760868177655425" lon="11.198503390892222"><ele>815.75</ele><time>2026-05-01T10:28:54Z</time></trkpt><trkpt lat="45.76075258472304" lon="11.198609791187698"><ele>812.0</ele><time>2026-05-01T10:28:55Z</time></trkpt><trkpt lat="45.76063644401195" lon="11.198778641505344"><ele>812.0</ele><time>2026-05-01T10:28:56Z</time></trkpt><trkpt lat="45.76051789572331" lon="11.198952724956914"><ele>812.0</ele><time>2026-05-01T10:28:57Z</time></trkpt><trkpt lat="45.76040293516785" lon="11.199103251606832"><ele>812.0</ele><time>2026-05-01T10:28:58Z</time></trkpt><trkpt lat="45.76034703111214" lon="11.199267819954246"><ele>808.8</ele><time>2026-05-01T10:28:59Z</time></trkpt><trkpt lat="45.760330728091546" lon="11.199413572214139"><ele>805.6</ele><time>2026-05-01T10:29:00Z</time></trkpt><trkpt lat="45.76029499988042" lon="11.199511509909263"><ele>802.4</ele><time>2026-05-01T10:29:01Z</time></trkpt><trkpt lat="45.76020339697553" lon="11.199546789517035"><ele>799.1999999999999</ele><time>2026-05-01T10:29:03Z</time></trkpt><trkpt lat="45.76015621830294" lon="11.199439919464034"><ele>796.0</ele><time>2026-05-01T10:29:04Z</time></trkpt><trkpt lat="45.76018195609374" lon="11.199302372302014"><ele>796.0</ele><time>2026-05-01T10:29:05Z</time></trkpt><trkpt lat="45.76027958709299" lon="11.199177843483765"><ele>796.0</ele><time>2026-05-01T10:29:06Z</time></trkpt><trkpt lat="45.7603531371453" lon="11.198988339036815"><ele>796.0</ele><time>2026-05-01T10:29:07Z</time></trkpt><trkpt lat="45.760437331127264" lon="11.198782058466994"><ele>796.0</ele><time>2026-05-01T10:29:08Z</time></trkpt><trkpt lat="45.76050048434778" lon="11.198522436051157"><ele>801.3333333333333</ele><time>2026-05-01T10:29:09Z</time></trkpt><trkpt lat="45.76055545813804" lon="11.198228908925516"><ele>806.6666666666667</ele><time>2026-05-01T10:29:10Z</time></trkpt><trkpt lat="45.76060996868192" lon="11.197927866914222"><ele>812.0</ele><time>2026-05-01T10:29:11Z</time></trkpt><trkpt lat="45.76063956251701" lon="11.197647037295079"><ele>815.75</ele><time>2026-05-01T10:29:12Z</time></trkpt><trkpt lat="45.76064020439127" lon="11.197396320294542"><ele>819.5</ele><time>2026-05-01T10:29:13Z</time></trkpt><trkpt lat="45.76065796814911" lon="11.197185584426174"><ele>823.25</ele><time>2026-05-01T10:29:14Z</time></trkpt><trkpt lat="45.760706976896635" lon="11.197035753765194"><ele>827.0</ele><time>2026-05-01T10:29:15Z</time></trkpt><trkpt lat="45.760765086061326" lon="11.196909299577365"><ele>837.0</ele><time>2026-05-01T10:29:16Z</time></trkpt><trkpt lat="45.76088118656576" lon="11.196866390236567"><ele>847.0</ele><time>2026-05-01T10:29:17Z</time></trkpt><trkpt lat="45.761031306773965" lon="11.196819834362168"><ele>857.0</ele><time>2026-05-01T10:29:18Z</time></trkpt><trkpt lat="45.761187854580285" lon="11.196757952455613"><ele>867.0</ele><time>2026-05-01T10:29:19Z</time></trkpt><trkpt lat="45.7613285552327" lon="11.196773746733518"><ele>869.75</ele><time>2026-05-01T10:29:20Z</time></trkpt><trkpt lat="45.76143017510491" lon="11.196900385916692"><ele>872.5</ele><time>2026-05-01T10:29:21Z</time></trkpt><trkpt lat="45.76152721446941" lon="11.197033765578094"><ele>875.25</ele><time>2026-05-01T10:29:22Z</time></trkpt><trkpt lat="45.76163041712606" lon="11.197126030790184"><ele>878.0</ele><time>2026-05-01T10:29:23Z</time></trkpt><trkpt lat="45.7617197283395" lon="11.197157912120224"><ele>878.0</ele><time>2026-05-01T10:29:24Z</time></trkpt><trkpt lat="45.76181200716723" lon="11.197088598140798"><ele>878.0</ele><time>2026-05-01T10:29:25Z</time></trkpt><trkpt lat="45.76191342531184" lon="11.196959730474047"><ele>878.0</ele><time>2026-05-01T10:29:26Z</time></trkpt><trkpt lat="45.76203390268768" lon="11.196835937487714"><ele>878.0</ele><time>2026-05-01T10:29:27Z</time></trkpt><trkpt lat="45.76216458985026" lon="11.196740354829723"><ele>880.5</ele><time>2026-05-01T10:29:28Z</time></trkpt><trkpt lat="45.76229714100645" lon="11.196633547199687"><ele>883.0</ele><time>2026-05-01T10:29:29Z</time></trkpt><trkpt lat="45.762416285903385" lon="11.196494533234226"><ele>885.5</ele><time>2026-05-01T10:29:30Z</time></trkpt><trkpt lat="45.76252716212293" lon="11.19639865247213"><ele>888.0</ele><time>2026-05-01T10:29:31Z</time></trkpt><trkpt lat="45.76262764191334" lon="11.196326250808017"><ele>887.5999999999999</ele><time>2026-05-01T10:29:32Z</time></trkpt><trkpt lat="45.762722545579635" lon="11.196297826103024"><ele>887.1999999999999</ele><time>2026-05-01T10:29:33Z</time></trkpt><trkpt lat="45.76280737189935" lon="11.196362237317167"><ele>886.8</ele><time>2026-05-01T10:29:34Z</time></trkpt><trkpt lat="45.76288111624585" lon="11.196430350160608"><ele>886.4</ele><time>2026-05-01T10:29:35Z</time></trkpt><trkpt lat="45.762911510595295" lon="11.196525036745214"><ele>886.0</ele><time>2026-05-01T10:29:36Z</time></trkpt><trkpt lat="45.76283656325742" lon="11.19667112568843"><ele>883.5</ele><time>2026-05-01T10:29:37Z</time></trkpt><trkpt lat="45.762809258015345" lon="11.196822859155933"><ele>881.0</ele><time>2026-05-01T10:29:38Z</time></trkpt><trkpt lat="45.76278798848407" lon="11.19696413900749"><ele>878.5</ele><time>2026-05-01T10:29:39Z</time></trkpt><trkpt lat="45.762797441684974" lon="11.197129256428337"><ele>876.0</ele><time>2026-05-01T10:29:40Z</time></trkpt><trkpt lat="45.76282399146684" lon="11.197324503166032"><ele>876.0</ele><time>2026-05-01T10:29:41Z</time></trkpt><trkpt lat="45.76285080615066" lon="11.197475821250414"><ele>876.0</ele><time>2026-05-01T10:29:42Z</time></trkpt><trkpt lat="45.762889052607775" lon="11.197564719720813"><ele>876.0</ele><time>2026-05-01T10:29:43Z</time></trkpt><trkpt lat="45.76296220893932" lon="11.197582473074473"><ele>876.0</ele><time>2026-05-01T10:29:44Z</time></trkpt><trkpt lat="45.76302943921986" lon="11.197536435517774"><ele>876.0</ele><time>2026-05-01T10:29:45Z</time></trkpt><trkpt lat="45.76305489607934" lon="11.197424708595092"><ele>876.0</ele><time>2026-05-01T10:29:46Z</time></trkpt><trkpt lat="45.763048230430506" lon="11.197292330369724"><ele>876.0</ele><time>2026-05-01T10:29:47Z</time></trkpt><trkpt lat="45.76305296931213" lon="11.197149817686078"><ele>875.9999999999999</ele><time>2026-05-01T10:29:48Z</time></trkpt><trkpt lat="45.76307609366871" lon="11.19701055578472"><ele>875.9999999999999</ele><time>2026-05-01T10:29:49Z</time></trkpt><trkpt lat="45.7631127809726" lon="11.196868699242922"><ele>876.0</ele><time>2026-05-01T10:29:50Z</time></trkpt><trkpt lat="45.76314379019848" lon="11.196727708737923"><ele>876.0</ele><time>2026-05-01T10:29:51Z</time></trkpt><trkpt lat="45.763163396458495" lon="11.196595314919232"><ele>877.6666666666666</ele><time>2026-05-01T10:29:52Z</time></trkpt><trkpt lat="45.76319009715159" lon="11.196448659259435"><ele>879.3333333333333</ele><time>2026-05-01T10:29:53Z</time></trkpt><trkpt lat="45.76321817558049" lon="11.196328600076752"><ele>881.0</ele><time>2026-05-01T10:29:54Z</time></trkpt><trkpt lat="45.763252853052535" lon="11.196242857097836"><ele>882.6666666666666</ele><time>2026-05-01T10:29:55Z</time></trkpt><trkpt lat="45.76333552459806" lon="11.196151723373204"><ele>884.3333333333333</ele><time>2026-05-01T10:29:57Z</time></trkpt><trkpt lat="45.763387094375894" lon="11.196221435911102"><ele>886.0</ele><time>2026-05-01T10:29:58Z</time></trkpt><trkpt lat="45.76336885761401" lon="11.19634340079377"><ele>883.5</ele><time>2026-05-01T10:29:59Z</time></trkpt><trkpt lat="45.763333885562204" lon="11.196509796607751"><ele>881.0</ele><time>2026-05-01T10:30:00Z</time></trkpt><trkpt lat="45.763327209572864" lon="11.196725621808204"><ele>878.5</ele><time>2026-05-01T10:30:01Z</time></trkpt><trkpt lat="45.76331803809966" lon="11.196914910856025"><ele>876.0</ele><time>2026-05-01T10:30:02Z</time></trkpt><trkpt lat="45.7633205059064" lon="11.197060812985324"><ele>876.0</ele><time>2026-05-01T10:30:03Z</time></trkpt><trkpt lat="45.76334101180596" lon="11.197176450372417"><ele>875.9999999999999</ele><time>2026-05-01T10:30:04Z</time></trkpt><trkpt lat="45.76339830382227" lon="11.197252022466545"><ele>875.9999999999999</ele><time>2026-05-01T10:30:05Z</time></trkpt><trkpt lat="45.763482100726534" lon="11.197268493746703"><ele>876.0</ele><time>2026-05-01T10:30:06Z</time></trkpt><trkpt lat="45.763584612956976" lon="11.1971995313687"><ele>876.0</ele><time>2026-05-01T10:30:07Z</time></trkpt><trkpt lat="45.7637017735529" lon="11.197068433852989"><ele>888.3333333333333</ele><time>2026-05-01T10:30:08Z</time></trkpt><trkpt lat="45.76381858730562" lon="11.196907738739469"><ele>900.6666666666666</ele><time>2026-05-01T10:30:09Z</time></trkpt><trkpt lat="45.76389607030048" lon="11.196729543871964"><ele>913.0</ele><time>2026-05-01T10:30:10Z</time></trkpt><trkpt lat="45.76392806711042" lon="11.196525765174153"><ele>917.75</ele><time>2026-05-01T10:30:11Z</time></trkpt><trkpt lat="45.76391240698643" lon="11.196326709473679"><ele>922.5</ele><time>2026-05-01T10:30:12Z</time></trkpt><trkpt lat="45.763855880480016" lon="11.196146064037984"><ele>927.25</ele><time>2026-05-01T10:30:13Z</time></trkpt><trkpt lat="45.76375722817931" lon="11.196017839761373"><ele>932.0</ele><time>2026-05-01T10:30:14Z</time></trkpt><trkpt lat="45.763642361374444" lon="11.195926096678907"><ele>932.0</ele><time>2026-05-01T10:30:15Z</time></trkpt><trkpt lat="45.76356538588841" lon="11.195838178334226"><ele>932.0</ele><time>2026-05-01T10:30:16Z</time></trkpt><trkpt lat="45.76354927926935" lon="11.195707919776599"><ele>932.0</ele><time>2026-05-01T10:30:17Z</time></trkpt><trkpt lat="45.76361180649197" lon="11.195565254335062"><ele>932.0</ele><time>2026-05-01T10:30:18Z</time></trkpt><trkpt lat="45.763666726481325" lon="11.195367802274822"><ele>932.25</ele><time>2026-05-01T10:30:19Z</time></trkpt><trkpt lat="45.7637140374892" lon="11.19515305084318"><ele>932.5</ele><time>2026-05-01T10:30:20Z</time></trkpt><trkpt lat="45.76376408670119" lon="11.194953835144934"><ele>932.75</ele><time>2026-05-01T10:30:21Z</time></trkpt><trkpt lat="45.76379054424944" lon="11.194798568036687"><ele>933.0</ele><time>2026-05-01T10:30:22Z</time></trkpt><trkpt lat="45.763785192434334" lon="11.194640340062744"><ele>933.0</ele><time>2026-05-01T10:30:23Z</time></trkpt><trkpt lat="45.76374441788529" lon="11.194470684875588"><ele>933.0</ele><time>2026-05-01T10:30:24Z</time></trkpt><trkpt lat="45.76367270620388" lon="11.194304907640419"><ele>933.0</ele><time>2026-05-01T10:30:25Z</time></trkpt><trkpt lat="45.76358242377844" lon="11.194161565150337"><ele>933.0</ele><time>2026-05-01T10:30:26Z</time></trkpt><trkpt lat="45.76346210133205" lon="11.194047533315459"><ele>935.0</ele><time>2026-05-01T10:30:27Z</time></trkpt><trkpt lat="45.76332412827857" lon="11.193988969227737"><ele>937.0</ele><time>2026-05-01T10:30:28Z</time></trkpt><trkpt lat="45.76318773696825" lon="11.193966727604606"><ele>939.0</ele><time>2026-05-01T10:30:29Z</time></trkpt><trkpt lat="45.76307037587823" lon="11.193958846029107"><ele>941.0</ele><time>2026-05-01T10:30:30Z</time></trkpt><trkpt lat="45.762948801957876" lon="11.193992204837592"><ele>940.0</ele><time>2026-05-01T10:30:31Z</time></trkpt><trkpt lat="45.762838077632004" lon="11.194090469000571"><ele>939.0</ele><time>2026-05-01T10:30:32Z</time></trkpt><trkpt lat="45.762734499754565" lon="11.194253787437036"><ele>938.0</ele><time>2026-05-01T10:30:33Z</time></trkpt><trkpt lat="45.76264836704329" lon="11.194431301916895"><ele>937.0</ele><time>2026-05-01T10:30:34Z</time></trkpt><trkpt lat="45.762587741840626" lon="11.194570051401168"><ele>936.9999999999999</ele><time>2026-05-01T10:30:35Z</time></trkpt><trkpt lat="45.762546477163035" lon="11.194694377530531"><ele>937.0</ele><time>2026-05-01T10:30:36Z</time></trkpt><trkpt lat="45.762515237100715" lon="11.194799154403208"><ele>937.0</ele><time>2026-05-01T10:30:37Z</time></trkpt><trkpt lat="45.76249371975809" lon="11.194890413710466"><ele>937.0</ele><time>2026-05-01T10:30:38Z</time></trkpt><trkpt lat="45.76245326904578" lon="11.194981662062167"><ele>936.9999999999999</ele><time>2026-05-01T10:30:39Z</time></trkpt><trkpt lat="45.762374355792" lon="11.195037544441304"><ele>937.0</ele><time>2026-05-01T10:30:40Z</time></trkpt><trkpt lat="45.76226701001037" lon="11.195061034894714"><ele>935.6</ele><time>2026-05-01T10:30:41Z</time></trkpt><trkpt lat="45.76215654937006" lon="11.195086736274225"><ele>934.2</ele><time>2026-05-01T10:30:42Z</time></trkpt><trkpt lat="45.76206537223747" lon="11.195133105876023"><ele>932.8</ele><time>2026-05-01T10:30:43Z</time></trkpt><trkpt lat="45.761983613887566" lon="11.195193115799935"><ele>931.4</ele><time>2026-05-01T10:30:44Z</time></trkpt><trkpt lat="45.76189909015371" lon="11.195182992999731"><ele>930.0</ele><time>2026-05-01T10:30:45Z</time></trkpt><trkpt lat="45.76180333009949" lon="11.195163399153875"><ele>930.0</ele><time>2026-05-01T10:30:46Z</time></trkpt><trkpt lat="45.7616981211512" lon="11.195100611633348"><ele>930.0</ele><time>2026-05-01T10:30:47Z</time></trkpt><trkpt lat="45.761585509967716" lon="11.19507626530582"><ele>930.0</ele><time>2026-05-01T10:30:48Z</time></trkpt><trkpt lat="45.76147499602115" lon="11.195070302601863"><ele>930.0</ele><time>2026-05-01T10:30:49Z</time></trkpt><trkpt lat="45.761359838707484" lon="11.195078634099756"><ele>930.0</ele><time>2026-05-01T10:30:50Z</time></trkpt><trkpt lat="45.76125592709961" lon="11.195078665648817"><ele>930.0</ele><time>2026-05-01T10:30:51Z</time></trkpt><trkpt lat="45.76115170783104" lon="11.195067335030858"><ele>930.0</ele><time>2026-05-01T10:30:52Z</time></trkpt><trkpt lat="45.761047161761645" lon="11.195038564237294"><ele>930.0</ele><time>2026-05-01T10:30:53Z</time></trkpt><trkpt lat="45.760953146478066" lon="11.194988203931024"><ele>930.0</ele><time>2026-05-01T10:30:54Z</time></trkpt><trkpt lat="45.76086507571116" lon="11.194919078587123"><ele>930.4</ele><time>2026-05-01T10:30:55Z</time></trkpt><trkpt lat="45.76077826191446" lon="11.194846446757726"><ele>930.8</ele><time>2026-05-01T10:30:56Z</time></trkpt><trkpt lat="45.76069445187479" lon="11.194764688525"><ele>931.2</ele><time>2026-05-01T10:30:57Z</time></trkpt><trkpt lat="45.760616130060725" lon="11.19468082433105"><ele>931.6</ele><time>2026-05-01T10:30:58Z</time></trkpt><trkpt lat="45.760546765794" lon="11.194594301394162"><ele>932.0</ele><time>2026-05-01T10:30:59Z</time></trkpt><trkpt lat="45.76049253981486" lon="11.194510188641553"><ele>934.8</ele><time>2026-05-01T10:31:00Z</time></trkpt><trkpt lat="45.76044759742299" lon="11.194405746965133"><ele>937.6</ele><time>2026-05-01T10:31:01Z</time></trkpt><trkpt lat="45.760422891787755" lon="11.19427930943719"><ele>940.3999999999999</ele><time>2026-05-01T10:31:02Z</time></trkpt><trkpt lat="45.76042611553877" lon="11.194145508349974"><ele>943.1999999999999</ele><time>2026-05-01T10:31:03Z</time></trkpt><trkpt lat="45.760462288650395" lon="11.194012693323197"><ele>946.0</ele><time>2026-05-01T10:31:04Z</time></trkpt><trkpt lat="45.76053572509756" lon="11.193901523625764"><ele>950.75</ele><time>2026-05-01T10:31:05Z</time></trkpt><trkpt lat="45.7606441171317" lon="11.193861281176146"><ele>955.5</ele><time>2026-05-01T10:31:06Z</time></trkpt><trkpt lat="45.760754287448705" lon="11.193795415933335"><ele>960.25</ele><time>2026-05-01T10:31:07Z</time></trkpt><trkpt lat="45.76087835681583" lon="11.193782173081418"><ele>965.0</ele><time>2026-05-01T10:31:08Z</time></trkpt><trkpt lat="45.76102644462851" lon="11.193848544583753"><ele>966.6666666666667</ele><time>2026-05-01T10:31:09Z</time></trkpt><trkpt lat="45.761211095004455" lon="11.193928633207394"><ele>968.3333333333333</ele><time>2026-05-01T10:31:10Z</time></trkpt><trkpt lat="45.76142755174179" lon="11.194018044149646"><ele>970.0</ele><time>2026-05-01T10:31:11Z</time></trkpt><trkpt lat="45.76163526004383" lon="11.194072031750185"><ele>965.25</ele><time>2026-05-01T10:31:12Z</time></trkpt><trkpt lat="45.7617949764576" lon="11.194137900491876"><ele>960.5</ele><time>2026-05-01T10:31:13Z</time></trkpt><trkpt lat="45.76192286059469" lon="11.194182030387212"><ele>955.75</ele><time>2026-05-01T10:31:14Z</time></trkpt><trkpt lat="45.76202330404542" lon="11.19420584141302"><ele>951.0</ele><time>2026-05-01T10:31:15Z</time></trkpt><trkpt lat="45.76209941908941" lon="11.194194121425284"><ele>953.5</ele><time>2026-05-01T10:31:17Z</time></trkpt><trkpt lat="45.7620534537401" lon="11.193955073229416"><ele>956.0</ele><time>2026-05-01T10:31:18Z</time></trkpt><trkpt lat="45.76195449402232" lon="11.1938832190857"><ele>958.5</ele><time>2026-05-01T10:31:19Z</time></trkpt><trkpt lat="45.76181514874816" lon="11.19381243113918"><ele>961.0</ele><time>2026-05-01T10:31:20Z</time></trkpt><trkpt lat="45.761668491955" lon="11.193703434626102"><ele>964.0</ele><time>2026-05-01T10:31:21Z</time></trkpt><trkpt lat="45.761500350982814" lon="11.193572544022333"><ele>967.0</ele><time>2026-05-01T10:31:22Z</time></trkpt><trkpt lat="45.76131291658832" lon="11.193425994422864"><ele>970.0</ele><time>2026-05-01T10:31:23Z</time></trkpt><trkpt lat="45.761130996897435" lon="11.193275799531577"><ele>978.0</ele><time>2026-05-01T10:31:24Z</time></trkpt><trkpt lat="45.760972884321674" lon="11.193125719688911"><ele>986.0</ele><time>2026-05-01T10:31:25Z</time></trkpt><trkpt lat="45.76083026018235" lon="11.19301224276138"><ele>994.0</ele><time>2026-05-01T10:31:26Z</time></trkpt><trkpt lat="45.76066880384095" lon="11.192943345837534"><ele>994.0</ele><time>2026-05-01T10:31:27Z</time></trkpt><trkpt lat="45.76047736743541" lon="11.192940103603862"><ele>994.0</ele><time>2026-05-01T10:31:28Z</time></trkpt><trkpt lat="45.76027203661191" lon="11.192993417701702"><ele>994.0</ele><time>2026-05-01T10:31:29Z</time></trkpt><trkpt lat="45.7600898463051" lon="11.193054820982836"><ele>994.3333333333333</ele><time>2026-05-01T10:31:30Z</time></trkpt><trkpt lat="45.75993310021505" lon="11.193105962532474"><ele>994.6666666666667</ele><time>2026-05-01T10:31:31Z</time></trkpt><trkpt lat="45.75976442480716" lon="11.193104158779631"><ele>995.0</ele><time>2026-05-01T10:31:32Z</time></trkpt><trkpt lat="45.75956901944773" lon="11.193079070522174"><ele>997.3333333333334</ele><time>2026-05-01T10:31:33Z</time></trkpt><trkpt lat="45.759365116022295" lon="11.193079487095064"><ele>999.6666666666667</ele><time>2026-05-01T10:31:34Z</time></trkpt><trkpt lat="45.75918652756407" lon="11.193109921270427"><ele>1002.0</ele><time>2026-05-01T10:31:35Z</time></trkpt><trkpt lat="45.759045880554396" lon="11.193144542588078"><ele>1002.0</ele><time>2026-05-01T10:31:36Z</time></trkpt><trkpt lat="45.75895291399568" lon="11.193152988738447"><ele>1002.0</ele><time>2026-05-01T10:31:37Z</time></trkpt><trkpt lat="45.75887790104889" lon="11.193096560565003"><ele>1002.0</ele><time>2026-05-01T10:31:38Z</time></trkpt><trkpt lat="45.758803160977756" lon="11.193115765134285"><ele>1002.0</ele><time>2026-05-01T10:31:39Z</time></trkpt><trkpt lat="45.758783046949056" lon="11.192731767746192"><ele>1002.0</ele><time>2026-05-01T10:31:40Z</time></trkpt><trkpt lat="45.75874730704827" lon="11.192482634076306"><ele>1002.0</ele><time>2026-05-01T10:31:41Z</time></trkpt><trkpt lat="45.75870176034669" lon="11.192225608656228"><ele>1002.0</ele><time>2026-05-01T10:31:42Z</time></trkpt><trkpt lat="45.75869076710088" lon="11.191989555605213"><ele>1004.0</ele><time>2026-05-01T10:31:43Z</time></trkpt><trkpt lat="45.75870563651134" lon="11.191786038906693"><ele>1006.0</ele><time>2026-05-01T10:31:44Z</time></trkpt><trkpt lat="45.75869117195684" lon="11.19161227926819"><ele>1008.0</ele><time>2026-05-01T10:31:45Z</time></trkpt><trkpt lat="45.758629886514946" lon="11.191439012341108"><ele>1010.0</ele><time>2026-05-01T10:31:46Z</time></trkpt><trkpt lat="45.758513653953166" lon="11.191285123718798"><ele>1016.3333333333334</ele><time>2026-05-01T10:31:47Z</time></trkpt><trkpt lat="45.75835445148937" lon="11.191179868117981"><ele>1022.6666666666667</ele><time>2026-05-01T10:31:48Z</time></trkpt><trkpt lat="45.75819675970833" lon="11.191112257277261"><ele>1029.0</ele><time>2026-05-01T10:31:49Z</time></trkpt><trkpt lat="45.758077776072376" lon="11.190959981304433"><ele>1029.0</ele><time>2026-05-01T10:31:50Z</time></trkpt><trkpt lat="45.75795251180313" lon="11.190763772210923"><ele>1029.0</ele><time>2026-05-01T10:31:51Z</time></trkpt><trkpt lat="45.7578351781524" lon="11.190541532570506"><ele>1029.0</ele><time>2026-05-01T10:31:52Z</time></trkpt><trkpt lat="45.75773569166373" lon="11.19036014098946"><ele>1028.75</ele><time>2026-05-01T10:31:53Z</time></trkpt><trkpt lat="45.75768114844647" lon="11.190190272090941"><ele>1028.5</ele><time>2026-05-01T10:31:54Z</time></trkpt><trkpt lat="45.757697723412825" lon="11.190019706531427"><ele>1028.25</ele><time>2026-05-01T10:31:55Z</time></trkpt><trkpt lat="45.75769646930408" lon="11.18980528464831"><ele>1028.0</ele><time>2026-05-01T10:31:56Z</time></trkpt><trkpt lat="45.757659666058956" lon="11.189572373476562"><ele>1031.6666666666667</ele><time>2026-05-01T10:31:57Z</time></trkpt><trkpt lat="45.75757563283054" lon="11.18930324264754"><ele>1035.3333333333333</ele><time>2026-05-01T10:31:58Z</time></trkpt><trkpt lat="45.75747118411052" lon="11.18904602068291"><ele>1039.0</ele><time>2026-05-01T10:31:59Z</time></trkpt><trkpt lat="45.75737028596602" lon="11.188811507305475"><ele>1044.25</ele><time>2026-05-01T10:32:00Z</time></trkpt><trkpt lat="45.757295864570196" lon="11.188620321122004"><ele>1049.5</ele><time>2026-05-01T10:32:01Z</time></trkpt><trkpt lat="45.757230827292965" lon="11.188448417943231"><ele>1054.75</ele><time>2026-05-01T10:32:02Z</time></trkpt><trkpt lat="45.75717268750707" lon="11.188308131376616"><ele>1060.0</ele><time>2026-05-01T10:32:03Z</time></trkpt><trkpt lat="45.75711622750647" lon="11.188190899300023"><ele>1058.3333333333333</ele><time>2026-05-01T10:32:04Z</time></trkpt><trkpt lat="45.75705241840398" lon="11.188098001515293"><ele>1056.6666666666665</ele><time>2026-05-01T10:32:05Z</time></trkpt><trkpt lat="45.75698242470209" lon="11.188019706506287"><ele>1055.0</ele><time>2026-05-01T10:32:06Z</time></trkpt><trkpt lat="45.75690653976371" lon="11.18794513382867"><ele>1053.3333333333333</ele><time>2026-05-01T10:32:07Z</time></trkpt><trkpt lat="45.7568420712169" lon="11.187879014502665"><ele>1051.6666666666667</ele><time>2026-05-01T10:32:08Z</time></trkpt><trkpt lat="45.75678821273069" lon="11.18780265321433"><ele>1050.0</ele><time>2026-05-01T10:32:09Z</time></trkpt><trkpt lat="45.75674752772241" lon="11.18769442381692"><ele>1050.0</ele><time>2026-05-01T10:32:10Z</time></trkpt><trkpt lat="45.75673606582316" lon="11.187544776307085"><ele>1050.0</ele><time>2026-05-01T10:32:11Z</time></trkpt><trkpt lat="45.75669502661441" lon="11.187432082825927"><ele>1050.0</ele><time>2026-05-01T10:32:12Z</time></trkpt><trkpt lat="45.756667451988086" lon="11.187321368637528"><ele>1050.0</ele><time>2026-05-01T10:32:13Z</time></trkpt><trkpt lat="45.75661575037631" lon="11.187246582539697"><ele>1050.0</ele><time>2026-05-01T10:32:14Z</time></trkpt><trkpt lat="45.75654955168182" lon="11.187193308054153"><ele>1050.0</ele><time>2026-05-01T10:32:15Z</time></trkpt><trkpt lat="45.756474233057354" lon="11.187167658154634"><ele>1052.1666666666667</ele><time>2026-05-01T10:32:16Z</time></trkpt><trkpt lat="45.75639898346695" lon="11.187151155959679"><ele>1054.3333333333333</ele><time>2026-05-01T10:32:17Z</time></trkpt><trkpt lat="45.75633918791936" lon="11.187107589117627"><ele>1056.5</ele><time>2026-05-01T10:32:18Z</time></trkpt><trkpt lat="45.75625105068416" lon="11.187007158422357"><ele>1058.6666666666665</ele><time>2026-05-01T10:32:20Z</time></trkpt><trkpt lat="45.756261527106204" lon="11.186883766666693"><ele>1060.8333333333333</ele><time>2026-05-01T10:32:21Z</time></trkpt><trkpt lat="45.75625048421501" lon="11.186753787072254"><ele>1063.0</ele><time>2026-05-01T10:32:22Z</time></trkpt><trkpt lat="45.75625481219018" lon="11.186623963921106"><ele>1063.6666666666665</ele><time>2026-05-01T10:32:23Z</time></trkpt><trkpt lat="45.75625420513798" lon="11.186498309368552"><ele>1064.3333333333333</ele><time>2026-05-01T10:32:24Z</time></trkpt><trkpt lat="45.75624679124977" lon="11.1863705028943"><ele>1065.0</ele><time>2026-05-01T10:32:25Z</time></trkpt><trkpt lat="45.75624071890287" lon="11.186245754243217"><ele>1065.6666666666667</ele><time>2026-05-01T10:32:26Z</time></trkpt><trkpt lat="45.756246198852104" lon="11.186138577335958"><ele>1066.3333333333335</ele><time>2026-05-01T10:32:27Z</time></trkpt><trkpt lat="45.75626113170896" lon="11.186007626162423"><ele>1067.0</ele><time>2026-05-01T10:32:29Z</time></trkpt><trkpt lat="45.75635358016497" lon="11.185927374910595"><ele>1067.0</ele><time>2026-05-01T10:32:31Z</time></trkpt><trkpt lat="45.75643290765812" lon="11.185933520132435"><ele>1067.0</ele><time>2026-05-01T10:32:32Z</time></trkpt><trkpt lat="45.75651612794055" lon="11.18597949635416"><ele>1067.0</ele><time>2026-05-01T10:32:33Z</time></trkpt><trkpt lat="45.75660166371902" lon="11.186028632880678"><ele>1067.0</ele><time>2026-05-01T10:32:34Z</time></trkpt><trkpt lat="45.75669117500353" lon="11.186072241572072"><ele>1067.0</ele><time>2026-05-01T10:32:35Z</time></trkpt><trkpt lat="45.756790767378945" lon="11.186098124588389"><ele>1069.3333333333335</ele><time>2026-05-01T10:32:36Z</time></trkpt><trkpt lat="45.75688335553037" lon="11.18612310616684"><ele>1071.6666666666667</ele><time>2026-05-01T10:32:37Z</time></trkpt><trkpt lat="45.756988034009254" lon="11.186139189376211"><ele>1074.0</ele><time>2026-05-01T10:32:38Z</time></trkpt><trkpt lat="45.75707358168654" lon="11.186133667752866"><ele>1076.3333333333333</ele><time>2026-05-01T10:32:39Z</time></trkpt><trkpt lat="45.757146061762306" lon="11.186103318946904"><ele>1078.6666666666665</ele><time>2026-05-01T10:32:40Z</time></trkpt><trkpt lat="45.7572134013945" lon="11.186052096487758"><ele>1081.0</ele><time>2026-05-01T10:32:41Z</time></trkpt><trkpt lat="45.75726767861748" lon="11.185967436989051"><ele>1081.0</ele><time>2026-05-01T10:32:42Z</time></trkpt><trkpt lat="45.757312628092315" lon="11.18585978105697"><ele>1081.0</ele><time>2026-05-01T10:32:43Z</time></trkpt><trkpt lat="45.757341962352925" lon="11.185742464196093"><ele>1081.0</ele><time>2026-05-01T10:32:44Z</time></trkpt><trkpt lat="45.75735462705679" lon="11.185624234824223"><ele>1081.0</ele><time>2026-05-01T10:32:45Z</time></trkpt><trkpt lat="45.75737098119774" lon="11.18550369375454"><ele>1081.0</ele><time>2026-05-01T10:32:46Z</time></trkpt><trkpt lat="45.757394144971045" lon="11.185410062204387"><ele>1081.0</ele><time>2026-05-01T10:32:47Z</time></trkpt><trkpt lat="45.757498459604385" lon="11.185376282728454"><ele>1081.0</ele><time>2026-05-01T10:32:49Z</time></trkpt><trkpt lat="45.75755249024607" lon="11.185451813691165"><ele>1081.0</ele><time>2026-05-01T10:32:50Z</time></trkpt><trkpt lat="45.75756530203457" lon="11.185587673359478"><ele>1081.0</ele><time>2026-05-01T10:32:51Z</time></trkpt><trkpt lat="45.757576222344014" lon="11.185715037829064"><ele>1081.0</ele><time>2026-05-01T10:32:52Z</time></trkpt><trkpt lat="45.75757085090952" lon="11.18585125084041"><ele>1081.0</ele><time>2026-05-01T10:32:53Z</time></trkpt><trkpt lat="45.75755502329687" lon="11.18599993882176"><ele>1081.0</ele><time>2026-05-01T10:32:54Z</time></trkpt><trkpt lat="45.757499430181866" lon="11.186121213562469"><ele>1081.0</ele><time>2026-05-01T10:32:55Z</time></trkpt><trkpt lat="45.757453180216906" lon="11.186213843953984"><ele>1081.0</ele><time>2026-05-01T10:32:56Z</time></trkpt><trkpt lat="45.75738710305318" lon="11.186354481592499"><ele>1081.0</ele><time>2026-05-01T10:32:58Z</time></trkpt><trkpt lat="45.75736268077467" lon="11.186515294428602"><ele>1081.0</ele><time>2026-05-01T10:33:00Z</time></trkpt><trkpt lat="45.75746206628366" lon="11.186604051964341"><ele>1081.0</ele><time>2026-05-01T10:33:02Z</time></trkpt><trkpt lat="45.75754408124856" lon="11.186584056117796"><ele>1081.0</ele><time>2026-05-01T10:33:03Z</time></trkpt><trkpt lat="45.75761977536197" lon="11.186514370433143"><ele>1081.0</ele><time>2026-05-01T10:33:04Z</time></trkpt><trkpt lat="45.757666175061395" lon="11.186405792338292"><ele>1081.0</ele><time>2026-05-01T10:33:05Z</time></trkpt><trkpt lat="45.757711014557465" lon="11.186274232325573"><ele>1081.0</ele><time>2026-05-01T10:33:06Z</time></trkpt><trkpt lat="45.757772061277215" lon="11.186157323903583"><ele>1086.3333333333333</ele><time>2026-05-01T10:33:07Z</time></trkpt><trkpt lat="45.75782745427008" lon="11.18604766386356"><ele>1091.6666666666665</ele><time>2026-05-01T10:33:08Z</time></trkpt><trkpt lat="45.757871584627196" lon="11.185951468062006"><ele>1097.0</ele><time>2026-05-01T10:33:09Z</time></trkpt><trkpt lat="45.75790701029364" lon="11.185874045706257"><ele>1102.3333333333333</ele><time>2026-05-01T10:33:10Z</time></trkpt><trkpt lat="45.75797120858474" lon="11.18573172566519"><ele>1107.6666666666667</ele><time>2026-05-01T10:33:12Z</time></trkpt><trkpt lat="45.75802477222592" lon="11.18566211063796"><ele>1113.0</ele><time>2026-05-01T10:33:13Z</time></trkpt><trkpt lat="45.75811001869629" lon="11.185647169055146"><ele>1113.8333333333333</ele><time>2026-05-01T10:33:14Z</time></trkpt><trkpt lat="45.75819668613699" lon="11.185597203050277"><ele>1114.6666666666667</ele><time>2026-05-01T10:33:15Z</time></trkpt><trkpt lat="45.758276664154735" lon="11.185549570707796"><ele>1115.5</ele><time>2026-05-01T10:33:16Z</time></trkpt><trkpt lat="45.758350472982734" lon="11.185541725662874"><ele>1116.3333333333335</ele><time>2026-05-01T10:33:17Z</time></trkpt><trkpt lat="45.758364643771074" lon="11.18536641204387"><ele>1117.1666666666667</ele><time>2026-05-01T10:33:18Z</time></trkpt><trkpt lat="45.75838124830754" lon="11.185268613622158"><ele>1118.0</ele><time>2026-05-01T10:33:19Z</time></trkpt><trkpt lat="45.758382255606755" lon="11.185163321220053"><ele>1118.0</ele><time>2026-05-01T10:33:20Z</time></trkpt><trkpt lat="45.758368943838505" lon="11.185050734753379"><ele>1118.0</ele><time>2026-05-01T10:33:21Z</time></trkpt><trkpt lat="45.758342423550836" lon="11.184929697891569"><ele>1118.0</ele><time>2026-05-01T10:33:22Z</time></trkpt><trkpt lat="45.7582962073992" lon="11.184786561645575"><ele>1118.0</ele><time>2026-05-01T10:33:23Z</time></trkpt><trkpt lat="45.758227659400234" lon="11.184623763994002"><ele>1118.0</ele><time>2026-05-01T10:33:24Z</time></trkpt><trkpt lat="45.758148947977276" lon="11.184420706332105"><ele>1123.3333333333335</ele><time>2026-05-01T10:33:25Z</time></trkpt><trkpt lat="45.75807525491456" lon="11.184171551667982"><ele>1128.6666666666667</ele><time>2026-05-01T10:33:26Z</time></trkpt><trkpt lat="45.758009247477226" lon="11.183890477122945"><ele>1134.0</ele><time>2026-05-01T10:33:27Z</time></trkpt><trkpt lat="45.75794071945522" lon="11.183623705718952"><ele>1140.6666666666667</ele><time>2026-05-01T10:33:28Z</time></trkpt><trkpt lat="45.75786200627958" lon="11.183407910550192"><ele>1147.3333333333335</ele><time>2026-05-01T10:33:29Z</time></trkpt><trkpt lat="45.75779953367061" lon="11.183214853924548"><ele>1154.0</ele><time>2026-05-01T10:33:30Z</time></trkpt><trkpt lat="45.75776120117547" lon="11.18299636455527"><ele>1160.0</ele><time>2026-05-01T10:33:31Z</time></trkpt><trkpt lat="45.75774762081648" lon="11.182744018824417"><ele>1166.0</ele><time>2026-05-01T10:33:32Z</time></trkpt><trkpt lat="45.757729912750754" lon="11.182469949650685"><ele>1172.0</ele><time>2026-05-01T10:33:33Z</time></trkpt><trkpt lat="45.75770899052724" lon="11.182199669155752"><ele>1167.0</ele><time>2026-05-01T10:33:34Z</time></trkpt><trkpt lat="45.75768721608509" lon="11.181948115130524"><ele>1162.0</ele><time>2026-05-01T10:33:35Z</time></trkpt><trkpt lat="45.75766750491213" lon="11.181710426024434"><ele>1157.0</ele><time>2026-05-01T10:33:36Z</time></trkpt><trkpt lat="45.75765533368596" lon="11.181450712593541"><ele>1157.0</ele><time>2026-05-01T10:33:37Z</time></trkpt><trkpt lat="45.7576557425255" lon="11.181182218395548"><ele>1157.0</ele><time>2026-05-01T10:33:38Z</time></trkpt><trkpt lat="45.757666528912225" lon="11.18091768447463"><ele>1157.0</ele><time>2026-05-01T10:33:39Z</time></trkpt><trkpt lat="45.757677597525344" lon="11.180664067694128"><ele>1159.3333333333335</ele><time>2026-05-01T10:33:40Z</time></trkpt><trkpt lat="45.757679367244094" lon="11.180407492895295"><ele>1161.6666666666667</ele><time>2026-05-01T10:33:41Z</time></trkpt><trkpt lat="45.757680258040764" lon="11.180142786849506"><ele>1164.0</ele><time>2026-05-01T10:33:42Z</time></trkpt><trkpt lat="45.7576712568644" lon="11.179891678805868"><ele>1164.0</ele><time>2026-05-01T10:33:43Z</time></trkpt><trkpt lat="45.75765408997744" lon="11.179656817561758"><ele>1164.0</ele><time>2026-05-01T10:33:44Z</time></trkpt><trkpt lat="45.757643256102924" lon="11.17944327435534"><ele>1164.0</ele><time>2026-05-01T10:33:45Z</time></trkpt><trkpt lat="45.75764339840361" lon="11.179239207222942"><ele>1164.0</ele><time>2026-05-01T10:33:46Z</time></trkpt><trkpt lat="45.757672396151285" lon="11.179050007475333"><ele>1164.0</ele><time>2026-05-01T10:33:47Z</time></trkpt><trkpt lat="45.7577240293589" lon="11.178883355688681"><ele>1164.0</ele><time>2026-05-01T10:33:48Z</time></trkpt><trkpt lat="45.757774708840444" lon="11.178739013583192"><ele>1164.0</ele><time>2026-05-01T10:33:49Z</time></trkpt><trkpt lat="45.75781108484323" lon="11.178613401887816"><ele>1164.3333333333333</ele><time>2026-05-01T10:33:50Z</time></trkpt><trkpt lat="45.75782796453883" lon="11.178490306037933"><ele>1164.6666666666667</ele><time>2026-05-01T10:33:51Z</time></trkpt><trkpt lat="45.757846992340816" lon="11.178373269488926"><ele>1165.0</ele><time>2026-05-01T10:33:52Z</time></trkpt><trkpt lat="45.75787365825784" lon="11.178277053109861"><ele>1165.3333333333335</ele><time>2026-05-01T10:33:53Z</time></trkpt><trkpt lat="45.75790634382268" lon="11.178173972586418"><ele>1165.6666666666667</ele><time>2026-05-01T10:33:54Z</time></trkpt><trkpt lat="45.757940889004786" lon="11.178074058454156"><ele>1166.0</ele><time>2026-05-01T10:33:55Z</time></trkpt><trkpt lat="45.75797413470379" lon="11.177974067584584"><ele>1166.0</ele><time>2026-05-01T10:33:56Z</time></trkpt><trkpt lat="45.7580103230821" lon="11.177877535624159"><ele>1166.0</ele><time>2026-05-01T10:33:57Z</time></trkpt><trkpt lat="45.75805124896845" lon="11.177762716108083"><ele>1166.0</ele><time>2026-05-01T10:33:58Z</time></trkpt><trkpt lat="45.75809232422455" lon="11.17763815706457"><ele>1166.0</ele><time>2026-05-01T10:33:59Z</time></trkpt><trkpt lat="45.75813447466147" lon="11.177514183590775"><ele>1166.0</ele><time>2026-05-01T10:34:00Z</time></trkpt><trkpt lat="45.75818291061921" lon="11.177383894982313"><ele>1164.8</ele><time>2026-05-01T10:34:01Z</time></trkpt><trkpt lat="45.75822963539412" lon="11.177253794856169"><ele>1163.6</ele><time>2026-05-01T10:34:02Z</time></trkpt><trkpt lat="45.75827806119821" lon="11.17711417981524"><ele>1162.4</ele><time>2026-05-01T10:34:03Z</time></trkpt><trkpt lat="45.75833161497382" lon="11.176988120879239"><ele>1161.2</ele><time>2026-05-01T10:34:04Z</time></trkpt><trkpt lat="45.758381361737605" lon="11.176853205342411"><ele>1160.0</ele><time>2026-05-01T10:34:05Z</time></trkpt><trkpt lat="45.75843023773399" lon="11.17672329360027"><ele>1160.0</ele><time>2026-05-01T10:34:06Z</time></trkpt><trkpt lat="45.75847907060787" lon="11.176589816589793"><ele>1160.0</ele><time>2026-05-01T10:34:07Z</time></trkpt><trkpt lat="45.75853011404694" lon="11.176465051871697"><ele>1160.0</ele><time>2026-05-01T10:34:08Z</time></trkpt><trkpt lat="45.75858368118707" lon="11.176347113678684"><ele>1160.0</ele><time>2026-05-01T10:34:09Z</time></trkpt><trkpt lat="45.75863670521028" lon="11.176221871746543"><ele>1160.0</ele><time>2026-05-01T10:34:10Z</time></trkpt><trkpt lat="45.75869387465591" lon="11.176101671884005"><ele>1161.0</ele><time>2026-05-01T10:34:11Z</time></trkpt><trkpt lat="45.75875456550581" lon="11.17598886936109"><ele>1162.0</ele><time>2026-05-01T10:34:12Z</time></trkpt><trkpt lat="45.758818575601204" lon="11.175874576106382"><ele>1163.0</ele><time>2026-05-01T10:34:13Z</time></trkpt><trkpt lat="45.75888759055677" lon="11.175762947173101"><ele>1164.0</ele><time>2026-05-01T10:34:14Z</time></trkpt><trkpt lat="45.7589595005535" lon="11.175651390809069"><ele>1165.0</ele><time>2026-05-01T10:34:15Z</time></trkpt><trkpt lat="45.759028086959056" lon="11.175538293923013"><ele>1165.0</ele><time>2026-05-01T10:34:16Z</time></trkpt><trkpt lat="45.759094503062414" lon="11.175421380306407"><ele>1165.0</ele><time>2026-05-01T10:34:17Z</time></trkpt><trkpt lat="45.75915294854189" lon="11.175291611764752"><ele>1165.0</ele><time>2026-05-01T10:34:18Z</time></trkpt><trkpt lat="45.759204805298026" lon="11.175153483209792"><ele>1165.0</ele><time>2026-05-01T10:34:19Z</time></trkpt><trkpt lat="45.75924539249322" lon="11.175005815550564"><ele>1165.0</ele><time>2026-05-01T10:34:20Z</time></trkpt><trkpt lat="45.75927556026742" lon="11.174861544984116"><ele>1166.2</ele><time>2026-05-01T10:34:21Z</time></trkpt><trkpt lat="45.75930488417865" lon="11.174703636567287"><ele>1167.4</ele><time>2026-05-01T10:34:22Z</time></trkpt><trkpt lat="45.75934094687221" lon="11.174569960267965"><ele>1168.6</ele><time>2026-05-01T10:34:23Z</time></trkpt><trkpt lat="45.75939254842907" lon="11.174448804969385"><ele>1169.8</ele><time>2026-05-01T10:34:24Z</time></trkpt><trkpt lat="45.75945307616621" lon="11.174330404472084"><ele>1171.0</ele><time>2026-05-01T10:34:25Z</time></trkpt><trkpt lat="45.75952035815133" lon="11.174239843066474"><ele>1171.5</ele><time>2026-05-01T10:34:26Z</time></trkpt><trkpt lat="45.75959702975446" lon="11.17416407632942"><ele>1172.0</ele><time>2026-05-01T10:34:27Z</time></trkpt><trkpt lat="45.759674735377516" lon="11.174092905678947"><ele>1172.5</ele><time>2026-05-01T10:34:28Z</time></trkpt><trkpt lat="45.759748724241035" lon="11.174027368079194"><ele>1173.0</ele><time>2026-05-01T10:34:29Z</time></trkpt><trkpt lat="45.759814742824666" lon="11.173967963684108"><ele>1173.5</ele><time>2026-05-01T10:34:30Z</time></trkpt><trkpt lat="45.75987218836166" lon="11.17391402781445"><ele>1174.0</ele><time>2026-05-01T10:34:31Z</time></trkpt><trkpt lat="45.759926275819225" lon="11.173861757282152"><ele>1172.6666666666665</ele><time>2026-05-01T10:34:32Z</time></trkpt><trkpt lat="45.76000939657338" lon="11.17376727866776"><ele>1171.3333333333333</ele><time>2026-05-01T10:34:34Z</time></trkpt><trkpt lat="45.760042851677056" lon="11.17364852991509"><ele>1170.0</ele><time>2026-05-01T10:34:36Z</time></trkpt><trkpt lat="45.75999621824989" lon="11.173550635238243"><ele>1168.6666666666667</ele><time>2026-05-01T10:34:38Z</time></trkpt><trkpt lat="45.7599217863466" lon="11.173549192838522"><ele>1167.3333333333335</ele><time>2026-05-01T10:34:40Z</time></trkpt><trkpt lat="45.75984150988223" lon="11.17360423599032"><ele>1166.0</ele><time>2026-05-01T10:34:42Z</time></trkpt><trkpt lat="45.7598557850113" lon="11.173733611440738"><ele>1166.0</ele><time>2026-05-01T10:34:45Z</time></trkpt><trkpt lat="45.75993632715686" lon="11.173758784941594"><ele>1166.0</ele><time>2026-05-01T10:35:04Z</time></trkpt><trkpt lat="45.76004480539984" lon="11.173685716092372"><ele>1166.0</ele><time>2026-05-01T10:35:07Z</time></trkpt><trkpt lat="45.76008933312937" lon="11.173599595788572"><ele>1166.0</ele><time>2026-05-01T10:35:08Z</time></trkpt><trkpt lat="45.76013425308482" lon="11.173510502737123"><ele>1166.0</ele><time>2026-05-01T10:35:09Z</time></trkpt><trkpt lat="45.76018361659503" lon="11.17340338972379"><ele>1166.0</ele><time>2026-05-01T10:35:10Z</time></trkpt><trkpt lat="45.76023303361135" lon="11.17330507896528"><ele>1165.8333333333335</ele><time>2026-05-01T10:35:11Z</time></trkpt><trkpt lat="45.76028166692684" lon="11.173204418586128"><ele>1165.6666666666667</ele><time>2026-05-01T10:35:12Z</time></trkpt><trkpt lat="45.76032061219847" lon="11.173112002529926"><ele>1165.5</ele><time>2026-05-01T10:35:13Z</time></trkpt><trkpt lat="45.76035907589176" lon="11.17302090904824"><ele>1165.3333333333333</ele><time>2026-05-01T10:35:14Z</time></trkpt><trkpt lat="45.76041409711912" lon="11.172881242767241"><ele>1165.1666666666665</ele><time>2026-05-01T10:35:16Z</time></trkpt><trkpt lat="45.76047044914096" lon="11.172805857636579"><ele>1165.0</ele><time>2026-05-01T10:35:18Z</time></trkpt><trkpt lat="45.76030435471082" lon="11.172801614014801"><ele>1165.0</ele><time>2026-05-01T10:35:20Z</time></trkpt><trkpt lat="45.760354931441306" lon="11.172877172932338"><ele>1165.0</ele><time>2026-05-01T10:37:50Z</time></trkpt><trkpt lat="45.760413595560465" lon="11.172964811718431"><ele>1165.0</ele><time>2026-05-01T10:37:55Z</time></trkpt><trkpt lat="45.76034936213251" lon="11.172850858263413"><ele>1165.0</ele><time>2026-05-01T10:38:24Z</time></trkpt><trkpt lat="45.76028594226749" lon="11.17288678516784"><ele>1165.0</ele><time>2026-05-01T10:38:27Z</time></trkpt><trkpt lat="45.760261589943305" lon="11.1729808012012"><ele>1165.0</ele><time>2026-05-01T10:38:30Z</time></trkpt></trkseg><trkseg><trkpt lat="45.75764448631437" lon="11.163678021808645"><ele>1182.0</ele><time>2026-05-01T12:40:59Z</time></trkpt><trkpt lat="45.75770039365084" lon="11.16377492713576"><ele>1182.0</ele><time>2026-05-01T12:41:01Z</time></trkpt><trkpt lat="45.75776869616151" lon="11.163889496466153"><ele>1182.0</ele><time>2026-05-01T12:41:03.001Z</time></trkpt><trkpt lat="45.75780667536044" lon="11.164031672062748"><ele>1182.0</ele><time>2026-05-01T12:41:05.001Z</time></trkpt><trkpt lat="45.75781050354444" lon="11.164175375555983"><ele>1182.0</ele><time>2026-05-01T12:41:07.001Z</time></trkpt><trkpt lat="45.75776702960954" lon="11.164338857576816"><ele>1183.1666666666667</ele><time>2026-05-01T12:41:09.001Z</time></trkpt><trkpt lat="45.75772905105373" lon="11.164428690185337"><ele>1184.3333333333333</ele><time>2026-05-01T12:41:10.001Z</time></trkpt><trkpt lat="45.7576522897614" lon="11.164465298978085"><ele>1185.5</ele><time>2026-05-01T12:41:11.001Z</time></trkpt><trkpt lat="45.75760902580877" lon="11.164541101591388"><ele>1186.6666666666665</ele><time>2026-05-01T12:41:12.001Z</time></trkpt><trkpt lat="45.75755693586401" lon="11.16463078606926"><ele>1187.8333333333333</ele><time>2026-05-01T12:41:13.001Z</time></trkpt><trkpt lat="45.7575064456764" lon="11.164720277865966"><ele>1189.0</ele><time>2026-05-01T12:41:14.001Z</time></trkpt><trkpt lat="45.757462038102915" lon="11.16483749220523"><ele>1188.25</ele><time>2026-05-01T12:41:15.001Z</time></trkpt><trkpt lat="45.75739465599755" lon="11.164949739647188"><ele>1187.5</ele><time>2026-05-01T12:41:16.001Z</time></trkpt><trkpt lat="45.75734803559033" lon="11.16511264310338"><ele>1186.75</ele><time>2026-05-01T12:41:17.001Z</time></trkpt><trkpt lat="45.757320217012904" lon="11.165318421559741"><ele>1186.0</ele><time>2026-05-01T12:41:18.001Z</time></trkpt><trkpt lat="45.75728934670022" lon="11.1655419019295"><ele>1184.3333333333333</ele><time>2026-05-01T12:41:19.001Z</time></trkpt><trkpt lat="45.757291489203524" lon="11.165775460856626"><ele>1182.6666666666667</ele><time>2026-05-01T12:41:20.001Z</time></trkpt><trkpt lat="45.75734833216319" lon="11.166039471319102"><ele>1181.0</ele><time>2026-05-01T12:41:21.001Z</time></trkpt><trkpt lat="45.75741577514561" lon="11.166288402059768"><ele>1183.0</ele><time>2026-05-01T12:41:22.001Z</time></trkpt><trkpt lat="45.75750451435108" lon="11.166563547092043"><ele>1185.0</ele><time>2026-05-01T12:41:23.001Z</time></trkpt><trkpt lat="45.75756448538808" lon="11.166804308178046"><ele>1187.0</ele><time>2026-05-01T12:41:24.001Z</time></trkpt><trkpt lat="45.7575949990825" lon="11.167025495239837"><ele>1187.0</ele><time>2026-05-01T12:41:25.001Z</time></trkpt><trkpt lat="45.75762073174325" lon="11.167229738458108"><ele>1187.0</ele><time>2026-05-01T12:41:26.001Z</time></trkpt><trkpt lat="45.75762999661005" lon="11.167436941901878"><ele>1187.0</ele><time>2026-05-01T12:41:27.001Z</time></trkpt><trkpt lat="45.757624800183606" lon="11.167649089052789"><ele>1187.0</ele><time>2026-05-01T12:41:28.001Z</time></trkpt><trkpt lat="45.757605208686584" lon="11.167863653105789"><ele>1187.5</ele><time>2026-05-01T12:41:29.001Z</time></trkpt><trkpt lat="45.75757542721981" lon="11.168072571990413"><ele>1188.0</ele><time>2026-05-01T12:41:30.001Z</time></trkpt><trkpt lat="45.75754103478771" lon="11.168284544702459"><ele>1188.5</ele><time>2026-05-01T12:41:31.001Z</time></trkpt><trkpt lat="45.7575089809746" lon="11.168486034656905"><ele>1189.0</ele><time>2026-05-01T12:41:32.001Z</time></trkpt><trkpt lat="45.75747734280839" lon="11.16868575074071"><ele>1189.0</ele><time>2026-05-01T12:41:33.001Z</time></trkpt><trkpt lat="45.75744546310333" lon="11.168886111403843"><ele>1189.0</ele><time>2026-05-01T12:41:34.001Z</time></trkpt><trkpt lat="45.75741288154106" lon="11.16909224355318"><ele>1189.0</ele><time>2026-05-01T12:41:35.001Z</time></trkpt><trkpt lat="45.7573830727694" lon="11.169291800299927"><ele>1189.0</ele><time>2026-05-01T12:41:36.001Z</time></trkpt><trkpt lat="45.75735845226633" lon="11.169468205366218"><ele>1189.2</ele><time>2026-05-01T12:41:37.001Z</time></trkpt><trkpt lat="45.757353676251924" lon="11.169628534526714"><ele>1189.4</ele><time>2026-05-01T12:41:38.001Z</time></trkpt><trkpt lat="45.75734909195285" lon="11.169763964636884"><ele>1189.6</ele><time>2026-05-01T12:41:39.001Z</time></trkpt><trkpt lat="45.75736539293139" lon="11.169882317149654"><ele>1189.8</ele><time>2026-05-01T12:41:40.001Z</time></trkpt><trkpt lat="45.75740815724294" lon="11.169976932165941"><ele>1190.0</ele><time>2026-05-01T12:41:41.001Z</time></trkpt><trkpt lat="45.75750055430574" lon="11.170042013353997"><ele>1191.0</ele><time>2026-05-01T12:41:42.001Z</time></trkpt><trkpt lat="45.757658010424" lon="11.170040800651975"><ele>1192.0</ele><time>2026-05-01T12:41:43.001Z</time></trkpt><trkpt lat="45.75781608869909" lon="11.170043617826865"><ele>1193.0</ele><time>2026-05-01T12:41:44.001Z</time></trkpt><trkpt lat="45.75793557925808" lon="11.170180423434061"><ele>1187.3333333333335</ele><time>2026-05-01T12:41:45.001Z</time></trkpt><trkpt lat="45.758020363158266" lon="11.17033223351127"><ele>1181.6666666666667</ele><time>2026-05-01T12:41:46.001Z</time></trkpt><trkpt lat="45.758117602223884" lon="11.170492868819911"><ele>1176.0</ele><time>2026-05-01T12:41:47.001Z</time></trkpt><trkpt lat="45.75823989600134" lon="11.170687258209261"><ele>1175.25</ele><time>2026-05-01T12:41:49.001Z</time></trkpt><trkpt lat="45.75833235470992" lon="11.170820831802878"><ele>1174.5</ele><time>2026-05-01T12:41:50.001Z</time></trkpt><trkpt lat="45.75843962389511" lon="11.170905314536103"><ele>1173.75</ele><time>2026-05-01T12:41:51.001Z</time></trkpt><trkpt lat="45.75855686532721" lon="11.170957951298908"><ele>1173.0</ele><time>2026-05-01T12:41:52.002Z</time></trkpt><trkpt lat="45.7586953088773" lon="11.170978575690588"><ele>1173.0</ele><time>2026-05-01T12:41:53.002Z</time></trkpt><trkpt lat="45.75884875903714" lon="11.170968305367108"><ele>1173.0</ele><time>2026-05-01T12:41:54.002Z</time></trkpt><trkpt lat="45.758986217070834" lon="11.170925016791672"><ele>1173.0</ele><time>2026-05-01T12:41:55.002Z</time></trkpt><trkpt lat="45.759109140134385" lon="11.17087699291134"><ele>1173.0</ele><time>2026-05-01T12:41:56.002Z</time></trkpt><trkpt lat="45.759215944117194" lon="11.17087655845424"><ele>1173.0</ele><time>2026-05-01T12:41:57.002Z</time></trkpt><trkpt lat="45.759292916581806" lon="11.170981040948863"><ele>1173.0</ele><time>2026-05-01T12:41:58.002Z</time></trkpt><trkpt lat="45.759339935627324" lon="11.17109992639341"><ele>1173.0</ele><time>2026-05-01T12:41:59.002Z</time></trkpt><trkpt lat="45.759363308105584" lon="11.171226544255067"><ele>1173.0</ele><time>2026-05-01T12:42:00.002Z</time></trkpt><trkpt lat="45.75936947936386" lon="11.171388196466712"><ele>1173.0</ele><time>2026-05-01T12:42:01.002Z</time></trkpt><trkpt lat="45.75937045838674" lon="11.171602601318227"><ele>1169.75</ele><time>2026-05-01T12:42:02.002Z</time></trkpt><trkpt lat="45.75938669128091" lon="11.171814183928216"><ele>1166.5</ele><time>2026-05-01T12:42:03.002Z</time></trkpt><trkpt lat="45.75944733060442" lon="11.171984292139927"><ele>1163.25</ele><time>2026-05-01T12:42:04.002Z</time></trkpt><trkpt lat="45.75951209169716" lon="11.172125787821583"><ele>1160.0</ele><time>2026-05-01T12:42:05.002Z</time></trkpt><trkpt lat="45.759614900687566" lon="11.172217092017062"><ele>1160.0</ele><time>2026-05-01T12:42:06.002Z</time></trkpt><trkpt lat="45.75974821309405" lon="11.172267113986164"><ele>1160.0</ele><time>2026-05-01T12:42:07.002Z</time></trkpt><trkpt lat="45.759874453652536" lon="11.17229902633603"><ele>1160.0</ele><time>2026-05-01T12:42:08.002Z</time></trkpt><trkpt lat="45.759982849676824" lon="11.172365924746714"><ele>1160.0</ele><time>2026-05-01T12:42:09.002Z</time></trkpt><trkpt lat="45.76004821922868" lon="11.172498820896552"><ele>1160.6</ele><time>2026-05-01T12:42:10.002Z</time></trkpt><trkpt lat="45.760111924870436" lon="11.172608675578145"><ele>1161.2</ele><time>2026-05-01T12:42:11.002Z</time></trkpt><trkpt lat="45.76017782936978" lon="11.172694057319461"><ele>1161.8</ele><time>2026-05-01T12:42:12.002Z</time></trkpt><trkpt lat="45.76022809172748" lon="11.172767209248729"><ele>1162.4</ele><time>2026-05-01T12:42:13.002Z</time></trkpt><trkpt lat="45.760284101806384" lon="11.172874557654307"><ele>1163.0</ele><time>2026-05-01T12:42:15.002Z</time></trkpt><trkpt lat="45.76046165322022" lon="11.17282504460755"><ele>1163.3333333333335</ele><time>2026-05-01T12:42:18.001Z</time></trkpt><trkpt lat="45.760506805932195" lon="11.172727483880129"><ele>1163.6666666666667</ele><time>2026-05-01T12:42:20.001Z</time></trkpt><trkpt lat="45.7605454578538" lon="11.172644116945124"><ele>1164.0</ele><time>2026-05-01T12:42:22.001Z</time></trkpt><trkpt lat="45.76059527401891" lon="11.172539367546374"><ele>1164.3333333333333</ele><time>2026-05-01T12:42:25.001Z</time></trkpt><trkpt lat="45.7606351456693" lon="11.172459839395891"><ele>1164.6666666666665</ele><time>2026-05-01T12:42:28.001Z</time></trkpt><trkpt lat="45.760552508478426" lon="11.172530992866578"><ele>1165.0</ele><time>2026-05-01T12:42:32.001Z</time></trkpt><trkpt lat="45.760497626298715" lon="11.172579141571694"><ele>1165.0</ele><time>2026-05-01T12:42:34.001Z</time></trkpt><trkpt lat="45.760443833078696" lon="11.172649477164862"><ele>1165.0</ele><time>2026-05-01T12:48:30Z</time></trkpt><trkpt lat="45.760378454660426" lon="11.172708533111097"><ele>1165.0</ele><time>2026-05-01T12:48:34.001Z</time></trkpt><trkpt lat="45.76045899728855" lon="11.172770182444358"><ele>1165.0</ele><time>2026-05-01T12:49:29Z</time></trkpt><trkpt lat="45.76062606000354" lon="11.172528143318067"><ele>1165.0</ele><time>2026-05-01T12:49:33Z</time></trkpt><trkpt lat="45.76066180452394" lon="11.172438225540077"><ele>1165.0</ele><time>2026-05-01T12:49:34Z</time></trkpt><trkpt lat="45.76070519317069" lon="11.172354296996149"><ele>1165.0</ele><time>2026-05-01T12:49:35Z</time></trkpt><trkpt lat="45.76075490866745" lon="11.172273157905156"><ele>1165.0</ele><time>2026-05-01T12:49:36Z</time></trkpt><trkpt lat="45.76081067216923" lon="11.172198785331934"><ele>1165.0</ele><time>2026-05-01T12:49:37Z</time></trkpt><trkpt lat="45.76087448533157" lon="11.172124460000578"><ele>1165.0</ele><time>2026-05-01T12:49:38Z</time></trkpt><trkpt lat="45.76095111388345" lon="11.172045412688414"><ele>1165.0</ele><time>2026-05-01T12:49:39Z</time></trkpt><trkpt lat="45.76103757119043" lon="11.171984034751167"><ele>1165.0</ele><time>2026-05-01T12:49:40Z</time></trkpt><trkpt lat="45.76112496196509" lon="11.171946739599488"><ele>1165.0</ele><time>2026-05-01T12:49:41Z</time></trkpt><trkpt lat="45.761226707227195" lon="11.171918158467943"><ele>1165.0</ele><time>2026-05-01T12:49:42Z</time></trkpt><trkpt lat="45.76134251722403" lon="11.171900988351169"><ele>1165.0</ele><time>2026-05-01T12:49:43Z</time></trkpt><trkpt lat="45.761455479357345" lon="11.171864815631682"><ele>1165.0</ele><time>2026-05-01T12:49:44Z</time></trkpt><trkpt lat="45.76157297629286" lon="11.171806069701969"><ele>1165.0</ele><time>2026-05-01T12:49:45Z</time></trkpt><trkpt lat="45.76169408648576" lon="11.171746691684124"><ele>1165.0</ele><time>2026-05-01T12:49:46Z</time></trkpt><trkpt lat="45.76181478569982" lon="11.171660541377525"><ele>1165.0</ele><time>2026-05-01T12:49:47Z</time></trkpt><trkpt lat="45.761935654637924" lon="11.171578140519625"><ele>1164.6666666666665</ele><time>2026-05-01T12:49:48Z</time></trkpt><trkpt lat="45.76207415226704" lon="11.171494546853179"><ele>1164.3333333333333</ele><time>2026-05-01T12:49:49Z</time></trkpt><trkpt lat="45.76218434139227" lon="11.171325962769378"><ele>1164.0</ele><time>2026-05-01T12:49:50Z</time></trkpt><trkpt lat="45.76230008653358" lon="11.171166280184943"><ele>1164.0</ele><time>2026-05-01T12:49:51Z</time></trkpt><trkpt lat="45.76242005905973" lon="11.171019218651583"><ele>1164.0</ele><time>2026-05-01T12:49:52Z</time></trkpt><trkpt lat="45.76253698486605" lon="11.170863222464053"><ele>1164.0</ele><time>2026-05-01T12:49:53Z</time></trkpt><trkpt lat="45.762646926881786" lon="11.170696587341487"><ele>1165.0</ele><time>2026-05-01T12:49:54Z</time></trkpt><trkpt lat="45.762756592928206" lon="11.170519795193188"><ele>1166.0</ele><time>2026-05-01T12:49:55Z</time></trkpt><trkpt lat="45.76285623122965" lon="11.17033350265518"><ele>1167.0</ele><time>2026-05-01T12:49:56Z</time></trkpt><trkpt lat="45.76293469863349" lon="11.170130227205545"><ele>1167.0</ele><time>2026-05-01T12:49:57Z</time></trkpt><trkpt lat="45.763006323140075" lon="11.169929781219723"><ele>1167.0</ele><time>2026-05-01T12:49:58Z</time></trkpt><trkpt lat="45.763067617265996" lon="11.16971976143919"><ele>1167.0</ele><time>2026-05-01T12:49:59Z</time></trkpt><trkpt lat="45.763111582997205" lon="11.169526274355945"><ele>1164.0</ele><time>2026-05-01T12:50:00Z</time></trkpt><trkpt lat="45.76312969000192" lon="11.169327652101993"><ele>1161.0</ele><time>2026-05-01T12:50:01Z</time></trkpt><trkpt lat="45.7631135329447" lon="11.16913631765909"><ele>1158.0</ele><time>2026-05-01T12:50:02Z</time></trkpt><trkpt lat="45.76309720176597" lon="11.168944016069025"><ele>1155.0</ele><time>2026-05-01T12:50:03Z</time></trkpt><trkpt lat="45.76310635794167" lon="11.168756829907393"><ele>1152.5</ele><time>2026-05-01T12:50:04Z</time></trkpt><trkpt lat="45.76315341657816" lon="11.168578742214093"><ele>1150.0</ele><time>2026-05-01T12:50:05Z</time></trkpt><trkpt lat="45.76322214663985" lon="11.168412580015222"><ele>1147.5</ele><time>2026-05-01T12:50:06Z</time></trkpt><trkpt lat="45.76331474669692" lon="11.168261709154574"><ele>1145.0</ele><time>2026-05-01T12:50:07Z</time></trkpt><trkpt lat="45.76342245200807" lon="11.168124176814251"><ele>1143.0</ele><time>2026-05-01T12:50:08Z</time></trkpt><trkpt lat="45.763525102246945" lon="11.168000474299081"><ele>1141.0</ele><time>2026-05-01T12:50:09Z</time></trkpt><trkpt lat="45.76361252427763" lon="11.167878059949642"><ele>1139.0</ele><time>2026-05-01T12:50:10Z</time></trkpt><trkpt lat="45.763662118208394" lon="11.167717075495663"><ele>1137.0</ele><time>2026-05-01T12:50:11Z</time></trkpt><trkpt lat="45.76368096527753" lon="11.167530155222995"><ele>1147.5</ele><time>2026-05-01T12:50:12Z</time></trkpt><trkpt lat="45.76366022909753" lon="11.167330353044141"><ele>1158.0</ele><time>2026-05-01T12:50:13Z</time></trkpt><trkpt lat="45.763632059349916" lon="11.167140346699917"><ele>1168.5</ele><time>2026-05-01T12:50:14Z</time></trkpt><trkpt lat="45.76359102188893" lon="11.16692780549807"><ele>1179.0</ele><time>2026-05-01T12:50:15Z</time></trkpt><trkpt lat="45.76357273200833" lon="11.166674579850314"><ele>1160.5</ele><time>2026-05-01T12:50:16Z</time></trkpt><trkpt lat="45.763524803964366" lon="11.166374309270799"><ele>1142.0</ele><time>2026-05-01T12:50:17Z</time></trkpt><trkpt lat="45.76346428801654" lon="11.166043673607962"><ele>1142.0</ele><time>2026-05-01T12:50:18Z</time></trkpt><trkpt lat="45.763357407513084" lon="11.165703691374206"><ele>1142.0</ele><time>2026-05-01T12:50:19Z</time></trkpt><trkpt lat="45.76327748298385" lon="11.165349720052854"><ele>1148.0</ele><time>2026-05-01T12:50:20Z</time></trkpt><trkpt lat="45.7631992032861" lon="11.164997062704895"><ele>1154.0</ele><time>2026-05-01T12:50:21Z</time></trkpt><trkpt lat="45.76314269287431" lon="11.16466274996264"><ele>1158.0</ele><time>2026-05-01T12:50:22Z</time></trkpt><trkpt lat="45.76306745225593" lon="11.164345721704658"><ele>1162.0</ele><time>2026-05-01T12:50:23Z</time></trkpt><trkpt lat="45.76297142905894" lon="11.164037746811097"><ele>1164.0</ele><time>2026-05-01T12:50:24Z</time></trkpt><trkpt lat="45.762904830095934" lon="11.163719080668525"><ele>1166.0</ele><time>2026-05-01T12:50:25Z</time></trkpt><trkpt lat="45.76281548579784" lon="11.163402897974905"><ele>1168.5</ele><time>2026-05-01T12:50:26Z</time></trkpt><trkpt lat="45.76273748234037" lon="11.163092745147912"><ele>1171.0</ele><time>2026-05-01T12:50:27Z</time></trkpt><trkpt lat="45.76267649829517" lon="11.162763535794452"><ele>1151.0</ele><time>2026-05-01T12:50:28Z</time></trkpt><trkpt lat="45.76260652146695" lon="11.162444799568778"><ele>1131.0</ele><time>2026-05-01T12:50:29Z</time></trkpt><trkpt lat="45.762531599733926" lon="11.162152114935061"><ele>1130.6666666666667</ele><time>2026-05-01T12:50:30Z</time></trkpt><trkpt lat="45.76248576499574" lon="11.161853984509369"><ele>1130.3333333333335</ele><time>2026-05-01T12:50:31Z</time></trkpt><trkpt lat="45.762446233208934" lon="11.16157080571393"><ele>1130.0</ele><time>2026-05-01T12:50:32Z</time></trkpt><trkpt lat="45.76240834663654" lon="11.161310620533069"><ele>1130.0</ele><time>2026-05-01T12:50:33Z</time></trkpt><trkpt lat="45.762362126701404" lon="11.161077364604422"><ele>1130.0</ele><time>2026-05-01T12:50:34Z</time></trkpt><trkpt lat="45.762301983921134" lon="11.160853667614434"><ele>1130.0</ele><time>2026-05-01T12:50:35Z</time></trkpt><trkpt lat="45.7622115189671" lon="11.160661264832648"><ele>1128.3333333333335</ele><time>2026-05-01T12:50:36Z</time></trkpt><trkpt lat="45.76209444318135" lon="11.160491229576145"><ele>1126.6666666666667</ele><time>2026-05-01T12:50:37Z</time></trkpt><trkpt lat="45.7620062779866" lon="11.160287150758734"><ele>1125.0</ele><time>2026-05-01T12:50:38Z</time></trkpt><trkpt lat="45.76193643209385" lon="11.160102100230162"><ele>1125.0</ele><time>2026-05-01T12:50:39Z</time></trkpt><trkpt lat="45.761907227313024" lon="11.159933501832965"><ele>1125.0</ele><time>2026-05-01T12:50:40Z</time></trkpt><trkpt lat="45.76190407354034" lon="11.159770647785818"><ele>1125.0</ele><time>2026-05-01T12:50:41Z</time></trkpt><trkpt lat="45.7619069408179" lon="11.159619561194184"><ele>1125.0</ele><time>2026-05-01T12:50:42Z</time></trkpt><trkpt lat="45.76194688090934" lon="11.159516037890015"><ele>1125.0</ele><time>2026-05-01T12:50:43Z</time></trkpt><trkpt lat="45.76202157903746" lon="11.159456278475474"><ele>1122.75</ele><time>2026-05-01T12:50:44Z</time></trkpt><trkpt lat="45.7621342578742" lon="11.159403884315452"><ele>1120.5</ele><time>2026-05-01T12:50:45Z</time></trkpt><trkpt lat="45.7622400679491" lon="11.159318086701042"><ele>1118.25</ele><time>2026-05-01T12:50:46Z</time></trkpt><trkpt lat="45.76234730271645" lon="11.159205554800248"><ele>1116.0</ele><time>2026-05-01T12:50:47Z</time></trkpt><trkpt lat="45.76246076550456" lon="11.159056177221185"><ele>1113.3333333333333</ele><time>2026-05-01T12:50:48Z</time></trkpt><trkpt lat="45.76256867209802" lon="11.15888159917079"><ele>1110.6666666666665</ele><time>2026-05-01T12:50:49Z</time></trkpt><trkpt lat="45.762679987909934" lon="11.158684652556323"><ele>1108.0</ele><time>2026-05-01T12:50:50Z</time></trkpt><trkpt lat="45.76278481021381" lon="11.158497972797761"><ele>1108.0</ele><time>2026-05-01T12:50:51Z</time></trkpt><trkpt lat="45.76287372422733" lon="11.158338646872638"><ele>1108.0</ele><time>2026-05-01T12:50:52Z</time></trkpt><trkpt lat="45.76296500562873" lon="11.15819443986967"><ele>1108.0</ele><time>2026-05-01T12:50:53Z</time></trkpt><trkpt lat="45.76308677898565" lon="11.158122420680492"><ele>1108.0</ele><time>2026-05-01T12:50:54Z</time></trkpt><trkpt lat="45.76322824145743" lon="11.158128570832684"><ele>1104.25</ele><time>2026-05-01T12:50:55Z</time></trkpt><trkpt lat="45.76337850538808" lon="11.158107569213676"><ele>1100.5</ele><time>2026-05-01T12:50:56Z</time></trkpt><trkpt lat="45.76351376667177" lon="11.158064964627847"><ele>1096.75</ele><time>2026-05-01T12:50:57Z</time></trkpt><trkpt lat="45.763636540904336" lon="11.157957263266956"><ele>1093.0</ele><time>2026-05-01T12:50:58Z</time></trkpt><trkpt lat="45.763738004572616" lon="11.157764759714158"><ele>1093.0</ele><time>2026-05-01T12:50:59Z</time></trkpt><trkpt lat="45.76380596282644" lon="11.157558468882478"><ele>1093.0</ele><time>2026-05-01T12:51:00Z</time></trkpt><trkpt lat="45.76385254254317" lon="11.157375775150456"><ele>1093.0</ele><time>2026-05-01T12:51:01Z</time></trkpt><trkpt lat="45.763930602353106" lon="11.157241323428051"><ele>1093.0</ele><time>2026-05-01T12:51:02Z</time></trkpt><trkpt lat="45.764050971202906" lon="11.157201505256905"><ele>1084.0</ele><time>2026-05-01T12:51:03Z</time></trkpt><trkpt lat="45.764175560920556" lon="11.157218793121999"><ele>1075.0</ele><time>2026-05-01T12:51:04Z</time></trkpt><trkpt lat="45.764336084744826" lon="11.157239828109548"><ele>1066.0</ele><time>2026-05-01T12:51:05Z</time></trkpt><trkpt lat="45.76451794657714" lon="11.157291589265581"><ele>1071.3333333333333</ele><time>2026-05-01T12:51:06Z</time></trkpt><trkpt lat="45.76469282550508" lon="11.157388497468409"><ele>1076.6666666666667</ele><time>2026-05-01T12:51:07Z</time></trkpt><trkpt lat="45.76485740235535" lon="11.157454917107081"><ele>1082.0</ele><time>2026-05-01T12:51:08Z</time></trkpt><trkpt lat="45.764998982059076" lon="11.157516722520748"><ele>1082.0</ele><time>2026-05-01T12:51:09Z</time></trkpt><trkpt lat="45.7651333797716" lon="11.157522448623181"><ele>1082.0</ele><time>2026-05-01T12:51:10Z</time></trkpt><trkpt lat="45.765257841209646" lon="11.157472958035948"><ele>1082.0</ele><time>2026-05-01T12:51:11Z</time></trkpt><trkpt lat="45.76534709325692" lon="11.157355101430253"><ele>1082.0</ele><time>2026-05-01T12:51:12Z</time></trkpt><trkpt lat="45.76541336985124" lon="11.157185654919626"><ele>1079.0</ele><time>2026-05-01T12:51:13Z</time></trkpt><trkpt lat="45.765433046263375" lon="11.157026301713087"><ele>1076.0</ele><time>2026-05-01T12:51:14Z</time></trkpt><trkpt lat="45.765378794609695" lon="11.156877676638887"><ele>1073.0</ele><time>2026-05-01T12:51:15Z</time></trkpt><trkpt lat="45.76529298088603" lon="11.156770301675287"><ele>1070.0</ele><time>2026-05-01T12:51:16Z</time></trkpt><trkpt lat="45.76517129952308" lon="11.15672104254783"><ele>1069.0</ele><time>2026-05-01T12:51:17Z</time></trkpt><trkpt lat="45.76508120846252" lon="11.15668619618323"><ele>1068.0</ele><time>2026-05-01T12:51:18Z</time></trkpt><trkpt lat="45.76505270847499" lon="11.156573697523868"><ele>1067.0</ele><time>2026-05-01T12:51:19Z</time></trkpt><trkpt lat="45.76508509048346" lon="11.156426897821458"><ele>1066.0</ele><time>2026-05-01T12:51:20Z</time></trkpt><trkpt lat="45.76519463180763" lon="11.156333748407416"><ele>1065.0</ele><time>2026-05-01T12:51:21Z</time></trkpt><trkpt lat="45.76531936155047" lon="11.156182240774834"><ele>1061.6666666666667</ele><time>2026-05-01T12:51:22Z</time></trkpt><trkpt lat="45.76545850634995" lon="11.155988295807047"><ele>1058.3333333333335</ele><time>2026-05-01T12:51:23Z</time></trkpt><trkpt lat="45.76563271026639" lon="11.155895959912797"><ele>1055.0</ele><time>2026-05-01T12:51:24Z</time></trkpt><trkpt lat="45.7657897518905" lon="11.155769920246257"><ele>1047.3333333333335</ele><time>2026-05-01T12:51:25Z</time></trkpt><trkpt lat="45.765938215237775" lon="11.155638818191042"><ele>1039.6666666666667</ele><time>2026-05-01T12:51:26Z</time></trkpt><trkpt lat="45.76604235248015" lon="11.155462752621892"><ele>1032.0</ele><time>2026-05-01T12:51:27Z</time></trkpt><trkpt lat="45.76614187985146" lon="11.155328844475655"><ele>1031.5</ele><time>2026-05-01T12:51:28Z</time></trkpt><trkpt lat="45.7662451902132" lon="11.155258340756466"><ele>1031.0</ele><time>2026-05-01T12:51:29Z</time></trkpt><trkpt lat="45.76636887483867" lon="11.155272764491691"><ele>1030.5</ele><time>2026-05-01T12:51:30Z</time></trkpt><trkpt lat="45.76650916097843" lon="11.15529096831888"><ele>1030.0</ele><time>2026-05-01T12:51:31Z</time></trkpt><trkpt lat="45.76665968068964" lon="11.155267891439204"><ele>1030.0</ele><time>2026-05-01T12:51:32Z</time></trkpt><trkpt lat="45.76678930671813" lon="11.15529432953208"><ele>1030.0</ele><time>2026-05-01T12:51:33Z</time></trkpt><trkpt lat="45.76691093587144" lon="11.15533994940407"><ele>1030.0</ele><time>2026-05-01T12:51:34Z</time></trkpt><trkpt lat="45.76702188009128" lon="11.15542674951127"><ele>1030.0</ele><time>2026-05-01T12:51:35Z</time></trkpt><trkpt lat="45.767115890448245" lon="11.155509520678484"><ele>1029.2</ele><time>2026-05-01T12:51:36Z</time></trkpt><trkpt lat="45.76717603465903" lon="11.15560820587118"><ele>1028.4</ele><time>2026-05-01T12:51:37Z</time></trkpt><trkpt lat="45.76722348706485" lon="11.155723065832253"><ele>1027.6</ele><time>2026-05-01T12:51:38Z</time></trkpt><trkpt lat="45.76720757623416" lon="11.155869023588156"><ele>1026.8</ele><time>2026-05-01T12:51:39Z</time></trkpt><trkpt lat="45.76712393533697" lon="11.155999065154548"><ele>1026.0</ele><time>2026-05-01T12:51:40Z</time></trkpt><trkpt lat="45.76703353928055" lon="11.156156627506613"><ele>1026.0</ele><time>2026-05-01T12:51:41Z</time></trkpt><trkpt lat="45.7669536042509" lon="11.156355550394025"><ele>1026.0</ele><time>2026-05-01T12:51:42Z</time></trkpt><trkpt lat="45.76688685413006" lon="11.156585273898244"><ele>1026.0</ele><time>2026-05-01T12:51:43Z</time></trkpt><trkpt lat="45.766791076279794" lon="11.156798010222879"><ele>1029.3333333333333</ele><time>2026-05-01T12:51:44Z</time></trkpt><trkpt lat="45.7667129021054" lon="11.157028362257407"><ele>1032.6666666666665</ele><time>2026-05-01T12:51:45Z</time></trkpt><trkpt lat="45.766660081978145" lon="11.157271069068418"><ele>1036.0</ele><time>2026-05-01T12:51:46Z</time></trkpt><trkpt lat="45.76663008584179" lon="11.1574908521015"><ele>1036.0</ele><time>2026-05-01T12:51:47Z</time></trkpt><trkpt lat="45.766617251331276" lon="11.157693201499526"><ele>1036.0</ele><time>2026-05-01T12:51:48Z</time></trkpt><trkpt lat="45.76668698134427" lon="11.15789732554883"><ele>1036.0</ele><time>2026-05-01T12:51:49Z</time></trkpt><trkpt lat="45.76677543245881" lon="11.15805310572729"><ele>1036.0</ele><time>2026-05-01T12:51:50Z</time></trkpt><trkpt lat="45.76689862865047" lon="11.158146807696673"><ele>1030.3333333333333</ele><time>2026-05-01T12:51:51Z</time></trkpt><trkpt lat="45.767015551833865" lon="11.158222562345049"><ele>1024.6666666666667</ele><time>2026-05-01T12:51:52Z</time></trkpt><trkpt lat="45.76718688892708" lon="11.158231736544689"><ele>1019.0</ele><time>2026-05-01T12:51:53Z</time></trkpt><trkpt lat="45.76735937069615" lon="11.158142043062522"><ele>1013.6666666666667</ele><time>2026-05-01T12:51:54Z</time></trkpt><trkpt lat="45.767531525157196" lon="11.158046178361676"><ele>1008.3333333333333</ele><time>2026-05-01T12:51:55Z</time></trkpt><trkpt lat="45.767721911719995" lon="11.157991653337039"><ele>1003.0</ele><time>2026-05-01T12:51:56Z</time></trkpt><trkpt lat="45.76792336294368" lon="11.15795639242525"><ele>998.0</ele><time>2026-05-01T12:51:57Z</time></trkpt><trkpt lat="45.76811921932004" lon="11.15792381249384"><ele>993.0</ele><time>2026-05-01T12:51:58Z</time></trkpt><trkpt lat="45.76830075642035" lon="11.15789490316711"><ele>988.0</ele><time>2026-05-01T12:51:59Z</time></trkpt><trkpt lat="45.768480998211814" lon="11.157852116908076"><ele>987.75</ele><time>2026-05-01T12:52:00Z</time></trkpt><trkpt lat="45.76864105981058" lon="11.157847498889463"><ele>987.5</ele><time>2026-05-01T12:52:01Z</time></trkpt><trkpt lat="45.768789857623624" lon="11.157847227917632"><ele>987.25</ele><time>2026-05-01T12:52:02Z</time></trkpt><trkpt lat="45.76892172959279" lon="11.157793321156804"><ele>987.0</ele><time>2026-05-01T12:52:03Z</time></trkpt><trkpt lat="45.76904240554737" lon="11.157693070098906"><ele>987.0</ele><time>2026-05-01T12:52:04Z</time></trkpt><trkpt lat="45.76915341579211" lon="11.157567555312808"><ele>987.0</ele><time>2026-05-01T12:52:05Z</time></trkpt><trkpt lat="45.76926506951933" lon="11.15747972249342"><ele>987.0</ele><time>2026-05-01T12:52:06Z</time></trkpt><trkpt lat="45.769344276700345" lon="11.157415262960956"><ele>987.0</ele><time>2026-05-01T12:52:07Z</time></trkpt><trkpt lat="45.76942684639485" lon="11.157415724610381"><ele>987.0</ele><time>2026-05-01T12:52:08Z</time></trkpt><trkpt lat="45.76951047487871" lon="11.157473354163923"><ele>984.25</ele><time>2026-05-01T12:52:09Z</time></trkpt><trkpt lat="45.76959841689417" lon="11.157592965402186"><ele>981.5</ele><time>2026-05-01T12:52:10Z</time></trkpt><trkpt lat="45.76970442685884" lon="11.157736403081614"><ele>978.75</ele><time>2026-05-01T12:52:11Z</time></trkpt><trkpt lat="45.76982255888183" lon="11.157849744216795"><ele>976.0</ele><time>2026-05-01T12:52:12Z</time></trkpt><trkpt lat="45.76994915442539" lon="11.157907059989425"><ele>976.0</ele><time>2026-05-01T12:52:13Z</time></trkpt><trkpt lat="45.770074659868925" lon="11.157929694119721"><ele>976.0</ele><time>2026-05-01T12:52:14Z</time></trkpt><trkpt lat="45.77019879959413" lon="11.157947784542216"><ele>976.0</ele><time>2026-05-01T12:52:15Z</time></trkpt><trkpt lat="45.7703015787698" lon="11.157895382633606"><ele>976.0</ele><time>2026-05-01T12:52:16.019Z</time></trkpt><trkpt lat="45.77037737383472" lon="11.157823297501725"><ele>979.3333333333333</ele><time>2026-05-01T12:52:17.021Z</time></trkpt><trkpt lat="45.77042046117016" lon="11.157744580862053"><ele>982.6666666666667</ele><time>2026-05-01T12:52:18.015Z</time></trkpt><trkpt lat="45.77050086738345" lon="11.15764714643008"><ele>986.0</ele><time>2026-05-01T12:52:19.023Z</time></trkpt><trkpt lat="45.76668698134427" lon="11.15789732554883"><ele>990.25</ele><time>2026-05-01T12:51:49Z</time></trkpt><trkpt lat="45.76677543245881" lon="11.15805310572729"><ele>994.5</ele><time>2026-05-01T12:51:50Z</time></trkpt><trkpt lat="45.76689862865047" lon="11.158146807696673"><ele>998.75</ele><time>2026-05-01T12:51:51Z</time></trkpt><trkpt lat="45.767015551833865" lon="11.158222562345049"><ele>1003.0</ele><time>2026-05-01T12:51:52Z</time></trkpt><trkpt lat="45.76718688892708" lon="11.158231736544689"><ele>1003.0</ele><time>2026-05-01T12:51:53Z</time></trkpt><trkpt lat="45.76735937069615" lon="11.158142043062522"><ele>1003.0</ele><time>2026-05-01T12:51:54Z</time></trkpt><trkpt lat="45.767531525157196" lon="11.158046178361676"><ele>1003.0</ele><time>2026-05-01T12:51:55Z</time></trkpt><trkpt lat="45.767721911719995" lon="11.157991653337039"><ele>998.0</ele><time>2026-05-01T12:51:56Z</time></trkpt><trkpt lat="45.76792336294368" lon="11.15795639242525"><ele>993.0</ele><time>2026-05-01T12:51:57Z</time></trkpt><trkpt lat="45.76811921932004" lon="11.15792381249384"><ele>988.0</ele><time>2026-05-01T12:51:58Z</time></trkpt><trkpt lat="45.76830075642035" lon="11.15789490316711"><ele>988.0</ele><time>2026-05-01T12:51:59Z</time></trkpt><trkpt lat="45.768480998211814" lon="11.157852116908076"><ele>988.0</ele><time>2026-05-01T12:52:00Z</time></trkpt><trkpt lat="45.76864105981058" lon="11.157847498889463"><ele>988.0</ele><time>2026-05-01T12:52:01Z</time></trkpt><trkpt lat="45.768789857623624" lon="11.157847227917632"><ele>987.75</ele><time>2026-05-01T12:52:02Z</time></trkpt><trkpt lat="45.76892172959279" lon="11.157793321156804"><ele>987.5</ele><time>2026-05-01T12:52:03Z</time></trkpt><trkpt lat="45.76904240554737" lon="11.157693070098906"><ele>987.25</ele><time>2026-05-01T12:52:04Z</time></trkpt><trkpt lat="45.76915341579211" lon="11.157567555312808"><ele>987.0</ele><time>2026-05-01T12:52:05Z</time></trkpt><trkpt lat="45.76926506951933" lon="11.15747972249342"><ele>987.0</ele><time>2026-05-01T12:52:06Z</time></trkpt><trkpt lat="45.769344276700345" lon="11.157415262960956"><ele>987.0</ele><time>2026-05-01T12:52:07Z</time></trkpt><trkpt lat="45.76942684639485" lon="11.157415724610381"><ele>987.0</ele><time>2026-05-01T12:52:08Z</time></trkpt><trkpt lat="45.76951047487871" lon="11.157473354163923"><ele>987.0</ele><time>2026-05-01T12:52:09Z</time></trkpt><trkpt lat="45.76959841689417" lon="11.157592965402186"><ele>987.0</ele><time>2026-05-01T12:52:10Z</time></trkpt><trkpt lat="45.76970442685884" lon="11.157736403081614"><ele>986.75</ele><time>2026-05-01T12:52:11Z</time></trkpt><trkpt lat="45.76982255888183" lon="11.157849744216795"><ele>986.5</ele><time>2026-05-01T12:52:12Z</time></trkpt><trkpt lat="45.76994915442539" lon="11.157907059989425"><ele>986.25</ele><time>2026-05-01T12:52:13Z</time></trkpt><trkpt lat="45.770074659868925" lon="11.157929694119721"><ele>986.0</ele><time>2026-05-01T12:52:14Z</time></trkpt><trkpt lat="45.77019879959413" lon="11.157947784542216"><ele>986.0</ele><time>2026-05-01T12:52:15Z</time></trkpt><trkpt lat="45.7703015787698" lon="11.157895382633606"><ele>985.9999999999999</ele><time>2026-05-01T12:52:16.019Z</time></trkpt><trkpt lat="45.77037737383472" lon="11.157823297501725"><ele>985.9999999999999</ele><time>2026-05-01T12:52:17.021Z</time></trkpt><trkpt lat="45.77042046117016" lon="11.157744580862053"><ele>986.0</ele><time>2026-05-01T12:52:18.015Z</time></trkpt><trkpt lat="45.77050086738345" lon="11.15764714643008"><ele>986.0</ele><time>2026-05-01T12:52:19.023Z</time></trkpt><trkpt lat="45.77059064312481" lon="11.157556106302296"><ele>950.0</ele><time>2026-05-01T12:52:20Z</time></trkpt><trkpt lat="45.77088942349208" lon="11.157043176936265"><ele>950.0</ele><time>2026-05-01T12:52:21Z</time></trkpt><trkpt lat="45.770999569666174" lon="11.156960073015995"><ele>950.0</ele><time>2026-05-01T12:52:22Z</time></trkpt><trkpt lat="45.77109666456229" lon="11.156958037070922"><ele>950.0</ele><time>2026-05-01T12:52:23Z</time></trkpt><trkpt lat="45.771233400151736" lon="11.156938889232851"><ele>950.0</ele><time>2026-05-01T12:52:24Z</time></trkpt><trkpt lat="45.77136645393683" lon="11.156988741179473"><ele>944.5</ele><time>2026-05-01T12:52:25Z</time></trkpt><trkpt lat="45.77162216681331" lon="11.157081620266755"><ele>939.0</ele><time>2026-05-01T12:52:26Z</time></trkpt><trkpt lat="45.77182583792933" lon="11.157135012224082"><ele>933.6666666666667</ele><time>2026-05-01T12:52:27Z</time></trkpt><trkpt lat="45.77203071100561" lon="11.157159392285367"><ele>928.3333333333334</ele><time>2026-05-01T12:52:28Z</time></trkpt><trkpt lat="45.77222779770709" lon="11.15715311920399"><ele>923.0</ele><time>2026-05-01T12:52:29Z</time></trkpt><trkpt lat="45.772405380257084" lon="11.157189094178465"><ele>923.0</ele><time>2026-05-01T12:52:30Z</time></trkpt><trkpt lat="45.77260040703989" lon="11.157230448606452"><ele>923.0</ele><time>2026-05-01T12:52:31Z</time></trkpt><trkpt lat="45.77279395939143" lon="11.157243848775252"><ele>923.0</ele><time>2026-05-01T12:52:32Z</time></trkpt><trkpt lat="45.77298212480984" lon="11.157270466026166"><ele>922.6666666666667</ele><time>2026-05-01T12:52:33Z</time></trkpt><trkpt lat="45.77314735778345" lon="11.157309167275104"><ele>922.3333333333333</ele><time>2026-05-01T12:52:34Z</time></trkpt><trkpt lat="45.77326019908732" lon="11.157403795620958"><ele>922.0</ele><time>2026-05-01T12:52:35Z</time></trkpt><trkpt lat="45.773407431054515" lon="11.157488128143438"><ele>927.5</ele><time>2026-05-01T12:52:36Z</time></trkpt><trkpt lat="45.77354786658515" lon="11.157541897890342"><ele>933.0</ele><time>2026-05-01T12:52:37Z</time></trkpt><trkpt lat="45.77367347457341" lon="11.157526086476725"><ele>938.5</ele><time>2026-05-01T12:52:38Z</time></trkpt><trkpt lat="45.77378397752552" lon="11.15739352051606"><ele>944.0</ele><time>2026-05-01T12:52:39Z</time></trkpt><trkpt lat="45.773916374481715" lon="11.157339518264083"><ele>944.0</ele><time>2026-05-01T12:52:40Z</time></trkpt><trkpt lat="45.77401070838771" lon="11.157205777907743"><ele>944.0</ele><time>2026-05-01T12:52:41Z</time></trkpt><trkpt lat="45.77408858329769" lon="11.157061688206793"><ele>944.0</ele><time>2026-05-01T12:52:42Z</time></trkpt><trkpt lat="45.77414316013278" lon="11.15688420916487"><ele>944.0</ele><time>2026-05-01T12:52:43Z</time></trkpt><trkpt lat="45.774157570533795" lon="11.156692104251059"><ele>954.25</ele><time>2026-05-01T12:52:44Z</time></trkpt><trkpt lat="45.7741253762142" lon="11.156492795379554"><ele>964.5</ele><time>2026-05-01T12:52:45Z</time></trkpt><trkpt lat="45.7740572656554" lon="11.15630414525282"><ele>974.75</ele><time>2026-05-01T12:52:46Z</time></trkpt><trkpt lat="45.77398860609985" lon="11.156123175701506"><ele>985.0</ele><time>2026-05-01T12:52:47Z</time></trkpt><trkpt lat="45.773951280630634" lon="11.155950535269156"><ele>985.0</ele><time>2026-05-01T12:52:48Z</time></trkpt><trkpt lat="45.773887236474174" lon="11.155780904694705"><ele>985.0</ele><time>2026-05-01T12:52:49Z</time></trkpt><trkpt lat="45.77382563639297" lon="11.155646392815422"><ele>985.0</ele><time>2026-05-01T12:52:50Z</time></trkpt><trkpt lat="45.77376933084331" lon="11.155525344233622"><ele>985.0</ele><time>2026-05-01T12:52:51Z</time></trkpt><trkpt lat="45.77371191027135" lon="11.155404981486292"><ele>986.9999999999999</ele><time>2026-05-01T12:52:52Z</time></trkpt><trkpt lat="45.77366174474221" lon="11.155300797491279"><ele>989.0</ele><time>2026-05-01T12:52:53Z</time></trkpt><trkpt lat="45.77359937966971" lon="11.155230358963705"><ele>991.0</ele><time>2026-05-01T12:52:54Z</time></trkpt><trkpt lat="45.77352599862951" lon="11.155181652442732"><ele>993.0</ele><time>2026-05-01T12:52:55Z</time></trkpt><trkpt lat="45.77344324582684" lon="11.15515810629162"><ele>994.9999999999999</ele><time>2026-05-01T12:52:56Z</time></trkpt><trkpt lat="45.773357812508706" lon="11.155142464186163"><ele>997.0</ele><time>2026-05-01T12:52:57Z</time></trkpt><trkpt lat="45.77328725373109" lon="11.155104837505354"><ele>994.2</ele><time>2026-05-01T12:52:58Z</time></trkpt><trkpt lat="45.77323403690053" lon="11.15501652721295"><ele>991.4000000000001</ele><time>2026-05-01T12:52:59Z</time></trkpt><trkpt lat="45.77317792104447" lon="11.15492410044073"><ele>988.5999999999999</ele><time>2026-05-01T12:53:00Z</time></trkpt><trkpt lat="45.77312667345571" lon="11.154798896531"><ele>985.8</ele><time>2026-05-01T12:53:01Z</time></trkpt><trkpt lat="45.77306722187907" lon="11.15467653275165"><ele>983.0</ele><time>2026-05-01T12:53:02Z</time></trkpt><trkpt lat="45.772997318710395" lon="11.154557312413155"><ele>983.0</ele><time>2026-05-01T12:53:03Z</time></trkpt><trkpt lat="45.77292443062489" lon="11.154428207918924"><ele>983.0</ele><time>2026-05-01T12:53:04Z</time></trkpt><trkpt lat="45.772846532875356" lon="11.154310509028795"><ele>983.0</ele><time>2026-05-01T12:53:05Z</time></trkpt><trkpt lat="45.77277500519747" lon="11.154195927143187"><ele>983.0</ele><time>2026-05-01T12:53:06Z</time></trkpt><trkpt lat="45.77270301898826" lon="11.154063133317793"><ele>980.0</ele><time>2026-05-01T12:53:07Z</time></trkpt><trkpt lat="45.772621210025825" lon="11.153950239215515"><ele>977.0</ele><time>2026-05-01T12:53:08Z</time></trkpt><trkpt lat="45.772532074791194" lon="11.153849214511704"><ele>974.0</ele><time>2026-05-01T12:53:09Z</time></trkpt><trkpt lat="45.77243768288324" lon="11.15375133506923"><ele>971.0</ele><time>2026-05-01T12:53:10Z</time></trkpt><trkpt lat="45.77234644070658" lon="11.15365982067223"><ele>971.0</ele><time>2026-05-01T12:53:11Z</time></trkpt><trkpt lat="45.772258544695724" lon="11.15355545563076"><ele>970.9999999999999</ele><time>2026-05-01T12:53:12Z</time></trkpt><trkpt lat="45.77217262023704" lon="11.15344333510104"><ele>970.9999999999999</ele><time>2026-05-01T12:53:13Z</time></trkpt><trkpt lat="45.772094326431194" lon="11.153336868749482"><ele>971.0</ele><time>2026-05-01T12:53:14Z</time></trkpt><trkpt lat="45.77201647785169" lon="11.153233065644757"><ele>971.0</ele><time>2026-05-01T12:53:15Z</time></trkpt><trkpt lat="45.77194007524896" lon="11.153131647634652"><ele>971.1999999999999</ele><time>2026-05-01T12:53:16Z</time></trkpt><trkpt lat="45.771860256749946" lon="11.153031417867803"><ele>971.3999999999999</ele><time>2026-05-01T12:53:17Z</time></trkpt><trkpt lat="45.77177943507644" lon="11.152917083392115"><ele>971.6</ele><time>2026-05-01T12:53:18Z</time></trkpt><trkpt lat="45.771692885073406" lon="11.152832777241722"><ele>971.8</ele><time>2026-05-01T12:53:19Z</time></trkpt><trkpt lat="45.771605794063326" lon="11.152745936295515"><ele>972.0</ele><time>2026-05-01T12:53:20Z</time></trkpt><trkpt lat="45.77151808446858" lon="11.152676844086876"><ele>972.0</ele><time>2026-05-01T12:53:21Z</time></trkpt><trkpt lat="45.77142174057355" lon="11.152636339055759"><ele>972.0</ele><time>2026-05-01T12:53:22Z</time></trkpt><trkpt lat="45.771322658721786" lon="11.15259825691897"><ele>972.0</ele><time>2026-05-01T12:53:23Z</time></trkpt><trkpt lat="45.77123981538107" lon="11.152566916470727"><ele>972.0</ele><time>2026-05-01T12:53:24Z</time></trkpt><trkpt lat="45.77117463202784" lon="11.15248517315136"><ele>972.0</ele><time>2026-05-01T12:53:25Z</time></trkpt><trkpt lat="45.771109519690356" lon="11.152382449206799"><ele>973.0</ele><time>2026-05-01T12:53:26Z</time></trkpt><trkpt lat="45.7710314151871" lon="11.152274643661599"><ele>974.0</ele><time>2026-05-01T12:53:27Z</time></trkpt><trkpt lat="45.770940485887" lon="11.152196951315862"><ele>975.0</ele><time>2026-05-01T12:53:28Z</time></trkpt><trkpt lat="45.770854950108" lon="11.152124886959388"><ele>976.0</ele><time>2026-05-01T12:53:29Z</time></trkpt><trkpt lat="45.77076991230227" lon="11.152058247980545"><ele>977.0</ele><time>2026-05-01T12:53:30Z</time></trkpt><trkpt lat="45.770686490414036" lon="11.152012652707615"><ele>977.0000000000001</ele><time>2026-05-01T12:53:31Z</time></trkpt><trkpt lat="45.77060155137412" lon="11.151990254505574"><ele>977.0</ele><time>2026-05-01T12:53:32Z</time></trkpt><trkpt lat="45.77052197933565" lon="11.151937720941993"><ele>977.0</ele><time>2026-05-01T12:53:33Z</time></trkpt><trkpt lat="45.770445187290605" lon="11.151890835241302"><ele>977.0</ele><time>2026-05-01T12:53:34Z</time></trkpt><trkpt lat="45.77039550525826" lon="11.15182488371989"><ele>977.0000000000001</ele><time>2026-05-01T12:53:35Z</time></trkpt><trkpt lat="45.77037115987001" lon="11.151699640647392"><ele>977.0</ele><time>2026-05-01T12:53:36Z</time></trkpt><trkpt lat="45.770365895618255" lon="11.151514156890432"><ele>977.5</ele><time>2026-05-01T12:53:37Z</time></trkpt><trkpt lat="45.77031933323783" lon="11.151336609150373"><ele>978.0</ele><time>2026-05-01T12:53:38Z</time></trkpt><trkpt lat="45.77023523701692" lon="11.151229724676051"><ele>978.5</ele><time>2026-05-01T12:53:39Z</time></trkpt><trkpt lat="45.77011053534818" lon="11.151189089619413"><ele>979.0</ele><time>2026-05-01T12:53:40Z</time></trkpt><trkpt lat="45.769971901212514" lon="11.15117553622719"><ele>979.0</ele><time>2026-05-01T12:53:41Z</time></trkpt><trkpt lat="45.769852067762514" lon="11.151124235897248"><ele>979.0</ele><time>2026-05-01T12:53:42Z</time></trkpt><trkpt lat="45.7697632061706" lon="11.151009733792899"><ele>979.0</ele><time>2026-05-01T12:53:43Z</time></trkpt><trkpt lat="45.76966322614264" lon="11.150803225222335"><ele>979.0</ele><time>2026-05-01T12:53:44Z</time></trkpt><trkpt lat="45.76953079226176" lon="11.150563012628618"><ele>978.3333333333333</ele><time>2026-05-01T12:53:45Z</time></trkpt><trkpt lat="45.76942705446823" lon="11.150364428164366"><ele>977.6666666666667</ele><time>2026-05-01T12:53:46Z</time></trkpt><trkpt lat="45.76936608738345" lon="11.150177896447795"><ele>977.0</ele><time>2026-05-01T12:53:47Z</time></trkpt><trkpt lat="45.76929597444948" lon="11.14999703301352"><ele>981.5</ele><time>2026-05-01T12:53:48Z</time></trkpt><trkpt lat="45.76922613900144" lon="11.149823919613375"><ele>986.0</ele><time>2026-05-01T12:53:49Z</time></trkpt><trkpt lat="45.76912992288939" lon="11.149685365119499"><ele>990.5</ele><time>2026-05-01T12:53:50Z</time></trkpt><trkpt lat="45.769007423170216" lon="11.149601638397082"><ele>995.0</ele><time>2026-05-01T12:53:51Z</time></trkpt><trkpt lat="45.76885528821083" lon="11.149559023768623"><ele>995.0</ele><time>2026-05-01T12:53:52Z</time></trkpt><trkpt lat="45.76868667355029" lon="11.149542584581976"><ele>995.0</ele><time>2026-05-01T12:53:53Z</time></trkpt><trkpt lat="45.76853527795019" lon="11.149529635054327"><ele>995.0</ele><time>2026-05-01T12:53:54Z</time></trkpt><trkpt lat="45.76841770029462" lon="11.149525201369125"><ele>995.0</ele><time>2026-05-01T12:53:55Z</time></trkpt><trkpt lat="45.76833389876109" lon="11.14949053732106"><ele>997.6</ele><time>2026-05-01T12:53:56Z</time></trkpt><trkpt lat="45.768294955967036" lon="11.149386722559571"><ele>1000.2</ele><time>2026-05-01T12:53:57Z</time></trkpt><trkpt lat="45.76830070621716" lon="11.149287396271523"><ele>1002.8</ele><time>2026-05-01T12:53:58Z</time></trkpt><trkpt lat="45.7684103207883" lon="11.14915198212658"><ele>1005.4</ele><time>2026-05-01T12:53:59Z</time></trkpt><trkpt lat="45.76850079048712" lon="11.148991302684772"><ele>1008.0</ele><time>2026-05-01T12:54:00Z</time></trkpt><trkpt lat="45.76860467555294" lon="11.148793318572116"><ele>1008.0</ele><time>2026-05-01T12:54:01Z</time></trkpt><trkpt lat="45.76867101532513" lon="11.148576554633564"><ele>1008.0</ele><time>2026-05-01T12:54:02Z</time></trkpt><trkpt lat="45.768698135349105" lon="11.148384460690176"><ele>1008.0</ele><time>2026-05-01T12:54:03Z</time></trkpt><trkpt lat="45.76867461626577" lon="11.14820062807803"><ele>1008.0</ele><time>2026-05-01T12:54:04Z</time></trkpt><trkpt lat="45.768583399460375" lon="11.148027760691246"><ele>1004.0</ele><time>2026-05-01T12:54:05Z</time></trkpt><trkpt lat="45.76845479612649" lon="11.147892392245012"><ele>1000.0</ele><time>2026-05-01T12:54:06Z</time></trkpt><trkpt lat="45.7682562130294" lon="11.147786318627839"><ele>996.0</ele><time>2026-05-01T12:54:07Z</time></trkpt><trkpt lat="45.76805356549509" lon="11.147688443038525"><ele>996.0</ele><time>2026-05-01T12:54:08Z</time></trkpt><trkpt lat="45.76785984493877" lon="11.147604634208962"><ele>996.0</ele><time>2026-05-01T12:54:09Z</time></trkpt><trkpt lat="45.76771240727877" lon="11.147548094458697"><ele>996.0</ele><time>2026-05-01T12:54:10Z</time></trkpt><trkpt lat="45.767612230344504" lon="11.147480222338258"><ele>996.0</ele><time>2026-05-01T12:54:11Z</time></trkpt><trkpt lat="45.76757518895756" lon="11.1473419551485"><ele>996.0</ele><time>2026-05-01T12:54:12Z</time></trkpt><trkpt lat="45.76752883683734" lon="11.147169258253236"><ele>996.0</ele><time>2026-05-01T12:54:13Z</time></trkpt><trkpt lat="45.76746449178512" lon="11.146972028621178"><ele>996.0</ele><time>2026-05-01T12:54:14Z</time></trkpt><trkpt lat="45.76741370546571" lon="11.146793943667696"><ele>996.0</ele><time>2026-05-01T12:54:15Z</time></trkpt><trkpt lat="45.7673825912674" lon="11.146600130688336"><ele>996.0</ele><time>2026-05-01T12:54:16Z</time></trkpt><trkpt lat="45.767405739084914" lon="11.146340997788238"><ele>996.0</ele><time>2026-05-01T12:54:17Z</time></trkpt><trkpt lat="45.76739873967597" lon="11.146039125768075"><ele>996.0</ele><time>2026-05-01T12:54:18Z</time></trkpt><trkpt lat="45.76740093672317" lon="11.145736042480017"><ele>996.0</ele><time>2026-05-01T12:54:19Z</time></trkpt><trkpt lat="45.76739506521212" lon="11.14548365021506"><ele>996.0</ele><time>2026-05-01T12:54:20Z</time></trkpt><trkpt lat="45.767404568859355" lon="11.145270339230361"><ele>998.0</ele><time>2026-05-01T12:54:21Z</time></trkpt><trkpt lat="45.76746038658763" lon="11.145091026016846"><ele>1000.0</ele><time>2026-05-01T12:54:22Z</time></trkpt><trkpt lat="45.767553179391214" lon="11.144914462903346"><ele>1002.0</ele><time>2026-05-01T12:54:23Z</time></trkpt><trkpt lat="45.767698111279294" lon="11.14474843107155"><ele>1002.0</ele><time>2026-05-01T12:54:24Z</time></trkpt><trkpt lat="45.767852413624205" lon="11.14456768175695"><ele>1002.0</ele><time>2026-05-01T12:54:25Z</time></trkpt><trkpt lat="45.76798318950858" lon="11.144429480922556"><ele>1002.0</ele><time>2026-05-01T12:54:26Z</time></trkpt><trkpt lat="45.768072240438165" lon="11.144285338168059"><ele>1002.0</ele><time>2026-05-01T12:54:27Z</time></trkpt><trkpt lat="45.76811854949339" lon="11.14411121144292"><ele>1002.0</ele><time>2026-05-01T12:54:28Z</time></trkpt><trkpt lat="45.76810547725851" lon="11.143905868435443"><ele>1002.0</ele><time>2026-05-01T12:54:29Z</time></trkpt><trkpt lat="45.76806083721921" lon="11.143694310059157"><ele>1002.0</ele><time>2026-05-01T12:54:30Z</time></trkpt><trkpt lat="45.76805029299167" lon="11.143525118444781"><ele>997.5</ele><time>2026-05-01T12:54:31Z</time></trkpt><trkpt lat="45.768100609501296" lon="11.14338896866194"><ele>993.0</ele><time>2026-05-01T12:54:32Z</time></trkpt><trkpt lat="45.768218588406114" lon="11.143245110537602"><ele>988.5</ele><time>2026-05-01T12:54:33Z</time></trkpt><trkpt lat="45.76835061792612" lon="11.143078062576073"><ele>984.0</ele><time>2026-05-01T12:54:34Z</time></trkpt><trkpt lat="45.76846639757916" lon="11.142883014792844"><ele>984.0</ele><time>2026-05-01T12:54:35Z</time></trkpt><trkpt lat="45.7685421203227" lon="11.14264990052535"><ele>984.0</ele><time>2026-05-01T12:54:36Z</time></trkpt><trkpt lat="45.768584584479285" lon="11.142408239887743"><ele>984.0</ele><time>2026-05-01T12:54:37Z</time></trkpt><trkpt lat="45.76861005576872" lon="11.142119901606097"><ele>982.0</ele><time>2026-05-01T12:54:38Z</time></trkpt><trkpt lat="45.768626542229" lon="11.141837479872132"><ele>980.0</ele><time>2026-05-01T12:54:39Z</time></trkpt><trkpt lat="45.768629884100086" lon="11.141574933619276"><ele>978.0</ele><time>2026-05-01T12:54:40Z</time></trkpt><trkpt lat="45.76868135368853" lon="11.14132871944977"><ele>973.6666666666667</ele><time>2026-05-01T12:54:41Z</time></trkpt><trkpt lat="45.768726929413866" lon="11.14109669055056"><ele>969.3333333333334</ele><time>2026-05-01T12:54:42Z</time></trkpt><trkpt lat="45.76877573307895" lon="11.140890951377031"><ele>965.0</ele><time>2026-05-01T12:54:43Z</time></trkpt><trkpt lat="45.76883524930322" lon="11.140699082321975"><ele>957.75</ele><time>2026-05-01T12:54:44Z</time></trkpt><trkpt lat="45.768930714316184" lon="11.140517100433012"><ele>950.5</ele><time>2026-05-01T12:54:45Z</time></trkpt><trkpt lat="45.769020650986725" lon="11.140376129837614"><ele>943.25</ele><time>2026-05-01T12:54:46Z</time></trkpt><trkpt lat="45.76908347346831" lon="11.140252365564983"><ele>936.0</ele><time>2026-05-01T12:54:47Z</time></trkpt><trkpt lat="45.769155403187185" lon="11.140190069695652"><ele>936.0</ele><time>2026-05-01T12:54:48Z</time></trkpt><trkpt lat="45.76924409118635" lon="11.140203114001528"><ele>936.0</ele><time>2026-05-01T12:54:49Z</time></trkpt><trkpt lat="45.76934658415186" lon="11.140293853498967"><ele>936.0</ele><time>2026-05-01T12:54:50Z</time></trkpt><trkpt lat="45.76947817687532" lon="11.140410238813697"><ele>936.0</ele><time>2026-05-01T12:54:51Z</time></trkpt><trkpt lat="45.769610020377485" lon="11.140551354764616"><ele>936.5</ele><time>2026-05-01T12:54:52Z</time></trkpt><trkpt lat="45.76971745534844" lon="11.140664004772894"><ele>937.0</ele><time>2026-05-01T12:54:53Z</time></trkpt><trkpt lat="45.76982528157063" lon="11.14071938397194"><ele>937.5</ele><time>2026-05-01T12:54:54Z</time></trkpt><trkpt lat="45.769919997426754" lon="11.140737870162603"><ele>938.0</ele><time>2026-05-01T12:54:55Z</time></trkpt><trkpt lat="45.77002068365431" lon="11.140661086692116"><ele>938.0</ele><time>2026-05-01T12:54:56Z</time></trkpt><trkpt lat="45.77009198454178" lon="11.14050246254751"><ele>938.0</ele><time>2026-05-01T12:54:57Z</time></trkpt><trkpt lat="45.77009754285319" lon="11.140298132337024"><ele>938.0</ele><time>2026-05-01T12:54:58Z</time></trkpt><trkpt lat="45.770064580389224" lon="11.140066890824237"><ele>938.0</ele><time>2026-05-01T12:54:59Z</time></trkpt><trkpt lat="45.77002123716256" lon="11.139803498001665"><ele>934.6666666666667</ele><time>2026-05-01T12:55:00Z</time></trkpt><trkpt lat="45.77001382930102" lon="11.139524926726901"><ele>931.3333333333333</ele><time>2026-05-01T12:55:01Z</time></trkpt><trkpt lat="45.77002812653934" lon="11.139247678250017"><ele>928.0</ele><time>2026-05-01T12:55:02Z</time></trkpt><trkpt lat="45.77005582833533" lon="11.138970224458996"><ele>926.3333333333333</ele><time>2026-05-01T12:55:03Z</time></trkpt><trkpt lat="45.77010210222978" lon="11.138707829883835"><ele>924.6666666666667</ele><time>2026-05-01T12:55:04Z</time></trkpt><trkpt lat="45.7701474453014" lon="11.138453639772258"><ele>923.0</ele><time>2026-05-01T12:55:05Z</time></trkpt><trkpt lat="45.770181854134485" lon="11.138240469449114"><ele>923.5</ele><time>2026-05-01T12:55:06Z</time></trkpt><trkpt lat="45.770209222439604" lon="11.13807978814481"><ele>924.0</ele><time>2026-05-01T12:55:07Z</time></trkpt><trkpt lat="45.7702534983534" lon="11.137951114124611"><ele>924.5</ele><time>2026-05-01T12:55:08Z</time></trkpt><trkpt lat="45.770362168496504" lon="11.137855135340212"><ele>925.0</ele><time>2026-05-01T12:55:09Z</time></trkpt><trkpt lat="45.77049653963518" lon="11.13767751780021"><ele>925.0</ele><time>2026-05-01T12:55:10Z</time></trkpt><trkpt lat="45.770659371952036" lon="11.13750450690061"><ele>925.0</ele><time>2026-05-01T12:55:11Z</time></trkpt><trkpt lat="45.77080710131068" lon="11.137299916269324"><ele>925.0</ele><time>2026-05-01T12:55:12Z</time></trkpt><trkpt lat="45.770964588315756" lon="11.137124964157252"><ele>917.6666666666666</ele><time>2026-05-01T12:55:13Z</time></trkpt><trkpt lat="45.77113005251253" lon="11.136977497980135"><ele>910.3333333333333</ele><time>2026-05-01T12:55:14Z</time></trkpt><trkpt lat="45.77129036782085" lon="11.136872176454904"><ele>903.0</ele><time>2026-05-01T12:55:15Z</time></trkpt><trkpt lat="45.77143114354163" lon="11.136792058490455"><ele>903.0</ele><time>2026-05-01T12:55:16Z</time></trkpt><trkpt lat="45.771542918429255" lon="11.136709704015743"><ele>903.0</ele><time>2026-05-01T12:55:17Z</time></trkpt><trkpt lat="45.7716161218511" lon="11.136558520484206"><ele>903.0</ele><time>2026-05-01T12:55:18Z</time></trkpt><trkpt lat="45.771634687393025" lon="11.136332472429219"><ele>903.0</ele><time>2026-05-01T12:55:19Z</time></trkpt><trkpt lat="45.77163038309124" lon="11.136030277787688"><ele>900.6666666666667</ele><time>2026-05-01T12:55:20Z</time></trkpt><trkpt lat="45.771625436131295" lon="11.135703921655974"><ele>898.3333333333334</ele><time>2026-05-01T12:55:21Z</time></trkpt><trkpt lat="45.7716186881063" lon="11.13538774133216"><ele>896.0</ele><time>2026-05-01T12:55:22Z</time></trkpt><trkpt lat="45.771606027443816" lon="11.135112927065164"><ele>896.0</ele><time>2026-05-01T12:55:23Z</time></trkpt><trkpt lat="45.77158696191566" lon="11.134895192546853"><ele>896.0</ele><time>2026-05-01T12:55:24Z</time></trkpt><trkpt lat="45.77156447496663" lon="11.134719565930558"><ele>896.0</ele><time>2026-05-01T12:55:25Z</time></trkpt><trkpt lat="45.7715497019839" lon="11.134573817118364"><ele>896.0</ele><time>2026-05-01T12:55:26Z</time></trkpt><trkpt lat="45.7715463725339" lon="11.134451210409182"><ele>894.8</ele><time>2026-05-01T12:55:27Z</time></trkpt><trkpt lat="45.77157844000897" lon="11.13434032849414"><ele>893.5999999999999</ele><time>2026-05-01T12:55:28Z</time></trkpt><trkpt lat="45.771675053708044" lon="11.134295683504924"><ele>892.4</ele><time>2026-05-01T12:55:29Z</time></trkpt><trkpt lat="45.77178998169762" lon="11.134247960691479"><ele>891.2</ele><time>2026-05-01T12:55:30Z</time></trkpt><trkpt lat="45.771918038277015" lon="11.13417428516204"><ele>890.0</ele><time>2026-05-01T12:55:31Z</time></trkpt><trkpt lat="45.77203061241317" lon="11.134149875399402"><ele>890.0</ele><time>2026-05-01T12:55:32Z</time></trkpt><trkpt lat="45.77214202693143" lon="11.134156223463409"><ele>890.0</ele><time>2026-05-01T12:55:33Z</time></trkpt><trkpt lat="45.77227101137633" lon="11.134173046911286"><ele>890.0</ele><time>2026-05-01T12:55:34Z</time></trkpt><trkpt lat="45.77242200371055" lon="11.13418138699085"><ele>890.0</ele><time>2026-05-01T12:55:35Z</time></trkpt><trkpt lat="45.77257039308892" lon="11.134162514967986"><ele>890.0</ele><time>2026-05-01T12:55:36Z</time></trkpt><trkpt lat="45.77269902731288" lon="11.13412476254449"><ele>890.0</ele><time>2026-05-01T12:55:37Z</time></trkpt><trkpt lat="45.77282175979083" lon="11.13407663380348"><ele>890.0</ele><time>2026-05-01T12:55:38Z</time></trkpt><trkpt lat="45.7729266368447" lon="11.134016199553626"><ele>890.0</ele><time>2026-05-01T12:55:39Z</time></trkpt><trkpt lat="45.77303551502073" lon="11.13392598285937"><ele>888.0</ele><time>2026-05-01T12:55:40Z</time></trkpt><trkpt lat="45.77315759757807" lon="11.133817290318456"><ele>886.0</ele><time>2026-05-01T12:55:41Z</time></trkpt><trkpt lat="45.7732757791627" lon="11.133708750469905"><ele>884.0</ele><time>2026-05-01T12:55:42Z</time></trkpt><trkpt lat="45.77337888644515" lon="11.133595914868325"><ele>882.0</ele><time>2026-05-01T12:55:43Z</time></trkpt><trkpt lat="45.773466973164375" lon="11.1334707241471"><ele>886.5</ele><time>2026-05-01T12:55:44Z</time></trkpt><trkpt lat="45.77352916439538" lon="11.13331433280118"><ele>891.0</ele><time>2026-05-01T12:55:45Z</time></trkpt><trkpt lat="45.77357827583939" lon="11.133141983070711"><ele>895.5</ele><time>2026-05-01T12:55:46Z</time></trkpt><trkpt lat="45.7736070888828" lon="11.13295507878036"><ele>900.0</ele><time>2026-05-01T12:55:47Z</time></trkpt><trkpt lat="45.773604909854456" lon="11.132771787862225"><ele>900.0</ele><time>2026-05-01T12:55:48Z</time></trkpt><trkpt lat="45.77357565502058" lon="11.132573393711134"><ele>900.0</ele><time>2026-05-01T12:55:49Z</time></trkpt><trkpt lat="45.77351349434107" lon="11.132363816727977"><ele>900.0</ele><time>2026-05-01T12:55:50Z</time></trkpt><trkpt lat="45.77342099239108" lon="11.132165381722249"><ele>893.0</ele><time>2026-05-01T12:55:51Z</time></trkpt><trkpt lat="45.77333289371077" lon="11.131992912207421"><ele>886.0</ele><time>2026-05-01T12:55:52Z</time></trkpt><trkpt lat="45.77326338347687" lon="11.131817790359039"><ele>879.0</ele><time>2026-05-01T12:55:53Z</time></trkpt><trkpt lat="45.77321653167296" lon="11.131595634085597"><ele>880.0</ele><time>2026-05-01T12:55:54Z</time></trkpt><trkpt lat="45.77316916663173" lon="11.131357625097552"><ele>881.0</ele><time>2026-05-01T12:55:55Z</time></trkpt><trkpt lat="45.77311791343317" lon="11.131104946990789"><ele>882.0</ele><time>2026-05-01T12:55:56Z</time></trkpt><trkpt lat="45.77306575027673" lon="11.130860076135926"><ele>882.6666666666667</ele><time>2026-05-01T12:55:57Z</time></trkpt><trkpt lat="45.7729867186786" lon="11.13061547312657"><ele>883.3333333333334</ele><time>2026-05-01T12:55:58Z</time></trkpt><trkpt lat="45.77290308305236" lon="11.130401773717182"><ele>884.0</ele><time>2026-05-01T12:55:59Z</time></trkpt><trkpt lat="45.77282741151695" lon="11.130214930145854"><ele>884.0</ele><time>2026-05-01T12:56:00Z</time></trkpt><trkpt lat="45.772758731995864" lon="11.13004627826985"><ele>884.0</ele><time>2026-05-01T12:56:01Z</time></trkpt><trkpt lat="45.77271922681631" lon="11.129885649150088"><ele>884.0</ele><time>2026-05-01T12:56:02Z</time></trkpt><trkpt lat="45.772724620867336" lon="11.129716356399834"><ele>884.0</ele><time>2026-05-01T12:56:03Z</time></trkpt><trkpt lat="45.772773727645486" lon="11.129551035379713"><ele>879.5</ele><time>2026-05-01T12:56:04Z</time></trkpt><trkpt lat="45.772865606007144" lon="11.129410993620866"><ele>875.0</ele><time>2026-05-01T12:56:05Z</time></trkpt><trkpt lat="45.7729610174205" lon="11.129281657368377"><ele>870.5</ele><time>2026-05-01T12:56:06Z</time></trkpt><trkpt lat="45.773103671427286" lon="11.129233968357333"><ele>866.0</ele><time>2026-05-01T12:56:07Z</time></trkpt><trkpt lat="45.77327724711894" lon="11.129197768259342"><ele>866.0</ele><time>2026-05-01T12:56:08Z</time></trkpt><trkpt lat="45.773471798203865" lon="11.12917980305655"><ele>866.0</ele><time>2026-05-01T12:56:09Z</time></trkpt><trkpt lat="45.77365615528222" lon="11.129153084313867"><ele>866.0</ele><time>2026-05-01T12:56:10Z</time></trkpt><trkpt lat="45.773822800664774" lon="11.129076457434525"><ele>862.0</ele><time>2026-05-01T12:56:11Z</time></trkpt><trkpt lat="45.773988416581254" lon="11.128922910956774"><ele>858.0</ele><time>2026-05-01T12:56:12Z</time></trkpt><trkpt lat="45.774144095992824" lon="11.128716193094702"><ele>854.0</ele><time>2026-05-01T12:56:13Z</time></trkpt><trkpt lat="45.774265596225476" lon="11.128469631364872"><ele>856.6666666666667</ele><time>2026-05-01T12:56:14Z</time></trkpt><trkpt lat="45.77439579647091" lon="11.128266535339273"><ele>859.3333333333333</ele><time>2026-05-01T12:56:15Z</time></trkpt><trkpt lat="45.77455932537481" lon="11.128115202343206"><ele>862.0</ele><time>2026-05-01T12:56:16Z</time></trkpt><trkpt lat="45.774722993377296" lon="11.127998317504902"><ele>856.0</ele><time>2026-05-01T12:56:17Z</time></trkpt><trkpt lat="45.77486778939604" lon="11.127844352657256"><ele>850.0</ele><time>2026-05-01T12:56:18Z</time></trkpt><trkpt lat="45.774981001702535" lon="11.127593755927707"><ele>844.0</ele><time>2026-05-01T12:56:19Z</time></trkpt><trkpt lat="45.77507977427864" lon="11.127277918388863"><ele>848.5</ele><time>2026-05-01T12:56:20Z</time></trkpt><trkpt lat="45.77519546077751" lon="11.126928498563425"><ele>853.0</ele><time>2026-05-01T12:56:21Z</time></trkpt><trkpt lat="45.775310602067435" lon="11.126620808309044"><ele>847.6666666666666</ele><time>2026-05-01T12:56:22Z</time></trkpt><trkpt lat="45.77542051403109" lon="11.126346472618236"><ele>842.3333333333333</ele><time>2026-05-01T12:56:23Z</time></trkpt><trkpt lat="45.775523982568636" lon="11.126096644517302"><ele>837.0</ele><time>2026-05-01T12:56:24Z</time></trkpt><trkpt lat="45.7756142532727" lon="11.125858440517"><ele>829.6666666666667</ele><time>2026-05-01T12:56:25Z</time></trkpt><trkpt lat="45.77570710463963" lon="11.12561856899542"><ele>822.3333333333334</ele><time>2026-05-01T12:56:26Z</time></trkpt><trkpt lat="45.77581596551183" lon="11.12538815293707"><ele>815.0</ele><time>2026-05-01T12:56:27Z</time></trkpt><trkpt lat="45.77594328737971" lon="11.12518257041783"><ele>816.3333333333334</ele><time>2026-05-01T12:56:28Z</time></trkpt><trkpt lat="45.77607491489159" lon="11.124994812011447"><ele>817.6666666666667</ele><time>2026-05-01T12:56:29Z</time></trkpt><trkpt lat="45.77619655654081" lon="11.12482459625535"><ele>819.0</ele><time>2026-05-01T12:56:30Z</time></trkpt><trkpt lat="45.77630015510371" lon="11.12464636355991"><ele>819.0</ele><time>2026-05-01T12:56:31Z</time></trkpt><trkpt lat="45.77637078959884" lon="11.12443106585904"><ele>819.0</ele><time>2026-05-01T12:56:32Z</time></trkpt><trkpt lat="45.77642989521344" lon="11.12423200229"><ele>819.0</ele><time>2026-05-01T12:56:33Z</time></trkpt><trkpt lat="45.77648946749653" lon="11.124076070991238"><ele>819.0</ele><time>2026-05-01T12:56:34Z</time></trkpt><trkpt lat="45.77655686370489" lon="11.12394613528337"><ele>818.2</ele><time>2026-05-01T12:56:35Z</time></trkpt><trkpt lat="45.77663220348519" lon="11.123837567956363"><ele>817.4000000000001</ele><time>2026-05-01T12:56:36Z</time></trkpt><trkpt lat="45.77672474585917" lon="11.12374738569974"><ele>816.6</ele><time>2026-05-01T12:56:37Z</time></trkpt><trkpt lat="45.776821895421456" lon="11.1236650808152"><ele>815.8</ele><time>2026-05-01T12:56:38Z</time></trkpt><trkpt lat="45.77691242514667" lon="11.123597212342718"><ele>815.0</ele><time>2026-05-01T12:56:39Z</time></trkpt><trkpt lat="45.77700377889786" lon="11.12352298953097"><ele>813.3333333333334</ele><time>2026-05-01T12:56:40Z</time></trkpt><trkpt lat="45.77705511636078" lon="11.123385135873004"><ele>811.6666666666667</ele><time>2026-05-01T12:56:41Z</time></trkpt><trkpt lat="45.77710961338384" lon="11.1232644895748"><ele>810.0</ele><time>2026-05-01T12:56:42Z</time></trkpt><trkpt lat="45.77716163261561" lon="11.123155868810226"><ele>808.3333333333333</ele><time>2026-05-01T12:56:43Z</time></trkpt><trkpt lat="45.77720928911993" lon="11.123074606681262"><ele>806.6666666666666</ele><time>2026-05-01T12:56:44Z</time></trkpt><trkpt lat="45.777266990048744" lon="11.123027348512768"><ele>805.0</ele><time>2026-05-01T12:56:45Z</time></trkpt><trkpt lat="45.77734332582176" lon="11.123052625012782"><ele>805.0</ele><time>2026-05-01T12:56:46Z</time></trkpt><trkpt lat="45.777425487041015" lon="11.123142794087014"><ele>805.0</ele><time>2026-05-01T12:56:47Z</time></trkpt><trkpt lat="45.77748399761608" lon="11.12334455502797"><ele>805.0</ele><time>2026-05-01T12:56:48Z</time></trkpt><trkpt lat="45.77756074953252" lon="11.12357768656115"><ele>805.0</ele><time>2026-05-01T12:56:49Z</time></trkpt><trkpt lat="45.77762026041116" lon="11.123836111973507"><ele>806.6666666666666</ele><time>2026-05-01T12:56:50Z</time></trkpt><trkpt lat="45.77768129739522" lon="11.124068821283732"><ele>808.3333333333333</ele><time>2026-05-01T12:56:51Z</time></trkpt><trkpt lat="45.77775943609506" lon="11.124257316202812"><ele>810.0</ele><time>2026-05-01T12:56:52Z</time></trkpt><trkpt lat="45.77782819392011" lon="11.12443327461544"><ele>802.25</ele><time>2026-05-01T12:56:53Z</time></trkpt><trkpt lat="45.77791094867717" lon="11.124585308307376"><ele>794.5</ele><time>2026-05-01T12:56:54Z</time></trkpt><trkpt lat="45.778007341375556" lon="11.124705876992572"><ele>786.75</ele><time>2026-05-01T12:56:55Z</time></trkpt><trkpt lat="45.7781114169813" lon="11.124791484081241"><ele>779.0</ele><time>2026-05-01T12:56:56Z</time></trkpt><trkpt lat="45.77820032460452" lon="11.124872321736937"><ele>778.75</ele><time>2026-05-01T12:56:57Z</time></trkpt><trkpt lat="45.778296423162665" lon="11.12495723642082"><ele>778.5</ele><time>2026-05-01T12:56:58Z</time></trkpt><trkpt lat="45.77839985623509" lon="11.125035259991844"><ele>778.25</ele><time>2026-05-01T12:56:59Z</time></trkpt><trkpt lat="45.77850072964278" lon="11.125107998520448"><ele>778.0</ele><time>2026-05-01T12:57:00Z</time></trkpt><trkpt lat="45.77860607406044" lon="11.12517635140056"><ele>778.0</ele><time>2026-05-01T12:57:01Z</time></trkpt><trkpt lat="45.77873398877138" lon="11.125233096717558"><ele>778.0</ele><time>2026-05-01T12:57:02Z</time></trkpt><trkpt lat="45.778911326951274" lon="11.125335847714727"><ele>778.0</ele><time>2026-05-01T12:57:03Z</time></trkpt><trkpt lat="45.77912145205326" lon="11.12541332089868"><ele>778.0</ele><time>2026-05-01T12:57:04Z</time></trkpt><trkpt lat="45.77931889907757" lon="11.125458608433453"><ele>778.0</ele><time>2026-05-01T12:57:05Z</time></trkpt><trkpt lat="45.779505901594675" lon="11.125495618727488"><ele>778.0</ele><time>2026-05-01T12:57:06Z</time></trkpt><trkpt lat="45.77967503107856" lon="11.125518602682062"><ele>776.5</ele><time>2026-05-01T12:57:07Z</time></trkpt><trkpt lat="45.779829169010824" lon="11.125513130303961"><ele>775.0</ele><time>2026-05-01T12:57:08Z</time></trkpt><trkpt lat="45.7799715197417" lon="11.125497181620078"><ele>773.5</ele><time>2026-05-01T12:57:09Z</time></trkpt><trkpt lat="45.780114760214744" lon="11.125448013157165"><ele>772.0</ele><time>2026-05-01T12:57:10Z</time></trkpt><trkpt lat="45.78028702194792" lon="11.125349938404817"><ele>770.3333333333333</ele><time>2026-05-01T12:57:11Z</time></trkpt><trkpt lat="45.780491545286125" lon="11.125228583406944"><ele>768.6666666666666</ele><time>2026-05-01T12:57:12Z</time></trkpt><trkpt lat="45.78067198012249" lon="11.1251171177401"><ele>767.0</ele><time>2026-05-01T12:57:13Z</time></trkpt><trkpt lat="45.78082823117139" lon="11.125034951872454"><ele>767.0</ele><time>2026-05-01T12:57:14Z</time></trkpt><trkpt lat="45.780944843342766" lon="11.124967942212525"><ele>767.0</ele><time>2026-05-01T12:57:15Z</time></trkpt><trkpt lat="45.7810582991898" lon="11.124935387062003"><ele>767.0</ele><time>2026-05-01T12:57:16Z</time></trkpt><trkpt lat="45.78116055669248" lon="11.124948803502914"><ele>767.0</ele><time>2026-05-01T12:57:17Z</time></trkpt><trkpt lat="45.78125346075599" lon="11.125033996954055"><ele>763.0</ele><time>2026-05-01T12:57:18Z</time></trkpt><trkpt lat="45.78127097973879" lon="11.125225974385437"><ele>759.0</ele><time>2026-05-01T12:57:19Z</time></trkpt><trkpt lat="45.78132223514561" lon="11.125404806099152"><ele>755.0</ele><time>2026-05-01T12:57:20Z</time></trkpt><trkpt lat="45.7813698270729" lon="11.125523440048507"><ele>751.0</ele><time>2026-05-01T12:57:21Z</time></trkpt><trkpt lat="45.78146763263563" lon="11.125512125117714"><ele>751.0</ele><time>2026-05-01T12:57:22Z</time></trkpt><trkpt lat="45.78156924608493" lon="11.125480938328712"><ele>751.0</ele><time>2026-05-01T12:57:23Z</time></trkpt><trkpt lat="45.78164344509139" lon="11.12536786426279"><ele>751.0</ele><time>2026-05-01T12:57:24Z</time></trkpt><trkpt lat="45.7816616997133" lon="11.125197978836628"><ele>751.0</ele><time>2026-05-01T12:57:25Z</time></trkpt><trkpt lat="45.78162500594865" lon="11.12502541812856"><ele>745.75</ele><time>2026-05-01T12:57:26Z</time></trkpt><trkpt lat="45.78152741376326" lon="11.12483855010339"><ele>740.5</ele><time>2026-05-01T12:57:27Z</time></trkpt><trkpt lat="45.78141492613857" lon="11.12467888908614"><ele>735.25</ele><time>2026-05-01T12:57:28Z</time></trkpt><trkpt lat="45.78132068690314" lon="11.12457605659871"><ele>730.0</ele><time>2026-05-01T12:57:29Z</time></trkpt><trkpt lat="45.78124088366294" lon="11.124520241928575"><ele>730.0</ele><time>2026-05-01T12:57:30Z</time></trkpt><trkpt lat="45.78118405011581" lon="11.124457227647838"><ele>730.0</ele><time>2026-05-01T12:57:31Z</time></trkpt><trkpt lat="45.78117646919581" lon="11.12436413054764"><ele>730.0</ele><time>2026-05-01T12:57:32Z</time></trkpt><trkpt lat="45.78123490985864" lon="11.124274611207799"><ele>730.0</ele><time>2026-05-01T12:57:33Z</time></trkpt><trkpt lat="45.78132934964476" lon="11.124274321942364"><ele>730.0</ele><time>2026-05-01T12:57:34Z</time></trkpt><trkpt lat="45.781441861000886" lon="11.124350105443437"><ele>730.0</ele><time>2026-05-01T12:57:35Z</time></trkpt><trkpt lat="45.781532825045645" lon="11.124549367274422"><ele>730.0</ele><time>2026-05-01T12:57:36Z</time></trkpt><trkpt lat="45.78165137742873" lon="11.124811020790359"><ele>730.0</ele><time>2026-05-01T12:57:37Z</time></trkpt><trkpt lat="45.78178758195223" lon="11.125099451149326"><ele>731.3333333333334</ele><time>2026-05-01T12:57:38Z</time></trkpt><trkpt lat="45.78193997045254" lon="11.12538318667844"><ele>732.6666666666666</ele><time>2026-05-01T12:57:39Z</time></trkpt><trkpt lat="45.7820456190622" lon="11.12561932086863"><ele>734.0</ele><time>2026-05-01T12:57:40Z</time></trkpt><trkpt lat="45.782135626170344" lon="11.12581056468351"><ele>736.0</ele><time>2026-05-01T12:57:41Z</time></trkpt><trkpt lat="45.78221012352785" lon="11.125967590997899"><ele>738.0</ele><time>2026-05-01T12:57:42Z</time></trkpt><trkpt lat="45.78227954211938" lon="11.126096357822913"><ele>740.0</ele><time>2026-05-01T12:57:43Z</time></trkpt><trkpt lat="45.78242667444672" lon="11.126121522463933"><ele>742.0</ele><time>2026-05-01T12:57:44Z</time></trkpt><trkpt lat="45.782555155828916" lon="11.126135889801287"><ele>742.0</ele><time>2026-05-01T12:57:45Z</time></trkpt><trkpt lat="45.782662801575285" lon="11.126120159773903"><ele>742.0</ele><time>2026-05-01T12:57:46Z</time></trkpt><trkpt lat="45.78274328493764" lon="11.126046264309313"><ele>742.0</ele><time>2026-05-01T12:57:47Z</time></trkpt><trkpt lat="45.78278867198218" lon="11.125900212118397"><ele>742.0</ele><time>2026-05-01T12:57:48Z</time></trkpt><trkpt lat="45.782811643461336" lon="11.125672016517608"><ele>748.6666666666667</ele><time>2026-05-01T12:57:49Z</time></trkpt><trkpt lat="45.78282578387989" lon="11.12538222698156"><ele>755.3333333333334</ele><time>2026-05-01T12:57:50Z</time></trkpt><trkpt lat="45.78284494918434" lon="11.125069958827327"><ele>762.0</ele><time>2026-05-01T12:57:51Z</time></trkpt><trkpt lat="45.78283826353978" lon="11.124739232828297"><ele>762.0</ele><time>2026-05-01T12:57:52Z</time></trkpt><trkpt lat="45.78282382616136" lon="11.124451981227605"><ele>762.0</ele><time>2026-05-01T12:57:53Z</time></trkpt><trkpt lat="45.7827845845962" lon="11.124178920850609"><ele>762.0</ele><time>2026-05-01T12:57:54Z</time></trkpt><trkpt lat="45.782722779820055" lon="11.123938648878894"><ele>751.3333333333334</ele><time>2026-05-01T12:57:55Z</time></trkpt><trkpt lat="45.78264246846866" lon="11.123708534440258"><ele>740.6666666666667</ele><time>2026-05-01T12:57:56Z</time></trkpt><trkpt lat="45.78257871935205" lon="11.123468152282046"><ele>730.0</ele><time>2026-05-01T12:57:57Z</time></trkpt><trkpt lat="45.78253960075967" lon="11.12322083374581"><ele>729.0</ele><time>2026-05-01T12:57:58Z</time></trkpt><trkpt lat="45.78250656594845" lon="11.122974766693916"><ele>728.0</ele><time>2026-05-01T12:57:59Z</time></trkpt><trkpt lat="45.78247908878414" lon="11.122747077068082"><ele>727.0</ele><time>2026-05-01T12:58:00Z</time></trkpt><trkpt lat="45.78245279917318" lon="11.122529625057254"><ele>726.75</ele><time>2026-05-01T12:58:01Z</time></trkpt><trkpt lat="45.782430570075825" lon="11.12232603945252"><ele>726.5</ele><time>2026-05-01T12:58:02Z</time></trkpt><trkpt lat="45.78240825928727" lon="11.12213032282572"><ele>726.25</ele><time>2026-05-01T12:58:03Z</time></trkpt><trkpt lat="45.78239953233152" lon="11.12194128643841"><ele>726.0</ele><time>2026-05-01T12:58:04Z</time></trkpt><trkpt lat="45.78241333544647" lon="11.12175452981057"><ele>726.0</ele><time>2026-05-01T12:58:05Z</time></trkpt><trkpt lat="45.78245548507795" lon="11.121565784678326"><ele>726.0</ele><time>2026-05-01T12:58:06Z</time></trkpt><trkpt lat="45.782498352221346" lon="11.121402544849998"><ele>726.0</ele><time>2026-05-01T12:58:07Z</time></trkpt><trkpt lat="45.78253944023141" lon="11.12127264378474"><ele>726.0</ele><time>2026-05-01T12:58:08Z</time></trkpt><trkpt lat="45.782592145904935" lon="11.121144923253999"><ele>729.0</ele><time>2026-05-01T12:58:09Z</time></trkpt><trkpt lat="45.782682282872884" lon="11.121043169654916"><ele>732.0</ele><time>2026-05-01T12:58:10Z</time></trkpt><trkpt lat="45.78275950371092" lon="11.120929705139078"><ele>735.0</ele><time>2026-05-01T12:58:11Z</time></trkpt><trkpt lat="45.78282854671885" lon="11.120801157444426"><ele>738.0</ele><time>2026-05-01T12:58:12Z</time></trkpt><trkpt lat="45.782886186012306" lon="11.120672801756058"><ele>741.0</ele><time>2026-05-01T12:58:13Z</time></trkpt><trkpt lat="45.78293431538684" lon="11.120546391789762"><ele>741.4</ele><time>2026-05-01T12:58:14Z</time></trkpt><trkpt lat="45.78296200326257" lon="11.120412753482073"><ele>741.8</ele><time>2026-05-01T12:58:15Z</time></trkpt><trkpt lat="45.782966152921226" lon="11.1202746869535"><ele>742.1999999999999</ele><time>2026-05-01T12:58:16Z</time></trkpt><trkpt lat="45.782952966666606" lon="11.120126375784782"><ele>742.5999999999999</ele><time>2026-05-01T12:58:17Z</time></trkpt><trkpt lat="45.782928520432534" lon="11.119988535618006"><ele>743.0</ele><time>2026-05-01T12:58:18Z</time></trkpt><trkpt lat="45.78289862412021" lon="11.119857643815486"><ele>743.5999999999999</ele><time>2026-05-01T12:58:19Z</time></trkpt><trkpt lat="45.7828666286643" lon="11.119738673991188"><ele>744.1999999999999</ele><time>2026-05-01T12:58:20Z</time></trkpt><trkpt lat="45.782831403440184" lon="11.119605487429894"><ele>744.8</ele><time>2026-05-01T12:58:21Z</time></trkpt><trkpt lat="45.782811379921405" lon="11.119471329873967"><ele>745.4</ele><time>2026-05-01T12:58:22Z</time></trkpt><trkpt lat="45.7828031279459" lon="11.119327180203593"><ele>746.0</ele><time>2026-05-01T12:58:23Z</time></trkpt><trkpt lat="45.78279254532585" lon="11.119171206316837"><ele>747.0</ele><time>2026-05-01T12:58:24Z</time></trkpt><trkpt lat="45.78278106875371" lon="11.119023559639475"><ele>748.0</ele><time>2026-05-01T12:58:25Z</time></trkpt><trkpt lat="45.782775598648286" lon="11.118868132926506"><ele>749.0</ele><time>2026-05-01T12:58:26Z</time></trkpt><trkpt lat="45.782763841597585" lon="11.118703540733227"><ele>750.0</ele><time>2026-05-01T12:58:27Z</time></trkpt><trkpt lat="45.782745663627786" lon="11.118545390691523"><ele>751.0</ele><time>2026-05-01T12:58:28Z</time></trkpt><trkpt lat="45.782728418894656" lon="11.118391037716954"><ele>751.0</ele><time>2026-05-01T12:58:29Z</time></trkpt><trkpt lat="45.78272299324105" lon="11.118249391467664"><ele>751.0</ele><time>2026-05-01T12:58:30Z</time></trkpt><trkpt lat="45.78270960847409" lon="11.118103883955579"><ele>751.0</ele><time>2026-05-01T12:58:31Z</time></trkpt><trkpt lat="45.782703701557246" lon="11.117963405676983"><ele>751.0</ele><time>2026-05-01T12:58:32Z</time></trkpt><trkpt lat="45.78270463005609" lon="11.117847897433988"><ele>751.0</ele><time>2026-05-01T12:58:33Z</time></trkpt><trkpt lat="45.78270116990647" lon="11.11773169317932"><ele>751.5</ele><time>2026-05-01T12:58:34Z</time></trkpt><trkpt lat="45.782698977716635" lon="11.117625368958096"><ele>752.0</ele><time>2026-05-01T12:58:35Z</time></trkpt><trkpt lat="45.782694283608706" lon="11.117523022644331"><ele>752.5</ele><time>2026-05-01T12:58:36Z</time></trkpt><trkpt lat="45.78267068256803" lon="11.117412910803658"><ele>753.0</ele><time>2026-05-01T12:58:37Z</time></trkpt><trkpt lat="45.78263716515662" lon="11.11731047613454"><ele>753.5</ele><time>2026-05-01T12:58:38Z</time></trkpt><trkpt lat="45.782610919051976" lon="11.117202121381716"><ele>754.0</ele><time>2026-05-01T12:58:39Z</time></trkpt><trkpt lat="45.78257073913443" lon="11.11710955463004"><ele>749.5</ele><time>2026-05-01T12:58:40Z</time></trkpt><trkpt lat="45.78253238650191" lon="11.117009895254071"><ele>745.0</ele><time>2026-05-01T12:58:41Z</time></trkpt><trkpt lat="45.78249185270193" lon="11.116918338305242"><ele>740.5</ele><time>2026-05-01T12:58:42Z</time></trkpt><trkpt lat="45.782451566658224" lon="11.116827717568237"><ele>736.0</ele><time>2026-05-01T12:58:43Z</time></trkpt><trkpt lat="45.78241409926812" lon="11.116724894574084"><ele>731.5</ele><time>2026-05-01T12:58:44Z</time></trkpt><trkpt lat="45.78237802210781" lon="11.11664425300592"><ele>727.0</ele><time>2026-05-01T12:58:45Z</time></trkpt><trkpt lat="45.78236820636436" lon="11.116539916316864"><ele>726.0</ele><time>2026-05-01T12:58:46Z</time></trkpt><trkpt lat="45.78237516492949" lon="11.116435123493174"><ele>725.0</ele><time>2026-05-01T12:58:47Z</time></trkpt><trkpt lat="45.78238595660447" lon="11.116297553725309"><ele>724.0</ele><time>2026-05-01T12:58:48Z</time></trkpt><trkpt lat="45.78239673671455" lon="11.11615663342246"><ele>723.0</ele><time>2026-05-01T12:58:49Z</time></trkpt><trkpt lat="45.7823861516793" lon="11.116014417358814"><ele>722.0</ele><time>2026-05-01T12:58:50Z</time></trkpt><trkpt lat="45.78236348660167" lon="11.115870214962817"><ele>720.4000000000001</ele><time>2026-05-01T12:58:51Z</time></trkpt><trkpt lat="45.78233953148082" lon="11.115722347058444"><ele>718.8000000000001</ele><time>2026-05-01T12:58:52Z</time></trkpt><trkpt lat="45.78232033221832" lon="11.115572830399286"><ele>717.2</ele><time>2026-05-01T12:58:53Z</time></trkpt><trkpt lat="45.782308108115735" lon="11.115422703092241"><ele>715.6</ele><time>2026-05-01T12:58:54Z</time></trkpt><trkpt lat="45.78229418415179" lon="11.115273017272017"><ele>714.0</ele><time>2026-05-01T12:58:55Z</time></trkpt><trkpt lat="45.78228595167695" lon="11.1151359647068"><ele>714.0</ele><time>2026-05-01T12:58:56Z</time></trkpt><trkpt lat="45.782283437865" lon="11.115009022340272"><ele>714.0</ele><time>2026-05-01T12:58:57Z</time></trkpt><trkpt lat="45.782293401669655" lon="11.114892703194235"><ele>714.0</ele><time>2026-05-01T12:58:58Z</time></trkpt><trkpt lat="45.78231539622229" lon="11.114779046820612"><ele>714.0</ele><time>2026-05-01T12:58:59Z</time></trkpt><trkpt lat="45.7823580532287" lon="11.114673532277713"><ele>714.0</ele><time>2026-05-01T12:59:00Z</time></trkpt><trkpt lat="45.782409077692165" lon="11.114586367252805"><ele>714.0</ele><time>2026-05-01T12:59:01Z</time></trkpt><trkpt lat="45.78245269659207" lon="11.114490919996248"><ele>711.8333333333334</ele><time>2026-05-01T12:59:02Z</time></trkpt><trkpt lat="45.782491023286184" lon="11.114393570539557"><ele>709.6666666666666</ele><time>2026-05-01T12:59:03Z</time></trkpt><trkpt lat="45.782534034400285" lon="11.114297966118421"><ele>707.5</ele><time>2026-05-01T12:59:04Z</time></trkpt><trkpt lat="45.782574994303104" lon="11.114205014900648"><ele>705.3333333333333</ele><time>2026-05-01T12:59:05Z</time></trkpt><trkpt lat="45.7826143454054" lon="11.114115301761151"><ele>703.1666666666666</ele><time>2026-05-01T12:59:06Z</time></trkpt><trkpt lat="45.78266020380893" lon="11.114016417205463"><ele>701.0</ele><time>2026-05-01T12:59:07Z</time></trkpt><trkpt lat="45.78270853824056" lon="11.113910378773461"><ele>699.1999999999999</ele><time>2026-05-01T12:59:08Z</time></trkpt><trkpt lat="45.78276598960517" lon="11.11381507824056"><ele>697.4</ele><time>2026-05-01T12:59:09Z</time></trkpt><trkpt lat="45.78283966354996" lon="11.113736208097501"><ele>695.6</ele><time>2026-05-01T12:59:10Z</time></trkpt><trkpt lat="45.78292876011929" lon="11.113679641206827"><ele>693.8</ele><time>2026-05-01T12:59:11Z</time></trkpt><trkpt lat="45.78303379829256" lon="11.11364050532528"><ele>692.0</ele><time>2026-05-01T12:59:12Z</time></trkpt><trkpt lat="45.78314107374931" lon="11.113627064404849"><ele>692.0</ele><time>2026-05-01T12:59:13Z</time></trkpt><trkpt lat="45.783237422407076" lon="11.11368467980991"><ele>692.0</ele><time>2026-05-01T12:59:14Z</time></trkpt><trkpt lat="45.78332772298475" lon="11.113769025621908"><ele>692.0</ele><time>2026-05-01T12:59:15Z</time></trkpt><trkpt lat="45.783426199881525" lon="11.113866490878205"><ele>692.0</ele><time>2026-05-01T12:59:16Z</time></trkpt><trkpt lat="45.7835297606285" lon="11.113949341394814"><ele>691.6</ele><time>2026-05-01T12:59:17Z</time></trkpt><trkpt lat="45.78363227378698" lon="11.113980986758929"><ele>691.2</ele><time>2026-05-01T12:59:18Z</time></trkpt><trkpt lat="45.783739199956635" lon="11.113965806672237"><ele>690.8</ele><time>2026-05-01T12:59:19Z</time></trkpt><trkpt lat="45.783840580528725" lon="11.113895334811168"><ele>690.4</ele><time>2026-05-01T12:59:20Z</time></trkpt><trkpt lat="45.78393801285244" lon="11.11380125075732"><ele>690.0</ele><time>2026-05-01T12:59:21Z</time></trkpt><trkpt lat="45.784024476241825" lon="11.11370496761988"><ele>690.0</ele><time>2026-05-01T12:59:22Z</time></trkpt><trkpt lat="45.78412231609581" lon="11.113618152253196"><ele>690.0</ele><time>2026-05-01T12:59:23Z</time></trkpt><trkpt lat="45.784212389026074" lon="11.113526003320416"><ele>690.0</ele><time>2026-05-01T12:59:24Z</time></trkpt><trkpt lat="45.78429949080024" lon="11.113434840756316"><ele>690.0</ele><time>2026-05-01T12:59:25Z</time></trkpt><trkpt lat="45.784389428058525" lon="11.11334242423267"><ele>690.0</ele><time>2026-05-01T12:59:26Z</time></trkpt><trkpt lat="45.784476165122" lon="11.113247871283448"><ele>691.2</ele><time>2026-05-01T12:59:27Z</time></trkpt><trkpt lat="45.78455495762594" lon="11.113152004172132"><ele>692.4</ele><time>2026-05-01T12:59:28Z</time></trkpt><trkpt lat="45.78462947698334" lon="11.113053189513375"><ele>693.5999999999999</ele><time>2026-05-01T12:59:29Z</time></trkpt><trkpt lat="45.78469953074251" lon="11.112954122590569"><ele>694.8</ele><time>2026-05-01T12:59:30Z</time></trkpt><trkpt lat="45.78477112614702" lon="11.112857255568523"><ele>696.0</ele><time>2026-05-01T12:59:31Z</time></trkpt><trkpt lat="45.78483758555807" lon="11.11276276858446"><ele>696.0</ele><time>2026-05-01T12:59:32Z</time></trkpt><trkpt lat="45.784897784291694" lon="11.11266475054629"><ele>696.0</ele><time>2026-05-01T12:59:33Z</time></trkpt><trkpt lat="45.78495387384931" lon="11.112564774985096"><ele>696.0</ele><time>2026-05-01T12:59:34Z</time></trkpt><trkpt lat="45.78499979306604" lon="11.112455828999696"><ele>696.0</ele><time>2026-05-01T12:59:35Z</time></trkpt><trkpt lat="45.78503487183867" lon="11.112340347308745"><ele>696.0</ele><time>2026-05-01T12:59:36Z</time></trkpt><trkpt lat="45.785059914894845" lon="11.112223943739377"><ele>696.0</ele><time>2026-05-01T12:59:37Z</time></trkpt><trkpt lat="45.78507844727754" lon="11.11210839691201"><ele>694.4</ele><time>2026-05-01T12:59:38Z</time></trkpt><trkpt lat="45.78509598596002" lon="11.111985077183293"><ele>692.8</ele><time>2026-05-01T12:59:39Z</time></trkpt><trkpt lat="45.785112647279725" lon="11.11185531765809"><ele>691.1999999999999</ele><time>2026-05-01T12:59:40Z</time></trkpt><trkpt lat="45.7851262478586" lon="11.111718292378976"><ele>689.5999999999999</ele><time>2026-05-01T12:59:41Z</time></trkpt><trkpt lat="45.78513630685131" lon="11.111576524825628"><ele>688.0</ele><time>2026-05-01T12:59:42Z</time></trkpt><trkpt lat="45.785139880388385" lon="11.111438708639106"><ele>686.0</ele><time>2026-05-01T12:59:43Z</time></trkpt><trkpt lat="45.78514402795887" lon="11.111297352050192"><ele>684.0</ele><time>2026-05-01T12:59:44Z</time></trkpt><trkpt lat="45.7851571483502" lon="11.111156768371979"><ele>682.0</ele><time>2026-05-01T12:59:45Z</time></trkpt><trkpt lat="45.78518070461197" lon="11.111024055000346"><ele>680.0</ele><time>2026-05-01T12:59:46Z</time></trkpt><trkpt lat="45.785211491152324" lon="11.110895366659468"><ele>678.0</ele><time>2026-05-01T12:59:47Z</time></trkpt><trkpt lat="45.78524314321387" lon="11.110772645686868"><ele>681.0</ele><time>2026-05-01T12:59:48Z</time></trkpt><trkpt lat="45.785271169932734" lon="11.110647341437657"><ele>684.0</ele><time>2026-05-01T12:59:49Z</time></trkpt><trkpt lat="45.78529855307669" lon="11.110519326989056"><ele>687.0</ele><time>2026-05-01T12:59:50Z</time></trkpt><trkpt lat="45.78532153343853" lon="11.110384842509943"><ele>690.0</ele><time>2026-05-01T12:59:51Z</time></trkpt><trkpt lat="45.78534989469446" lon="11.110254831966593"><ele>693.0</ele><time>2026-05-01T12:59:52Z</time></trkpt><trkpt lat="45.78539056289065" lon="11.110133119200663"><ele>693.0</ele><time>2026-05-01T12:59:53Z</time></trkpt><trkpt lat="45.785442659030366" lon="11.110026241931774"><ele>693.0</ele><time>2026-05-01T12:59:54Z</time></trkpt><trkpt lat="45.78549889712881" lon="11.109925673496768"><ele>693.0</ele><time>2026-05-01T12:59:55Z</time></trkpt><trkpt lat="45.78555707280009" lon="11.10983302606845"><ele>693.0</ele><time>2026-05-01T12:59:56Z</time></trkpt><trkpt lat="45.7856145385824" lon="11.109744930405943"><ele>693.0</ele><time>2026-05-01T12:59:57Z</time></trkpt><trkpt lat="45.78568236269933" lon="11.109672523448722"><ele>693.0</ele><time>2026-05-01T12:59:58Z</time></trkpt><trkpt lat="45.78576125892426" lon="11.109612450235977"><ele>691.2</ele><time>2026-05-01T12:59:59Z</time></trkpt><trkpt lat="45.785856650835434" lon="11.10955968030918"><ele>689.4</ele><time>2026-05-01T13:00:00Z</time></trkpt><trkpt lat="45.785955783519746" lon="11.109510910531649"><ele>687.6</ele><time>2026-05-01T13:00:01Z</time></trkpt><trkpt lat="45.78605871526266" lon="11.109451629226779"><ele>685.8000000000001</ele><time>2026-05-01T13:00:02Z</time></trkpt><trkpt lat="45.78615704095236" lon="11.10937440748082"><ele>684.0</ele><time>2026-05-01T13:00:03Z</time></trkpt><trkpt lat="45.78625570284667" lon="11.10929110292399"><ele>684.0</ele><time>2026-05-01T13:00:04Z</time></trkpt><trkpt lat="45.78635466429355" lon="11.10919917617448"><ele>684.0</ele><time>2026-05-01T13:00:05Z</time></trkpt><trkpt lat="45.78646123954124" lon="11.109139987096441"><ele>684.0</ele><time>2026-05-01T13:00:06Z</time></trkpt><trkpt lat="45.78656772010003" lon="11.10910123554983"><ele>684.0</ele><time>2026-05-01T13:00:07Z</time></trkpt><trkpt lat="45.78667250506337" lon="11.109067988449295"><ele>684.0</ele><time>2026-05-01T13:00:08Z</time></trkpt><trkpt lat="45.78677233384818" lon="11.109048686465956"><ele>680.4000000000001</ele><time>2026-05-01T13:00:09Z</time></trkpt><trkpt lat="45.7868705199045" lon="11.109031221744713"><ele>676.8</ele><time>2026-05-01T13:00:10Z</time></trkpt><trkpt lat="45.78696543810266" lon="11.109025450519336"><ele>673.2</ele><time>2026-05-01T13:00:11Z</time></trkpt><trkpt lat="45.7870499513868" lon="11.10909929777496"><ele>669.5999999999999</ele><time>2026-05-01T13:00:12Z</time></trkpt><trkpt lat="45.787135433594635" lon="11.109163748779116"><ele>666.0</ele><time>2026-05-01T13:00:13Z</time></trkpt><trkpt lat="45.787217897341904" lon="11.109241182745128"><ele>666.0</ele><time>2026-05-01T13:00:14Z</time></trkpt><trkpt lat="45.787301322317305" lon="11.10931363578394"><ele>666.0</ele><time>2026-05-01T13:00:15Z</time></trkpt><trkpt lat="45.7873413452917" lon="11.109447596413574"><ele>666.0</ele><time>2026-05-01T13:00:16Z</time></trkpt><trkpt lat="45.78739194202531" lon="11.109577944578925"><ele>666.0</ele><time>2026-05-01T13:00:17Z</time></trkpt><trkpt lat="45.78743725263558" lon="11.109721315973779"><ele>666.0</ele><time>2026-05-01T13:00:18Z</time></trkpt><trkpt lat="45.787486700811264" lon="11.109861298021993"><ele>663.5999999999999</ele><time>2026-05-01T13:00:19Z</time></trkpt><trkpt lat="45.78755183976883" lon="11.109993448196944"><ele>661.2</ele><time>2026-05-01T13:00:20Z</time></trkpt><trkpt lat="45.787600270737904" lon="11.110128899393052"><ele>658.8</ele><time>2026-05-01T13:00:21Z</time></trkpt><trkpt lat="45.787659067129745" lon="11.110262984433827"><ele>656.4000000000001</ele><time>2026-05-01T13:00:22Z</time></trkpt><trkpt lat="45.787722248640584" lon="11.11040661914685"><ele>654.0</ele><time>2026-05-01T13:00:23Z</time></trkpt><trkpt lat="45.78778551465987" lon="11.110558614860173"><ele>654.0</ele><time>2026-05-01T13:00:24Z</time></trkpt><trkpt lat="45.78784959526936" lon="11.11070773163597"><ele>654.0</ele><time>2026-05-01T13:00:25Z</time></trkpt><trkpt lat="45.78794050245847" lon="11.110822188116291"><ele>654.0</ele><time>2026-05-01T13:00:26Z</time></trkpt><trkpt lat="45.7880412982483" lon="11.11092610443677"><ele>654.0</ele><time>2026-05-01T13:00:27Z</time></trkpt><trkpt lat="45.78813604396242" lon="11.111029559660354"><ele>655.5</ele><time>2026-05-01T13:00:28Z</time></trkpt><trkpt lat="45.78823262078827" lon="11.111126429882678"><ele>657.0</ele><time>2026-05-01T13:00:29Z</time></trkpt><trkpt lat="45.78833156379079" lon="11.111230926388984"><ele>658.5</ele><time>2026-05-01T13:00:30Z</time></trkpt><trkpt lat="45.78842556423396" lon="11.111324379989474"><ele>660.0</ele><time>2026-05-01T13:00:31Z</time></trkpt><trkpt lat="45.788524014797325" lon="11.111416839883308"><ele>660.0</ele><time>2026-05-01T13:00:32Z</time></trkpt><trkpt lat="45.78862530647404" lon="11.111509738022221"><ele>660.0</ele><time>2026-05-01T13:00:33Z</time></trkpt><trkpt lat="45.78872514322166" lon="11.111602190666437"><ele>660.0</ele><time>2026-05-01T13:00:34Z</time></trkpt><trkpt lat="45.788826202741134" lon="11.111686142385564"><ele>660.0</ele><time>2026-05-01T13:00:35Z</time></trkpt><trkpt lat="45.7889257010641" lon="11.111762334028244"><ele>661.6</ele><time>2026-05-01T13:00:36Z</time></trkpt><trkpt lat="45.78902341779627" lon="11.11182848611883"><ele>663.2</ele><time>2026-05-01T13:00:37Z</time></trkpt><trkpt lat="45.78912694026057" lon="11.111865927615026"><ele>664.8</ele><time>2026-05-01T13:00:38Z</time></trkpt><trkpt lat="45.789232802607394" lon="11.11188015195404"><ele>666.4</ele><time>2026-05-01T13:00:39Z</time></trkpt><trkpt lat="45.78933671080671" lon="11.111887325549135"><ele>668.0</ele><time>2026-05-01T13:00:40Z</time></trkpt><trkpt lat="45.789437979616736" lon="11.11189222591263"><ele>668.0</ele><time>2026-05-01T13:00:41Z</time></trkpt><trkpt lat="45.78954458220802" lon="11.111897863728268"><ele>668.0</ele><time>2026-05-01T13:00:42Z</time></trkpt><trkpt lat="45.78964183451997" lon="11.11190544393986"><ele>668.0</ele><time>2026-05-01T13:00:43Z</time></trkpt><trkpt lat="45.789740306184896" lon="11.111927617633027"><ele>668.0</ele><time>2026-05-01T13:00:44Z</time></trkpt><trkpt lat="45.78983129186662" lon="11.111954454190222"><ele>668.0</ele><time>2026-05-01T13:00:45Z</time></trkpt><trkpt lat="45.78991521636071" lon="11.11198665012711"><ele>668.0</ele><time>2026-05-01T13:00:46Z</time></trkpt><trkpt lat="45.789999116863946" lon="11.112054780730018"><ele>668.0</ele><time>2026-05-01T13:00:47Z</time></trkpt><trkpt lat="45.79008722098674" lon="11.112101325735356"><ele>668.0</ele><time>2026-05-01T13:00:48Z</time></trkpt><trkpt lat="45.790167171336456" lon="11.112153441251182"><ele>668.0</ele><time>2026-05-01T13:00:49Z</time></trkpt><trkpt lat="45.79024692104205" lon="11.112196267417113"><ele>668.0</ele><time>2026-05-01T13:00:50Z</time></trkpt><trkpt lat="45.79032885707116" lon="11.112267474391452"><ele>664.8</ele><time>2026-05-01T13:00:51Z</time></trkpt><trkpt lat="45.79038716266233" lon="11.112341155982445"><ele>661.5999999999999</ele><time>2026-05-01T13:00:52Z</time></trkpt><trkpt lat="45.79040281323948" lon="11.112481698696538"><ele>658.4000000000001</ele><time>2026-05-01T13:00:53Z</time></trkpt><trkpt lat="45.790444476354224" lon="11.112624048759331"><ele>655.2</ele><time>2026-05-01T13:00:54Z</time></trkpt><trkpt lat="45.79049449412172" lon="11.112770391377241"><ele>652.0</ele><time>2026-05-01T13:00:55Z</time></trkpt><trkpt lat="45.79055846253001" lon="11.112911312113098"><ele>652.0</ele><time>2026-05-01T13:00:56Z</time></trkpt><trkpt lat="45.79061292759296" lon="11.11306905860566"><ele>652.0</ele><time>2026-05-01T13:00:57Z</time></trkpt><trkpt lat="45.790669482186814" lon="11.113228545602976"><ele>652.0</ele><time>2026-05-01T13:00:58Z</time></trkpt><trkpt lat="45.79072206662451" lon="11.113390678092987"><ele>652.0</ele><time>2026-05-01T13:00:59Z</time></trkpt><trkpt lat="45.790776665810974" lon="11.113546895475825"><ele>651.0</ele><time>2026-05-01T13:01:00Z</time></trkpt><trkpt lat="45.7908432650132" lon="11.113692604984616"><ele>650.0</ele><time>2026-05-01T13:01:01Z</time></trkpt><trkpt lat="45.79091720257859" lon="11.113825802372267"><ele>649.0</ele><time>2026-05-01T13:01:02Z</time></trkpt><trkpt lat="45.79099496359158" lon="11.11395195494872"><ele>648.0</ele><time>2026-05-01T13:01:03Z</time></trkpt><trkpt lat="45.79107337083818" lon="11.114086583392252"><ele>648.0</ele><time>2026-05-01T13:01:04Z</time></trkpt><trkpt lat="45.79115917990442" lon="11.114212886984205"><ele>648.0</ele><time>2026-05-01T13:01:05Z</time></trkpt><trkpt lat="45.791250887533685" lon="11.114333764377655"><ele>648.0</ele><time>2026-05-01T13:01:06Z</time></trkpt><trkpt lat="45.79134846743063" lon="11.114446592036519"><ele>648.0</ele><time>2026-05-01T13:01:07Z</time></trkpt><trkpt lat="45.791451879587754" lon="11.114559645365068"><ele>648.0</ele><time>2026-05-01T13:01:08Z</time></trkpt><trkpt lat="45.79154980107479" lon="11.11466064251089"><ele>648.0</ele><time>2026-05-01T13:01:09Z</time></trkpt><trkpt lat="45.791642751202644" lon="11.114763608101661"><ele>648.0</ele><time>2026-05-01T13:01:10Z</time></trkpt><trkpt lat="45.791722385814545" lon="11.114880860728643"><ele>648.0</ele><time>2026-05-01T13:01:11Z</time></trkpt><trkpt lat="45.791777574193226" lon="11.115040232213046"><ele>650.5</ele><time>2026-05-01T13:01:12Z</time></trkpt><trkpt lat="45.79183533082586" lon="11.115194015953326"><ele>653.0</ele><time>2026-05-01T13:01:13Z</time></trkpt><trkpt lat="45.79189863236315" lon="11.115346259574947"><ele>655.5</ele><time>2026-05-01T13:01:14Z</time></trkpt><trkpt lat="45.79194710272544" lon="11.11549031551906"><ele>658.0</ele><time>2026-05-01T13:01:15Z</time></trkpt><trkpt lat="45.792014853943975" lon="11.115602995496662"><ele>658.25</ele><time>2026-05-01T13:01:16Z</time></trkpt><trkpt lat="45.7921136189762" lon="11.115658535301234"><ele>658.5</ele><time>2026-05-01T13:01:17Z</time></trkpt><trkpt lat="45.79224696015577" lon="11.115636996766593"><ele>658.75</ele><time>2026-05-01T13:01:18Z</time></trkpt><trkpt lat="45.79238081317768" lon="11.11559784253968"><ele>659.0</ele><time>2026-05-01T13:01:19Z</time></trkpt><trkpt lat="45.79251142917033" lon="11.11554749561254"><ele>659.0</ele><time>2026-05-01T13:01:20Z</time></trkpt><trkpt lat="45.79263217795841" lon="11.115460581326394"><ele>659.0</ele><time>2026-05-01T13:01:21Z</time></trkpt><trkpt lat="45.79272999192615" lon="11.115322708647382"><ele>659.0</ele><time>2026-05-01T13:01:22Z</time></trkpt><trkpt lat="45.79278879410364" lon="11.115158400184162"><ele>659.0</ele><time>2026-05-01T13:01:23Z</time></trkpt><trkpt lat="45.79281452870158" lon="11.114980551890364"><ele>667.0</ele><time>2026-05-01T13:01:24Z</time></trkpt><trkpt lat="45.79280613457469" lon="11.114800706010586"><ele>675.0</ele><time>2026-05-01T13:01:25Z</time></trkpt><trkpt lat="45.79279564613183" lon="11.114612341046257"><ele>683.0</ele><time>2026-05-01T13:01:26Z</time></trkpt><trkpt lat="45.792771840314714" lon="11.11441372491917"><ele>691.0</ele><time>2026-05-01T13:01:27Z</time></trkpt><trkpt lat="45.79275370748335" lon="11.114193250421607"><ele>689.6666666666667</ele><time>2026-05-01T13:01:28Z</time></trkpt><trkpt lat="45.792730401444565" lon="11.113938621927357"><ele>688.3333333333334</ele><time>2026-05-01T13:01:29Z</time></trkpt><trkpt lat="45.79270306706747" lon="11.1136489379693"><ele>687.0</ele><time>2026-05-01T13:01:30Z</time></trkpt><trkpt lat="45.79267799156171" lon="11.11335372765801"><ele>677.3333333333334</ele><time>2026-05-01T13:01:31Z</time></trkpt><trkpt lat="45.79265865096745" lon="11.113055879535402"><ele>667.6666666666667</ele><time>2026-05-01T13:01:32Z</time></trkpt><trkpt lat="45.79262384269651" lon="11.112779783872762"><ele>658.0</ele><time>2026-05-01T13:01:33Z</time></trkpt><trkpt lat="45.79258998047681" lon="11.112510193218322"><ele>657.6666666666667</ele><time>2026-05-01T13:01:34Z</time></trkpt><trkpt lat="45.79252303788123" lon="11.112244177434802"><ele>657.3333333333334</ele><time>2026-05-01T13:01:35Z</time></trkpt><trkpt lat="45.79245207385336" lon="11.11199051712883"><ele>657.0</ele><time>2026-05-01T13:01:36Z</time></trkpt><trkpt lat="45.79241058925153" lon="11.111722442397104"><ele>656.6666666666666</ele><time>2026-05-01T13:01:37Z</time></trkpt><trkpt lat="45.79236215020865" lon="11.111466781431867"><ele>656.3333333333333</ele><time>2026-05-01T13:01:38Z</time></trkpt><trkpt lat="45.79229747037223" lon="11.111220644646004"><ele>656.0</ele><time>2026-05-01T13:01:39Z</time></trkpt><trkpt lat="45.79224225134188" lon="11.11095893350975"><ele>654.0</ele><time>2026-05-01T13:01:40Z</time></trkpt><trkpt lat="45.79219929607132" lon="11.110695823783384"><ele>652.0</ele><time>2026-05-01T13:01:41Z</time></trkpt><trkpt lat="45.79216250676173" lon="11.110441916247524"><ele>650.0</ele><time>2026-05-01T13:01:42Z</time></trkpt><trkpt lat="45.79213681023522" lon="11.110195879106966"><ele>650.0</ele><time>2026-05-01T13:01:43Z</time></trkpt><trkpt lat="45.79212617556332" lon="11.109963371745366"><ele>650.0</ele><time>2026-05-01T13:01:44Z</time></trkpt><trkpt lat="45.792124006164286" lon="11.109737723007063"><ele>650.0</ele><time>2026-05-01T13:01:45Z</time></trkpt><trkpt lat="45.792133152776984" lon="11.109530851908792"><ele>648.75</ele><time>2026-05-01T13:01:46Z</time></trkpt><trkpt lat="45.7921489519234" lon="11.1093373833443"><ele>647.5</ele><time>2026-05-01T13:01:47Z</time></trkpt><trkpt lat="45.79217151483219" lon="11.109158517847094"><ele>646.25</ele><time>2026-05-01T13:01:48Z</time></trkpt><trkpt lat="45.79219718265285" lon="11.108992957712976"><ele>645.0</ele><time>2026-05-01T13:01:49Z</time></trkpt><trkpt lat="45.792237779071705" lon="11.108845687260041"><ele>644.5</ele><time>2026-05-01T13:01:50Z</time></trkpt><trkpt lat="45.79233031728578" lon="11.108746017354802"><ele>644.0</ele><time>2026-05-01T13:01:51Z</time></trkpt><trkpt lat="45.79241863591565" lon="11.10861802168661"><ele>643.5</ele><time>2026-05-01T13:01:52Z</time></trkpt><trkpt lat="45.792545514587964" lon="11.108501828623195"><ele>643.0</ele><time>2026-05-01T13:01:53Z</time></trkpt><trkpt lat="45.792679138419444" lon="11.108378580549596"><ele>642.3333333333334</ele><time>2026-05-01T13:01:54Z</time></trkpt><trkpt lat="45.79282373828342" lon="11.108246128891436"><ele>641.6666666666666</ele><time>2026-05-01T13:01:55Z</time></trkpt><trkpt lat="45.79297658984878" lon="11.108109010136854"><ele>641.0</ele><time>2026-05-01T13:01:56Z</time></trkpt><trkpt lat="45.79314294651852" lon="11.10797667295268"><ele>641.0</ele><time>2026-05-01T13:01:57Z</time></trkpt><trkpt lat="45.793319118556866" lon="11.10786175808179"><ele>641.0</ele><time>2026-05-01T13:01:58Z</time></trkpt><trkpt lat="45.79349597464242" lon="11.107762767504068"><ele>641.0</ele><time>2026-05-01T13:01:59Z</time></trkpt><trkpt lat="45.79367608035702" lon="11.107678742641355"><ele>640.3333333333333</ele><time>2026-05-01T13:02:00Z</time></trkpt><trkpt lat="45.793845265431365" lon="11.107599831742604"><ele>639.6666666666666</ele><time>2026-05-01T13:02:01Z</time></trkpt><trkpt lat="45.79401306447425" lon="11.10751932584371"><ele>639.0</ele><time>2026-05-01T13:02:02Z</time></trkpt><trkpt lat="45.794172981585454" lon="11.107438008174803"><ele>637.0</ele><time>2026-05-01T13:02:03Z</time></trkpt><trkpt lat="45.794311423058495" lon="11.107368624792624"><ele>635.0</ele><time>2026-05-01T13:02:04Z</time></trkpt><trkpt lat="45.794450345555504" lon="11.107299278143184"><ele>633.0</ele><time>2026-05-01T13:02:05Z</time></trkpt><trkpt lat="45.794579154043674" lon="11.107231170812575"><ele>631.0</ele><time>2026-05-01T13:02:06Z</time></trkpt><trkpt lat="45.79470815606195" lon="11.107156334316796"><ele>630.25</ele><time>2026-05-01T13:02:07Z</time></trkpt><trkpt lat="45.79483213061269" lon="11.1070866875962"><ele>629.5</ele><time>2026-05-01T13:02:08Z</time></trkpt><trkpt lat="45.79495981342127" lon="11.107022686689467"><ele>628.75</ele><time>2026-05-01T13:02:09Z</time></trkpt><trkpt lat="45.79508821872619" lon="11.106962395794685"><ele>628.0</ele><time>2026-05-01T13:02:10Z</time></trkpt><trkpt lat="45.79521242537913" lon="11.10688824986221"><ele>630.75</ele><time>2026-05-01T13:02:11Z</time></trkpt><trkpt lat="45.795342393824505" lon="11.10681810319317"><ele>633.5</ele><time>2026-05-01T13:02:12Z</time></trkpt><trkpt lat="45.79545513863535" lon="11.106746260641192"><ele>636.25</ele><time>2026-05-01T13:02:13Z</time></trkpt><trkpt lat="45.79557082268469" lon="11.106669532353271"><ele>639.0</ele><time>2026-05-01T13:02:14Z</time></trkpt><trkpt lat="45.79568418124057" lon="11.106587501018902"><ele>641.0</ele><time>2026-05-01T13:02:15Z</time></trkpt><trkpt lat="45.79579492163165" lon="11.106493873291681"><ele>643.0</ele><time>2026-05-01T13:02:16Z</time></trkpt><trkpt lat="45.79590304580241" lon="11.10639275448537"><ele>645.0</ele><time>2026-05-01T13:02:17Z</time></trkpt><trkpt lat="45.79600830115494" lon="11.106283128396367"><ele>647.0</ele><time>2026-05-01T13:02:18Z</time></trkpt><trkpt lat="45.796107702493245" lon="11.106146801070006"><ele>647.0</ele><time>2026-05-01T13:02:19Z</time></trkpt><trkpt lat="45.79620112484855" lon="11.105995455702816"><ele>647.0</ele><time>2026-05-01T13:02:20Z</time></trkpt><trkpt lat="45.796292826938554" lon="11.10583503828747"><ele>647.0</ele><time>2026-05-01T13:02:21Z</time></trkpt><trkpt lat="45.7963810285186" lon="11.105673388796214"><ele>647.0</ele><time>2026-05-01T13:02:22Z</time></trkpt><trkpt lat="45.79646886618602" lon="11.105513126605464"><ele>642.5</ele><time>2026-05-01T13:02:23Z</time></trkpt><trkpt lat="45.7965531338432" lon="11.105348051827415"><ele>638.0</ele><time>2026-05-01T13:02:24Z</time></trkpt><trkpt lat="45.796632186630234" lon="11.10517090159867"><ele>633.5</ele><time>2026-05-01T13:02:25Z</time></trkpt><trkpt lat="45.79671588090372" lon="11.1050072222561"><ele>629.0</ele><time>2026-05-01T13:02:26Z</time></trkpt><trkpt lat="45.79680103168016" lon="11.104854906810179"><ele>633.75</ele><time>2026-05-01T13:02:27Z</time></trkpt><trkpt lat="45.79688421445373" lon="11.104690206501102"><ele>638.5</ele><time>2026-05-01T13:02:28Z</time></trkpt><trkpt lat="45.79695758974962" lon="11.104531931068205"><ele>643.25</ele><time>2026-05-01T13:02:29Z</time></trkpt><trkpt lat="45.79703280870714" lon="11.104371925933545"><ele>648.0</ele><time>2026-05-01T13:02:30Z</time></trkpt><trkpt lat="45.79710074126727" lon="11.104213306110097"><ele>644.0</ele><time>2026-05-01T13:02:31Z</time></trkpt><trkpt lat="45.79715905486877" lon="11.104037284065333"><ele>640.0</ele><time>2026-05-01T13:02:32Z</time></trkpt><trkpt lat="45.79721639712882" lon="11.103872810994412"><ele>636.0</ele><time>2026-05-01T13:02:33Z</time></trkpt><trkpt lat="45.79728799312909" lon="11.10372662519141"><ele>632.0</ele><time>2026-05-01T13:02:34Z</time></trkpt><trkpt lat="45.79737223055413" lon="11.103603735435986"><ele>632.0</ele><time>2026-05-01T13:02:35Z</time></trkpt><trkpt lat="45.79748524205706" lon="11.103514616440867"><ele>632.0</ele><time>2026-05-01T13:02:36Z</time></trkpt><trkpt lat="45.79760451677974" lon="11.10343830654937"><ele>632.0</ele><time>2026-05-01T13:02:37Z</time></trkpt><trkpt lat="45.797718602737795" lon="11.103340729595011"><ele>632.0</ele><time>2026-05-01T13:02:38Z</time></trkpt><trkpt lat="45.7978302390222" lon="11.103222132501559"><ele>634.5</ele><time>2026-05-01T13:02:39Z</time></trkpt><trkpt lat="45.79793528737693" lon="11.103083497294227"><ele>637.0</ele><time>2026-05-01T13:02:40Z</time></trkpt><trkpt lat="45.798037515083124" lon="11.102940994386733"><ele>639.5</ele><time>2026-05-01T13:02:41Z</time></trkpt><trkpt lat="45.798143017137306" lon="11.102807729873888"><ele>642.0</ele><time>2026-05-01T13:02:42Z</time></trkpt><trkpt lat="45.798245162019604" lon="11.102678265378719"><ele>642.0</ele><time>2026-05-01T13:02:43Z</time></trkpt><trkpt lat="45.79835762225988" lon="11.102573616253695"><ele>642.0</ele><time>2026-05-01T13:02:44Z</time></trkpt><trkpt lat="45.79847972053204" lon="11.102504193595621"><ele>642.0</ele><time>2026-05-01T13:02:45Z</time></trkpt><trkpt lat="45.7986078530826" lon="11.102468684620158"><ele>642.0</ele><time>2026-05-01T13:02:46Z</time></trkpt><trkpt lat="45.79873176304024" lon="11.10243358623208"><ele>644.5</ele><time>2026-05-01T13:02:47Z</time></trkpt><trkpt lat="45.79883990771326" lon="11.102364320233066"><ele>647.0</ele><time>2026-05-01T13:02:48Z</time></trkpt><trkpt lat="45.79892596264967" lon="11.102218850894984"><ele>649.5</ele><time>2026-05-01T13:02:49Z</time></trkpt><trkpt lat="45.79899418253377" lon="11.102012147509365"><ele>652.0</ele><time>2026-05-01T13:02:50Z</time></trkpt><trkpt lat="45.799043016979134" lon="11.101777333201415"><ele>652.0</ele><time>2026-05-01T13:02:51Z</time></trkpt><trkpt lat="45.79908455277681" lon="11.101583133998414"><ele>652.0</ele><time>2026-05-01T13:02:52Z</time></trkpt><trkpt lat="45.79911740471435" lon="11.101426400798768"><ele>652.0</ele><time>2026-05-01T13:02:53Z</time></trkpt><trkpt lat="45.79916315046923" lon="11.101320053217192"><ele>652.0</ele><time>2026-05-01T13:02:54Z</time></trkpt><trkpt lat="45.799249693255305" lon="11.101245526635601"><ele>652.0</ele><time>2026-05-01T13:02:55Z</time></trkpt><trkpt lat="45.79936917237158" lon="11.101232085121463"><ele>649.3333333333334</ele><time>2026-05-01T13:02:56Z</time></trkpt><trkpt lat="45.79952181233832" lon="11.101247633472154"><ele>646.6666666666666</ele><time>2026-05-01T13:02:57Z</time></trkpt><trkpt lat="45.79971442969669" lon="11.101246053081068"><ele>644.0</ele><time>2026-05-01T13:02:58Z</time></trkpt><trkpt lat="45.79991547541334" lon="11.101248325944757"><ele>644.0</ele><time>2026-05-01T13:02:59Z</time></trkpt><trkpt lat="45.80009000094161" lon="11.101254575801537"><ele>644.0</ele><time>2026-05-01T13:03:00Z</time></trkpt><trkpt lat="45.800233094880085" lon="11.101298512295118"><ele>644.0</ele><time>2026-05-01T13:03:01Z</time></trkpt><trkpt lat="45.80036316620771" lon="11.101301099120146"><ele>655.0</ele><time>2026-05-01T13:03:02Z</time></trkpt><trkpt lat="45.80050019155276" lon="11.101210893326549"><ele>666.0</ele><time>2026-05-01T13:03:03Z</time></trkpt><trkpt lat="45.80063980531263" lon="11.101034211534158"><ele>677.0</ele><time>2026-05-01T13:03:04Z</time></trkpt><trkpt lat="45.80077997849853" lon="11.100843068026181"><ele>682.6666666666666</ele><time>2026-05-01T13:03:05Z</time></trkpt><trkpt lat="45.8008904577821" lon="11.100627411824231"><ele>688.3333333333334</ele><time>2026-05-01T13:03:06Z</time></trkpt><trkpt lat="45.80098625986459" lon="11.100350746635034"><ele>694.0</ele><time>2026-05-01T13:03:07Z</time></trkpt><trkpt lat="45.80108663238153" lon="11.100080854410269"><ele>673.6666666666667</ele><time>2026-05-01T13:03:08Z</time></trkpt><trkpt lat="45.80118492646974" lon="11.099852250877056"><ele>653.3333333333334</ele><time>2026-05-01T13:03:09Z</time></trkpt><trkpt lat="45.801282194793004" lon="11.099689371880007"><ele>633.0</ele><time>2026-05-01T13:03:10Z</time></trkpt><trkpt lat="45.80139464402536" lon="11.099575777650385"><ele>633.0</ele><time>2026-05-01T13:03:11Z</time></trkpt><trkpt lat="45.80150627751219" lon="11.099524425408642"><ele>633.0</ele><time>2026-05-01T13:03:12Z</time></trkpt><trkpt lat="45.8016544993163" lon="11.099475299323375"><ele>633.0</ele><time>2026-05-01T13:03:13Z</time></trkpt><trkpt lat="45.80183164164802" lon="11.099399125910235"><ele>625.6666666666666</ele><time>2026-05-01T13:03:14Z</time></trkpt><trkpt lat="45.802018409819055" lon="11.099288153802988"><ele>618.3333333333333</ele><time>2026-05-01T13:03:15Z</time></trkpt><trkpt lat="45.80221821341039" lon="11.099143332677679"><ele>611.0</ele><time>2026-05-01T13:03:15.999Z</time></trkpt><trkpt lat="45.80241501953646" lon="11.099031667210458"><ele>611.0</ele><time>2026-05-01T13:03:16.999Z</time></trkpt><trkpt lat="45.80258833317771" lon="11.09894212343546"><ele>611.0</ele><time>2026-05-01T13:03:17.999Z</time></trkpt><trkpt lat="45.80272913465401" lon="11.098808139839226"><ele>611.0</ele><time>2026-05-01T13:03:18.999Z</time></trkpt><trkpt lat="45.802840957760196" lon="11.098659712212918"><ele>619.5</ele><time>2026-05-01T13:03:19.999Z</time></trkpt><trkpt lat="45.80292996932027" lon="11.098547463636445"><ele>628.0</ele><time>2026-05-01T13:03:20.999Z</time></trkpt><trkpt lat="45.803026650338076" lon="11.098498399471435"><ele>636.5</ele><time>2026-05-01T13:03:21.999Z</time></trkpt><trkpt lat="45.80312633607116" lon="11.09847946280684"><ele>645.0</ele><time>2026-05-01T13:03:23Z</time></trkpt><trkpt lat="45.80325828753172" lon="11.09861348033936"><ele>645.0</ele><time>2026-05-01T13:03:24Z</time></trkpt><trkpt lat="45.80344399031588" lon="11.098694154141137"><ele>645.0</ele><time>2026-05-01T13:03:25Z</time></trkpt><trkpt lat="45.80365420226739" lon="11.098778255567748"><ele>645.0</ele><time>2026-05-01T13:03:26Z</time></trkpt><trkpt lat="45.80386890873545" lon="11.098839219142002"><ele>647.6666666666666</ele><time>2026-05-01T13:03:27Z</time></trkpt><trkpt lat="45.80404691388403" lon="11.098893068559809"><ele>650.3333333333333</ele><time>2026-05-01T13:03:28Z</time></trkpt><trkpt lat="45.804186923255" lon="11.098936940694038"><ele>653.0</ele><time>2026-05-01T13:03:29Z</time></trkpt><trkpt lat="45.804330155042805" lon="11.098936249476504"><ele>656.0</ele><time>2026-05-01T13:03:30Z</time></trkpt><trkpt lat="45.80445698382017" lon="11.098826783485285"><ele>659.0</ele><time>2026-05-01T13:03:31Z</time></trkpt><trkpt lat="45.80460008116715" lon="11.098730728454788"><ele>662.0</ele><time>2026-05-01T13:03:32Z</time></trkpt><trkpt lat="45.804782660281035" lon="11.098754196172372"><ele>662.0</ele><time>2026-05-01T13:03:33Z</time></trkpt><trkpt lat="45.80499207261724" lon="11.09873973785927"><ele>662.0</ele><time>2026-05-01T13:03:34Z</time></trkpt><trkpt lat="45.80520997407881" lon="11.098734077032972"><ele>662.0</ele><time>2026-05-01T13:03:35Z</time></trkpt><trkpt lat="45.80541394602963" lon="11.098739102569928"><ele>663.3333333333333</ele><time>2026-05-01T13:03:36Z</time></trkpt><trkpt lat="45.80560096671843" lon="11.09877339492305"><ele>664.6666666666666</ele><time>2026-05-01T13:03:37Z</time></trkpt><trkpt lat="45.805764449329146" lon="11.098838357164746"><ele>666.0</ele><time>2026-05-01T13:03:38Z</time></trkpt><trkpt lat="45.805907408309686" lon="11.098883526139428"><ele>672.6666666666666</ele><time>2026-05-01T13:03:39Z</time></trkpt><trkpt lat="45.80606674991491" lon="11.098841341454708"><ele>679.3333333333333</ele><time>2026-05-01T13:03:40Z</time></trkpt><trkpt lat="45.80624885993701" lon="11.098721380023887"><ele>686.0</ele><time>2026-05-01T13:03:41Z</time></trkpt><trkpt lat="45.806443058989984" lon="11.09856408888631"><ele>686.0</ele><time>2026-05-01T13:03:42Z</time></trkpt><trkpt lat="45.80662473157302" lon="11.098380973862628"><ele>686.0</ele><time>2026-05-01T13:03:43Z</time></trkpt><trkpt lat="45.806769149107545" lon="11.098169024374899"><ele>686.0</ele><time>2026-05-01T13:03:44Z</time></trkpt><trkpt lat="45.80690230820046" lon="11.097969753324039"><ele>686.3333333333333</ele><time>2026-05-01T13:03:45Z</time></trkpt><trkpt lat="45.80704941973327" lon="11.097817211383871"><ele>686.6666666666666</ele><time>2026-05-01T13:03:46Z</time></trkpt><trkpt lat="45.807186877991015" lon="11.097684679407019"><ele>687.0</ele><time>2026-05-01T13:03:47Z</time></trkpt><trkpt lat="45.80729880609169" lon="11.097539662904916"><ele>682.75</ele><time>2026-05-01T13:03:48Z</time></trkpt><trkpt lat="45.80738550135483" lon="11.097381467211203"><ele>678.5</ele><time>2026-05-01T13:03:49Z</time></trkpt><trkpt lat="45.807463442065846" lon="11.097246364529177"><ele>674.25</ele><time>2026-05-01T13:03:50Z</time></trkpt><trkpt lat="45.80756607344526" lon="11.097185622075047"><ele>670.0</ele><time>2026-05-01T13:03:51Z</time></trkpt><trkpt lat="45.80767208783016" lon="11.09713553903733"><ele>670.0</ele><time>2026-05-01T13:03:52Z</time></trkpt><trkpt lat="45.80776807479722" lon="11.097081930784938"><ele>670.0</ele><time>2026-05-01T13:03:53Z</time></trkpt><trkpt lat="45.807862441536685" lon="11.097046227903713"><ele>670.0</ele><time>2026-05-01T13:03:54Z</time></trkpt><trkpt lat="45.807964817260206" lon="11.097025242987177"><ele>670.0</ele><time>2026-05-01T13:03:55Z</time></trkpt><trkpt lat="45.80807069833366" lon="11.097022728920823"><ele>670.0</ele><time>2026-05-01T13:03:56Z</time></trkpt><trkpt lat="45.808182088402674" lon="11.097031262464142"><ele>670.0</ele><time>2026-05-01T13:03:57Z</time></trkpt><trkpt lat="45.808295053938195" lon="11.097026963009743"><ele>670.0</ele><time>2026-05-01T13:03:58Z</time></trkpt><trkpt lat="45.80839868380169" lon="11.096987415978631"><ele>670.0</ele><time>2026-05-01T13:03:59Z</time></trkpt><trkpt lat="45.80850173591847" lon="11.096947733999658"><ele>670.0</ele><time>2026-05-01T13:04:00Z</time></trkpt><trkpt lat="45.8086029024079" lon="11.09690192002999"><ele>670.0</ele><time>2026-05-01T13:04:01Z</time></trkpt><trkpt lat="45.80870593145584" lon="11.096845614727677"><ele>670.2</ele><time>2026-05-01T13:04:02Z</time></trkpt><trkpt lat="45.80880633956331" lon="11.096770910628765"><ele>670.4</ele><time>2026-05-01T13:04:03Z</time></trkpt><trkpt lat="45.80890580850307" lon="11.096692763473486"><ele>670.5999999999999</ele><time>2026-05-01T13:04:04Z</time></trkpt><trkpt lat="45.8089940304453" lon="11.096607842594919"><ele>670.8</ele><time>2026-05-01T13:04:05Z</time></trkpt><trkpt lat="45.80908144308807" lon="11.096509046400413"><ele>671.0</ele><time>2026-05-01T13:04:06Z</time></trkpt><trkpt lat="45.80916085241016" lon="11.09639733832086"><ele>671.0</ele><time>2026-05-01T13:04:07Z</time></trkpt><trkpt lat="45.80922669967885" lon="11.096262408827696"><ele>671.0</ele><time>2026-05-01T13:04:08Z</time></trkpt><trkpt lat="45.80928910636913" lon="11.096135045558219"><ele>671.0</ele><time>2026-05-01T13:04:09Z</time></trkpt><trkpt lat="45.80935944676546" lon="11.096009778450977"><ele>671.0</ele><time>2026-05-01T13:04:10Z</time></trkpt><trkpt lat="45.809443159596455" lon="11.095911049769667"><ele>671.0</ele><time>2026-05-01T13:04:11Z</time></trkpt><trkpt lat="45.80950381553644" lon="11.095798293963107"><ele>667.0</ele><time>2026-05-01T13:04:12Z</time></trkpt><trkpt lat="45.80957300562917" lon="11.095705750225273"><ele>663.0</ele><time>2026-05-01T13:04:13Z</time></trkpt><trkpt lat="45.80964583454216" lon="11.095623046994795"><ele>659.0</ele><time>2026-05-01T13:04:14Z</time></trkpt><trkpt lat="45.80972941434934" lon="11.095559029513304"><ele>655.0</ele><time>2026-05-01T13:04:15Z</time></trkpt><trkpt lat="45.809826845974065" lon="11.095530217852806"><ele>651.0</ele><time>2026-05-01T13:04:16Z</time></trkpt><trkpt lat="45.80992605842267" lon="11.095582250104288"><ele>651.0</ele><time>2026-05-01T13:04:17Z</time></trkpt><trkpt lat="45.81002864603982" lon="11.095623811542515"><ele>651.0</ele><time>2026-05-01T13:04:18Z</time></trkpt><trkpt lat="45.81013585470748" lon="11.095668213936579"><ele>651.0</ele><time>2026-05-01T13:04:19Z</time></trkpt><trkpt lat="45.81023836395709" lon="11.095747045905691"><ele>651.0</ele><time>2026-05-01T13:04:20Z</time></trkpt><trkpt lat="45.81034093519935" lon="11.095820206902403"><ele>651.0</ele><time>2026-05-01T13:04:21Z</time></trkpt><trkpt lat="45.81044894113381" lon="11.09586924578001"><ele>657.5</ele><time>2026-05-01T13:04:22Z</time></trkpt><trkpt lat="45.81056373073669" lon="11.095878092679442"><ele>664.0</ele><time>2026-05-01T13:04:23Z</time></trkpt><trkpt lat="45.81067898422146" lon="11.095866369082659"><ele>670.5</ele><time>2026-05-01T13:04:24Z</time></trkpt><trkpt lat="45.810780414654964" lon="11.095927735016462"><ele>677.0</ele><time>2026-05-01T13:04:25Z</time></trkpt><trkpt lat="45.81089125368792" lon="11.096005235354786"><ele>674.2</ele><time>2026-05-01T13:04:26Z</time></trkpt><trkpt lat="45.81100040881958" lon="11.096089023252212"><ele>671.4000000000001</ele><time>2026-05-01T13:04:27Z</time></trkpt><trkpt lat="45.811105571149405" lon="11.096148123765412"><ele>668.5999999999999</ele><time>2026-05-01T13:04:28Z</time></trkpt><trkpt lat="45.811201913703414" lon="11.09621350235764"><ele>665.8</ele><time>2026-05-01T13:04:29Z</time></trkpt><trkpt lat="45.811298596318586" lon="11.096267294090605"><ele>663.0</ele><time>2026-05-01T13:04:30Z</time></trkpt><trkpt lat="45.81139681736454" lon="11.09629155689663"><ele>663.0</ele><time>2026-05-01T13:04:31Z</time></trkpt><trkpt lat="45.811502431778315" lon="11.096278713461793"><ele>663.0</ele><time>2026-05-01T13:04:32Z</time></trkpt><trkpt lat="45.811612860592064" lon="11.096217435007304"><ele>663.0</ele><time>2026-05-01T13:04:33Z</time></trkpt><trkpt lat="45.811755665226094" lon="11.096102102246943"><ele>663.0</ele><time>2026-05-01T13:04:34Z</time></trkpt><trkpt lat="45.811942416772105" lon="11.095995585697581"><ele>658.0</ele><time>2026-05-01T13:04:35Z</time></trkpt><trkpt lat="45.812136034925864" lon="11.095838452239418"><ele>653.0</ele><time>2026-05-01T13:04:36Z</time></trkpt><trkpt lat="45.8123456895868" lon="11.095683891121617"><ele>653.0</ele><time>2026-05-01T13:04:37Z</time></trkpt><trkpt lat="45.81252889062072" lon="11.095511780685541"><ele>653.0</ele><time>2026-05-01T13:04:38Z</time></trkpt><trkpt lat="45.812668363300034" lon="11.095317008820743"><ele>653.0</ele><time>2026-05-01T13:04:39Z</time></trkpt><trkpt lat="45.81278828047935" lon="11.095130289941523"><ele>659.6666666666666</ele><time>2026-05-01T13:04:40Z</time></trkpt><trkpt lat="45.81291298704438" lon="11.094992422323566"><ele>666.3333333333334</ele><time>2026-05-01T13:04:41Z</time></trkpt><trkpt lat="45.813060649374876" lon="11.094931595217655"><ele>673.0</ele><time>2026-05-01T13:04:42Z</time></trkpt><trkpt lat="45.81322191580427" lon="11.094920331041974"><ele>658.6666666666667</ele><time>2026-05-01T13:04:43Z</time></trkpt><trkpt lat="45.81342463171656" lon="11.094896544753095"><ele>644.3333333333334</ele><time>2026-05-01T13:04:44Z</time></trkpt><trkpt lat="45.81364298372112" lon="11.094920675564818"><ele>630.0</ele><time>2026-05-01T13:04:45Z</time></trkpt><trkpt lat="45.81385533591538" lon="11.094890333886969"><ele>630.0</ele><time>2026-05-01T13:04:46Z</time></trkpt><trkpt lat="45.814043219138405" lon="11.094847717404782"><ele>630.0</ele><time>2026-05-01T13:04:47Z</time></trkpt><trkpt lat="45.81420660518834" lon="11.094824211675506"><ele>630.0</ele><time>2026-05-01T13:04:48Z</time></trkpt><trkpt lat="45.8143511986298" lon="11.094826384160697"><ele>633.3333333333334</ele><time>2026-05-01T13:04:49Z</time></trkpt><trkpt lat="45.81447472803797" lon="11.094917280127778"><ele>636.6666666666667</ele><time>2026-05-01T13:04:50Z</time></trkpt><trkpt lat="45.81458844571724" lon="11.095043761773638"><ele>640.0</ele><time>2026-05-01T13:04:51Z</time></trkpt><trkpt lat="45.814714199949755" lon="11.095221706045626"><ele>640.0</ele><time>2026-05-01T13:04:52Z</time></trkpt><trkpt lat="45.814866907683395" lon="11.095411813907464"><ele>640.0</ele><time>2026-05-01T13:04:53Z</time></trkpt><trkpt lat="45.815007412503945" lon="11.095626291045578"><ele>640.0</ele><time>2026-05-01T13:04:54Z</time></trkpt><trkpt lat="45.81512848899916" lon="11.095813973602862"><ele>647.6666666666667</ele><time>2026-05-01T13:04:55Z</time></trkpt><trkpt lat="45.8152036117564" lon="11.096030015640114"><ele>655.3333333333334</ele><time>2026-05-01T13:04:56Z</time></trkpt><trkpt lat="45.815268080779354" lon="11.096234164675082"><ele>663.0</ele><time>2026-05-01T13:04:57Z</time></trkpt><trkpt lat="45.81533477968486" lon="11.096388671626523"><ele>663.0</ele><time>2026-05-01T13:04:58Z</time></trkpt><trkpt lat="45.81537966888397" lon="11.096514892622071"><ele>663.0</ele><time>2026-05-01T13:04:59Z</time></trkpt><trkpt lat="45.81545754964553" lon="11.096577159003601"><ele>663.0</ele><time>2026-05-01T13:05:00Z</time></trkpt><trkpt lat="45.815555610750394" lon="11.096562977337088"><ele>663.0</ele><time>2026-05-01T13:05:01Z</time></trkpt><trkpt lat="45.815657632865815" lon="11.096464358991817"><ele>663.0</ele><time>2026-05-01T13:05:02Z</time></trkpt><trkpt lat="45.81575227391709" lon="11.096267203772323"><ele>663.0</ele><time>2026-05-01T13:05:03Z</time></trkpt><trkpt lat="45.81582977772735" lon="11.096027841626508"><ele>663.0</ele><time>2026-05-01T13:05:04Z</time></trkpt><trkpt lat="45.81586162432547" lon="11.095781335419378"><ele>663.0</ele><time>2026-05-01T13:05:05Z</time></trkpt><trkpt lat="45.81586571914762" lon="11.09557021212164"><ele>661.8</ele><time>2026-05-01T13:05:06Z</time></trkpt><trkpt lat="45.81588188253684" lon="11.09543205569299"><ele>660.5999999999999</ele><time>2026-05-01T13:05:07Z</time></trkpt><trkpt lat="45.815915578340004" lon="11.095327602360909"><ele>659.4000000000001</ele><time>2026-05-01T13:05:08Z</time></trkpt><trkpt lat="45.81599088735779" lon="11.09525805073014"><ele>658.2</ele><time>2026-05-01T13:05:09Z</time></trkpt><trkpt lat="45.8161255521808" lon="11.095220005689695"><ele>657.0</ele><time>2026-05-01T13:05:10Z</time></trkpt><trkpt lat="45.816302921652884" lon="11.095188646086426"><ele>657.0</ele><time>2026-05-01T13:05:11Z</time></trkpt><trkpt lat="45.81649509675311" lon="11.095102433573128"><ele>657.0</ele><time>2026-05-01T13:05:12Z</time></trkpt><trkpt lat="45.81665474318679" lon="11.094972236850115"><ele>657.0</ele><time>2026-05-01T13:05:13Z</time></trkpt><trkpt lat="45.81679001356336" lon="11.094842661606817"><ele>655.6666666666666</ele><time>2026-05-01T13:05:14Z</time></trkpt><trkpt lat="45.81691399432183" lon="11.094694858999498"><ele>654.3333333333333</ele><time>2026-05-01T13:05:15Z</time></trkpt><trkpt lat="45.817032326033264" lon="11.094534964668638"><ele>653.0</ele><time>2026-05-01T13:05:16Z</time></trkpt><trkpt lat="45.81714302124623" lon="11.09437657191269"><ele>653.0</ele><time>2026-05-01T13:05:17Z</time></trkpt><trkpt lat="45.817251209807544" lon="11.094229918956353"><ele>653.0</ele><time>2026-05-01T13:05:18Z</time></trkpt><trkpt lat="45.81735665296364" lon="11.09409461593534"><ele>653.0</ele><time>2026-05-01T13:05:19Z</time></trkpt><trkpt lat="45.817451847250574" lon="11.093956474365784"><ele>653.0</ele><time>2026-05-01T13:05:20Z</time></trkpt><trkpt lat="45.81752744200349" lon="11.093793439781564"><ele>653.75</ele><time>2026-05-01T13:05:21Z</time></trkpt><trkpt lat="45.81759475094686" lon="11.09362925405223"><ele>654.5</ele><time>2026-05-01T13:05:21.999Z</time></trkpt><trkpt lat="45.81766320330837" lon="11.093476620061308"><ele>655.25</ele><time>2026-05-01T13:05:22.999Z</time></trkpt><trkpt lat="45.81774243247495" lon="11.093342313879734"><ele>656.0</ele><time>2026-05-01T13:05:23.999Z</time></trkpt><trkpt lat="45.81781736656185" lon="11.093206771188749"><ele>653.25</ele><time>2026-05-01T13:05:24.999Z</time></trkpt><trkpt lat="45.81789393772292" lon="11.093082216556265"><ele>650.5</ele><time>2026-05-01T13:05:25.999Z</time></trkpt><trkpt lat="45.817976033135274" lon="11.092955773390942"><ele>647.75</ele><time>2026-05-01T13:05:26.999Z</time></trkpt><trkpt lat="45.818052895159" lon="11.092826130424196"><ele>645.0</ele><time>2026-05-01T13:05:27.999Z</time></trkpt><trkpt lat="45.818118790471935" lon="11.0926825115749"><ele>645.0</ele><time>2026-05-01T13:05:28.999Z</time></trkpt><trkpt lat="45.818194596286595" lon="11.092553642867582"><ele>645.0</ele><time>2026-05-01T13:05:29.999Z</time></trkpt><trkpt lat="45.81826070429497" lon="11.092419274804861"><ele>645.0</ele><time>2026-05-01T13:05:30.999Z</time></trkpt><trkpt lat="45.818321779317635" lon="11.092281878996232"><ele>645.0</ele><time>2026-05-01T13:05:32Z</time></trkpt><trkpt lat="45.81837693806454" lon="11.092145919308194"><ele>646.6</ele><time>2026-05-01T13:05:33Z</time></trkpt><trkpt lat="45.8184354301842" lon="11.092018648627253"><ele>648.2</ele><time>2026-05-01T13:05:34Z</time></trkpt><trkpt lat="45.81849925176216" lon="11.09189805064917"><ele>649.8</ele><time>2026-05-01T13:05:35Z</time></trkpt><trkpt lat="45.81859300312825" lon="11.091813577475774"><ele>651.4</ele><time>2026-05-01T13:05:36Z</time></trkpt><trkpt lat="45.81867962152275" lon="11.091706585527529"><ele>653.0</ele><time>2026-05-01T13:05:37Z</time></trkpt><trkpt lat="45.81876616575818" lon="11.091605140586621"><ele>645.0</ele><time>2026-05-01T13:05:38Z</time></trkpt><trkpt lat="45.81884595649754" lon="11.091489321956177"><ele>637.0</ele><time>2026-05-01T13:05:39Z</time></trkpt><trkpt lat="45.81893945150481" lon="11.091397676679408"><ele>629.0</ele><time>2026-05-01T13:05:40Z</time></trkpt><trkpt lat="45.819037322476845" lon="11.091315501347925"><ele>621.0</ele><time>2026-05-01T13:05:41Z</time></trkpt><trkpt lat="45.819137465286836" lon="11.091237314547602"><ele>621.0</ele><time>2026-05-01T13:05:42Z</time></trkpt><trkpt lat="45.8192484533373" lon="11.091157639505683"><ele>621.0</ele><time>2026-05-01T13:05:43Z</time></trkpt><trkpt lat="45.81938219797748" lon="11.091093777113619"><ele>621.0</ele><time>2026-05-01T13:05:44Z</time></trkpt><trkpt lat="45.81953612779443" lon="11.091014204296537"><ele>621.0</ele><time>2026-05-01T13:05:45Z</time></trkpt><trkpt lat="45.8196978271535" lon="11.090916784857596"><ele>625.3333333333334</ele><time>2026-05-01T13:05:46Z</time></trkpt><trkpt lat="45.81987658809108" lon="11.090842872938499"><ele>629.6666666666667</ele><time>2026-05-01T13:05:47Z</time></trkpt><trkpt lat="45.820056940024415" lon="11.090765921022381"><ele>634.0</ele><time>2026-05-01T13:05:48Z</time></trkpt><trkpt lat="45.82022787902501" lon="11.09070660922645"><ele>620.3333333333334</ele><time>2026-05-01T13:05:49Z</time></trkpt><trkpt lat="45.82040095943225" lon="11.090703425812203"><ele>606.6666666666666</ele><time>2026-05-01T13:05:50Z</time></trkpt><trkpt lat="45.82056737409892" lon="11.090698602612047"><ele>593.0</ele><time>2026-05-01T13:05:51Z</time></trkpt><trkpt lat="45.82073996366965" lon="11.090729561964833"><ele>601.6666666666666</ele><time>2026-05-01T13:05:52Z</time></trkpt><trkpt lat="45.82093036462087" lon="11.0907892892958"><ele>610.3333333333334</ele><time>2026-05-01T13:05:53Z</time></trkpt><trkpt lat="45.821142739929606" lon="11.090874889919387"><ele>619.0</ele><time>2026-05-01T13:05:54Z</time></trkpt><trkpt lat="45.8213493695535" lon="11.090954793411404"><ele>619.0</ele><time>2026-05-01T13:05:55Z</time></trkpt><trkpt lat="45.821540076073" lon="11.091023077743277"><ele>619.0</ele><time>2026-05-01T13:05:56Z</time></trkpt><trkpt lat="45.821740771956385" lon="11.091039179414148"><ele>619.0</ele><time>2026-05-01T13:05:57Z</time></trkpt><trkpt lat="45.821956425149175" lon="11.091003761170203"><ele>621.6666666666667</ele><time>2026-05-01T13:05:58Z</time></trkpt><trkpt lat="45.82215667911711" lon="11.090960284910546"><ele>624.3333333333334</ele><time>2026-05-01T13:05:59Z</time></trkpt><trkpt lat="45.822347445458114" lon="11.090917064695581"><ele>627.0</ele><time>2026-05-01T13:06:00Z</time></trkpt><trkpt lat="45.82252399714873" lon="11.090843909666031"><ele>633.0</ele><time>2026-05-01T13:06:01Z</time></trkpt><trkpt lat="45.822687570092555" lon="11.090742006560022"><ele>639.0</ele><time>2026-05-01T13:06:02Z</time></trkpt><trkpt lat="45.82283750040893" lon="11.090589739345576"><ele>645.0</ele><time>2026-05-01T13:06:03Z</time></trkpt><trkpt lat="45.82296124561171" lon="11.090403843869955"><ele>645.0</ele><time>2026-05-01T13:06:04Z</time></trkpt><trkpt lat="45.82305855522759" lon="11.090202094901198"><ele>645.0</ele><time>2026-05-01T13:06:05Z</time></trkpt><trkpt lat="45.82311734788627" lon="11.089981371401022"><ele>645.0</ele><time>2026-05-01T13:06:06Z</time></trkpt><trkpt lat="45.823133592085924" lon="11.089725444263582"><ele>639.6666666666666</ele><time>2026-05-01T13:06:07Z</time></trkpt><trkpt lat="45.8231163213358" lon="11.089464799173523"><ele>634.3333333333333</ele><time>2026-05-01T13:06:08Z</time></trkpt><trkpt lat="45.82305890539137" lon="11.089218913832761"><ele>629.0</ele><time>2026-05-01T13:06:09Z</time></trkpt><trkpt lat="45.823009597929925" lon="11.089035165137009"><ele>622.75</ele><time>2026-05-01T13:06:10Z</time></trkpt><trkpt lat="45.82298948928822" lon="11.088877738942546"><ele>616.5</ele><time>2026-05-01T13:06:11Z</time></trkpt><trkpt lat="45.82302033121308" lon="11.088729791500944"><ele>610.25</ele><time>2026-05-01T13:06:12Z</time></trkpt><trkpt lat="45.82310551952401" lon="11.088595963647236"><ele>604.0</ele><time>2026-05-01T13:06:13Z</time></trkpt><trkpt lat="45.82324600466428" lon="11.088446907894332"><ele>596.6666666666667</ele><time>2026-05-01T13:06:14Z</time></trkpt><trkpt lat="45.82340232184294" lon="11.088244568128593"><ele>589.3333333333334</ele><time>2026-05-01T13:06:15Z</time></trkpt><trkpt lat="45.82355232068278" lon="11.088008222067689"><ele>582.0</ele><time>2026-05-01T13:06:16Z</time></trkpt><trkpt lat="45.82368799149032" lon="11.087741371121703"><ele>591.0</ele><time>2026-05-01T13:06:17Z</time></trkpt><trkpt lat="45.823802073495365" lon="11.087460161178111"><ele>600.0</ele><time>2026-05-01T13:06:18Z</time></trkpt><trkpt lat="45.823886937109265" lon="11.087174007810033"><ele>609.0</ele><time>2026-05-01T13:06:19Z</time></trkpt><trkpt lat="45.823968713056885" lon="11.086908941455436"><ele>609.0</ele><time>2026-05-01T13:06:20Z</time></trkpt><trkpt lat="45.82404179332536" lon="11.086662208224148"><ele>609.0</ele><time>2026-05-01T13:06:21Z</time></trkpt><trkpt lat="45.824124763045376" lon="11.086441779948315"><ele>609.0</ele><time>2026-05-01T13:06:22Z</time></trkpt><trkpt lat="45.82424797477382" lon="11.086263192195053"><ele>615.0</ele><time>2026-05-01T13:06:23Z</time></trkpt><trkpt lat="45.82438376379039" lon="11.08609206713261"><ele>621.0</ele><time>2026-05-01T13:06:24Z</time></trkpt><trkpt lat="45.82449646653454" lon="11.085895131801687"><ele>627.0</ele><time>2026-05-01T13:06:25Z</time></trkpt><trkpt lat="45.82459935114217" lon="11.085724906952493"><ele>616.75</ele><time>2026-05-01T13:06:26Z</time></trkpt><trkpt lat="45.82469889741312" lon="11.085584278949172"><ele>606.5</ele><time>2026-05-01T13:06:27Z</time></trkpt><trkpt lat="45.824841613896616" lon="11.085514892463928"><ele>596.25</ele><time>2026-05-01T13:06:28Z</time></trkpt><trkpt lat="45.82497392811317" lon="11.08539696410689"><ele>586.0</ele><time>2026-05-01T13:06:29Z</time></trkpt><trkpt lat="45.825096736378335" lon="11.085234468368455"><ele>593.6666666666667</ele><time>2026-05-01T13:06:30Z</time></trkpt><trkpt lat="45.82519292532347" lon="11.085002958743575"><ele>601.3333333333334</ele><time>2026-05-01T13:06:31Z</time></trkpt><trkpt lat="45.825260402707215" lon="11.084736975534616"><ele>609.0</ele><time>2026-05-01T13:06:32Z</time></trkpt><trkpt lat="45.825308942746005" lon="11.084477023734712"><ele>609.0</ele><time>2026-05-01T13:06:33Z</time></trkpt><trkpt lat="45.825374444417655" lon="11.084251436937421"><ele>609.0</ele><time>2026-05-01T13:06:34Z</time></trkpt><trkpt lat="45.82548066862179" lon="11.08402564930428"><ele>609.0</ele><time>2026-05-01T13:06:35Z</time></trkpt><trkpt lat="45.82559615598359" lon="11.083800432400091"><ele>600.5</ele><time>2026-05-01T13:06:36Z</time></trkpt><trkpt lat="45.82569588081518" lon="11.083596784329675"><ele>592.0</ele><time>2026-05-01T13:06:37Z</time></trkpt><trkpt lat="45.82577864105334" lon="11.083420507294784"><ele>583.5</ele><time>2026-05-01T13:06:38Z</time></trkpt><trkpt lat="45.82584871649555" lon="11.08328446173849"><ele>575.0</ele><time>2026-05-01T13:06:39Z</time></trkpt><trkpt lat="45.82593726481464" lon="11.08318248224951"><ele>577.3333333333333</ele><time>2026-05-01T13:06:40Z</time></trkpt><trkpt lat="45.82606347756036" lon="11.083163424458734"><ele>579.6666666666666</ele><time>2026-05-01T13:06:41Z</time></trkpt><trkpt lat="45.82622299007074" lon="11.083099390257106"><ele>582.0</ele><time>2026-05-01T13:06:42Z</time></trkpt><trkpt lat="45.82639725571475" lon="11.083029537558934"><ele>582.0</ele><time>2026-05-01T13:06:43Z</time></trkpt><trkpt lat="45.826533306877096" lon="11.082911717491788"><ele>582.0</ele><time>2026-05-01T13:06:44Z</time></trkpt><trkpt lat="45.826629548911065" lon="11.082743859806266"><ele>582.0</ele><time>2026-05-01T13:06:45Z</time></trkpt><trkpt lat="45.826697767042205" lon="11.082537221164586"><ele>584.6666666666666</ele><time>2026-05-01T13:06:46Z</time></trkpt><trkpt lat="45.82675474536318" lon="11.082275522944716"><ele>587.3333333333333</ele><time>2026-05-01T13:06:47Z</time></trkpt><trkpt lat="45.82681485867167" lon="11.082030830337791"><ele>590.0</ele><time>2026-05-01T13:06:48Z</time></trkpt><trkpt lat="45.82689583760944" lon="11.08184274586418"><ele>590.0</ele><time>2026-05-01T13:06:49Z</time></trkpt><trkpt lat="45.826946045724455" lon="11.081679820897854"><ele>590.0</ele><time>2026-05-01T13:06:50Z</time></trkpt><trkpt lat="45.827033127119655" lon="11.081558276281598"><ele>590.0</ele><time>2026-05-01T13:06:51Z</time></trkpt><trkpt lat="45.82717798817421" lon="11.081491858714472"><ele>590.0</ele><time>2026-05-01T13:06:52Z</time></trkpt><trkpt lat="45.82728929246761" lon="11.081364512687122"><ele>588.0</ele><time>2026-05-01T13:06:53Z</time></trkpt><trkpt lat="45.82736757976722" lon="11.08119320250176"><ele>586.0</ele><time>2026-05-01T13:06:54Z</time></trkpt><trkpt lat="45.82743403042646" lon="11.081038042099557"><ele>584.0</ele><time>2026-05-01T13:06:55Z</time></trkpt><trkpt lat="45.827538063038254" lon="11.080948678095613"><ele>582.0</ele><time>2026-05-01T13:06:56Z</time></trkpt><trkpt lat="45.82768760588044" lon="11.080915082093803"><ele>582.0</ele><time>2026-05-01T13:06:57Z</time></trkpt><trkpt lat="45.82784227224995" lon="11.08081828194423"><ele>582.0</ele><time>2026-05-01T13:06:58Z</time></trkpt><trkpt lat="45.827992297630175" lon="11.080620146855548"><ele>582.0</ele><time>2026-05-01T13:06:59Z</time></trkpt><trkpt lat="45.828113082955426" lon="11.080372038274838"><ele>574.25</ele><time>2026-05-01T13:07:00Z</time></trkpt><trkpt lat="45.82819658872176" lon="11.080165330935337"><ele>566.5</ele><time>2026-05-01T13:07:01Z</time></trkpt><trkpt lat="45.82826828586601" lon="11.080022238828608"><ele>558.75</ele><time>2026-05-01T13:07:02Z</time></trkpt><trkpt lat="45.8283449056934" lon="11.079935698867375"><ele>551.0</ele><time>2026-05-01T13:07:03Z</time></trkpt><trkpt lat="45.828475865454784" lon="11.079953278944805"><ele>545.3333333333333</ele><time>2026-05-01T13:07:04Z</time></trkpt><trkpt lat="45.828611981575044" lon="11.07988591615193"><ele>539.6666666666666</ele><time>2026-05-01T13:07:05Z</time></trkpt><trkpt lat="45.828744058652084" lon="11.079771149463856"><ele>534.0</ele><time>2026-05-01T13:07:06Z</time></trkpt><trkpt lat="45.82884092744013" lon="11.079581940088742"><ele>534.0</ele><time>2026-05-01T13:07:07Z</time></trkpt><trkpt lat="45.82890613177402" lon="11.079384388379976"><ele>534.0</ele><time>2026-05-01T13:07:08Z</time></trkpt><trkpt lat="45.829030856951704" lon="11.079278741930716"><ele>534.0</ele><time>2026-05-01T13:07:09Z</time></trkpt><trkpt lat="45.82912476209727" lon="11.07912222962507"><ele>534.0</ele><time>2026-05-01T13:07:10Z</time></trkpt><trkpt lat="45.8291817760946" lon="11.078969702559302"><ele>527.0</ele><time>2026-05-01T13:07:11Z</time></trkpt><trkpt lat="45.82920647726698" lon="11.078847602680861"><ele>520.0</ele><time>2026-05-01T13:07:12Z</time></trkpt><trkpt lat="45.829325106994446" lon="11.078845280814777"><ele>513.0</ele><time>2026-05-01T13:07:14Z</time></trkpt><trkpt lat="45.82935281478814" lon="11.079046287627945"><ele>506.0</ele><time>2026-05-01T13:07:15Z</time></trkpt><trkpt lat="45.82949425541683" lon="11.079186731523938"><ele>506.0</ele><time>2026-05-01T13:07:16Z</time></trkpt><trkpt lat="45.82962246404536" lon="11.079381407747732"><ele>506.0</ele><time>2026-05-01T13:07:17Z</time></trkpt><trkpt lat="45.82975364941335" lon="11.079584814391286"><ele>506.0</ele><time>2026-05-01T13:07:18Z</time></trkpt><trkpt lat="45.829818756362464" lon="11.079806096135782"><ele>514.6666666666666</ele><time>2026-05-01T13:07:19Z</time></trkpt><trkpt lat="45.82987868364164" lon="11.080020764899649"><ele>523.3333333333334</ele><time>2026-05-01T13:07:20Z</time></trkpt><trkpt lat="45.82992383205141" lon="11.0802639825387"><ele>532.0</ele><time>2026-05-01T13:07:21Z</time></trkpt><trkpt lat="45.82996603236713" lon="11.080555971588394"><ele>552.0</ele><time>2026-05-01T13:07:22Z</time></trkpt><trkpt lat="45.830054412118535" lon="11.080826303481507"><ele>572.0</ele><time>2026-05-01T13:07:23Z</time></trkpt><trkpt lat="45.83013624068299" lon="11.081040713187711"><ele>592.0</ele><time>2026-05-01T13:07:24Z</time></trkpt><trkpt lat="45.83019960159038" lon="11.081209446961262"><ele>592.0</ele><time>2026-05-01T13:07:25Z</time></trkpt><trkpt lat="45.83024051420359" lon="11.08134558911264"><ele>592.0</ele><time>2026-05-01T13:07:26Z</time></trkpt><trkpt lat="45.83033126579249" lon="11.081433965534174"><ele>592.0</ele><time>2026-05-01T13:07:27Z</time></trkpt><trkpt lat="45.830437348141906" lon="11.081443641978055"><ele>592.0</ele><time>2026-05-01T13:07:28Z</time></trkpt><trkpt lat="45.83055429739949" lon="11.081386034732978"><ele>592.0</ele><time>2026-05-01T13:07:29Z</time></trkpt><trkpt lat="45.83065702511193" lon="11.081243459238305"><ele>577.0</ele><time>2026-05-01T13:07:30Z</time></trkpt><trkpt lat="45.83073849808116" lon="11.08102019891746"><ele>562.0</ele><time>2026-05-01T13:07:31Z</time></trkpt><trkpt lat="45.83081346714177" lon="11.080735664192074"><ele>547.0</ele><time>2026-05-01T13:07:32Z</time></trkpt><trkpt lat="45.830890325650884" lon="11.080444322716527"><ele>547.0</ele><time>2026-05-01T13:07:33Z</time></trkpt><trkpt lat="45.830960932315726" lon="11.080126961704734"><ele>547.0</ele><time>2026-05-01T13:07:34Z</time></trkpt><trkpt lat="45.83100883485873" lon="11.079816808647402"><ele>546.25</ele><time>2026-05-01T13:07:35Z</time></trkpt><trkpt lat="45.83103769807123" lon="11.079554118356679"><ele>545.5</ele><time>2026-05-01T13:07:36Z</time></trkpt><trkpt lat="45.8310897125993" lon="11.079355299942232"><ele>544.75</ele><time>2026-05-01T13:07:37Z</time></trkpt><trkpt lat="45.83109390640623" lon="11.079190432045149"><ele>544.0</ele><time>2026-05-01T13:07:38Z</time></trkpt><trkpt lat="45.83112550518667" lon="11.079067794216229"><ele>544.0</ele><time>2026-05-01T13:07:39Z</time></trkpt><trkpt lat="45.83118851777217" lon="11.07898215653537"><ele>544.0</ele><time>2026-05-01T13:07:40Z</time></trkpt><trkpt lat="45.83129917174227" lon="11.078982649741645"><ele>544.0</ele><time>2026-05-01T13:07:41Z</time></trkpt><trkpt lat="45.831426809013706" lon="11.078953536474657"><ele>544.0</ele><time>2026-05-01T13:07:42Z</time></trkpt><trkpt lat="45.83156333389418" lon="11.078919448111447"><ele>544.0</ele><time>2026-05-01T13:07:43Z</time></trkpt><trkpt lat="45.83165679184489" lon="11.078814374864768"><ele>544.0</ele><time>2026-05-01T13:07:44Z</time></trkpt><trkpt lat="45.831702882143226" lon="11.07865752926113"><ele>544.0</ele><time>2026-05-01T13:07:45Z</time></trkpt><trkpt lat="45.83170306851261" lon="11.078449984432082"><ele>544.0</ele><time>2026-05-01T13:07:46Z</time></trkpt><trkpt lat="45.831670759218014" lon="11.078236240285674"><ele>552.0</ele><time>2026-05-01T13:07:47Z</time></trkpt><trkpt lat="45.831643214724146" lon="11.078069209485273"><ele>560.0</ele><time>2026-05-01T13:07:48Z</time></trkpt><trkpt lat="45.831647273405906" lon="11.077932443574959"><ele>568.0</ele><time>2026-05-01T13:07:49Z</time></trkpt><trkpt lat="45.83171138167037" lon="11.077792262237903"><ele>576.0</ele><time>2026-05-01T13:07:50Z</time></trkpt><trkpt lat="45.8318241900644" lon="11.07764019953837"><ele>576.0</ele><time>2026-05-01T13:07:51Z</time></trkpt><trkpt lat="45.831979012701936" lon="11.077507614254309"><ele>576.0</ele><time>2026-05-01T13:07:52Z</time></trkpt><trkpt lat="45.83217253340202" lon="11.077376602899468"><ele>576.0</ele><time>2026-05-01T13:07:53Z</time></trkpt><trkpt lat="45.8323681809257" lon="11.077231422631971"><ele>565.0</ele><time>2026-05-01T13:07:54Z</time></trkpt><trkpt lat="45.83255098743465" lon="11.077123165386842"><ele>554.0</ele><time>2026-05-01T13:07:55Z</time></trkpt><trkpt lat="45.8327185070473" lon="11.077044857432087"><ele>543.0</ele><time>2026-05-01T13:07:56Z</time></trkpt><trkpt lat="45.83288981403029" lon="11.07702266358446"><ele>543.0</ele><time>2026-05-01T13:07:57Z</time></trkpt><trkpt lat="45.83308242255026" lon="11.07706443197676"><ele>543.0</ele><time>2026-05-01T13:07:58Z</time></trkpt><trkpt lat="45.83325455277047" lon="11.077078044196249"><ele>543.0</ele><time>2026-05-01T13:07:59Z</time></trkpt><trkpt lat="45.83341558535" lon="11.077044174244318"><ele>550.6666666666666</ele><time>2026-05-01T13:08:00Z</time></trkpt><trkpt lat="45.83359509616889" lon="11.076923797452352"><ele>558.3333333333333</ele><time>2026-05-01T13:08:01Z</time></trkpt><trkpt lat="45.833767095398606" lon="11.076776089250162"><ele>566.0</ele><time>2026-05-01T13:08:02Z</time></trkpt><trkpt lat="45.8339595143137" lon="11.076674029484865"><ele>566.0</ele><time>2026-05-01T13:08:03Z</time></trkpt><trkpt lat="45.83417534148568" lon="11.076612281402923"><ele>566.0</ele><time>2026-05-01T13:08:04Z</time></trkpt><trkpt lat="45.83438852648272" lon="11.07654378358399"><ele>566.0</ele><time>2026-05-01T13:08:05Z</time></trkpt><trkpt lat="45.834582385946824" lon="11.076468045049683"><ele>556.6666666666666</ele><time>2026-05-01T13:08:06Z</time></trkpt><trkpt lat="45.83477302107812" lon="11.076406776891218"><ele>547.3333333333334</ele><time>2026-05-01T13:08:07Z</time></trkpt><trkpt lat="45.83496223797042" lon="11.076364812346464"><ele>538.0</ele><time>2026-05-01T13:08:08Z</time></trkpt><trkpt lat="45.83514670920046" lon="11.076327805728647"><ele>538.0</ele><time>2026-05-01T13:08:09Z</time></trkpt><trkpt lat="45.835327753688816" lon="11.076291749218596"><ele>538.0</ele><time>2026-05-01T13:08:10Z</time></trkpt><trkpt lat="45.83550395531811" lon="11.076261116277365"><ele>538.0</ele><time>2026-05-01T13:08:11Z</time></trkpt><trkpt lat="45.83568362591843" lon="11.076237165588664"><ele>538.0</ele><time>2026-05-01T13:08:12Z</time></trkpt><trkpt lat="45.835866224180805" lon="11.076234500306853"><ele>538.0</ele><time>2026-05-01T13:08:13Z</time></trkpt><trkpt lat="45.8360386735219" lon="11.07624754861761"><ele>538.0</ele><time>2026-05-01T13:08:14Z</time></trkpt><trkpt lat="45.83620011840176" lon="11.076290433854002"><ele>534.0</ele><time>2026-05-01T13:08:15Z</time></trkpt><trkpt lat="45.836349895801106" lon="11.076316305300578"><ele>530.0</ele><time>2026-05-01T13:08:16Z</time></trkpt><trkpt lat="45.836469003129736" lon="11.076369122458795"><ele>526.0</ele><time>2026-05-01T13:08:17Z</time></trkpt><trkpt lat="45.83655168562438" lon="11.076432224419834"><ele>522.0</ele><time>2026-05-01T13:08:18Z</time></trkpt><trkpt lat="45.83658459750311" lon="11.076554399719411"><ele>528.25</ele><time>2026-05-01T13:08:19Z</time></trkpt><trkpt lat="45.8365953796727" lon="11.076672578310363"><ele>534.5</ele><time>2026-05-01T13:08:20Z</time></trkpt><trkpt lat="45.836574229290314" lon="11.076827299726254"><ele>540.75</ele><time>2026-05-01T13:08:21Z</time></trkpt><trkpt lat="45.836564281426575" lon="11.07706331976633"><ele>547.0</ele><time>2026-05-01T13:08:22Z</time></trkpt><trkpt lat="45.83656456112322" lon="11.077329657979353"><ele>552.0</ele><time>2026-05-01T13:08:23Z</time></trkpt><trkpt lat="45.83659616478777" lon="11.077567233627141"><ele>557.0</ele><time>2026-05-01T13:08:24Z</time></trkpt><trkpt lat="45.836642325707224" lon="11.077766910670594"><ele>562.0</ele><time>2026-05-01T13:08:25Z</time></trkpt><trkpt lat="45.8367252324828" lon="11.077930375194624"><ele>550.3333333333334</ele><time>2026-05-01T13:08:26Z</time></trkpt><trkpt lat="45.836842869642076" lon="11.078063225922419"><ele>538.6666666666666</ele><time>2026-05-01T13:08:27Z</time></trkpt><trkpt lat="45.836997286060544" lon="11.078149361030022"><ele>527.0</ele><time>2026-05-01T13:08:28Z</time></trkpt><trkpt lat="45.83715196777535" lon="11.078175978314402"><ele>527.0</ele><time>2026-05-01T13:08:29Z</time></trkpt><trkpt lat="45.83726879081984" lon="11.078201897027146"><ele>527.0</ele><time>2026-05-01T13:08:30Z</time></trkpt><trkpt lat="45.83735759239173" lon="11.078175283790632"><ele>527.0</ele><time>2026-05-01T13:08:31Z</time></trkpt><trkpt lat="45.83743588291049" lon="11.078074972140593"><ele>527.0</ele><time>2026-05-01T13:08:32Z</time></trkpt><trkpt lat="45.83750010503385" lon="11.077975307443614"><ele>527.0</ele><time>2026-05-01T13:08:33Z</time></trkpt><trkpt lat="45.83757928274757" lon="11.077947421212142"><ele>528.4</ele><time>2026-05-01T13:08:34Z</time></trkpt><trkpt lat="45.837680814365825" lon="11.077974369880343"><ele>529.8000000000001</ele><time>2026-05-01T13:08:35Z</time></trkpt><trkpt lat="45.83778729602537" lon="11.078023213265412"><ele>531.2</ele><time>2026-05-01T13:08:36Z</time></trkpt><trkpt lat="45.837893962979265" lon="11.078071460120292"><ele>532.6</ele><time>2026-05-01T13:08:37Z</time></trkpt><trkpt lat="45.83800151753919" lon="11.078118168302874"><ele>534.0</ele><time>2026-05-01T13:08:38Z</time></trkpt><trkpt lat="45.83811768195646" lon="11.078155315185146"><ele>534.0</ele><time>2026-05-01T13:08:39Z</time></trkpt><trkpt lat="45.83823984517846" lon="11.078153253319972"><ele>534.0</ele><time>2026-05-01T13:08:40Z</time></trkpt><trkpt lat="45.838370425189794" lon="11.078082171836327"><ele>534.0</ele><time>2026-05-01T13:08:41Z</time></trkpt><trkpt lat="45.838486929811516" lon="11.078007077900807"><ele>534.0</ele><time>2026-05-01T13:08:42Z</time></trkpt><trkpt lat="45.838594266642595" lon="11.077923402952923"><ele>533.75</ele><time>2026-05-01T13:08:43Z</time></trkpt><trkpt lat="45.838701540859596" lon="11.077838442519479"><ele>533.5</ele><time>2026-05-01T13:08:44Z</time></trkpt><trkpt lat="45.838809838016395" lon="11.077732490522717"><ele>533.25</ele><time>2026-05-01T13:08:45Z</time></trkpt><trkpt lat="45.83892372018098" lon="11.077566557952652"><ele>533.0</ele><time>2026-05-01T13:08:46Z</time></trkpt><trkpt lat="45.839041766928304" lon="11.077327862867925"><ele>533.0</ele><time>2026-05-01T13:08:47Z</time></trkpt><trkpt lat="45.839177455129935" lon="11.077074251953173"><ele>533.0</ele><time>2026-05-01T13:08:48Z</time></trkpt><trkpt lat="45.83929245737152" lon="11.076871873746287"><ele>533.0</ele><time>2026-05-01T13:08:49Z</time></trkpt><trkpt lat="45.83939550651534" lon="11.076687919517637"><ele>528.5</ele><time>2026-05-01T13:08:50Z</time></trkpt><trkpt lat="45.83949346216644" lon="11.07653835590558"><ele>524.0</ele><time>2026-05-01T13:08:51Z</time></trkpt><trkpt lat="45.83961159086951" lon="11.076465648557603"><ele>519.5</ele><time>2026-05-01T13:08:52Z</time></trkpt><trkpt lat="45.83975785775818" lon="11.07645369416219"><ele>515.0</ele><time>2026-05-01T13:08:53Z</time></trkpt><trkpt lat="45.83994239869992" lon="11.076433370442004"><ele>520.3333333333333</ele><time>2026-05-01T13:08:54Z</time></trkpt><trkpt lat="45.840144377609846" lon="11.076461446672962"><ele>525.6666666666666</ele><time>2026-05-01T13:08:55Z</time></trkpt><trkpt lat="45.840353456117384" lon="11.076456414721784"><ele>531.0</ele><time>2026-05-01T13:08:56Z</time></trkpt><trkpt lat="45.84055597319127" lon="11.076375328251132"><ele>531.0</ele><time>2026-05-01T13:08:57Z</time></trkpt><trkpt lat="45.84073147225344" lon="11.076254104142295"><ele>531.0</ele><time>2026-05-01T13:08:58Z</time></trkpt><trkpt lat="45.840879514183456" lon="11.076146804336664"><ele>531.0</ele><time>2026-05-01T13:08:59Z</time></trkpt><trkpt lat="45.84100893480923" lon="11.076090429363695"><ele>530.3333333333334</ele><time>2026-05-01T13:09:00Z</time></trkpt><trkpt lat="45.84115829634478" lon="11.076131097421682"><ele>529.6666666666667</ele><time>2026-05-01T13:09:01Z</time></trkpt><trkpt lat="45.84134117897539" lon="11.076118751602664"><ele>529.0</ele><time>2026-05-01T13:09:02Z</time></trkpt><trkpt lat="45.84151635480144" lon="11.076121932058141"><ele>529.0</ele><time>2026-05-01T13:09:03Z</time></trkpt><trkpt lat="45.84165341090715" lon="11.076102298106022"><ele>529.0</ele><time>2026-05-01T13:09:04Z</time></trkpt><trkpt lat="45.84175636102705" lon="11.076091105656978"><ele>529.0</ele><time>2026-05-01T13:09:05Z</time></trkpt><trkpt lat="45.841852741212705" lon="11.076140372571396"><ele>529.0</ele><time>2026-05-01T13:09:06Z</time></trkpt><trkpt lat="45.84191679516889" lon="11.076303022400106"><ele>523.6666666666667</ele><time>2026-05-01T13:09:07Z</time></trkpt><trkpt lat="45.84199602399805" lon="11.076502621937133"><ele>518.3333333333334</ele><time>2026-05-01T13:09:08Z</time></trkpt><trkpt lat="45.8421128120486" lon="11.076706770441872"><ele>513.0</ele><time>2026-05-01T13:09:09Z</time></trkpt><trkpt lat="45.84219958999225" lon="11.07687861570635"><ele>526.25</ele><time>2026-05-01T13:09:10Z</time></trkpt><trkpt lat="45.84228739451702" lon="11.076987652625766"><ele>539.5</ele><time>2026-05-01T13:09:11Z</time></trkpt><trkpt lat="45.84240333423222" lon="11.077040786170157"><ele>552.75</ele><time>2026-05-01T13:09:12Z</time></trkpt><trkpt lat="45.842541812723056" lon="11.077027525499455"><ele>566.0</ele><time>2026-05-01T13:09:13Z</time></trkpt><trkpt lat="45.84270218711615" lon="11.07694799225927"><ele>561.6666666666666</ele><time>2026-05-01T13:09:14Z</time></trkpt><trkpt lat="45.842867624027996" lon="11.076800890740728"><ele>557.3333333333334</ele><time>2026-05-01T13:09:15Z</time></trkpt><trkpt lat="45.84304157452129" lon="11.076656110173477"><ele>553.0</ele><time>2026-05-01T13:09:16Z</time></trkpt><trkpt lat="45.8431925020425" lon="11.07650227851051"><ele>553.0</ele><time>2026-05-01T13:09:17Z</time></trkpt><trkpt lat="45.84331570426287" lon="11.076331502453572"><ele>553.0</ele><time>2026-05-01T13:09:18Z</time></trkpt><trkpt lat="45.84344219189022" lon="11.076168453118255"><ele>553.0</ele><time>2026-05-01T13:09:19Z</time></trkpt><trkpt lat="45.843588161177905" lon="11.07606180636153"><ele>559.6666666666667</ele><time>2026-05-01T13:09:20Z</time></trkpt><trkpt lat="45.843729734361105" lon="11.075950270492752"><ele>566.3333333333334</ele><time>2026-05-01T13:09:21Z</time></trkpt><trkpt lat="45.843848610492614" lon="11.075802605722766"><ele>573.0</ele><time>2026-05-01T13:09:22Z</time></trkpt><trkpt lat="45.84394700771403" lon="11.075641290018309"><ele>573.0</ele><time>2026-05-01T13:09:23.001Z</time></trkpt><trkpt lat="45.84401100915481" lon="11.075461473525959"><ele>573.0</ele><time>2026-05-01T13:09:24.001Z</time></trkpt><trkpt lat="45.844034270605306" lon="11.07527061155865"><ele>573.0</ele><time>2026-05-01T13:09:25.001Z</time></trkpt><trkpt lat="45.84401626717125" lon="11.07508023151387"><ele>573.0</ele><time>2026-05-01T13:09:26.001Z</time></trkpt><trkpt lat="45.84399462073562" lon="11.074913850782087"><ele>572.25</ele><time>2026-05-01T13:09:27.001Z</time></trkpt><trkpt lat="45.844031575315384" lon="11.074777694097127"><ele>571.5</ele><time>2026-05-01T13:09:28.001Z</time></trkpt><trkpt lat="45.84413734408606" lon="11.074707713202347"><ele>570.75</ele><time>2026-05-01T13:09:29.001Z</time></trkpt><trkpt lat="45.844274786407624" lon="11.074595162139344"><ele>570.0</ele><time>2026-05-01T13:09:30.001Z</time></trkpt><trkpt lat="45.84444014544566" lon="11.074490197036713"><ele>570.0</ele><time>2026-05-01T13:09:31.001Z</time></trkpt><trkpt lat="45.84457660899113" lon="11.074366724087259"><ele>570.0</ele><time>2026-05-01T13:09:32.001Z</time></trkpt><trkpt lat="45.8446969017784" lon="11.074276609418938"><ele>570.0</ele><time>2026-05-01T13:09:33.001Z</time></trkpt><trkpt lat="45.84482457420416" lon="11.074233822319538"><ele>570.0</ele><time>2026-05-01T13:09:34Z</time></trkpt><trkpt lat="45.844961194156475" lon="11.07422566997224"><ele>570.0</ele><time>2026-05-01T13:09:35Z</time></trkpt><trkpt lat="45.84510168823707" lon="11.07423146251689"><ele>570.0</ele><time>2026-05-01T13:09:36Z</time></trkpt><trkpt lat="45.84524361069667" lon="11.074252948956998"><ele>570.0</ele><time>2026-05-01T13:09:37Z</time></trkpt><trkpt lat="45.84539195972443" lon="11.07430077351618"><ele>570.0</ele><time>2026-05-01T13:09:38Z</time></trkpt><trkpt lat="45.84554363386296" lon="11.074370733106726"><ele>570.3333333333334</ele><time>2026-05-01T13:09:39Z</time></trkpt><trkpt lat="45.84571455241306" lon="11.074435226204145"><ele>570.6666666666667</ele><time>2026-05-01T13:09:40Z</time></trkpt><trkpt lat="45.84590649621352" lon="11.074442490192618"><ele>571.0</ele><time>2026-05-01T13:09:41Z</time></trkpt><trkpt lat="45.846131979333066" lon="11.074391607125156"><ele>571.0</ele><time>2026-05-01T13:09:42Z</time></trkpt><trkpt lat="45.846351586791776" lon="11.074338686410396"><ele>571.0</ele><time>2026-05-01T13:09:43Z</time></trkpt><trkpt lat="45.84655157228793" lon="11.07429567178984"><ele>571.0</ele><time>2026-05-01T13:09:44Z</time></trkpt><trkpt lat="45.846722909679066" lon="11.07426401287249"><ele>570.0</ele><time>2026-05-01T13:09:45Z</time></trkpt><trkpt lat="45.84687361475474" lon="11.074233386310562"><ele>569.0</ele><time>2026-05-01T13:09:46Z</time></trkpt><trkpt lat="45.846993116001265" lon="11.074177377294518"><ele>568.0</ele><time>2026-05-01T13:09:47Z</time></trkpt><trkpt lat="45.84710379655837" lon="11.074044556408328"><ele>567.0</ele><time>2026-05-01T13:09:48Z</time></trkpt><trkpt lat="45.847189969673444" lon="11.07385349158176"><ele>567.0</ele><time>2026-05-01T13:09:49Z</time></trkpt><trkpt lat="45.8472512195037" lon="11.07361494461422"><ele>567.0</ele><time>2026-05-01T13:09:50Z</time></trkpt><trkpt lat="45.84729917965033" lon="11.073406937957634"><ele>567.0</ele><time>2026-05-01T13:09:51Z</time></trkpt><trkpt lat="45.84730860490741" lon="11.073203443351195"><ele>560.0</ele><time>2026-05-01T13:09:52Z</time></trkpt><trkpt lat="45.84728107298881" lon="11.073003918557351"><ele>553.0</ele><time>2026-05-01T13:09:53Z</time></trkpt><trkpt lat="45.84726402167839" lon="11.072857369927226"><ele>546.0</ele><time>2026-05-01T13:09:54Z</time></trkpt><trkpt lat="45.8473175715949" lon="11.072722434754555"><ele>539.0</ele><time>2026-05-01T13:09:55Z</time></trkpt><trkpt lat="45.84741945604645" lon="11.072598277983339"><ele>539.0</ele><time>2026-05-01T13:09:56Z</time></trkpt><trkpt lat="45.84755726527106" lon="11.07251101389094"><ele>539.0</ele><time>2026-05-01T13:09:57Z</time></trkpt><trkpt lat="45.84774181747941" lon="11.072507339552065"><ele>539.0</ele><time>2026-05-01T13:09:58Z</time></trkpt><trkpt lat="45.847955272310415" lon="11.072464110742406"><ele>538.6666666666666</ele><time>2026-05-01T13:09:59Z</time></trkpt><trkpt lat="45.848169104383764" lon="11.072482548828981"><ele>538.3333333333334</ele><time>2026-05-01T13:10:00Z</time></trkpt><trkpt lat="45.84837587419124" lon="11.0725378194824"><ele>538.0</ele><time>2026-05-01T13:10:01Z</time></trkpt><trkpt lat="45.848572668718994" lon="11.072621927534772"><ele>538.0</ele><time>2026-05-01T13:10:02Z</time></trkpt><trkpt lat="45.84873905117357" lon="11.072701206901176"><ele>538.0</ele><time>2026-05-01T13:10:03Z</time></trkpt><trkpt lat="45.84889281968456" lon="11.072749597428619"><ele>538.0</ele><time>2026-05-01T13:10:04Z</time></trkpt><trkpt lat="45.84905565145031" lon="11.072736427037428"><ele>538.0</ele><time>2026-05-01T13:10:05Z</time></trkpt><trkpt lat="45.84919828409085" lon="11.072639045977661"><ele>538.0</ele><time>2026-05-01T13:10:06Z</time></trkpt><trkpt lat="45.849322645297065" lon="11.072501716114884"><ele>538.0</ele><time>2026-05-01T13:10:07Z</time></trkpt><trkpt lat="45.84941053039501" lon="11.072353968072093"><ele>534.0</ele><time>2026-05-01T13:10:08Z</time></trkpt><trkpt lat="45.84948796928923" lon="11.072259938073605"><ele>530.0</ele><time>2026-05-01T13:10:09Z</time></trkpt><trkpt lat="45.849570718075626" lon="11.07225323300057"><ele>526.0</ele><time>2026-05-01T13:10:10Z</time></trkpt><trkpt lat="45.84964971827905" lon="11.072328554140025"><ele>522.0</ele><time>2026-05-01T13:10:11Z</time></trkpt><trkpt lat="45.84966286268133" lon="11.0725140993639"><ele>518.0</ele><time>2026-05-01T13:10:12Z</time></trkpt><trkpt lat="45.849722798049974" lon="11.072728065439417"><ele>518.0</ele><time>2026-05-01T13:10:13Z</time></trkpt><trkpt lat="45.84981800948082" lon="11.072920451771479"><ele>518.0</ele><time>2026-05-01T13:10:14Z</time></trkpt><trkpt lat="45.84995813053763" lon="11.073068125226873"><ele>518.0</ele><time>2026-05-01T13:10:15Z</time></trkpt><trkpt lat="45.850151128016705" lon="11.073186169560918"><ele>524.0</ele><time>2026-05-01T13:10:16Z</time></trkpt><trkpt lat="45.850318316568625" lon="11.073276730460096"><ele>530.0</ele><time>2026-05-01T13:10:17Z</time></trkpt><trkpt lat="45.85047333516615" lon="11.073339874712007"><ele>536.0</ele><time>2026-05-01T13:10:18Z</time></trkpt><trkpt lat="45.85063305256061" lon="11.073320907613361"><ele>520.6666666666666</ele><time>2026-05-01T13:10:19Z</time></trkpt><trkpt lat="45.85081074900529" lon="11.073239345828718"><ele>505.33333333333337</ele><time>2026-05-01T13:10:20Z</time></trkpt><trkpt lat="45.8509806236358" lon="11.073103303438028"><ele>490.0</ele><time>2026-05-01T13:10:21Z</time></trkpt><trkpt lat="45.85113078348009" lon="11.07297075889966"><ele>488.0</ele><time>2026-05-01T13:10:22Z</time></trkpt><trkpt lat="45.85127576718186" lon="11.072877386694097"><ele>486.0</ele><time>2026-05-01T13:10:23Z</time></trkpt><trkpt lat="45.85143446131135" lon="11.072820732638835"><ele>484.0</ele><time>2026-05-01T13:10:24Z</time></trkpt><trkpt lat="45.85157931851596" lon="11.072792714369614"><ele>484.0</ele><time>2026-05-01T13:10:25Z</time></trkpt><trkpt lat="45.85169764183269" lon="11.072791808248173"><ele>484.0</ele><time>2026-05-01T13:10:26Z</time></trkpt><trkpt lat="45.85180599582599" lon="11.07286166031462"><ele>484.0</ele><time>2026-05-01T13:10:27Z</time></trkpt><trkpt lat="45.851929490804615" lon="11.072942115671024"><ele>484.0</ele><time>2026-05-01T13:10:28Z</time></trkpt><trkpt lat="45.85206357186057" lon="11.073086977422843"><ele>484.75</ele><time>2026-05-01T13:10:29Z</time></trkpt><trkpt lat="45.85218381402802" lon="11.073239996452426"><ele>485.5</ele><time>2026-05-01T13:10:30Z</time></trkpt><trkpt lat="45.85226644679841" lon="11.073403837685015"><ele>486.25</ele><time>2026-05-01T13:10:31Z</time></trkpt><trkpt lat="45.85234146749529" lon="11.073548761153088"><ele>487.0</ele><time>2026-05-01T13:10:32Z</time></trkpt><trkpt lat="45.85245790207127" lon="11.073612990616526"><ele>487.0</ele><time>2026-05-01T13:10:33Z</time></trkpt><trkpt lat="45.85259498826171" lon="11.073649943273352"><ele>487.0</ele><time>2026-05-01T13:10:34Z</time></trkpt><trkpt lat="45.852693688579336" lon="11.073765389761332"><ele>487.0</ele><time>2026-05-01T13:10:35Z</time></trkpt><trkpt lat="45.85274671776507" lon="11.07394057496645"><ele>487.0</ele><time>2026-05-01T13:10:36Z</time></trkpt><trkpt lat="45.85284001751432" lon="11.074038289258253"><ele>481.75</ele><time>2026-05-01T13:10:37Z</time></trkpt><trkpt lat="45.85292790622674" lon="11.07408396749285"><ele>476.5</ele><time>2026-05-01T13:10:38Z</time></trkpt><trkpt lat="45.85304520110651" lon="11.074049034096284"><ele>471.25</ele><time>2026-05-01T13:10:39Z</time></trkpt><trkpt lat="45.85316875145959" lon="11.073976951887424"><ele>466.0</ele><time>2026-05-01T13:10:40Z</time></trkpt><trkpt lat="45.85329252013161" lon="11.073914715397962"><ele>466.0</ele><time>2026-05-01T13:10:41Z</time></trkpt><trkpt lat="45.85340667791081" lon="11.073846494389857"><ele>466.0</ele><time>2026-05-01T13:10:42Z</time></trkpt><trkpt lat="45.85350846080334" lon="11.073742423178864"><ele>466.0</ele><time>2026-05-01T13:10:43Z</time></trkpt><trkpt lat="45.853590118156504" lon="11.073608537407015"><ele>466.0</ele><time>2026-05-01T13:10:44Z</time></trkpt><trkpt lat="45.85366280440426" lon="11.073485184862948"><ele>467.5</ele><time>2026-05-01T13:10:45Z</time></trkpt><trkpt lat="45.853762756156286" lon="11.073413395273436"><ele>469.0</ele><time>2026-05-01T13:10:46Z</time></trkpt><trkpt lat="45.853893689302865" lon="11.073391664843298"><ele>470.5</ele><time>2026-05-01T13:10:47Z</time></trkpt><trkpt lat="45.85403336511867" lon="11.07341505610994"><ele>472.0</ele><time>2026-05-01T13:10:48Z</time></trkpt><trkpt lat="45.85416966363458" lon="11.073418926249"><ele>468.0</ele><time>2026-05-01T13:10:49Z</time></trkpt><trkpt lat="45.85430984526583" lon="11.073511111443365"><ele>464.0</ele><time>2026-05-01T13:10:50Z</time></trkpt><trkpt lat="45.85448679590573" lon="11.073569880042223"><ele>460.0</ele><time>2026-05-01T13:10:51Z</time></trkpt><trkpt lat="45.85468995630334" lon="11.073613312397233"><ele>460.0</ele><time>2026-05-01T13:10:52Z</time></trkpt><trkpt lat="45.85490580130707" lon="11.07362527519831"><ele>460.0</ele><time>2026-05-01T13:10:53Z</time></trkpt><trkpt lat="45.85508596593386" lon="11.073621236742595"><ele>460.0</ele><time>2026-05-01T13:10:54Z</time></trkpt><trkpt lat="45.85525658413084" lon="11.073585329229404"><ele>463.6666666666667</ele><time>2026-05-01T13:10:55Z</time></trkpt><trkpt lat="45.855438875286715" lon="11.07347691778917"><ele>467.33333333333337</ele><time>2026-05-01T13:10:56Z</time></trkpt><trkpt lat="45.85564023864391" lon="11.07333024454813"><ele>471.0</ele><time>2026-05-01T13:10:57Z</time></trkpt><trkpt lat="45.85583612604861" lon="11.073207690351156"><ele>458.0</ele><time>2026-05-01T13:10:58Z</time></trkpt><trkpt lat="45.85602435913846" lon="11.073106544450967"><ele>445.0</ele><time>2026-05-01T13:10:59Z</time></trkpt><trkpt lat="45.85619702122593" lon="11.073025074459549"><ele>432.0</ele><time>2026-05-01T13:11:00Z</time></trkpt><trkpt lat="45.856352488817315" lon="11.07296362829421"><ele>432.0</ele><time>2026-05-01T13:11:01Z</time></trkpt><trkpt lat="45.85648641360661" lon="11.072883650176296"><ele>432.0</ele><time>2026-05-01T13:11:02Z</time></trkpt><trkpt lat="45.856628416424435" lon="11.072827212879778"><ele>432.0</ele><time>2026-05-01T13:11:03Z</time></trkpt><trkpt lat="45.85677876166911" lon="11.072846184289734"><ele>432.0</ele><time>2026-05-01T13:11:04Z</time></trkpt><trkpt lat="45.856909380035766" lon="11.072864015990762"><ele>424.5</ele><time>2026-05-01T13:11:05Z</time></trkpt><trkpt lat="45.85702813766622" lon="11.0729417334577"><ele>417.0</ele><time>2026-05-01T13:11:06Z</time></trkpt><trkpt lat="45.85716534588533" lon="11.073004681045626"><ele>409.5</ele><time>2026-05-01T13:11:07Z</time></trkpt><trkpt lat="45.85725424085177" lon="11.073115796750388"><ele>402.0</ele><time>2026-05-01T13:11:08Z</time></trkpt><trkpt lat="45.85732762922056" lon="11.073208481324551"><ele>406.75</ele><time>2026-05-01T13:11:09Z</time></trkpt><trkpt lat="45.8572966778039" lon="11.07337280811005"><ele>411.5</ele><time>2026-05-01T13:11:10.001Z</time></trkpt><trkpt lat="45.85727812070722" lon="11.073534437508899"><ele>416.25</ele><time>2026-05-01T13:11:11.001Z</time></trkpt><trkpt lat="45.857228518338395" lon="11.073719659259853"><ele>421.0</ele><time>2026-05-01T13:11:12.001Z</time></trkpt><trkpt lat="45.857196680480605" lon="11.073898954026957"><ele>421.0</ele><time>2026-05-01T13:11:13.001Z</time></trkpt><trkpt lat="45.85722664619964" lon="11.07407475317104"><ele>421.0</ele><time>2026-05-01T13:11:14.001Z</time></trkpt><trkpt lat="45.85730075796633" lon="11.074246158199898"><ele>421.0</ele><time>2026-05-01T13:11:15.001Z</time></trkpt><trkpt lat="45.857425763248635" lon="11.074431817059013"><ele>421.0</ele><time>2026-05-01T13:11:16.001Z</time></trkpt><trkpt lat="45.85754877564586" lon="11.07462429870088"><ele>418.25</ele><time>2026-05-01T13:11:17.001Z</time></trkpt><trkpt lat="45.857645055340164" lon="11.074796138578138"><ele>415.5</ele><time>2026-05-01T13:11:18.001Z</time></trkpt><trkpt lat="45.85772198379703" lon="11.074933691870982"><ele>412.75</ele><time>2026-05-01T13:11:19.001Z</time></trkpt><trkpt lat="45.857807981499874" lon="11.075034846996877"><ele>410.0</ele><time>2026-05-01T13:11:20.001Z</time></trkpt><trkpt lat="45.857938648337885" lon="11.0750642583819"><ele>410.0</ele><time>2026-05-01T13:11:21.001Z</time></trkpt><trkpt lat="45.858068588039664" lon="11.07506965231144"><ele>410.0</ele><time>2026-05-01T13:11:22.001Z</time></trkpt><trkpt lat="45.85816039341169" lon="11.075101884246385"><ele>410.0</ele><time>2026-05-01T13:11:23.001Z</time></trkpt><trkpt lat="45.8582120867315" lon="11.075260279296188"><ele>410.0</ele><time>2026-05-01T13:11:24.001Z</time></trkpt><trkpt lat="45.85832441010945" lon="11.075408081232798"><ele>410.0</ele><time>2026-05-01T13:11:25.001Z</time></trkpt><trkpt lat="45.85843757471691" lon="11.07554474224117"><ele>410.0</ele><time>2026-05-01T13:11:26.001Z</time></trkpt><trkpt lat="45.858548952803055" lon="11.075647495546894"><ele>410.0</ele><time>2026-05-01T13:11:27.001Z</time></trkpt><trkpt lat="45.85859206980156" lon="11.07582523784968"><ele>410.0</ele><time>2026-05-01T13:11:28.001Z</time></trkpt><trkpt lat="45.85867038253765" lon="11.07596351888695"><ele>408.75</ele><time>2026-05-01T13:11:29.001Z</time></trkpt><trkpt lat="45.85874222439221" lon="11.076099503135268"><ele>407.5</ele><time>2026-05-01T13:11:30.001Z</time></trkpt><trkpt lat="45.858878719191296" lon="11.076157095843847"><ele>406.25</ele><time>2026-05-01T13:11:31.001Z</time></trkpt><trkpt lat="45.85906492455059" lon="11.076180054839329"><ele>405.0</ele><time>2026-05-01T13:11:32.001Z</time></trkpt><trkpt lat="45.85926921132194" lon="11.07622338482051"><ele>403.66666666666663</ele><time>2026-05-01T13:11:33.001Z</time></trkpt><trkpt lat="45.85945018919222" lon="11.076290289640601"><ele>402.3333333333333</ele><time>2026-05-01T13:11:34.001Z</time></trkpt><trkpt lat="45.859606107437095" lon="11.07634128787189"><ele>401.0</ele><time>2026-05-01T13:11:35.001Z</time></trkpt><trkpt lat="45.85976487107904" lon="11.07636664513896"><ele>401.0</ele><time>2026-05-01T13:11:36.001Z</time></trkpt><trkpt lat="45.85991221315859" lon="11.076407652575732"><ele>401.0</ele><time>2026-05-01T13:11:37.001Z</time></trkpt><trkpt lat="45.860054686337065" lon="11.0764643119342"><ele>401.0</ele><time>2026-05-01T13:11:38.001Z</time></trkpt><trkpt lat="45.86017872580948" lon="11.07654201595038"><ele>401.0</ele><time>2026-05-01T13:11:39.001Z</time></trkpt><trkpt lat="45.86026544255171" lon="11.076672346120395"><ele>407.20000000000005</ele><time>2026-05-01T13:11:40Z</time></trkpt><trkpt lat="45.86035643545308" lon="11.076713062023924"><ele>413.40000000000003</ele><time>2026-05-01T13:11:41Z</time></trkpt><trkpt lat="45.860454919362105" lon="11.076682832196495"><ele>419.6</ele><time>2026-05-01T13:11:42Z</time></trkpt><trkpt lat="45.86054280099817" lon="11.07658050460089"><ele>425.8</ele><time>2026-05-01T13:11:43Z</time></trkpt><trkpt lat="45.86059907291268" lon="11.076430174320008"><ele>432.0</ele><time>2026-05-01T13:11:44Z</time></trkpt><trkpt lat="45.86060770409057" lon="11.076213512337876"><ele>432.0</ele><time>2026-05-01T13:11:45Z</time></trkpt><trkpt lat="45.86058423705991" lon="11.07599937684086"><ele>432.0</ele><time>2026-05-01T13:11:46Z</time></trkpt><trkpt lat="45.86055558619577" lon="11.075817804029526"><ele>432.0</ele><time>2026-05-01T13:11:47Z</time></trkpt><trkpt lat="45.860507405905565" lon="11.07565427934885"><ele>432.0</ele><time>2026-05-01T13:11:48Z</time></trkpt><trkpt lat="45.860450456932206" lon="11.075502365235232"><ele>432.5</ele><time>2026-05-01T13:11:49Z</time></trkpt><trkpt lat="45.860391616521284" lon="11.075373540161316"><ele>433.0</ele><time>2026-05-01T13:11:50Z</time></trkpt><trkpt lat="45.86034197517905" lon="11.075265567840463"><ele>433.5</ele><time>2026-05-01T13:11:51Z</time></trkpt><trkpt lat="45.86034281442949" lon="11.075146588519054"><ele>434.0</ele><time>2026-05-01T13:11:52Z</time></trkpt><trkpt lat="45.86035534223424" lon="11.075037072364035"><ele>434.5</ele><time>2026-05-01T13:11:53Z</time></trkpt><trkpt lat="45.86035417832527" lon="11.074908962803883"><ele>435.0</ele><time>2026-05-01T13:11:54Z</time></trkpt><trkpt lat="45.86036000030462" lon="11.074772540010054"><ele>436.2</ele><time>2026-05-01T13:11:55Z</time></trkpt><trkpt lat="45.860351209494176" lon="11.074629107944371"><ele>437.4</ele><time>2026-05-01T13:11:56Z</time></trkpt><trkpt lat="45.860330401789476" lon="11.074489186727485"><ele>438.6</ele><time>2026-05-01T13:11:57Z</time></trkpt><trkpt lat="45.86030572382948" lon="11.074349872360692"><ele>439.8</ele><time>2026-05-01T13:11:58Z</time></trkpt><trkpt lat="45.86029101193837" lon="11.074208021932467"><ele>441.0</ele><time>2026-05-01T13:11:59Z</time></trkpt><trkpt lat="45.860287152310846" lon="11.074063440163195"><ele>438.5</ele><time>2026-05-01T13:12:00Z</time></trkpt><trkpt lat="45.86028868892359" lon="11.0739113384366"><ele>436.0</ele><time>2026-05-01T13:12:01Z</time></trkpt><trkpt lat="45.86025533183377" lon="11.073782314799352"><ele>433.5</ele><time>2026-05-01T13:12:02Z</time></trkpt><trkpt lat="45.860246667375854" lon="11.073661553246973"><ele>431.0</ele><time>2026-05-01T13:12:03Z</time></trkpt><trkpt lat="45.86024577986078" lon="11.073547462265543"><ele>428.5</ele><time>2026-05-01T13:12:04Z</time></trkpt><trkpt lat="45.86027234797015" lon="11.07344534371125"><ele>426.0</ele><time>2026-05-01T13:12:05Z</time></trkpt><trkpt lat="45.86032762660809" lon="11.073346587666562"><ele>419.8</ele><time>2026-05-01T13:12:06Z</time></trkpt><trkpt lat="45.860358682369686" lon="11.073204123916625"><ele>413.6</ele><time>2026-05-01T13:12:07Z</time></trkpt><trkpt lat="45.860362434799875" lon="11.073045560890607"><ele>407.4</ele><time>2026-05-01T13:12:08Z</time></trkpt><trkpt lat="45.86036505115346" lon="11.072882031516457"><ele>401.2</ele><time>2026-05-01T13:12:09Z</time></trkpt><trkpt lat="45.86037075439878" lon="11.07274548550315"><ele>395.0</ele><time>2026-05-01T13:12:10Z</time></trkpt><trkpt lat="45.860391358573246" lon="11.072624736548113"><ele>395.0</ele><time>2026-05-01T13:12:11Z</time></trkpt><trkpt lat="45.86044364077426" lon="11.072536431195225"><ele>395.0</ele><time>2026-05-01T13:12:12Z</time></trkpt><trkpt lat="45.86052462334831" lon="11.07249382491759"><ele>395.0</ele><time>2026-05-01T13:12:13Z</time></trkpt><trkpt lat="45.86062556806308" lon="11.072492551249896"><ele>395.0</ele><time>2026-05-01T13:12:14Z</time></trkpt><trkpt lat="45.86074031258134" lon="11.072475063972416"><ele>395.0</ele><time>2026-05-01T13:12:15Z</time></trkpt><trkpt lat="45.86086811834186" lon="11.072444722022468"><ele>391.75</ele><time>2026-05-01T13:12:16Z</time></trkpt><trkpt lat="45.86100710761008" lon="11.072408347189358"><ele>388.5</ele><time>2026-05-01T13:12:17Z</time></trkpt><trkpt lat="45.86116104929902" lon="11.07236637367418"><ele>385.25</ele><time>2026-05-01T13:12:18Z</time></trkpt><trkpt lat="45.86129767271484" lon="11.072339452474067"><ele>382.0</ele><time>2026-05-01T13:12:19Z</time></trkpt><trkpt lat="45.86142261738585" lon="11.0723149425154"><ele>382.0</ele><time>2026-05-01T13:12:20Z</time></trkpt><trkpt lat="45.861526261005736" lon="11.072253769380499"><ele>382.0</ele><time>2026-05-01T13:12:21Z</time></trkpt><trkpt lat="45.86160094750355" lon="11.072132942937692"><ele>382.0</ele><time>2026-05-01T13:12:22Z</time></trkpt><trkpt lat="45.86163082454792" lon="11.07198516500851"><ele>382.0</ele><time>2026-05-01T13:12:23Z</time></trkpt><trkpt lat="45.86164574809639" lon="11.071830697861559"><ele>382.0</ele><time>2026-05-01T13:12:24Z</time></trkpt><trkpt lat="45.86166212772036" lon="11.071705560298689"><ele>382.0</ele><time>2026-05-01T13:12:25Z</time></trkpt><trkpt lat="45.86172341794825" lon="11.071612743125833"><ele>382.0</ele><time>2026-05-01T13:12:26Z</time></trkpt><trkpt lat="45.86182784374418" lon="11.071576361878853"><ele>382.0</ele><time>2026-05-01T13:12:27Z</time></trkpt><trkpt lat="45.86194737308076" lon="11.07153477518418"><ele>382.0</ele><time>2026-05-01T13:12:28Z</time></trkpt><trkpt lat="45.86208925069452" lon="11.071487848575428"><ele>376.5</ele><time>2026-05-01T13:12:29Z</time></trkpt><trkpt lat="45.86221380704928" lon="11.07136836380794"><ele>371.0</ele><time>2026-05-01T13:12:30Z</time></trkpt><trkpt lat="45.862310135452425" lon="11.07124154049134"><ele>365.5</ele><time>2026-05-01T13:12:31Z</time></trkpt><trkpt lat="45.8624038379538" lon="11.07116291168822"><ele>360.0</ele><time>2026-05-01T13:12:32Z</time></trkpt><trkpt lat="45.862522865229394" lon="11.07118277914034"><ele>360.0</ele><time>2026-05-01T13:12:33Z</time></trkpt><trkpt lat="45.86269460022112" lon="11.071181221188848"><ele>360.0</ele><time>2026-05-01T13:12:34Z</time></trkpt><trkpt lat="45.862893238201885" lon="11.071196798822385"><ele>360.0</ele><time>2026-05-01T13:12:35Z</time></trkpt><trkpt lat="45.863067875802045" lon="11.071198666774517"><ele>360.0</ele><time>2026-05-01T13:12:36Z</time></trkpt><trkpt lat="45.863235470267995" lon="11.071226666366911"><ele>360.0</ele><time>2026-05-01T13:12:37Z</time></trkpt><trkpt lat="45.863410589438296" lon="11.071314184723441"><ele>360.0</ele><time>2026-05-01T13:12:38Z</time></trkpt><trkpt lat="45.86358913961152" lon="11.071407450845388"><ele>357.6666666666667</ele><time>2026-05-01T13:12:39Z</time></trkpt><trkpt lat="45.863786276300594" lon="11.071456224463411"><ele>355.33333333333337</ele><time>2026-05-01T13:12:40Z</time></trkpt><trkpt lat="45.8639884594345" lon="11.071443422703728"><ele>353.0</ele><time>2026-05-01T13:12:41Z</time></trkpt><trkpt lat="45.86417219450469" lon="11.071405578130854"><ele>357.0</ele><time>2026-05-01T13:12:42Z</time></trkpt><trkpt lat="45.86434178385679" lon="11.071363169385663"><ele>361.0</ele><time>2026-05-01T13:12:43Z</time></trkpt><trkpt lat="45.864496155042744" lon="11.071345210744955"><ele>365.0</ele><time>2026-05-01T13:12:44Z</time></trkpt><trkpt lat="45.86466056874238" lon="11.071392033989447"><ele>365.0</ele><time>2026-05-01T13:12:45Z</time></trkpt><trkpt lat="45.86481037278685" lon="11.071437197906029"><ele>365.0</ele><time>2026-05-01T13:12:46Z</time></trkpt><trkpt lat="45.86493205949897" lon="11.07145935501709"><ele>365.0</ele><time>2026-05-01T13:12:47Z</time></trkpt><trkpt lat="45.86503606289487" lon="11.07142137657965"><ele>365.0</ele><time>2026-05-01T13:12:48Z</time></trkpt><trkpt lat="45.8651279088314" lon="11.07129713984109"><ele>371.25</ele><time>2026-05-01T13:12:49Z</time></trkpt><trkpt lat="45.865179914164194" lon="11.071125985639398"><ele>377.5</ele><time>2026-05-01T13:12:50Z</time></trkpt><trkpt lat="45.865202959903975" lon="11.070975669581577"><ele>383.75</ele><time>2026-05-01T13:12:51Z</time></trkpt><trkpt lat="45.8652688728554" lon="11.070891062886693"><ele>390.0</ele><time>2026-05-01T13:12:52Z</time></trkpt><trkpt lat="45.86540698227555" lon="11.07089248929844"><ele>390.0</ele><time>2026-05-01T13:12:53Z</time></trkpt><trkpt lat="45.86555321319571" lon="11.070815703741319"><ele>390.0</ele><time>2026-05-01T13:12:54Z</time></trkpt><trkpt lat="45.86570934488189" lon="11.070858189950794"><ele>390.0</ele><time>2026-05-01T13:12:55Z</time></trkpt><trkpt lat="45.865836265626925" lon="11.070828026121683"><ele>390.0</ele><time>2026-05-01T13:12:56Z</time></trkpt><trkpt lat="45.865967577510936" lon="11.070728450907621"><ele>382.0</ele><time>2026-05-01T13:12:57Z</time></trkpt><trkpt lat="45.86606043683604" lon="11.070587685938737"><ele>374.0</ele><time>2026-05-01T13:12:58Z</time></trkpt><trkpt lat="45.86614997816826" lon="11.070499872691279"><ele>366.0</ele><time>2026-05-01T13:12:59Z</time></trkpt><trkpt lat="45.86626469688132" lon="11.070534035894648"><ele>358.0</ele><time>2026-05-01T13:13:00Z</time></trkpt><trkpt lat="45.866420775794566" lon="11.070539091342269"><ele>358.0</ele><time>2026-05-01T13:13:01Z</time></trkpt><trkpt lat="45.86659231023019" lon="11.070560239462768"><ele>358.0</ele><time>2026-05-01T13:13:02Z</time></trkpt><trkpt lat="45.86674536575381" lon="11.070526904702586"><ele>358.0</ele><time>2026-05-01T13:13:03Z</time></trkpt><trkpt lat="45.86685594369665" lon="11.070404140059399"><ele>364.75</ele><time>2026-05-01T13:13:04Z</time></trkpt><trkpt lat="45.86694559979656" lon="11.070257871926927"><ele>371.5</ele><time>2026-05-01T13:13:05Z</time></trkpt><trkpt lat="45.86706685806319" lon="11.070214747694783"><ele>378.25</ele><time>2026-05-01T13:13:06Z</time></trkpt><trkpt lat="45.86722769911259" lon="11.070241196212242"><ele>385.0</ele><time>2026-05-01T13:13:07Z</time></trkpt><trkpt lat="45.867413855790964" lon="11.07019328938223"><ele>378.6666666666667</ele><time>2026-05-01T13:13:08Z</time></trkpt><trkpt lat="45.867611551432184" lon="11.070120672136452"><ele>372.33333333333337</ele><time>2026-05-01T13:13:09Z</time></trkpt><trkpt lat="45.867756099008865" lon="11.0700221487627"><ele>366.0</ele><time>2026-05-01T13:13:10Z</time></trkpt><trkpt lat="45.86786912071505" lon="11.0699219434529"><ele>366.0</ele><time>2026-05-01T13:13:11Z</time></trkpt><trkpt lat="45.86793611416091" lon="11.069781822785258"><ele>366.0</ele><time>2026-05-01T13:13:12Z</time></trkpt><trkpt lat="45.86795120443756" lon="11.069607036203422"><ele>366.0</ele><time>2026-05-01T13:13:13Z</time></trkpt><trkpt lat="45.867941129034875" lon="11.069455081800154"><ele>366.0</ele><time>2026-05-01T13:13:14Z</time></trkpt><trkpt lat="45.86798306373553" lon="11.069364871778857"><ele>366.0</ele><time>2026-05-01T13:13:15Z</time></trkpt><trkpt lat="45.86808572880371" lon="11.069370051803167"><ele>366.0</ele><time>2026-05-01T13:13:16Z</time></trkpt><trkpt lat="45.86818712090555" lon="11.0694468249655"><ele>366.0</ele><time>2026-05-01T13:13:17Z</time></trkpt><trkpt lat="45.8683401168833" lon="11.069489279810304"><ele>366.0</ele><time>2026-05-01T13:13:18Z</time></trkpt><trkpt lat="45.86849891089993" lon="11.069556333445862"><ele>366.0</ele><time>2026-05-01T13:13:19Z</time></trkpt><trkpt lat="45.86863372831989" lon="11.06961017598187"><ele>370.5</ele><time>2026-05-01T13:13:20Z</time></trkpt><trkpt lat="45.86873830358074" lon="11.069693187764921"><ele>375.0</ele><time>2026-05-01T13:13:21Z</time></trkpt><trkpt lat="45.868821453274535" lon="11.069864939331845"><ele>379.5</ele><time>2026-05-01T13:13:22Z</time></trkpt><trkpt lat="45.86894193913208" lon="11.070047391972548"><ele>384.0</ele><time>2026-05-01T13:13:23Z</time></trkpt><trkpt lat="45.86904422495377" lon="11.070251030686796"><ele>384.0</ele><time>2026-05-01T13:13:24.001Z</time></trkpt><trkpt lat="45.8691208471694" lon="11.070394987125715"><ele>384.0</ele><time>2026-05-01T13:13:25.001Z</time></trkpt><trkpt lat="45.86919713925342" lon="11.070483152733496"><ele>384.0</ele><time>2026-05-01T13:13:26.001Z</time></trkpt><trkpt lat="45.869300939535584" lon="11.070475122868478"><ele>384.0</ele><time>2026-05-01T13:13:27.001Z</time></trkpt><trkpt lat="45.86942976762004" lon="11.070409829732261"><ele>385.5</ele><time>2026-05-01T13:13:28.001Z</time></trkpt><trkpt lat="45.869573303345426" lon="11.070278486199285"><ele>387.0</ele><time>2026-05-01T13:13:29.001Z</time></trkpt><trkpt lat="45.869688845411495" lon="11.070120579549059"><ele>388.5</ele><time>2026-05-01T13:13:30.001Z</time></trkpt><trkpt lat="45.86976296656764" lon="11.0699903712827"><ele>390.0</ele><time>2026-05-01T13:13:31.001Z</time></trkpt><trkpt lat="45.869852560874826" lon="11.069905933924389"><ele>377.25</ele><time>2026-05-01T13:13:32.001Z</time></trkpt><trkpt lat="45.86998721802914" lon="11.069905278812158"><ele>364.5</ele><time>2026-05-01T13:13:33.001Z</time></trkpt><trkpt lat="45.87013031343266" lon="11.069861415672891"><ele>351.75</ele><time>2026-05-01T13:13:34.001Z</time></trkpt><trkpt lat="45.87028202767073" lon="11.069865419527321"><ele>339.0</ele><time>2026-05-01T13:13:35.001Z</time></trkpt><trkpt lat="45.87042812877576" lon="11.069876829174955"><ele>339.0</ele><time>2026-05-01T13:13:36.001Z</time></trkpt><trkpt lat="45.870565521918174" lon="11.06986381443686"><ele>339.0</ele><time>2026-05-01T13:13:37.001Z</time></trkpt><trkpt lat="45.87068909671945" lon="11.0698116103578"><ele>339.0</ele><time>2026-05-01T13:13:38.001Z</time></trkpt><trkpt lat="45.87079848147537" lon="11.069761417908872"><ele>339.0</ele><time>2026-05-01T13:13:39.001Z</time></trkpt><trkpt lat="45.87091499133595" lon="11.0697786329717"><ele>340.0</ele><time>2026-05-01T13:13:40.001Z</time></trkpt><trkpt lat="45.871013969116675" lon="11.069876949159104"><ele>341.0</ele><time>2026-05-01T13:13:41.001Z</time></trkpt><trkpt lat="45.87112978582799" lon="11.069943391098622"><ele>342.0</ele><time>2026-05-01T13:13:42.001Z</time></trkpt><trkpt lat="45.87123565331739" lon="11.069995164716232"><ele>343.0</ele><time>2026-05-01T13:13:43.001Z</time></trkpt><trkpt lat="45.871356684349" lon="11.069989026582162"><ele>343.0</ele><time>2026-05-01T13:13:44.001Z</time></trkpt><trkpt lat="45.87149023448359" lon="11.069924211650266"><ele>343.0</ele><time>2026-05-01T13:13:45.001Z</time></trkpt><trkpt lat="45.87162864635759" lon="11.06985440427592"><ele>343.0</ele><time>2026-05-01T13:13:46Z</time></trkpt><trkpt lat="45.871767032581374" lon="11.069795425864585"><ele>343.0</ele><time>2026-05-01T13:13:47Z</time></trkpt><trkpt lat="45.8718972495264" lon="11.069746528909302"><ele>347.75</ele><time>2026-05-01T13:13:48Z</time></trkpt><trkpt lat="45.87202662853562" lon="11.069689987449228"><ele>352.5</ele><time>2026-05-01T13:13:49Z</time></trkpt><trkpt lat="45.872139712972015" lon="11.069614268554341"><ele>357.25</ele><time>2026-05-01T13:13:50Z</time></trkpt><trkpt lat="45.8722278101404" lon="11.069477397779972"><ele>362.0</ele><time>2026-05-01T13:13:51Z</time></trkpt><trkpt lat="45.872285087890496" lon="11.069314446352783"><ele>362.0</ele><time>2026-05-01T13:13:52Z</time></trkpt><trkpt lat="45.87234745392258" lon="11.06917095319177"><ele>362.0</ele><time>2026-05-01T13:13:53Z</time></trkpt><trkpt lat="45.8724179101874" lon="11.069070974188914"><ele>362.0</ele><time>2026-05-01T13:13:54Z</time></trkpt><trkpt lat="45.872515132049195" lon="11.069030615487652"><ele>362.0</ele><time>2026-05-01T13:13:55Z</time></trkpt><trkpt lat="45.87263390558985" lon="11.069108759014318"><ele>362.0</ele><time>2026-05-01T13:13:56Z</time></trkpt><trkpt lat="45.87274493403598" lon="11.069084971398581"><ele>361.5</ele><time>2026-05-01T13:13:57Z</time></trkpt><trkpt lat="45.87285470886564" lon="11.069023475768976"><ele>361.0</ele><time>2026-05-01T13:13:58Z</time></trkpt><trkpt lat="45.87295003347787" lon="11.068882194291001"><ele>360.5</ele><time>2026-05-01T13:13:59Z</time></trkpt><trkpt lat="45.873011811602815" lon="11.06870235305033"><ele>360.0</ele><time>2026-05-01T13:14:00Z</time></trkpt><trkpt lat="45.8730812537382" lon="11.068539226721901"><ele>360.0</ele><time>2026-05-01T13:14:01Z</time></trkpt><trkpt lat="45.87318344996142" lon="11.068426186141073"><ele>360.0</ele><time>2026-05-01T13:14:02Z</time></trkpt><trkpt lat="45.873251182002555" lon="11.068288574523697"><ele>360.0</ele><time>2026-05-01T13:14:03Z</time></trkpt><trkpt lat="45.873324479963365" lon="11.068188021859552"><ele>360.0</ele><time>2026-05-01T13:14:04Z</time></trkpt><trkpt lat="45.873423458350935" lon="11.068163551144416"><ele>360.0</ele><time>2026-05-01T13:14:05Z</time></trkpt><trkpt lat="45.87353277931915" lon="11.068174797150366"><ele>359.2</ele><time>2026-05-01T13:14:06Z</time></trkpt><trkpt lat="45.873648087054946" lon="11.068143240756836"><ele>358.4</ele><time>2026-05-01T13:14:07Z</time></trkpt><trkpt lat="45.8737517753598" lon="11.068099088037998"><ele>357.6</ele><time>2026-05-01T13:14:08Z</time></trkpt><trkpt lat="45.87383630960953" lon="11.067991616023953"><ele>356.8</ele><time>2026-05-01T13:14:09Z</time></trkpt><trkpt lat="45.87389146525178" lon="11.067865616798024"><ele>356.0</ele><time>2026-05-01T13:14:10Z</time></trkpt><trkpt lat="45.8738890936986" lon="11.067732978327319"><ele>356.0</ele><time>2026-05-01T13:14:11Z</time></trkpt><trkpt lat="45.87383498749516" lon="11.0676294810142"><ele>356.0</ele><time>2026-05-01T13:14:12Z</time></trkpt><trkpt lat="45.873760049830786" lon="11.067537324735822"><ele>356.0</ele><time>2026-05-01T13:14:13Z</time></trkpt><trkpt lat="45.87371219119494" lon="11.067464612460816"><ele>356.0</ele><time>2026-05-01T13:14:14Z</time></trkpt><trkpt lat="45.873734531785" lon="11.067366788689075"><ele>356.0</ele><time>2026-05-01T13:14:15Z</time></trkpt><trkpt lat="45.8738143745214" lon="11.067308845214109"><ele>356.0</ele><time>2026-05-01T13:14:16Z</time></trkpt><trkpt lat="45.873896513524194" lon="11.067263408155863"><ele>352.0</ele><time>2026-05-01T13:14:17Z</time></trkpt><trkpt lat="45.8739696749068" lon="11.067153985583772"><ele>348.0</ele><time>2026-05-01T13:14:18Z</time></trkpt><trkpt lat="45.8740467109074" lon="11.067046758108763"><ele>344.0</ele><time>2026-05-01T13:14:19Z</time></trkpt><trkpt lat="45.87414386021156" lon="11.066991283266283"><ele>340.0</ele><time>2026-05-01T13:14:20Z</time></trkpt><trkpt lat="45.874253555379326" lon="11.06694467970851"><ele>336.0</ele><time>2026-05-01T13:14:21Z</time></trkpt><trkpt lat="45.8743802801461" lon="11.066897391681213"><ele>336.0</ele><time>2026-05-01T13:14:22Z</time></trkpt><trkpt lat="45.874505837923955" lon="11.066829390474192"><ele>336.0</ele><time>2026-05-01T13:14:23Z</time></trkpt><trkpt lat="45.87464709985777" lon="11.06679810155004"><ele>336.0</ele><time>2026-05-01T13:14:24Z</time></trkpt><trkpt lat="45.874781163234225" lon="11.066746542265802"><ele>336.0</ele><time>2026-05-01T13:14:25Z</time></trkpt><trkpt lat="45.8749192982932" lon="11.066697635744813"><ele>336.0</ele><time>2026-05-01T13:14:26Z</time></trkpt><trkpt lat="45.875054921742716" lon="11.066625740039349"><ele>336.0</ele><time>2026-05-01T13:14:27Z</time></trkpt><trkpt lat="45.87517233194656" lon="11.066515958966614"><ele>336.0</ele><time>2026-05-01T13:14:28Z</time></trkpt><trkpt lat="45.87526871739949" lon="11.066361858092144"><ele>336.0</ele><time>2026-05-01T13:14:29Z</time></trkpt><trkpt lat="45.875360365936324" lon="11.066216537637969"><ele>329.0</ele><time>2026-05-01T13:14:30Z</time></trkpt><trkpt lat="45.8754801326814" lon="11.066127184060015"><ele>322.0</ele><time>2026-05-01T13:14:31Z</time></trkpt><trkpt lat="45.87560803796058" lon="11.066052055040181"><ele>315.0</ele><time>2026-05-01T13:14:32Z</time></trkpt><trkpt lat="45.87573434020987" lon="11.065990742650305"><ele>308.0</ele><time>2026-05-01T13:14:33Z</time></trkpt><trkpt lat="45.87586267525005" lon="11.065927352254324"><ele>310.0</ele><time>2026-05-01T13:14:34Z</time></trkpt><trkpt lat="45.875993759552394" lon="11.065935342923746"><ele>312.0</ele><time>2026-05-01T13:14:35Z</time></trkpt><trkpt lat="45.87611457887396" lon="11.065934634504874"><ele>314.0</ele><time>2026-05-01T13:14:36Z</time></trkpt><trkpt lat="45.87619989210961" lon="11.066057327715184"><ele>316.0</ele><time>2026-05-01T13:14:37Z</time></trkpt><trkpt lat="45.876301014829124" lon="11.066145679204597"><ele>316.0</ele><time>2026-05-01T13:14:38Z</time></trkpt><trkpt lat="45.87637812967801" lon="11.0662391473741"><ele>316.0</ele><time>2026-05-01T13:14:39Z</time></trkpt><trkpt lat="45.876473459899636" lon="11.066247444995426"><ele>316.0</ele><time>2026-05-01T13:14:40Z</time></trkpt><trkpt lat="45.87656248664139" lon="11.066160725308515"><ele>316.0</ele><time>2026-05-01T13:14:41Z</time></trkpt><trkpt lat="45.87662410571656" lon="11.06602997396088"><ele>316.0</ele><time>2026-05-01T13:14:42Z</time></trkpt><trkpt lat="45.876680242125026" lon="11.065902236801858"><ele>316.0</ele><time>2026-05-01T13:14:43Z</time></trkpt><trkpt lat="45.876744151787754" lon="11.065791155008593"><ele>316.0</ele><time>2026-05-01T13:14:44Z</time></trkpt><trkpt lat="45.87681243484068" lon="11.065690359055658"><ele>316.0</ele><time>2026-05-01T13:14:45Z</time></trkpt><trkpt lat="45.87688591122681" lon="11.065600413248665"><ele>316.0</ele><time>2026-05-01T13:14:46Z</time></trkpt><trkpt lat="45.876965453286815" lon="11.065521480896122"><ele>316.0</ele><time>2026-05-01T13:14:47Z</time></trkpt><trkpt lat="45.877050588669725" lon="11.06545021885794"><ele>315.40000000000003</ele><time>2026-05-01T13:14:48Z</time></trkpt><trkpt lat="45.877149172722326" lon="11.065421142150914"><ele>314.8</ele><time>2026-05-01T13:14:49Z</time></trkpt><trkpt lat="45.87723799187759" lon="11.065359284983566"><ele>314.20000000000005</ele><time>2026-05-01T13:14:50Z</time></trkpt><trkpt lat="45.87733382995926" lon="11.065332836738024"><ele>313.6</ele><time>2026-05-01T13:14:51Z</time></trkpt><trkpt lat="45.877411573277826" lon="11.065253735909417"><ele>313.0</ele><time>2026-05-01T13:14:52Z</time></trkpt><trkpt lat="45.87747106611267" lon="11.065132987148244"><ele>313.0</ele><time>2026-05-01T13:14:53Z</time></trkpt><trkpt lat="45.87751254680018" lon="11.065002232752303"><ele>313.0</ele><time>2026-05-01T13:14:54Z</time></trkpt><trkpt lat="45.8775457601464" lon="11.064875540307687"><ele>313.0</ele><time>2026-05-01T13:14:55Z</time></trkpt><trkpt lat="45.877549345753614" lon="11.06474312875776"><ele>313.0</ele><time>2026-05-01T13:14:56Z</time></trkpt><trkpt lat="45.87751675930498" lon="11.064608739726024"><ele>313.0</ele><time>2026-05-01T13:14:57Z</time></trkpt><trkpt lat="45.87746586915704" lon="11.064487510202563"><ele>308.4</ele><time>2026-05-01T13:14:58Z</time></trkpt><trkpt lat="45.8774091056673" lon="11.064395967099545"><ele>303.8</ele><time>2026-05-01T13:14:59Z</time></trkpt><trkpt lat="45.877393004826864" lon="11.064251657297458"><ele>299.2</ele><time>2026-05-01T13:15:01Z</time></trkpt><trkpt lat="45.87750213400585" lon="11.064156516710579"><ele>294.6</ele><time>2026-05-01T13:15:03Z</time></trkpt><trkpt lat="45.87758990001049" lon="11.064053796974743"><ele>290.0</ele><time>2026-05-01T13:15:05Z</time></trkpt><trkpt lat="45.87764168544494" lon="11.063987274590236"><ele>288.1666666666667</ele><time>2026-05-01T13:15:07Z</time></trkpt><trkpt lat="45.87769608534349" lon="11.063910588510389"><ele>286.33333333333337</ele><time>2026-05-01T13:15:09Z</time></trkpt><trkpt lat="45.87777593869999" lon="11.06380084278886"><ele>284.5</ele><time>2026-05-01T13:15:11Z</time></trkpt><trkpt lat="45.877822403369535" lon="11.063735346477625"><ele>282.6666666666667</ele><time>2026-05-01T13:15:12Z</time></trkpt><trkpt lat="45.877870200763226" lon="11.063669776479601"><ele>280.8333333333333</ele><time>2026-05-01T13:15:13.001Z</time></trkpt><trkpt lat="45.8779339900419" lon="11.063626075100714"><ele>279.0</ele><time>2026-05-01T13:15:14.001Z</time></trkpt><trkpt lat="45.878005012597555" lon="11.063609630281013"><ele>279.0</ele><time>2026-05-01T13:15:15.001Z</time></trkpt><trkpt lat="45.87808345125607" lon="11.063611887530714"><ele>279.0</ele><time>2026-05-01T13:15:16.001Z</time></trkpt><trkpt lat="45.8781632048406" lon="11.063615999871582"><ele>279.0</ele><time>2026-05-01T13:15:17.001Z</time></trkpt><trkpt lat="45.87824088898477" lon="11.063615693435016"><ele>279.0</ele><time>2026-05-01T13:15:18.001Z</time></trkpt><trkpt lat="45.87832477411265" lon="11.063602735872218"><ele>279.0</ele><time>2026-05-01T13:15:19.001Z</time></trkpt><trkpt lat="45.878400842944636" lon="11.063546918936627"><ele>279.0</ele><time>2026-05-01T13:15:20.001Z</time></trkpt><trkpt lat="45.87847099998474" lon="11.063474448697665"><ele>277.2</ele><time>2026-05-01T13:15:21.001Z</time></trkpt><trkpt lat="45.87855496558434" lon="11.063429700386125"><ele>275.4</ele><time>2026-05-01T13:15:22.001Z</time></trkpt><trkpt lat="45.87864745729828" lon="11.063419186646042"><ele>273.6</ele><time>2026-05-01T13:15:23.001Z</time></trkpt><trkpt lat="45.87874076143046" lon="11.06344601575261"><ele>271.8</ele><time>2026-05-01T13:15:24.001Z</time></trkpt><trkpt lat="45.87883288519279" lon="11.063493778437094"><ele>270.0</ele><time>2026-05-01T13:15:25.001Z</time></trkpt><trkpt lat="45.8789270208469" lon="11.0635375813146"><ele>270.0</ele><time>2026-05-01T13:15:26.001Z</time></trkpt><trkpt lat="45.879017161175796" lon="11.063578152060026"><ele>270.0</ele><time>2026-05-01T13:15:27.001Z</time></trkpt><trkpt lat="45.87910339059421" lon="11.063616638763044"><ele>270.0</ele><time>2026-05-01T13:15:28.001Z</time></trkpt><trkpt lat="45.8791850839394" lon="11.063648767523041"><ele>270.0</ele><time>2026-05-01T13:15:29.001Z</time></trkpt><trkpt lat="45.87926269419043" lon="11.063678807381871"><ele>270.0</ele><time>2026-05-01T13:15:30.001Z</time></trkpt><trkpt lat="45.87933460785063" lon="11.063707327489341"><ele>270.0</ele><time>2026-05-01T13:15:31.001Z</time></trkpt><trkpt lat="45.87940170642452" lon="11.0637158189748"><ele>271.4</ele><time>2026-05-01T13:15:32.001Z</time></trkpt><trkpt lat="45.87947472537327" lon="11.06367012891762"><ele>272.8</ele><time>2026-05-01T13:15:33.001Z</time></trkpt><trkpt lat="45.87955793036108" lon="11.063616748251171"><ele>274.2</ele><time>2026-05-01T13:15:34.001Z</time></trkpt><trkpt lat="45.879655956456126" lon="11.063565530010633"><ele>275.6</ele><time>2026-05-01T13:15:35.001Z</time></trkpt><trkpt lat="45.87975796496592" lon="11.063523801372728"><ele>277.0</ele><time>2026-05-01T13:15:36.001Z</time></trkpt><trkpt lat="45.87986928860565" lon="11.06350212911604"><ele>277.0</ele><time>2026-05-01T13:15:37.001Z</time></trkpt><trkpt lat="45.879983918412734" lon="11.063477893605192"><ele>277.0</ele><time>2026-05-01T13:15:38.001Z</time></trkpt><trkpt lat="45.88009794660188" lon="11.063438046324665"><ele>277.0</ele><time>2026-05-01T13:15:39.001Z</time></trkpt><trkpt lat="45.88021273497514" lon="11.06339332822928"><ele>277.0</ele><time>2026-05-01T13:15:40.001Z</time></trkpt><trkpt lat="45.88032755665147" lon="11.063348202890234"><ele>273.2</ele><time>2026-05-01T13:15:41.001Z</time></trkpt><trkpt lat="45.88044269942113" lon="11.06331531499924"><ele>269.4</ele><time>2026-05-01T13:15:42.001Z</time></trkpt><trkpt lat="45.8805422306455" lon="11.063262743296221"><ele>265.6</ele><time>2026-05-01T13:15:43.001Z</time></trkpt><trkpt lat="45.88064381865122" lon="11.063218345102413"><ele>261.8</ele><time>2026-05-01T13:15:44.001Z</time></trkpt><trkpt lat="45.88073424924539" lon="11.063132395544661"><ele>258.0</ele><time>2026-05-01T13:15:45.001Z</time></trkpt><trkpt lat="45.88080392932835" lon="11.063029752589998"><ele>258.0</ele><time>2026-05-01T13:15:46.001Z</time></trkpt><trkpt lat="45.88087715229439" lon="11.062930403427117"><ele>258.0</ele><time>2026-05-01T13:15:47.001Z</time></trkpt><trkpt lat="45.88096588693388" lon="11.062805561377996"><ele>258.0</ele><time>2026-05-01T13:15:48.001Z</time></trkpt><trkpt lat="45.881057280724086" lon="11.062752612808497"><ele>258.0</ele><time>2026-05-01T13:15:49.001Z</time></trkpt><trkpt lat="45.881128343232106" lon="11.062667428599655"><ele>258.0</ele><time>2026-05-01T13:15:50.001Z</time></trkpt><trkpt lat="45.88124254074457" lon="11.062654109715272"><ele>260.2</ele><time>2026-05-01T13:15:51.001Z</time></trkpt><trkpt lat="45.88135054185875" lon="11.06265842086248"><ele>262.4</ele><time>2026-05-01T13:15:52Z</time></trkpt><trkpt lat="45.88145955550587" lon="11.062683653735492"><ele>264.59999999999997</ele><time>2026-05-01T13:15:53Z</time></trkpt><trkpt lat="45.88156794409817" lon="11.062697827296649"><ele>266.8</ele><time>2026-05-01T13:15:54Z</time></trkpt><trkpt lat="45.88167891848549" lon="11.062700890706099"><ele>269.0</ele><time>2026-05-01T13:15:55Z</time></trkpt><trkpt lat="45.8817904175953" lon="11.062695545975624"><ele>270.5</ele><time>2026-05-01T13:15:56Z</time></trkpt><trkpt lat="45.88190714578524" lon="11.062693194738303"><ele>272.0</ele><time>2026-05-01T13:15:57Z</time></trkpt><trkpt lat="45.88202070897733" lon="11.062678118662573"><ele>273.5</ele><time>2026-05-01T13:15:58Z</time></trkpt><trkpt lat="45.88213747050714" lon="11.062667445827339"><ele>275.0</ele><time>2026-05-01T13:15:59Z</time></trkpt><trkpt lat="45.88225147432754" lon="11.06266107821724"><ele>275.0</ele><time>2026-05-01T13:16:00Z</time></trkpt><trkpt lat="45.882370575459774" lon="11.062653334601483"><ele>275.0</ele><time>2026-05-01T13:16:01Z</time></trkpt><trkpt lat="45.882486348185346" lon="11.062637960472244"><ele>275.0</ele><time>2026-05-01T13:16:02Z</time></trkpt><trkpt lat="45.88260410078146" lon="11.062624797813342"><ele>275.0</ele><time>2026-05-01T13:16:03Z</time></trkpt><trkpt lat="45.882723621669896" lon="11.062610261561074"><ele>278.75</ele><time>2026-05-01T13:16:04Z</time></trkpt><trkpt lat="45.88283570726836" lon="11.062560150325426"><ele>282.5</ele><time>2026-05-01T13:16:05Z</time></trkpt><trkpt lat="45.8829460638192" lon="11.062484550812206"><ele>286.25</ele><time>2026-05-01T13:16:06Z</time></trkpt><trkpt lat="45.88305603503213" lon="11.062397374926718"><ele>290.0</ele><time>2026-05-01T13:16:07Z</time></trkpt><trkpt lat="45.88316563321194" lon="11.062303012977054"><ele>287.5</ele><time>2026-05-01T13:16:08Z</time></trkpt><trkpt lat="45.88328073982982" lon="11.062227566325976"><ele>285.0</ele><time>2026-05-01T13:16:09Z</time></trkpt><trkpt lat="45.88340152470269" lon="11.062156192679861"><ele>282.5</ele><time>2026-05-01T13:16:10Z</time></trkpt><trkpt lat="45.88352115452387" lon="11.062081636605601"><ele>280.0</ele><time>2026-05-01T13:16:11Z</time></trkpt><trkpt lat="45.88363895976319" lon="11.062002674713177"><ele>280.0</ele><time>2026-05-01T13:16:12Z</time></trkpt><trkpt lat="45.883759937020585" lon="11.06193284583793"><ele>280.0</ele><time>2026-05-01T13:16:13Z</time></trkpt><trkpt lat="45.883870715433666" lon="11.061848986104335"><ele>280.0</ele><time>2026-05-01T13:16:14Z</time></trkpt><trkpt lat="45.88397095732417" lon="11.061749563732333"><ele>280.0</ele><time>2026-05-01T13:16:15Z</time></trkpt><trkpt lat="45.884067818530035" lon="11.061644064302888"><ele>279.0</ele><time>2026-05-01T13:16:16Z</time></trkpt><trkpt lat="45.88416233433734" lon="11.061539931574917"><ele>278.0</ele><time>2026-05-01T13:16:17Z</time></trkpt><trkpt lat="45.884255878137665" lon="11.061444250217713"><ele>277.0</ele><time>2026-05-01T13:16:18Z</time></trkpt><trkpt lat="45.884350886116955" lon="11.061341883692704"><ele>276.0</ele><time>2026-05-01T13:16:19Z</time></trkpt><trkpt lat="45.884447222493435" lon="11.061251637669278"><ele>276.0</ele><time>2026-05-01T13:16:20Z</time></trkpt><trkpt lat="45.884541157690165" lon="11.061150975085832"><ele>276.0</ele><time>2026-05-01T13:16:21Z</time></trkpt><trkpt lat="45.884651804360125" lon="11.061105561237508"><ele>276.0</ele><time>2026-05-01T13:16:22Z</time></trkpt><trkpt lat="45.88475705982313" lon="11.061028823955093"><ele>276.0</ele><time>2026-05-01T13:16:23Z</time></trkpt><trkpt lat="45.8848491192008" lon="11.060922376440946"><ele>276.0</ele><time>2026-05-01T13:16:24Z</time></trkpt><trkpt lat="45.88494248216231" lon="11.06082412524677"><ele>276.0</ele><time>2026-05-01T13:16:25Z</time></trkpt><trkpt lat="45.885028242414066" lon="11.060721164933522"><ele>276.0</ele><time>2026-05-01T13:16:26Z</time></trkpt><trkpt lat="45.88510605752232" lon="11.060612739756971"><ele>276.0</ele><time>2026-05-01T13:16:27Z</time></trkpt><trkpt lat="45.885169430486" lon="11.060479537073649"><ele>276.0</ele><time>2026-05-01T13:16:28Z</time></trkpt><trkpt lat="45.88522091108005" lon="11.06032922642379"><ele>275.0</ele><time>2026-05-01T13:16:29Z</time></trkpt><trkpt lat="45.88528017403827" lon="11.0601777191874"><ele>274.0</ele><time>2026-05-01T13:16:30Z</time></trkpt><trkpt lat="45.885332658858424" lon="11.060014671335692"><ele>273.0</ele><time>2026-05-01T13:16:31Z</time></trkpt><trkpt lat="45.88539041359582" lon="11.059854007209005"><ele>272.0</ele><time>2026-05-01T13:16:32Z</time></trkpt><trkpt lat="45.88545118942375" lon="11.059697588496148"><ele>272.0</ele><time>2026-05-01T13:16:33Z</time></trkpt><trkpt lat="45.885513425547266" lon="11.05953732567476"><ele>272.0</ele><time>2026-05-01T13:16:34Z</time></trkpt><trkpt lat="45.88557359325811" lon="11.059371006623042"><ele>272.0</ele><time>2026-05-01T13:16:35Z</time></trkpt><trkpt lat="45.88563155811171" lon="11.059195495344516"><ele>272.0</ele><time>2026-05-01T13:16:36Z</time></trkpt><trkpt lat="45.88568487837638" lon="11.059016538603185"><ele>270.25</ele><time>2026-05-01T13:16:37Z</time></trkpt><trkpt lat="45.885735845329236" lon="11.058840012205698"><ele>268.5</ele><time>2026-05-01T13:16:38Z</time></trkpt><trkpt lat="45.88578542708555" lon="11.058662082527347"><ele>266.75</ele><time>2026-05-01T13:16:39Z</time></trkpt><trkpt lat="45.885835606203145" lon="11.058481832831498"><ele>265.0</ele><time>2026-05-01T13:16:40Z</time></trkpt><trkpt lat="45.88588306159325" lon="11.058302007939245"><ele>265.25</ele><time>2026-05-01T13:16:41Z</time></trkpt><trkpt lat="45.88592886938726" lon="11.058130989184605"><ele>265.5</ele><time>2026-05-01T13:16:42Z</time></trkpt><trkpt lat="45.88597508074258" lon="11.05797055945733"><ele>265.75</ele><time>2026-05-01T13:16:43Z</time></trkpt><trkpt lat="45.88602506615" lon="11.05782718112138"><ele>266.0</ele><time>2026-05-01T13:16:44Z</time></trkpt><trkpt lat="45.886092893912284" lon="11.057714821610507"><ele>266.0</ele><time>2026-05-01T13:16:45Z</time></trkpt><trkpt lat="45.88621234130959" lon="11.057696452176243"><ele>266.0</ele><time>2026-05-01T13:16:46Z</time></trkpt><trkpt lat="45.88632342988575" lon="11.057629550043647"><ele>266.0</ele><time>2026-05-01T13:16:47Z</time></trkpt><trkpt lat="45.88643804487697" lon="11.057530542189662"><ele>266.0</ele><time>2026-05-01T13:16:48Z</time></trkpt><trkpt lat="45.88654948523999" lon="11.057436600516303"><ele>259.25</ele><time>2026-05-01T13:16:49Z</time></trkpt><trkpt lat="45.88665027665411" lon="11.057303194685876"><ele>252.5</ele><time>2026-05-01T13:16:50Z</time></trkpt><trkpt lat="45.886744542742306" lon="11.057145634347874"><ele>245.75</ele><time>2026-05-01T13:16:51Z</time></trkpt><trkpt lat="45.88682843156441" lon="11.056973655370399"><ele>239.0</ele><time>2026-05-01T13:16:52Z</time></trkpt><trkpt lat="45.88691229613434" lon="11.056807318834986"><ele>248.0</ele><time>2026-05-01T13:16:53Z</time></trkpt><trkpt lat="45.88699064803177" lon="11.056622751271549"><ele>257.0</ele><time>2026-05-01T13:16:54Z</time></trkpt><trkpt lat="45.887060266050625" lon="11.056437512061482"><ele>266.0</ele><time>2026-05-01T13:16:55Z</time></trkpt><trkpt lat="45.887118670336434" lon="11.05624474421399"><ele>275.0</ele><time>2026-05-01T13:16:56Z</time></trkpt><trkpt lat="45.88716693587988" lon="11.05604175738885"><ele>275.0</ele><time>2026-05-01T13:16:57Z</time></trkpt><trkpt lat="45.88721753100077" lon="11.055840656852506"><ele>275.0</ele><time>2026-05-01T13:16:58Z</time></trkpt><trkpt lat="45.887271071357134" lon="11.055636806485435"><ele>275.0</ele><time>2026-05-01T13:16:59Z</time></trkpt><trkpt lat="45.887317899604064" lon="11.055431270821844"><ele>270.0</ele><time>2026-05-01T13:17:00Z</time></trkpt><trkpt lat="45.887360268435124" lon="11.055220477057025"><ele>265.0</ele><time>2026-05-01T13:17:01Z</time></trkpt><trkpt lat="45.88739342905215" lon="11.055005297758061"><ele>260.0</ele><time>2026-05-01T13:17:02Z</time></trkpt><trkpt lat="45.887409756722484" lon="11.05477887102867"><ele>257.6666666666667</ele><time>2026-05-01T13:17:03Z</time></trkpt><trkpt lat="45.88741351434628" lon="11.054551274607988"><ele>255.33333333333331</ele><time>2026-05-01T13:17:04Z</time></trkpt><trkpt lat="45.88740829942433" lon="11.054330865251679"><ele>253.0</ele><time>2026-05-01T13:17:05Z</time></trkpt><trkpt lat="45.88738731828713" lon="11.054120336750966"><ele>251.0</ele><time>2026-05-01T13:17:06Z</time></trkpt><trkpt lat="45.887346918088745" lon="11.053917426719392"><ele>249.0</ele><time>2026-05-01T13:17:07Z</time></trkpt><trkpt lat="45.8873309814289" lon="11.053723470016246"><ele>247.0</ele><time>2026-05-01T13:17:08Z</time></trkpt><trkpt lat="45.887341528587754" lon="11.053538131538605"><ele>245.0</ele><time>2026-05-01T13:17:09Z</time></trkpt><trkpt lat="45.88736025591748" lon="11.053333805732633"><ele>244.75</ele><time>2026-05-01T13:17:10.001Z</time></trkpt><trkpt lat="45.88737524947244" lon="11.053128822695635"><ele>244.5</ele><time>2026-05-01T13:17:11.001Z</time></trkpt><trkpt lat="45.88739697760813" lon="11.052926909880567"><ele>244.25</ele><time>2026-05-01T13:17:12.001Z</time></trkpt><trkpt lat="45.887412801018385" lon="11.052727678836646"><ele>244.0</ele><time>2026-05-01T13:17:13.001Z</time></trkpt><trkpt lat="45.88743056339123" lon="11.052528536131602"><ele>243.75</ele><time>2026-05-01T13:17:14.001Z</time></trkpt><trkpt lat="45.88743721188159" lon="11.052326727908863"><ele>243.5</ele><time>2026-05-01T13:17:15.001Z</time></trkpt><trkpt lat="45.88742003541013" lon="11.052111955888167"><ele>243.25</ele><time>2026-05-01T13:17:16.001Z</time></trkpt><trkpt lat="45.887383578539634" lon="11.051897773814632"><ele>243.0</ele><time>2026-05-01T13:17:17.001Z</time></trkpt><trkpt lat="45.88734116150653" lon="11.051675397168895"><ele>244.0</ele><time>2026-05-01T13:17:18.001Z</time></trkpt><trkpt lat="45.887301652210084" lon="11.051457035932723"><ele>245.0</ele><time>2026-05-01T13:17:19.001Z</time></trkpt><trkpt lat="45.88726529746401" lon="11.051234910379156"><ele>246.0</ele><time>2026-05-01T13:17:20.001Z</time></trkpt><trkpt lat="45.88722835712326" lon="11.05101548779538"><ele>246.0</ele><time>2026-05-01T13:17:21.001Z</time></trkpt><trkpt lat="45.88719535377437" lon="11.050804136894008"><ele>246.0</ele><time>2026-05-01T13:17:22.001Z</time></trkpt><trkpt lat="45.88716222574965" lon="11.05059261374607"><ele>246.0</ele><time>2026-05-01T13:17:23.001Z</time></trkpt><trkpt lat="45.88713047951727" lon="11.050379669214387"><ele>245.75</ele><time>2026-05-01T13:17:24.001Z</time></trkpt><trkpt lat="45.88710536045165" lon="11.05017416874085"><ele>245.5</ele><time>2026-05-01T13:17:25.001Z</time></trkpt><trkpt lat="45.88708095942659" lon="11.049972706841116"><ele>245.25</ele><time>2026-05-01T13:17:26.001Z</time></trkpt><trkpt lat="45.88705669242726" lon="11.049774648742773"><ele>245.0</ele><time>2026-05-01T13:17:27.001Z</time></trkpt><trkpt lat="45.88703085402842" lon="11.049573836457121"><ele>244.5</ele><time>2026-05-01T13:17:28.001Z</time></trkpt><trkpt lat="45.887003560890165" lon="11.049381558056423"><ele>244.0</ele><time>2026-05-01T13:17:29.001Z</time></trkpt><trkpt lat="45.8869730800445" lon="11.049192510424605"><ele>243.5</ele><time>2026-05-01T13:17:30.001Z</time></trkpt><trkpt lat="45.886911800678185" lon="11.049020106676743"><ele>243.0</ele><time>2026-05-01T13:17:31.001Z</time></trkpt><trkpt lat="45.88682108862838" lon="11.048852384158963"><ele>239.5</ele><time>2026-05-01T13:17:32.001Z</time></trkpt><trkpt lat="45.886729931613154" lon="11.048676243895006"><ele>236.0</ele><time>2026-05-01T13:17:33.001Z</time></trkpt><trkpt lat="45.88665443650203" lon="11.048494742818953"><ele>232.5</ele><time>2026-05-01T13:17:34.001Z</time></trkpt><trkpt lat="45.88659467708661" lon="11.048302280625862"><ele>229.0</ele><time>2026-05-01T13:17:35.001Z</time></trkpt><trkpt lat="45.88651960722119" lon="11.048136385333294"><ele>229.0</ele><time>2026-05-01T13:17:36.001Z</time></trkpt><trkpt lat="45.88645671716517" lon="11.047969685787837"><ele>229.0</ele><time>2026-05-01T13:17:37.001Z</time></trkpt><trkpt lat="45.88639110661588" lon="11.047802037582843"><ele>229.0</ele><time>2026-05-01T13:17:38.001Z</time></trkpt><trkpt lat="45.88633710321679" lon="11.04763649792656"><ele>229.0</ele><time>2026-05-01T13:17:39.001Z</time></trkpt><trkpt lat="45.886282661623675" lon="11.04747613158455"><ele>228.5</ele><time>2026-05-01T13:17:40.001Z</time></trkpt><trkpt lat="45.88622682638268" lon="11.047320831779285"><ele>228.0</ele><time>2026-05-01T13:17:41.001Z</time></trkpt><trkpt lat="45.886169783992536" lon="11.047167572021428"><ele>227.5</ele><time>2026-05-01T13:17:42.001Z</time></trkpt><trkpt lat="45.886132260333" lon="11.046997362058121"><ele>227.0</ele><time>2026-05-01T13:17:43.001Z</time></trkpt><trkpt lat="45.886093555609705" lon="11.046836695151022"><ele>227.0</ele><time>2026-05-01T13:17:44.001Z</time></trkpt><trkpt lat="45.886054105354184" lon="11.046681616859235"><ele>227.0</ele><time>2026-05-01T13:17:45.001Z</time></trkpt><trkpt lat="45.88602426242092" lon="11.046535075392775"><ele>227.0</ele><time>2026-05-01T13:17:46.001Z</time></trkpt><trkpt lat="45.886018445939946" lon="11.046366870202236"><ele>227.0</ele><time>2026-05-01T13:17:47.001Z</time></trkpt><trkpt lat="45.88602509360313" lon="11.046214503252276"><ele>227.0</ele><time>2026-05-01T13:17:48.001Z</time></trkpt><trkpt lat="45.88604083683529" lon="11.046090743172648"><ele>225.16666666666669</ele><time>2026-05-01T13:17:49.001Z</time></trkpt><trkpt lat="45.886062169885804" lon="11.045980329145085"><ele>223.33333333333334</ele><time>2026-05-01T13:17:50.001Z</time></trkpt><trkpt lat="45.88610920457576" lon="11.045883745225169"><ele>221.5</ele><time>2026-05-01T13:17:51.001Z</time></trkpt><trkpt lat="45.886180718231905" lon="11.045829638248389"><ele>219.66666666666669</ele><time>2026-05-01T13:17:52.001Z</time></trkpt><trkpt lat="45.88624658068173" lon="11.045765608844436"><ele>217.83333333333334</ele><time>2026-05-01T13:17:53.001Z</time></trkpt><trkpt lat="45.886312076605144" lon="11.045727149848277"><ele>216.0</ele><time>2026-05-01T13:17:54.001Z</time></trkpt><trkpt lat="45.88637208531727" lon="11.045682977698531"><ele>214.20000000000002</ele><time>2026-05-01T13:17:55.001Z</time></trkpt><trkpt lat="45.88646517591156" lon="11.045612873774733"><ele>212.40000000000003</ele><time>2026-05-01T13:17:57.001Z</time></trkpt><trkpt lat="45.886561963015296" lon="11.045548356386629"><ele>210.6</ele><time>2026-05-01T13:17:59Z</time></trkpt><trkpt lat="45.88662791127809" lon="11.045512703619785"><ele>208.8</ele><time>2026-05-01T13:18:01Z</time></trkpt><trkpt lat="45.88668774624323" lon="11.04546813133171"><ele>207.0</ele><time>2026-05-01T13:18:05Z</time></trkpt><trkpt lat="45.886738436058195" lon="11.045316173164922"><ele>207.0</ele><time>2026-05-01T13:23:57.001Z</time></trkpt><trkpt lat="45.88671539856529" lon="11.045178619013061"><ele>207.0</ele><time>2026-05-01T13:23:59.001Z</time></trkpt><trkpt lat="45.886662413957595" lon="11.045078110930847"><ele>207.0</ele><time>2026-05-01T13:24:01.001Z</time></trkpt><trkpt lat="45.88661539277066" lon="11.04496479047817"><ele>207.0</ele><time>2026-05-01T13:24:03.001Z</time></trkpt><trkpt lat="45.886560261074514" lon="11.04482487981345"><ele>207.0</ele><time>2026-05-01T13:24:05.001Z</time></trkpt><trkpt lat="45.88653442185516" lon="11.04467130966316"><ele>206.66666666666666</ele><time>2026-05-01T13:24:07.001Z</time></trkpt><trkpt lat="45.886603913484116" lon="11.044618023873083"><ele>206.33333333333331</ele><time>2026-05-01T13:24:08.001Z</time></trkpt><trkpt lat="45.88665700366721" lon="11.04453881030568"><ele>206.0</ele><time>2026-05-01T13:24:09.001Z</time></trkpt><trkpt lat="45.88671680436076" lon="11.044445425793278"><ele>205.66666666666666</ele><time>2026-05-01T13:24:10.001Z</time></trkpt><trkpt lat="45.886781170881285" lon="11.044347795292959"><ele>205.33333333333331</ele><time>2026-05-01T13:24:11.001Z</time></trkpt><trkpt lat="45.88684796348706" lon="11.044249497869016"><ele>205.0</ele><time>2026-05-01T13:24:12.001Z</time></trkpt><trkpt lat="45.88691670002581" lon="11.044148341043975"><ele>204.99999999999997</ele><time>2026-05-01T13:24:13.001Z</time></trkpt><trkpt lat="45.8869813572929" lon="11.044054612675843"><ele>205.0</ele><time>2026-05-01T13:24:14.001Z</time></trkpt><trkpt lat="45.8870397918149" lon="11.043970515695806"><ele>205.0</ele><time>2026-05-01T13:24:15.001Z</time></trkpt><trkpt lat="45.88709276876915" lon="11.043895274896505"><ele>205.0</ele><time>2026-05-01T13:24:15.999Z</time></trkpt><trkpt lat="45.88714251377433" lon="11.043820735996597"><ele>204.99999999999997</ele><time>2026-05-01T13:24:16.999Z</time></trkpt><trkpt lat="45.887189692515996" lon="11.043749700613466"><ele>205.0</ele><time>2026-05-01T13:24:17.999Z</time></trkpt><trkpt lat="45.887220782032045" lon="11.04364446136621"><ele>205.0</ele><time>2026-05-01T13:24:18.999Z</time></trkpt><trkpt lat="45.88714469468897" lon="11.043418174465518"><ele>205.0</ele><time>2026-05-01T13:24:19.999Z</time></trkpt><trkpt lat="45.887143509336475" lon="11.043265685238115"><ele>205.0</ele><time>2026-05-01T13:24:20.999Z</time></trkpt><trkpt lat="45.887148232419335" lon="11.04310506794503"><ele>205.0</ele><time>2026-05-01T13:24:21.999Z</time></trkpt><trkpt lat="45.887148404143396" lon="11.042940213496335"><ele>204.4</ele><time>2026-05-01T13:24:22.999Z</time></trkpt><trkpt lat="45.88715254474008" lon="11.042778933813763"><ele>203.8</ele><time>2026-05-01T13:24:23.999Z</time></trkpt><trkpt lat="45.88715336281523" lon="11.042617080802462"><ele>203.2</ele><time>2026-05-01T13:24:24.999Z</time></trkpt><trkpt lat="45.88715451242067" lon="11.042462924323484"><ele>202.6</ele><time>2026-05-01T13:24:25.999Z</time></trkpt><trkpt lat="45.88715879691582" lon="11.042316265371594"><ele>202.0</ele><time>2026-05-01T13:24:26.999Z</time></trkpt><trkpt lat="45.887166173176176" lon="11.04218078452761"><ele>201.66666666666666</ele><time>2026-05-01T13:24:27.999Z</time></trkpt><trkpt lat="45.88716914370009" lon="11.042045572409084"><ele>201.33333333333331</ele><time>2026-05-01T13:24:28.999Z</time></trkpt><trkpt lat="45.88717327045975" lon="11.041922428933196"><ele>201.0</ele><time>2026-05-01T13:24:29.999Z</time></trkpt><trkpt lat="45.88717823138376" lon="11.04179622153276"><ele>200.66666666666669</ele><time>2026-05-01T13:24:30.999Z</time></trkpt><trkpt lat="45.88718897385719" lon="11.041666407440328"><ele>200.33333333333334</ele><time>2026-05-01T13:24:31.999Z</time></trkpt><trkpt lat="45.88720457282944" lon="11.041550490103363"><ele>200.0</ele><time>2026-05-01T13:24:32.999Z</time></trkpt><trkpt lat="45.887224397146866" lon="11.041441858892403"><ele>200.00000000000003</ele><time>2026-05-01T13:24:34Z</time></trkpt><trkpt lat="45.88724547468904" lon="11.04133092813376"><ele>200.0</ele><time>2026-05-01T13:24:35Z</time></trkpt><trkpt lat="45.887263846955285" lon="11.041206978942846"><ele>200.0</ele><time>2026-05-01T13:24:36Z</time></trkpt><trkpt lat="45.88728646359573" lon="11.041078643579832"><ele>200.0</ele><time>2026-05-01T13:24:37Z</time></trkpt><trkpt lat="45.887305668205" lon="11.04094526691787"><ele>200.00000000000003</ele><time>2026-05-01T13:24:38Z</time></trkpt><trkpt lat="45.88731600716034" lon="11.040833147952359"><ele>200.0</ele><time>2026-05-01T13:24:39Z</time></trkpt><trkpt lat="45.88731820635343" lon="11.040698956901036"><ele>199.66666666666669</ele><time>2026-05-01T13:24:41Z</time></trkpt><trkpt lat="45.88730491625145" lon="11.040573399049018"><ele>199.33333333333334</ele><time>2026-05-01T13:25:35Z</time></trkpt><trkpt lat="45.88729709968692" lon="11.040483093177146"><ele>199.0</ele><time>2026-05-01T13:25:36Z</time></trkpt><trkpt lat="45.88726784040133" lon="11.040383622914845"><ele>198.66666666666669</ele><time>2026-05-01T13:25:37Z</time></trkpt><trkpt lat="45.887259367643686" lon="11.040269936440442"><ele>198.33333333333334</ele><time>2026-05-01T13:25:38Z</time></trkpt><trkpt lat="45.88724506679109" lon="11.040143964367857"><ele>198.0</ele><time>2026-05-01T13:25:39Z</time></trkpt><trkpt lat="45.88724041676675" lon="11.040004455982684"><ele>198.0</ele><time>2026-05-01T13:25:40Z</time></trkpt><trkpt lat="45.88723600472758" lon="11.039862311886036"><ele>198.0</ele><time>2026-05-01T13:25:41.001Z</time></trkpt><trkpt lat="45.88722206514535" lon="11.039713644446538"><ele>198.0</ele><time>2026-05-01T13:25:42.001Z</time></trkpt><trkpt lat="45.88721823876862" lon="11.039563849459626"><ele>198.0</ele><time>2026-05-01T13:25:43.001Z</time></trkpt><trkpt lat="45.88720787075597" lon="11.039403678933827"><ele>198.0</ele><time>2026-05-01T13:25:44.001Z</time></trkpt><trkpt lat="45.88719940293327" lon="11.039242881924874"><ele>197.8</ele><time>2026-05-01T13:25:45.001Z</time></trkpt><trkpt lat="45.88719141391629" lon="11.039083613738462"><ele>197.60000000000002</ele><time>2026-05-01T13:25:46.001Z</time></trkpt><trkpt lat="45.88719531279225" lon="11.038924822556021"><ele>197.39999999999998</ele><time>2026-05-01T13:25:47.001Z</time></trkpt><trkpt lat="45.88719426690652" lon="11.038766423390017"><ele>197.2</ele><time>2026-05-01T13:25:48.001Z</time></trkpt><trkpt lat="45.88717656480156" lon="11.038615208500808"><ele>197.0</ele><time>2026-05-01T13:25:49.001Z</time></trkpt><trkpt lat="45.88716939271901" lon="11.038470518785552"><ele>197.0</ele><time>2026-05-01T13:25:50.001Z</time></trkpt><trkpt lat="45.88716244735566" lon="11.038323867243346"><ele>197.0</ele><time>2026-05-01T13:25:51.001Z</time></trkpt><trkpt lat="45.88716297672237" lon="11.038190377060806"><ele>197.0</ele><time>2026-05-01T13:25:52.001Z</time></trkpt><trkpt lat="45.88715459443328" lon="11.038037127268975"><ele>197.0</ele><time>2026-05-01T13:25:53.001Z</time></trkpt><trkpt lat="45.88714274895884" lon="11.037886948919317"><ele>197.0</ele><time>2026-05-01T13:25:54.001Z</time></trkpt><trkpt lat="45.887134991737845" lon="11.037738267692303"><ele>196.8</ele><time>2026-05-01T13:25:55.001Z</time></trkpt><trkpt lat="45.88712513496496" lon="11.037583951836488"><ele>196.6</ele><time>2026-05-01T13:25:56.001Z</time></trkpt><trkpt lat="45.88711610409378" lon="11.037443359695173"><ele>196.4</ele><time>2026-05-01T13:25:57.001Z</time></trkpt><trkpt lat="45.88710871245322" lon="11.03729629368826"><ele>196.20000000000002</ele><time>2026-05-01T13:25:58.001Z</time></trkpt><trkpt lat="45.88710768520727" lon="11.037163823954396"><ele>196.0</ele><time>2026-05-01T13:25:59.001Z</time></trkpt><trkpt lat="45.887108479276" lon="11.037050601344434"><ele>195.66666666666666</ele><time>2026-05-01T13:26:00.001Z</time></trkpt><trkpt lat="45.88710017603279" lon="11.036949987928809"><ele>195.33333333333331</ele><time>2026-05-01T13:26:01.001Z</time></trkpt><trkpt lat="45.887095691366426" lon="11.036826145217184"><ele>195.0</ele><time>2026-05-01T13:26:02.001Z</time></trkpt><trkpt lat="45.887090945326385" lon="11.036709191714841"><ele>194.66666666666669</ele><time>2026-05-01T13:26:03.001Z</time></trkpt><trkpt lat="45.88710774323153" lon="11.036604834987013"><ele>194.33333333333334</ele><time>2026-05-01T13:26:04.001Z</time></trkpt><trkpt lat="45.887132547122036" lon="11.03650251751895"><ele>194.0</ele><time>2026-05-01T13:26:05.001Z</time></trkpt><trkpt lat="45.88715185087252" lon="11.036415512956411"><ele>193.79999999999998</ele><time>2026-05-01T13:26:06.001Z</time></trkpt><trkpt lat="45.88719333442443" lon="11.036285727984671"><ele>193.6</ele><time>2026-05-01T13:26:08.001Z</time></trkpt><trkpt lat="45.887192746222006" lon="11.036038263717552"><ele>193.4</ele><time>2026-05-01T13:30:56.999Z</time></trkpt><trkpt lat="45.88714958053918" lon="11.035958164652158"><ele>193.2</ele><time>2026-05-01T13:35:33.001Z</time></trkpt><trkpt lat="45.88708863487883" lon="11.03588163425229"><ele>193.0</ele><time>2026-05-01T13:35:43.001Z</time></trkpt><trkpt lat="45.88707798296785" lon="11.0357195061094"><ele>193.00000000000003</ele><time>2026-05-01T13:35:45.001Z</time></trkpt><trkpt lat="45.887088571393676" lon="11.035627710239783"><ele>193.0</ele><time>2026-05-01T13:35:46.001Z</time></trkpt><trkpt lat="45.88709756707273" lon="11.035529677010157"><ele>193.0</ele><time>2026-05-01T13:35:47.001Z</time></trkpt><trkpt lat="45.88710781576389" lon="11.035427230305231"><ele>193.0</ele><time>2026-05-01T13:35:48.001Z</time></trkpt><trkpt lat="45.887115108732935" lon="11.035323215434053"><ele>193.0</ele><time>2026-05-01T13:35:49.001Z</time></trkpt><trkpt lat="45.887111594583864" lon="11.035221051022658"><ele>193.00000000000003</ele><time>2026-05-01T13:35:50.001Z</time></trkpt><trkpt lat="45.88707908904472" lon="11.0351395752284"><ele>193.0</ele><time>2026-05-01T13:35:51.001Z</time></trkpt><trkpt lat="45.88701169636243" lon="11.035098970273642"><ele>192.99999999999997</ele><time>2026-05-01T13:35:52.001Z</time></trkpt><trkpt lat="45.88693254917042" lon="11.035093285630698"><ele>193.0</ele><time>2026-05-01T13:35:53.001Z</time></trkpt><trkpt lat="45.886859798252125" lon="11.035053467317086"><ele>193.0</ele><time>2026-05-01T13:35:54.001Z</time></trkpt><trkpt lat="45.886809048226674" lon="11.034964306009943"><ele>193.0</ele><time>2026-05-01T13:35:55.001Z</time></trkpt><trkpt lat="45.8867838403263" lon="11.034838174501894"><ele>192.99999999999997</ele><time>2026-05-01T13:35:56.001Z</time></trkpt><trkpt lat="45.88676878357518" lon="11.034700903335798"><ele>193.0</ele><time>2026-05-01T13:35:57.002Z</time></trkpt><trkpt lat="45.8867528010275" lon="11.034553622841635"><ele>192.4</ele><time>2026-05-01T13:35:58.002Z</time></trkpt><trkpt lat="45.886733623902025" lon="11.034404281992712"><ele>191.8</ele><time>2026-05-01T13:35:59.002Z</time></trkpt><trkpt lat="45.88671777978652" lon="11.034265148014185"><ele>191.2</ele><time>2026-05-01T13:36:00.002Z</time></trkpt><trkpt lat="45.886699499589405" lon="11.034116722728166"><ele>190.6</ele><time>2026-05-01T13:36:01.002Z</time></trkpt><trkpt lat="45.88667793996314" lon="11.03396960296269"><ele>190.0</ele><time>2026-05-01T13:36:02.002Z</time></trkpt><trkpt lat="45.88666918787904" lon="11.033818044523962"><ele>189.83333333333334</ele><time>2026-05-01T13:36:03.002Z</time></trkpt><trkpt lat="45.88667723798719" lon="11.033666138446023"><ele>189.66666666666669</ele><time>2026-05-01T13:36:04.002Z</time></trkpt><trkpt lat="45.886672848401666" lon="11.033526291875035"><ele>189.5</ele><time>2026-05-01T13:36:05.002Z</time></trkpt><trkpt lat="45.886672895386546" lon="11.033415951633295"><ele>189.33333333333334</ele><time>2026-05-01T13:36:06.002Z</time></trkpt><trkpt lat="45.88668068201539" lon="11.033321970256738"><ele>189.16666666666666</ele><time>2026-05-01T13:36:08.002Z</time></trkpt><trkpt lat="45.886687821822186" lon="11.033193809333087"><ele>189.0</ele><time>2026-05-01T13:36:10.002Z</time></trkpt><trkpt lat="45.88660758182592" lon="11.033056840365909"><ele>188.79999999999998</ele><time>2026-05-01T13:36:12.002Z</time></trkpt><trkpt lat="45.8865198522878" lon="11.033014160961539"><ele>188.6</ele><time>2026-05-01T13:36:13.002Z</time></trkpt><trkpt lat="45.8864241240023" lon="11.032993361803227"><ele>188.4</ele><time>2026-05-01T13:36:14.002Z</time></trkpt><trkpt lat="45.88630878563344" lon="11.03298047510655"><ele>188.2</ele><time>2026-05-01T13:36:15.002Z</time></trkpt><trkpt lat="45.8861910225019" lon="11.032968802953897"><ele>188.0</ele><time>2026-05-01T13:36:16.002Z</time></trkpt><trkpt lat="45.88607372200157" lon="11.032950003450651"><ele>188.0</ele><time>2026-05-01T13:36:17.002Z</time></trkpt><trkpt lat="45.88594964827116" lon="11.032932675420238"><ele>188.0</ele><time>2026-05-01T13:36:18.002Z</time></trkpt><trkpt lat="45.885826721347634" lon="11.032912281923434"><ele>188.0</ele><time>2026-05-01T13:36:19.002Z</time></trkpt><trkpt lat="45.88570464746984" lon="11.03289270378325"><ele>188.0</ele><time>2026-05-01T13:36:20.002Z</time></trkpt><trkpt lat="45.88559277556323" lon="11.032875579967936"><ele>187.60000000000002</ele><time>2026-05-01T13:36:21.002Z</time></trkpt><trkpt lat="45.88548598156675" lon="11.032862623623958"><ele>187.20000000000002</ele><time>2026-05-01T13:36:22.002Z</time></trkpt><trkpt lat="45.88538288611381" lon="11.032843284813056"><ele>186.8</ele><time>2026-05-01T13:36:23.002Z</time></trkpt><trkpt lat="45.885286280260196" lon="11.032812438436123"><ele>186.4</ele><time>2026-05-01T13:36:24.002Z</time></trkpt><trkpt lat="45.88519646174454" lon="11.032798394462844"><ele>186.0</ele><time>2026-05-01T13:36:25.002Z</time></trkpt><trkpt lat="45.88509761169892" lon="11.032785235642184"><ele>186.0</ele><time>2026-05-01T13:36:26.002Z</time></trkpt><trkpt lat="45.88509761169892" lon="11.032785235642184"><ele>186.0</ele><time>2026-05-01T13:36:26.002Z</time></trkpt><trkpt lat="45.88509761169892" lon="11.032785235642184"><ele>186.0</ele><time>2026-05-01T13:36:26.002Z</time></trkpt><trkpt lat="45.88509761169892" lon="11.032785235642184"><ele>186.0</ele><time>2026-05-01T13:36:26.002Z</time></trkpt><trkpt lat="45.88509761169892" lon="11.032785235642184"><ele>186.0</ele><time>2026-05-01T13:36:26.002Z</time></trkpt><trkpt lat="45.88458330047565" lon="11.03271425605909"><ele>186.0</ele><time>2026-05-01T13:36:31.002Z</time></trkpt><trkpt lat="45.88447806625335" lon="11.032699827481988"><ele>186.0</ele><time>2026-05-01T13:36:32.002Z</time></trkpt><trkpt lat="45.884373030345806" lon="11.032680919702146"><ele>186.0</ele><time>2026-05-01T13:36:33.002Z</time></trkpt><trkpt lat="45.88426731635324" lon="11.032666889332326"><ele>186.0</ele><time>2026-05-01T13:36:34.002Z</time></trkpt><trkpt lat="45.884156910788946" lon="11.032646343915419"><ele>186.0</ele><time>2026-05-01T13:36:35.002Z</time></trkpt><trkpt lat="45.88404434139935" lon="11.032625903898484"><ele>185.75</ele><time>2026-05-01T13:36:36.002Z</time></trkpt><trkpt lat="45.8839286810446" lon="11.032607000961008"><ele>185.5</ele><time>2026-05-01T13:36:37.002Z</time></trkpt><trkpt lat="45.88380809794407" lon="11.032589218498503"><ele>185.25</ele><time>2026-05-01T13:36:38.002Z</time></trkpt><trkpt lat="45.883685903121524" lon="11.032574369467431"><ele>185.0</ele><time>2026-05-01T13:36:39.002Z</time></trkpt><trkpt lat="45.8835604911732" lon="11.032555646351527"><ele>185.0</ele><time>2026-05-01T13:36:40.002Z</time></trkpt><trkpt lat="45.883437998770916" lon="11.032528300139406"><ele>185.0</ele><time>2026-05-01T13:36:41.002Z</time></trkpt><trkpt lat="45.883314134052746" lon="11.03250479513402"><ele>185.0</ele><time>2026-05-01T13:36:42.002Z</time></trkpt><trkpt lat="45.88318600942801" lon="11.032478267797618"><ele>185.0</ele><time>2026-05-01T13:36:43.002Z</time></trkpt><trkpt lat="45.883059395931234" lon="11.032455609071148"><ele>180.0</ele><time>2026-05-01T13:36:44.002Z</time></trkpt></trkseg></trk></gpx>